<?xml version="1.0" encoding="UTF-8" standalone="no" ?>
<gpx xmlns="http://www.topografix.com/GPX/1/1" xmlns:xsi="http://www.w3.org/2001/XMLSchema-instance" xsi:schemaLocation="http://www.topografix.com/GPX/1/1 http://www.topografix.com/GPX/1/1/gpx.xsd" version="1.1" creator="VisuGPX - https://www.visugpx.com">
  <metadata>
    <name>2017-06-26 Bike ride-Amberieux en Dombes O via Toussieux</name>
    <desc><![CDATA[2017-06-26 Bike ride-Amberieux en Dombes O via Toussieux]]></desc>
  </metadata>
  <wpt lat="45.9243" lon="4.73708">
    <ele>174</ele>
    <name><![CDATA[2017-06-26 09:36 (Start)]]></name>
  </wpt>
  <wpt lat="45.9246" lon="4.73709">
    <ele>174</ele>
    <name><![CDATA[2017-06-26 09:36 (End)]]></name>
    <desc><![CDATA[Created by Google My Tracks on Android  Name: 2017-06-26 09:36 Activity type: biking Description: - Total distance: 40.71 km (25.3 mi) Total time: 2:14:19 Moving time: 2:11:51 Average speed: 18.18 km/h (11.3 mi/h) Average moving speed: 18.52 km/h (11.5 mi/h) Max speed: 49.36 km/h (30.7 mi/h) Average pace: 3:18 min/km (5:19 min/mi) Average moving pace: 3:14 min/km (5:13 min/mi) Fastest pace: 1:13 min/km (1:57 min/mi) Max elevation: 303 m (993 ft) Min elevation: 164 m (539 ft) Elevation gain: 556 m (1825 ft) Max grade: 10 % Min grade: -8 % Recorded: 26/06/2017 09:36]]></desc>
  </wpt>
  <trk>
    <name><![CDATA[2017-06-26 09:36]]></name>
    <trkseg>
      <trkpt lat="45.9243" lon="4.73708">
        <ele>174</ele>
        <time>2017-06-26T07:36:05.627Z</time>
      </trkpt>
      <trkpt lat="45.9243" lon="4.73707">
        <ele>174</ele>
        <time>2017-06-26T07:36:21Z</time>
      </trkpt>
      <trkpt lat="45.92439" lon="4.73708">
        <ele>174</ele>
        <time>2017-06-26T07:36:36Z</time>
      </trkpt>
      <trkpt lat="45.92439" lon="4.73708">
        <ele>174</ele>
        <time>2017-06-26T07:36:37Z</time>
      </trkpt>
      <trkpt lat="45.92441" lon="4.73708">
        <ele>174</ele>
        <time>2017-06-26T07:36:48Z</time>
      </trkpt>
      <trkpt lat="45.9245" lon="4.73715">
        <ele>174</ele>
        <time>2017-06-26T07:36:49Z</time>
      </trkpt>
      <trkpt lat="45.92455" lon="4.73707">
        <ele>174</ele>
        <time>2017-06-26T07:37:19Z</time>
      </trkpt>
      <trkpt lat="45.92459" lon="4.73704">
        <ele>174</ele>
        <time>2017-06-26T07:37:20Z</time>
      </trkpt>
      <trkpt lat="45.92464" lon="4.73694">
        <ele>174</ele>
        <time>2017-06-26T07:37:25Z</time>
      </trkpt>
      <trkpt lat="45.92465" lon="4.73691">
        <ele>174</ele>
        <time>2017-06-26T07:37:26Z</time>
      </trkpt>
      <trkpt lat="45.92466" lon="4.73681">
        <ele>174</ele>
        <time>2017-06-26T07:37:29Z</time>
      </trkpt>
      <trkpt lat="45.92466" lon="4.73677">
        <ele>174</ele>
        <time>2017-06-26T07:37:30Z</time>
      </trkpt>
      <trkpt lat="45.92468" lon="4.73665">
        <ele>174</ele>
        <time>2017-06-26T07:37:33Z</time>
      </trkpt>
      <trkpt lat="45.92468" lon="4.7366">
        <ele>174</ele>
        <time>2017-06-26T07:37:34Z</time>
      </trkpt>
      <trkpt lat="45.92469" lon="4.73651">
        <ele>174</ele>
        <time>2017-06-26T07:37:36Z</time>
      </trkpt>
      <trkpt lat="45.92469" lon="4.73647">
        <ele>174</ele>
        <time>2017-06-26T07:37:37Z</time>
      </trkpt>
      <trkpt lat="45.92474" lon="4.73638">
        <ele>174</ele>
        <time>2017-06-26T07:37:40Z</time>
      </trkpt>
      <trkpt lat="45.92477" lon="4.73638">
        <ele>174</ele>
        <time>2017-06-26T07:37:41Z</time>
      </trkpt>
      <trkpt lat="45.92484" lon="4.73638">
        <ele>174</ele>
        <time>2017-06-26T07:37:43Z</time>
      </trkpt>
      <trkpt lat="45.92488" lon="4.73638">
        <ele>174</ele>
        <time>2017-06-26T07:37:44Z</time>
      </trkpt>
      <trkpt lat="45.92496" lon="4.73637">
        <ele>174</ele>
        <time>2017-06-26T07:37:46Z</time>
      </trkpt>
      <trkpt lat="45.925" lon="4.73637">
        <ele>174</ele>
        <time>2017-06-26T07:37:47Z</time>
      </trkpt>
      <trkpt lat="45.92509" lon="4.73637">
        <ele>174</ele>
        <time>2017-06-26T07:37:49Z</time>
      </trkpt>
      <trkpt lat="45.92514" lon="4.73637">
        <ele>173</ele>
        <time>2017-06-26T07:37:50Z</time>
      </trkpt>
      <trkpt lat="45.92518" lon="4.73637">
        <ele>173</ele>
        <time>2017-06-26T07:37:51Z</time>
      </trkpt>
      <trkpt lat="45.92523" lon="4.73636">
        <ele>173</ele>
        <time>2017-06-26T07:37:52Z</time>
      </trkpt>
      <trkpt lat="45.92528" lon="4.73636">
        <ele>173</ele>
        <time>2017-06-26T07:37:53Z</time>
      </trkpt>
      <trkpt lat="45.92533" lon="4.73636">
        <ele>173</ele>
        <time>2017-06-26T07:37:54Z</time>
      </trkpt>
      <trkpt lat="45.92538" lon="4.73635">
        <ele>173</ele>
        <time>2017-06-26T07:37:55Z</time>
      </trkpt>
      <trkpt lat="45.92543" lon="4.73634">
        <ele>173</ele>
        <time>2017-06-26T07:37:56Z</time>
      </trkpt>
      <trkpt lat="45.92549" lon="4.73633">
        <ele>173</ele>
        <time>2017-06-26T07:37:57Z</time>
      </trkpt>
      <trkpt lat="45.92554" lon="4.73632">
        <ele>173</ele>
        <time>2017-06-26T07:37:58Z</time>
      </trkpt>
      <trkpt lat="45.92559" lon="4.73631">
        <ele>173</ele>
        <time>2017-06-26T07:37:59Z</time>
      </trkpt>
      <trkpt lat="45.92564" lon="4.7363">
        <ele>173</ele>
        <time>2017-06-26T07:38:00Z</time>
      </trkpt>
      <trkpt lat="45.92569" lon="4.73628">
        <ele>173</ele>
        <time>2017-06-26T07:38:01Z</time>
      </trkpt>
      <trkpt lat="45.92574" lon="4.73626">
        <ele>173</ele>
        <time>2017-06-26T07:38:02Z</time>
      </trkpt>
      <trkpt lat="45.9258" lon="4.73624">
        <ele>173</ele>
        <time>2017-06-26T07:38:03Z</time>
      </trkpt>
      <trkpt lat="45.92585" lon="4.73622">
        <ele>173</ele>
        <time>2017-06-26T07:38:04Z</time>
      </trkpt>
      <trkpt lat="45.9259" lon="4.73621">
        <ele>173</ele>
        <time>2017-06-26T07:38:05Z</time>
      </trkpt>
      <trkpt lat="45.92595" lon="4.7362">
        <ele>173</ele>
        <time>2017-06-26T07:38:06Z</time>
      </trkpt>
      <trkpt lat="45.92601" lon="4.73621">
        <ele>173</ele>
        <time>2017-06-26T07:38:07Z</time>
      </trkpt>
      <trkpt lat="45.92606" lon="4.73621">
        <ele>173</ele>
        <time>2017-06-26T07:38:08Z</time>
      </trkpt>
      <trkpt lat="45.92612" lon="4.73621">
        <ele>173</ele>
        <time>2017-06-26T07:38:09Z</time>
      </trkpt>
      <trkpt lat="45.92617" lon="4.73625">
        <ele>173</ele>
        <time>2017-06-26T07:38:10Z</time>
      </trkpt>
      <trkpt lat="45.92621" lon="4.7363">
        <ele>173</ele>
        <time>2017-06-26T07:38:11Z</time>
      </trkpt>
      <trkpt lat="45.92623" lon="4.73637">
        <ele>173</ele>
        <time>2017-06-26T07:38:12Z</time>
      </trkpt>
      <trkpt lat="45.92626" lon="4.73643">
        <ele>173</ele>
        <time>2017-06-26T07:38:13Z</time>
      </trkpt>
      <trkpt lat="45.92628" lon="4.7365">
        <ele>173</ele>
        <time>2017-06-26T07:38:14Z</time>
      </trkpt>
      <trkpt lat="45.92631" lon="4.73656">
        <ele>173</ele>
        <time>2017-06-26T07:38:15Z</time>
      </trkpt>
      <trkpt lat="45.92634" lon="4.73661">
        <ele>173</ele>
        <time>2017-06-26T07:38:16Z</time>
      </trkpt>
      <trkpt lat="45.92637" lon="4.73667">
        <ele>173</ele>
        <time>2017-06-26T07:38:17Z</time>
      </trkpt>
      <trkpt lat="45.92641" lon="4.73673">
        <ele>173</ele>
        <time>2017-06-26T07:38:18Z</time>
      </trkpt>
      <trkpt lat="45.92645" lon="4.73679">
        <ele>173</ele>
        <time>2017-06-26T07:38:19Z</time>
      </trkpt>
      <trkpt lat="45.92649" lon="4.73684">
        <ele>173</ele>
        <time>2017-06-26T07:38:20Z</time>
      </trkpt>
      <trkpt lat="45.92654" lon="4.73688">
        <ele>173</ele>
        <time>2017-06-26T07:38:21Z</time>
      </trkpt>
      <trkpt lat="45.92658" lon="4.73693">
        <ele>173</ele>
        <time>2017-06-26T07:38:22Z</time>
      </trkpt>
      <trkpt lat="45.92663" lon="4.73697">
        <ele>173</ele>
        <time>2017-06-26T07:38:23Z</time>
      </trkpt>
      <trkpt lat="45.92669" lon="4.73701">
        <ele>174</ele>
        <time>2017-06-26T07:38:24Z</time>
      </trkpt>
      <trkpt lat="45.92675" lon="4.73703">
        <ele>174</ele>
        <time>2017-06-26T07:38:25Z</time>
      </trkpt>
      <trkpt lat="45.9268" lon="4.73706">
        <ele>173</ele>
        <time>2017-06-26T07:38:26Z</time>
      </trkpt>
      <trkpt lat="45.92687" lon="4.73708">
        <ele>173</ele>
        <time>2017-06-26T07:38:27Z</time>
      </trkpt>
      <trkpt lat="45.92692" lon="4.73709">
        <ele>173</ele>
        <time>2017-06-26T07:38:28Z</time>
      </trkpt>
      <trkpt lat="45.92698" lon="4.7371">
        <ele>173</ele>
        <time>2017-06-26T07:38:29Z</time>
      </trkpt>
      <trkpt lat="45.92703" lon="4.73711">
        <ele>173</ele>
        <time>2017-06-26T07:38:30Z</time>
      </trkpt>
      <trkpt lat="45.92709" lon="4.73712">
        <ele>173</ele>
        <time>2017-06-26T07:38:31Z</time>
      </trkpt>
      <trkpt lat="45.92714" lon="4.73713">
        <ele>173</ele>
        <time>2017-06-26T07:38:32Z</time>
      </trkpt>
      <trkpt lat="45.92719" lon="4.73714">
        <ele>173</ele>
        <time>2017-06-26T07:38:33Z</time>
      </trkpt>
      <trkpt lat="45.92724" lon="4.73715">
        <ele>173</ele>
        <time>2017-06-26T07:38:34Z</time>
      </trkpt>
      <trkpt lat="45.92733" lon="4.73717">
        <ele>173</ele>
        <time>2017-06-26T07:38:36Z</time>
      </trkpt>
      <trkpt lat="45.92737" lon="4.73717">
        <ele>173</ele>
        <time>2017-06-26T07:38:37Z</time>
      </trkpt>
      <trkpt lat="45.92742" lon="4.73718">
        <ele>173</ele>
        <time>2017-06-26T07:38:38Z</time>
      </trkpt>
      <trkpt lat="45.92746" lon="4.73718">
        <ele>173</ele>
        <time>2017-06-26T07:38:39Z</time>
      </trkpt>
      <trkpt lat="45.92751" lon="4.73718">
        <ele>172</ele>
        <time>2017-06-26T07:38:40Z</time>
      </trkpt>
      <trkpt lat="45.92755" lon="4.73719">
        <ele>172</ele>
        <time>2017-06-26T07:38:41Z</time>
      </trkpt>
      <trkpt lat="45.92763" lon="4.73723">
        <ele>172</ele>
        <time>2017-06-26T07:38:43Z</time>
      </trkpt>
      <trkpt lat="45.92768" lon="4.73725">
        <ele>172</ele>
        <time>2017-06-26T07:38:44Z</time>
      </trkpt>
      <trkpt lat="45.92774" lon="4.73726">
        <ele>172</ele>
        <time>2017-06-26T07:38:46Z</time>
      </trkpt>
      <trkpt lat="45.92777" lon="4.73724">
        <ele>172</ele>
        <time>2017-06-26T07:38:47Z</time>
      </trkpt>
      <trkpt lat="45.92781" lon="4.73716">
        <ele>172</ele>
        <time>2017-06-26T07:38:49Z</time>
      </trkpt>
      <trkpt lat="45.92782" lon="4.7371">
        <ele>172</ele>
        <time>2017-06-26T07:38:50Z</time>
      </trkpt>
      <trkpt lat="45.92783" lon="4.73704">
        <ele>172</ele>
        <time>2017-06-26T07:38:51Z</time>
      </trkpt>
      <trkpt lat="45.92784" lon="4.73697">
        <ele>172</ele>
        <time>2017-06-26T07:38:52Z</time>
      </trkpt>
      <trkpt lat="45.92786" lon="4.7369">
        <ele>172</ele>
        <time>2017-06-26T07:38:53Z</time>
      </trkpt>
      <trkpt lat="45.92788" lon="4.73683">
        <ele>172</ele>
        <time>2017-06-26T07:38:54Z</time>
      </trkpt>
      <trkpt lat="45.92791" lon="4.73672">
        <ele>172</ele>
        <time>2017-06-26T07:38:56Z</time>
      </trkpt>
      <trkpt lat="45.92793" lon="4.73665">
        <ele>172</ele>
        <time>2017-06-26T07:38:57Z</time>
      </trkpt>
      <trkpt lat="45.92799" lon="4.73655">
        <ele>172</ele>
        <time>2017-06-26T07:38:59Z</time>
      </trkpt>
      <trkpt lat="45.92801" lon="4.73649">
        <ele>172</ele>
        <time>2017-06-26T07:39:00Z</time>
      </trkpt>
      <trkpt lat="45.92806" lon="4.73639">
        <ele>172</ele>
        <time>2017-06-26T07:39:02Z</time>
      </trkpt>
      <trkpt lat="45.92809" lon="4.73635">
        <ele>172</ele>
        <time>2017-06-26T07:39:03Z</time>
      </trkpt>
      <trkpt lat="45.92814" lon="4.73624">
        <ele>172</ele>
        <time>2017-06-26T07:39:05Z</time>
      </trkpt>
      <trkpt lat="45.92815" lon="4.73617">
        <ele>172</ele>
        <time>2017-06-26T07:39:06Z</time>
      </trkpt>
      <trkpt lat="45.92816" lon="4.73609">
        <ele>172</ele>
        <time>2017-06-26T07:39:07Z</time>
      </trkpt>
      <trkpt lat="45.92816" lon="4.73601">
        <ele>172</ele>
        <time>2017-06-26T07:39:08Z</time>
      </trkpt>
      <trkpt lat="45.92816" lon="4.73593">
        <ele>171</ele>
        <time>2017-06-26T07:39:09Z</time>
      </trkpt>
      <trkpt lat="45.92817" lon="4.73585">
        <ele>171</ele>
        <time>2017-06-26T07:39:10Z</time>
      </trkpt>
      <trkpt lat="45.92818" lon="4.73578">
        <ele>171</ele>
        <time>2017-06-26T07:39:11Z</time>
      </trkpt>
      <trkpt lat="45.92818" lon="4.7357">
        <ele>171</ele>
        <time>2017-06-26T07:39:12Z</time>
      </trkpt>
      <trkpt lat="45.92818" lon="4.73562">
        <ele>171</ele>
        <time>2017-06-26T07:39:13Z</time>
      </trkpt>
      <trkpt lat="45.92819" lon="4.73554">
        <ele>171</ele>
        <time>2017-06-26T07:39:14Z</time>
      </trkpt>
      <trkpt lat="45.9282" lon="4.73546">
        <ele>171</ele>
        <time>2017-06-26T07:39:15Z</time>
      </trkpt>
      <trkpt lat="45.9282" lon="4.73537">
        <ele>172</ele>
        <time>2017-06-26T07:39:16Z</time>
      </trkpt>
      <trkpt lat="45.92821" lon="4.73529">
        <ele>172</ele>
        <time>2017-06-26T07:39:17Z</time>
      </trkpt>
      <trkpt lat="45.92822" lon="4.73521">
        <ele>172</ele>
        <time>2017-06-26T07:39:18Z</time>
      </trkpt>
      <trkpt lat="45.92823" lon="4.73513">
        <ele>172</ele>
        <time>2017-06-26T07:39:19Z</time>
      </trkpt>
      <trkpt lat="45.92824" lon="4.73505">
        <ele>172</ele>
        <time>2017-06-26T07:39:20Z</time>
      </trkpt>
      <trkpt lat="45.92825" lon="4.73497">
        <ele>172</ele>
        <time>2017-06-26T07:39:21Z</time>
      </trkpt>
      <trkpt lat="45.92827" lon="4.73489">
        <ele>172</ele>
        <time>2017-06-26T07:39:22Z</time>
      </trkpt>
      <trkpt lat="45.92828" lon="4.73481">
        <ele>172</ele>
        <time>2017-06-26T07:39:23Z</time>
      </trkpt>
      <trkpt lat="45.92829" lon="4.73473">
        <ele>172</ele>
        <time>2017-06-26T07:39:24Z</time>
      </trkpt>
      <trkpt lat="45.9283" lon="4.73465">
        <ele>172</ele>
        <time>2017-06-26T07:39:25Z</time>
      </trkpt>
      <trkpt lat="45.92831" lon="4.73457">
        <ele>172</ele>
        <time>2017-06-26T07:39:26Z</time>
      </trkpt>
      <trkpt lat="45.92832" lon="4.73449">
        <ele>172</ele>
        <time>2017-06-26T07:39:27Z</time>
      </trkpt>
      <trkpt lat="45.92833" lon="4.7344">
        <ele>172</ele>
        <time>2017-06-26T07:39:28Z</time>
      </trkpt>
      <trkpt lat="45.92833" lon="4.7343">
        <ele>172</ele>
        <time>2017-06-26T07:39:29Z</time>
      </trkpt>
      <trkpt lat="45.92834" lon="4.73422">
        <ele>172</ele>
        <time>2017-06-26T07:39:30Z</time>
      </trkpt>
      <trkpt lat="45.92836" lon="4.73413">
        <ele>172</ele>
        <time>2017-06-26T07:39:31Z</time>
      </trkpt>
      <trkpt lat="45.92837" lon="4.73404">
        <ele>172</ele>
        <time>2017-06-26T07:39:32Z</time>
      </trkpt>
      <trkpt lat="45.92838" lon="4.73396">
        <ele>172</ele>
        <time>2017-06-26T07:39:33Z</time>
      </trkpt>
      <trkpt lat="45.92839" lon="4.73388">
        <ele>172</ele>
        <time>2017-06-26T07:39:34Z</time>
      </trkpt>
      <trkpt lat="45.9284" lon="4.7338">
        <ele>172</ele>
        <time>2017-06-26T07:39:35Z</time>
      </trkpt>
      <trkpt lat="45.92841" lon="4.73372">
        <ele>171</ele>
        <time>2017-06-26T07:39:36Z</time>
      </trkpt>
      <trkpt lat="45.92841" lon="4.73365">
        <ele>171</ele>
        <time>2017-06-26T07:39:37Z</time>
      </trkpt>
      <trkpt lat="45.92842" lon="4.73358">
        <ele>171</ele>
        <time>2017-06-26T07:39:38Z</time>
      </trkpt>
      <trkpt lat="45.92843" lon="4.7335">
        <ele>171</ele>
        <time>2017-06-26T07:39:39Z</time>
      </trkpt>
      <trkpt lat="45.92845" lon="4.73343">
        <ele>171</ele>
        <time>2017-06-26T07:39:40Z</time>
      </trkpt>
      <trkpt lat="45.92845" lon="4.73336">
        <ele>171</ele>
        <time>2017-06-26T07:39:41Z</time>
      </trkpt>
      <trkpt lat="45.92846" lon="4.73328">
        <ele>171</ele>
        <time>2017-06-26T07:39:42Z</time>
      </trkpt>
      <trkpt lat="45.92847" lon="4.7332">
        <ele>171</ele>
        <time>2017-06-26T07:39:43Z</time>
      </trkpt>
      <trkpt lat="45.92848" lon="4.73313">
        <ele>171</ele>
        <time>2017-06-26T07:39:44Z</time>
      </trkpt>
      <trkpt lat="45.92849" lon="4.73304">
        <ele>171</ele>
        <time>2017-06-26T07:39:45Z</time>
      </trkpt>
      <trkpt lat="45.9285" lon="4.73296">
        <ele>171</ele>
        <time>2017-06-26T07:39:46Z</time>
      </trkpt>
      <trkpt lat="45.92851" lon="4.73287">
        <ele>171</ele>
        <time>2017-06-26T07:39:47Z</time>
      </trkpt>
      <trkpt lat="45.92853" lon="4.73279">
        <ele>171</ele>
        <time>2017-06-26T07:39:48Z</time>
      </trkpt>
      <trkpt lat="45.92853" lon="4.73271">
        <ele>171</ele>
        <time>2017-06-26T07:39:49Z</time>
      </trkpt>
      <trkpt lat="45.92854" lon="4.73263">
        <ele>171</ele>
        <time>2017-06-26T07:39:50Z</time>
      </trkpt>
      <trkpt lat="45.92855" lon="4.73255">
        <ele>171</ele>
        <time>2017-06-26T07:39:51Z</time>
      </trkpt>
      <trkpt lat="45.92856" lon="4.73248">
        <ele>171</ele>
        <time>2017-06-26T07:39:52Z</time>
      </trkpt>
      <trkpt lat="45.92858" lon="4.73241">
        <ele>171</ele>
        <time>2017-06-26T07:39:53Z</time>
      </trkpt>
      <trkpt lat="45.92859" lon="4.73234">
        <ele>171</ele>
        <time>2017-06-26T07:39:54Z</time>
      </trkpt>
      <trkpt lat="45.92859" lon="4.73227">
        <ele>171</ele>
        <time>2017-06-26T07:39:55Z</time>
      </trkpt>
      <trkpt lat="45.92861" lon="4.7322">
        <ele>171</ele>
        <time>2017-06-26T07:39:56Z</time>
      </trkpt>
      <trkpt lat="45.92862" lon="4.73213">
        <ele>171</ele>
        <time>2017-06-26T07:39:57Z</time>
      </trkpt>
      <trkpt lat="45.92862" lon="4.73205">
        <ele>171</ele>
        <time>2017-06-26T07:39:58Z</time>
      </trkpt>
      <trkpt lat="45.92863" lon="4.73197">
        <ele>171</ele>
        <time>2017-06-26T07:39:59Z</time>
      </trkpt>
      <trkpt lat="45.92863" lon="4.73189">
        <ele>171</ele>
        <time>2017-06-26T07:40:00Z</time>
      </trkpt>
      <trkpt lat="45.92864" lon="4.73182">
        <ele>171</ele>
        <time>2017-06-26T07:40:01Z</time>
      </trkpt>
      <trkpt lat="45.92865" lon="4.73174">
        <ele>171</ele>
        <time>2017-06-26T07:40:02Z</time>
      </trkpt>
      <trkpt lat="45.92866" lon="4.73166">
        <ele>171</ele>
        <time>2017-06-26T07:40:03Z</time>
      </trkpt>
      <trkpt lat="45.92867" lon="4.73158">
        <ele>171</ele>
        <time>2017-06-26T07:40:04Z</time>
      </trkpt>
      <trkpt lat="45.92868" lon="4.73151">
        <ele>171</ele>
        <time>2017-06-26T07:40:05Z</time>
      </trkpt>
      <trkpt lat="45.92869" lon="4.73143">
        <ele>171</ele>
        <time>2017-06-26T07:40:06Z</time>
      </trkpt>
      <trkpt lat="45.9287" lon="4.73136">
        <ele>171</ele>
        <time>2017-06-26T07:40:07Z</time>
      </trkpt>
      <trkpt lat="45.92871" lon="4.73129">
        <ele>171</ele>
        <time>2017-06-26T07:40:08Z</time>
      </trkpt>
      <trkpt lat="45.92872" lon="4.73122">
        <ele>171</ele>
        <time>2017-06-26T07:40:09Z</time>
      </trkpt>
      <trkpt lat="45.92874" lon="4.73116">
        <ele>172</ele>
        <time>2017-06-26T07:40:10Z</time>
      </trkpt>
      <trkpt lat="45.92876" lon="4.73109">
        <ele>172</ele>
        <time>2017-06-26T07:40:11Z</time>
      </trkpt>
      <trkpt lat="45.92878" lon="4.73103">
        <ele>172</ele>
        <time>2017-06-26T07:40:12Z</time>
      </trkpt>
      <trkpt lat="45.9288" lon="4.73096">
        <ele>172</ele>
        <time>2017-06-26T07:40:13Z</time>
      </trkpt>
      <trkpt lat="45.92882" lon="4.7309">
        <ele>172</ele>
        <time>2017-06-26T07:40:14Z</time>
      </trkpt>
      <trkpt lat="45.92885" lon="4.73083">
        <ele>172</ele>
        <time>2017-06-26T07:40:15Z</time>
      </trkpt>
      <trkpt lat="45.92888" lon="4.73077">
        <ele>172</ele>
        <time>2017-06-26T07:40:16Z</time>
      </trkpt>
      <trkpt lat="45.92891" lon="4.73071">
        <ele>172</ele>
        <time>2017-06-26T07:40:17Z</time>
      </trkpt>
      <trkpt lat="45.92894" lon="4.73065">
        <ele>172</ele>
        <time>2017-06-26T07:40:18Z</time>
      </trkpt>
      <trkpt lat="45.92897" lon="4.73059">
        <ele>172</ele>
        <time>2017-06-26T07:40:19Z</time>
      </trkpt>
      <trkpt lat="45.92901" lon="4.73053">
        <ele>172</ele>
        <time>2017-06-26T07:40:20Z</time>
      </trkpt>
      <trkpt lat="45.92905" lon="4.73047">
        <ele>172</ele>
        <time>2017-06-26T07:40:21Z</time>
      </trkpt>
      <trkpt lat="45.92908" lon="4.73042">
        <ele>172</ele>
        <time>2017-06-26T07:40:22Z</time>
      </trkpt>
      <trkpt lat="45.92912" lon="4.73037">
        <ele>172</ele>
        <time>2017-06-26T07:40:23Z</time>
      </trkpt>
      <trkpt lat="45.92916" lon="4.73032">
        <ele>172</ele>
        <time>2017-06-26T07:40:24Z</time>
      </trkpt>
      <trkpt lat="45.9292" lon="4.73027">
        <ele>172</ele>
        <time>2017-06-26T07:40:25Z</time>
      </trkpt>
      <trkpt lat="45.92923" lon="4.73022">
        <ele>171</ele>
        <time>2017-06-26T07:40:26Z</time>
      </trkpt>
      <trkpt lat="45.92927" lon="4.73018">
        <ele>171</ele>
        <time>2017-06-26T07:40:27Z</time>
      </trkpt>
      <trkpt lat="45.9293" lon="4.73014">
        <ele>171</ele>
        <time>2017-06-26T07:40:28Z</time>
      </trkpt>
      <trkpt lat="45.92934" lon="4.73009">
        <ele>171</ele>
        <time>2017-06-26T07:40:29Z</time>
      </trkpt>
      <trkpt lat="45.92938" lon="4.73005">
        <ele>171</ele>
        <time>2017-06-26T07:40:30Z</time>
      </trkpt>
      <trkpt lat="45.92943" lon="4.72999">
        <ele>171</ele>
        <time>2017-06-26T07:40:31Z</time>
      </trkpt>
      <trkpt lat="45.92947" lon="4.72993">
        <ele>171</ele>
        <time>2017-06-26T07:40:32Z</time>
      </trkpt>
      <trkpt lat="45.92952" lon="4.72988">
        <ele>171</ele>
        <time>2017-06-26T07:40:33Z</time>
      </trkpt>
      <trkpt lat="45.92956" lon="4.72982">
        <ele>171</ele>
        <time>2017-06-26T07:40:34Z</time>
      </trkpt>
      <trkpt lat="45.92961" lon="4.72977">
        <ele>171</ele>
        <time>2017-06-26T07:40:35Z</time>
      </trkpt>
      <trkpt lat="45.92966" lon="4.72971">
        <ele>171</ele>
        <time>2017-06-26T07:40:36Z</time>
      </trkpt>
      <trkpt lat="45.92971" lon="4.72966">
        <ele>171</ele>
        <time>2017-06-26T07:40:37Z</time>
      </trkpt>
      <trkpt lat="45.92976" lon="4.7296">
        <ele>171</ele>
        <time>2017-06-26T07:40:38Z</time>
      </trkpt>
      <trkpt lat="45.9298" lon="4.72955">
        <ele>171</ele>
        <time>2017-06-26T07:40:39Z</time>
      </trkpt>
      <trkpt lat="45.92984" lon="4.72949">
        <ele>171</ele>
        <time>2017-06-26T07:40:40Z</time>
      </trkpt>
      <trkpt lat="45.92989" lon="4.72944">
        <ele>171</ele>
        <time>2017-06-26T07:40:41Z</time>
      </trkpt>
      <trkpt lat="45.92993" lon="4.7294">
        <ele>171</ele>
        <time>2017-06-26T07:40:42Z</time>
      </trkpt>
      <trkpt lat="45.92997" lon="4.72935">
        <ele>171</ele>
        <time>2017-06-26T07:40:43Z</time>
      </trkpt>
      <trkpt lat="45.93001" lon="4.7293">
        <ele>170</ele>
        <time>2017-06-26T07:40:44Z</time>
      </trkpt>
      <trkpt lat="45.93006" lon="4.72924">
        <ele>170</ele>
        <time>2017-06-26T07:40:45Z</time>
      </trkpt>
      <trkpt lat="45.9301" lon="4.72919">
        <ele>170</ele>
        <time>2017-06-26T07:40:46Z</time>
      </trkpt>
      <trkpt lat="45.93015" lon="4.72913">
        <ele>171</ele>
        <time>2017-06-26T07:40:47Z</time>
      </trkpt>
      <trkpt lat="45.93019" lon="4.72908">
        <ele>172</ele>
        <time>2017-06-26T07:40:48Z</time>
      </trkpt>
      <trkpt lat="45.93024" lon="4.72903">
        <ele>172</ele>
        <time>2017-06-26T07:40:49Z</time>
      </trkpt>
      <trkpt lat="45.93028" lon="4.72897">
        <ele>172</ele>
        <time>2017-06-26T07:40:50Z</time>
      </trkpt>
      <trkpt lat="45.93033" lon="4.72892">
        <ele>172</ele>
        <time>2017-06-26T07:40:51Z</time>
      </trkpt>
      <trkpt lat="45.93037" lon="4.72886">
        <ele>172</ele>
        <time>2017-06-26T07:40:52Z</time>
      </trkpt>
      <trkpt lat="45.93042" lon="4.7288">
        <ele>172</ele>
        <time>2017-06-26T07:40:53Z</time>
      </trkpt>
      <trkpt lat="45.93046" lon="4.72875">
        <ele>172</ele>
        <time>2017-06-26T07:40:54Z</time>
      </trkpt>
      <trkpt lat="45.93051" lon="4.72869">
        <ele>172</ele>
        <time>2017-06-26T07:40:55Z</time>
      </trkpt>
      <trkpt lat="45.93056" lon="4.72864">
        <ele>172</ele>
        <time>2017-06-26T07:40:56Z</time>
      </trkpt>
      <trkpt lat="45.9306" lon="4.72859">
        <ele>172</ele>
        <time>2017-06-26T07:40:57Z</time>
      </trkpt>
      <trkpt lat="45.93064" lon="4.72854">
        <ele>172</ele>
        <time>2017-06-26T07:40:58Z</time>
      </trkpt>
      <trkpt lat="45.93069" lon="4.72849">
        <ele>172</ele>
        <time>2017-06-26T07:40:59Z</time>
      </trkpt>
      <trkpt lat="45.93073" lon="4.72844">
        <ele>173</ele>
        <time>2017-06-26T07:41:00Z</time>
      </trkpt>
      <trkpt lat="45.93078" lon="4.7284">
        <ele>173</ele>
        <time>2017-06-26T07:41:01Z</time>
      </trkpt>
      <trkpt lat="45.93083" lon="4.72835">
        <ele>173</ele>
        <time>2017-06-26T07:41:02Z</time>
      </trkpt>
      <trkpt lat="45.93089" lon="4.72823">
        <ele>172</ele>
        <time>2017-06-26T07:41:03Z</time>
      </trkpt>
      <trkpt lat="45.93094" lon="4.72815">
        <ele>172</ele>
        <time>2017-06-26T07:41:04Z</time>
      </trkpt>
      <trkpt lat="45.931" lon="4.72809">
        <ele>172</ele>
        <time>2017-06-26T07:41:05Z</time>
      </trkpt>
      <trkpt lat="45.93108" lon="4.72809">
        <ele>171</ele>
        <time>2017-06-26T07:41:06Z</time>
      </trkpt>
      <trkpt lat="45.93113" lon="4.72804">
        <ele>171</ele>
        <time>2017-06-26T07:41:07Z</time>
      </trkpt>
      <trkpt lat="45.93118" lon="4.72798">
        <ele>171</ele>
        <time>2017-06-26T07:41:08Z</time>
      </trkpt>
      <trkpt lat="45.93122" lon="4.72793">
        <ele>171</ele>
        <time>2017-06-26T07:41:09Z</time>
      </trkpt>
      <trkpt lat="45.93127" lon="4.72786">
        <ele>171</ele>
        <time>2017-06-26T07:41:10Z</time>
      </trkpt>
      <trkpt lat="45.93131" lon="4.7278">
        <ele>171</ele>
        <time>2017-06-26T07:41:11Z</time>
      </trkpt>
      <trkpt lat="45.93137" lon="4.72772">
        <ele>171</ele>
        <time>2017-06-26T07:41:12Z</time>
      </trkpt>
      <trkpt lat="45.93142" lon="4.72766">
        <ele>171</ele>
        <time>2017-06-26T07:41:13Z</time>
      </trkpt>
      <trkpt lat="45.93147" lon="4.7276">
        <ele>171</ele>
        <time>2017-06-26T07:41:14Z</time>
      </trkpt>
      <trkpt lat="45.93151" lon="4.72755">
        <ele>170</ele>
        <time>2017-06-26T07:41:15Z</time>
      </trkpt>
      <trkpt lat="45.93155" lon="4.72749">
        <ele>170</ele>
        <time>2017-06-26T07:41:16Z</time>
      </trkpt>
      <trkpt lat="45.9316" lon="4.72744">
        <ele>170</ele>
        <time>2017-06-26T07:41:17Z</time>
      </trkpt>
      <trkpt lat="45.93165" lon="4.72738">
        <ele>170</ele>
        <time>2017-06-26T07:41:18Z</time>
      </trkpt>
      <trkpt lat="45.93169" lon="4.72732">
        <ele>170</ele>
        <time>2017-06-26T07:41:19Z</time>
      </trkpt>
      <trkpt lat="45.93173" lon="4.72727">
        <ele>170</ele>
        <time>2017-06-26T07:41:20Z</time>
      </trkpt>
      <trkpt lat="45.93177" lon="4.72722">
        <ele>170</ele>
        <time>2017-06-26T07:41:21Z</time>
      </trkpt>
      <trkpt lat="45.93182" lon="4.72716">
        <ele>169</ele>
        <time>2017-06-26T07:41:22Z</time>
      </trkpt>
      <trkpt lat="45.93186" lon="4.72711">
        <ele>169</ele>
        <time>2017-06-26T07:41:23Z</time>
      </trkpt>
      <trkpt lat="45.9319" lon="4.72706">
        <ele>169</ele>
        <time>2017-06-26T07:41:24Z</time>
      </trkpt>
      <trkpt lat="45.93195" lon="4.72701">
        <ele>169</ele>
        <time>2017-06-26T07:41:25Z</time>
      </trkpt>
      <trkpt lat="45.93199" lon="4.72696">
        <ele>169</ele>
        <time>2017-06-26T07:41:26Z</time>
      </trkpt>
      <trkpt lat="45.93203" lon="4.7269">
        <ele>169</ele>
        <time>2017-06-26T07:41:27Z</time>
      </trkpt>
      <trkpt lat="45.93208" lon="4.72685">
        <ele>169</ele>
        <time>2017-06-26T07:41:28Z</time>
      </trkpt>
      <trkpt lat="45.93212" lon="4.72679">
        <ele>169</ele>
        <time>2017-06-26T07:41:29Z</time>
      </trkpt>
      <trkpt lat="45.93217" lon="4.72673">
        <ele>169</ele>
        <time>2017-06-26T07:41:30Z</time>
      </trkpt>
      <trkpt lat="45.93222" lon="4.72667">
        <ele>169</ele>
        <time>2017-06-26T07:41:31Z</time>
      </trkpt>
      <trkpt lat="45.93227" lon="4.72662">
        <ele>170</ele>
        <time>2017-06-26T07:41:32Z</time>
      </trkpt>
      <trkpt lat="45.93231" lon="4.72656">
        <ele>170</ele>
        <time>2017-06-26T07:41:33Z</time>
      </trkpt>
      <trkpt lat="45.93236" lon="4.72651">
        <ele>170</ele>
        <time>2017-06-26T07:41:34Z</time>
      </trkpt>
      <trkpt lat="45.93241" lon="4.72646">
        <ele>170</ele>
        <time>2017-06-26T07:41:35Z</time>
      </trkpt>
      <trkpt lat="45.93245" lon="4.7264">
        <ele>170</ele>
        <time>2017-06-26T07:41:36Z</time>
      </trkpt>
      <trkpt lat="45.9325" lon="4.72635">
        <ele>170</ele>
        <time>2017-06-26T07:41:37Z</time>
      </trkpt>
      <trkpt lat="45.93255" lon="4.72629">
        <ele>170</ele>
        <time>2017-06-26T07:41:38Z</time>
      </trkpt>
      <trkpt lat="45.9326" lon="4.72624">
        <ele>170</ele>
        <time>2017-06-26T07:41:39Z</time>
      </trkpt>
      <trkpt lat="45.93264" lon="4.72618">
        <ele>170</ele>
        <time>2017-06-26T07:41:40Z</time>
      </trkpt>
      <trkpt lat="45.93269" lon="4.72613">
        <ele>170</ele>
        <time>2017-06-26T07:41:41Z</time>
      </trkpt>
      <trkpt lat="45.93273" lon="4.72607">
        <ele>170</ele>
        <time>2017-06-26T07:41:42Z</time>
      </trkpt>
      <trkpt lat="45.93277" lon="4.72602">
        <ele>170</ele>
        <time>2017-06-26T07:41:43Z</time>
      </trkpt>
      <trkpt lat="45.93282" lon="4.72596">
        <ele>170</ele>
        <time>2017-06-26T07:41:44Z</time>
      </trkpt>
      <trkpt lat="45.93287" lon="4.7259">
        <ele>170</ele>
        <time>2017-06-26T07:41:45Z</time>
      </trkpt>
      <trkpt lat="45.93292" lon="4.72584">
        <ele>170</ele>
        <time>2017-06-26T07:41:46Z</time>
      </trkpt>
      <trkpt lat="45.93297" lon="4.72578">
        <ele>171</ele>
        <time>2017-06-26T07:41:47Z</time>
      </trkpt>
      <trkpt lat="45.93302" lon="4.72573">
        <ele>171</ele>
        <time>2017-06-26T07:41:48Z</time>
      </trkpt>
      <trkpt lat="45.93307" lon="4.72567">
        <ele>171</ele>
        <time>2017-06-26T07:41:49Z</time>
      </trkpt>
      <trkpt lat="45.93312" lon="4.72561">
        <ele>171</ele>
        <time>2017-06-26T07:41:50Z</time>
      </trkpt>
      <trkpt lat="45.93317" lon="4.72555">
        <ele>172</ele>
        <time>2017-06-26T07:41:51Z</time>
      </trkpt>
      <trkpt lat="45.93321" lon="4.7255">
        <ele>172</ele>
        <time>2017-06-26T07:41:52Z</time>
      </trkpt>
      <trkpt lat="45.93326" lon="4.72545">
        <ele>172</ele>
        <time>2017-06-26T07:41:53Z</time>
      </trkpt>
      <trkpt lat="45.9333" lon="4.7254">
        <ele>172</ele>
        <time>2017-06-26T07:41:54Z</time>
      </trkpt>
      <trkpt lat="45.93335" lon="4.72534">
        <ele>172</ele>
        <time>2017-06-26T07:41:55Z</time>
      </trkpt>
      <trkpt lat="45.9334" lon="4.72529">
        <ele>172</ele>
        <time>2017-06-26T07:41:56Z</time>
      </trkpt>
      <trkpt lat="45.93344" lon="4.72524">
        <ele>172</ele>
        <time>2017-06-26T07:41:57Z</time>
      </trkpt>
      <trkpt lat="45.93349" lon="4.72519">
        <ele>172</ele>
        <time>2017-06-26T07:41:58Z</time>
      </trkpt>
      <trkpt lat="45.93354" lon="4.72514">
        <ele>172</ele>
        <time>2017-06-26T07:41:59Z</time>
      </trkpt>
      <trkpt lat="45.93358" lon="4.72509">
        <ele>172</ele>
        <time>2017-06-26T07:42:00Z</time>
      </trkpt>
      <trkpt lat="45.93362" lon="4.72504">
        <ele>172</ele>
        <time>2017-06-26T07:42:01Z</time>
      </trkpt>
      <trkpt lat="45.93366" lon="4.725">
        <ele>173</ele>
        <time>2017-06-26T07:42:02Z</time>
      </trkpt>
      <trkpt lat="45.9337" lon="4.72495">
        <ele>173</ele>
        <time>2017-06-26T07:42:03Z</time>
      </trkpt>
      <trkpt lat="45.93374" lon="4.72492">
        <ele>173</ele>
        <time>2017-06-26T07:42:04Z</time>
      </trkpt>
      <trkpt lat="45.93378" lon="4.72487">
        <ele>173</ele>
        <time>2017-06-26T07:42:05Z</time>
      </trkpt>
      <trkpt lat="45.93382" lon="4.72483">
        <ele>173</ele>
        <time>2017-06-26T07:42:06Z</time>
      </trkpt>
      <trkpt lat="45.93387" lon="4.72478">
        <ele>173</ele>
        <time>2017-06-26T07:42:07Z</time>
      </trkpt>
      <trkpt lat="45.93391" lon="4.72472">
        <ele>173</ele>
        <time>2017-06-26T07:42:08Z</time>
      </trkpt>
      <trkpt lat="45.93394" lon="4.72466">
        <ele>173</ele>
        <time>2017-06-26T07:42:09Z</time>
      </trkpt>
      <trkpt lat="45.93397" lon="4.72456">
        <ele>173</ele>
        <time>2017-06-26T07:42:11Z</time>
      </trkpt>
      <trkpt lat="45.93398" lon="4.7245">
        <ele>173</ele>
        <time>2017-06-26T07:42:12Z</time>
      </trkpt>
      <trkpt lat="45.934" lon="4.72444">
        <ele>173</ele>
        <time>2017-06-26T07:42:13Z</time>
      </trkpt>
      <trkpt lat="45.93402" lon="4.72438">
        <ele>173</ele>
        <time>2017-06-26T07:42:14Z</time>
      </trkpt>
      <trkpt lat="45.93406" lon="4.72433">
        <ele>173</ele>
        <time>2017-06-26T07:42:15Z</time>
      </trkpt>
      <trkpt lat="45.9341" lon="4.72427">
        <ele>174</ele>
        <time>2017-06-26T07:42:16Z</time>
      </trkpt>
      <trkpt lat="45.93415" lon="4.72423">
        <ele>174</ele>
        <time>2017-06-26T07:42:17Z</time>
      </trkpt>
      <trkpt lat="45.9342" lon="4.7242">
        <ele>174</ele>
        <time>2017-06-26T07:42:18Z</time>
      </trkpt>
      <trkpt lat="45.93426" lon="4.72416">
        <ele>174</ele>
        <time>2017-06-26T07:42:19Z</time>
      </trkpt>
      <trkpt lat="45.93432" lon="4.72413">
        <ele>174</ele>
        <time>2017-06-26T07:42:20Z</time>
      </trkpt>
      <trkpt lat="45.93438" lon="4.72409">
        <ele>174</ele>
        <time>2017-06-26T07:42:21Z</time>
      </trkpt>
      <trkpt lat="45.93444" lon="4.72404">
        <ele>173</ele>
        <time>2017-06-26T07:42:22Z</time>
      </trkpt>
      <trkpt lat="45.93449" lon="4.72399">
        <ele>173</ele>
        <time>2017-06-26T07:42:23Z</time>
      </trkpt>
      <trkpt lat="45.93455" lon="4.72395">
        <ele>173</ele>
        <time>2017-06-26T07:42:24Z</time>
      </trkpt>
      <trkpt lat="45.9346" lon="4.7239">
        <ele>173</ele>
        <time>2017-06-26T07:42:25Z</time>
      </trkpt>
      <trkpt lat="45.93464" lon="4.72384">
        <ele>173</ele>
        <time>2017-06-26T07:42:26Z</time>
      </trkpt>
      <trkpt lat="45.93468" lon="4.72379">
        <ele>173</ele>
        <time>2017-06-26T07:42:27Z</time>
      </trkpt>
      <trkpt lat="45.93472" lon="4.72373">
        <ele>173</ele>
        <time>2017-06-26T07:42:28Z</time>
      </trkpt>
      <trkpt lat="45.93477" lon="4.72368">
        <ele>173</ele>
        <time>2017-06-26T07:42:29Z</time>
      </trkpt>
      <trkpt lat="45.9348" lon="4.72362">
        <ele>173</ele>
        <time>2017-06-26T07:42:30Z</time>
      </trkpt>
      <trkpt lat="45.93484" lon="4.72356">
        <ele>173</ele>
        <time>2017-06-26T07:42:31Z</time>
      </trkpt>
      <trkpt lat="45.93487" lon="4.7235">
        <ele>173</ele>
        <time>2017-06-26T07:42:32Z</time>
      </trkpt>
      <trkpt lat="45.93491" lon="4.72344">
        <ele>173</ele>
        <time>2017-06-26T07:42:33Z</time>
      </trkpt>
      <trkpt lat="45.93496" lon="4.72337">
        <ele>173</ele>
        <time>2017-06-26T07:42:34Z</time>
      </trkpt>
      <trkpt lat="45.93501" lon="4.72331">
        <ele>173</ele>
        <time>2017-06-26T07:42:35Z</time>
      </trkpt>
      <trkpt lat="45.93505" lon="4.72326">
        <ele>173</ele>
        <time>2017-06-26T07:42:36Z</time>
      </trkpt>
      <trkpt lat="45.93509" lon="4.7232">
        <ele>173</ele>
        <time>2017-06-26T07:42:37Z</time>
      </trkpt>
      <trkpt lat="45.93513" lon="4.72314">
        <ele>173</ele>
        <time>2017-06-26T07:42:38Z</time>
      </trkpt>
      <trkpt lat="45.93516" lon="4.72308">
        <ele>173</ele>
        <time>2017-06-26T07:42:39Z</time>
      </trkpt>
      <trkpt lat="45.93519" lon="4.72302">
        <ele>172</ele>
        <time>2017-06-26T07:42:40Z</time>
      </trkpt>
      <trkpt lat="45.93522" lon="4.72295">
        <ele>172</ele>
        <time>2017-06-26T07:42:41Z</time>
      </trkpt>
      <trkpt lat="45.93525" lon="4.72288">
        <ele>172</ele>
        <time>2017-06-26T07:42:42Z</time>
      </trkpt>
      <trkpt lat="45.93528" lon="4.72282">
        <ele>172</ele>
        <time>2017-06-26T07:42:43Z</time>
      </trkpt>
      <trkpt lat="45.93531" lon="4.72275">
        <ele>172</ele>
        <time>2017-06-26T07:42:44Z</time>
      </trkpt>
      <trkpt lat="45.93533" lon="4.72268">
        <ele>172</ele>
        <time>2017-06-26T07:42:45Z</time>
      </trkpt>
      <trkpt lat="45.93536" lon="4.72261">
        <ele>172</ele>
        <time>2017-06-26T07:42:46Z</time>
      </trkpt>
      <trkpt lat="45.93539" lon="4.72254">
        <ele>172</ele>
        <time>2017-06-26T07:42:47Z</time>
      </trkpt>
      <trkpt lat="45.93542" lon="4.72247">
        <ele>172</ele>
        <time>2017-06-26T07:42:48Z</time>
      </trkpt>
      <trkpt lat="45.93545" lon="4.7224">
        <ele>172</ele>
        <time>2017-06-26T07:42:49Z</time>
      </trkpt>
      <trkpt lat="45.93548" lon="4.72234">
        <ele>172</ele>
        <time>2017-06-26T07:42:50Z</time>
      </trkpt>
      <trkpt lat="45.93551" lon="4.72229">
        <ele>172</ele>
        <time>2017-06-26T07:42:51Z</time>
      </trkpt>
      <trkpt lat="45.93556" lon="4.72224">
        <ele>173</ele>
        <time>2017-06-26T07:42:52Z</time>
      </trkpt>
      <trkpt lat="45.93561" lon="4.72222">
        <ele>173</ele>
        <time>2017-06-26T07:42:53Z</time>
      </trkpt>
      <trkpt lat="45.93566" lon="4.72223">
        <ele>173</ele>
        <time>2017-06-26T07:42:54Z</time>
      </trkpt>
      <trkpt lat="45.93571" lon="4.72227">
        <ele>173</ele>
        <time>2017-06-26T07:42:55Z</time>
      </trkpt>
      <trkpt lat="45.93576" lon="4.72232">
        <ele>173</ele>
        <time>2017-06-26T07:42:56Z</time>
      </trkpt>
      <trkpt lat="45.9358" lon="4.72237">
        <ele>173</ele>
        <time>2017-06-26T07:42:57Z</time>
      </trkpt>
      <trkpt lat="45.93584" lon="4.72241">
        <ele>173</ele>
        <time>2017-06-26T07:42:58Z</time>
      </trkpt>
      <trkpt lat="45.93588" lon="4.72246">
        <ele>173</ele>
        <time>2017-06-26T07:42:59Z</time>
      </trkpt>
      <trkpt lat="45.93592" lon="4.72249">
        <ele>173</ele>
        <time>2017-06-26T07:43:00Z</time>
      </trkpt>
      <trkpt lat="45.93596" lon="4.72253">
        <ele>173</ele>
        <time>2017-06-26T07:43:01Z</time>
      </trkpt>
      <trkpt lat="45.936" lon="4.72257">
        <ele>173</ele>
        <time>2017-06-26T07:43:02Z</time>
      </trkpt>
      <trkpt lat="45.93607" lon="4.72264">
        <ele>173</ele>
        <time>2017-06-26T07:43:04Z</time>
      </trkpt>
      <trkpt lat="45.93611" lon="4.72267">
        <ele>172</ele>
        <time>2017-06-26T07:43:05Z</time>
      </trkpt>
      <trkpt lat="45.93618" lon="4.72275">
        <ele>172</ele>
        <time>2017-06-26T07:43:07Z</time>
      </trkpt>
      <trkpt lat="45.93623" lon="4.7228">
        <ele>172</ele>
        <time>2017-06-26T07:43:08Z</time>
      </trkpt>
      <trkpt lat="45.93627" lon="4.72283">
        <ele>172</ele>
        <time>2017-06-26T07:43:09Z</time>
      </trkpt>
      <trkpt lat="45.93631" lon="4.72287">
        <ele>172</ele>
        <time>2017-06-26T07:43:10Z</time>
      </trkpt>
      <trkpt lat="45.93636" lon="4.7229">
        <ele>172</ele>
        <time>2017-06-26T07:43:11Z</time>
      </trkpt>
      <trkpt lat="45.93641" lon="4.72295">
        <ele>172</ele>
        <time>2017-06-26T07:43:12Z</time>
      </trkpt>
      <trkpt lat="45.93645" lon="4.72302">
        <ele>172</ele>
        <time>2017-06-26T07:43:13Z</time>
      </trkpt>
      <trkpt lat="45.9365" lon="4.72308">
        <ele>172</ele>
        <time>2017-06-26T07:43:14Z</time>
      </trkpt>
      <trkpt lat="45.93654" lon="4.72313">
        <ele>172</ele>
        <time>2017-06-26T07:43:15Z</time>
      </trkpt>
      <trkpt lat="45.93658" lon="4.72317">
        <ele>172</ele>
        <time>2017-06-26T07:43:16Z</time>
      </trkpt>
      <trkpt lat="45.93663" lon="4.72321">
        <ele>172</ele>
        <time>2017-06-26T07:43:17Z</time>
      </trkpt>
      <trkpt lat="45.93668" lon="4.72326">
        <ele>171</ele>
        <time>2017-06-26T07:43:18Z</time>
      </trkpt>
      <trkpt lat="45.93673" lon="4.72332">
        <ele>171</ele>
        <time>2017-06-26T07:43:19Z</time>
      </trkpt>
      <trkpt lat="45.93677" lon="4.72336">
        <ele>171</ele>
        <time>2017-06-26T07:43:20Z</time>
      </trkpt>
      <trkpt lat="45.93682" lon="4.72341">
        <ele>171</ele>
        <time>2017-06-26T07:43:21Z</time>
      </trkpt>
      <trkpt lat="45.93687" lon="4.72345">
        <ele>171</ele>
        <time>2017-06-26T07:43:22Z</time>
      </trkpt>
      <trkpt lat="45.93691" lon="4.72348">
        <ele>171</ele>
        <time>2017-06-26T07:43:23Z</time>
      </trkpt>
      <trkpt lat="45.93695" lon="4.72354">
        <ele>171</ele>
        <time>2017-06-26T07:43:24Z</time>
      </trkpt>
      <trkpt lat="45.937" lon="4.72358">
        <ele>171</ele>
        <time>2017-06-26T07:43:25Z</time>
      </trkpt>
      <trkpt lat="45.93704" lon="4.72362">
        <ele>171</ele>
        <time>2017-06-26T07:43:26Z</time>
      </trkpt>
      <trkpt lat="45.93709" lon="4.72369">
        <ele>172</ele>
        <time>2017-06-26T07:43:27Z</time>
      </trkpt>
      <trkpt lat="45.93713" lon="4.72377">
        <ele>171</ele>
        <time>2017-06-26T07:43:28Z</time>
      </trkpt>
      <trkpt lat="45.93718" lon="4.72381">
        <ele>171</ele>
        <time>2017-06-26T07:43:29Z</time>
      </trkpt>
      <trkpt lat="45.93723" lon="4.72385">
        <ele>171</ele>
        <time>2017-06-26T07:43:30Z</time>
      </trkpt>
      <trkpt lat="45.93727" lon="4.7239">
        <ele>171</ele>
        <time>2017-06-26T07:43:31Z</time>
      </trkpt>
      <trkpt lat="45.93732" lon="4.72395">
        <ele>171</ele>
        <time>2017-06-26T07:43:32Z</time>
      </trkpt>
      <trkpt lat="45.93736" lon="4.72401">
        <ele>171</ele>
        <time>2017-06-26T07:43:33Z</time>
      </trkpt>
      <trkpt lat="45.9374" lon="4.72405">
        <ele>171</ele>
        <time>2017-06-26T07:43:34Z</time>
      </trkpt>
      <trkpt lat="45.93745" lon="4.7241">
        <ele>171</ele>
        <time>2017-06-26T07:43:35Z</time>
      </trkpt>
      <trkpt lat="45.93749" lon="4.72415">
        <ele>171</ele>
        <time>2017-06-26T07:43:36Z</time>
      </trkpt>
      <trkpt lat="45.93754" lon="4.72421">
        <ele>171</ele>
        <time>2017-06-26T07:43:37Z</time>
      </trkpt>
      <trkpt lat="45.9376" lon="4.72426">
        <ele>171</ele>
        <time>2017-06-26T07:43:38Z</time>
      </trkpt>
      <trkpt lat="45.93764" lon="4.7243">
        <ele>171</ele>
        <time>2017-06-26T07:43:39Z</time>
      </trkpt>
      <trkpt lat="45.93769" lon="4.72435">
        <ele>171</ele>
        <time>2017-06-26T07:43:40Z</time>
      </trkpt>
      <trkpt lat="45.93773" lon="4.72439">
        <ele>171</ele>
        <time>2017-06-26T07:43:41Z</time>
      </trkpt>
      <trkpt lat="45.93778" lon="4.72443">
        <ele>172</ele>
        <time>2017-06-26T07:43:42Z</time>
      </trkpt>
      <trkpt lat="45.93782" lon="4.72447">
        <ele>172</ele>
        <time>2017-06-26T07:43:43Z</time>
      </trkpt>
      <trkpt lat="45.93787" lon="4.72451">
        <ele>172</ele>
        <time>2017-06-26T07:43:44Z</time>
      </trkpt>
      <trkpt lat="45.93792" lon="4.72455">
        <ele>172</ele>
        <time>2017-06-26T07:43:45Z</time>
      </trkpt>
      <trkpt lat="45.93796" lon="4.72459">
        <ele>172</ele>
        <time>2017-06-26T07:43:46Z</time>
      </trkpt>
      <trkpt lat="45.938" lon="4.72464">
        <ele>172</ele>
        <time>2017-06-26T07:43:47Z</time>
      </trkpt>
      <trkpt lat="45.93805" lon="4.72471">
        <ele>172</ele>
        <time>2017-06-26T07:43:48Z</time>
      </trkpt>
      <trkpt lat="45.9381" lon="4.72476">
        <ele>172</ele>
        <time>2017-06-26T07:43:49Z</time>
      </trkpt>
      <trkpt lat="45.93815" lon="4.72481">
        <ele>172</ele>
        <time>2017-06-26T07:43:50Z</time>
      </trkpt>
      <trkpt lat="45.9382" lon="4.72486">
        <ele>173</ele>
        <time>2017-06-26T07:43:51Z</time>
      </trkpt>
      <trkpt lat="45.93825" lon="4.7249">
        <ele>173</ele>
        <time>2017-06-26T07:43:52Z</time>
      </trkpt>
      <trkpt lat="45.9383" lon="4.72495">
        <ele>173</ele>
        <time>2017-06-26T07:43:53Z</time>
      </trkpt>
      <trkpt lat="45.93835" lon="4.72501">
        <ele>174</ele>
        <time>2017-06-26T07:43:54Z</time>
      </trkpt>
      <trkpt lat="45.9384" lon="4.72507">
        <ele>174</ele>
        <time>2017-06-26T07:43:55Z</time>
      </trkpt>
      <trkpt lat="45.93846" lon="4.72512">
        <ele>174</ele>
        <time>2017-06-26T07:43:56Z</time>
      </trkpt>
      <trkpt lat="45.93851" lon="4.7252">
        <ele>173</ele>
        <time>2017-06-26T07:43:57Z</time>
      </trkpt>
      <trkpt lat="45.93858" lon="4.72526">
        <ele>173</ele>
        <time>2017-06-26T07:43:58Z</time>
      </trkpt>
      <trkpt lat="45.93862" lon="4.72526">
        <ele>173</ele>
        <time>2017-06-26T07:43:59Z</time>
      </trkpt>
      <trkpt lat="45.93868" lon="4.72528">
        <ele>173</ele>
        <time>2017-06-26T07:44:00Z</time>
      </trkpt>
      <trkpt lat="45.93872" lon="4.72527">
        <ele>173</ele>
        <time>2017-06-26T07:44:01Z</time>
      </trkpt>
      <trkpt lat="45.93877" lon="4.72525">
        <ele>173</ele>
        <time>2017-06-26T07:44:02Z</time>
      </trkpt>
      <trkpt lat="45.93881" lon="4.72521">
        <ele>173</ele>
        <time>2017-06-26T07:44:03Z</time>
      </trkpt>
      <trkpt lat="45.93885" lon="4.72516">
        <ele>173</ele>
        <time>2017-06-26T07:44:04Z</time>
      </trkpt>
      <trkpt lat="45.93889" lon="4.7251">
        <ele>173</ele>
        <time>2017-06-26T07:44:05Z</time>
      </trkpt>
      <trkpt lat="45.93893" lon="4.72505">
        <ele>172</ele>
        <time>2017-06-26T07:44:06Z</time>
      </trkpt>
      <trkpt lat="45.93897" lon="4.72499">
        <ele>172</ele>
        <time>2017-06-26T07:44:07Z</time>
      </trkpt>
      <trkpt lat="45.93902" lon="4.72493">
        <ele>172</ele>
        <time>2017-06-26T07:44:08Z</time>
      </trkpt>
      <trkpt lat="45.93906" lon="4.72487">
        <ele>172</ele>
        <time>2017-06-26T07:44:09Z</time>
      </trkpt>
      <trkpt lat="45.93911" lon="4.72481">
        <ele>172</ele>
        <time>2017-06-26T07:44:10Z</time>
      </trkpt>
      <trkpt lat="45.93915" lon="4.72475">
        <ele>172</ele>
        <time>2017-06-26T07:44:11Z</time>
      </trkpt>
      <trkpt lat="45.9392" lon="4.7247">
        <ele>171</ele>
        <time>2017-06-26T07:44:12Z</time>
      </trkpt>
      <trkpt lat="45.93925" lon="4.72465">
        <ele>171</ele>
        <time>2017-06-26T07:44:13Z</time>
      </trkpt>
      <trkpt lat="45.93929" lon="4.72459">
        <ele>171</ele>
        <time>2017-06-26T07:44:14Z</time>
      </trkpt>
      <trkpt lat="45.93934" lon="4.72453">
        <ele>171</ele>
        <time>2017-06-26T07:44:15Z</time>
      </trkpt>
      <trkpt lat="45.93938" lon="4.72448">
        <ele>171</ele>
        <time>2017-06-26T07:44:16Z</time>
      </trkpt>
      <trkpt lat="45.93943" lon="4.72442">
        <ele>171</ele>
        <time>2017-06-26T07:44:17Z</time>
      </trkpt>
      <trkpt lat="45.93948" lon="4.72437">
        <ele>171</ele>
        <time>2017-06-26T07:44:18Z</time>
      </trkpt>
      <trkpt lat="45.93953" lon="4.72431">
        <ele>171</ele>
        <time>2017-06-26T07:44:19Z</time>
      </trkpt>
      <trkpt lat="45.93958" lon="4.72425">
        <ele>171</ele>
        <time>2017-06-26T07:44:20Z</time>
      </trkpt>
      <trkpt lat="45.93963" lon="4.72419">
        <ele>171</ele>
        <time>2017-06-26T07:44:21Z</time>
      </trkpt>
      <trkpt lat="45.93968" lon="4.72413">
        <ele>171</ele>
        <time>2017-06-26T07:44:22Z</time>
      </trkpt>
      <trkpt lat="45.93973" lon="4.72407">
        <ele>171</ele>
        <time>2017-06-26T07:44:23Z</time>
      </trkpt>
      <trkpt lat="45.93977" lon="4.72402">
        <ele>171</ele>
        <time>2017-06-26T07:44:24Z</time>
      </trkpt>
      <trkpt lat="45.93982" lon="4.72395">
        <ele>171</ele>
        <time>2017-06-26T07:44:25Z</time>
      </trkpt>
      <trkpt lat="45.93986" lon="4.7239">
        <ele>171</ele>
        <time>2017-06-26T07:44:26Z</time>
      </trkpt>
      <trkpt lat="45.93991" lon="4.72384">
        <ele>171</ele>
        <time>2017-06-26T07:44:27Z</time>
      </trkpt>
      <trkpt lat="45.93996" lon="4.72378">
        <ele>171</ele>
        <time>2017-06-26T07:44:28Z</time>
      </trkpt>
      <trkpt lat="45.94" lon="4.72372">
        <ele>171</ele>
        <time>2017-06-26T07:44:29Z</time>
      </trkpt>
      <trkpt lat="45.94005" lon="4.72366">
        <ele>171</ele>
        <time>2017-06-26T07:44:30Z</time>
      </trkpt>
      <trkpt lat="45.94009" lon="4.72359">
        <ele>171</ele>
        <time>2017-06-26T07:44:31Z</time>
      </trkpt>
      <trkpt lat="45.94014" lon="4.72353">
        <ele>171</ele>
        <time>2017-06-26T07:44:32Z</time>
      </trkpt>
      <trkpt lat="45.94018" lon="4.72347">
        <ele>171</ele>
        <time>2017-06-26T07:44:33Z</time>
      </trkpt>
      <trkpt lat="45.94023" lon="4.72341">
        <ele>171</ele>
        <time>2017-06-26T07:44:34Z</time>
      </trkpt>
      <trkpt lat="45.94027" lon="4.72336">
        <ele>171</ele>
        <time>2017-06-26T07:44:35Z</time>
      </trkpt>
      <trkpt lat="45.94031" lon="4.72331">
        <ele>171</ele>
        <time>2017-06-26T07:44:36Z</time>
      </trkpt>
      <trkpt lat="45.94035" lon="4.72326">
        <ele>171</ele>
        <time>2017-06-26T07:44:37Z</time>
      </trkpt>
      <trkpt lat="45.94039" lon="4.72321">
        <ele>171</ele>
        <time>2017-06-26T07:44:38Z</time>
      </trkpt>
      <trkpt lat="45.94043" lon="4.72316">
        <ele>171</ele>
        <time>2017-06-26T07:44:39Z</time>
      </trkpt>
      <trkpt lat="45.94047" lon="4.72311">
        <ele>171</ele>
        <time>2017-06-26T07:44:40Z</time>
      </trkpt>
      <trkpt lat="45.9405" lon="4.72307">
        <ele>171</ele>
        <time>2017-06-26T07:44:41Z</time>
      </trkpt>
      <trkpt lat="45.94054" lon="4.72302">
        <ele>171</ele>
        <time>2017-06-26T07:44:42Z</time>
      </trkpt>
      <trkpt lat="45.94058" lon="4.72297">
        <ele>171</ele>
        <time>2017-06-26T07:44:43Z</time>
      </trkpt>
      <trkpt lat="45.94062" lon="4.72292">
        <ele>171</ele>
        <time>2017-06-26T07:44:44Z</time>
      </trkpt>
      <trkpt lat="45.94067" lon="4.72287">
        <ele>171</ele>
        <time>2017-06-26T07:44:45Z</time>
      </trkpt>
      <trkpt lat="45.94072" lon="4.72282">
        <ele>171</ele>
        <time>2017-06-26T07:44:46Z</time>
      </trkpt>
      <trkpt lat="45.94077" lon="4.72278">
        <ele>171</ele>
        <time>2017-06-26T07:44:47Z</time>
      </trkpt>
      <trkpt lat="45.94082" lon="4.72275">
        <ele>171</ele>
        <time>2017-06-26T07:44:48Z</time>
      </trkpt>
      <trkpt lat="45.94088" lon="4.72273">
        <ele>171</ele>
        <time>2017-06-26T07:44:49Z</time>
      </trkpt>
      <trkpt lat="45.94093" lon="4.72272">
        <ele>171</ele>
        <time>2017-06-26T07:44:50Z</time>
      </trkpt>
      <trkpt lat="45.94099" lon="4.72272">
        <ele>171</ele>
        <time>2017-06-26T07:44:51Z</time>
      </trkpt>
      <trkpt lat="45.94105" lon="4.72273">
        <ele>171</ele>
        <time>2017-06-26T07:44:52Z</time>
      </trkpt>
      <trkpt lat="45.94111" lon="4.72275">
        <ele>171</ele>
        <time>2017-06-26T07:44:53Z</time>
      </trkpt>
      <trkpt lat="45.94117" lon="4.72277">
        <ele>171</ele>
        <time>2017-06-26T07:44:54Z</time>
      </trkpt>
      <trkpt lat="45.94123" lon="4.7228">
        <ele>171</ele>
        <time>2017-06-26T07:44:55Z</time>
      </trkpt>
      <trkpt lat="45.94128" lon="4.72283">
        <ele>171</ele>
        <time>2017-06-26T07:44:56Z</time>
      </trkpt>
      <trkpt lat="45.94133" lon="4.72286">
        <ele>171</ele>
        <time>2017-06-26T07:44:57Z</time>
      </trkpt>
      <trkpt lat="45.94138" lon="4.72289">
        <ele>171</ele>
        <time>2017-06-26T07:44:58Z</time>
      </trkpt>
      <trkpt lat="45.94144" lon="4.72291">
        <ele>171</ele>
        <time>2017-06-26T07:44:59Z</time>
      </trkpt>
      <trkpt lat="45.94149" lon="4.72293">
        <ele>171</ele>
        <time>2017-06-26T07:45:00Z</time>
      </trkpt>
      <trkpt lat="45.94154" lon="4.72295">
        <ele>171</ele>
        <time>2017-06-26T07:45:01Z</time>
      </trkpt>
      <trkpt lat="45.94159" lon="4.72296">
        <ele>171</ele>
        <time>2017-06-26T07:45:02Z</time>
      </trkpt>
      <trkpt lat="45.94163" lon="4.72298">
        <ele>171</ele>
        <time>2017-06-26T07:45:03Z</time>
      </trkpt>
      <trkpt lat="45.94168" lon="4.72299">
        <ele>171</ele>
        <time>2017-06-26T07:45:04Z</time>
      </trkpt>
      <trkpt lat="45.94173" lon="4.72299">
        <ele>171</ele>
        <time>2017-06-26T07:45:05Z</time>
      </trkpt>
      <trkpt lat="45.94177" lon="4.723">
        <ele>171</ele>
        <time>2017-06-26T07:45:06Z</time>
      </trkpt>
      <trkpt lat="45.94182" lon="4.723">
        <ele>171</ele>
        <time>2017-06-26T07:45:07Z</time>
      </trkpt>
      <trkpt lat="45.94187" lon="4.72301">
        <ele>171</ele>
        <time>2017-06-26T07:45:08Z</time>
      </trkpt>
      <trkpt lat="45.94192" lon="4.72301">
        <ele>171</ele>
        <time>2017-06-26T07:45:09Z</time>
      </trkpt>
      <trkpt lat="45.94198" lon="4.72302">
        <ele>171</ele>
        <time>2017-06-26T07:45:10Z</time>
      </trkpt>
      <trkpt lat="45.94202" lon="4.72302">
        <ele>171</ele>
        <time>2017-06-26T07:45:11Z</time>
      </trkpt>
      <trkpt lat="45.94207" lon="4.72302">
        <ele>171</ele>
        <time>2017-06-26T07:45:12Z</time>
      </trkpt>
      <trkpt lat="45.94212" lon="4.72301">
        <ele>171</ele>
        <time>2017-06-26T07:45:13Z</time>
      </trkpt>
      <trkpt lat="45.94217" lon="4.72301">
        <ele>171</ele>
        <time>2017-06-26T07:45:14Z</time>
      </trkpt>
      <trkpt lat="45.94222" lon="4.72299">
        <ele>171</ele>
        <time>2017-06-26T07:45:15Z</time>
      </trkpt>
      <trkpt lat="45.94226" lon="4.72298">
        <ele>171</ele>
        <time>2017-06-26T07:45:16Z</time>
      </trkpt>
      <trkpt lat="45.94232" lon="4.72295">
        <ele>171</ele>
        <time>2017-06-26T07:45:17Z</time>
      </trkpt>
      <trkpt lat="45.94236" lon="4.72293">
        <ele>171</ele>
        <time>2017-06-26T07:45:18Z</time>
      </trkpt>
      <trkpt lat="45.94241" lon="4.72293">
        <ele>171</ele>
        <time>2017-06-26T07:45:19Z</time>
      </trkpt>
      <trkpt lat="45.94245" lon="4.72291">
        <ele>171</ele>
        <time>2017-06-26T07:45:20Z</time>
      </trkpt>
      <trkpt lat="45.94253" lon="4.72289">
        <ele>171</ele>
        <time>2017-06-26T07:45:22Z</time>
      </trkpt>
      <trkpt lat="45.94257" lon="4.72287">
        <ele>171</ele>
        <time>2017-06-26T07:45:23Z</time>
      </trkpt>
      <trkpt lat="45.94265" lon="4.72287">
        <ele>171</ele>
        <time>2017-06-26T07:45:25Z</time>
      </trkpt>
      <trkpt lat="45.94269" lon="4.72288">
        <ele>171</ele>
        <time>2017-06-26T07:45:26Z</time>
      </trkpt>
      <trkpt lat="45.94274" lon="4.72295">
        <ele>171</ele>
        <time>2017-06-26T07:45:28Z</time>
      </trkpt>
      <trkpt lat="45.94277" lon="4.723">
        <ele>171</ele>
        <time>2017-06-26T07:45:29Z</time>
      </trkpt>
      <trkpt lat="45.94279" lon="4.72306">
        <ele>171</ele>
        <time>2017-06-26T07:45:30Z</time>
      </trkpt>
      <trkpt lat="45.94282" lon="4.72311">
        <ele>171</ele>
        <time>2017-06-26T07:45:31Z</time>
      </trkpt>
      <trkpt lat="45.94285" lon="4.72317">
        <ele>171</ele>
        <time>2017-06-26T07:45:32Z</time>
      </trkpt>
      <trkpt lat="45.94288" lon="4.72323">
        <ele>171</ele>
        <time>2017-06-26T07:45:33Z</time>
      </trkpt>
      <trkpt lat="45.94291" lon="4.72329">
        <ele>171</ele>
        <time>2017-06-26T07:45:34Z</time>
      </trkpt>
      <trkpt lat="45.94295" lon="4.72335">
        <ele>172</ele>
        <time>2017-06-26T07:45:35Z</time>
      </trkpt>
      <trkpt lat="45.94298" lon="4.72342">
        <ele>172</ele>
        <time>2017-06-26T07:45:36Z</time>
      </trkpt>
      <trkpt lat="45.943" lon="4.72348">
        <ele>172</ele>
        <time>2017-06-26T07:45:37Z</time>
      </trkpt>
      <trkpt lat="45.94303" lon="4.72354">
        <ele>172</ele>
        <time>2017-06-26T07:45:38Z</time>
      </trkpt>
      <trkpt lat="45.94306" lon="4.72361">
        <ele>172</ele>
        <time>2017-06-26T07:45:39Z</time>
      </trkpt>
      <trkpt lat="45.94308" lon="4.72368">
        <ele>172</ele>
        <time>2017-06-26T07:45:40Z</time>
      </trkpt>
      <trkpt lat="45.94312" lon="4.72376">
        <ele>172</ele>
        <time>2017-06-26T07:45:41Z</time>
      </trkpt>
      <trkpt lat="45.94315" lon="4.72383">
        <ele>172</ele>
        <time>2017-06-26T07:45:42Z</time>
      </trkpt>
      <trkpt lat="45.94318" lon="4.7239">
        <ele>172</ele>
        <time>2017-06-26T07:45:43Z</time>
      </trkpt>
      <trkpt lat="45.94322" lon="4.72397">
        <ele>172</ele>
        <time>2017-06-26T07:45:44Z</time>
      </trkpt>
      <trkpt lat="45.94325" lon="4.72404">
        <ele>173</ele>
        <time>2017-06-26T07:45:45Z</time>
      </trkpt>
      <trkpt lat="45.94328" lon="4.7241">
        <ele>173</ele>
        <time>2017-06-26T07:45:46Z</time>
      </trkpt>
      <trkpt lat="45.94331" lon="4.72417">
        <ele>173</ele>
        <time>2017-06-26T07:45:47Z</time>
      </trkpt>
      <trkpt lat="45.94334" lon="4.72423">
        <ele>173</ele>
        <time>2017-06-26T07:45:48Z</time>
      </trkpt>
      <trkpt lat="45.94336" lon="4.7243">
        <ele>173</ele>
        <time>2017-06-26T07:45:49Z</time>
      </trkpt>
      <trkpt lat="45.94339" lon="4.72436">
        <ele>173</ele>
        <time>2017-06-26T07:45:50Z</time>
      </trkpt>
      <trkpt lat="45.94342" lon="4.72442">
        <ele>173</ele>
        <time>2017-06-26T07:45:51Z</time>
      </trkpt>
      <trkpt lat="45.94344" lon="4.72449">
        <ele>173</ele>
        <time>2017-06-26T07:45:52Z</time>
      </trkpt>
      <trkpt lat="45.94347" lon="4.72455">
        <ele>173</ele>
        <time>2017-06-26T07:45:53Z</time>
      </trkpt>
      <trkpt lat="45.9435" lon="4.72462">
        <ele>173</ele>
        <time>2017-06-26T07:45:54Z</time>
      </trkpt>
      <trkpt lat="45.94353" lon="4.72468">
        <ele>173</ele>
        <time>2017-06-26T07:45:55Z</time>
      </trkpt>
      <trkpt lat="45.94356" lon="4.72475">
        <ele>173</ele>
        <time>2017-06-26T07:45:56Z</time>
      </trkpt>
      <trkpt lat="45.94359" lon="4.72482">
        <ele>173</ele>
        <time>2017-06-26T07:45:57Z</time>
      </trkpt>
      <trkpt lat="45.94362" lon="4.72489">
        <ele>173</ele>
        <time>2017-06-26T07:45:58Z</time>
      </trkpt>
      <trkpt lat="45.94365" lon="4.72496">
        <ele>173</ele>
        <time>2017-06-26T07:45:59Z</time>
      </trkpt>
      <trkpt lat="45.94367" lon="4.72504">
        <ele>173</ele>
        <time>2017-06-26T07:46:00Z</time>
      </trkpt>
      <trkpt lat="45.9437" lon="4.72511">
        <ele>173</ele>
        <time>2017-06-26T07:46:01Z</time>
      </trkpt>
      <trkpt lat="45.94372" lon="4.72518">
        <ele>173</ele>
        <time>2017-06-26T07:46:02Z</time>
      </trkpt>
      <trkpt lat="45.94374" lon="4.72524">
        <ele>173</ele>
        <time>2017-06-26T07:46:03Z</time>
      </trkpt>
      <trkpt lat="45.94377" lon="4.72531">
        <ele>174</ele>
        <time>2017-06-26T07:46:04Z</time>
      </trkpt>
      <trkpt lat="45.94378" lon="4.72537">
        <ele>174</ele>
        <time>2017-06-26T07:46:05Z</time>
      </trkpt>
      <trkpt lat="45.9438" lon="4.72545">
        <ele>173</ele>
        <time>2017-06-26T07:46:06Z</time>
      </trkpt>
      <trkpt lat="45.94382" lon="4.72552">
        <ele>173</ele>
        <time>2017-06-26T07:46:07Z</time>
      </trkpt>
      <trkpt lat="45.94384" lon="4.7256">
        <ele>173</ele>
        <time>2017-06-26T07:46:08Z</time>
      </trkpt>
      <trkpt lat="45.94385" lon="4.72567">
        <ele>173</ele>
        <time>2017-06-26T07:46:09Z</time>
      </trkpt>
      <trkpt lat="45.94387" lon="4.72574">
        <ele>173</ele>
        <time>2017-06-26T07:46:10Z</time>
      </trkpt>
      <trkpt lat="45.94388" lon="4.72582">
        <ele>173</ele>
        <time>2017-06-26T07:46:11Z</time>
      </trkpt>
      <trkpt lat="45.94388" lon="4.72589">
        <ele>173</ele>
        <time>2017-06-26T07:46:12Z</time>
      </trkpt>
      <trkpt lat="45.94389" lon="4.72596">
        <ele>173</ele>
        <time>2017-06-26T07:46:13Z</time>
      </trkpt>
      <trkpt lat="45.9439" lon="4.72604">
        <ele>173</ele>
        <time>2017-06-26T07:46:14Z</time>
      </trkpt>
      <trkpt lat="45.94391" lon="4.72612">
        <ele>173</ele>
        <time>2017-06-26T07:46:15Z</time>
      </trkpt>
      <trkpt lat="45.94392" lon="4.7262">
        <ele>173</ele>
        <time>2017-06-26T07:46:16Z</time>
      </trkpt>
      <trkpt lat="45.94393" lon="4.72628">
        <ele>174</ele>
        <time>2017-06-26T07:46:17Z</time>
      </trkpt>
      <trkpt lat="45.94394" lon="4.72636">
        <ele>174</ele>
        <time>2017-06-26T07:46:18Z</time>
      </trkpt>
      <trkpt lat="45.94396" lon="4.72643">
        <ele>174</ele>
        <time>2017-06-26T07:46:19Z</time>
      </trkpt>
      <trkpt lat="45.94397" lon="4.7265">
        <ele>174</ele>
        <time>2017-06-26T07:46:20Z</time>
      </trkpt>
      <trkpt lat="45.94398" lon="4.72658">
        <ele>174</ele>
        <time>2017-06-26T07:46:21Z</time>
      </trkpt>
      <trkpt lat="45.944" lon="4.72668">
        <ele>173</ele>
        <time>2017-06-26T07:46:22Z</time>
      </trkpt>
      <trkpt lat="45.94401" lon="4.72677">
        <ele>173</ele>
        <time>2017-06-26T07:46:23Z</time>
      </trkpt>
      <trkpt lat="45.94401" lon="4.72686">
        <ele>173</ele>
        <time>2017-06-26T07:46:24Z</time>
      </trkpt>
      <trkpt lat="45.94402" lon="4.72694">
        <ele>173</ele>
        <time>2017-06-26T07:46:25Z</time>
      </trkpt>
      <trkpt lat="45.94403" lon="4.72702">
        <ele>172</ele>
        <time>2017-06-26T07:46:26Z</time>
      </trkpt>
      <trkpt lat="45.94404" lon="4.7271">
        <ele>172</ele>
        <time>2017-06-26T07:46:27Z</time>
      </trkpt>
      <trkpt lat="45.94405" lon="4.72718">
        <ele>172</ele>
        <time>2017-06-26T07:46:28Z</time>
      </trkpt>
      <trkpt lat="45.94406" lon="4.72725">
        <ele>172</ele>
        <time>2017-06-26T07:46:29Z</time>
      </trkpt>
      <trkpt lat="45.94407" lon="4.72733">
        <ele>172</ele>
        <time>2017-06-26T07:46:30Z</time>
      </trkpt>
      <trkpt lat="45.94408" lon="4.7274">
        <ele>171</ele>
        <time>2017-06-26T07:46:31Z</time>
      </trkpt>
      <trkpt lat="45.94409" lon="4.72747">
        <ele>171</ele>
        <time>2017-06-26T07:46:32Z</time>
      </trkpt>
      <trkpt lat="45.9441" lon="4.72754">
        <ele>170</ele>
        <time>2017-06-26T07:46:33Z</time>
      </trkpt>
      <trkpt lat="45.94411" lon="4.72761">
        <ele>170</ele>
        <time>2017-06-26T07:46:34Z</time>
      </trkpt>
      <trkpt lat="45.94412" lon="4.72768">
        <ele>169</ele>
        <time>2017-06-26T07:46:35Z</time>
      </trkpt>
      <trkpt lat="45.94413" lon="4.72776">
        <ele>169</ele>
        <time>2017-06-26T07:46:36Z</time>
      </trkpt>
      <trkpt lat="45.94414" lon="4.72783">
        <ele>169</ele>
        <time>2017-06-26T07:46:37Z</time>
      </trkpt>
      <trkpt lat="45.94415" lon="4.72789">
        <ele>168</ele>
        <time>2017-06-26T07:46:38Z</time>
      </trkpt>
      <trkpt lat="45.94416" lon="4.72796">
        <ele>168</ele>
        <time>2017-06-26T07:46:39Z</time>
      </trkpt>
      <trkpt lat="45.94417" lon="4.72804">
        <ele>168</ele>
        <time>2017-06-26T07:46:40Z</time>
      </trkpt>
      <trkpt lat="45.94418" lon="4.72811">
        <ele>167</ele>
        <time>2017-06-26T07:46:41Z</time>
      </trkpt>
      <trkpt lat="45.94418" lon="4.72818">
        <ele>167</ele>
        <time>2017-06-26T07:46:42Z</time>
      </trkpt>
      <trkpt lat="45.94419" lon="4.72826">
        <ele>166</ele>
        <time>2017-06-26T07:46:43Z</time>
      </trkpt>
      <trkpt lat="45.9442" lon="4.72834">
        <ele>166</ele>
        <time>2017-06-26T07:46:44Z</time>
      </trkpt>
      <trkpt lat="45.94421" lon="4.72841">
        <ele>166</ele>
        <time>2017-06-26T07:46:45Z</time>
      </trkpt>
      <trkpt lat="45.94422" lon="4.72849">
        <ele>166</ele>
        <time>2017-06-26T07:46:46Z</time>
      </trkpt>
      <trkpt lat="45.94423" lon="4.72857">
        <ele>166</ele>
        <time>2017-06-26T07:46:47Z</time>
      </trkpt>
      <trkpt lat="45.94424" lon="4.72865">
        <ele>166</ele>
        <time>2017-06-26T07:46:48Z</time>
      </trkpt>
      <trkpt lat="45.94426" lon="4.72872">
        <ele>166</ele>
        <time>2017-06-26T07:46:49Z</time>
      </trkpt>
      <trkpt lat="45.94428" lon="4.72879">
        <ele>166</ele>
        <time>2017-06-26T07:46:50Z</time>
      </trkpt>
      <trkpt lat="45.94429" lon="4.72886">
        <ele>166</ele>
        <time>2017-06-26T07:46:51Z</time>
      </trkpt>
      <trkpt lat="45.9443" lon="4.72897">
        <ele>166</ele>
        <time>2017-06-26T07:46:53Z</time>
      </trkpt>
      <trkpt lat="45.94431" lon="4.72903">
        <ele>166</ele>
        <time>2017-06-26T07:46:54Z</time>
      </trkpt>
      <trkpt lat="45.94432" lon="4.72914">
        <ele>166</ele>
        <time>2017-06-26T07:46:56Z</time>
      </trkpt>
      <trkpt lat="45.94433" lon="4.72921">
        <ele>167</ele>
        <time>2017-06-26T07:46:57Z</time>
      </trkpt>
      <trkpt lat="45.94435" lon="4.72933">
        <ele>167</ele>
        <time>2017-06-26T07:46:59Z</time>
      </trkpt>
      <trkpt lat="45.94436" lon="4.7294">
        <ele>167</ele>
        <time>2017-06-26T07:47:00Z</time>
      </trkpt>
      <trkpt lat="45.94437" lon="4.72947">
        <ele>167</ele>
        <time>2017-06-26T07:47:01Z</time>
      </trkpt>
      <trkpt lat="45.94438" lon="4.72954">
        <ele>167</ele>
        <time>2017-06-26T07:47:02Z</time>
      </trkpt>
      <trkpt lat="45.94439" lon="4.72961">
        <ele>167</ele>
        <time>2017-06-26T07:47:03Z</time>
      </trkpt>
      <trkpt lat="45.94441" lon="4.72969">
        <ele>167</ele>
        <time>2017-06-26T07:47:04Z</time>
      </trkpt>
      <trkpt lat="45.94442" lon="4.72977">
        <ele>167</ele>
        <time>2017-06-26T07:47:05Z</time>
      </trkpt>
      <trkpt lat="45.94443" lon="4.72985">
        <ele>167</ele>
        <time>2017-06-26T07:47:06Z</time>
      </trkpt>
      <trkpt lat="45.94444" lon="4.72994">
        <ele>167</ele>
        <time>2017-06-26T07:47:07Z</time>
      </trkpt>
      <trkpt lat="45.94445" lon="4.73003">
        <ele>168</ele>
        <time>2017-06-26T07:47:08Z</time>
      </trkpt>
      <trkpt lat="45.94446" lon="4.73012">
        <ele>169</ele>
        <time>2017-06-26T07:47:09Z</time>
      </trkpt>
      <trkpt lat="45.94447" lon="4.73021">
        <ele>169</ele>
        <time>2017-06-26T07:47:10Z</time>
      </trkpt>
      <trkpt lat="45.94449" lon="4.73031">
        <ele>169</ele>
        <time>2017-06-26T07:47:11Z</time>
      </trkpt>
      <trkpt lat="45.9445" lon="4.73041">
        <ele>169</ele>
        <time>2017-06-26T07:47:12Z</time>
      </trkpt>
      <trkpt lat="45.94451" lon="4.73051">
        <ele>169</ele>
        <time>2017-06-26T07:47:13Z</time>
      </trkpt>
      <trkpt lat="45.94452" lon="4.73061">
        <ele>170</ele>
        <time>2017-06-26T07:47:14Z</time>
      </trkpt>
      <trkpt lat="45.94453" lon="4.73071">
        <ele>170</ele>
        <time>2017-06-26T07:47:15Z</time>
      </trkpt>
      <trkpt lat="45.94454" lon="4.73081">
        <ele>170</ele>
        <time>2017-06-26T07:47:16Z</time>
      </trkpt>
      <trkpt lat="45.94455" lon="4.73091">
        <ele>171</ele>
        <time>2017-06-26T07:47:17Z</time>
      </trkpt>
      <trkpt lat="45.94456" lon="4.73101">
        <ele>171</ele>
        <time>2017-06-26T07:47:18Z</time>
      </trkpt>
      <trkpt lat="45.94458" lon="4.7311">
        <ele>172</ele>
        <time>2017-06-26T07:47:19Z</time>
      </trkpt>
      <trkpt lat="45.94459" lon="4.73119">
        <ele>172</ele>
        <time>2017-06-26T07:47:20Z</time>
      </trkpt>
      <trkpt lat="45.9446" lon="4.73128">
        <ele>172</ele>
        <time>2017-06-26T07:47:21Z</time>
      </trkpt>
      <trkpt lat="45.94462" lon="4.73136">
        <ele>172</ele>
        <time>2017-06-26T07:47:22Z</time>
      </trkpt>
      <trkpt lat="45.94463" lon="4.73144">
        <ele>172</ele>
        <time>2017-06-26T07:47:23Z</time>
      </trkpt>
      <trkpt lat="45.94465" lon="4.73152">
        <ele>172</ele>
        <time>2017-06-26T07:47:24Z</time>
      </trkpt>
      <trkpt lat="45.94466" lon="4.7316">
        <ele>172</ele>
        <time>2017-06-26T07:47:25Z</time>
      </trkpt>
      <trkpt lat="45.94468" lon="4.73168">
        <ele>174</ele>
        <time>2017-06-26T07:47:26Z</time>
      </trkpt>
      <trkpt lat="45.94469" lon="4.73176">
        <ele>174</ele>
        <time>2017-06-26T07:47:27Z</time>
      </trkpt>
      <trkpt lat="45.9447" lon="4.73183">
        <ele>174</ele>
        <time>2017-06-26T07:47:28Z</time>
      </trkpt>
      <trkpt lat="45.9447" lon="4.7319">
        <ele>174</ele>
        <time>2017-06-26T07:47:29Z</time>
      </trkpt>
      <trkpt lat="45.94471" lon="4.73197">
        <ele>174</ele>
        <time>2017-06-26T07:47:30Z</time>
      </trkpt>
      <trkpt lat="45.94472" lon="4.73205">
        <ele>175</ele>
        <time>2017-06-26T07:47:31Z</time>
      </trkpt>
      <trkpt lat="45.94473" lon="4.73212">
        <ele>175</ele>
        <time>2017-06-26T07:47:32Z</time>
      </trkpt>
      <trkpt lat="45.94475" lon="4.73218">
        <ele>175</ele>
        <time>2017-06-26T07:47:33Z</time>
      </trkpt>
      <trkpt lat="45.94475" lon="4.73225">
        <ele>175</ele>
        <time>2017-06-26T07:47:34Z</time>
      </trkpt>
      <trkpt lat="45.94476" lon="4.73231">
        <ele>175</ele>
        <time>2017-06-26T07:47:35Z</time>
      </trkpt>
      <trkpt lat="45.94477" lon="4.73237">
        <ele>175</ele>
        <time>2017-06-26T07:47:36Z</time>
      </trkpt>
      <trkpt lat="45.94478" lon="4.73244">
        <ele>175</ele>
        <time>2017-06-26T07:47:37Z</time>
      </trkpt>
      <trkpt lat="45.94479" lon="4.7325">
        <ele>176</ele>
        <time>2017-06-26T07:47:38Z</time>
      </trkpt>
      <trkpt lat="45.9448" lon="4.73257">
        <ele>176</ele>
        <time>2017-06-26T07:47:39Z</time>
      </trkpt>
      <trkpt lat="45.9448" lon="4.73264">
        <ele>177</ele>
        <time>2017-06-26T07:47:40Z</time>
      </trkpt>
      <trkpt lat="45.94481" lon="4.73272">
        <ele>177</ele>
        <time>2017-06-26T07:47:41Z</time>
      </trkpt>
      <trkpt lat="45.94482" lon="4.73279">
        <ele>177</ele>
        <time>2017-06-26T07:47:42Z</time>
      </trkpt>
      <trkpt lat="45.94483" lon="4.73287">
        <ele>177</ele>
        <time>2017-06-26T07:47:43Z</time>
      </trkpt>
      <trkpt lat="45.94484" lon="4.73293">
        <ele>177</ele>
        <time>2017-06-26T07:47:44Z</time>
      </trkpt>
      <trkpt lat="45.94484" lon="4.73301">
        <ele>177</ele>
        <time>2017-06-26T07:47:45Z</time>
      </trkpt>
      <trkpt lat="45.94485" lon="4.73308">
        <ele>177</ele>
        <time>2017-06-26T07:47:46Z</time>
      </trkpt>
      <trkpt lat="45.94486" lon="4.73315">
        <ele>177</ele>
        <time>2017-06-26T07:47:47Z</time>
      </trkpt>
      <trkpt lat="45.94487" lon="4.73322">
        <ele>177</ele>
        <time>2017-06-26T07:47:48Z</time>
      </trkpt>
      <trkpt lat="45.94487" lon="4.73328">
        <ele>177</ele>
        <time>2017-06-26T07:47:49Z</time>
      </trkpt>
      <trkpt lat="45.94488" lon="4.73335">
        <ele>178</ele>
        <time>2017-06-26T07:47:50Z</time>
      </trkpt>
      <trkpt lat="45.94489" lon="4.73347">
        <ele>178</ele>
        <time>2017-06-26T07:47:52Z</time>
      </trkpt>
      <trkpt lat="45.9449" lon="4.73354">
        <ele>178</ele>
        <time>2017-06-26T07:47:53Z</time>
      </trkpt>
      <trkpt lat="45.94491" lon="4.7336">
        <ele>179</ele>
        <time>2017-06-26T07:47:54Z</time>
      </trkpt>
      <trkpt lat="45.94491" lon="4.73367">
        <ele>179</ele>
        <time>2017-06-26T07:47:55Z</time>
      </trkpt>
      <trkpt lat="45.94492" lon="4.73373">
        <ele>179</ele>
        <time>2017-06-26T07:47:56Z</time>
      </trkpt>
      <trkpt lat="45.94492" lon="4.7338">
        <ele>179</ele>
        <time>2017-06-26T07:47:57Z</time>
      </trkpt>
      <trkpt lat="45.94493" lon="4.73388">
        <ele>179</ele>
        <time>2017-06-26T07:47:58Z</time>
      </trkpt>
      <trkpt lat="45.94494" lon="4.73396">
        <ele>179</ele>
        <time>2017-06-26T07:47:59Z</time>
      </trkpt>
      <trkpt lat="45.94494" lon="4.73403">
        <ele>180</ele>
        <time>2017-06-26T07:48:00Z</time>
      </trkpt>
      <trkpt lat="45.94495" lon="4.7341">
        <ele>180</ele>
        <time>2017-06-26T07:48:01Z</time>
      </trkpt>
      <trkpt lat="45.94496" lon="4.73422">
        <ele>180</ele>
        <time>2017-06-26T07:48:03Z</time>
      </trkpt>
      <trkpt lat="45.94496" lon="4.73428">
        <ele>181</ele>
        <time>2017-06-26T07:48:04Z</time>
      </trkpt>
      <trkpt lat="45.94496" lon="4.73441">
        <ele>181</ele>
        <time>2017-06-26T07:48:06Z</time>
      </trkpt>
      <trkpt lat="45.94496" lon="4.73447">
        <ele>181</ele>
        <time>2017-06-26T07:48:07Z</time>
      </trkpt>
      <trkpt lat="45.94496" lon="4.73459">
        <ele>182</ele>
        <time>2017-06-26T07:48:09Z</time>
      </trkpt>
      <trkpt lat="45.94496" lon="4.73465">
        <ele>182</ele>
        <time>2017-06-26T07:48:10Z</time>
      </trkpt>
      <trkpt lat="45.94496" lon="4.73471">
        <ele>182</ele>
        <time>2017-06-26T07:48:11Z</time>
      </trkpt>
      <trkpt lat="45.94496" lon="4.73478">
        <ele>182</ele>
        <time>2017-06-26T07:48:12Z</time>
      </trkpt>
      <trkpt lat="45.94496" lon="4.73485">
        <ele>183</ele>
        <time>2017-06-26T07:48:13Z</time>
      </trkpt>
      <trkpt lat="45.94496" lon="4.73493">
        <ele>183</ele>
        <time>2017-06-26T07:48:14Z</time>
      </trkpt>
      <trkpt lat="45.94496" lon="4.73499">
        <ele>183</ele>
        <time>2017-06-26T07:48:15Z</time>
      </trkpt>
      <trkpt lat="45.94496" lon="4.73508">
        <ele>183</ele>
        <time>2017-06-26T07:48:16Z</time>
      </trkpt>
      <trkpt lat="45.94495" lon="4.7352">
        <ele>184</ele>
        <time>2017-06-26T07:48:18Z</time>
      </trkpt>
      <trkpt lat="45.94494" lon="4.73526">
        <ele>184</ele>
        <time>2017-06-26T07:48:19Z</time>
      </trkpt>
      <trkpt lat="45.94494" lon="4.73537">
        <ele>184</ele>
        <time>2017-06-26T07:48:21Z</time>
      </trkpt>
      <trkpt lat="45.94494" lon="4.73543">
        <ele>185</ele>
        <time>2017-06-26T07:48:22Z</time>
      </trkpt>
      <trkpt lat="45.94494" lon="4.73555">
        <ele>185</ele>
        <time>2017-06-26T07:48:24Z</time>
      </trkpt>
      <trkpt lat="45.94494" lon="4.73561">
        <ele>185</ele>
        <time>2017-06-26T07:48:25Z</time>
      </trkpt>
      <trkpt lat="45.94495" lon="4.73574">
        <ele>185</ele>
        <time>2017-06-26T07:48:27Z</time>
      </trkpt>
      <trkpt lat="45.94495" lon="4.7358">
        <ele>185</ele>
        <time>2017-06-26T07:48:28Z</time>
      </trkpt>
      <trkpt lat="45.94495" lon="4.73587">
        <ele>185</ele>
        <time>2017-06-26T07:48:29Z</time>
      </trkpt>
      <trkpt lat="45.94494" lon="4.73593">
        <ele>185</ele>
        <time>2017-06-26T07:48:30Z</time>
      </trkpt>
      <trkpt lat="45.94494" lon="4.736">
        <ele>185</ele>
        <time>2017-06-26T07:48:31Z</time>
      </trkpt>
      <trkpt lat="45.94493" lon="4.73607">
        <ele>186</ele>
        <time>2017-06-26T07:48:32Z</time>
      </trkpt>
      <trkpt lat="45.94493" lon="4.73614">
        <ele>186</ele>
        <time>2017-06-26T07:48:33Z</time>
      </trkpt>
      <trkpt lat="45.94493" lon="4.73621">
        <ele>186</ele>
        <time>2017-06-26T07:48:34Z</time>
      </trkpt>
      <trkpt lat="45.94492" lon="4.73627">
        <ele>186</ele>
        <time>2017-06-26T07:48:35Z</time>
      </trkpt>
      <trkpt lat="45.94491" lon="4.73634">
        <ele>186</ele>
        <time>2017-06-26T07:48:36Z</time>
      </trkpt>
      <trkpt lat="45.9449" lon="4.73641">
        <ele>186</ele>
        <time>2017-06-26T07:48:37Z</time>
      </trkpt>
      <trkpt lat="45.94489" lon="4.73648">
        <ele>186</ele>
        <time>2017-06-26T07:48:38Z</time>
      </trkpt>
      <trkpt lat="45.94488" lon="4.73656">
        <ele>185</ele>
        <time>2017-06-26T07:48:39Z</time>
      </trkpt>
      <trkpt lat="45.94488" lon="4.73663">
        <ele>185</ele>
        <time>2017-06-26T07:48:40Z</time>
      </trkpt>
      <trkpt lat="45.94487" lon="4.73671">
        <ele>185</ele>
        <time>2017-06-26T07:48:41Z</time>
      </trkpt>
      <trkpt lat="45.94486" lon="4.73679">
        <ele>186</ele>
        <time>2017-06-26T07:48:42Z</time>
      </trkpt>
      <trkpt lat="45.94484" lon="4.73687">
        <ele>186</ele>
        <time>2017-06-26T07:48:43Z</time>
      </trkpt>
      <trkpt lat="45.94483" lon="4.73695">
        <ele>186</ele>
        <time>2017-06-26T07:48:44Z</time>
      </trkpt>
      <trkpt lat="45.94482" lon="4.73703">
        <ele>186</ele>
        <time>2017-06-26T07:48:45Z</time>
      </trkpt>
      <trkpt lat="45.94481" lon="4.7371">
        <ele>186</ele>
        <time>2017-06-26T07:48:46Z</time>
      </trkpt>
      <trkpt lat="45.94479" lon="4.73719">
        <ele>186</ele>
        <time>2017-06-26T07:48:47Z</time>
      </trkpt>
      <trkpt lat="45.94478" lon="4.73726">
        <ele>186</ele>
        <time>2017-06-26T07:48:48Z</time>
      </trkpt>
      <trkpt lat="45.94477" lon="4.73733">
        <ele>186</ele>
        <time>2017-06-26T07:48:49Z</time>
      </trkpt>
      <trkpt lat="45.94475" lon="4.7374">
        <ele>186</ele>
        <time>2017-06-26T07:48:50Z</time>
      </trkpt>
      <trkpt lat="45.94474" lon="4.73751">
        <ele>186</ele>
        <time>2017-06-26T07:48:52Z</time>
      </trkpt>
      <trkpt lat="45.94473" lon="4.73756">
        <ele>186</ele>
        <time>2017-06-26T07:48:53Z</time>
      </trkpt>
      <trkpt lat="45.94473" lon="4.73769">
        <ele>186</ele>
        <time>2017-06-26T07:48:55Z</time>
      </trkpt>
      <trkpt lat="45.94477" lon="4.73774">
        <ele>186</ele>
        <time>2017-06-26T07:48:56Z</time>
      </trkpt>
      <trkpt lat="45.94481" lon="4.73778">
        <ele>186</ele>
        <time>2017-06-26T07:48:57Z</time>
      </trkpt>
      <trkpt lat="45.94485" lon="4.73782">
        <ele>186</ele>
        <time>2017-06-26T07:48:58Z</time>
      </trkpt>
      <trkpt lat="45.94489" lon="4.73785">
        <ele>186</ele>
        <time>2017-06-26T07:48:59Z</time>
      </trkpt>
      <trkpt lat="45.94494" lon="4.73789">
        <ele>186</ele>
        <time>2017-06-26T07:49:00Z</time>
      </trkpt>
      <trkpt lat="45.94498" lon="4.73793">
        <ele>185</ele>
        <time>2017-06-26T07:49:01Z</time>
      </trkpt>
      <trkpt lat="45.94502" lon="4.73797">
        <ele>186</ele>
        <time>2017-06-26T07:49:02Z</time>
      </trkpt>
      <trkpt lat="45.94507" lon="4.73801">
        <ele>186</ele>
        <time>2017-06-26T07:49:03Z</time>
      </trkpt>
      <trkpt lat="45.94511" lon="4.73805">
        <ele>186</ele>
        <time>2017-06-26T07:49:04Z</time>
      </trkpt>
      <trkpt lat="45.94515" lon="4.73809">
        <ele>186</ele>
        <time>2017-06-26T07:49:05Z</time>
      </trkpt>
      <trkpt lat="45.94519" lon="4.73813">
        <ele>186</ele>
        <time>2017-06-26T07:49:06Z</time>
      </trkpt>
      <trkpt lat="45.94523" lon="4.73818">
        <ele>186</ele>
        <time>2017-06-26T07:49:07Z</time>
      </trkpt>
      <trkpt lat="45.94527" lon="4.73821">
        <ele>186</ele>
        <time>2017-06-26T07:49:08Z</time>
      </trkpt>
      <trkpt lat="45.94531" lon="4.73825">
        <ele>186</ele>
        <time>2017-06-26T07:49:09Z</time>
      </trkpt>
      <trkpt lat="45.94535" lon="4.73829">
        <ele>186</ele>
        <time>2017-06-26T07:49:10Z</time>
      </trkpt>
      <trkpt lat="45.94539" lon="4.73832">
        <ele>186</ele>
        <time>2017-06-26T07:49:11Z</time>
      </trkpt>
      <trkpt lat="45.94543" lon="4.73836">
        <ele>186</ele>
        <time>2017-06-26T07:49:12Z</time>
      </trkpt>
      <trkpt lat="45.94546" lon="4.7384">
        <ele>186</ele>
        <time>2017-06-26T07:49:13Z</time>
      </trkpt>
      <trkpt lat="45.9455" lon="4.73844">
        <ele>186</ele>
        <time>2017-06-26T07:49:14Z</time>
      </trkpt>
      <trkpt lat="45.94554" lon="4.73847">
        <ele>186</ele>
        <time>2017-06-26T07:49:15Z</time>
      </trkpt>
      <trkpt lat="45.94558" lon="4.73852">
        <ele>186</ele>
        <time>2017-06-26T07:49:16Z</time>
      </trkpt>
      <trkpt lat="45.94563" lon="4.73857">
        <ele>186</ele>
        <time>2017-06-26T07:49:17Z</time>
      </trkpt>
      <trkpt lat="45.94567" lon="4.73861">
        <ele>186</ele>
        <time>2017-06-26T07:49:18Z</time>
      </trkpt>
      <trkpt lat="45.94574" lon="4.73868">
        <ele>186</ele>
        <time>2017-06-26T07:49:20Z</time>
      </trkpt>
      <trkpt lat="45.94578" lon="4.73872">
        <ele>186</ele>
        <time>2017-06-26T07:49:21Z</time>
      </trkpt>
      <trkpt lat="45.94581" lon="4.73876">
        <ele>186</ele>
        <time>2017-06-26T07:49:22Z</time>
      </trkpt>
      <trkpt lat="45.94585" lon="4.73882">
        <ele>187</ele>
        <time>2017-06-26T07:49:23Z</time>
      </trkpt>
      <trkpt lat="45.94589" lon="4.73887">
        <ele>187</ele>
        <time>2017-06-26T07:49:24Z</time>
      </trkpt>
      <trkpt lat="45.94593" lon="4.73892">
        <ele>187</ele>
        <time>2017-06-26T07:49:25Z</time>
      </trkpt>
      <trkpt lat="45.94597" lon="4.73896">
        <ele>187</ele>
        <time>2017-06-26T07:49:26Z</time>
      </trkpt>
      <trkpt lat="45.94602" lon="4.73901">
        <ele>187</ele>
        <time>2017-06-26T07:49:27Z</time>
      </trkpt>
      <trkpt lat="45.94605" lon="4.73906">
        <ele>187</ele>
        <time>2017-06-26T07:49:28Z</time>
      </trkpt>
      <trkpt lat="45.94609" lon="4.7391">
        <ele>187</ele>
        <time>2017-06-26T07:49:29Z</time>
      </trkpt>
      <trkpt lat="45.94612" lon="4.73915">
        <ele>187</ele>
        <time>2017-06-26T07:49:30Z</time>
      </trkpt>
      <trkpt lat="45.94616" lon="4.73919">
        <ele>187</ele>
        <time>2017-06-26T07:49:31Z</time>
      </trkpt>
      <trkpt lat="45.94619" lon="4.73923">
        <ele>187</ele>
        <time>2017-06-26T07:49:32Z</time>
      </trkpt>
      <trkpt lat="45.94623" lon="4.73927">
        <ele>187</ele>
        <time>2017-06-26T07:49:33Z</time>
      </trkpt>
      <trkpt lat="45.94627" lon="4.73932">
        <ele>187</ele>
        <time>2017-06-26T07:49:34Z</time>
      </trkpt>
      <trkpt lat="45.9463" lon="4.73937">
        <ele>187</ele>
        <time>2017-06-26T07:49:35Z</time>
      </trkpt>
      <trkpt lat="45.94634" lon="4.73942">
        <ele>187</ele>
        <time>2017-06-26T07:49:36Z</time>
      </trkpt>
      <trkpt lat="45.94638" lon="4.73946">
        <ele>187</ele>
        <time>2017-06-26T07:49:37Z</time>
      </trkpt>
      <trkpt lat="45.94642" lon="4.73951">
        <ele>187</ele>
        <time>2017-06-26T07:49:38Z</time>
      </trkpt>
      <trkpt lat="45.94645" lon="4.73956">
        <ele>187</ele>
        <time>2017-06-26T07:49:39Z</time>
      </trkpt>
      <trkpt lat="45.94652" lon="4.73964">
        <ele>187</ele>
        <time>2017-06-26T07:49:41Z</time>
      </trkpt>
      <trkpt lat="45.94655" lon="4.73969">
        <ele>187</ele>
        <time>2017-06-26T07:49:42Z</time>
      </trkpt>
      <trkpt lat="45.94658" lon="4.73973">
        <ele>187</ele>
        <time>2017-06-26T07:49:43Z</time>
      </trkpt>
      <trkpt lat="45.94662" lon="4.73978">
        <ele>187</ele>
        <time>2017-06-26T07:49:44Z</time>
      </trkpt>
      <trkpt lat="45.94665" lon="4.73983">
        <ele>187</ele>
        <time>2017-06-26T07:49:45Z</time>
      </trkpt>
      <trkpt lat="45.94669" lon="4.73988">
        <ele>187</ele>
        <time>2017-06-26T07:49:46Z</time>
      </trkpt>
      <trkpt lat="45.94673" lon="4.73994">
        <ele>187</ele>
        <time>2017-06-26T07:49:47Z</time>
      </trkpt>
      <trkpt lat="45.94676" lon="4.73999">
        <ele>187</ele>
        <time>2017-06-26T07:49:48Z</time>
      </trkpt>
      <trkpt lat="45.9468" lon="4.74004">
        <ele>187</ele>
        <time>2017-06-26T07:49:49Z</time>
      </trkpt>
      <trkpt lat="45.94684" lon="4.7401">
        <ele>187</ele>
        <time>2017-06-26T07:49:50Z</time>
      </trkpt>
      <trkpt lat="45.94688" lon="4.74015">
        <ele>187</ele>
        <time>2017-06-26T07:49:51Z</time>
      </trkpt>
      <trkpt lat="45.94692" lon="4.7402">
        <ele>187</ele>
        <time>2017-06-26T07:49:52Z</time>
      </trkpt>
      <trkpt lat="45.94695" lon="4.74025">
        <ele>187</ele>
        <time>2017-06-26T07:49:53Z</time>
      </trkpt>
      <trkpt lat="45.94699" lon="4.7403">
        <ele>187</ele>
        <time>2017-06-26T07:49:54Z</time>
      </trkpt>
      <trkpt lat="45.94705" lon="4.74037">
        <ele>187</ele>
        <time>2017-06-26T07:49:56Z</time>
      </trkpt>
      <trkpt lat="45.94708" lon="4.74041">
        <ele>187</ele>
        <time>2017-06-26T07:49:57Z</time>
      </trkpt>
      <trkpt lat="45.94714" lon="4.7405">
        <ele>187</ele>
        <time>2017-06-26T07:49:59Z</time>
      </trkpt>
      <trkpt lat="45.94718" lon="4.74054">
        <ele>187</ele>
        <time>2017-06-26T07:50:00Z</time>
      </trkpt>
      <trkpt lat="45.94721" lon="4.74058">
        <ele>187</ele>
        <time>2017-06-26T07:50:01Z</time>
      </trkpt>
      <trkpt lat="45.94724" lon="4.74063">
        <ele>188</ele>
        <time>2017-06-26T07:50:02Z</time>
      </trkpt>
      <trkpt lat="45.94731" lon="4.74072">
        <ele>188</ele>
        <time>2017-06-26T07:50:04Z</time>
      </trkpt>
      <trkpt lat="45.94734" lon="4.74076">
        <ele>188</ele>
        <time>2017-06-26T07:50:05Z</time>
      </trkpt>
      <trkpt lat="45.94738" lon="4.7408">
        <ele>188</ele>
        <time>2017-06-26T07:50:06Z</time>
      </trkpt>
      <trkpt lat="45.94741" lon="4.74085">
        <ele>188</ele>
        <time>2017-06-26T07:50:07Z</time>
      </trkpt>
      <trkpt lat="45.94745" lon="4.7409">
        <ele>188</ele>
        <time>2017-06-26T07:50:08Z</time>
      </trkpt>
      <trkpt lat="45.94749" lon="4.74094">
        <ele>188</ele>
        <time>2017-06-26T07:50:09Z</time>
      </trkpt>
      <trkpt lat="45.94752" lon="4.74099">
        <ele>189</ele>
        <time>2017-06-26T07:50:10Z</time>
      </trkpt>
      <trkpt lat="45.94755" lon="4.74104">
        <ele>189</ele>
        <time>2017-06-26T07:50:11Z</time>
      </trkpt>
      <trkpt lat="45.94762" lon="4.74111">
        <ele>189</ele>
        <time>2017-06-26T07:50:13Z</time>
      </trkpt>
      <trkpt lat="45.94764" lon="4.74115">
        <ele>189</ele>
        <time>2017-06-26T07:50:14Z</time>
      </trkpt>
      <trkpt lat="45.9477" lon="4.74123">
        <ele>189</ele>
        <time>2017-06-26T07:50:16Z</time>
      </trkpt>
      <trkpt lat="45.94773" lon="4.74128">
        <ele>189</ele>
        <time>2017-06-26T07:50:17Z</time>
      </trkpt>
      <trkpt lat="45.94779" lon="4.74137">
        <ele>189</ele>
        <time>2017-06-26T07:50:19Z</time>
      </trkpt>
      <trkpt lat="45.94783" lon="4.74141">
        <ele>189</ele>
        <time>2017-06-26T07:50:20Z</time>
      </trkpt>
      <trkpt lat="45.94786" lon="4.74146">
        <ele>189</ele>
        <time>2017-06-26T07:50:21Z</time>
      </trkpt>
      <trkpt lat="45.94789" lon="4.74151">
        <ele>189</ele>
        <time>2017-06-26T07:50:22Z</time>
      </trkpt>
      <trkpt lat="45.94792" lon="4.74156">
        <ele>189</ele>
        <time>2017-06-26T07:50:23Z</time>
      </trkpt>
      <trkpt lat="45.94795" lon="4.74161">
        <ele>189</ele>
        <time>2017-06-26T07:50:24Z</time>
      </trkpt>
      <trkpt lat="45.94798" lon="4.74166">
        <ele>189</ele>
        <time>2017-06-26T07:50:25Z</time>
      </trkpt>
      <trkpt lat="45.94802" lon="4.74171">
        <ele>189</ele>
        <time>2017-06-26T07:50:26Z</time>
      </trkpt>
      <trkpt lat="45.94805" lon="4.74177">
        <ele>189</ele>
        <time>2017-06-26T07:50:27Z</time>
      </trkpt>
      <trkpt lat="45.94808" lon="4.74182">
        <ele>189</ele>
        <time>2017-06-26T07:50:28Z</time>
      </trkpt>
      <trkpt lat="45.94812" lon="4.74187">
        <ele>189</ele>
        <time>2017-06-26T07:50:29Z</time>
      </trkpt>
      <trkpt lat="45.94814" lon="4.74193">
        <ele>189</ele>
        <time>2017-06-26T07:50:30Z</time>
      </trkpt>
      <trkpt lat="45.9482" lon="4.74202">
        <ele>189</ele>
        <time>2017-06-26T07:50:32Z</time>
      </trkpt>
      <trkpt lat="45.94822" lon="4.74208">
        <ele>188</ele>
        <time>2017-06-26T07:50:33Z</time>
      </trkpt>
      <trkpt lat="45.94825" lon="4.74213">
        <ele>188</ele>
        <time>2017-06-26T07:50:34Z</time>
      </trkpt>
      <trkpt lat="45.94828" lon="4.74218">
        <ele>188</ele>
        <time>2017-06-26T07:50:35Z</time>
      </trkpt>
      <trkpt lat="45.94831" lon="4.74225">
        <ele>188</ele>
        <time>2017-06-26T07:50:36Z</time>
      </trkpt>
      <trkpt lat="45.94834" lon="4.74231">
        <ele>190</ele>
        <time>2017-06-26T07:50:37Z</time>
      </trkpt>
      <trkpt lat="45.94837" lon="4.74237">
        <ele>190</ele>
        <time>2017-06-26T07:50:38Z</time>
      </trkpt>
      <trkpt lat="45.9484" lon="4.74243">
        <ele>189</ele>
        <time>2017-06-26T07:50:39Z</time>
      </trkpt>
      <trkpt lat="45.94843" lon="4.74249">
        <ele>189</ele>
        <time>2017-06-26T07:50:40Z</time>
      </trkpt>
      <trkpt lat="45.94847" lon="4.74256">
        <ele>190</ele>
        <time>2017-06-26T07:50:41Z</time>
      </trkpt>
      <trkpt lat="45.9485" lon="4.74262">
        <ele>190</ele>
        <time>2017-06-26T07:50:42Z</time>
      </trkpt>
      <trkpt lat="45.94854" lon="4.74269">
        <ele>190</ele>
        <time>2017-06-26T07:50:43Z</time>
      </trkpt>
      <trkpt lat="45.94857" lon="4.74274">
        <ele>190</ele>
        <time>2017-06-26T07:50:44Z</time>
      </trkpt>
      <trkpt lat="45.9486" lon="4.7428">
        <ele>190</ele>
        <time>2017-06-26T07:50:45Z</time>
      </trkpt>
      <trkpt lat="45.94863" lon="4.74285">
        <ele>191</ele>
        <time>2017-06-26T07:50:46Z</time>
      </trkpt>
      <trkpt lat="45.94866" lon="4.74291">
        <ele>191</ele>
        <time>2017-06-26T07:50:47Z</time>
      </trkpt>
      <trkpt lat="45.94868" lon="4.74297">
        <ele>191</ele>
        <time>2017-06-26T07:50:48Z</time>
      </trkpt>
      <trkpt lat="45.94871" lon="4.74303">
        <ele>191</ele>
        <time>2017-06-26T07:50:49Z</time>
      </trkpt>
      <trkpt lat="45.94875" lon="4.74309">
        <ele>191</ele>
        <time>2017-06-26T07:50:50Z</time>
      </trkpt>
      <trkpt lat="45.94878" lon="4.74317">
        <ele>191</ele>
        <time>2017-06-26T07:50:51Z</time>
      </trkpt>
      <trkpt lat="45.94881" lon="4.74323">
        <ele>191</ele>
        <time>2017-06-26T07:50:52Z</time>
      </trkpt>
      <trkpt lat="45.94884" lon="4.74329">
        <ele>191</ele>
        <time>2017-06-26T07:50:53Z</time>
      </trkpt>
      <trkpt lat="45.94887" lon="4.74336">
        <ele>191</ele>
        <time>2017-06-26T07:50:54Z</time>
      </trkpt>
      <trkpt lat="45.9489" lon="4.74342">
        <ele>191</ele>
        <time>2017-06-26T07:50:55Z</time>
      </trkpt>
      <trkpt lat="45.94894" lon="4.74348">
        <ele>191</ele>
        <time>2017-06-26T07:50:56Z</time>
      </trkpt>
      <trkpt lat="45.94897" lon="4.74354">
        <ele>191</ele>
        <time>2017-06-26T07:50:57Z</time>
      </trkpt>
      <trkpt lat="45.94901" lon="4.74361">
        <ele>191</ele>
        <time>2017-06-26T07:50:58Z</time>
      </trkpt>
      <trkpt lat="45.94904" lon="4.74368">
        <ele>191</ele>
        <time>2017-06-26T07:50:59Z</time>
      </trkpt>
      <trkpt lat="45.94908" lon="4.74374">
        <ele>191</ele>
        <time>2017-06-26T07:51:00Z</time>
      </trkpt>
      <trkpt lat="45.94911" lon="4.7438">
        <ele>191</ele>
        <time>2017-06-26T07:51:01Z</time>
      </trkpt>
      <trkpt lat="45.94914" lon="4.74386">
        <ele>191</ele>
        <time>2017-06-26T07:51:02Z</time>
      </trkpt>
      <trkpt lat="45.94917" lon="4.74391">
        <ele>191</ele>
        <time>2017-06-26T07:51:03Z</time>
      </trkpt>
      <trkpt lat="45.94919" lon="4.74397">
        <ele>192</ele>
        <time>2017-06-26T07:51:04Z</time>
      </trkpt>
      <trkpt lat="45.94922" lon="4.74402">
        <ele>192</ele>
        <time>2017-06-26T07:51:05Z</time>
      </trkpt>
      <trkpt lat="45.94925" lon="4.74408">
        <ele>192</ele>
        <time>2017-06-26T07:51:06Z</time>
      </trkpt>
      <trkpt lat="45.94928" lon="4.74413">
        <ele>192</ele>
        <time>2017-06-26T07:51:07Z</time>
      </trkpt>
      <trkpt lat="45.94931" lon="4.74419">
        <ele>192</ele>
        <time>2017-06-26T07:51:08Z</time>
      </trkpt>
      <trkpt lat="45.94934" lon="4.74424">
        <ele>192</ele>
        <time>2017-06-26T07:51:09Z</time>
      </trkpt>
      <trkpt lat="45.94938" lon="4.74433">
        <ele>192</ele>
        <time>2017-06-26T07:51:11Z</time>
      </trkpt>
      <trkpt lat="45.9494" lon="4.74438">
        <ele>192</ele>
        <time>2017-06-26T07:51:12Z</time>
      </trkpt>
      <trkpt lat="45.94945" lon="4.74447">
        <ele>192</ele>
        <time>2017-06-26T07:51:14Z</time>
      </trkpt>
      <trkpt lat="45.94948" lon="4.74451">
        <ele>192</ele>
        <time>2017-06-26T07:51:15Z</time>
      </trkpt>
      <trkpt lat="45.94952" lon="4.7446">
        <ele>193</ele>
        <time>2017-06-26T07:51:17Z</time>
      </trkpt>
      <trkpt lat="45.94955" lon="4.74465">
        <ele>193</ele>
        <time>2017-06-26T07:51:18Z</time>
      </trkpt>
      <trkpt lat="45.94957" lon="4.7447">
        <ele>193</ele>
        <time>2017-06-26T07:51:19Z</time>
      </trkpt>
      <trkpt lat="45.9496" lon="4.74475">
        <ele>193</ele>
        <time>2017-06-26T07:51:20Z</time>
      </trkpt>
      <trkpt lat="45.94963" lon="4.74481">
        <ele>193</ele>
        <time>2017-06-26T07:51:21Z</time>
      </trkpt>
      <trkpt lat="45.94966" lon="4.74488">
        <ele>193</ele>
        <time>2017-06-26T07:51:22Z</time>
      </trkpt>
      <trkpt lat="45.94969" lon="4.74494">
        <ele>193</ele>
        <time>2017-06-26T07:51:23Z</time>
      </trkpt>
      <trkpt lat="45.94973" lon="4.745">
        <ele>193</ele>
        <time>2017-06-26T07:51:24Z</time>
      </trkpt>
      <trkpt lat="45.94976" lon="4.74506">
        <ele>193</ele>
        <time>2017-06-26T07:51:25Z</time>
      </trkpt>
      <trkpt lat="45.94979" lon="4.74512">
        <ele>193</ele>
        <time>2017-06-26T07:51:26Z</time>
      </trkpt>
      <trkpt lat="45.94982" lon="4.74519">
        <ele>193</ele>
        <time>2017-06-26T07:51:27Z</time>
      </trkpt>
      <trkpt lat="45.94985" lon="4.74525">
        <ele>193</ele>
        <time>2017-06-26T07:51:28Z</time>
      </trkpt>
      <trkpt lat="45.94988" lon="4.74531">
        <ele>193</ele>
        <time>2017-06-26T07:51:29Z</time>
      </trkpt>
      <trkpt lat="45.94992" lon="4.74537">
        <ele>193</ele>
        <time>2017-06-26T07:51:30Z</time>
      </trkpt>
      <trkpt lat="45.94995" lon="4.74544">
        <ele>193</ele>
        <time>2017-06-26T07:51:31Z</time>
      </trkpt>
      <trkpt lat="45.94998" lon="4.74549">
        <ele>193</ele>
        <time>2017-06-26T07:51:32Z</time>
      </trkpt>
      <trkpt lat="45.95002" lon="4.74555">
        <ele>194</ele>
        <time>2017-06-26T07:51:33Z</time>
      </trkpt>
      <trkpt lat="45.95005" lon="4.74561">
        <ele>194</ele>
        <time>2017-06-26T07:51:34Z</time>
      </trkpt>
      <trkpt lat="45.95008" lon="4.74567">
        <ele>194</ele>
        <time>2017-06-26T07:51:35Z</time>
      </trkpt>
      <trkpt lat="45.9501" lon="4.74573">
        <ele>194</ele>
        <time>2017-06-26T07:51:36Z</time>
      </trkpt>
      <trkpt lat="45.95013" lon="4.74578">
        <ele>194</ele>
        <time>2017-06-26T07:51:37Z</time>
      </trkpt>
      <trkpt lat="45.95016" lon="4.74584">
        <ele>194</ele>
        <time>2017-06-26T07:51:38Z</time>
      </trkpt>
      <trkpt lat="45.95019" lon="4.7459">
        <ele>194</ele>
        <time>2017-06-26T07:51:39Z</time>
      </trkpt>
      <trkpt lat="45.95022" lon="4.74596">
        <ele>194</ele>
        <time>2017-06-26T07:51:40Z</time>
      </trkpt>
      <trkpt lat="45.95026" lon="4.74602">
        <ele>194</ele>
        <time>2017-06-26T07:51:41Z</time>
      </trkpt>
      <trkpt lat="45.95029" lon="4.74608">
        <ele>194</ele>
        <time>2017-06-26T07:51:42Z</time>
      </trkpt>
      <trkpt lat="45.95033" lon="4.74615">
        <ele>194</ele>
        <time>2017-06-26T07:51:43Z</time>
      </trkpt>
      <trkpt lat="45.95036" lon="4.74621">
        <ele>194</ele>
        <time>2017-06-26T07:51:44Z</time>
      </trkpt>
      <trkpt lat="45.95039" lon="4.74627">
        <ele>194</ele>
        <time>2017-06-26T07:51:45Z</time>
      </trkpt>
      <trkpt lat="45.95042" lon="4.74634">
        <ele>194</ele>
        <time>2017-06-26T07:51:46Z</time>
      </trkpt>
      <trkpt lat="45.95045" lon="4.7464">
        <ele>194</ele>
        <time>2017-06-26T07:51:47Z</time>
      </trkpt>
      <trkpt lat="45.95048" lon="4.74646">
        <ele>194</ele>
        <time>2017-06-26T07:51:48Z</time>
      </trkpt>
      <trkpt lat="45.95051" lon="4.74652">
        <ele>194</ele>
        <time>2017-06-26T07:51:49Z</time>
      </trkpt>
      <trkpt lat="45.95054" lon="4.74657">
        <ele>194</ele>
        <time>2017-06-26T07:51:50Z</time>
      </trkpt>
      <trkpt lat="45.95057" lon="4.74663">
        <ele>194</ele>
        <time>2017-06-26T07:51:51Z</time>
      </trkpt>
      <trkpt lat="45.95061" lon="4.74669">
        <ele>194</ele>
        <time>2017-06-26T07:51:52Z</time>
      </trkpt>
      <trkpt lat="45.95065" lon="4.74674">
        <ele>194</ele>
        <time>2017-06-26T07:51:53Z</time>
      </trkpt>
      <trkpt lat="45.95068" lon="4.7468">
        <ele>194</ele>
        <time>2017-06-26T07:51:54Z</time>
      </trkpt>
      <trkpt lat="45.95072" lon="4.74685">
        <ele>194</ele>
        <time>2017-06-26T07:51:55Z</time>
      </trkpt>
      <trkpt lat="45.95075" lon="4.74691">
        <ele>194</ele>
        <time>2017-06-26T07:51:56Z</time>
      </trkpt>
      <trkpt lat="45.95079" lon="4.74696">
        <ele>194</ele>
        <time>2017-06-26T07:51:57Z</time>
      </trkpt>
      <trkpt lat="45.95082" lon="4.74702">
        <ele>194</ele>
        <time>2017-06-26T07:51:58Z</time>
      </trkpt>
      <trkpt lat="45.95086" lon="4.74708">
        <ele>194</ele>
        <time>2017-06-26T07:51:59Z</time>
      </trkpt>
      <trkpt lat="45.95089" lon="4.74714">
        <ele>194</ele>
        <time>2017-06-26T07:52:00Z</time>
      </trkpt>
      <trkpt lat="45.95092" lon="4.74719">
        <ele>194</ele>
        <time>2017-06-26T07:52:01Z</time>
      </trkpt>
      <trkpt lat="45.95095" lon="4.74725">
        <ele>194</ele>
        <time>2017-06-26T07:52:02Z</time>
      </trkpt>
      <trkpt lat="45.95099" lon="4.7473">
        <ele>194</ele>
        <time>2017-06-26T07:52:03Z</time>
      </trkpt>
      <trkpt lat="45.95102" lon="4.74735">
        <ele>194</ele>
        <time>2017-06-26T07:52:04Z</time>
      </trkpt>
      <trkpt lat="45.95105" lon="4.7474">
        <ele>194</ele>
        <time>2017-06-26T07:52:05Z</time>
      </trkpt>
      <trkpt lat="45.95109" lon="4.74746">
        <ele>194</ele>
        <time>2017-06-26T07:52:06Z</time>
      </trkpt>
      <trkpt lat="45.95112" lon="4.74751">
        <ele>194</ele>
        <time>2017-06-26T07:52:07Z</time>
      </trkpt>
      <trkpt lat="45.95116" lon="4.74757">
        <ele>194</ele>
        <time>2017-06-26T07:52:08Z</time>
      </trkpt>
      <trkpt lat="45.95119" lon="4.74763">
        <ele>194</ele>
        <time>2017-06-26T07:52:09Z</time>
      </trkpt>
      <trkpt lat="45.95123" lon="4.74769">
        <ele>194</ele>
        <time>2017-06-26T07:52:10Z</time>
      </trkpt>
      <trkpt lat="45.95126" lon="4.74775">
        <ele>194</ele>
        <time>2017-06-26T07:52:11Z</time>
      </trkpt>
      <trkpt lat="45.9513" lon="4.74781">
        <ele>194</ele>
        <time>2017-06-26T07:52:12Z</time>
      </trkpt>
      <trkpt lat="45.95133" lon="4.74786">
        <ele>194</ele>
        <time>2017-06-26T07:52:13Z</time>
      </trkpt>
      <trkpt lat="45.95137" lon="4.74792">
        <ele>194</ele>
        <time>2017-06-26T07:52:14Z</time>
      </trkpt>
      <trkpt lat="45.9514" lon="4.74797">
        <ele>194</ele>
        <time>2017-06-26T07:52:15Z</time>
      </trkpt>
      <trkpt lat="45.95143" lon="4.74802">
        <ele>194</ele>
        <time>2017-06-26T07:52:16Z</time>
      </trkpt>
      <trkpt lat="45.95146" lon="4.74807">
        <ele>194</ele>
        <time>2017-06-26T07:52:17Z</time>
      </trkpt>
      <trkpt lat="45.9515" lon="4.74812">
        <ele>194</ele>
        <time>2017-06-26T07:52:18Z</time>
      </trkpt>
      <trkpt lat="45.95153" lon="4.74818">
        <ele>194</ele>
        <time>2017-06-26T07:52:19Z</time>
      </trkpt>
      <trkpt lat="45.95156" lon="4.74824">
        <ele>194</ele>
        <time>2017-06-26T07:52:20Z</time>
      </trkpt>
      <trkpt lat="45.95159" lon="4.7483">
        <ele>194</ele>
        <time>2017-06-26T07:52:21Z</time>
      </trkpt>
      <trkpt lat="45.95163" lon="4.74836">
        <ele>194</ele>
        <time>2017-06-26T07:52:22Z</time>
      </trkpt>
      <trkpt lat="45.95166" lon="4.74842">
        <ele>194</ele>
        <time>2017-06-26T07:52:23Z</time>
      </trkpt>
      <trkpt lat="45.9517" lon="4.74849">
        <ele>194</ele>
        <time>2017-06-26T07:52:24Z</time>
      </trkpt>
      <trkpt lat="45.95173" lon="4.74854">
        <ele>194</ele>
        <time>2017-06-26T07:52:25Z</time>
      </trkpt>
      <trkpt lat="45.95177" lon="4.74859">
        <ele>194</ele>
        <time>2017-06-26T07:52:26Z</time>
      </trkpt>
      <trkpt lat="45.9518" lon="4.74863">
        <ele>194</ele>
        <time>2017-06-26T07:52:27Z</time>
      </trkpt>
      <trkpt lat="45.95183" lon="4.74868">
        <ele>194</ele>
        <time>2017-06-26T07:52:28Z</time>
      </trkpt>
      <trkpt lat="45.95186" lon="4.74873">
        <ele>194</ele>
        <time>2017-06-26T07:52:29Z</time>
      </trkpt>
      <trkpt lat="45.95189" lon="4.74878">
        <ele>194</ele>
        <time>2017-06-26T07:52:30Z</time>
      </trkpt>
      <trkpt lat="45.95193" lon="4.74884">
        <ele>194</ele>
        <time>2017-06-26T07:52:31Z</time>
      </trkpt>
      <trkpt lat="45.95196" lon="4.7489">
        <ele>194</ele>
        <time>2017-06-26T07:52:32Z</time>
      </trkpt>
      <trkpt lat="45.95199" lon="4.74895">
        <ele>194</ele>
        <time>2017-06-26T07:52:33Z</time>
      </trkpt>
      <trkpt lat="45.95203" lon="4.749">
        <ele>194</ele>
        <time>2017-06-26T07:52:34Z</time>
      </trkpt>
      <trkpt lat="45.95207" lon="4.74906">
        <ele>194</ele>
        <time>2017-06-26T07:52:35Z</time>
      </trkpt>
      <trkpt lat="45.95211" lon="4.74912">
        <ele>193</ele>
        <time>2017-06-26T07:52:36Z</time>
      </trkpt>
      <trkpt lat="45.95214" lon="4.74918">
        <ele>192</ele>
        <time>2017-06-26T07:52:37Z</time>
      </trkpt>
      <trkpt lat="45.95217" lon="4.74923">
        <ele>192</ele>
        <time>2017-06-26T07:52:38Z</time>
      </trkpt>
      <trkpt lat="45.95221" lon="4.74929">
        <ele>192</ele>
        <time>2017-06-26T07:52:39Z</time>
      </trkpt>
      <trkpt lat="45.95224" lon="4.74935">
        <ele>192</ele>
        <time>2017-06-26T07:52:40Z</time>
      </trkpt>
      <trkpt lat="45.95227" lon="4.7494">
        <ele>192</ele>
        <time>2017-06-26T07:52:41Z</time>
      </trkpt>
      <trkpt lat="45.95231" lon="4.74946">
        <ele>192</ele>
        <time>2017-06-26T07:52:42Z</time>
      </trkpt>
      <trkpt lat="45.95235" lon="4.74951">
        <ele>192</ele>
        <time>2017-06-26T07:52:43Z</time>
      </trkpt>
      <trkpt lat="45.95238" lon="4.74956">
        <ele>192</ele>
        <time>2017-06-26T07:52:44Z</time>
      </trkpt>
      <trkpt lat="45.95242" lon="4.74962">
        <ele>191</ele>
        <time>2017-06-26T07:52:45Z</time>
      </trkpt>
      <trkpt lat="45.95245" lon="4.74966">
        <ele>191</ele>
        <time>2017-06-26T07:52:46Z</time>
      </trkpt>
      <trkpt lat="45.95249" lon="4.74971">
        <ele>191</ele>
        <time>2017-06-26T07:52:47Z</time>
      </trkpt>
      <trkpt lat="45.95252" lon="4.74977">
        <ele>192</ele>
        <time>2017-06-26T07:52:48Z</time>
      </trkpt>
      <trkpt lat="45.95256" lon="4.74982">
        <ele>192</ele>
        <time>2017-06-26T07:52:49Z</time>
      </trkpt>
      <trkpt lat="45.9526" lon="4.74988">
        <ele>192</ele>
        <time>2017-06-26T07:52:50Z</time>
      </trkpt>
      <trkpt lat="45.95263" lon="4.74994">
        <ele>192</ele>
        <time>2017-06-26T07:52:51Z</time>
      </trkpt>
      <trkpt lat="45.95266" lon="4.75">
        <ele>192</ele>
        <time>2017-06-26T07:52:52Z</time>
      </trkpt>
      <trkpt lat="45.9527" lon="4.75006">
        <ele>191</ele>
        <time>2017-06-26T07:52:53Z</time>
      </trkpt>
      <trkpt lat="45.95274" lon="4.75013">
        <ele>191</ele>
        <time>2017-06-26T07:52:54Z</time>
      </trkpt>
      <trkpt lat="45.95277" lon="4.75019">
        <ele>191</ele>
        <time>2017-06-26T07:52:55Z</time>
      </trkpt>
      <trkpt lat="45.95281" lon="4.75025">
        <ele>191</ele>
        <time>2017-06-26T07:52:56Z</time>
      </trkpt>
      <trkpt lat="45.95284" lon="4.75031">
        <ele>191</ele>
        <time>2017-06-26T07:52:57Z</time>
      </trkpt>
      <trkpt lat="45.95288" lon="4.75037">
        <ele>191</ele>
        <time>2017-06-26T07:52:58Z</time>
      </trkpt>
      <trkpt lat="45.95292" lon="4.75043">
        <ele>191</ele>
        <time>2017-06-26T07:52:59Z</time>
      </trkpt>
      <trkpt lat="45.95296" lon="4.75048">
        <ele>191</ele>
        <time>2017-06-26T07:53:00Z</time>
      </trkpt>
      <trkpt lat="45.95299" lon="4.75054">
        <ele>191</ele>
        <time>2017-06-26T07:53:01Z</time>
      </trkpt>
      <trkpt lat="45.95303" lon="4.7506">
        <ele>191</ele>
        <time>2017-06-26T07:53:02Z</time>
      </trkpt>
      <trkpt lat="45.95307" lon="4.75066">
        <ele>192</ele>
        <time>2017-06-26T07:53:03Z</time>
      </trkpt>
      <trkpt lat="45.95311" lon="4.75072">
        <ele>192</ele>
        <time>2017-06-26T07:53:04Z</time>
      </trkpt>
      <trkpt lat="45.95315" lon="4.75078">
        <ele>192</ele>
        <time>2017-06-26T07:53:05Z</time>
      </trkpt>
      <trkpt lat="45.95319" lon="4.75084">
        <ele>191</ele>
        <time>2017-06-26T07:53:06Z</time>
      </trkpt>
      <trkpt lat="45.95323" lon="4.7509">
        <ele>191</ele>
        <time>2017-06-26T07:53:07Z</time>
      </trkpt>
      <trkpt lat="45.95327" lon="4.75096">
        <ele>191</ele>
        <time>2017-06-26T07:53:08Z</time>
      </trkpt>
      <trkpt lat="45.95331" lon="4.75101">
        <ele>190</ele>
        <time>2017-06-26T07:53:09Z</time>
      </trkpt>
      <trkpt lat="45.95335" lon="4.75106">
        <ele>192</ele>
        <time>2017-06-26T07:53:10Z</time>
      </trkpt>
      <trkpt lat="45.95338" lon="4.75112">
        <ele>192</ele>
        <time>2017-06-26T07:53:11Z</time>
      </trkpt>
      <trkpt lat="45.95342" lon="4.75117">
        <ele>191</ele>
        <time>2017-06-26T07:53:12Z</time>
      </trkpt>
      <trkpt lat="45.95345" lon="4.75123">
        <ele>191</ele>
        <time>2017-06-26T07:53:13Z</time>
      </trkpt>
      <trkpt lat="45.95349" lon="4.75129">
        <ele>191</ele>
        <time>2017-06-26T07:53:14Z</time>
      </trkpt>
      <trkpt lat="45.95353" lon="4.75135">
        <ele>191</ele>
        <time>2017-06-26T07:53:15Z</time>
      </trkpt>
      <trkpt lat="45.95357" lon="4.75141">
        <ele>191</ele>
        <time>2017-06-26T07:53:16Z</time>
      </trkpt>
      <trkpt lat="45.95361" lon="4.75147">
        <ele>191</ele>
        <time>2017-06-26T07:53:17Z</time>
      </trkpt>
      <trkpt lat="45.95365" lon="4.75154">
        <ele>191</ele>
        <time>2017-06-26T07:53:18Z</time>
      </trkpt>
      <trkpt lat="45.95369" lon="4.7516">
        <ele>191</ele>
        <time>2017-06-26T07:53:19Z</time>
      </trkpt>
      <trkpt lat="45.95373" lon="4.75167">
        <ele>189</ele>
        <time>2017-06-26T07:53:20Z</time>
      </trkpt>
      <trkpt lat="45.95377" lon="4.75173">
        <ele>189</ele>
        <time>2017-06-26T07:53:21Z</time>
      </trkpt>
      <trkpt lat="45.95381" lon="4.7518">
        <ele>189</ele>
        <time>2017-06-26T07:53:22Z</time>
      </trkpt>
      <trkpt lat="45.95385" lon="4.75187">
        <ele>189</ele>
        <time>2017-06-26T07:53:23Z</time>
      </trkpt>
      <trkpt lat="45.95389" lon="4.75193">
        <ele>189</ele>
        <time>2017-06-26T07:53:24Z</time>
      </trkpt>
      <trkpt lat="45.95393" lon="4.752">
        <ele>189</ele>
        <time>2017-06-26T07:53:25Z</time>
      </trkpt>
      <trkpt lat="45.95397" lon="4.75207">
        <ele>189</ele>
        <time>2017-06-26T07:53:26Z</time>
      </trkpt>
      <trkpt lat="45.95401" lon="4.75215">
        <ele>188</ele>
        <time>2017-06-26T07:53:27Z</time>
      </trkpt>
      <trkpt lat="45.95405" lon="4.75222">
        <ele>188</ele>
        <time>2017-06-26T07:53:28Z</time>
      </trkpt>
      <trkpt lat="45.95409" lon="4.75229">
        <ele>188</ele>
        <time>2017-06-26T07:53:29Z</time>
      </trkpt>
      <trkpt lat="45.95413" lon="4.75235">
        <ele>189</ele>
        <time>2017-06-26T07:53:30Z</time>
      </trkpt>
      <trkpt lat="45.95417" lon="4.75241">
        <ele>190</ele>
        <time>2017-06-26T07:53:31Z</time>
      </trkpt>
      <trkpt lat="45.95421" lon="4.75248">
        <ele>190</ele>
        <time>2017-06-26T07:53:32Z</time>
      </trkpt>
      <trkpt lat="45.95425" lon="4.75255">
        <ele>189</ele>
        <time>2017-06-26T07:53:33Z</time>
      </trkpt>
      <trkpt lat="45.95429" lon="4.75262">
        <ele>189</ele>
        <time>2017-06-26T07:53:34Z</time>
      </trkpt>
      <trkpt lat="45.95433" lon="4.7527">
        <ele>189</ele>
        <time>2017-06-26T07:53:35Z</time>
      </trkpt>
      <trkpt lat="45.95436" lon="4.75277">
        <ele>188</ele>
        <time>2017-06-26T07:53:36Z</time>
      </trkpt>
      <trkpt lat="45.95441" lon="4.75284">
        <ele>188</ele>
        <time>2017-06-26T07:53:37Z</time>
      </trkpt>
      <trkpt lat="45.95445" lon="4.75292">
        <ele>188</ele>
        <time>2017-06-26T07:53:38Z</time>
      </trkpt>
      <trkpt lat="45.95449" lon="4.75299">
        <ele>188</ele>
        <time>2017-06-26T07:53:39Z</time>
      </trkpt>
      <trkpt lat="45.95453" lon="4.75306">
        <ele>188</ele>
        <time>2017-06-26T07:53:40Z</time>
      </trkpt>
      <trkpt lat="45.95457" lon="4.75314">
        <ele>188</ele>
        <time>2017-06-26T07:53:41Z</time>
      </trkpt>
      <trkpt lat="45.95462" lon="4.75321">
        <ele>188</ele>
        <time>2017-06-26T07:53:42Z</time>
      </trkpt>
      <trkpt lat="45.95466" lon="4.75329">
        <ele>188</ele>
        <time>2017-06-26T07:53:43Z</time>
      </trkpt>
      <trkpt lat="45.9547" lon="4.75337">
        <ele>186</ele>
        <time>2017-06-26T07:53:44Z</time>
      </trkpt>
      <trkpt lat="45.95474" lon="4.75345">
        <ele>186</ele>
        <time>2017-06-26T07:53:45Z</time>
      </trkpt>
      <trkpt lat="45.95478" lon="4.75352">
        <ele>186</ele>
        <time>2017-06-26T07:53:46Z</time>
      </trkpt>
      <trkpt lat="45.95483" lon="4.7536">
        <ele>186</ele>
        <time>2017-06-26T07:53:47Z</time>
      </trkpt>
      <trkpt lat="45.95486" lon="4.75368">
        <ele>185</ele>
        <time>2017-06-26T07:53:48Z</time>
      </trkpt>
      <trkpt lat="45.9549" lon="4.75376">
        <ele>185</ele>
        <time>2017-06-26T07:53:49Z</time>
      </trkpt>
      <trkpt lat="45.95494" lon="4.75384">
        <ele>185</ele>
        <time>2017-06-26T07:53:50Z</time>
      </trkpt>
      <trkpt lat="45.95497" lon="4.75393">
        <ele>185</ele>
        <time>2017-06-26T07:53:51Z</time>
      </trkpt>
      <trkpt lat="45.95499" lon="4.75403">
        <ele>185</ele>
        <time>2017-06-26T07:53:52Z</time>
      </trkpt>
      <trkpt lat="45.95502" lon="4.75412">
        <ele>186</ele>
        <time>2017-06-26T07:53:53Z</time>
      </trkpt>
      <trkpt lat="45.95504" lon="4.75422">
        <ele>186</ele>
        <time>2017-06-26T07:53:54Z</time>
      </trkpt>
      <trkpt lat="45.95506" lon="4.75432">
        <ele>186</ele>
        <time>2017-06-26T07:53:55Z</time>
      </trkpt>
      <trkpt lat="45.95507" lon="4.75442">
        <ele>186</ele>
        <time>2017-06-26T07:53:56Z</time>
      </trkpt>
      <trkpt lat="45.95508" lon="4.75453">
        <ele>187</ele>
        <time>2017-06-26T07:53:57Z</time>
      </trkpt>
      <trkpt lat="45.95507" lon="4.75464">
        <ele>186</ele>
        <time>2017-06-26T07:53:58Z</time>
      </trkpt>
      <trkpt lat="45.95506" lon="4.75474">
        <ele>186</ele>
        <time>2017-06-26T07:53:59Z</time>
      </trkpt>
      <trkpt lat="45.95507" lon="4.75484">
        <ele>186</ele>
        <time>2017-06-26T07:54:00Z</time>
      </trkpt>
      <trkpt lat="45.95509" lon="4.75492">
        <ele>185</ele>
        <time>2017-06-26T07:54:01Z</time>
      </trkpt>
      <trkpt lat="45.95515" lon="4.75498">
        <ele>186</ele>
        <time>2017-06-26T07:54:02Z</time>
      </trkpt>
      <trkpt lat="45.95521" lon="4.75503">
        <ele>185</ele>
        <time>2017-06-26T07:54:03Z</time>
      </trkpt>
      <trkpt lat="45.95527" lon="4.75507">
        <ele>185</ele>
        <time>2017-06-26T07:54:04Z</time>
      </trkpt>
      <trkpt lat="45.95533" lon="4.75513">
        <ele>185</ele>
        <time>2017-06-26T07:54:05Z</time>
      </trkpt>
      <trkpt lat="45.95539" lon="4.75519">
        <ele>186</ele>
        <time>2017-06-26T07:54:06Z</time>
      </trkpt>
      <trkpt lat="45.95545" lon="4.75525">
        <ele>186</ele>
        <time>2017-06-26T07:54:07Z</time>
      </trkpt>
      <trkpt lat="45.95551" lon="4.7553">
        <ele>186</ele>
        <time>2017-06-26T07:54:08Z</time>
      </trkpt>
      <trkpt lat="45.95557" lon="4.75535">
        <ele>186</ele>
        <time>2017-06-26T07:54:09Z</time>
      </trkpt>
      <trkpt lat="45.95563" lon="4.75541">
        <ele>186</ele>
        <time>2017-06-26T07:54:10Z</time>
      </trkpt>
      <trkpt lat="45.95568" lon="4.75546">
        <ele>186</ele>
        <time>2017-06-26T07:54:11Z</time>
      </trkpt>
      <trkpt lat="45.95574" lon="4.75553">
        <ele>186</ele>
        <time>2017-06-26T07:54:12Z</time>
      </trkpt>
      <trkpt lat="45.95579" lon="4.75559">
        <ele>186</ele>
        <time>2017-06-26T07:54:13Z</time>
      </trkpt>
      <trkpt lat="45.95583" lon="4.75565">
        <ele>186</ele>
        <time>2017-06-26T07:54:14Z</time>
      </trkpt>
      <trkpt lat="45.95588" lon="4.75572">
        <ele>187</ele>
        <time>2017-06-26T07:54:15Z</time>
      </trkpt>
      <trkpt lat="45.95591" lon="4.75579">
        <ele>187</ele>
        <time>2017-06-26T07:54:16Z</time>
      </trkpt>
      <trkpt lat="45.95594" lon="4.75586">
        <ele>187</ele>
        <time>2017-06-26T07:54:17Z</time>
      </trkpt>
      <trkpt lat="45.95597" lon="4.75593">
        <ele>187</ele>
        <time>2017-06-26T07:54:18Z</time>
      </trkpt>
      <trkpt lat="45.95599" lon="4.756">
        <ele>187</ele>
        <time>2017-06-26T07:54:19Z</time>
      </trkpt>
      <trkpt lat="45.95602" lon="4.75607">
        <ele>187</ele>
        <time>2017-06-26T07:54:20Z</time>
      </trkpt>
      <trkpt lat="45.95605" lon="4.75613">
        <ele>187</ele>
        <time>2017-06-26T07:54:21Z</time>
      </trkpt>
      <trkpt lat="45.95607" lon="4.7562">
        <ele>188</ele>
        <time>2017-06-26T07:54:22Z</time>
      </trkpt>
      <trkpt lat="45.95609" lon="4.75628">
        <ele>188</ele>
        <time>2017-06-26T07:54:23Z</time>
      </trkpt>
      <trkpt lat="45.95611" lon="4.75635">
        <ele>188</ele>
        <time>2017-06-26T07:54:24Z</time>
      </trkpt>
      <trkpt lat="45.95613" lon="4.75642">
        <ele>188</ele>
        <time>2017-06-26T07:54:25Z</time>
      </trkpt>
      <trkpt lat="45.95614" lon="4.7565">
        <ele>188</ele>
        <time>2017-06-26T07:54:26Z</time>
      </trkpt>
      <trkpt lat="45.95615" lon="4.75657">
        <ele>188</ele>
        <time>2017-06-26T07:54:27Z</time>
      </trkpt>
      <trkpt lat="45.95616" lon="4.75664">
        <ele>188</ele>
        <time>2017-06-26T07:54:28Z</time>
      </trkpt>
      <trkpt lat="45.95617" lon="4.75672">
        <ele>187</ele>
        <time>2017-06-26T07:54:29Z</time>
      </trkpt>
      <trkpt lat="45.95618" lon="4.75679">
        <ele>187</ele>
        <time>2017-06-26T07:54:30Z</time>
      </trkpt>
      <trkpt lat="45.95619" lon="4.75687">
        <ele>187</ele>
        <time>2017-06-26T07:54:31Z</time>
      </trkpt>
      <trkpt lat="45.9562" lon="4.75694">
        <ele>187</ele>
        <time>2017-06-26T07:54:32Z</time>
      </trkpt>
      <trkpt lat="45.95621" lon="4.75701">
        <ele>187</ele>
        <time>2017-06-26T07:54:33Z</time>
      </trkpt>
      <trkpt lat="45.95623" lon="4.75709">
        <ele>187</ele>
        <time>2017-06-26T07:54:34Z</time>
      </trkpt>
      <trkpt lat="45.95624" lon="4.75718">
        <ele>187</ele>
        <time>2017-06-26T07:54:35Z</time>
      </trkpt>
      <trkpt lat="45.95625" lon="4.75726">
        <ele>187</ele>
        <time>2017-06-26T07:54:36Z</time>
      </trkpt>
      <trkpt lat="45.95626" lon="4.75735">
        <ele>187</ele>
        <time>2017-06-26T07:54:37Z</time>
      </trkpt>
      <trkpt lat="45.95627" lon="4.75745">
        <ele>187</ele>
        <time>2017-06-26T07:54:38Z</time>
      </trkpt>
      <trkpt lat="45.95628" lon="4.75754">
        <ele>185</ele>
        <time>2017-06-26T07:54:39Z</time>
      </trkpt>
      <trkpt lat="45.9563" lon="4.75763">
        <ele>185</ele>
        <time>2017-06-26T07:54:40Z</time>
      </trkpt>
      <trkpt lat="45.95632" lon="4.75772">
        <ele>185</ele>
        <time>2017-06-26T07:54:41Z</time>
      </trkpt>
      <trkpt lat="45.95633" lon="4.75781">
        <ele>185</ele>
        <time>2017-06-26T07:54:42Z</time>
      </trkpt>
      <trkpt lat="45.95634" lon="4.75789">
        <ele>185</ele>
        <time>2017-06-26T07:54:43Z</time>
      </trkpt>
      <trkpt lat="45.95636" lon="4.75798">
        <ele>185</ele>
        <time>2017-06-26T07:54:44Z</time>
      </trkpt>
      <trkpt lat="45.95638" lon="4.75807">
        <ele>185</ele>
        <time>2017-06-26T07:54:45Z</time>
      </trkpt>
      <trkpt lat="45.95639" lon="4.75815">
        <ele>185</ele>
        <time>2017-06-26T07:54:46Z</time>
      </trkpt>
      <trkpt lat="45.9564" lon="4.75824">
        <ele>185</ele>
        <time>2017-06-26T07:54:47Z</time>
      </trkpt>
      <trkpt lat="45.95642" lon="4.75832">
        <ele>185</ele>
        <time>2017-06-26T07:54:48Z</time>
      </trkpt>
      <trkpt lat="45.95644" lon="4.7584">
        <ele>184</ele>
        <time>2017-06-26T07:54:49Z</time>
      </trkpt>
      <trkpt lat="45.95646" lon="4.75848">
        <ele>184</ele>
        <time>2017-06-26T07:54:50Z</time>
      </trkpt>
      <trkpt lat="45.95648" lon="4.75856">
        <ele>184</ele>
        <time>2017-06-26T07:54:51Z</time>
      </trkpt>
      <trkpt lat="45.9565" lon="4.75864">
        <ele>184</ele>
        <time>2017-06-26T07:54:52Z</time>
      </trkpt>
      <trkpt lat="45.95652" lon="4.75872">
        <ele>184</ele>
        <time>2017-06-26T07:54:53Z</time>
      </trkpt>
      <trkpt lat="45.95655" lon="4.7588">
        <ele>184</ele>
        <time>2017-06-26T07:54:54Z</time>
      </trkpt>
      <trkpt lat="45.95658" lon="4.75888">
        <ele>184</ele>
        <time>2017-06-26T07:54:55Z</time>
      </trkpt>
      <trkpt lat="45.95661" lon="4.75897">
        <ele>184</ele>
        <time>2017-06-26T07:54:56Z</time>
      </trkpt>
      <trkpt lat="45.95664" lon="4.75905">
        <ele>184</ele>
        <time>2017-06-26T07:54:57Z</time>
      </trkpt>
      <trkpt lat="45.95667" lon="4.75913">
        <ele>184</ele>
        <time>2017-06-26T07:54:58Z</time>
      </trkpt>
      <trkpt lat="45.9567" lon="4.75921">
        <ele>184</ele>
        <time>2017-06-26T07:54:59Z</time>
      </trkpt>
      <trkpt lat="45.95674" lon="4.7593">
        <ele>185</ele>
        <time>2017-06-26T07:55:00Z</time>
      </trkpt>
      <trkpt lat="45.95678" lon="4.75938">
        <ele>185</ele>
        <time>2017-06-26T07:55:01Z</time>
      </trkpt>
      <trkpt lat="45.95682" lon="4.75946">
        <ele>185</ele>
        <time>2017-06-26T07:55:02Z</time>
      </trkpt>
      <trkpt lat="45.95685" lon="4.75953">
        <ele>185</ele>
        <time>2017-06-26T07:55:03Z</time>
      </trkpt>
      <trkpt lat="45.95689" lon="4.75961">
        <ele>185</ele>
        <time>2017-06-26T07:55:04Z</time>
      </trkpt>
      <trkpt lat="45.95692" lon="4.75968">
        <ele>185</ele>
        <time>2017-06-26T07:55:05Z</time>
      </trkpt>
      <trkpt lat="45.95696" lon="4.75975">
        <ele>185</ele>
        <time>2017-06-26T07:55:06Z</time>
      </trkpt>
      <trkpt lat="45.95699" lon="4.75982">
        <ele>185</ele>
        <time>2017-06-26T07:55:07Z</time>
      </trkpt>
      <trkpt lat="45.95702" lon="4.75988">
        <ele>185</ele>
        <time>2017-06-26T07:55:08Z</time>
      </trkpt>
      <trkpt lat="45.95705" lon="4.75995">
        <ele>185</ele>
        <time>2017-06-26T07:55:09Z</time>
      </trkpt>
      <trkpt lat="45.95708" lon="4.76001">
        <ele>184</ele>
        <time>2017-06-26T07:55:10Z</time>
      </trkpt>
      <trkpt lat="45.9571" lon="4.76007">
        <ele>184</ele>
        <time>2017-06-26T07:55:11Z</time>
      </trkpt>
      <trkpt lat="45.95713" lon="4.76013">
        <ele>184</ele>
        <time>2017-06-26T07:55:12Z</time>
      </trkpt>
      <trkpt lat="45.95715" lon="4.76019">
        <ele>184</ele>
        <time>2017-06-26T07:55:13Z</time>
      </trkpt>
      <trkpt lat="45.95718" lon="4.76024">
        <ele>184</ele>
        <time>2017-06-26T07:55:14Z</time>
      </trkpt>
      <trkpt lat="45.95721" lon="4.76029">
        <ele>184</ele>
        <time>2017-06-26T07:55:15Z</time>
      </trkpt>
      <trkpt lat="45.95723" lon="4.76035">
        <ele>184</ele>
        <time>2017-06-26T07:55:16Z</time>
      </trkpt>
      <trkpt lat="45.95726" lon="4.76041">
        <ele>184</ele>
        <time>2017-06-26T07:55:17Z</time>
      </trkpt>
      <trkpt lat="45.95729" lon="4.76047">
        <ele>184</ele>
        <time>2017-06-26T07:55:18Z</time>
      </trkpt>
      <trkpt lat="45.95732" lon="4.76053">
        <ele>184</ele>
        <time>2017-06-26T07:55:19Z</time>
      </trkpt>
      <trkpt lat="45.95734" lon="4.76059">
        <ele>184</ele>
        <time>2017-06-26T07:55:20Z</time>
      </trkpt>
      <trkpt lat="45.95737" lon="4.76066">
        <ele>184</ele>
        <time>2017-06-26T07:55:21Z</time>
      </trkpt>
      <trkpt lat="45.9574" lon="4.76072">
        <ele>185</ele>
        <time>2017-06-26T07:55:22Z</time>
      </trkpt>
      <trkpt lat="45.95743" lon="4.76079">
        <ele>185</ele>
        <time>2017-06-26T07:55:23Z</time>
      </trkpt>
      <trkpt lat="45.95746" lon="4.76085">
        <ele>185</ele>
        <time>2017-06-26T07:55:24Z</time>
      </trkpt>
      <trkpt lat="45.95747" lon="4.76092">
        <ele>185</ele>
        <time>2017-06-26T07:55:25Z</time>
      </trkpt>
      <trkpt lat="45.95749" lon="4.76098">
        <ele>184</ele>
        <time>2017-06-26T07:55:26Z</time>
      </trkpt>
      <trkpt lat="45.95751" lon="4.76104">
        <ele>186</ele>
        <time>2017-06-26T07:55:27Z</time>
      </trkpt>
      <trkpt lat="45.95752" lon="4.76111">
        <ele>186</ele>
        <time>2017-06-26T07:55:28Z</time>
      </trkpt>
      <trkpt lat="45.95753" lon="4.76118">
        <ele>186</ele>
        <time>2017-06-26T07:55:29Z</time>
      </trkpt>
      <trkpt lat="45.95754" lon="4.76127">
        <ele>186</ele>
        <time>2017-06-26T07:55:30Z</time>
      </trkpt>
      <trkpt lat="45.95756" lon="4.76134">
        <ele>186</ele>
        <time>2017-06-26T07:55:31Z</time>
      </trkpt>
      <trkpt lat="45.95756" lon="4.76143">
        <ele>186</ele>
        <time>2017-06-26T07:55:32Z</time>
      </trkpt>
      <trkpt lat="45.95757" lon="4.76151">
        <ele>186</ele>
        <time>2017-06-26T07:55:33Z</time>
      </trkpt>
      <trkpt lat="45.95758" lon="4.76159">
        <ele>186</ele>
        <time>2017-06-26T07:55:34Z</time>
      </trkpt>
      <trkpt lat="45.95758" lon="4.76166">
        <ele>185</ele>
        <time>2017-06-26T07:55:35Z</time>
      </trkpt>
      <trkpt lat="45.95758" lon="4.76173">
        <ele>185</ele>
        <time>2017-06-26T07:55:36Z</time>
      </trkpt>
      <trkpt lat="45.95758" lon="4.76181">
        <ele>185</ele>
        <time>2017-06-26T07:55:37Z</time>
      </trkpt>
      <trkpt lat="45.95759" lon="4.76188">
        <ele>186</ele>
        <time>2017-06-26T07:55:38Z</time>
      </trkpt>
      <trkpt lat="45.95759" lon="4.76195">
        <ele>186</ele>
        <time>2017-06-26T07:55:39Z</time>
      </trkpt>
      <trkpt lat="45.9576" lon="4.76203">
        <ele>186</ele>
        <time>2017-06-26T07:55:40Z</time>
      </trkpt>
      <trkpt lat="45.9576" lon="4.7621">
        <ele>186</ele>
        <time>2017-06-26T07:55:41Z</time>
      </trkpt>
      <trkpt lat="45.95761" lon="4.76218">
        <ele>186</ele>
        <time>2017-06-26T07:55:42Z</time>
      </trkpt>
      <trkpt lat="45.95761" lon="4.76226">
        <ele>186</ele>
        <time>2017-06-26T07:55:43Z</time>
      </trkpt>
      <trkpt lat="45.95762" lon="4.76234">
        <ele>186</ele>
        <time>2017-06-26T07:55:44Z</time>
      </trkpt>
      <trkpt lat="45.95762" lon="4.76242">
        <ele>185</ele>
        <time>2017-06-26T07:55:45Z</time>
      </trkpt>
      <trkpt lat="45.95762" lon="4.76249">
        <ele>185</ele>
        <time>2017-06-26T07:55:46Z</time>
      </trkpt>
      <trkpt lat="45.95763" lon="4.76257">
        <ele>185</ele>
        <time>2017-06-26T07:55:47Z</time>
      </trkpt>
      <trkpt lat="45.95763" lon="4.76264">
        <ele>185</ele>
        <time>2017-06-26T07:55:48Z</time>
      </trkpt>
      <trkpt lat="45.95764" lon="4.76272">
        <ele>185</ele>
        <time>2017-06-26T07:55:49Z</time>
      </trkpt>
      <trkpt lat="45.95764" lon="4.76279">
        <ele>186</ele>
        <time>2017-06-26T07:55:50Z</time>
      </trkpt>
      <trkpt lat="45.95765" lon="4.76287">
        <ele>186</ele>
        <time>2017-06-26T07:55:51Z</time>
      </trkpt>
      <trkpt lat="45.95765" lon="4.76294">
        <ele>186</ele>
        <time>2017-06-26T07:55:52Z</time>
      </trkpt>
      <trkpt lat="45.95766" lon="4.76301">
        <ele>186</ele>
        <time>2017-06-26T07:55:53Z</time>
      </trkpt>
      <trkpt lat="45.95766" lon="4.76308">
        <ele>185</ele>
        <time>2017-06-26T07:55:54Z</time>
      </trkpt>
      <trkpt lat="45.95766" lon="4.76315">
        <ele>185</ele>
        <time>2017-06-26T07:55:55Z</time>
      </trkpt>
      <trkpt lat="45.95766" lon="4.76322">
        <ele>185</ele>
        <time>2017-06-26T07:55:56Z</time>
      </trkpt>
      <trkpt lat="45.95767" lon="4.76329">
        <ele>185</ele>
        <time>2017-06-26T07:55:57Z</time>
      </trkpt>
      <trkpt lat="45.95767" lon="4.76336">
        <ele>185</ele>
        <time>2017-06-26T07:55:58Z</time>
      </trkpt>
      <trkpt lat="45.95768" lon="4.76343">
        <ele>186</ele>
        <time>2017-06-26T07:55:59Z</time>
      </trkpt>
      <trkpt lat="45.95768" lon="4.7635">
        <ele>186</ele>
        <time>2017-06-26T07:56:00Z</time>
      </trkpt>
      <trkpt lat="45.95768" lon="4.76358">
        <ele>186</ele>
        <time>2017-06-26T07:56:01Z</time>
      </trkpt>
      <trkpt lat="45.95769" lon="4.76365">
        <ele>186</ele>
        <time>2017-06-26T07:56:02Z</time>
      </trkpt>
      <trkpt lat="45.95769" lon="4.76372">
        <ele>186</ele>
        <time>2017-06-26T07:56:03Z</time>
      </trkpt>
      <trkpt lat="45.9577" lon="4.76378">
        <ele>186</ele>
        <time>2017-06-26T07:56:04Z</time>
      </trkpt>
      <trkpt lat="45.95771" lon="4.76385">
        <ele>186</ele>
        <time>2017-06-26T07:56:05Z</time>
      </trkpt>
      <trkpt lat="45.95771" lon="4.76392">
        <ele>186</ele>
        <time>2017-06-26T07:56:06Z</time>
      </trkpt>
      <trkpt lat="45.95772" lon="4.764">
        <ele>186</ele>
        <time>2017-06-26T07:56:07Z</time>
      </trkpt>
      <trkpt lat="45.95773" lon="4.76407">
        <ele>186</ele>
        <time>2017-06-26T07:56:08Z</time>
      </trkpt>
      <trkpt lat="45.95773" lon="4.76415">
        <ele>186</ele>
        <time>2017-06-26T07:56:09Z</time>
      </trkpt>
      <trkpt lat="45.95774" lon="4.76423">
        <ele>186</ele>
        <time>2017-06-26T07:56:10Z</time>
      </trkpt>
      <trkpt lat="45.95775" lon="4.7643">
        <ele>186</ele>
        <time>2017-06-26T07:56:11Z</time>
      </trkpt>
      <trkpt lat="45.95776" lon="4.76438">
        <ele>186</ele>
        <time>2017-06-26T07:56:12Z</time>
      </trkpt>
      <trkpt lat="45.95777" lon="4.76445">
        <ele>186</ele>
        <time>2017-06-26T07:56:13Z</time>
      </trkpt>
      <trkpt lat="45.95778" lon="4.76454">
        <ele>186</ele>
        <time>2017-06-26T07:56:14Z</time>
      </trkpt>
      <trkpt lat="45.95779" lon="4.76461">
        <ele>186</ele>
        <time>2017-06-26T07:56:15Z</time>
      </trkpt>
      <trkpt lat="45.95779" lon="4.76467">
        <ele>186</ele>
        <time>2017-06-26T07:56:16Z</time>
      </trkpt>
      <trkpt lat="45.9578" lon="4.76474">
        <ele>186</ele>
        <time>2017-06-26T07:56:17Z</time>
      </trkpt>
      <trkpt lat="45.95781" lon="4.76481">
        <ele>186</ele>
        <time>2017-06-26T07:56:18Z</time>
      </trkpt>
      <trkpt lat="45.95782" lon="4.76487">
        <ele>186</ele>
        <time>2017-06-26T07:56:19Z</time>
      </trkpt>
      <trkpt lat="45.95783" lon="4.76494">
        <ele>186</ele>
        <time>2017-06-26T07:56:20Z</time>
      </trkpt>
      <trkpt lat="45.95784" lon="4.765">
        <ele>186</ele>
        <time>2017-06-26T07:56:21Z</time>
      </trkpt>
      <trkpt lat="45.95785" lon="4.76507">
        <ele>186</ele>
        <time>2017-06-26T07:56:22Z</time>
      </trkpt>
      <trkpt lat="45.95785" lon="4.76514">
        <ele>187</ele>
        <time>2017-06-26T07:56:23Z</time>
      </trkpt>
      <trkpt lat="45.95786" lon="4.76521">
        <ele>187</ele>
        <time>2017-06-26T07:56:24Z</time>
      </trkpt>
      <trkpt lat="45.95787" lon="4.76528">
        <ele>187</ele>
        <time>2017-06-26T07:56:25Z</time>
      </trkpt>
      <trkpt lat="45.95788" lon="4.76536">
        <ele>187</ele>
        <time>2017-06-26T07:56:26Z</time>
      </trkpt>
      <trkpt lat="45.9579" lon="4.76543">
        <ele>187</ele>
        <time>2017-06-26T07:56:27Z</time>
      </trkpt>
      <trkpt lat="45.95791" lon="4.76551">
        <ele>187</ele>
        <time>2017-06-26T07:56:28Z</time>
      </trkpt>
      <trkpt lat="45.95792" lon="4.76559">
        <ele>187</ele>
        <time>2017-06-26T07:56:29Z</time>
      </trkpt>
      <trkpt lat="45.95793" lon="4.76567">
        <ele>187</ele>
        <time>2017-06-26T07:56:30Z</time>
      </trkpt>
      <trkpt lat="45.95794" lon="4.76575">
        <ele>187</ele>
        <time>2017-06-26T07:56:31Z</time>
      </trkpt>
      <trkpt lat="45.95795" lon="4.76584">
        <ele>187</ele>
        <time>2017-06-26T07:56:32Z</time>
      </trkpt>
      <trkpt lat="45.95796" lon="4.76593">
        <ele>187</ele>
        <time>2017-06-26T07:56:33Z</time>
      </trkpt>
      <trkpt lat="45.95797" lon="4.766">
        <ele>187</ele>
        <time>2017-06-26T07:56:34Z</time>
      </trkpt>
      <trkpt lat="45.95798" lon="4.76608">
        <ele>187</ele>
        <time>2017-06-26T07:56:35Z</time>
      </trkpt>
      <trkpt lat="45.95799" lon="4.76615">
        <ele>188</ele>
        <time>2017-06-26T07:56:36Z</time>
      </trkpt>
      <trkpt lat="45.958" lon="4.76621">
        <ele>188</ele>
        <time>2017-06-26T07:56:37Z</time>
      </trkpt>
      <trkpt lat="45.95801" lon="4.76628">
        <ele>188</ele>
        <time>2017-06-26T07:56:38Z</time>
      </trkpt>
      <trkpt lat="45.95802" lon="4.76635">
        <ele>188</ele>
        <time>2017-06-26T07:56:39Z</time>
      </trkpt>
      <trkpt lat="45.95803" lon="4.7664">
        <ele>188</ele>
        <time>2017-06-26T07:56:40Z</time>
      </trkpt>
      <trkpt lat="45.95805" lon="4.76653">
        <ele>188</ele>
        <time>2017-06-26T07:56:42Z</time>
      </trkpt>
      <trkpt lat="45.95806" lon="4.76659">
        <ele>188</ele>
        <time>2017-06-26T07:56:43Z</time>
      </trkpt>
      <trkpt lat="45.95807" lon="4.76666">
        <ele>188</ele>
        <time>2017-06-26T07:56:44Z</time>
      </trkpt>
      <trkpt lat="45.95808" lon="4.76673">
        <ele>189</ele>
        <time>2017-06-26T07:56:45Z</time>
      </trkpt>
      <trkpt lat="45.95809" lon="4.7668">
        <ele>189</ele>
        <time>2017-06-26T07:56:46Z</time>
      </trkpt>
      <trkpt lat="45.9581" lon="4.76687">
        <ele>189</ele>
        <time>2017-06-26T07:56:47Z</time>
      </trkpt>
      <trkpt lat="45.95811" lon="4.76694">
        <ele>189</ele>
        <time>2017-06-26T07:56:48Z</time>
      </trkpt>
      <trkpt lat="45.95812" lon="4.767">
        <ele>189</ele>
        <time>2017-06-26T07:56:49Z</time>
      </trkpt>
      <trkpt lat="45.95813" lon="4.76707">
        <ele>189</ele>
        <time>2017-06-26T07:56:50Z</time>
      </trkpt>
      <trkpt lat="45.95814" lon="4.76714">
        <ele>189</ele>
        <time>2017-06-26T07:56:51Z</time>
      </trkpt>
      <trkpt lat="45.95815" lon="4.76721">
        <ele>189</ele>
        <time>2017-06-26T07:56:52Z</time>
      </trkpt>
      <trkpt lat="45.95816" lon="4.76727">
        <ele>190</ele>
        <time>2017-06-26T07:56:53Z</time>
      </trkpt>
      <trkpt lat="45.95817" lon="4.76734">
        <ele>190</ele>
        <time>2017-06-26T07:56:54Z</time>
      </trkpt>
      <trkpt lat="45.95818" lon="4.76741">
        <ele>190</ele>
        <time>2017-06-26T07:56:55Z</time>
      </trkpt>
      <trkpt lat="45.9582" lon="4.76753">
        <ele>190</ele>
        <time>2017-06-26T07:56:57Z</time>
      </trkpt>
      <trkpt lat="45.95821" lon="4.76759">
        <ele>190</ele>
        <time>2017-06-26T07:56:58Z</time>
      </trkpt>
      <trkpt lat="45.95822" lon="4.76771">
        <ele>190</ele>
        <time>2017-06-26T07:57:00Z</time>
      </trkpt>
      <trkpt lat="45.95823" lon="4.76777">
        <ele>190</ele>
        <time>2017-06-26T07:57:01Z</time>
      </trkpt>
      <trkpt lat="45.95824" lon="4.76783">
        <ele>190</ele>
        <time>2017-06-26T07:57:02Z</time>
      </trkpt>
      <trkpt lat="45.95825" lon="4.76791">
        <ele>190</ele>
        <time>2017-06-26T07:57:03Z</time>
      </trkpt>
      <trkpt lat="45.95825" lon="4.76798">
        <ele>190</ele>
        <time>2017-06-26T07:57:04Z</time>
      </trkpt>
      <trkpt lat="45.95825" lon="4.76805">
        <ele>190</ele>
        <time>2017-06-26T07:57:05Z</time>
      </trkpt>
      <trkpt lat="45.95825" lon="4.76813">
        <ele>190</ele>
        <time>2017-06-26T07:57:06Z</time>
      </trkpt>
      <trkpt lat="45.95825" lon="4.7682">
        <ele>190</ele>
        <time>2017-06-26T07:57:07Z</time>
      </trkpt>
      <trkpt lat="45.95824" lon="4.76827">
        <ele>190</ele>
        <time>2017-06-26T07:57:08Z</time>
      </trkpt>
      <trkpt lat="45.95823" lon="4.76833">
        <ele>190</ele>
        <time>2017-06-26T07:57:09Z</time>
      </trkpt>
      <trkpt lat="45.95822" lon="4.7684">
        <ele>190</ele>
        <time>2017-06-26T07:57:10Z</time>
      </trkpt>
      <trkpt lat="45.9582" lon="4.76847">
        <ele>190</ele>
        <time>2017-06-26T07:57:11Z</time>
      </trkpt>
      <trkpt lat="45.95818" lon="4.76854">
        <ele>189</ele>
        <time>2017-06-26T07:57:12Z</time>
      </trkpt>
      <trkpt lat="45.95817" lon="4.76862">
        <ele>189</ele>
        <time>2017-06-26T07:57:13Z</time>
      </trkpt>
      <trkpt lat="45.95815" lon="4.76869">
        <ele>189</ele>
        <time>2017-06-26T07:57:14Z</time>
      </trkpt>
      <trkpt lat="45.95814" lon="4.76877">
        <ele>189</ele>
        <time>2017-06-26T07:57:15Z</time>
      </trkpt>
      <trkpt lat="45.95812" lon="4.76885">
        <ele>189</ele>
        <time>2017-06-26T07:57:16Z</time>
      </trkpt>
      <trkpt lat="45.95811" lon="4.76893">
        <ele>189</ele>
        <time>2017-06-26T07:57:17Z</time>
      </trkpt>
      <trkpt lat="45.95809" lon="4.769">
        <ele>189</ele>
        <time>2017-06-26T07:57:18Z</time>
      </trkpt>
      <trkpt lat="45.95807" lon="4.76907">
        <ele>189</ele>
        <time>2017-06-26T07:57:19Z</time>
      </trkpt>
      <trkpt lat="45.95806" lon="4.76915">
        <ele>189</ele>
        <time>2017-06-26T07:57:20Z</time>
      </trkpt>
      <trkpt lat="45.95805" lon="4.76922">
        <ele>189</ele>
        <time>2017-06-26T07:57:21Z</time>
      </trkpt>
      <trkpt lat="45.95804" lon="4.76929">
        <ele>189</ele>
        <time>2017-06-26T07:57:22Z</time>
      </trkpt>
      <trkpt lat="45.95803" lon="4.76936">
        <ele>189</ele>
        <time>2017-06-26T07:57:23Z</time>
      </trkpt>
      <trkpt lat="45.95802" lon="4.76943">
        <ele>189</ele>
        <time>2017-06-26T07:57:24Z</time>
      </trkpt>
      <trkpt lat="45.958" lon="4.7695">
        <ele>189</ele>
        <time>2017-06-26T07:57:25Z</time>
      </trkpt>
      <trkpt lat="45.95799" lon="4.76956">
        <ele>189</ele>
        <time>2017-06-26T07:57:26Z</time>
      </trkpt>
      <trkpt lat="45.95798" lon="4.76963">
        <ele>189</ele>
        <time>2017-06-26T07:57:27Z</time>
      </trkpt>
      <trkpt lat="45.95797" lon="4.7697">
        <ele>189</ele>
        <time>2017-06-26T07:57:28Z</time>
      </trkpt>
      <trkpt lat="45.95797" lon="4.76977">
        <ele>189</ele>
        <time>2017-06-26T07:57:29Z</time>
      </trkpt>
      <trkpt lat="45.95796" lon="4.76984">
        <ele>189</ele>
        <time>2017-06-26T07:57:30Z</time>
      </trkpt>
      <trkpt lat="45.95797" lon="4.76992">
        <ele>189</ele>
        <time>2017-06-26T07:57:31Z</time>
      </trkpt>
      <trkpt lat="45.95797" lon="4.77">
        <ele>189</ele>
        <time>2017-06-26T07:57:32Z</time>
      </trkpt>
      <trkpt lat="45.95798" lon="4.77007">
        <ele>190</ele>
        <time>2017-06-26T07:57:33Z</time>
      </trkpt>
      <trkpt lat="45.95799" lon="4.77015">
        <ele>190</ele>
        <time>2017-06-26T07:57:34Z</time>
      </trkpt>
      <trkpt lat="45.95802" lon="4.77023">
        <ele>190</ele>
        <time>2017-06-26T07:57:35Z</time>
      </trkpt>
      <trkpt lat="45.95804" lon="4.7703">
        <ele>190</ele>
        <time>2017-06-26T07:57:36Z</time>
      </trkpt>
      <trkpt lat="45.95807" lon="4.77037">
        <ele>190</ele>
        <time>2017-06-26T07:57:37Z</time>
      </trkpt>
      <trkpt lat="45.9581" lon="4.77043">
        <ele>190</ele>
        <time>2017-06-26T07:57:38Z</time>
      </trkpt>
      <trkpt lat="45.95813" lon="4.7705">
        <ele>190</ele>
        <time>2017-06-26T07:57:39Z</time>
      </trkpt>
      <trkpt lat="45.95816" lon="4.77056">
        <ele>190</ele>
        <time>2017-06-26T07:57:40Z</time>
      </trkpt>
      <trkpt lat="45.95819" lon="4.77063">
        <ele>190</ele>
        <time>2017-06-26T07:57:41Z</time>
      </trkpt>
      <trkpt lat="45.95822" lon="4.77069">
        <ele>191</ele>
        <time>2017-06-26T07:57:42Z</time>
      </trkpt>
      <trkpt lat="45.95824" lon="4.77075">
        <ele>191</ele>
        <time>2017-06-26T07:57:43Z</time>
      </trkpt>
      <trkpt lat="45.95826" lon="4.77081">
        <ele>191</ele>
        <time>2017-06-26T07:57:44Z</time>
      </trkpt>
      <trkpt lat="45.95829" lon="4.77087">
        <ele>191</ele>
        <time>2017-06-26T07:57:45Z</time>
      </trkpt>
      <trkpt lat="45.95831" lon="4.77093">
        <ele>191</ele>
        <time>2017-06-26T07:57:46Z</time>
      </trkpt>
      <trkpt lat="45.95833" lon="4.77099">
        <ele>191</ele>
        <time>2017-06-26T07:57:47Z</time>
      </trkpt>
      <trkpt lat="45.95836" lon="4.77111">
        <ele>193</ele>
        <time>2017-06-26T07:57:49Z</time>
      </trkpt>
      <trkpt lat="45.95838" lon="4.77117">
        <ele>193</ele>
        <time>2017-06-26T07:57:50Z</time>
      </trkpt>
      <trkpt lat="45.9584" lon="4.77126">
        <ele>193</ele>
        <time>2017-06-26T07:57:52Z</time>
      </trkpt>
      <trkpt lat="45.95841" lon="4.7713">
        <ele>193</ele>
        <time>2017-06-26T07:57:53Z</time>
      </trkpt>
      <trkpt lat="45.95843" lon="4.7714">
        <ele>192</ele>
        <time>2017-06-26T07:57:56Z</time>
      </trkpt>
      <trkpt lat="45.95844" lon="4.77143">
        <ele>192</ele>
        <time>2017-06-26T07:57:57Z</time>
      </trkpt>
      <trkpt lat="45.95847" lon="4.77152">
        <ele>192</ele>
        <time>2017-06-26T07:57:59Z</time>
      </trkpt>
      <trkpt lat="45.95848" lon="4.77158">
        <ele>192</ele>
        <time>2017-06-26T07:58:00Z</time>
      </trkpt>
      <trkpt lat="45.95849" lon="4.77163">
        <ele>192</ele>
        <time>2017-06-26T07:58:01Z</time>
      </trkpt>
      <trkpt lat="45.95851" lon="4.7717">
        <ele>192</ele>
        <time>2017-06-26T07:58:02Z</time>
      </trkpt>
      <trkpt lat="45.95853" lon="4.77177">
        <ele>192</ele>
        <time>2017-06-26T07:58:03Z</time>
      </trkpt>
      <trkpt lat="45.95855" lon="4.77184">
        <ele>192</ele>
        <time>2017-06-26T07:58:04Z</time>
      </trkpt>
      <trkpt lat="45.95856" lon="4.77191">
        <ele>192</ele>
        <time>2017-06-26T07:58:05Z</time>
      </trkpt>
      <trkpt lat="45.95858" lon="4.77199">
        <ele>192</ele>
        <time>2017-06-26T07:58:06Z</time>
      </trkpt>
      <trkpt lat="45.9586" lon="4.77206">
        <ele>192</ele>
        <time>2017-06-26T07:58:07Z</time>
      </trkpt>
      <trkpt lat="45.95861" lon="4.77213">
        <ele>192</ele>
        <time>2017-06-26T07:58:08Z</time>
      </trkpt>
      <trkpt lat="45.95863" lon="4.77219">
        <ele>192</ele>
        <time>2017-06-26T07:58:09Z</time>
      </trkpt>
      <trkpt lat="45.95864" lon="4.77226">
        <ele>192</ele>
        <time>2017-06-26T07:58:10Z</time>
      </trkpt>
      <trkpt lat="45.95866" lon="4.77233">
        <ele>192</ele>
        <time>2017-06-26T07:58:11Z</time>
      </trkpt>
      <trkpt lat="45.95868" lon="4.77239">
        <ele>193</ele>
        <time>2017-06-26T07:58:12Z</time>
      </trkpt>
      <trkpt lat="45.95869" lon="4.77246">
        <ele>193</ele>
        <time>2017-06-26T07:58:13Z</time>
      </trkpt>
      <trkpt lat="45.95871" lon="4.77253">
        <ele>192</ele>
        <time>2017-06-26T07:58:14Z</time>
      </trkpt>
      <trkpt lat="45.95873" lon="4.77261">
        <ele>192</ele>
        <time>2017-06-26T07:58:15Z</time>
      </trkpt>
      <trkpt lat="45.95874" lon="4.77268">
        <ele>193</ele>
        <time>2017-06-26T07:58:16Z</time>
      </trkpt>
      <trkpt lat="45.95876" lon="4.77275">
        <ele>193</ele>
        <time>2017-06-26T07:58:17Z</time>
      </trkpt>
      <trkpt lat="45.95877" lon="4.77283">
        <ele>193</ele>
        <time>2017-06-26T07:58:18Z</time>
      </trkpt>
      <trkpt lat="45.95879" lon="4.77289">
        <ele>193</ele>
        <time>2017-06-26T07:58:19Z</time>
      </trkpt>
      <trkpt lat="45.9588" lon="4.77296">
        <ele>193</ele>
        <time>2017-06-26T07:58:20Z</time>
      </trkpt>
      <trkpt lat="45.95883" lon="4.77307">
        <ele>193</ele>
        <time>2017-06-26T07:58:22Z</time>
      </trkpt>
      <trkpt lat="45.95885" lon="4.77313">
        <ele>193</ele>
        <time>2017-06-26T07:58:23Z</time>
      </trkpt>
      <trkpt lat="45.95888" lon="4.77325">
        <ele>193</ele>
        <time>2017-06-26T07:58:25Z</time>
      </trkpt>
      <trkpt lat="45.95889" lon="4.77331">
        <ele>193</ele>
        <time>2017-06-26T07:58:26Z</time>
      </trkpt>
      <trkpt lat="45.95893" lon="4.77342">
        <ele>193</ele>
        <time>2017-06-26T07:58:28Z</time>
      </trkpt>
      <trkpt lat="45.95895" lon="4.77348">
        <ele>193</ele>
        <time>2017-06-26T07:58:29Z</time>
      </trkpt>
      <trkpt lat="45.95898" lon="4.77358">
        <ele>193</ele>
        <time>2017-06-26T07:58:31Z</time>
      </trkpt>
      <trkpt lat="45.959" lon="4.77363">
        <ele>193</ele>
        <time>2017-06-26T07:58:32Z</time>
      </trkpt>
      <trkpt lat="45.95903" lon="4.77374">
        <ele>193</ele>
        <time>2017-06-26T07:58:34Z</time>
      </trkpt>
      <trkpt lat="45.95906" lon="4.7738">
        <ele>193</ele>
        <time>2017-06-26T07:58:35Z</time>
      </trkpt>
      <trkpt lat="45.95911" lon="4.77389">
        <ele>193</ele>
        <time>2017-06-26T07:58:37Z</time>
      </trkpt>
      <trkpt lat="45.95913" lon="4.77394">
        <ele>193</ele>
        <time>2017-06-26T07:58:38Z</time>
      </trkpt>
      <trkpt lat="45.95916" lon="4.77405">
        <ele>193</ele>
        <time>2017-06-26T07:58:40Z</time>
      </trkpt>
      <trkpt lat="45.95918" lon="4.7741">
        <ele>195</ele>
        <time>2017-06-26T07:58:41Z</time>
      </trkpt>
      <trkpt lat="45.9592" lon="4.77416">
        <ele>194</ele>
        <time>2017-06-26T07:58:42Z</time>
      </trkpt>
      <trkpt lat="45.95922" lon="4.77422">
        <ele>195</ele>
        <time>2017-06-26T07:58:43Z</time>
      </trkpt>
      <trkpt lat="45.95925" lon="4.77429">
        <ele>195</ele>
        <time>2017-06-26T07:58:44Z</time>
      </trkpt>
      <trkpt lat="45.95927" lon="4.77435">
        <ele>195</ele>
        <time>2017-06-26T07:58:45Z</time>
      </trkpt>
      <trkpt lat="45.95929" lon="4.77442">
        <ele>195</ele>
        <time>2017-06-26T07:58:46Z</time>
      </trkpt>
      <trkpt lat="45.95931" lon="4.77449">
        <ele>195</ele>
        <time>2017-06-26T07:58:47Z</time>
      </trkpt>
      <trkpt lat="45.95934" lon="4.77455">
        <ele>195</ele>
        <time>2017-06-26T07:58:48Z</time>
      </trkpt>
      <trkpt lat="45.95935" lon="4.77461">
        <ele>195</ele>
        <time>2017-06-26T07:58:49Z</time>
      </trkpt>
      <trkpt lat="45.95939" lon="4.77473">
        <ele>195</ele>
        <time>2017-06-26T07:58:51Z</time>
      </trkpt>
      <trkpt lat="45.95941" lon="4.77478">
        <ele>195</ele>
        <time>2017-06-26T07:58:52Z</time>
      </trkpt>
      <trkpt lat="45.95945" lon="4.77488">
        <ele>195</ele>
        <time>2017-06-26T07:58:54Z</time>
      </trkpt>
      <trkpt lat="45.95947" lon="4.77493">
        <ele>195</ele>
        <time>2017-06-26T07:58:55Z</time>
      </trkpt>
      <trkpt lat="45.95951" lon="4.77503">
        <ele>194</ele>
        <time>2017-06-26T07:58:57Z</time>
      </trkpt>
      <trkpt lat="45.95953" lon="4.77509">
        <ele>195</ele>
        <time>2017-06-26T07:58:58Z</time>
      </trkpt>
      <trkpt lat="45.95955" lon="4.77514">
        <ele>195</ele>
        <time>2017-06-26T07:58:59Z</time>
      </trkpt>
      <trkpt lat="45.95957" lon="4.77521">
        <ele>195</ele>
        <time>2017-06-26T07:59:00Z</time>
      </trkpt>
      <trkpt lat="45.9596" lon="4.77527">
        <ele>195</ele>
        <time>2017-06-26T07:59:01Z</time>
      </trkpt>
      <trkpt lat="45.95963" lon="4.77533">
        <ele>195</ele>
        <time>2017-06-26T07:59:02Z</time>
      </trkpt>
      <trkpt lat="45.95966" lon="4.77538">
        <ele>195</ele>
        <time>2017-06-26T07:59:03Z</time>
      </trkpt>
      <trkpt lat="45.95969" lon="4.77544">
        <ele>195</ele>
        <time>2017-06-26T07:59:04Z</time>
      </trkpt>
      <trkpt lat="45.95971" lon="4.77549">
        <ele>195</ele>
        <time>2017-06-26T07:59:05Z</time>
      </trkpt>
      <trkpt lat="45.95974" lon="4.77555">
        <ele>195</ele>
        <time>2017-06-26T07:59:06Z</time>
      </trkpt>
      <trkpt lat="45.95976" lon="4.77562">
        <ele>195</ele>
        <time>2017-06-26T07:59:07Z</time>
      </trkpt>
      <trkpt lat="45.95978" lon="4.77571">
        <ele>196</ele>
        <time>2017-06-26T07:59:08Z</time>
      </trkpt>
      <trkpt lat="45.95981" lon="4.77578">
        <ele>196</ele>
        <time>2017-06-26T07:59:09Z</time>
      </trkpt>
      <trkpt lat="45.95983" lon="4.77586">
        <ele>195</ele>
        <time>2017-06-26T07:59:10Z</time>
      </trkpt>
      <trkpt lat="45.95985" lon="4.77592">
        <ele>195</ele>
        <time>2017-06-26T07:59:11Z</time>
      </trkpt>
      <trkpt lat="45.95989" lon="4.77598">
        <ele>195</ele>
        <time>2017-06-26T07:59:12Z</time>
      </trkpt>
      <trkpt lat="45.95994" lon="4.77603">
        <ele>195</ele>
        <time>2017-06-26T07:59:13Z</time>
      </trkpt>
      <trkpt lat="45.95999" lon="4.77607">
        <ele>195</ele>
        <time>2017-06-26T07:59:14Z</time>
      </trkpt>
      <trkpt lat="45.96003" lon="4.77611">
        <ele>198</ele>
        <time>2017-06-26T07:59:15Z</time>
      </trkpt>
      <trkpt lat="45.96007" lon="4.77616">
        <ele>199</ele>
        <time>2017-06-26T07:59:16Z</time>
      </trkpt>
      <trkpt lat="45.96014" lon="4.77623">
        <ele>199</ele>
        <time>2017-06-26T07:59:18Z</time>
      </trkpt>
      <trkpt lat="45.96017" lon="4.77626">
        <ele>199</ele>
        <time>2017-06-26T07:59:19Z</time>
      </trkpt>
      <trkpt lat="45.96024" lon="4.77633">
        <ele>199</ele>
        <time>2017-06-26T07:59:21Z</time>
      </trkpt>
      <trkpt lat="45.96028" lon="4.77637">
        <ele>199</ele>
        <time>2017-06-26T07:59:22Z</time>
      </trkpt>
      <trkpt lat="45.96034" lon="4.77644">
        <ele>199</ele>
        <time>2017-06-26T07:59:24Z</time>
      </trkpt>
      <trkpt lat="45.96037" lon="4.77647">
        <ele>199</ele>
        <time>2017-06-26T07:59:25Z</time>
      </trkpt>
      <trkpt lat="45.96043" lon="4.77655">
        <ele>199</ele>
        <time>2017-06-26T07:59:27Z</time>
      </trkpt>
      <trkpt lat="45.96046" lon="4.7766">
        <ele>199</ele>
        <time>2017-06-26T07:59:28Z</time>
      </trkpt>
      <trkpt lat="45.9605" lon="4.77664">
        <ele>200</ele>
        <time>2017-06-26T07:59:29Z</time>
      </trkpt>
      <trkpt lat="45.96053" lon="4.77668">
        <ele>197</ele>
        <time>2017-06-26T07:59:30Z</time>
      </trkpt>
      <trkpt lat="45.96056" lon="4.77673">
        <ele>197</ele>
        <time>2017-06-26T07:59:31Z</time>
      </trkpt>
      <trkpt lat="45.9606" lon="4.77677">
        <ele>198</ele>
        <time>2017-06-26T07:59:32Z</time>
      </trkpt>
      <trkpt lat="45.96064" lon="4.77682">
        <ele>198</ele>
        <time>2017-06-26T07:59:33Z</time>
      </trkpt>
      <trkpt lat="45.96067" lon="4.77686">
        <ele>198</ele>
        <time>2017-06-26T07:59:34Z</time>
      </trkpt>
      <trkpt lat="45.96072" lon="4.77696">
        <ele>197</ele>
        <time>2017-06-26T07:59:36Z</time>
      </trkpt>
      <trkpt lat="45.96075" lon="4.777">
        <ele>197</ele>
        <time>2017-06-26T07:59:37Z</time>
      </trkpt>
      <trkpt lat="45.96081" lon="4.77707">
        <ele>197</ele>
        <time>2017-06-26T07:59:39Z</time>
      </trkpt>
      <trkpt lat="45.96084" lon="4.77712">
        <ele>200</ele>
        <time>2017-06-26T07:59:40Z</time>
      </trkpt>
      <trkpt lat="45.96089" lon="4.77721">
        <ele>199</ele>
        <time>2017-06-26T07:59:42Z</time>
      </trkpt>
      <trkpt lat="45.96092" lon="4.77727">
        <ele>199</ele>
        <time>2017-06-26T07:59:43Z</time>
      </trkpt>
      <trkpt lat="45.96095" lon="4.77732">
        <ele>198</ele>
        <time>2017-06-26T07:59:44Z</time>
      </trkpt>
      <trkpt lat="45.96098" lon="4.77737">
        <ele>198</ele>
        <time>2017-06-26T07:59:45Z</time>
      </trkpt>
      <trkpt lat="45.96101" lon="4.77743">
        <ele>198</ele>
        <time>2017-06-26T07:59:46Z</time>
      </trkpt>
      <trkpt lat="45.96105" lon="4.77748">
        <ele>198</ele>
        <time>2017-06-26T07:59:47Z</time>
      </trkpt>
      <trkpt lat="45.96108" lon="4.77754">
        <ele>197</ele>
        <time>2017-06-26T07:59:48Z</time>
      </trkpt>
      <trkpt lat="45.96111" lon="4.77759">
        <ele>197</ele>
        <time>2017-06-26T07:59:49Z</time>
      </trkpt>
      <trkpt lat="45.96116" lon="4.77769">
        <ele>197</ele>
        <time>2017-06-26T07:59:51Z</time>
      </trkpt>
      <trkpt lat="45.96119" lon="4.77773">
        <ele>197</ele>
        <time>2017-06-26T07:59:52Z</time>
      </trkpt>
      <trkpt lat="45.96124" lon="4.77782">
        <ele>197</ele>
        <time>2017-06-26T07:59:54Z</time>
      </trkpt>
      <trkpt lat="45.96127" lon="4.77787">
        <ele>197</ele>
        <time>2017-06-26T07:59:55Z</time>
      </trkpt>
      <trkpt lat="45.96133" lon="4.77795">
        <ele>198</ele>
        <time>2017-06-26T07:59:57Z</time>
      </trkpt>
      <trkpt lat="45.96135" lon="4.778">
        <ele>198</ele>
        <time>2017-06-26T07:59:58Z</time>
      </trkpt>
      <trkpt lat="45.96141" lon="4.77809">
        <ele>198</ele>
        <time>2017-06-26T08:00:00Z</time>
      </trkpt>
      <trkpt lat="45.96143" lon="4.77814">
        <ele>198</ele>
        <time>2017-06-26T08:00:01Z</time>
      </trkpt>
      <trkpt lat="45.96146" lon="4.77819">
        <ele>198</ele>
        <time>2017-06-26T08:00:02Z</time>
      </trkpt>
      <trkpt lat="45.96149" lon="4.77825">
        <ele>198</ele>
        <time>2017-06-26T08:00:03Z</time>
      </trkpt>
      <trkpt lat="45.96155" lon="4.77834">
        <ele>197</ele>
        <time>2017-06-26T08:00:05Z</time>
      </trkpt>
      <trkpt lat="45.96158" lon="4.77839">
        <ele>197</ele>
        <time>2017-06-26T08:00:06Z</time>
      </trkpt>
      <trkpt lat="45.96161" lon="4.77844">
        <ele>197</ele>
        <time>2017-06-26T08:00:07Z</time>
      </trkpt>
      <trkpt lat="45.96164" lon="4.77849">
        <ele>197</ele>
        <time>2017-06-26T08:00:08Z</time>
      </trkpt>
      <trkpt lat="45.96168" lon="4.77856">
        <ele>201</ele>
        <time>2017-06-26T08:00:09Z</time>
      </trkpt>
      <trkpt lat="45.96171" lon="4.77862">
        <ele>201</ele>
        <time>2017-06-26T08:00:10Z</time>
      </trkpt>
      <trkpt lat="45.96175" lon="4.77867">
        <ele>201</ele>
        <time>2017-06-26T08:00:11Z</time>
      </trkpt>
      <trkpt lat="45.96178" lon="4.77873">
        <ele>201</ele>
        <time>2017-06-26T08:00:12Z</time>
      </trkpt>
      <trkpt lat="45.96182" lon="4.77879">
        <ele>201</ele>
        <time>2017-06-26T08:00:13Z</time>
      </trkpt>
      <trkpt lat="45.96185" lon="4.77884">
        <ele>201</ele>
        <time>2017-06-26T08:00:14Z</time>
      </trkpt>
      <trkpt lat="45.96189" lon="4.77889">
        <ele>201</ele>
        <time>2017-06-26T08:00:15Z</time>
      </trkpt>
      <trkpt lat="45.96192" lon="4.77894">
        <ele>201</ele>
        <time>2017-06-26T08:00:16Z</time>
      </trkpt>
      <trkpt lat="45.96194" lon="4.779">
        <ele>201</ele>
        <time>2017-06-26T08:00:17Z</time>
      </trkpt>
      <trkpt lat="45.96197" lon="4.77905">
        <ele>201</ele>
        <time>2017-06-26T08:00:18Z</time>
      </trkpt>
      <trkpt lat="45.962" lon="4.7791">
        <ele>201</ele>
        <time>2017-06-26T08:00:19Z</time>
      </trkpt>
      <trkpt lat="45.96204" lon="4.77915">
        <ele>202</ele>
        <time>2017-06-26T08:00:20Z</time>
      </trkpt>
      <trkpt lat="45.96209" lon="4.77925">
        <ele>199</ele>
        <time>2017-06-26T08:00:22Z</time>
      </trkpt>
      <trkpt lat="45.96212" lon="4.77929">
        <ele>199</ele>
        <time>2017-06-26T08:00:23Z</time>
      </trkpt>
      <trkpt lat="45.96218" lon="4.77937">
        <ele>199</ele>
        <time>2017-06-26T08:00:25Z</time>
      </trkpt>
      <trkpt lat="45.96222" lon="4.77941">
        <ele>200</ele>
        <time>2017-06-26T08:00:26Z</time>
      </trkpt>
      <trkpt lat="45.96226" lon="4.77946">
        <ele>200</ele>
        <time>2017-06-26T08:00:27Z</time>
      </trkpt>
      <trkpt lat="45.9623" lon="4.77949">
        <ele>200</ele>
        <time>2017-06-26T08:00:28Z</time>
      </trkpt>
      <trkpt lat="45.96237" lon="4.77957">
        <ele>199</ele>
        <time>2017-06-26T08:00:30Z</time>
      </trkpt>
      <trkpt lat="45.9624" lon="4.77961">
        <ele>199</ele>
        <time>2017-06-26T08:00:31Z</time>
      </trkpt>
      <trkpt lat="45.96246" lon="4.77969">
        <ele>198</ele>
        <time>2017-06-26T08:00:33Z</time>
      </trkpt>
      <trkpt lat="45.96251" lon="4.77972">
        <ele>203</ele>
        <time>2017-06-26T08:00:34Z</time>
      </trkpt>
      <trkpt lat="45.96255" lon="4.77976">
        <ele>202</ele>
        <time>2017-06-26T08:00:35Z</time>
      </trkpt>
      <trkpt lat="45.96259" lon="4.77981">
        <ele>202</ele>
        <time>2017-06-26T08:00:36Z</time>
      </trkpt>
      <trkpt lat="45.96263" lon="4.77984">
        <ele>202</ele>
        <time>2017-06-26T08:00:37Z</time>
      </trkpt>
      <trkpt lat="45.96267" lon="4.77987">
        <ele>202</ele>
        <time>2017-06-26T08:00:38Z</time>
      </trkpt>
      <trkpt lat="45.96271" lon="4.77992">
        <ele>202</ele>
        <time>2017-06-26T08:00:39Z</time>
      </trkpt>
      <trkpt lat="45.96276" lon="4.77998">
        <ele>202</ele>
        <time>2017-06-26T08:00:40Z</time>
      </trkpt>
      <trkpt lat="45.9628" lon="4.78004">
        <ele>198</ele>
        <time>2017-06-26T08:00:41Z</time>
      </trkpt>
      <trkpt lat="45.96284" lon="4.78008">
        <ele>198</ele>
        <time>2017-06-26T08:00:42Z</time>
      </trkpt>
      <trkpt lat="45.96288" lon="4.78012">
        <ele>199</ele>
        <time>2017-06-26T08:00:43Z</time>
      </trkpt>
      <trkpt lat="45.96294" lon="4.78017">
        <ele>199</ele>
        <time>2017-06-26T08:00:44Z</time>
      </trkpt>
      <trkpt lat="45.96299" lon="4.78021">
        <ele>199</ele>
        <time>2017-06-26T08:00:45Z</time>
      </trkpt>
      <trkpt lat="45.96304" lon="4.78026">
        <ele>199</ele>
        <time>2017-06-26T08:00:46Z</time>
      </trkpt>
      <trkpt lat="45.9631" lon="4.78032">
        <ele>199</ele>
        <time>2017-06-26T08:00:47Z</time>
      </trkpt>
      <trkpt lat="45.96316" lon="4.78038">
        <ele>199</ele>
        <time>2017-06-26T08:00:48Z</time>
      </trkpt>
      <trkpt lat="45.96321" lon="4.78043">
        <ele>199</ele>
        <time>2017-06-26T08:00:49Z</time>
      </trkpt>
      <trkpt lat="45.96325" lon="4.78048">
        <ele>199</ele>
        <time>2017-06-26T08:00:50Z</time>
      </trkpt>
      <trkpt lat="45.96329" lon="4.78054">
        <ele>199</ele>
        <time>2017-06-26T08:00:51Z</time>
      </trkpt>
      <trkpt lat="45.96334" lon="4.78059">
        <ele>202</ele>
        <time>2017-06-26T08:00:52Z</time>
      </trkpt>
      <trkpt lat="45.96338" lon="4.78065">
        <ele>201</ele>
        <time>2017-06-26T08:00:53Z</time>
      </trkpt>
      <trkpt lat="45.96343" lon="4.7807">
        <ele>201</ele>
        <time>2017-06-26T08:00:54Z</time>
      </trkpt>
      <trkpt lat="45.96348" lon="4.78074">
        <ele>201</ele>
        <time>2017-06-26T08:00:55Z</time>
      </trkpt>
      <trkpt lat="45.96352" lon="4.7808">
        <ele>201</ele>
        <time>2017-06-26T08:00:56Z</time>
      </trkpt>
      <trkpt lat="45.96357" lon="4.78085">
        <ele>199</ele>
        <time>2017-06-26T08:00:57Z</time>
      </trkpt>
      <trkpt lat="45.96362" lon="4.78089">
        <ele>199</ele>
        <time>2017-06-26T08:00:58Z</time>
      </trkpt>
      <trkpt lat="45.96367" lon="4.78094">
        <ele>199</ele>
        <time>2017-06-26T08:00:59Z</time>
      </trkpt>
      <trkpt lat="45.96372" lon="4.78098">
        <ele>199</ele>
        <time>2017-06-26T08:01:00Z</time>
      </trkpt>
      <trkpt lat="45.96376" lon="4.78102">
        <ele>200</ele>
        <time>2017-06-26T08:01:01Z</time>
      </trkpt>
      <trkpt lat="45.96381" lon="4.78107">
        <ele>200</ele>
        <time>2017-06-26T08:01:02Z</time>
      </trkpt>
      <trkpt lat="45.96385" lon="4.78112">
        <ele>200</ele>
        <time>2017-06-26T08:01:03Z</time>
      </trkpt>
      <trkpt lat="45.9639" lon="4.78116">
        <ele>200</ele>
        <time>2017-06-26T08:01:04Z</time>
      </trkpt>
      <trkpt lat="45.96394" lon="4.7812">
        <ele>200</ele>
        <time>2017-06-26T08:01:05Z</time>
      </trkpt>
      <trkpt lat="45.96398" lon="4.78123">
        <ele>200</ele>
        <time>2017-06-26T08:01:06Z</time>
      </trkpt>
      <trkpt lat="45.96402" lon="4.78127">
        <ele>200</ele>
        <time>2017-06-26T08:01:07Z</time>
      </trkpt>
      <trkpt lat="45.96405" lon="4.78131">
        <ele>199</ele>
        <time>2017-06-26T08:01:08Z</time>
      </trkpt>
      <trkpt lat="45.96409" lon="4.78136">
        <ele>199</ele>
        <time>2017-06-26T08:01:09Z</time>
      </trkpt>
      <trkpt lat="45.96414" lon="4.78141">
        <ele>199</ele>
        <time>2017-06-26T08:01:10Z</time>
      </trkpt>
      <trkpt lat="45.9642" lon="4.78145">
        <ele>202</ele>
        <time>2017-06-26T08:01:11Z</time>
      </trkpt>
      <trkpt lat="45.96425" lon="4.78149">
        <ele>202</ele>
        <time>2017-06-26T08:01:12Z</time>
      </trkpt>
      <trkpt lat="45.9643" lon="4.78154">
        <ele>202</ele>
        <time>2017-06-26T08:01:13Z</time>
      </trkpt>
      <trkpt lat="45.96435" lon="4.78158">
        <ele>202</ele>
        <time>2017-06-26T08:01:14Z</time>
      </trkpt>
      <trkpt lat="45.9644" lon="4.78163">
        <ele>202</ele>
        <time>2017-06-26T08:01:15Z</time>
      </trkpt>
      <trkpt lat="45.96444" lon="4.78168">
        <ele>199</ele>
        <time>2017-06-26T08:01:16Z</time>
      </trkpt>
      <trkpt lat="45.96449" lon="4.78172">
        <ele>199</ele>
        <time>2017-06-26T08:01:17Z</time>
      </trkpt>
      <trkpt lat="45.96453" lon="4.78176">
        <ele>200</ele>
        <time>2017-06-26T08:01:18Z</time>
      </trkpt>
      <trkpt lat="45.96457" lon="4.78179">
        <ele>200</ele>
        <time>2017-06-26T08:01:19Z</time>
      </trkpt>
      <trkpt lat="45.96461" lon="4.78183">
        <ele>200</ele>
        <time>2017-06-26T08:01:20Z</time>
      </trkpt>
      <trkpt lat="45.96465" lon="4.78186">
        <ele>200</ele>
        <time>2017-06-26T08:01:21Z</time>
      </trkpt>
      <trkpt lat="45.9647" lon="4.78189">
        <ele>200</ele>
        <time>2017-06-26T08:01:22Z</time>
      </trkpt>
      <trkpt lat="45.96474" lon="4.78192">
        <ele>200</ele>
        <time>2017-06-26T08:01:23Z</time>
      </trkpt>
      <trkpt lat="45.96479" lon="4.78195">
        <ele>200</ele>
        <time>2017-06-26T08:01:24Z</time>
      </trkpt>
      <trkpt lat="45.96484" lon="4.78197">
        <ele>200</ele>
        <time>2017-06-26T08:01:25Z</time>
      </trkpt>
      <trkpt lat="45.96488" lon="4.782">
        <ele>200</ele>
        <time>2017-06-26T08:01:26Z</time>
      </trkpt>
      <trkpt lat="45.96496" lon="4.78206">
        <ele>200</ele>
        <time>2017-06-26T08:01:28Z</time>
      </trkpt>
      <trkpt lat="45.96499" lon="4.7821">
        <ele>200</ele>
        <time>2017-06-26T08:01:29Z</time>
      </trkpt>
      <trkpt lat="45.96505" lon="4.78217">
        <ele>204</ele>
        <time>2017-06-26T08:01:31Z</time>
      </trkpt>
      <trkpt lat="45.96509" lon="4.78222">
        <ele>204</ele>
        <time>2017-06-26T08:01:32Z</time>
      </trkpt>
      <trkpt lat="45.96512" lon="4.78227">
        <ele>204</ele>
        <time>2017-06-26T08:01:33Z</time>
      </trkpt>
      <trkpt lat="45.96516" lon="4.78232">
        <ele>203</ele>
        <time>2017-06-26T08:01:34Z</time>
      </trkpt>
      <trkpt lat="45.96519" lon="4.78239">
        <ele>203</ele>
        <time>2017-06-26T08:01:35Z</time>
      </trkpt>
      <trkpt lat="45.96522" lon="4.78245">
        <ele>203</ele>
        <time>2017-06-26T08:01:36Z</time>
      </trkpt>
      <trkpt lat="45.96526" lon="4.78252">
        <ele>200</ele>
        <time>2017-06-26T08:01:37Z</time>
      </trkpt>
      <trkpt lat="45.9653" lon="4.78257">
        <ele>200</ele>
        <time>2017-06-26T08:01:38Z</time>
      </trkpt>
      <trkpt lat="45.96534" lon="4.78262">
        <ele>200</ele>
        <time>2017-06-26T08:01:39Z</time>
      </trkpt>
      <trkpt lat="45.96538" lon="4.78268">
        <ele>200</ele>
        <time>2017-06-26T08:01:40Z</time>
      </trkpt>
      <trkpt lat="45.96541" lon="4.78273">
        <ele>200</ele>
        <time>2017-06-26T08:01:41Z</time>
      </trkpt>
      <trkpt lat="45.96545" lon="4.78279">
        <ele>200</ele>
        <time>2017-06-26T08:01:42Z</time>
      </trkpt>
      <trkpt lat="45.96549" lon="4.78285">
        <ele>200</ele>
        <time>2017-06-26T08:01:43Z</time>
      </trkpt>
      <trkpt lat="45.96553" lon="4.7829">
        <ele>200</ele>
        <time>2017-06-26T08:01:44Z</time>
      </trkpt>
      <trkpt lat="45.96556" lon="4.78296">
        <ele>200</ele>
        <time>2017-06-26T08:01:45Z</time>
      </trkpt>
      <trkpt lat="45.9656" lon="4.783">
        <ele>200</ele>
        <time>2017-06-26T08:01:46Z</time>
      </trkpt>
      <trkpt lat="45.96564" lon="4.78304">
        <ele>200</ele>
        <time>2017-06-26T08:01:47Z</time>
      </trkpt>
      <trkpt lat="45.96569" lon="4.78307">
        <ele>200</ele>
        <time>2017-06-26T08:01:48Z</time>
      </trkpt>
      <trkpt lat="45.96573" lon="4.7831">
        <ele>199</ele>
        <time>2017-06-26T08:01:49Z</time>
      </trkpt>
      <trkpt lat="45.96576" lon="4.78313">
        <ele>199</ele>
        <time>2017-06-26T08:01:50Z</time>
      </trkpt>
      <trkpt lat="45.9658" lon="4.78317">
        <ele>199</ele>
        <time>2017-06-26T08:01:51Z</time>
      </trkpt>
      <trkpt lat="45.96584" lon="4.78321">
        <ele>201</ele>
        <time>2017-06-26T08:01:52Z</time>
      </trkpt>
      <trkpt lat="45.96591" lon="4.78328">
        <ele>201</ele>
        <time>2017-06-26T08:01:54Z</time>
      </trkpt>
      <trkpt lat="45.96594" lon="4.78332">
        <ele>201</ele>
        <time>2017-06-26T08:01:55Z</time>
      </trkpt>
      <trkpt lat="45.96599" lon="4.78336">
        <ele>199</ele>
        <time>2017-06-26T08:01:56Z</time>
      </trkpt>
      <trkpt lat="45.96603" lon="4.78339">
        <ele>200</ele>
        <time>2017-06-26T08:01:57Z</time>
      </trkpt>
      <trkpt lat="45.96607" lon="4.78343">
        <ele>200</ele>
        <time>2017-06-26T08:01:58Z</time>
      </trkpt>
      <trkpt lat="45.96611" lon="4.78347">
        <ele>200</ele>
        <time>2017-06-26T08:01:59Z</time>
      </trkpt>
      <trkpt lat="45.96615" lon="4.7835">
        <ele>201</ele>
        <time>2017-06-26T08:02:00Z</time>
      </trkpt>
      <trkpt lat="45.96619" lon="4.78354">
        <ele>201</ele>
        <time>2017-06-26T08:02:01Z</time>
      </trkpt>
      <trkpt lat="45.96627" lon="4.7836">
        <ele>201</ele>
        <time>2017-06-26T08:02:03Z</time>
      </trkpt>
      <trkpt lat="45.9663" lon="4.78363">
        <ele>201</ele>
        <time>2017-06-26T08:02:04Z</time>
      </trkpt>
      <trkpt lat="45.96634" lon="4.78366">
        <ele>201</ele>
        <time>2017-06-26T08:02:05Z</time>
      </trkpt>
      <trkpt lat="45.96638" lon="4.78371">
        <ele>201</ele>
        <time>2017-06-26T08:02:06Z</time>
      </trkpt>
      <trkpt lat="45.96642" lon="4.78375">
        <ele>201</ele>
        <time>2017-06-26T08:02:07Z</time>
      </trkpt>
      <trkpt lat="45.96647" lon="4.7838">
        <ele>201</ele>
        <time>2017-06-26T08:02:08Z</time>
      </trkpt>
      <trkpt lat="45.96651" lon="4.78384">
        <ele>201</ele>
        <time>2017-06-26T08:02:09Z</time>
      </trkpt>
      <trkpt lat="45.96656" lon="4.78389">
        <ele>201</ele>
        <time>2017-06-26T08:02:10Z</time>
      </trkpt>
      <trkpt lat="45.9666" lon="4.78393">
        <ele>201</ele>
        <time>2017-06-26T08:02:11Z</time>
      </trkpt>
      <trkpt lat="45.96664" lon="4.78396">
        <ele>201</ele>
        <time>2017-06-26T08:02:12Z</time>
      </trkpt>
      <trkpt lat="45.96669" lon="4.78399">
        <ele>204</ele>
        <time>2017-06-26T08:02:13Z</time>
      </trkpt>
      <trkpt lat="45.96673" lon="4.78402">
        <ele>204</ele>
        <time>2017-06-26T08:02:14Z</time>
      </trkpt>
      <trkpt lat="45.96679" lon="4.78408">
        <ele>204</ele>
        <time>2017-06-26T08:02:16Z</time>
      </trkpt>
      <trkpt lat="45.96683" lon="4.78411">
        <ele>204</ele>
        <time>2017-06-26T08:02:17Z</time>
      </trkpt>
      <trkpt lat="45.96691" lon="4.78417">
        <ele>202</ele>
        <time>2017-06-26T08:02:19Z</time>
      </trkpt>
      <trkpt lat="45.96693" lon="4.78422">
        <ele>202</ele>
        <time>2017-06-26T08:02:20Z</time>
      </trkpt>
      <trkpt lat="45.967" lon="4.7843">
        <ele>203</ele>
        <time>2017-06-26T08:02:22Z</time>
      </trkpt>
      <trkpt lat="45.96703" lon="4.78435">
        <ele>203</ele>
        <time>2017-06-26T08:02:23Z</time>
      </trkpt>
      <trkpt lat="45.96707" lon="4.78439">
        <ele>203</ele>
        <time>2017-06-26T08:02:24Z</time>
      </trkpt>
      <trkpt lat="45.9671" lon="4.78443">
        <ele>203</ele>
        <time>2017-06-26T08:02:25Z</time>
      </trkpt>
      <trkpt lat="45.96714" lon="4.78448">
        <ele>203</ele>
        <time>2017-06-26T08:02:26Z</time>
      </trkpt>
      <trkpt lat="45.96717" lon="4.78452">
        <ele>203</ele>
        <time>2017-06-26T08:02:27Z</time>
      </trkpt>
      <trkpt lat="45.96722" lon="4.78456">
        <ele>203</ele>
        <time>2017-06-26T08:02:28Z</time>
      </trkpt>
      <trkpt lat="45.96726" lon="4.7846">
        <ele>203</ele>
        <time>2017-06-26T08:02:29Z</time>
      </trkpt>
      <trkpt lat="45.9673" lon="4.78464">
        <ele>203</ele>
        <time>2017-06-26T08:02:30Z</time>
      </trkpt>
      <trkpt lat="45.96735" lon="4.78468">
        <ele>203</ele>
        <time>2017-06-26T08:02:31Z</time>
      </trkpt>
      <trkpt lat="45.96739" lon="4.78472">
        <ele>203</ele>
        <time>2017-06-26T08:02:32Z</time>
      </trkpt>
      <trkpt lat="45.96744" lon="4.78476">
        <ele>203</ele>
        <time>2017-06-26T08:02:33Z</time>
      </trkpt>
      <trkpt lat="45.96749" lon="4.7848">
        <ele>203</ele>
        <time>2017-06-26T08:02:34Z</time>
      </trkpt>
      <trkpt lat="45.96754" lon="4.78483">
        <ele>205</ele>
        <time>2017-06-26T08:02:35Z</time>
      </trkpt>
      <trkpt lat="45.96758" lon="4.78487">
        <ele>205</ele>
        <time>2017-06-26T08:02:36Z</time>
      </trkpt>
      <trkpt lat="45.96761" lon="4.78492">
        <ele>204</ele>
        <time>2017-06-26T08:02:37Z</time>
      </trkpt>
      <trkpt lat="45.96765" lon="4.78496">
        <ele>205</ele>
        <time>2017-06-26T08:02:38Z</time>
      </trkpt>
      <trkpt lat="45.96768" lon="4.78501">
        <ele>203</ele>
        <time>2017-06-26T08:02:39Z</time>
      </trkpt>
      <trkpt lat="45.96771" lon="4.78506">
        <ele>203</ele>
        <time>2017-06-26T08:02:40Z</time>
      </trkpt>
      <trkpt lat="45.96774" lon="4.78511">
        <ele>203</ele>
        <time>2017-06-26T08:02:41Z</time>
      </trkpt>
      <trkpt lat="45.96777" lon="4.78517">
        <ele>203</ele>
        <time>2017-06-26T08:02:42Z</time>
      </trkpt>
      <trkpt lat="45.96781" lon="4.78523">
        <ele>203</ele>
        <time>2017-06-26T08:02:43Z</time>
      </trkpt>
      <trkpt lat="45.96784" lon="4.7853">
        <ele>203</ele>
        <time>2017-06-26T08:02:44Z</time>
      </trkpt>
      <trkpt lat="45.96787" lon="4.78535">
        <ele>203</ele>
        <time>2017-06-26T08:02:45Z</time>
      </trkpt>
      <trkpt lat="45.9679" lon="4.78539">
        <ele>203</ele>
        <time>2017-06-26T08:02:46Z</time>
      </trkpt>
      <trkpt lat="45.96793" lon="4.78546">
        <ele>203</ele>
        <time>2017-06-26T08:02:47Z</time>
      </trkpt>
      <trkpt lat="45.96799" lon="4.78555">
        <ele>203</ele>
        <time>2017-06-26T08:02:49Z</time>
      </trkpt>
      <trkpt lat="45.96802" lon="4.7856">
        <ele>203</ele>
        <time>2017-06-26T08:02:50Z</time>
      </trkpt>
      <trkpt lat="45.96805" lon="4.78565">
        <ele>203</ele>
        <time>2017-06-26T08:02:51Z</time>
      </trkpt>
      <trkpt lat="45.96808" lon="4.78571">
        <ele>203</ele>
        <time>2017-06-26T08:02:52Z</time>
      </trkpt>
      <trkpt lat="45.96811" lon="4.78576">
        <ele>203</ele>
        <time>2017-06-26T08:02:53Z</time>
      </trkpt>
      <trkpt lat="45.96814" lon="4.78581">
        <ele>203</ele>
        <time>2017-06-26T08:02:54Z</time>
      </trkpt>
      <trkpt lat="45.96817" lon="4.78586">
        <ele>202</ele>
        <time>2017-06-26T08:02:55Z</time>
      </trkpt>
      <trkpt lat="45.9682" lon="4.78592">
        <ele>202</ele>
        <time>2017-06-26T08:02:56Z</time>
      </trkpt>
      <trkpt lat="45.96822" lon="4.78598">
        <ele>202</ele>
        <time>2017-06-26T08:02:57Z</time>
      </trkpt>
      <trkpt lat="45.96824" lon="4.78604">
        <ele>202</ele>
        <time>2017-06-26T08:02:58Z</time>
      </trkpt>
      <trkpt lat="45.96826" lon="4.78611">
        <ele>202</ele>
        <time>2017-06-26T08:02:59Z</time>
      </trkpt>
      <trkpt lat="45.96828" lon="4.78617">
        <ele>202</ele>
        <time>2017-06-26T08:03:00Z</time>
      </trkpt>
      <trkpt lat="45.9683" lon="4.78623">
        <ele>201</ele>
        <time>2017-06-26T08:03:01Z</time>
      </trkpt>
      <trkpt lat="45.96832" lon="4.78629">
        <ele>201</ele>
        <time>2017-06-26T08:03:02Z</time>
      </trkpt>
      <trkpt lat="45.96835" lon="4.78636">
        <ele>203</ele>
        <time>2017-06-26T08:03:03Z</time>
      </trkpt>
      <trkpt lat="45.96837" lon="4.78642">
        <ele>203</ele>
        <time>2017-06-26T08:03:04Z</time>
      </trkpt>
      <trkpt lat="45.96842" lon="4.78652">
        <ele>202</ele>
        <time>2017-06-26T08:03:06Z</time>
      </trkpt>
      <trkpt lat="45.96844" lon="4.78656">
        <ele>202</ele>
        <time>2017-06-26T08:03:07Z</time>
      </trkpt>
      <trkpt lat="45.96847" lon="4.78662">
        <ele>202</ele>
        <time>2017-06-26T08:03:08Z</time>
      </trkpt>
      <trkpt lat="45.96849" lon="4.78668">
        <ele>202</ele>
        <time>2017-06-26T08:03:09Z</time>
      </trkpt>
      <trkpt lat="45.96854" lon="4.78678">
        <ele>202</ele>
        <time>2017-06-26T08:03:11Z</time>
      </trkpt>
      <trkpt lat="45.96856" lon="4.78683">
        <ele>202</ele>
        <time>2017-06-26T08:03:12Z</time>
      </trkpt>
      <trkpt lat="45.96861" lon="4.78692">
        <ele>202</ele>
        <time>2017-06-26T08:03:14Z</time>
      </trkpt>
      <trkpt lat="45.96863" lon="4.78697">
        <ele>202</ele>
        <time>2017-06-26T08:03:15Z</time>
      </trkpt>
      <trkpt lat="45.96865" lon="4.78703">
        <ele>202</ele>
        <time>2017-06-26T08:03:16Z</time>
      </trkpt>
      <trkpt lat="45.96868" lon="4.78709">
        <ele>202</ele>
        <time>2017-06-26T08:03:17Z</time>
      </trkpt>
      <trkpt lat="45.96871" lon="4.78714">
        <ele>202</ele>
        <time>2017-06-26T08:03:18Z</time>
      </trkpt>
      <trkpt lat="45.96873" lon="4.7872">
        <ele>202</ele>
        <time>2017-06-26T08:03:19Z</time>
      </trkpt>
      <trkpt lat="45.96876" lon="4.78726">
        <ele>202</ele>
        <time>2017-06-26T08:03:20Z</time>
      </trkpt>
      <trkpt lat="45.96878" lon="4.78731">
        <ele>202</ele>
        <time>2017-06-26T08:03:21Z</time>
      </trkpt>
      <trkpt lat="45.96883" lon="4.78742">
        <ele>202</ele>
        <time>2017-06-26T08:03:23Z</time>
      </trkpt>
      <trkpt lat="45.96886" lon="4.78747">
        <ele>202</ele>
        <time>2017-06-26T08:03:24Z</time>
      </trkpt>
      <trkpt lat="45.96892" lon="4.78757">
        <ele>201</ele>
        <time>2017-06-26T08:03:26Z</time>
      </trkpt>
      <trkpt lat="45.96894" lon="4.78762">
        <ele>201</ele>
        <time>2017-06-26T08:03:27Z</time>
      </trkpt>
      <trkpt lat="45.96899" lon="4.78771">
        <ele>201</ele>
        <time>2017-06-26T08:03:29Z</time>
      </trkpt>
      <trkpt lat="45.96901" lon="4.78776">
        <ele>201</ele>
        <time>2017-06-26T08:03:30Z</time>
      </trkpt>
      <trkpt lat="45.96907" lon="4.78786">
        <ele>201</ele>
        <time>2017-06-26T08:03:32Z</time>
      </trkpt>
      <trkpt lat="45.9691" lon="4.78792">
        <ele>201</ele>
        <time>2017-06-26T08:03:33Z</time>
      </trkpt>
      <trkpt lat="45.96912" lon="4.78798">
        <ele>201</ele>
        <time>2017-06-26T08:03:34Z</time>
      </trkpt>
      <trkpt lat="45.96915" lon="4.78804">
        <ele>200</ele>
        <time>2017-06-26T08:03:35Z</time>
      </trkpt>
      <trkpt lat="45.96918" lon="4.7881">
        <ele>202</ele>
        <time>2017-06-26T08:03:36Z</time>
      </trkpt>
      <trkpt lat="45.96922" lon="4.78815">
        <ele>202</ele>
        <time>2017-06-26T08:03:37Z</time>
      </trkpt>
      <trkpt lat="45.96925" lon="4.7882">
        <ele>202</ele>
        <time>2017-06-26T08:03:38Z</time>
      </trkpt>
      <trkpt lat="45.96929" lon="4.78825">
        <ele>202</ele>
        <time>2017-06-26T08:03:39Z</time>
      </trkpt>
      <trkpt lat="45.96932" lon="4.7883">
        <ele>202</ele>
        <time>2017-06-26T08:03:40Z</time>
      </trkpt>
      <trkpt lat="45.96935" lon="4.78834">
        <ele>202</ele>
        <time>2017-06-26T08:03:41Z</time>
      </trkpt>
      <trkpt lat="45.96942" lon="4.78843">
        <ele>202</ele>
        <time>2017-06-26T08:03:43Z</time>
      </trkpt>
      <trkpt lat="45.96945" lon="4.78847">
        <ele>202</ele>
        <time>2017-06-26T08:03:44Z</time>
      </trkpt>
      <trkpt lat="45.96949" lon="4.78851">
        <ele>202</ele>
        <time>2017-06-26T08:03:45Z</time>
      </trkpt>
      <trkpt lat="45.96952" lon="4.78855">
        <ele>203</ele>
        <time>2017-06-26T08:03:46Z</time>
      </trkpt>
      <trkpt lat="45.96956" lon="4.78859">
        <ele>203</ele>
        <time>2017-06-26T08:03:47Z</time>
      </trkpt>
      <trkpt lat="45.9696" lon="4.78863">
        <ele>203</ele>
        <time>2017-06-26T08:03:48Z</time>
      </trkpt>
      <trkpt lat="45.96967" lon="4.78871">
        <ele>203</ele>
        <time>2017-06-26T08:03:50Z</time>
      </trkpt>
      <trkpt lat="45.9697" lon="4.78874">
        <ele>203</ele>
        <time>2017-06-26T08:03:51Z</time>
      </trkpt>
      <trkpt lat="45.96976" lon="4.78882">
        <ele>203</ele>
        <time>2017-06-26T08:03:53Z</time>
      </trkpt>
      <trkpt lat="45.96979" lon="4.78885">
        <ele>203</ele>
        <time>2017-06-26T08:03:54Z</time>
      </trkpt>
      <trkpt lat="45.96985" lon="4.78893">
        <ele>203</ele>
        <time>2017-06-26T08:03:56Z</time>
      </trkpt>
      <trkpt lat="45.96989" lon="4.78898">
        <ele>203</ele>
        <time>2017-06-26T08:03:57Z</time>
      </trkpt>
      <trkpt lat="45.96993" lon="4.78902">
        <ele>203</ele>
        <time>2017-06-26T08:03:58Z</time>
      </trkpt>
      <trkpt lat="45.96996" lon="4.78906">
        <ele>204</ele>
        <time>2017-06-26T08:03:59Z</time>
      </trkpt>
      <trkpt lat="45.97" lon="4.7891">
        <ele>204</ele>
        <time>2017-06-26T08:04:00Z</time>
      </trkpt>
      <trkpt lat="45.97003" lon="4.78914">
        <ele>205</ele>
        <time>2017-06-26T08:04:01Z</time>
      </trkpt>
      <trkpt lat="45.97007" lon="4.78919">
        <ele>204</ele>
        <time>2017-06-26T08:04:02Z</time>
      </trkpt>
      <trkpt lat="45.9701" lon="4.78923">
        <ele>204</ele>
        <time>2017-06-26T08:04:03Z</time>
      </trkpt>
      <trkpt lat="45.97014" lon="4.78928">
        <ele>205</ele>
        <time>2017-06-26T08:04:04Z</time>
      </trkpt>
      <trkpt lat="45.97017" lon="4.78932">
        <ele>205</ele>
        <time>2017-06-26T08:04:05Z</time>
      </trkpt>
      <trkpt lat="45.9702" lon="4.78937">
        <ele>205</ele>
        <time>2017-06-26T08:04:06Z</time>
      </trkpt>
      <trkpt lat="45.97024" lon="4.78942">
        <ele>205</ele>
        <time>2017-06-26T08:04:07Z</time>
      </trkpt>
      <trkpt lat="45.97027" lon="4.78947">
        <ele>205</ele>
        <time>2017-06-26T08:04:08Z</time>
      </trkpt>
      <trkpt lat="45.9703" lon="4.78952">
        <ele>205</ele>
        <time>2017-06-26T08:04:09Z</time>
      </trkpt>
      <trkpt lat="45.97035" lon="4.78962">
        <ele>205</ele>
        <time>2017-06-26T08:04:11Z</time>
      </trkpt>
      <trkpt lat="45.97038" lon="4.78966">
        <ele>205</ele>
        <time>2017-06-26T08:04:12Z</time>
      </trkpt>
      <trkpt lat="45.97042" lon="4.78976">
        <ele>205</ele>
        <time>2017-06-26T08:04:14Z</time>
      </trkpt>
      <trkpt lat="45.97044" lon="4.78982">
        <ele>205</ele>
        <time>2017-06-26T08:04:15Z</time>
      </trkpt>
      <trkpt lat="45.97046" lon="4.78988">
        <ele>205</ele>
        <time>2017-06-26T08:04:16Z</time>
      </trkpt>
      <trkpt lat="45.97047" lon="4.78996">
        <ele>204</ele>
        <time>2017-06-26T08:04:17Z</time>
      </trkpt>
      <trkpt lat="45.97048" lon="4.79007">
        <ele>203</ele>
        <time>2017-06-26T08:04:19Z</time>
      </trkpt>
      <trkpt lat="45.9705" lon="4.79013">
        <ele>203</ele>
        <time>2017-06-26T08:04:20Z</time>
      </trkpt>
      <trkpt lat="45.97052" lon="4.79021">
        <ele>203</ele>
        <time>2017-06-26T08:04:21Z</time>
      </trkpt>
      <trkpt lat="45.97055" lon="4.79028">
        <ele>203</ele>
        <time>2017-06-26T08:04:22Z</time>
      </trkpt>
      <trkpt lat="45.97057" lon="4.79035">
        <ele>203</ele>
        <time>2017-06-26T08:04:23Z</time>
      </trkpt>
      <trkpt lat="45.97058" lon="4.79042">
        <ele>203</ele>
        <time>2017-06-26T08:04:24Z</time>
      </trkpt>
      <trkpt lat="45.9706" lon="4.79049">
        <ele>203</ele>
        <time>2017-06-26T08:04:25Z</time>
      </trkpt>
      <trkpt lat="45.97061" lon="4.79056">
        <ele>203</ele>
        <time>2017-06-26T08:04:26Z</time>
      </trkpt>
      <trkpt lat="45.97063" lon="4.79063">
        <ele>203</ele>
        <time>2017-06-26T08:04:27Z</time>
      </trkpt>
      <trkpt lat="45.97065" lon="4.7907">
        <ele>203</ele>
        <time>2017-06-26T08:04:28Z</time>
      </trkpt>
      <trkpt lat="45.97067" lon="4.79076">
        <ele>203</ele>
        <time>2017-06-26T08:04:29Z</time>
      </trkpt>
      <trkpt lat="45.97068" lon="4.79083">
        <ele>204</ele>
        <time>2017-06-26T08:04:30Z</time>
      </trkpt>
      <trkpt lat="45.9707" lon="4.79089">
        <ele>204</ele>
        <time>2017-06-26T08:04:31Z</time>
      </trkpt>
      <trkpt lat="45.97072" lon="4.79096">
        <ele>204</ele>
        <time>2017-06-26T08:04:32Z</time>
      </trkpt>
      <trkpt lat="45.97074" lon="4.79103">
        <ele>204</ele>
        <time>2017-06-26T08:04:33Z</time>
      </trkpt>
      <trkpt lat="45.97076" lon="4.79109">
        <ele>204</ele>
        <time>2017-06-26T08:04:34Z</time>
      </trkpt>
      <trkpt lat="45.9708" lon="4.79119">
        <ele>204</ele>
        <time>2017-06-26T08:04:36Z</time>
      </trkpt>
      <trkpt lat="45.97083" lon="4.79124">
        <ele>204</ele>
        <time>2017-06-26T08:04:37Z</time>
      </trkpt>
      <trkpt lat="45.97086" lon="4.79129">
        <ele>206</ele>
        <time>2017-06-26T08:04:38Z</time>
      </trkpt>
      <trkpt lat="45.97089" lon="4.79135">
        <ele>206</ele>
        <time>2017-06-26T08:04:39Z</time>
      </trkpt>
      <trkpt lat="45.97093" lon="4.7914">
        <ele>206</ele>
        <time>2017-06-26T08:04:40Z</time>
      </trkpt>
      <trkpt lat="45.97096" lon="4.79146">
        <ele>206</ele>
        <time>2017-06-26T08:04:41Z</time>
      </trkpt>
      <trkpt lat="45.971" lon="4.79152">
        <ele>206</ele>
        <time>2017-06-26T08:04:42Z</time>
      </trkpt>
      <trkpt lat="45.97103" lon="4.79158">
        <ele>206</ele>
        <time>2017-06-26T08:04:43Z</time>
      </trkpt>
      <trkpt lat="45.97106" lon="4.79164">
        <ele>206</ele>
        <time>2017-06-26T08:04:44Z</time>
      </trkpt>
      <trkpt lat="45.97108" lon="4.79171">
        <ele>205</ele>
        <time>2017-06-26T08:04:45Z</time>
      </trkpt>
      <trkpt lat="45.9711" lon="4.79177">
        <ele>205</ele>
        <time>2017-06-26T08:04:46Z</time>
      </trkpt>
      <trkpt lat="45.97113" lon="4.79183">
        <ele>205</ele>
        <time>2017-06-26T08:04:47Z</time>
      </trkpt>
      <trkpt lat="45.97117" lon="4.79194">
        <ele>205</ele>
        <time>2017-06-26T08:04:49Z</time>
      </trkpt>
      <trkpt lat="45.97119" lon="4.792">
        <ele>205</ele>
        <time>2017-06-26T08:04:50Z</time>
      </trkpt>
      <trkpt lat="45.97121" lon="4.79205">
        <ele>205</ele>
        <time>2017-06-26T08:04:51Z</time>
      </trkpt>
      <trkpt lat="45.97124" lon="4.79211">
        <ele>205</ele>
        <time>2017-06-26T08:04:52Z</time>
      </trkpt>
      <trkpt lat="45.97127" lon="4.79217">
        <ele>205</ele>
        <time>2017-06-26T08:04:53Z</time>
      </trkpt>
      <trkpt lat="45.97129" lon="4.79223">
        <ele>205</ele>
        <time>2017-06-26T08:04:54Z</time>
      </trkpt>
      <trkpt lat="45.97132" lon="4.79229">
        <ele>205</ele>
        <time>2017-06-26T08:04:55Z</time>
      </trkpt>
      <trkpt lat="45.97135" lon="4.79235">
        <ele>205</ele>
        <time>2017-06-26T08:04:56Z</time>
      </trkpt>
      <trkpt lat="45.97138" lon="4.79241">
        <ele>205</ele>
        <time>2017-06-26T08:04:57Z</time>
      </trkpt>
      <trkpt lat="45.97141" lon="4.79248">
        <ele>205</ele>
        <time>2017-06-26T08:04:58Z</time>
      </trkpt>
      <trkpt lat="45.97144" lon="4.79254">
        <ele>204</ele>
        <time>2017-06-26T08:04:59Z</time>
      </trkpt>
      <trkpt lat="45.97146" lon="4.7926">
        <ele>204</ele>
        <time>2017-06-26T08:05:00Z</time>
      </trkpt>
      <trkpt lat="45.97149" lon="4.79266">
        <ele>204</ele>
        <time>2017-06-26T08:05:01Z</time>
      </trkpt>
      <trkpt lat="45.97151" lon="4.79272">
        <ele>204</ele>
        <time>2017-06-26T08:05:02Z</time>
      </trkpt>
      <trkpt lat="45.97153" lon="4.79278">
        <ele>204</ele>
        <time>2017-06-26T08:05:03Z</time>
      </trkpt>
      <trkpt lat="45.97155" lon="4.79284">
        <ele>204</ele>
        <time>2017-06-26T08:05:04Z</time>
      </trkpt>
      <trkpt lat="45.97157" lon="4.7929">
        <ele>204</ele>
        <time>2017-06-26T08:05:05Z</time>
      </trkpt>
      <trkpt lat="45.9716" lon="4.79296">
        <ele>204</ele>
        <time>2017-06-26T08:05:06Z</time>
      </trkpt>
      <trkpt lat="45.97162" lon="4.79303">
        <ele>204</ele>
        <time>2017-06-26T08:05:07Z</time>
      </trkpt>
      <trkpt lat="45.97165" lon="4.79309">
        <ele>204</ele>
        <time>2017-06-26T08:05:08Z</time>
      </trkpt>
      <trkpt lat="45.97167" lon="4.79316">
        <ele>207</ele>
        <time>2017-06-26T08:05:09Z</time>
      </trkpt>
      <trkpt lat="45.9717" lon="4.79322">
        <ele>206</ele>
        <time>2017-06-26T08:05:10Z</time>
      </trkpt>
      <trkpt lat="45.97173" lon="4.79329">
        <ele>206</ele>
        <time>2017-06-26T08:05:11Z</time>
      </trkpt>
      <trkpt lat="45.97176" lon="4.79335">
        <ele>206</ele>
        <time>2017-06-26T08:05:12Z</time>
      </trkpt>
      <trkpt lat="45.97179" lon="4.79341">
        <ele>206</ele>
        <time>2017-06-26T08:05:13Z</time>
      </trkpt>
      <trkpt lat="45.97182" lon="4.79347">
        <ele>207</ele>
        <time>2017-06-26T08:05:14Z</time>
      </trkpt>
      <trkpt lat="45.97185" lon="4.79354">
        <ele>207</ele>
        <time>2017-06-26T08:05:15Z</time>
      </trkpt>
      <trkpt lat="45.97187" lon="4.7936">
        <ele>207</ele>
        <time>2017-06-26T08:05:16Z</time>
      </trkpt>
      <trkpt lat="45.97189" lon="4.79366">
        <ele>207</ele>
        <time>2017-06-26T08:05:17Z</time>
      </trkpt>
      <trkpt lat="45.97192" lon="4.79371">
        <ele>207</ele>
        <time>2017-06-26T08:05:18Z</time>
      </trkpt>
      <trkpt lat="45.97194" lon="4.79377">
        <ele>207</ele>
        <time>2017-06-26T08:05:19Z</time>
      </trkpt>
      <trkpt lat="45.97197" lon="4.79383">
        <ele>207</ele>
        <time>2017-06-26T08:05:20Z</time>
      </trkpt>
      <trkpt lat="45.97199" lon="4.79389">
        <ele>207</ele>
        <time>2017-06-26T08:05:21Z</time>
      </trkpt>
      <trkpt lat="45.97201" lon="4.79395">
        <ele>207</ele>
        <time>2017-06-26T08:05:22Z</time>
      </trkpt>
      <trkpt lat="45.97206" lon="4.79405">
        <ele>208</ele>
        <time>2017-06-26T08:05:24Z</time>
      </trkpt>
      <trkpt lat="45.97208" lon="4.79411">
        <ele>208</ele>
        <time>2017-06-26T08:05:25Z</time>
      </trkpt>
      <trkpt lat="45.97213" lon="4.79421">
        <ele>208</ele>
        <time>2017-06-26T08:05:27Z</time>
      </trkpt>
      <trkpt lat="45.97215" lon="4.79426">
        <ele>208</ele>
        <time>2017-06-26T08:05:28Z</time>
      </trkpt>
      <trkpt lat="45.9722" lon="4.79436">
        <ele>208</ele>
        <time>2017-06-26T08:05:30Z</time>
      </trkpt>
      <trkpt lat="45.97222" lon="4.79442">
        <ele>209</ele>
        <time>2017-06-26T08:05:31Z</time>
      </trkpt>
      <trkpt lat="45.97226" lon="4.79453">
        <ele>209</ele>
        <time>2017-06-26T08:05:33Z</time>
      </trkpt>
      <trkpt lat="45.97228" lon="4.79458">
        <ele>209</ele>
        <time>2017-06-26T08:05:34Z</time>
      </trkpt>
      <trkpt lat="45.97231" lon="4.79467">
        <ele>209</ele>
        <time>2017-06-26T08:05:36Z</time>
      </trkpt>
      <trkpt lat="45.97232" lon="4.79473">
        <ele>209</ele>
        <time>2017-06-26T08:05:37Z</time>
      </trkpt>
      <trkpt lat="45.97234" lon="4.79479">
        <ele>209</ele>
        <time>2017-06-26T08:05:38Z</time>
      </trkpt>
      <trkpt lat="45.97236" lon="4.79485">
        <ele>209</ele>
        <time>2017-06-26T08:05:39Z</time>
      </trkpt>
      <trkpt lat="45.97238" lon="4.79492">
        <ele>210</ele>
        <time>2017-06-26T08:05:40Z</time>
      </trkpt>
      <trkpt lat="45.9724" lon="4.79499">
        <ele>210</ele>
        <time>2017-06-26T08:05:41Z</time>
      </trkpt>
      <trkpt lat="45.97241" lon="4.79506">
        <ele>210</ele>
        <time>2017-06-26T08:05:42Z</time>
      </trkpt>
      <trkpt lat="45.97242" lon="4.79513">
        <ele>210</ele>
        <time>2017-06-26T08:05:43Z</time>
      </trkpt>
      <trkpt lat="45.97244" lon="4.79519">
        <ele>210</ele>
        <time>2017-06-26T08:05:44Z</time>
      </trkpt>
      <trkpt lat="45.97244" lon="4.79525">
        <ele>210</ele>
        <time>2017-06-26T08:05:45Z</time>
      </trkpt>
      <trkpt lat="45.97247" lon="4.79537">
        <ele>210</ele>
        <time>2017-06-26T08:05:47Z</time>
      </trkpt>
      <trkpt lat="45.97248" lon="4.79542">
        <ele>210</ele>
        <time>2017-06-26T08:05:48Z</time>
      </trkpt>
      <trkpt lat="45.97249" lon="4.79547">
        <ele>210</ele>
        <time>2017-06-26T08:05:49Z</time>
      </trkpt>
      <trkpt lat="45.9725" lon="4.79555">
        <ele>213</ele>
        <time>2017-06-26T08:05:50Z</time>
      </trkpt>
      <trkpt lat="45.97252" lon="4.79561">
        <ele>213</ele>
        <time>2017-06-26T08:05:51Z</time>
      </trkpt>
      <trkpt lat="45.97252" lon="4.79568">
        <ele>212</ele>
        <time>2017-06-26T08:05:52Z</time>
      </trkpt>
      <trkpt lat="45.97252" lon="4.79575">
        <ele>212</ele>
        <time>2017-06-26T08:05:53Z</time>
      </trkpt>
      <trkpt lat="45.97252" lon="4.79583">
        <ele>211</ele>
        <time>2017-06-26T08:05:54Z</time>
      </trkpt>
      <trkpt lat="45.97252" lon="4.7959">
        <ele>211</ele>
        <time>2017-06-26T08:05:55Z</time>
      </trkpt>
      <trkpt lat="45.9725" lon="4.79597">
        <ele>212</ele>
        <time>2017-06-26T08:05:56Z</time>
      </trkpt>
      <trkpt lat="45.9725" lon="4.79604">
        <ele>209</ele>
        <time>2017-06-26T08:05:57Z</time>
      </trkpt>
      <trkpt lat="45.9725" lon="4.79611">
        <ele>209</ele>
        <time>2017-06-26T08:05:58Z</time>
      </trkpt>
      <trkpt lat="45.9725" lon="4.79617">
        <ele>209</ele>
        <time>2017-06-26T08:05:59Z</time>
      </trkpt>
      <trkpt lat="45.9725" lon="4.79624">
        <ele>209</ele>
        <time>2017-06-26T08:06:00Z</time>
      </trkpt>
      <trkpt lat="45.9725" lon="4.79635">
        <ele>212</ele>
        <time>2017-06-26T08:06:02Z</time>
      </trkpt>
      <trkpt lat="45.97251" lon="4.79641">
        <ele>212</ele>
        <time>2017-06-26T08:06:03Z</time>
      </trkpt>
      <trkpt lat="45.9725" lon="4.79651">
        <ele>211</ele>
        <time>2017-06-26T08:06:05Z</time>
      </trkpt>
      <trkpt lat="45.9725" lon="4.79656">
        <ele>208</ele>
        <time>2017-06-26T08:06:06Z</time>
      </trkpt>
      <trkpt lat="45.97248" lon="4.79667">
        <ele>208</ele>
        <time>2017-06-26T08:06:08Z</time>
      </trkpt>
      <trkpt lat="45.97247" lon="4.79672">
        <ele>208</ele>
        <time>2017-06-26T08:06:09Z</time>
      </trkpt>
      <trkpt lat="45.97244" lon="4.79685">
        <ele>208</ele>
        <time>2017-06-26T08:06:11Z</time>
      </trkpt>
      <trkpt lat="45.97243" lon="4.79691">
        <ele>208</ele>
        <time>2017-06-26T08:06:12Z</time>
      </trkpt>
      <trkpt lat="45.97241" lon="4.79697">
        <ele>208</ele>
        <time>2017-06-26T08:06:13Z</time>
      </trkpt>
      <trkpt lat="45.9724" lon="4.79704">
        <ele>208</ele>
        <time>2017-06-26T08:06:14Z</time>
      </trkpt>
      <trkpt lat="45.9724" lon="4.79711">
        <ele>209</ele>
        <time>2017-06-26T08:06:15Z</time>
      </trkpt>
      <trkpt lat="45.97239" lon="4.79718">
        <ele>209</ele>
        <time>2017-06-26T08:06:16Z</time>
      </trkpt>
      <trkpt lat="45.97238" lon="4.79724">
        <ele>209</ele>
        <time>2017-06-26T08:06:17Z</time>
      </trkpt>
      <trkpt lat="45.97237" lon="4.79731">
        <ele>209</ele>
        <time>2017-06-26T08:06:18Z</time>
      </trkpt>
      <trkpt lat="45.97236" lon="4.79743">
        <ele>209</ele>
        <time>2017-06-26T08:06:20Z</time>
      </trkpt>
      <trkpt lat="45.97236" lon="4.7975">
        <ele>209</ele>
        <time>2017-06-26T08:06:21Z</time>
      </trkpt>
      <trkpt lat="45.97235" lon="4.79757">
        <ele>209</ele>
        <time>2017-06-26T08:06:22Z</time>
      </trkpt>
      <trkpt lat="45.97235" lon="4.79764">
        <ele>209</ele>
        <time>2017-06-26T08:06:23Z</time>
      </trkpt>
      <trkpt lat="45.97234" lon="4.79777">
        <ele>210</ele>
        <time>2017-06-26T08:06:25Z</time>
      </trkpt>
      <trkpt lat="45.97235" lon="4.79783">
        <ele>210</ele>
        <time>2017-06-26T08:06:26Z</time>
      </trkpt>
      <trkpt lat="45.97234" lon="4.79795">
        <ele>210</ele>
        <time>2017-06-26T08:06:28Z</time>
      </trkpt>
      <trkpt lat="45.97233" lon="4.79801">
        <ele>210</ele>
        <time>2017-06-26T08:06:29Z</time>
      </trkpt>
      <trkpt lat="45.97233" lon="4.79808">
        <ele>210</ele>
        <time>2017-06-26T08:06:30Z</time>
      </trkpt>
      <trkpt lat="45.97233" lon="4.79815">
        <ele>210</ele>
        <time>2017-06-26T08:06:31Z</time>
      </trkpt>
      <trkpt lat="45.97233" lon="4.79822">
        <ele>211</ele>
        <time>2017-06-26T08:06:32Z</time>
      </trkpt>
      <trkpt lat="45.97233" lon="4.79828">
        <ele>211</ele>
        <time>2017-06-26T08:06:33Z</time>
      </trkpt>
      <trkpt lat="45.97233" lon="4.79841">
        <ele>211</ele>
        <time>2017-06-26T08:06:35Z</time>
      </trkpt>
      <trkpt lat="45.97234" lon="4.79847">
        <ele>211</ele>
        <time>2017-06-26T08:06:36Z</time>
      </trkpt>
      <trkpt lat="45.97236" lon="4.79859">
        <ele>211</ele>
        <time>2017-06-26T08:06:38Z</time>
      </trkpt>
      <trkpt lat="45.97238" lon="4.79865">
        <ele>211</ele>
        <time>2017-06-26T08:06:39Z</time>
      </trkpt>
      <trkpt lat="45.97242" lon="4.79875">
        <ele>211</ele>
        <time>2017-06-26T08:06:41Z</time>
      </trkpt>
      <trkpt lat="45.97243" lon="4.79879">
        <ele>211</ele>
        <time>2017-06-26T08:06:42Z</time>
      </trkpt>
      <trkpt lat="45.97246" lon="4.79888">
        <ele>211</ele>
        <time>2017-06-26T08:06:44Z</time>
      </trkpt>
      <trkpt lat="45.97248" lon="4.79893">
        <ele>211</ele>
        <time>2017-06-26T08:06:45Z</time>
      </trkpt>
      <trkpt lat="45.9725" lon="4.79905">
        <ele>213</ele>
        <time>2017-06-26T08:06:49Z</time>
      </trkpt>
      <trkpt lat="45.9725" lon="4.79906">
        <ele>213</ele>
        <time>2017-06-26T08:06:50Z</time>
      </trkpt>
      <trkpt lat="45.97257" lon="4.79912">
        <ele>212</ele>
        <time>2017-06-26T08:06:54Z</time>
      </trkpt>
      <trkpt lat="45.97261" lon="4.79913">
        <ele>213</ele>
        <time>2017-06-26T08:06:55Z</time>
      </trkpt>
      <trkpt lat="45.97269" lon="4.7991">
        <ele>213</ele>
        <time>2017-06-26T08:06:57Z</time>
      </trkpt>
      <trkpt lat="45.97273" lon="4.7991">
        <ele>213</ele>
        <time>2017-06-26T08:06:58Z</time>
      </trkpt>
      <trkpt lat="45.97281" lon="4.79909">
        <ele>213</ele>
        <time>2017-06-26T08:07:00Z</time>
      </trkpt>
      <trkpt lat="45.97285" lon="4.79909">
        <ele>213</ele>
        <time>2017-06-26T08:07:01Z</time>
      </trkpt>
      <trkpt lat="45.97293" lon="4.79909">
        <ele>213</ele>
        <time>2017-06-26T08:07:03Z</time>
      </trkpt>
      <trkpt lat="45.97298" lon="4.79909">
        <ele>213</ele>
        <time>2017-06-26T08:07:04Z</time>
      </trkpt>
      <trkpt lat="45.97302" lon="4.7991">
        <ele>213</ele>
        <time>2017-06-26T08:07:05Z</time>
      </trkpt>
      <trkpt lat="45.97307" lon="4.79909">
        <ele>213</ele>
        <time>2017-06-26T08:07:06Z</time>
      </trkpt>
      <trkpt lat="45.97314" lon="4.79909">
        <ele>213</ele>
        <time>2017-06-26T08:07:08Z</time>
      </trkpt>
      <trkpt lat="45.97318" lon="4.79908">
        <ele>213</ele>
        <time>2017-06-26T08:07:09Z</time>
      </trkpt>
      <trkpt lat="45.97326" lon="4.79907">
        <ele>213</ele>
        <time>2017-06-26T08:07:11Z</time>
      </trkpt>
      <trkpt lat="45.9733" lon="4.79907">
        <ele>213</ele>
        <time>2017-06-26T08:07:12Z</time>
      </trkpt>
      <trkpt lat="45.97338" lon="4.79907">
        <ele>215</ele>
        <time>2017-06-26T08:07:14Z</time>
      </trkpt>
      <trkpt lat="45.97342" lon="4.79906">
        <ele>215</ele>
        <time>2017-06-26T08:07:15Z</time>
      </trkpt>
      <trkpt lat="45.97349" lon="4.79904">
        <ele>216</ele>
        <time>2017-06-26T08:07:17Z</time>
      </trkpt>
      <trkpt lat="45.97353" lon="4.79903">
        <ele>216</ele>
        <time>2017-06-26T08:07:18Z</time>
      </trkpt>
      <trkpt lat="45.97362" lon="4.79903">
        <ele>216</ele>
        <time>2017-06-26T08:07:20Z</time>
      </trkpt>
      <trkpt lat="45.97366" lon="4.79902">
        <ele>216</ele>
        <time>2017-06-26T08:07:21Z</time>
      </trkpt>
      <trkpt lat="45.97373" lon="4.79899">
        <ele>217</ele>
        <time>2017-06-26T08:07:23Z</time>
      </trkpt>
      <trkpt lat="45.97377" lon="4.79897">
        <ele>217</ele>
        <time>2017-06-26T08:07:24Z</time>
      </trkpt>
      <trkpt lat="45.97384" lon="4.79895">
        <ele>217</ele>
        <time>2017-06-26T08:07:26Z</time>
      </trkpt>
      <trkpt lat="45.97387" lon="4.79895">
        <ele>217</ele>
        <time>2017-06-26T08:07:27Z</time>
      </trkpt>
      <trkpt lat="45.97395" lon="4.79896">
        <ele>217</ele>
        <time>2017-06-26T08:07:29Z</time>
      </trkpt>
      <trkpt lat="45.97399" lon="4.79897">
        <ele>217</ele>
        <time>2017-06-26T08:07:30Z</time>
      </trkpt>
      <trkpt lat="45.97408" lon="4.79897">
        <ele>217</ele>
        <time>2017-06-26T08:07:32Z</time>
      </trkpt>
      <trkpt lat="45.97412" lon="4.79897">
        <ele>217</ele>
        <time>2017-06-26T08:07:33Z</time>
      </trkpt>
      <trkpt lat="45.9742" lon="4.79896">
        <ele>219</ele>
        <time>2017-06-26T08:07:35Z</time>
      </trkpt>
      <trkpt lat="45.97424" lon="4.79896">
        <ele>219</ele>
        <time>2017-06-26T08:07:36Z</time>
      </trkpt>
      <trkpt lat="45.97432" lon="4.79895">
        <ele>220</ele>
        <time>2017-06-26T08:07:38Z</time>
      </trkpt>
      <trkpt lat="45.97436" lon="4.79895">
        <ele>220</ele>
        <time>2017-06-26T08:07:39Z</time>
      </trkpt>
      <trkpt lat="45.97445" lon="4.79895">
        <ele>220</ele>
        <time>2017-06-26T08:07:41Z</time>
      </trkpt>
      <trkpt lat="45.97449" lon="4.79894">
        <ele>220</ele>
        <time>2017-06-26T08:07:42Z</time>
      </trkpt>
      <trkpt lat="45.97457" lon="4.79894">
        <ele>220</ele>
        <time>2017-06-26T08:07:44Z</time>
      </trkpt>
      <trkpt lat="45.97461" lon="4.79893">
        <ele>221</ele>
        <time>2017-06-26T08:07:45Z</time>
      </trkpt>
      <trkpt lat="45.97469" lon="4.79892">
        <ele>221</ele>
        <time>2017-06-26T08:07:47Z</time>
      </trkpt>
      <trkpt lat="45.97473" lon="4.79892">
        <ele>221</ele>
        <time>2017-06-26T08:07:48Z</time>
      </trkpt>
      <trkpt lat="45.97482" lon="4.79891">
        <ele>221</ele>
        <time>2017-06-26T08:07:50Z</time>
      </trkpt>
      <trkpt lat="45.97485" lon="4.7989">
        <ele>221</ele>
        <time>2017-06-26T08:07:51Z</time>
      </trkpt>
      <trkpt lat="45.97493" lon="4.79889">
        <ele>221</ele>
        <time>2017-06-26T08:07:53Z</time>
      </trkpt>
      <trkpt lat="45.97496" lon="4.79888">
        <ele>221</ele>
        <time>2017-06-26T08:07:54Z</time>
      </trkpt>
      <trkpt lat="45.97503" lon="4.79888">
        <ele>221</ele>
        <time>2017-06-26T08:07:56Z</time>
      </trkpt>
      <trkpt lat="45.97507" lon="4.79888">
        <ele>221</ele>
        <time>2017-06-26T08:07:57Z</time>
      </trkpt>
      <trkpt lat="45.97515" lon="4.7989">
        <ele>221</ele>
        <time>2017-06-26T08:07:59Z</time>
      </trkpt>
      <trkpt lat="45.9752" lon="4.7989">
        <ele>221</ele>
        <time>2017-06-26T08:08:00Z</time>
      </trkpt>
      <trkpt lat="45.97528" lon="4.79888">
        <ele>221</ele>
        <time>2017-06-26T08:08:02Z</time>
      </trkpt>
      <trkpt lat="45.97532" lon="4.79888">
        <ele>221</ele>
        <time>2017-06-26T08:08:03Z</time>
      </trkpt>
      <trkpt lat="45.97539" lon="4.79887">
        <ele>221</ele>
        <time>2017-06-26T08:08:05Z</time>
      </trkpt>
      <trkpt lat="45.97542" lon="4.79886">
        <ele>221</ele>
        <time>2017-06-26T08:08:06Z</time>
      </trkpt>
      <trkpt lat="45.97549" lon="4.79885">
        <ele>221</ele>
        <time>2017-06-26T08:08:08Z</time>
      </trkpt>
      <trkpt lat="45.97553" lon="4.79884">
        <ele>221</ele>
        <time>2017-06-26T08:08:09Z</time>
      </trkpt>
      <trkpt lat="45.97561" lon="4.79882">
        <ele>221</ele>
        <time>2017-06-26T08:08:11Z</time>
      </trkpt>
      <trkpt lat="45.97565" lon="4.79881">
        <ele>221</ele>
        <time>2017-06-26T08:08:12Z</time>
      </trkpt>
      <trkpt lat="45.97572" lon="4.79878">
        <ele>221</ele>
        <time>2017-06-26T08:08:14Z</time>
      </trkpt>
      <trkpt lat="45.97576" lon="4.79877">
        <ele>221</ele>
        <time>2017-06-26T08:08:15Z</time>
      </trkpt>
      <trkpt lat="45.97583" lon="4.79874">
        <ele>222</ele>
        <time>2017-06-26T08:08:17Z</time>
      </trkpt>
      <trkpt lat="45.97586" lon="4.79872">
        <ele>221</ele>
        <time>2017-06-26T08:08:18Z</time>
      </trkpt>
      <trkpt lat="45.97594" lon="4.79871">
        <ele>221</ele>
        <time>2017-06-26T08:08:20Z</time>
      </trkpt>
      <trkpt lat="45.97598" lon="4.7987">
        <ele>221</ele>
        <time>2017-06-26T08:08:21Z</time>
      </trkpt>
      <trkpt lat="45.97604" lon="4.79867">
        <ele>221</ele>
        <time>2017-06-26T08:08:23Z</time>
      </trkpt>
      <trkpt lat="45.97608" lon="4.79866">
        <ele>221</ele>
        <time>2017-06-26T08:08:24Z</time>
      </trkpt>
      <trkpt lat="45.97616" lon="4.79863">
        <ele>221</ele>
        <time>2017-06-26T08:08:26Z</time>
      </trkpt>
      <trkpt lat="45.97619" lon="4.79861">
        <ele>221</ele>
        <time>2017-06-26T08:08:27Z</time>
      </trkpt>
      <trkpt lat="45.97626" lon="4.79857">
        <ele>221</ele>
        <time>2017-06-26T08:08:29Z</time>
      </trkpt>
      <trkpt lat="45.9763" lon="4.79856">
        <ele>221</ele>
        <time>2017-06-26T08:08:30Z</time>
      </trkpt>
      <trkpt lat="45.97637" lon="4.79853">
        <ele>221</ele>
        <time>2017-06-26T08:08:32Z</time>
      </trkpt>
      <trkpt lat="45.97641" lon="4.79852">
        <ele>221</ele>
        <time>2017-06-26T08:08:33Z</time>
      </trkpt>
      <trkpt lat="45.97648" lon="4.79849">
        <ele>221</ele>
        <time>2017-06-26T08:08:35Z</time>
      </trkpt>
      <trkpt lat="45.97652" lon="4.79848">
        <ele>221</ele>
        <time>2017-06-26T08:08:36Z</time>
      </trkpt>
      <trkpt lat="45.97659" lon="4.79845">
        <ele>221</ele>
        <time>2017-06-26T08:08:38Z</time>
      </trkpt>
      <trkpt lat="45.97663" lon="4.79844">
        <ele>221</ele>
        <time>2017-06-26T08:08:39Z</time>
      </trkpt>
      <trkpt lat="45.9767" lon="4.79841">
        <ele>221</ele>
        <time>2017-06-26T08:08:41Z</time>
      </trkpt>
      <trkpt lat="45.97674" lon="4.7984">
        <ele>221</ele>
        <time>2017-06-26T08:08:42Z</time>
      </trkpt>
      <trkpt lat="45.97682" lon="4.79838">
        <ele>221</ele>
        <time>2017-06-26T08:08:44Z</time>
      </trkpt>
      <trkpt lat="45.97686" lon="4.79837">
        <ele>221</ele>
        <time>2017-06-26T08:08:45Z</time>
      </trkpt>
      <trkpt lat="45.97694" lon="4.79834">
        <ele>220</ele>
        <time>2017-06-26T08:08:47Z</time>
      </trkpt>
      <trkpt lat="45.97698" lon="4.79833">
        <ele>223</ele>
        <time>2017-06-26T08:08:48Z</time>
      </trkpt>
      <trkpt lat="45.97705" lon="4.79832">
        <ele>223</ele>
        <time>2017-06-26T08:08:50Z</time>
      </trkpt>
      <trkpt lat="45.97709" lon="4.79831">
        <ele>223</ele>
        <time>2017-06-26T08:08:51Z</time>
      </trkpt>
      <trkpt lat="45.97717" lon="4.79829">
        <ele>223</ele>
        <time>2017-06-26T08:08:53Z</time>
      </trkpt>
      <trkpt lat="45.97722" lon="4.79828">
        <ele>223</ele>
        <time>2017-06-26T08:08:54Z</time>
      </trkpt>
      <trkpt lat="45.9773" lon="4.79828">
        <ele>223</ele>
        <time>2017-06-26T08:08:56Z</time>
      </trkpt>
      <trkpt lat="45.97735" lon="4.79827">
        <ele>223</ele>
        <time>2017-06-26T08:08:57Z</time>
      </trkpt>
      <trkpt lat="45.97743" lon="4.79825">
        <ele>223</ele>
        <time>2017-06-26T08:08:59Z</time>
      </trkpt>
      <trkpt lat="45.97747" lon="4.79824">
        <ele>222</ele>
        <time>2017-06-26T08:09:00Z</time>
      </trkpt>
      <trkpt lat="45.97755" lon="4.79823">
        <ele>222</ele>
        <time>2017-06-26T08:09:02Z</time>
      </trkpt>
      <trkpt lat="45.9776" lon="4.79823">
        <ele>223</ele>
        <time>2017-06-26T08:09:03Z</time>
      </trkpt>
      <trkpt lat="45.97768" lon="4.79822">
        <ele>223</ele>
        <time>2017-06-26T08:09:05Z</time>
      </trkpt>
      <trkpt lat="45.97773" lon="4.79821">
        <ele>223</ele>
        <time>2017-06-26T08:09:06Z</time>
      </trkpt>
      <trkpt lat="45.97782" lon="4.79819">
        <ele>223</ele>
        <time>2017-06-26T08:09:08Z</time>
      </trkpt>
      <trkpt lat="45.97786" lon="4.79818">
        <ele>223</ele>
        <time>2017-06-26T08:09:09Z</time>
      </trkpt>
      <trkpt lat="45.97791" lon="4.79817">
        <ele>223</ele>
        <time>2017-06-26T08:09:10Z</time>
      </trkpt>
      <trkpt lat="45.97796" lon="4.79816">
        <ele>223</ele>
        <time>2017-06-26T08:09:11Z</time>
      </trkpt>
      <trkpt lat="45.978" lon="4.79815">
        <ele>223</ele>
        <time>2017-06-26T08:09:12Z</time>
      </trkpt>
      <trkpt lat="45.97805" lon="4.79815">
        <ele>223</ele>
        <time>2017-06-26T08:09:13Z</time>
      </trkpt>
      <trkpt lat="45.97813" lon="4.79813">
        <ele>223</ele>
        <time>2017-06-26T08:09:15Z</time>
      </trkpt>
      <trkpt lat="45.97816" lon="4.79812">
        <ele>223</ele>
        <time>2017-06-26T08:09:16Z</time>
      </trkpt>
      <trkpt lat="45.97823" lon="4.79811">
        <ele>223</ele>
        <time>2017-06-26T08:09:18Z</time>
      </trkpt>
      <trkpt lat="45.97826" lon="4.79811">
        <ele>223</ele>
        <time>2017-06-26T08:09:19Z</time>
      </trkpt>
      <trkpt lat="45.97833" lon="4.7981">
        <ele>223</ele>
        <time>2017-06-26T08:09:21Z</time>
      </trkpt>
      <trkpt lat="45.97837" lon="4.79809">
        <ele>224</ele>
        <time>2017-06-26T08:09:22Z</time>
      </trkpt>
      <trkpt lat="45.97842" lon="4.79808">
        <ele>224</ele>
        <time>2017-06-26T08:09:23Z</time>
      </trkpt>
      <trkpt lat="45.97847" lon="4.79807">
        <ele>224</ele>
        <time>2017-06-26T08:09:24Z</time>
      </trkpt>
      <trkpt lat="45.97852" lon="4.79807">
        <ele>224</ele>
        <time>2017-06-26T08:09:25Z</time>
      </trkpt>
      <trkpt lat="45.97857" lon="4.79806">
        <ele>224</ele>
        <time>2017-06-26T08:09:26Z</time>
      </trkpt>
      <trkpt lat="45.97862" lon="4.79805">
        <ele>224</ele>
        <time>2017-06-26T08:09:27Z</time>
      </trkpt>
      <trkpt lat="45.97867" lon="4.79805">
        <ele>224</ele>
        <time>2017-06-26T08:09:28Z</time>
      </trkpt>
      <trkpt lat="45.97872" lon="4.79804">
        <ele>224</ele>
        <time>2017-06-26T08:09:29Z</time>
      </trkpt>
      <trkpt lat="45.97877" lon="4.79803">
        <ele>224</ele>
        <time>2017-06-26T08:09:30Z</time>
      </trkpt>
      <trkpt lat="45.97881" lon="4.79802">
        <ele>224</ele>
        <time>2017-06-26T08:09:31Z</time>
      </trkpt>
      <trkpt lat="45.97886" lon="4.79802">
        <ele>224</ele>
        <time>2017-06-26T08:09:32Z</time>
      </trkpt>
      <trkpt lat="45.97891" lon="4.79801">
        <ele>224</ele>
        <time>2017-06-26T08:09:33Z</time>
      </trkpt>
      <trkpt lat="45.97896" lon="4.798">
        <ele>224</ele>
        <time>2017-06-26T08:09:34Z</time>
      </trkpt>
      <trkpt lat="45.97905" lon="4.79798">
        <ele>224</ele>
        <time>2017-06-26T08:09:36Z</time>
      </trkpt>
      <trkpt lat="45.97909" lon="4.79797">
        <ele>224</ele>
        <time>2017-06-26T08:09:37Z</time>
      </trkpt>
      <trkpt lat="45.97914" lon="4.79796">
        <ele>224</ele>
        <time>2017-06-26T08:09:38Z</time>
      </trkpt>
      <trkpt lat="45.97918" lon="4.79795">
        <ele>224</ele>
        <time>2017-06-26T08:09:39Z</time>
      </trkpt>
      <trkpt lat="45.97923" lon="4.79794">
        <ele>224</ele>
        <time>2017-06-26T08:09:40Z</time>
      </trkpt>
      <trkpt lat="45.97928" lon="4.79793">
        <ele>224</ele>
        <time>2017-06-26T08:09:41Z</time>
      </trkpt>
      <trkpt lat="45.97933" lon="4.79792">
        <ele>224</ele>
        <time>2017-06-26T08:09:42Z</time>
      </trkpt>
      <trkpt lat="45.97937" lon="4.79791">
        <ele>224</ele>
        <time>2017-06-26T08:09:43Z</time>
      </trkpt>
      <trkpt lat="45.97943" lon="4.7979">
        <ele>224</ele>
        <time>2017-06-26T08:09:44Z</time>
      </trkpt>
      <trkpt lat="45.97948" lon="4.79789">
        <ele>224</ele>
        <time>2017-06-26T08:09:45Z</time>
      </trkpt>
      <trkpt lat="45.97953" lon="4.79789">
        <ele>224</ele>
        <time>2017-06-26T08:09:46Z</time>
      </trkpt>
      <trkpt lat="45.97958" lon="4.79788">
        <ele>224</ele>
        <time>2017-06-26T08:09:47Z</time>
      </trkpt>
      <trkpt lat="45.97963" lon="4.79787">
        <ele>224</ele>
        <time>2017-06-26T08:09:48Z</time>
      </trkpt>
      <trkpt lat="45.97967" lon="4.79787">
        <ele>224</ele>
        <time>2017-06-26T08:09:49Z</time>
      </trkpt>
      <trkpt lat="45.97972" lon="4.79786">
        <ele>224</ele>
        <time>2017-06-26T08:09:50Z</time>
      </trkpt>
      <trkpt lat="45.97977" lon="4.79786">
        <ele>224</ele>
        <time>2017-06-26T08:09:51Z</time>
      </trkpt>
      <trkpt lat="45.97986" lon="4.79784">
        <ele>224</ele>
        <time>2017-06-26T08:09:53Z</time>
      </trkpt>
      <trkpt lat="45.9799" lon="4.79784">
        <ele>224</ele>
        <time>2017-06-26T08:09:54Z</time>
      </trkpt>
      <trkpt lat="45.97999" lon="4.79782">
        <ele>224</ele>
        <time>2017-06-26T08:09:56Z</time>
      </trkpt>
      <trkpt lat="45.98003" lon="4.79781">
        <ele>223</ele>
        <time>2017-06-26T08:09:57Z</time>
      </trkpt>
      <trkpt lat="45.98011" lon="4.7978">
        <ele>223</ele>
        <time>2017-06-26T08:09:59Z</time>
      </trkpt>
      <trkpt lat="45.98016" lon="4.79779">
        <ele>223</ele>
        <time>2017-06-26T08:10:00Z</time>
      </trkpt>
      <trkpt lat="45.98025" lon="4.79778">
        <ele>223</ele>
        <time>2017-06-26T08:10:02Z</time>
      </trkpt>
      <trkpt lat="45.98029" lon="4.79778">
        <ele>223</ele>
        <time>2017-06-26T08:10:03Z</time>
      </trkpt>
      <trkpt lat="45.98034" lon="4.79778">
        <ele>223</ele>
        <time>2017-06-26T08:10:04Z</time>
      </trkpt>
      <trkpt lat="45.98039" lon="4.79777">
        <ele>223</ele>
        <time>2017-06-26T08:10:05Z</time>
      </trkpt>
      <trkpt lat="45.98044" lon="4.79776">
        <ele>223</ele>
        <time>2017-06-26T08:10:06Z</time>
      </trkpt>
      <trkpt lat="45.98049" lon="4.79776">
        <ele>223</ele>
        <time>2017-06-26T08:10:07Z</time>
      </trkpt>
      <trkpt lat="45.98054" lon="4.79775">
        <ele>223</ele>
        <time>2017-06-26T08:10:08Z</time>
      </trkpt>
      <trkpt lat="45.98059" lon="4.79775">
        <ele>223</ele>
        <time>2017-06-26T08:10:09Z</time>
      </trkpt>
      <trkpt lat="45.98064" lon="4.79774">
        <ele>223</ele>
        <time>2017-06-26T08:10:10Z</time>
      </trkpt>
      <trkpt lat="45.98069" lon="4.79774">
        <ele>223</ele>
        <time>2017-06-26T08:10:11Z</time>
      </trkpt>
      <trkpt lat="45.98074" lon="4.79773">
        <ele>223</ele>
        <time>2017-06-26T08:10:12Z</time>
      </trkpt>
      <trkpt lat="45.98078" lon="4.79772">
        <ele>223</ele>
        <time>2017-06-26T08:10:13Z</time>
      </trkpt>
      <trkpt lat="45.98087" lon="4.79771">
        <ele>223</ele>
        <time>2017-06-26T08:10:15Z</time>
      </trkpt>
      <trkpt lat="45.98091" lon="4.7977">
        <ele>223</ele>
        <time>2017-06-26T08:10:16Z</time>
      </trkpt>
      <trkpt lat="45.98099" lon="4.79769">
        <ele>223</ele>
        <time>2017-06-26T08:10:18Z</time>
      </trkpt>
      <trkpt lat="45.98103" lon="4.79769">
        <ele>224</ele>
        <time>2017-06-26T08:10:19Z</time>
      </trkpt>
      <trkpt lat="45.98108" lon="4.79768">
        <ele>224</ele>
        <time>2017-06-26T08:10:20Z</time>
      </trkpt>
      <trkpt lat="45.98112" lon="4.79767">
        <ele>224</ele>
        <time>2017-06-26T08:10:21Z</time>
      </trkpt>
      <trkpt lat="45.98117" lon="4.79767">
        <ele>224</ele>
        <time>2017-06-26T08:10:22Z</time>
      </trkpt>
      <trkpt lat="45.98122" lon="4.79766">
        <ele>224</ele>
        <time>2017-06-26T08:10:23Z</time>
      </trkpt>
      <trkpt lat="45.98127" lon="4.79765">
        <ele>224</ele>
        <time>2017-06-26T08:10:24Z</time>
      </trkpt>
      <trkpt lat="45.98132" lon="4.79764">
        <ele>224</ele>
        <time>2017-06-26T08:10:25Z</time>
      </trkpt>
      <trkpt lat="45.98137" lon="4.79764">
        <ele>224</ele>
        <time>2017-06-26T08:10:26Z</time>
      </trkpt>
      <trkpt lat="45.98142" lon="4.79764">
        <ele>224</ele>
        <time>2017-06-26T08:10:27Z</time>
      </trkpt>
      <trkpt lat="45.98146" lon="4.79764">
        <ele>225</ele>
        <time>2017-06-26T08:10:28Z</time>
      </trkpt>
      <trkpt lat="45.98151" lon="4.79764">
        <ele>225</ele>
        <time>2017-06-26T08:10:29Z</time>
      </trkpt>
      <trkpt lat="45.98159" lon="4.79767">
        <ele>225</ele>
        <time>2017-06-26T08:10:31Z</time>
      </trkpt>
      <trkpt lat="45.98163" lon="4.7977">
        <ele>225</ele>
        <time>2017-06-26T08:10:32Z</time>
      </trkpt>
      <trkpt lat="45.9817" lon="4.79777">
        <ele>226</ele>
        <time>2017-06-26T08:10:34Z</time>
      </trkpt>
      <trkpt lat="45.98173" lon="4.79781">
        <ele>226</ele>
        <time>2017-06-26T08:10:35Z</time>
      </trkpt>
      <trkpt lat="45.98176" lon="4.79791">
        <ele>226</ele>
        <time>2017-06-26T08:10:37Z</time>
      </trkpt>
      <trkpt lat="45.98178" lon="4.79796">
        <ele>226</ele>
        <time>2017-06-26T08:10:38Z</time>
      </trkpt>
      <trkpt lat="45.98181" lon="4.79808">
        <ele>225</ele>
        <time>2017-06-26T08:10:40Z</time>
      </trkpt>
      <trkpt lat="45.98183" lon="4.79814">
        <ele>225</ele>
        <time>2017-06-26T08:10:41Z</time>
      </trkpt>
      <trkpt lat="45.98185" lon="4.7982">
        <ele>225</ele>
        <time>2017-06-26T08:10:42Z</time>
      </trkpt>
      <trkpt lat="45.98188" lon="4.79827">
        <ele>225</ele>
        <time>2017-06-26T08:10:43Z</time>
      </trkpt>
      <trkpt lat="45.9819" lon="4.79834">
        <ele>225</ele>
        <time>2017-06-26T08:10:44Z</time>
      </trkpt>
      <trkpt lat="45.98193" lon="4.79842">
        <ele>225</ele>
        <time>2017-06-26T08:10:45Z</time>
      </trkpt>
      <trkpt lat="45.98195" lon="4.7985">
        <ele>225</ele>
        <time>2017-06-26T08:10:46Z</time>
      </trkpt>
      <trkpt lat="45.98198" lon="4.79858">
        <ele>225</ele>
        <time>2017-06-26T08:10:47Z</time>
      </trkpt>
      <trkpt lat="45.98201" lon="4.79866">
        <ele>225</ele>
        <time>2017-06-26T08:10:48Z</time>
      </trkpt>
      <trkpt lat="45.98204" lon="4.79874">
        <ele>225</ele>
        <time>2017-06-26T08:10:49Z</time>
      </trkpt>
      <trkpt lat="45.98207" lon="4.79883">
        <ele>225</ele>
        <time>2017-06-26T08:10:50Z</time>
      </trkpt>
      <trkpt lat="45.9821" lon="4.7989">
        <ele>225</ele>
        <time>2017-06-26T08:10:51Z</time>
      </trkpt>
      <trkpt lat="45.98213" lon="4.79899">
        <ele>225</ele>
        <time>2017-06-26T08:10:52Z</time>
      </trkpt>
      <trkpt lat="45.98215" lon="4.79907">
        <ele>225</ele>
        <time>2017-06-26T08:10:53Z</time>
      </trkpt>
      <trkpt lat="45.98218" lon="4.79915">
        <ele>225</ele>
        <time>2017-06-26T08:10:54Z</time>
      </trkpt>
      <trkpt lat="45.98221" lon="4.79923">
        <ele>225</ele>
        <time>2017-06-26T08:10:55Z</time>
      </trkpt>
      <trkpt lat="45.98224" lon="4.7993">
        <ele>225</ele>
        <time>2017-06-26T08:10:56Z</time>
      </trkpt>
      <trkpt lat="45.98226" lon="4.79938">
        <ele>225</ele>
        <time>2017-06-26T08:10:57Z</time>
      </trkpt>
      <trkpt lat="45.98229" lon="4.79945">
        <ele>225</ele>
        <time>2017-06-26T08:10:58Z</time>
      </trkpt>
      <trkpt lat="45.98231" lon="4.79952">
        <ele>225</ele>
        <time>2017-06-26T08:10:59Z</time>
      </trkpt>
      <trkpt lat="45.98234" lon="4.79958">
        <ele>225</ele>
        <time>2017-06-26T08:11:00Z</time>
      </trkpt>
      <trkpt lat="45.98236" lon="4.79965">
        <ele>225</ele>
        <time>2017-06-26T08:11:01Z</time>
      </trkpt>
      <trkpt lat="45.98239" lon="4.79973">
        <ele>225</ele>
        <time>2017-06-26T08:11:02Z</time>
      </trkpt>
      <trkpt lat="45.98241" lon="4.7998">
        <ele>225</ele>
        <time>2017-06-26T08:11:03Z</time>
      </trkpt>
      <trkpt lat="45.98244" lon="4.79987">
        <ele>225</ele>
        <time>2017-06-26T08:11:04Z</time>
      </trkpt>
      <trkpt lat="45.98247" lon="4.79994">
        <ele>226</ele>
        <time>2017-06-26T08:11:05Z</time>
      </trkpt>
      <trkpt lat="45.98249" lon="4.80001">
        <ele>226</ele>
        <time>2017-06-26T08:11:06Z</time>
      </trkpt>
      <trkpt lat="45.98251" lon="4.80007">
        <ele>227</ele>
        <time>2017-06-26T08:11:07Z</time>
      </trkpt>
      <trkpt lat="45.98254" lon="4.80014">
        <ele>227</ele>
        <time>2017-06-26T08:11:08Z</time>
      </trkpt>
      <trkpt lat="45.98256" lon="4.80022">
        <ele>228</ele>
        <time>2017-06-26T08:11:09Z</time>
      </trkpt>
      <trkpt lat="45.98259" lon="4.8003">
        <ele>228</ele>
        <time>2017-06-26T08:11:10Z</time>
      </trkpt>
      <trkpt lat="45.98262" lon="4.80038">
        <ele>228</ele>
        <time>2017-06-26T08:11:11Z</time>
      </trkpt>
      <trkpt lat="45.98264" lon="4.80045">
        <ele>228</ele>
        <time>2017-06-26T08:11:12Z</time>
      </trkpt>
      <trkpt lat="45.98267" lon="4.80053">
        <ele>228</ele>
        <time>2017-06-26T08:11:13Z</time>
      </trkpt>
      <trkpt lat="45.9827" lon="4.8006">
        <ele>228</ele>
        <time>2017-06-26T08:11:14Z</time>
      </trkpt>
      <trkpt lat="45.98273" lon="4.80068">
        <ele>228</ele>
        <time>2017-06-26T08:11:15Z</time>
      </trkpt>
      <trkpt lat="45.98275" lon="4.80075">
        <ele>228</ele>
        <time>2017-06-26T08:11:16Z</time>
      </trkpt>
      <trkpt lat="45.98278" lon="4.80082">
        <ele>228</ele>
        <time>2017-06-26T08:11:17Z</time>
      </trkpt>
      <trkpt lat="45.9828" lon="4.80089">
        <ele>228</ele>
        <time>2017-06-26T08:11:18Z</time>
      </trkpt>
      <trkpt lat="45.98282" lon="4.80096">
        <ele>228</ele>
        <time>2017-06-26T08:11:19Z</time>
      </trkpt>
      <trkpt lat="45.98285" lon="4.80103">
        <ele>228</ele>
        <time>2017-06-26T08:11:20Z</time>
      </trkpt>
      <trkpt lat="45.98287" lon="4.8011">
        <ele>228</ele>
        <time>2017-06-26T08:11:21Z</time>
      </trkpt>
      <trkpt lat="45.9829" lon="4.80117">
        <ele>228</ele>
        <time>2017-06-26T08:11:22Z</time>
      </trkpt>
      <trkpt lat="45.98293" lon="4.80124">
        <ele>228</ele>
        <time>2017-06-26T08:11:23Z</time>
      </trkpt>
      <trkpt lat="45.98296" lon="4.8013">
        <ele>228</ele>
        <time>2017-06-26T08:11:24Z</time>
      </trkpt>
      <trkpt lat="45.98298" lon="4.80136">
        <ele>228</ele>
        <time>2017-06-26T08:11:25Z</time>
      </trkpt>
      <trkpt lat="45.983" lon="4.80142">
        <ele>228</ele>
        <time>2017-06-26T08:11:26Z</time>
      </trkpt>
      <trkpt lat="45.98303" lon="4.80148">
        <ele>228</ele>
        <time>2017-06-26T08:11:27Z</time>
      </trkpt>
      <trkpt lat="45.98306" lon="4.8016">
        <ele>228</ele>
        <time>2017-06-26T08:11:29Z</time>
      </trkpt>
      <trkpt lat="45.98308" lon="4.80166">
        <ele>228</ele>
        <time>2017-06-26T08:11:30Z</time>
      </trkpt>
      <trkpt lat="45.9831" lon="4.80172">
        <ele>227</ele>
        <time>2017-06-26T08:11:31Z</time>
      </trkpt>
      <trkpt lat="45.98312" lon="4.80179">
        <ele>227</ele>
        <time>2017-06-26T08:11:32Z</time>
      </trkpt>
      <trkpt lat="45.98315" lon="4.80185">
        <ele>227</ele>
        <time>2017-06-26T08:11:33Z</time>
      </trkpt>
      <trkpt lat="45.98317" lon="4.80191">
        <ele>227</ele>
        <time>2017-06-26T08:11:34Z</time>
      </trkpt>
      <trkpt lat="45.98319" lon="4.80197">
        <ele>227</ele>
        <time>2017-06-26T08:11:35Z</time>
      </trkpt>
      <trkpt lat="45.98321" lon="4.80203">
        <ele>227</ele>
        <time>2017-06-26T08:11:36Z</time>
      </trkpt>
      <trkpt lat="45.98325" lon="4.80214">
        <ele>227</ele>
        <time>2017-06-26T08:11:38Z</time>
      </trkpt>
      <trkpt lat="45.98327" lon="4.8022">
        <ele>227</ele>
        <time>2017-06-26T08:11:39Z</time>
      </trkpt>
      <trkpt lat="45.98327" lon="4.80231">
        <ele>228</ele>
        <time>2017-06-26T08:11:41Z</time>
      </trkpt>
      <trkpt lat="45.98326" lon="4.80237">
        <ele>228</ele>
        <time>2017-06-26T08:11:42Z</time>
      </trkpt>
      <trkpt lat="45.98325" lon="4.80243">
        <ele>228</ele>
        <time>2017-06-26T08:11:43Z</time>
      </trkpt>
      <trkpt lat="45.98323" lon="4.8025">
        <ele>228</ele>
        <time>2017-06-26T08:11:44Z</time>
      </trkpt>
      <trkpt lat="45.98322" lon="4.80257">
        <ele>228</ele>
        <time>2017-06-26T08:11:45Z</time>
      </trkpt>
      <trkpt lat="45.9832" lon="4.80264">
        <ele>227</ele>
        <time>2017-06-26T08:11:46Z</time>
      </trkpt>
      <trkpt lat="45.98317" lon="4.80271">
        <ele>227</ele>
        <time>2017-06-26T08:11:47Z</time>
      </trkpt>
      <trkpt lat="45.98315" lon="4.80278">
        <ele>226</ele>
        <time>2017-06-26T08:11:48Z</time>
      </trkpt>
      <trkpt lat="45.98313" lon="4.80285">
        <ele>226</ele>
        <time>2017-06-26T08:11:49Z</time>
      </trkpt>
      <trkpt lat="45.98312" lon="4.80293">
        <ele>226</ele>
        <time>2017-06-26T08:11:50Z</time>
      </trkpt>
      <trkpt lat="45.9831" lon="4.80301">
        <ele>226</ele>
        <time>2017-06-26T08:11:51Z</time>
      </trkpt>
      <trkpt lat="45.98308" lon="4.80309">
        <ele>226</ele>
        <time>2017-06-26T08:11:52Z</time>
      </trkpt>
      <trkpt lat="45.98306" lon="4.80317">
        <ele>226</ele>
        <time>2017-06-26T08:11:53Z</time>
      </trkpt>
      <trkpt lat="45.98304" lon="4.80326">
        <ele>226</ele>
        <time>2017-06-26T08:11:54Z</time>
      </trkpt>
      <trkpt lat="45.98302" lon="4.80335">
        <ele>225</ele>
        <time>2017-06-26T08:11:55Z</time>
      </trkpt>
      <trkpt lat="45.983" lon="4.80344">
        <ele>225</ele>
        <time>2017-06-26T08:11:56Z</time>
      </trkpt>
      <trkpt lat="45.98298" lon="4.80353">
        <ele>225</ele>
        <time>2017-06-26T08:11:57Z</time>
      </trkpt>
      <trkpt lat="45.98296" lon="4.80362">
        <ele>225</ele>
        <time>2017-06-26T08:11:58Z</time>
      </trkpt>
      <trkpt lat="45.98294" lon="4.8037">
        <ele>224</ele>
        <time>2017-06-26T08:11:59Z</time>
      </trkpt>
      <trkpt lat="45.98292" lon="4.80379">
        <ele>224</ele>
        <time>2017-06-26T08:12:00Z</time>
      </trkpt>
      <trkpt lat="45.98289" lon="4.80389">
        <ele>224</ele>
        <time>2017-06-26T08:12:01Z</time>
      </trkpt>
      <trkpt lat="45.98288" lon="4.80399">
        <ele>224</ele>
        <time>2017-06-26T08:12:02Z</time>
      </trkpt>
      <trkpt lat="45.98286" lon="4.80408">
        <ele>224</ele>
        <time>2017-06-26T08:12:03Z</time>
      </trkpt>
      <trkpt lat="45.98283" lon="4.80418">
        <ele>223</ele>
        <time>2017-06-26T08:12:04Z</time>
      </trkpt>
      <trkpt lat="45.98281" lon="4.80427">
        <ele>223</ele>
        <time>2017-06-26T08:12:05Z</time>
      </trkpt>
      <trkpt lat="45.98279" lon="4.80436">
        <ele>223</ele>
        <time>2017-06-26T08:12:06Z</time>
      </trkpt>
      <trkpt lat="45.98277" lon="4.80446">
        <ele>223</ele>
        <time>2017-06-26T08:12:07Z</time>
      </trkpt>
      <trkpt lat="45.98275" lon="4.80456">
        <ele>223</ele>
        <time>2017-06-26T08:12:08Z</time>
      </trkpt>
      <trkpt lat="45.98273" lon="4.80466">
        <ele>223</ele>
        <time>2017-06-26T08:12:09Z</time>
      </trkpt>
      <trkpt lat="45.98271" lon="4.80476">
        <ele>223</ele>
        <time>2017-06-26T08:12:10Z</time>
      </trkpt>
      <trkpt lat="45.9827" lon="4.80485">
        <ele>223</ele>
        <time>2017-06-26T08:12:11Z</time>
      </trkpt>
      <trkpt lat="45.98268" lon="4.80493">
        <ele>223</ele>
        <time>2017-06-26T08:12:12Z</time>
      </trkpt>
      <trkpt lat="45.98265" lon="4.80502">
        <ele>223</ele>
        <time>2017-06-26T08:12:13Z</time>
      </trkpt>
      <trkpt lat="45.98264" lon="4.8051">
        <ele>223</ele>
        <time>2017-06-26T08:12:14Z</time>
      </trkpt>
      <trkpt lat="45.98262" lon="4.80518">
        <ele>223</ele>
        <time>2017-06-26T08:12:15Z</time>
      </trkpt>
      <trkpt lat="45.98261" lon="4.80526">
        <ele>224</ele>
        <time>2017-06-26T08:12:16Z</time>
      </trkpt>
      <trkpt lat="45.98258" lon="4.80533">
        <ele>224</ele>
        <time>2017-06-26T08:12:17Z</time>
      </trkpt>
      <trkpt lat="45.98256" lon="4.80541">
        <ele>224</ele>
        <time>2017-06-26T08:12:18Z</time>
      </trkpt>
      <trkpt lat="45.98255" lon="4.80547">
        <ele>224</ele>
        <time>2017-06-26T08:12:19Z</time>
      </trkpt>
      <trkpt lat="45.98252" lon="4.80554">
        <ele>224</ele>
        <time>2017-06-26T08:12:20Z</time>
      </trkpt>
      <trkpt lat="45.98251" lon="4.80561">
        <ele>224</ele>
        <time>2017-06-26T08:12:21Z</time>
      </trkpt>
      <trkpt lat="45.98249" lon="4.80568">
        <ele>224</ele>
        <time>2017-06-26T08:12:22Z</time>
      </trkpt>
      <trkpt lat="45.98247" lon="4.80575">
        <ele>224</ele>
        <time>2017-06-26T08:12:23Z</time>
      </trkpt>
      <trkpt lat="45.98245" lon="4.80582">
        <ele>224</ele>
        <time>2017-06-26T08:12:24Z</time>
      </trkpt>
      <trkpt lat="45.98243" lon="4.80588">
        <ele>224</ele>
        <time>2017-06-26T08:12:25Z</time>
      </trkpt>
      <trkpt lat="45.98241" lon="4.80595">
        <ele>224</ele>
        <time>2017-06-26T08:12:26Z</time>
      </trkpt>
      <trkpt lat="45.98239" lon="4.80602">
        <ele>224</ele>
        <time>2017-06-26T08:12:27Z</time>
      </trkpt>
      <trkpt lat="45.98237" lon="4.8061">
        <ele>224</ele>
        <time>2017-06-26T08:12:28Z</time>
      </trkpt>
      <trkpt lat="45.98235" lon="4.80617">
        <ele>224</ele>
        <time>2017-06-26T08:12:29Z</time>
      </trkpt>
      <trkpt lat="45.98232" lon="4.80625">
        <ele>224</ele>
        <time>2017-06-26T08:12:30Z</time>
      </trkpt>
      <trkpt lat="45.9823" lon="4.80633">
        <ele>224</ele>
        <time>2017-06-26T08:12:31Z</time>
      </trkpt>
      <trkpt lat="45.98228" lon="4.80639">
        <ele>224</ele>
        <time>2017-06-26T08:12:32Z</time>
      </trkpt>
      <trkpt lat="45.98226" lon="4.80646">
        <ele>224</ele>
        <time>2017-06-26T08:12:33Z</time>
      </trkpt>
      <trkpt lat="45.98224" lon="4.80652">
        <ele>224</ele>
        <time>2017-06-26T08:12:34Z</time>
      </trkpt>
      <trkpt lat="45.9822" lon="4.80662">
        <ele>224</ele>
        <time>2017-06-26T08:12:36Z</time>
      </trkpt>
      <trkpt lat="45.98218" lon="4.80666">
        <ele>224</ele>
        <time>2017-06-26T08:12:37Z</time>
      </trkpt>
      <trkpt lat="45.98211" lon="4.80673">
        <ele>224</ele>
        <time>2017-06-26T08:12:39Z</time>
      </trkpt>
      <trkpt lat="45.98208" lon="4.80675">
        <ele>224</ele>
        <time>2017-06-26T08:12:40Z</time>
      </trkpt>
      <trkpt lat="45.98199" lon="4.80679">
        <ele>225</ele>
        <time>2017-06-26T08:12:42Z</time>
      </trkpt>
      <trkpt lat="45.98195" lon="4.8068">
        <ele>225</ele>
        <time>2017-06-26T08:12:43Z</time>
      </trkpt>
      <trkpt lat="45.9819" lon="4.8068">
        <ele>225</ele>
        <time>2017-06-26T08:12:44Z</time>
      </trkpt>
      <trkpt lat="45.98186" lon="4.80681">
        <ele>225</ele>
        <time>2017-06-26T08:12:45Z</time>
      </trkpt>
      <trkpt lat="45.98181" lon="4.80683">
        <ele>225</ele>
        <time>2017-06-26T08:12:46Z</time>
      </trkpt>
      <trkpt lat="45.98176" lon="4.80685">
        <ele>225</ele>
        <time>2017-06-26T08:12:47Z</time>
      </trkpt>
      <trkpt lat="45.98171" lon="4.80686">
        <ele>225</ele>
        <time>2017-06-26T08:12:48Z</time>
      </trkpt>
      <trkpt lat="45.98166" lon="4.80688">
        <ele>227</ele>
        <time>2017-06-26T08:12:49Z</time>
      </trkpt>
      <trkpt lat="45.98161" lon="4.80688">
        <ele>227</ele>
        <time>2017-06-26T08:12:50Z</time>
      </trkpt>
      <trkpt lat="45.98156" lon="4.80689">
        <ele>227</ele>
        <time>2017-06-26T08:12:51Z</time>
      </trkpt>
      <trkpt lat="45.98147" lon="4.8069">
        <ele>228</ele>
        <time>2017-06-26T08:12:53Z</time>
      </trkpt>
      <trkpt lat="45.98143" lon="4.8069">
        <ele>228</ele>
        <time>2017-06-26T08:12:54Z</time>
      </trkpt>
      <trkpt lat="45.98135" lon="4.80691">
        <ele>228</ele>
        <time>2017-06-26T08:12:56Z</time>
      </trkpt>
      <trkpt lat="45.98131" lon="4.80691">
        <ele>228</ele>
        <time>2017-06-26T08:12:57Z</time>
      </trkpt>
      <trkpt lat="45.98123" lon="4.80691">
        <ele>228</ele>
        <time>2017-06-26T08:12:59Z</time>
      </trkpt>
      <trkpt lat="45.9812" lon="4.80691">
        <ele>228</ele>
        <time>2017-06-26T08:13:00Z</time>
      </trkpt>
      <trkpt lat="45.98112" lon="4.80692">
        <ele>228</ele>
        <time>2017-06-26T08:13:02Z</time>
      </trkpt>
      <trkpt lat="45.98109" lon="4.80691">
        <ele>228</ele>
        <time>2017-06-26T08:13:03Z</time>
      </trkpt>
      <trkpt lat="45.98103" lon="4.80692">
        <ele>228</ele>
        <time>2017-06-26T08:13:05Z</time>
      </trkpt>
      <trkpt lat="45.98099" lon="4.80691">
        <ele>228</ele>
        <time>2017-06-26T08:13:06Z</time>
      </trkpt>
      <trkpt lat="45.98092" lon="4.80691">
        <ele>228</ele>
        <time>2017-06-26T08:13:08Z</time>
      </trkpt>
      <trkpt lat="45.98088" lon="4.80691">
        <ele>228</ele>
        <time>2017-06-26T08:13:09Z</time>
      </trkpt>
      <trkpt lat="45.9808" lon="4.8069">
        <ele>230</ele>
        <time>2017-06-26T08:13:11Z</time>
      </trkpt>
      <trkpt lat="45.98077" lon="4.8069">
        <ele>230</ele>
        <time>2017-06-26T08:13:12Z</time>
      </trkpt>
      <trkpt lat="45.98069" lon="4.80691">
        <ele>230</ele>
        <time>2017-06-26T08:13:14Z</time>
      </trkpt>
      <trkpt lat="45.98066" lon="4.80692">
        <ele>230</ele>
        <time>2017-06-26T08:13:15Z</time>
      </trkpt>
      <trkpt lat="45.98058" lon="4.80694">
        <ele>230</ele>
        <time>2017-06-26T08:13:17Z</time>
      </trkpt>
      <trkpt lat="45.98055" lon="4.80695">
        <ele>230</ele>
        <time>2017-06-26T08:13:18Z</time>
      </trkpt>
      <trkpt lat="45.98047" lon="4.80697">
        <ele>230</ele>
        <time>2017-06-26T08:13:20Z</time>
      </trkpt>
      <trkpt lat="45.98043" lon="4.80698">
        <ele>230</ele>
        <time>2017-06-26T08:13:21Z</time>
      </trkpt>
      <trkpt lat="45.98037" lon="4.80701">
        <ele>230</ele>
        <time>2017-06-26T08:13:23Z</time>
      </trkpt>
      <trkpt lat="45.98034" lon="4.80705">
        <ele>231</ele>
        <time>2017-06-26T08:13:24Z</time>
      </trkpt>
      <trkpt lat="45.98031" lon="4.80716">
        <ele>231</ele>
        <time>2017-06-26T08:13:27Z</time>
      </trkpt>
      <trkpt lat="45.98031" lon="4.80719">
        <ele>231</ele>
        <time>2017-06-26T08:13:28Z</time>
      </trkpt>
      <trkpt lat="45.98032" lon="4.80731">
        <ele>231</ele>
        <time>2017-06-26T08:13:31Z</time>
      </trkpt>
      <trkpt lat="45.98034" lon="4.80734">
        <ele>231</ele>
        <time>2017-06-26T08:13:32Z</time>
      </trkpt>
      <trkpt lat="45.98037" lon="4.80745">
        <ele>231</ele>
        <time>2017-06-26T08:13:35Z</time>
      </trkpt>
      <trkpt lat="45.98037" lon="4.80749">
        <ele>231</ele>
        <time>2017-06-26T08:13:36Z</time>
      </trkpt>
      <trkpt lat="45.9804" lon="4.80759">
        <ele>233</ele>
        <time>2017-06-26T08:13:39Z</time>
      </trkpt>
      <trkpt lat="45.9804" lon="4.80762">
        <ele>233</ele>
        <time>2017-06-26T08:13:40Z</time>
      </trkpt>
      <trkpt lat="45.98042" lon="4.80773">
        <ele>233</ele>
        <time>2017-06-26T08:13:43Z</time>
      </trkpt>
      <trkpt lat="45.98043" lon="4.80777">
        <ele>233</ele>
        <time>2017-06-26T08:13:44Z</time>
      </trkpt>
      <trkpt lat="45.98045" lon="4.80787">
        <ele>233</ele>
        <time>2017-06-26T08:13:47Z</time>
      </trkpt>
      <trkpt lat="45.98045" lon="4.8079">
        <ele>233</ele>
        <time>2017-06-26T08:13:48Z</time>
      </trkpt>
      <trkpt lat="45.98048" lon="4.808">
        <ele>234</ele>
        <time>2017-06-26T08:13:51Z</time>
      </trkpt>
      <trkpt lat="45.98048" lon="4.80804">
        <ele>234</ele>
        <time>2017-06-26T08:13:52Z</time>
      </trkpt>
      <trkpt lat="45.9805" lon="4.80813">
        <ele>234</ele>
        <time>2017-06-26T08:13:55Z</time>
      </trkpt>
      <trkpt lat="45.98051" lon="4.80817">
        <ele>234</ele>
        <time>2017-06-26T08:13:56Z</time>
      </trkpt>
      <trkpt lat="45.98053" lon="4.80826">
        <ele>234</ele>
        <time>2017-06-26T08:13:59Z</time>
      </trkpt>
      <trkpt lat="45.98054" lon="4.80828">
        <ele>234</ele>
        <time>2017-06-26T08:14:00Z</time>
      </trkpt>
      <trkpt lat="45.98057" lon="4.8084">
        <ele>236</ele>
        <time>2017-06-26T08:14:04Z</time>
      </trkpt>
      <trkpt lat="45.98057" lon="4.80843">
        <ele>236</ele>
        <time>2017-06-26T08:14:05Z</time>
      </trkpt>
      <trkpt lat="45.98059" lon="4.80852">
        <ele>236</ele>
        <time>2017-06-26T08:14:08Z</time>
      </trkpt>
      <trkpt lat="45.9806" lon="4.80856">
        <ele>236</ele>
        <time>2017-06-26T08:14:09Z</time>
      </trkpt>
      <trkpt lat="45.98065" lon="4.80867">
        <ele>237</ele>
        <time>2017-06-26T08:14:13Z</time>
      </trkpt>
      <trkpt lat="45.98066" lon="4.80869">
        <ele>237</ele>
        <time>2017-06-26T08:14:14Z</time>
      </trkpt>
      <trkpt lat="45.98068" lon="4.8088">
        <ele>237</ele>
        <time>2017-06-26T08:14:18Z</time>
      </trkpt>
      <trkpt lat="45.98068" lon="4.80883">
        <ele>237</ele>
        <time>2017-06-26T08:14:19Z</time>
      </trkpt>
      <trkpt lat="45.98071" lon="4.80892">
        <ele>238</ele>
        <time>2017-06-26T08:14:22Z</time>
      </trkpt>
      <trkpt lat="45.98072" lon="4.80895">
        <ele>238</ele>
        <time>2017-06-26T08:14:23Z</time>
      </trkpt>
      <trkpt lat="45.98074" lon="4.80904">
        <ele>238</ele>
        <time>2017-06-26T08:14:26Z</time>
      </trkpt>
      <trkpt lat="45.98075" lon="4.80907">
        <ele>238</ele>
        <time>2017-06-26T08:14:27Z</time>
      </trkpt>
      <trkpt lat="45.98077" lon="4.80919">
        <ele>239</ele>
        <time>2017-06-26T08:14:31Z</time>
      </trkpt>
      <trkpt lat="45.98077" lon="4.80923">
        <ele>240</ele>
        <time>2017-06-26T08:14:32Z</time>
      </trkpt>
      <trkpt lat="45.9808" lon="4.80934">
        <ele>240</ele>
        <time>2017-06-26T08:14:35Z</time>
      </trkpt>
      <trkpt lat="45.9808" lon="4.80938">
        <ele>240</ele>
        <time>2017-06-26T08:14:36Z</time>
      </trkpt>
      <trkpt lat="45.98084" lon="4.80947">
        <ele>238</ele>
        <time>2017-06-26T08:14:39Z</time>
      </trkpt>
      <trkpt lat="45.98085" lon="4.8095">
        <ele>238</ele>
        <time>2017-06-26T08:14:40Z</time>
      </trkpt>
      <trkpt lat="45.98087" lon="4.80962">
        <ele>239</ele>
        <time>2017-06-26T08:14:43Z</time>
      </trkpt>
      <trkpt lat="45.98087" lon="4.80966">
        <ele>239</ele>
        <time>2017-06-26T08:14:44Z</time>
      </trkpt>
      <trkpt lat="45.98091" lon="4.80976">
        <ele>239</ele>
        <time>2017-06-26T08:14:47Z</time>
      </trkpt>
      <trkpt lat="45.98092" lon="4.80979">
        <ele>239</ele>
        <time>2017-06-26T08:14:48Z</time>
      </trkpt>
      <trkpt lat="45.98095" lon="4.80989">
        <ele>240</ele>
        <time>2017-06-26T08:14:52Z</time>
      </trkpt>
      <trkpt lat="45.98096" lon="4.80992">
        <ele>240</ele>
        <time>2017-06-26T08:14:53Z</time>
      </trkpt>
      <trkpt lat="45.981" lon="4.81003">
        <ele>242</ele>
        <time>2017-06-26T08:14:56Z</time>
      </trkpt>
      <trkpt lat="45.98102" lon="4.81007">
        <ele>242</ele>
        <time>2017-06-26T08:14:57Z</time>
      </trkpt>
      <trkpt lat="45.98106" lon="4.81015">
        <ele>242</ele>
        <time>2017-06-26T08:14:59Z</time>
      </trkpt>
      <trkpt lat="45.98107" lon="4.8102">
        <ele>242</ele>
        <time>2017-06-26T08:15:00Z</time>
      </trkpt>
      <trkpt lat="45.9811" lon="4.81029">
        <ele>242</ele>
        <time>2017-06-26T08:15:02Z</time>
      </trkpt>
      <trkpt lat="45.98111" lon="4.81034">
        <ele>242</ele>
        <time>2017-06-26T08:15:03Z</time>
      </trkpt>
      <trkpt lat="45.98114" lon="4.81043">
        <ele>242</ele>
        <time>2017-06-26T08:15:05Z</time>
      </trkpt>
      <trkpt lat="45.98116" lon="4.81047">
        <ele>243</ele>
        <time>2017-06-26T08:15:06Z</time>
      </trkpt>
      <trkpt lat="45.98119" lon="4.81058">
        <ele>243</ele>
        <time>2017-06-26T08:15:08Z</time>
      </trkpt>
      <trkpt lat="45.9812" lon="4.81062">
        <ele>243</ele>
        <time>2017-06-26T08:15:09Z</time>
      </trkpt>
      <trkpt lat="45.98122" lon="4.81071">
        <ele>243</ele>
        <time>2017-06-26T08:15:11Z</time>
      </trkpt>
      <trkpt lat="45.98125" lon="4.81075">
        <ele>243</ele>
        <time>2017-06-26T08:15:12Z</time>
      </trkpt>
      <trkpt lat="45.98128" lon="4.81084">
        <ele>245</ele>
        <time>2017-06-26T08:15:14Z</time>
      </trkpt>
      <trkpt lat="45.98129" lon="4.81088">
        <ele>245</ele>
        <time>2017-06-26T08:15:15Z</time>
      </trkpt>
      <trkpt lat="45.98132" lon="4.81096">
        <ele>245</ele>
        <time>2017-06-26T08:15:17Z</time>
      </trkpt>
      <trkpt lat="45.98134" lon="4.811">
        <ele>245</ele>
        <time>2017-06-26T08:15:18Z</time>
      </trkpt>
      <trkpt lat="45.98136" lon="4.81108">
        <ele>245</ele>
        <time>2017-06-26T08:15:20Z</time>
      </trkpt>
      <trkpt lat="45.98138" lon="4.81112">
        <ele>245</ele>
        <time>2017-06-26T08:15:21Z</time>
      </trkpt>
      <trkpt lat="45.98141" lon="4.81119">
        <ele>245</ele>
        <time>2017-06-26T08:15:23Z</time>
      </trkpt>
      <trkpt lat="45.98143" lon="4.81123">
        <ele>245</ele>
        <time>2017-06-26T08:15:24Z</time>
      </trkpt>
      <trkpt lat="45.98148" lon="4.81133">
        <ele>245</ele>
        <time>2017-06-26T08:15:27Z</time>
      </trkpt>
      <trkpt lat="45.98149" lon="4.81136">
        <ele>245</ele>
        <time>2017-06-26T08:15:28Z</time>
      </trkpt>
      <trkpt lat="45.98152" lon="4.81145">
        <ele>245</ele>
        <time>2017-06-26T08:15:31Z</time>
      </trkpt>
      <trkpt lat="45.98154" lon="4.81148">
        <ele>245</ele>
        <time>2017-06-26T08:15:32Z</time>
      </trkpt>
      <trkpt lat="45.98157" lon="4.81157">
        <ele>245</ele>
        <time>2017-06-26T08:15:34Z</time>
      </trkpt>
      <trkpt lat="45.98159" lon="4.81161">
        <ele>245</ele>
        <time>2017-06-26T08:15:35Z</time>
      </trkpt>
      <trkpt lat="45.98162" lon="4.81171">
        <ele>245</ele>
        <time>2017-06-26T08:15:37Z</time>
      </trkpt>
      <trkpt lat="45.98163" lon="4.81175">
        <ele>246</ele>
        <time>2017-06-26T08:15:38Z</time>
      </trkpt>
      <trkpt lat="45.98162" lon="4.81187">
        <ele>246</ele>
        <time>2017-06-26T08:15:41Z</time>
      </trkpt>
      <trkpt lat="45.98162" lon="4.81192">
        <ele>246</ele>
        <time>2017-06-26T08:15:42Z</time>
      </trkpt>
      <trkpt lat="45.98164" lon="4.81202">
        <ele>246</ele>
        <time>2017-06-26T08:15:44Z</time>
      </trkpt>
      <trkpt lat="45.98165" lon="4.81208">
        <ele>247</ele>
        <time>2017-06-26T08:15:45Z</time>
      </trkpt>
      <trkpt lat="45.98167" lon="4.8122">
        <ele>247</ele>
        <time>2017-06-26T08:15:47Z</time>
      </trkpt>
      <trkpt lat="45.98167" lon="4.81225">
        <ele>246</ele>
        <time>2017-06-26T08:15:48Z</time>
      </trkpt>
      <trkpt lat="45.98169" lon="4.81236">
        <ele>247</ele>
        <time>2017-06-26T08:15:50Z</time>
      </trkpt>
      <trkpt lat="45.98171" lon="4.81241">
        <ele>247</ele>
        <time>2017-06-26T08:15:51Z</time>
      </trkpt>
      <trkpt lat="45.98172" lon="4.81251">
        <ele>248</ele>
        <time>2017-06-26T08:15:53Z</time>
      </trkpt>
      <trkpt lat="45.98172" lon="4.81255">
        <ele>248</ele>
        <time>2017-06-26T08:15:54Z</time>
      </trkpt>
      <trkpt lat="45.98174" lon="4.81264">
        <ele>247</ele>
        <time>2017-06-26T08:15:56Z</time>
      </trkpt>
      <trkpt lat="45.98175" lon="4.81269">
        <ele>247</ele>
        <time>2017-06-26T08:15:57Z</time>
      </trkpt>
      <trkpt lat="45.98178" lon="4.81279">
        <ele>247</ele>
        <time>2017-06-26T08:15:59Z</time>
      </trkpt>
      <trkpt lat="45.98179" lon="4.81283">
        <ele>247</ele>
        <time>2017-06-26T08:16:00Z</time>
      </trkpt>
      <trkpt lat="45.98181" lon="4.81294">
        <ele>247</ele>
        <time>2017-06-26T08:16:02Z</time>
      </trkpt>
      <trkpt lat="45.98182" lon="4.813">
        <ele>247</ele>
        <time>2017-06-26T08:16:03Z</time>
      </trkpt>
      <trkpt lat="45.98182" lon="4.81306">
        <ele>247</ele>
        <time>2017-06-26T08:16:04Z</time>
      </trkpt>
      <trkpt lat="45.98183" lon="4.81313">
        <ele>247</ele>
        <time>2017-06-26T08:16:05Z</time>
      </trkpt>
      <trkpt lat="45.98186" lon="4.81324">
        <ele>247</ele>
        <time>2017-06-26T08:16:07Z</time>
      </trkpt>
      <trkpt lat="45.98187" lon="4.81329">
        <ele>247</ele>
        <time>2017-06-26T08:16:08Z</time>
      </trkpt>
      <trkpt lat="45.98188" lon="4.81338">
        <ele>248</ele>
        <time>2017-06-26T08:16:10Z</time>
      </trkpt>
      <trkpt lat="45.98189" lon="4.81343">
        <ele>248</ele>
        <time>2017-06-26T08:16:11Z</time>
      </trkpt>
      <trkpt lat="45.98191" lon="4.81353">
        <ele>248</ele>
        <time>2017-06-26T08:16:13Z</time>
      </trkpt>
      <trkpt lat="45.98192" lon="4.81358">
        <ele>248</ele>
        <time>2017-06-26T08:16:14Z</time>
      </trkpt>
      <trkpt lat="45.98194" lon="4.81366">
        <ele>248</ele>
        <time>2017-06-26T08:16:16Z</time>
      </trkpt>
      <trkpt lat="45.98195" lon="4.81371">
        <ele>248</ele>
        <time>2017-06-26T08:16:17Z</time>
      </trkpt>
      <trkpt lat="45.98198" lon="4.81378">
        <ele>248</ele>
        <time>2017-06-26T08:16:19Z</time>
      </trkpt>
      <trkpt lat="45.98199" lon="4.81383">
        <ele>248</ele>
        <time>2017-06-26T08:16:20Z</time>
      </trkpt>
      <trkpt lat="45.98201" lon="4.81392">
        <ele>248</ele>
        <time>2017-06-26T08:16:22Z</time>
      </trkpt>
      <trkpt lat="45.98202" lon="4.81396">
        <ele>248</ele>
        <time>2017-06-26T08:16:23Z</time>
      </trkpt>
      <trkpt lat="45.98207" lon="4.81406">
        <ele>248</ele>
        <time>2017-06-26T08:16:26Z</time>
      </trkpt>
      <trkpt lat="45.98208" lon="4.8141">
        <ele>248</ele>
        <time>2017-06-26T08:16:27Z</time>
      </trkpt>
      <trkpt lat="45.98211" lon="4.8142">
        <ele>249</ele>
        <time>2017-06-26T08:16:29Z</time>
      </trkpt>
      <trkpt lat="45.98213" lon="4.81424">
        <ele>249</ele>
        <time>2017-06-26T08:16:30Z</time>
      </trkpt>
      <trkpt lat="45.98216" lon="4.81432">
        <ele>249</ele>
        <time>2017-06-26T08:16:32Z</time>
      </trkpt>
      <trkpt lat="45.98217" lon="4.81436">
        <ele>249</ele>
        <time>2017-06-26T08:16:33Z</time>
      </trkpt>
      <trkpt lat="45.9822" lon="4.81444">
        <ele>249</ele>
        <time>2017-06-26T08:16:35Z</time>
      </trkpt>
      <trkpt lat="45.98221" lon="4.81449">
        <ele>249</ele>
        <time>2017-06-26T08:16:36Z</time>
      </trkpt>
      <trkpt lat="45.98224" lon="4.81459">
        <ele>249</ele>
        <time>2017-06-26T08:16:38Z</time>
      </trkpt>
      <trkpt lat="45.98226" lon="4.81463">
        <ele>249</ele>
        <time>2017-06-26T08:16:39Z</time>
      </trkpt>
      <trkpt lat="45.98229" lon="4.81472">
        <ele>249</ele>
        <time>2017-06-26T08:16:41Z</time>
      </trkpt>
      <trkpt lat="45.98231" lon="4.81477">
        <ele>249</ele>
        <time>2017-06-26T08:16:42Z</time>
      </trkpt>
      <trkpt lat="45.98233" lon="4.81483">
        <ele>249</ele>
        <time>2017-06-26T08:16:43Z</time>
      </trkpt>
      <trkpt lat="45.98235" lon="4.81488">
        <ele>249</ele>
        <time>2017-06-26T08:16:44Z</time>
      </trkpt>
      <trkpt lat="45.98237" lon="4.81494">
        <ele>249</ele>
        <time>2017-06-26T08:16:45Z</time>
      </trkpt>
      <trkpt lat="45.98239" lon="4.815">
        <ele>249</ele>
        <time>2017-06-26T08:16:46Z</time>
      </trkpt>
      <trkpt lat="45.98241" lon="4.81506">
        <ele>249</ele>
        <time>2017-06-26T08:16:47Z</time>
      </trkpt>
      <trkpt lat="45.98243" lon="4.81512">
        <ele>249</ele>
        <time>2017-06-26T08:16:48Z</time>
      </trkpt>
      <trkpt lat="45.98245" lon="4.81518">
        <ele>249</ele>
        <time>2017-06-26T08:16:49Z</time>
      </trkpt>
      <trkpt lat="45.98247" lon="4.81524">
        <ele>249</ele>
        <time>2017-06-26T08:16:50Z</time>
      </trkpt>
      <trkpt lat="45.98249" lon="4.8153">
        <ele>249</ele>
        <time>2017-06-26T08:16:51Z</time>
      </trkpt>
      <trkpt lat="45.98251" lon="4.81536">
        <ele>247</ele>
        <time>2017-06-26T08:16:52Z</time>
      </trkpt>
      <trkpt lat="45.98253" lon="4.81542">
        <ele>247</ele>
        <time>2017-06-26T08:16:53Z</time>
      </trkpt>
      <trkpt lat="45.98255" lon="4.81549">
        <ele>247</ele>
        <time>2017-06-26T08:16:54Z</time>
      </trkpt>
      <trkpt lat="45.98257" lon="4.81555">
        <ele>247</ele>
        <time>2017-06-26T08:16:55Z</time>
      </trkpt>
      <trkpt lat="45.98259" lon="4.81561">
        <ele>247</ele>
        <time>2017-06-26T08:16:56Z</time>
      </trkpt>
      <trkpt lat="45.98262" lon="4.81567">
        <ele>247</ele>
        <time>2017-06-26T08:16:57Z</time>
      </trkpt>
      <trkpt lat="45.98264" lon="4.81573">
        <ele>247</ele>
        <time>2017-06-26T08:16:58Z</time>
      </trkpt>
      <trkpt lat="45.98265" lon="4.81579">
        <ele>247</ele>
        <time>2017-06-26T08:16:59Z</time>
      </trkpt>
      <trkpt lat="45.98267" lon="4.81585">
        <ele>247</ele>
        <time>2017-06-26T08:17:00Z</time>
      </trkpt>
      <trkpt lat="45.9827" lon="4.81591">
        <ele>247</ele>
        <time>2017-06-26T08:17:01Z</time>
      </trkpt>
      <trkpt lat="45.98272" lon="4.81597">
        <ele>247</ele>
        <time>2017-06-26T08:17:02Z</time>
      </trkpt>
      <trkpt lat="45.98275" lon="4.81603">
        <ele>247</ele>
        <time>2017-06-26T08:17:03Z</time>
      </trkpt>
      <trkpt lat="45.98277" lon="4.8161">
        <ele>247</ele>
        <time>2017-06-26T08:17:04Z</time>
      </trkpt>
      <trkpt lat="45.9828" lon="4.81616">
        <ele>247</ele>
        <time>2017-06-26T08:17:05Z</time>
      </trkpt>
      <trkpt lat="45.98283" lon="4.81621">
        <ele>247</ele>
        <time>2017-06-26T08:17:06Z</time>
      </trkpt>
      <trkpt lat="45.98287" lon="4.81626">
        <ele>247</ele>
        <time>2017-06-26T08:17:07Z</time>
      </trkpt>
      <trkpt lat="45.9829" lon="4.81631">
        <ele>247</ele>
        <time>2017-06-26T08:17:08Z</time>
      </trkpt>
      <trkpt lat="45.98294" lon="4.81636">
        <ele>247</ele>
        <time>2017-06-26T08:17:09Z</time>
      </trkpt>
      <trkpt lat="45.98298" lon="4.8164">
        <ele>247</ele>
        <time>2017-06-26T08:17:10Z</time>
      </trkpt>
      <trkpt lat="45.98301" lon="4.81644">
        <ele>246</ele>
        <time>2017-06-26T08:17:11Z</time>
      </trkpt>
      <trkpt lat="45.98305" lon="4.81647">
        <ele>246</ele>
        <time>2017-06-26T08:17:12Z</time>
      </trkpt>
      <trkpt lat="45.98309" lon="4.81651">
        <ele>246</ele>
        <time>2017-06-26T08:17:13Z</time>
      </trkpt>
      <trkpt lat="45.98313" lon="4.81655">
        <ele>246</ele>
        <time>2017-06-26T08:17:14Z</time>
      </trkpt>
      <trkpt lat="45.98318" lon="4.81659">
        <ele>246</ele>
        <time>2017-06-26T08:17:15Z</time>
      </trkpt>
      <trkpt lat="45.98322" lon="4.81663">
        <ele>246</ele>
        <time>2017-06-26T08:17:16Z</time>
      </trkpt>
      <trkpt lat="45.98327" lon="4.81666">
        <ele>246</ele>
        <time>2017-06-26T08:17:17Z</time>
      </trkpt>
      <trkpt lat="45.98331" lon="4.81669">
        <ele>246</ele>
        <time>2017-06-26T08:17:18Z</time>
      </trkpt>
      <trkpt lat="45.98336" lon="4.81671">
        <ele>246</ele>
        <time>2017-06-26T08:17:19Z</time>
      </trkpt>
      <trkpt lat="45.98341" lon="4.81673">
        <ele>245</ele>
        <time>2017-06-26T08:17:20Z</time>
      </trkpt>
      <trkpt lat="45.98347" lon="4.81675">
        <ele>245</ele>
        <time>2017-06-26T08:17:21Z</time>
      </trkpt>
      <trkpt lat="45.98352" lon="4.81676">
        <ele>245</ele>
        <time>2017-06-26T08:17:22Z</time>
      </trkpt>
      <trkpt lat="45.98358" lon="4.81677">
        <ele>245</ele>
        <time>2017-06-26T08:17:23Z</time>
      </trkpt>
      <trkpt lat="45.98363" lon="4.81677">
        <ele>244</ele>
        <time>2017-06-26T08:17:24Z</time>
      </trkpt>
      <trkpt lat="45.98368" lon="4.81677">
        <ele>244</ele>
        <time>2017-06-26T08:17:25Z</time>
      </trkpt>
      <trkpt lat="45.98374" lon="4.81676">
        <ele>244</ele>
        <time>2017-06-26T08:17:26Z</time>
      </trkpt>
      <trkpt lat="45.98379" lon="4.81675">
        <ele>244</ele>
        <time>2017-06-26T08:17:27Z</time>
      </trkpt>
      <trkpt lat="45.98384" lon="4.81673">
        <ele>243</ele>
        <time>2017-06-26T08:17:28Z</time>
      </trkpt>
      <trkpt lat="45.9839" lon="4.81672">
        <ele>243</ele>
        <time>2017-06-26T08:17:29Z</time>
      </trkpt>
      <trkpt lat="45.98395" lon="4.81671">
        <ele>243</ele>
        <time>2017-06-26T08:17:30Z</time>
      </trkpt>
      <trkpt lat="45.984" lon="4.8167">
        <ele>243</ele>
        <time>2017-06-26T08:17:31Z</time>
      </trkpt>
      <trkpt lat="45.98404" lon="4.81668">
        <ele>242</ele>
        <time>2017-06-26T08:17:32Z</time>
      </trkpt>
      <trkpt lat="45.98413" lon="4.81668">
        <ele>241</ele>
        <time>2017-06-26T08:17:34Z</time>
      </trkpt>
      <trkpt lat="45.98418" lon="4.81668">
        <ele>241</ele>
        <time>2017-06-26T08:17:35Z</time>
      </trkpt>
      <trkpt lat="45.98422" lon="4.81669">
        <ele>241</ele>
        <time>2017-06-26T08:17:36Z</time>
      </trkpt>
      <trkpt lat="45.98427" lon="4.8167">
        <ele>240</ele>
        <time>2017-06-26T08:17:37Z</time>
      </trkpt>
      <trkpt lat="45.98431" lon="4.81673">
        <ele>240</ele>
        <time>2017-06-26T08:17:38Z</time>
      </trkpt>
      <trkpt lat="45.98436" lon="4.81676">
        <ele>240</ele>
        <time>2017-06-26T08:17:39Z</time>
      </trkpt>
      <trkpt lat="45.9844" lon="4.8168">
        <ele>240</ele>
        <time>2017-06-26T08:17:40Z</time>
      </trkpt>
      <trkpt lat="45.98443" lon="4.81684">
        <ele>239</ele>
        <time>2017-06-26T08:17:41Z</time>
      </trkpt>
      <trkpt lat="45.98447" lon="4.81689">
        <ele>239</ele>
        <time>2017-06-26T08:17:42Z</time>
      </trkpt>
      <trkpt lat="45.9845" lon="4.81693">
        <ele>239</ele>
        <time>2017-06-26T08:17:43Z</time>
      </trkpt>
      <trkpt lat="45.98453" lon="4.81699">
        <ele>239</ele>
        <time>2017-06-26T08:17:44Z</time>
      </trkpt>
      <trkpt lat="45.98456" lon="4.81704">
        <ele>239</ele>
        <time>2017-06-26T08:17:45Z</time>
      </trkpt>
      <trkpt lat="45.98459" lon="4.8171">
        <ele>239</ele>
        <time>2017-06-26T08:17:46Z</time>
      </trkpt>
      <trkpt lat="45.98463" lon="4.81716">
        <ele>239</ele>
        <time>2017-06-26T08:17:47Z</time>
      </trkpt>
      <trkpt lat="45.98468" lon="4.81722">
        <ele>239</ele>
        <time>2017-06-26T08:17:48Z</time>
      </trkpt>
      <trkpt lat="45.98473" lon="4.81728">
        <ele>239</ele>
        <time>2017-06-26T08:17:49Z</time>
      </trkpt>
      <trkpt lat="45.98479" lon="4.81734">
        <ele>238</ele>
        <time>2017-06-26T08:17:50Z</time>
      </trkpt>
      <trkpt lat="45.98485" lon="4.8174">
        <ele>238</ele>
        <time>2017-06-26T08:17:51Z</time>
      </trkpt>
      <trkpt lat="45.98491" lon="4.81746">
        <ele>238</ele>
        <time>2017-06-26T08:17:52Z</time>
      </trkpt>
      <trkpt lat="45.98497" lon="4.81753">
        <ele>238</ele>
        <time>2017-06-26T08:17:53Z</time>
      </trkpt>
      <trkpt lat="45.98503" lon="4.81761">
        <ele>237</ele>
        <time>2017-06-26T08:17:54Z</time>
      </trkpt>
      <trkpt lat="45.98509" lon="4.81769">
        <ele>237</ele>
        <time>2017-06-26T08:17:55Z</time>
      </trkpt>
      <trkpt lat="45.98515" lon="4.81777">
        <ele>238</ele>
        <time>2017-06-26T08:17:56Z</time>
      </trkpt>
      <trkpt lat="45.98521" lon="4.81786">
        <ele>238</ele>
        <time>2017-06-26T08:17:57Z</time>
      </trkpt>
      <trkpt lat="45.98526" lon="4.81794">
        <ele>238</ele>
        <time>2017-06-26T08:17:58Z</time>
      </trkpt>
      <trkpt lat="45.98531" lon="4.818">
        <ele>238</ele>
        <time>2017-06-26T08:17:59Z</time>
      </trkpt>
      <trkpt lat="45.98536" lon="4.81805">
        <ele>238</ele>
        <time>2017-06-26T08:18:00Z</time>
      </trkpt>
      <trkpt lat="45.98541" lon="4.81809">
        <ele>238</ele>
        <time>2017-06-26T08:18:01Z</time>
      </trkpt>
      <trkpt lat="45.98547" lon="4.81811">
        <ele>238</ele>
        <time>2017-06-26T08:18:02Z</time>
      </trkpt>
      <trkpt lat="45.98553" lon="4.8181">
        <ele>238</ele>
        <time>2017-06-26T08:18:03Z</time>
      </trkpt>
      <trkpt lat="45.98558" lon="4.81806">
        <ele>238</ele>
        <time>2017-06-26T08:18:04Z</time>
      </trkpt>
      <trkpt lat="45.98562" lon="4.81801">
        <ele>238</ele>
        <time>2017-06-26T08:18:05Z</time>
      </trkpt>
      <trkpt lat="45.98566" lon="4.81796">
        <ele>238</ele>
        <time>2017-06-26T08:18:06Z</time>
      </trkpt>
      <trkpt lat="45.9857" lon="4.81791">
        <ele>238</ele>
        <time>2017-06-26T08:18:07Z</time>
      </trkpt>
      <trkpt lat="45.98574" lon="4.81786">
        <ele>238</ele>
        <time>2017-06-26T08:18:08Z</time>
      </trkpt>
      <trkpt lat="45.98578" lon="4.81781">
        <ele>238</ele>
        <time>2017-06-26T08:18:09Z</time>
      </trkpt>
      <trkpt lat="45.98582" lon="4.81777">
        <ele>237</ele>
        <time>2017-06-26T08:18:10Z</time>
      </trkpt>
      <trkpt lat="45.98586" lon="4.81773">
        <ele>238</ele>
        <time>2017-06-26T08:18:11Z</time>
      </trkpt>
      <trkpt lat="45.9859" lon="4.8177">
        <ele>238</ele>
        <time>2017-06-26T08:18:12Z</time>
      </trkpt>
      <trkpt lat="45.98595" lon="4.81767">
        <ele>238</ele>
        <time>2017-06-26T08:18:13Z</time>
      </trkpt>
      <trkpt lat="45.986" lon="4.81765">
        <ele>238</ele>
        <time>2017-06-26T08:18:14Z</time>
      </trkpt>
      <trkpt lat="45.98605" lon="4.81762">
        <ele>238</ele>
        <time>2017-06-26T08:18:15Z</time>
      </trkpt>
      <trkpt lat="45.9861" lon="4.81761">
        <ele>238</ele>
        <time>2017-06-26T08:18:16Z</time>
      </trkpt>
      <trkpt lat="45.98616" lon="4.81759">
        <ele>238</ele>
        <time>2017-06-26T08:18:17Z</time>
      </trkpt>
      <trkpt lat="45.98621" lon="4.81758">
        <ele>238</ele>
        <time>2017-06-26T08:18:18Z</time>
      </trkpt>
      <trkpt lat="45.98626" lon="4.81755">
        <ele>238</ele>
        <time>2017-06-26T08:18:19Z</time>
      </trkpt>
      <trkpt lat="45.9863" lon="4.81753">
        <ele>238</ele>
        <time>2017-06-26T08:18:20Z</time>
      </trkpt>
      <trkpt lat="45.98635" lon="4.81751">
        <ele>238</ele>
        <time>2017-06-26T08:18:21Z</time>
      </trkpt>
      <trkpt lat="45.98643" lon="4.81749">
        <ele>237</ele>
        <time>2017-06-26T08:18:23Z</time>
      </trkpt>
      <trkpt lat="45.98647" lon="4.81748">
        <ele>237</ele>
        <time>2017-06-26T08:18:24Z</time>
      </trkpt>
      <trkpt lat="45.98655" lon="4.81745">
        <ele>237</ele>
        <time>2017-06-26T08:18:26Z</time>
      </trkpt>
      <trkpt lat="45.9866" lon="4.81744">
        <ele>238</ele>
        <time>2017-06-26T08:18:27Z</time>
      </trkpt>
      <trkpt lat="45.98668" lon="4.81743">
        <ele>238</ele>
        <time>2017-06-26T08:18:29Z</time>
      </trkpt>
      <trkpt lat="45.98672" lon="4.81742">
        <ele>238</ele>
        <time>2017-06-26T08:18:30Z</time>
      </trkpt>
      <trkpt lat="45.98681" lon="4.81739">
        <ele>238</ele>
        <time>2017-06-26T08:18:32Z</time>
      </trkpt>
      <trkpt lat="45.98685" lon="4.81737">
        <ele>238</ele>
        <time>2017-06-26T08:18:33Z</time>
      </trkpt>
      <trkpt lat="45.9869" lon="4.81736">
        <ele>238</ele>
        <time>2017-06-26T08:18:34Z</time>
      </trkpt>
      <trkpt lat="45.98694" lon="4.81735">
        <ele>238</ele>
        <time>2017-06-26T08:18:35Z</time>
      </trkpt>
      <trkpt lat="45.98703" lon="4.81733">
        <ele>239</ele>
        <time>2017-06-26T08:18:37Z</time>
      </trkpt>
      <trkpt lat="45.98708" lon="4.81732">
        <ele>239</ele>
        <time>2017-06-26T08:18:38Z</time>
      </trkpt>
      <trkpt lat="45.98716" lon="4.81733">
        <ele>239</ele>
        <time>2017-06-26T08:18:40Z</time>
      </trkpt>
      <trkpt lat="45.98721" lon="4.81733">
        <ele>239</ele>
        <time>2017-06-26T08:18:41Z</time>
      </trkpt>
      <trkpt lat="45.98729" lon="4.81737">
        <ele>239</ele>
        <time>2017-06-26T08:18:43Z</time>
      </trkpt>
      <trkpt lat="45.98733" lon="4.81742">
        <ele>240</ele>
        <time>2017-06-26T08:18:44Z</time>
      </trkpt>
      <trkpt lat="45.98735" lon="4.81747">
        <ele>240</ele>
        <time>2017-06-26T08:18:45Z</time>
      </trkpt>
      <trkpt lat="45.98738" lon="4.81752">
        <ele>240</ele>
        <time>2017-06-26T08:18:46Z</time>
      </trkpt>
      <trkpt lat="45.98741" lon="4.81758">
        <ele>240</ele>
        <time>2017-06-26T08:18:47Z</time>
      </trkpt>
      <trkpt lat="45.98744" lon="4.81764">
        <ele>240</ele>
        <time>2017-06-26T08:18:48Z</time>
      </trkpt>
      <trkpt lat="45.98747" lon="4.81768">
        <ele>240</ele>
        <time>2017-06-26T08:18:49Z</time>
      </trkpt>
      <trkpt lat="45.9875" lon="4.81774">
        <ele>240</ele>
        <time>2017-06-26T08:18:50Z</time>
      </trkpt>
      <trkpt lat="45.98752" lon="4.8178">
        <ele>241</ele>
        <time>2017-06-26T08:18:51Z</time>
      </trkpt>
      <trkpt lat="45.98755" lon="4.81786">
        <ele>241</ele>
        <time>2017-06-26T08:18:52Z</time>
      </trkpt>
      <trkpt lat="45.98758" lon="4.81792">
        <ele>240</ele>
        <time>2017-06-26T08:18:53Z</time>
      </trkpt>
      <trkpt lat="45.98761" lon="4.81798">
        <ele>240</ele>
        <time>2017-06-26T08:18:54Z</time>
      </trkpt>
      <trkpt lat="45.98764" lon="4.81804">
        <ele>240</ele>
        <time>2017-06-26T08:18:55Z</time>
      </trkpt>
      <trkpt lat="45.98767" lon="4.8181">
        <ele>240</ele>
        <time>2017-06-26T08:18:56Z</time>
      </trkpt>
      <trkpt lat="45.9877" lon="4.81817">
        <ele>240</ele>
        <time>2017-06-26T08:18:57Z</time>
      </trkpt>
      <trkpt lat="45.98773" lon="4.81823">
        <ele>240</ele>
        <time>2017-06-26T08:18:58Z</time>
      </trkpt>
      <trkpt lat="45.98776" lon="4.81831">
        <ele>240</ele>
        <time>2017-06-26T08:18:59Z</time>
      </trkpt>
      <trkpt lat="45.98778" lon="4.81838">
        <ele>239</ele>
        <time>2017-06-26T08:19:00Z</time>
      </trkpt>
      <trkpt lat="45.98781" lon="4.81845">
        <ele>239</ele>
        <time>2017-06-26T08:19:01Z</time>
      </trkpt>
      <trkpt lat="45.98784" lon="4.81852">
        <ele>239</ele>
        <time>2017-06-26T08:19:02Z</time>
      </trkpt>
      <trkpt lat="45.98787" lon="4.81859">
        <ele>239</ele>
        <time>2017-06-26T08:19:03Z</time>
      </trkpt>
      <trkpt lat="45.9879" lon="4.81867">
        <ele>239</ele>
        <time>2017-06-26T08:19:04Z</time>
      </trkpt>
      <trkpt lat="45.98793" lon="4.81874">
        <ele>239</ele>
        <time>2017-06-26T08:19:05Z</time>
      </trkpt>
      <trkpt lat="45.98795" lon="4.81882">
        <ele>239</ele>
        <time>2017-06-26T08:19:06Z</time>
      </trkpt>
      <trkpt lat="45.98798" lon="4.81889">
        <ele>239</ele>
        <time>2017-06-26T08:19:07Z</time>
      </trkpt>
      <trkpt lat="45.988" lon="4.81897">
        <ele>239</ele>
        <time>2017-06-26T08:19:08Z</time>
      </trkpt>
      <trkpt lat="45.98801" lon="4.81905">
        <ele>239</ele>
        <time>2017-06-26T08:19:09Z</time>
      </trkpt>
      <trkpt lat="45.98802" lon="4.81913">
        <ele>239</ele>
        <time>2017-06-26T08:19:10Z</time>
      </trkpt>
      <trkpt lat="45.98804" lon="4.81921">
        <ele>239</ele>
        <time>2017-06-26T08:19:11Z</time>
      </trkpt>
      <trkpt lat="45.98805" lon="4.81929">
        <ele>239</ele>
        <time>2017-06-26T08:19:12Z</time>
      </trkpt>
      <trkpt lat="45.98806" lon="4.81937">
        <ele>239</ele>
        <time>2017-06-26T08:19:13Z</time>
      </trkpt>
      <trkpt lat="45.98808" lon="4.81945">
        <ele>239</ele>
        <time>2017-06-26T08:19:14Z</time>
      </trkpt>
      <trkpt lat="45.98809" lon="4.81953">
        <ele>239</ele>
        <time>2017-06-26T08:19:15Z</time>
      </trkpt>
      <trkpt lat="45.9881" lon="4.81962">
        <ele>239</ele>
        <time>2017-06-26T08:19:16Z</time>
      </trkpt>
      <trkpt lat="45.98811" lon="4.8197">
        <ele>239</ele>
        <time>2017-06-26T08:19:17Z</time>
      </trkpt>
      <trkpt lat="45.98813" lon="4.81977">
        <ele>239</ele>
        <time>2017-06-26T08:19:18Z</time>
      </trkpt>
      <trkpt lat="45.98813" lon="4.81984">
        <ele>239</ele>
        <time>2017-06-26T08:19:19Z</time>
      </trkpt>
      <trkpt lat="45.98814" lon="4.81991">
        <ele>238</ele>
        <time>2017-06-26T08:19:20Z</time>
      </trkpt>
      <trkpt lat="45.98815" lon="4.81998">
        <ele>238</ele>
        <time>2017-06-26T08:19:21Z</time>
      </trkpt>
      <trkpt lat="45.98816" lon="4.82004">
        <ele>238</ele>
        <time>2017-06-26T08:19:22Z</time>
      </trkpt>
      <trkpt lat="45.98817" lon="4.82011">
        <ele>238</ele>
        <time>2017-06-26T08:19:23Z</time>
      </trkpt>
      <trkpt lat="45.98819" lon="4.82018">
        <ele>238</ele>
        <time>2017-06-26T08:19:24Z</time>
      </trkpt>
      <trkpt lat="45.9882" lon="4.82024">
        <ele>238</ele>
        <time>2017-06-26T08:19:25Z</time>
      </trkpt>
      <trkpt lat="45.98821" lon="4.82031">
        <ele>238</ele>
        <time>2017-06-26T08:19:26Z</time>
      </trkpt>
      <trkpt lat="45.98822" lon="4.82038">
        <ele>238</ele>
        <time>2017-06-26T08:19:27Z</time>
      </trkpt>
      <trkpt lat="45.98823" lon="4.82045">
        <ele>238</ele>
        <time>2017-06-26T08:19:28Z</time>
      </trkpt>
      <trkpt lat="45.98825" lon="4.82052">
        <ele>237</ele>
        <time>2017-06-26T08:19:29Z</time>
      </trkpt>
      <trkpt lat="45.98826" lon="4.82058">
        <ele>237</ele>
        <time>2017-06-26T08:19:30Z</time>
      </trkpt>
      <trkpt lat="45.98827" lon="4.82065">
        <ele>237</ele>
        <time>2017-06-26T08:19:31Z</time>
      </trkpt>
      <trkpt lat="45.98828" lon="4.82071">
        <ele>237</ele>
        <time>2017-06-26T08:19:32Z</time>
      </trkpt>
      <trkpt lat="45.98829" lon="4.82078">
        <ele>237</ele>
        <time>2017-06-26T08:19:33Z</time>
      </trkpt>
      <trkpt lat="45.9883" lon="4.82084">
        <ele>236</ele>
        <time>2017-06-26T08:19:34Z</time>
      </trkpt>
      <trkpt lat="45.98831" lon="4.82092">
        <ele>237</ele>
        <time>2017-06-26T08:19:35Z</time>
      </trkpt>
      <trkpt lat="45.98833" lon="4.82099">
        <ele>237</ele>
        <time>2017-06-26T08:19:36Z</time>
      </trkpt>
      <trkpt lat="45.98834" lon="4.82107">
        <ele>236</ele>
        <time>2017-06-26T08:19:37Z</time>
      </trkpt>
      <trkpt lat="45.98835" lon="4.82114">
        <ele>236</ele>
        <time>2017-06-26T08:19:38Z</time>
      </trkpt>
      <trkpt lat="45.98837" lon="4.82122">
        <ele>236</ele>
        <time>2017-06-26T08:19:39Z</time>
      </trkpt>
      <trkpt lat="45.98838" lon="4.82129">
        <ele>236</ele>
        <time>2017-06-26T08:19:40Z</time>
      </trkpt>
      <trkpt lat="45.9884" lon="4.82136">
        <ele>236</ele>
        <time>2017-06-26T08:19:41Z</time>
      </trkpt>
      <trkpt lat="45.98841" lon="4.82142">
        <ele>236</ele>
        <time>2017-06-26T08:19:42Z</time>
      </trkpt>
      <trkpt lat="45.98843" lon="4.82149">
        <ele>236</ele>
        <time>2017-06-26T08:19:43Z</time>
      </trkpt>
      <trkpt lat="45.98845" lon="4.82155">
        <ele>236</ele>
        <time>2017-06-26T08:19:44Z</time>
      </trkpt>
      <trkpt lat="45.98846" lon="4.82162">
        <ele>236</ele>
        <time>2017-06-26T08:19:45Z</time>
      </trkpt>
      <trkpt lat="45.98848" lon="4.82169">
        <ele>236</ele>
        <time>2017-06-26T08:19:46Z</time>
      </trkpt>
      <trkpt lat="45.98851" lon="4.82176">
        <ele>236</ele>
        <time>2017-06-26T08:19:47Z</time>
      </trkpt>
      <trkpt lat="45.98853" lon="4.82183">
        <ele>236</ele>
        <time>2017-06-26T08:19:48Z</time>
      </trkpt>
      <trkpt lat="45.98856" lon="4.82191">
        <ele>236</ele>
        <time>2017-06-26T08:19:49Z</time>
      </trkpt>
      <trkpt lat="45.98859" lon="4.82198">
        <ele>236</ele>
        <time>2017-06-26T08:19:50Z</time>
      </trkpt>
      <trkpt lat="45.98861" lon="4.82206">
        <ele>236</ele>
        <time>2017-06-26T08:19:51Z</time>
      </trkpt>
      <trkpt lat="45.98865" lon="4.82212">
        <ele>236</ele>
        <time>2017-06-26T08:19:52Z</time>
      </trkpt>
      <trkpt lat="45.98868" lon="4.82218">
        <ele>236</ele>
        <time>2017-06-26T08:19:53Z</time>
      </trkpt>
      <trkpt lat="45.9887" lon="4.82224">
        <ele>236</ele>
        <time>2017-06-26T08:19:54Z</time>
      </trkpt>
      <trkpt lat="45.98873" lon="4.8223">
        <ele>236</ele>
        <time>2017-06-26T08:19:55Z</time>
      </trkpt>
      <trkpt lat="45.98876" lon="4.82236">
        <ele>236</ele>
        <time>2017-06-26T08:19:56Z</time>
      </trkpt>
      <trkpt lat="45.98879" lon="4.82242">
        <ele>236</ele>
        <time>2017-06-26T08:19:57Z</time>
      </trkpt>
      <trkpt lat="45.98881" lon="4.82248">
        <ele>236</ele>
        <time>2017-06-26T08:19:58Z</time>
      </trkpt>
      <trkpt lat="45.98884" lon="4.82254">
        <ele>236</ele>
        <time>2017-06-26T08:19:59Z</time>
      </trkpt>
      <trkpt lat="45.98886" lon="4.82261">
        <ele>236</ele>
        <time>2017-06-26T08:20:00Z</time>
      </trkpt>
      <trkpt lat="45.9889" lon="4.82267">
        <ele>236</ele>
        <time>2017-06-26T08:20:01Z</time>
      </trkpt>
      <trkpt lat="45.98893" lon="4.82274">
        <ele>236</ele>
        <time>2017-06-26T08:20:02Z</time>
      </trkpt>
      <trkpt lat="45.98897" lon="4.8228">
        <ele>236</ele>
        <time>2017-06-26T08:20:03Z</time>
      </trkpt>
      <trkpt lat="45.98901" lon="4.82285">
        <ele>236</ele>
        <time>2017-06-26T08:20:04Z</time>
      </trkpt>
      <trkpt lat="45.98905" lon="4.82291">
        <ele>237</ele>
        <time>2017-06-26T08:20:05Z</time>
      </trkpt>
      <trkpt lat="45.9891" lon="4.82296">
        <ele>237</ele>
        <time>2017-06-26T08:20:06Z</time>
      </trkpt>
      <trkpt lat="45.98914" lon="4.82301">
        <ele>237</ele>
        <time>2017-06-26T08:20:07Z</time>
      </trkpt>
      <trkpt lat="45.98918" lon="4.82305">
        <ele>234</ele>
        <time>2017-06-26T08:20:08Z</time>
      </trkpt>
      <trkpt lat="45.98922" lon="4.8231">
        <ele>235</ele>
        <time>2017-06-26T08:20:09Z</time>
      </trkpt>
      <trkpt lat="45.98926" lon="4.82314">
        <ele>235</ele>
        <time>2017-06-26T08:20:10Z</time>
      </trkpt>
      <trkpt lat="45.9893" lon="4.82319">
        <ele>235</ele>
        <time>2017-06-26T08:20:11Z</time>
      </trkpt>
      <trkpt lat="45.98934" lon="4.82323">
        <ele>235</ele>
        <time>2017-06-26T08:20:12Z</time>
      </trkpt>
      <trkpt lat="45.98938" lon="4.82328">
        <ele>235</ele>
        <time>2017-06-26T08:20:13Z</time>
      </trkpt>
      <trkpt lat="45.98941" lon="4.82333">
        <ele>234</ele>
        <time>2017-06-26T08:20:14Z</time>
      </trkpt>
      <trkpt lat="45.98944" lon="4.82339">
        <ele>235</ele>
        <time>2017-06-26T08:20:15Z</time>
      </trkpt>
      <trkpt lat="45.98947" lon="4.82344">
        <ele>235</ele>
        <time>2017-06-26T08:20:16Z</time>
      </trkpt>
      <trkpt lat="45.98952" lon="4.82355">
        <ele>235</ele>
        <time>2017-06-26T08:20:18Z</time>
      </trkpt>
      <trkpt lat="45.98954" lon="4.8236">
        <ele>235</ele>
        <time>2017-06-26T08:20:19Z</time>
      </trkpt>
      <trkpt lat="45.98956" lon="4.82365">
        <ele>235</ele>
        <time>2017-06-26T08:20:20Z</time>
      </trkpt>
      <trkpt lat="45.98958" lon="4.82371">
        <ele>235</ele>
        <time>2017-06-26T08:20:21Z</time>
      </trkpt>
      <trkpt lat="45.9896" lon="4.82378">
        <ele>235</ele>
        <time>2017-06-26T08:20:22Z</time>
      </trkpt>
      <trkpt lat="45.98962" lon="4.82385">
        <ele>235</ele>
        <time>2017-06-26T08:20:23Z</time>
      </trkpt>
      <trkpt lat="45.98964" lon="4.82392">
        <ele>235</ele>
        <time>2017-06-26T08:20:24Z</time>
      </trkpt>
      <trkpt lat="45.98966" lon="4.82399">
        <ele>235</ele>
        <time>2017-06-26T08:20:25Z</time>
      </trkpt>
      <trkpt lat="45.98967" lon="4.82407">
        <ele>235</ele>
        <time>2017-06-26T08:20:26Z</time>
      </trkpt>
      <trkpt lat="45.98969" lon="4.82415">
        <ele>235</ele>
        <time>2017-06-26T08:20:27Z</time>
      </trkpt>
      <trkpt lat="45.98971" lon="4.82423">
        <ele>236</ele>
        <time>2017-06-26T08:20:28Z</time>
      </trkpt>
      <trkpt lat="45.98973" lon="4.82431">
        <ele>236</ele>
        <time>2017-06-26T08:20:29Z</time>
      </trkpt>
      <trkpt lat="45.98975" lon="4.82438">
        <ele>236</ele>
        <time>2017-06-26T08:20:30Z</time>
      </trkpt>
      <trkpt lat="45.98977" lon="4.82445">
        <ele>236</ele>
        <time>2017-06-26T08:20:31Z</time>
      </trkpt>
      <trkpt lat="45.98979" lon="4.82452">
        <ele>236</ele>
        <time>2017-06-26T08:20:32Z</time>
      </trkpt>
      <trkpt lat="45.98981" lon="4.82459">
        <ele>236</ele>
        <time>2017-06-26T08:20:33Z</time>
      </trkpt>
      <trkpt lat="45.98983" lon="4.82466">
        <ele>236</ele>
        <time>2017-06-26T08:20:34Z</time>
      </trkpt>
      <trkpt lat="45.98985" lon="4.82472">
        <ele>236</ele>
        <time>2017-06-26T08:20:35Z</time>
      </trkpt>
      <trkpt lat="45.98987" lon="4.82478">
        <ele>236</ele>
        <time>2017-06-26T08:20:36Z</time>
      </trkpt>
      <trkpt lat="45.98989" lon="4.82484">
        <ele>236</ele>
        <time>2017-06-26T08:20:37Z</time>
      </trkpt>
      <trkpt lat="45.98993" lon="4.82495">
        <ele>236</ele>
        <time>2017-06-26T08:20:39Z</time>
      </trkpt>
      <trkpt lat="45.98995" lon="4.82501">
        <ele>236</ele>
        <time>2017-06-26T08:20:40Z</time>
      </trkpt>
      <trkpt lat="45.98997" lon="4.82507">
        <ele>236</ele>
        <time>2017-06-26T08:20:41Z</time>
      </trkpt>
      <trkpt lat="45.99" lon="4.82513">
        <ele>236</ele>
        <time>2017-06-26T08:20:42Z</time>
      </trkpt>
      <trkpt lat="45.99003" lon="4.8252">
        <ele>235</ele>
        <time>2017-06-26T08:20:43Z</time>
      </trkpt>
      <trkpt lat="45.99006" lon="4.82526">
        <ele>235</ele>
        <time>2017-06-26T08:20:44Z</time>
      </trkpt>
      <trkpt lat="45.9901" lon="4.82532">
        <ele>235</ele>
        <time>2017-06-26T08:20:45Z</time>
      </trkpt>
      <trkpt lat="45.99013" lon="4.82538">
        <ele>235</ele>
        <time>2017-06-26T08:20:46Z</time>
      </trkpt>
      <trkpt lat="45.99017" lon="4.82544">
        <ele>235</ele>
        <time>2017-06-26T08:20:47Z</time>
      </trkpt>
      <trkpt lat="45.99021" lon="4.82548">
        <ele>235</ele>
        <time>2017-06-26T08:20:48Z</time>
      </trkpt>
      <trkpt lat="45.99025" lon="4.82552">
        <ele>235</ele>
        <time>2017-06-26T08:20:49Z</time>
      </trkpt>
      <trkpt lat="45.9903" lon="4.82555">
        <ele>235</ele>
        <time>2017-06-26T08:20:50Z</time>
      </trkpt>
      <trkpt lat="45.99034" lon="4.82558">
        <ele>235</ele>
        <time>2017-06-26T08:20:51Z</time>
      </trkpt>
      <trkpt lat="45.99039" lon="4.82561">
        <ele>235</ele>
        <time>2017-06-26T08:20:52Z</time>
      </trkpt>
      <trkpt lat="45.99044" lon="4.82564">
        <ele>235</ele>
        <time>2017-06-26T08:20:53Z</time>
      </trkpt>
      <trkpt lat="45.99048" lon="4.82567">
        <ele>235</ele>
        <time>2017-06-26T08:20:54Z</time>
      </trkpt>
      <trkpt lat="45.99053" lon="4.82568">
        <ele>235</ele>
        <time>2017-06-26T08:20:55Z</time>
      </trkpt>
      <trkpt lat="45.99058" lon="4.8257">
        <ele>235</ele>
        <time>2017-06-26T08:20:56Z</time>
      </trkpt>
      <trkpt lat="45.99062" lon="4.82572">
        <ele>235</ele>
        <time>2017-06-26T08:20:57Z</time>
      </trkpt>
      <trkpt lat="45.99066" lon="4.82574">
        <ele>235</ele>
        <time>2017-06-26T08:20:58Z</time>
      </trkpt>
      <trkpt lat="45.99072" lon="4.82579">
        <ele>235</ele>
        <time>2017-06-26T08:21:00Z</time>
      </trkpt>
      <trkpt lat="45.99073" lon="4.82583">
        <ele>235</ele>
        <time>2017-06-26T08:21:01Z</time>
      </trkpt>
      <trkpt lat="45.99071" lon="4.82593">
        <ele>235</ele>
        <time>2017-06-26T08:21:04Z</time>
      </trkpt>
      <trkpt lat="45.9907" lon="4.82597">
        <ele>235</ele>
        <time>2017-06-26T08:21:05Z</time>
      </trkpt>
      <trkpt lat="45.99066" lon="4.82606">
        <ele>236</ele>
        <time>2017-06-26T08:21:07Z</time>
      </trkpt>
      <trkpt lat="45.99064" lon="4.8261">
        <ele>236</ele>
        <time>2017-06-26T08:21:08Z</time>
      </trkpt>
      <trkpt lat="45.99059" lon="4.8262">
        <ele>236</ele>
        <time>2017-06-26T08:21:10Z</time>
      </trkpt>
      <trkpt lat="45.99057" lon="4.82625">
        <ele>236</ele>
        <time>2017-06-26T08:21:11Z</time>
      </trkpt>
      <trkpt lat="45.99053" lon="4.82636">
        <ele>236</ele>
        <time>2017-06-26T08:21:13Z</time>
      </trkpt>
      <trkpt lat="45.9905" lon="4.82641">
        <ele>236</ele>
        <time>2017-06-26T08:21:14Z</time>
      </trkpt>
      <trkpt lat="45.99046" lon="4.82651">
        <ele>236</ele>
        <time>2017-06-26T08:21:16Z</time>
      </trkpt>
      <trkpt lat="45.99044" lon="4.82656">
        <ele>236</ele>
        <time>2017-06-26T08:21:17Z</time>
      </trkpt>
      <trkpt lat="45.99041" lon="4.82665">
        <ele>236</ele>
        <time>2017-06-26T08:21:19Z</time>
      </trkpt>
      <trkpt lat="45.99039" lon="4.8267">
        <ele>238</ele>
        <time>2017-06-26T08:21:20Z</time>
      </trkpt>
      <trkpt lat="45.99035" lon="4.82679">
        <ele>238</ele>
        <time>2017-06-26T08:21:22Z</time>
      </trkpt>
      <trkpt lat="45.99033" lon="4.82683">
        <ele>238</ele>
        <time>2017-06-26T08:21:23Z</time>
      </trkpt>
      <trkpt lat="45.99029" lon="4.82692">
        <ele>238</ele>
        <time>2017-06-26T08:21:25Z</time>
      </trkpt>
      <trkpt lat="45.99028" lon="4.82696">
        <ele>238</ele>
        <time>2017-06-26T08:21:26Z</time>
      </trkpt>
      <trkpt lat="45.99024" lon="4.82704">
        <ele>238</ele>
        <time>2017-06-26T08:21:28Z</time>
      </trkpt>
      <trkpt lat="45.99022" lon="4.82709">
        <ele>238</ele>
        <time>2017-06-26T08:21:29Z</time>
      </trkpt>
      <trkpt lat="45.99019" lon="4.82717">
        <ele>239</ele>
        <time>2017-06-26T08:21:31Z</time>
      </trkpt>
      <trkpt lat="45.99017" lon="4.82721">
        <ele>239</ele>
        <time>2017-06-26T08:21:32Z</time>
      </trkpt>
      <trkpt lat="45.99013" lon="4.82731">
        <ele>239</ele>
        <time>2017-06-26T08:21:35Z</time>
      </trkpt>
      <trkpt lat="45.99011" lon="4.82734">
        <ele>239</ele>
        <time>2017-06-26T08:21:36Z</time>
      </trkpt>
      <trkpt lat="45.99007" lon="4.82744">
        <ele>240</ele>
        <time>2017-06-26T08:21:39Z</time>
      </trkpt>
      <trkpt lat="45.99005" lon="4.82747">
        <ele>240</ele>
        <time>2017-06-26T08:21:40Z</time>
      </trkpt>
      <trkpt lat="45.99001" lon="4.82756">
        <ele>241</ele>
        <time>2017-06-26T08:21:43Z</time>
      </trkpt>
      <trkpt lat="45.99" lon="4.82759">
        <ele>241</ele>
        <time>2017-06-26T08:21:44Z</time>
      </trkpt>
      <trkpt lat="45.98996" lon="4.82768">
        <ele>245</ele>
        <time>2017-06-26T08:21:47Z</time>
      </trkpt>
      <trkpt lat="45.98995" lon="4.82771">
        <ele>245</ele>
        <time>2017-06-26T08:21:48Z</time>
      </trkpt>
      <trkpt lat="45.98991" lon="4.82779">
        <ele>246</ele>
        <time>2017-06-26T08:21:51Z</time>
      </trkpt>
      <trkpt lat="45.9899" lon="4.82782">
        <ele>247</ele>
        <time>2017-06-26T08:21:52Z</time>
      </trkpt>
      <trkpt lat="45.98987" lon="4.82791">
        <ele>247</ele>
        <time>2017-06-26T08:21:55Z</time>
      </trkpt>
      <trkpt lat="45.98985" lon="4.82794">
        <ele>247</ele>
        <time>2017-06-26T08:21:56Z</time>
      </trkpt>
      <trkpt lat="45.98982" lon="4.82803">
        <ele>248</ele>
        <time>2017-06-26T08:21:59Z</time>
      </trkpt>
      <trkpt lat="45.9898" lon="4.82806">
        <ele>248</ele>
        <time>2017-06-26T08:22:00Z</time>
      </trkpt>
      <trkpt lat="45.98976" lon="4.82815">
        <ele>248</ele>
        <time>2017-06-26T08:22:03Z</time>
      </trkpt>
      <trkpt lat="45.98975" lon="4.82817">
        <ele>248</ele>
        <time>2017-06-26T08:22:04Z</time>
      </trkpt>
      <trkpt lat="45.98972" lon="4.82827">
        <ele>249</ele>
        <time>2017-06-26T08:22:07Z</time>
      </trkpt>
      <trkpt lat="45.98971" lon="4.8283">
        <ele>249</ele>
        <time>2017-06-26T08:22:08Z</time>
      </trkpt>
      <trkpt lat="45.98966" lon="4.82838">
        <ele>252</ele>
        <time>2017-06-26T08:22:11Z</time>
      </trkpt>
      <trkpt lat="45.98964" lon="4.82841">
        <ele>252</ele>
        <time>2017-06-26T08:22:12Z</time>
      </trkpt>
      <trkpt lat="45.98961" lon="4.82849">
        <ele>252</ele>
        <time>2017-06-26T08:22:15Z</time>
      </trkpt>
      <trkpt lat="45.98959" lon="4.82852">
        <ele>252</ele>
        <time>2017-06-26T08:22:16Z</time>
      </trkpt>
      <trkpt lat="45.98956" lon="4.82863">
        <ele>252</ele>
        <time>2017-06-26T08:22:19Z</time>
      </trkpt>
      <trkpt lat="45.98954" lon="4.82865">
        <ele>252</ele>
        <time>2017-06-26T08:22:20Z</time>
      </trkpt>
      <trkpt lat="45.9895" lon="4.82876">
        <ele>253</ele>
        <time>2017-06-26T08:22:24Z</time>
      </trkpt>
      <trkpt lat="45.9895" lon="4.82879">
        <ele>253</ele>
        <time>2017-06-26T08:22:25Z</time>
      </trkpt>
      <trkpt lat="45.98946" lon="4.82888">
        <ele>253</ele>
        <time>2017-06-26T08:22:28Z</time>
      </trkpt>
      <trkpt lat="45.98945" lon="4.82892">
        <ele>253</ele>
        <time>2017-06-26T08:22:29Z</time>
      </trkpt>
      <trkpt lat="45.98941" lon="4.82903">
        <ele>253</ele>
        <time>2017-06-26T08:22:33Z</time>
      </trkpt>
      <trkpt lat="45.98939" lon="4.82905">
        <ele>253</ele>
        <time>2017-06-26T08:22:34Z</time>
      </trkpt>
      <trkpt lat="45.98935" lon="4.82914">
        <ele>254</ele>
        <time>2017-06-26T08:22:38Z</time>
      </trkpt>
      <trkpt lat="45.98934" lon="4.82916">
        <ele>254</ele>
        <time>2017-06-26T08:22:39Z</time>
      </trkpt>
      <trkpt lat="45.98929" lon="4.82927">
        <ele>255</ele>
        <time>2017-06-26T08:22:43Z</time>
      </trkpt>
      <trkpt lat="45.98928" lon="4.8293">
        <ele>255</ele>
        <time>2017-06-26T08:22:44Z</time>
      </trkpt>
      <trkpt lat="45.98924" lon="4.82939">
        <ele>255</ele>
        <time>2017-06-26T08:22:47Z</time>
      </trkpt>
      <trkpt lat="45.98923" lon="4.82942">
        <ele>255</ele>
        <time>2017-06-26T08:22:48Z</time>
      </trkpt>
      <trkpt lat="45.98919" lon="4.82951">
        <ele>255</ele>
        <time>2017-06-26T08:22:51Z</time>
      </trkpt>
      <trkpt lat="45.98917" lon="4.82955">
        <ele>255</ele>
        <time>2017-06-26T08:22:52Z</time>
      </trkpt>
      <trkpt lat="45.98912" lon="4.82963">
        <ele>258</ele>
        <time>2017-06-26T08:22:55Z</time>
      </trkpt>
      <trkpt lat="45.98911" lon="4.82966">
        <ele>258</ele>
        <time>2017-06-26T08:22:56Z</time>
      </trkpt>
      <trkpt lat="45.98904" lon="4.82972">
        <ele>259</ele>
        <time>2017-06-26T08:23:00Z</time>
      </trkpt>
      <trkpt lat="45.98902" lon="4.82974">
        <ele>259</ele>
        <time>2017-06-26T08:23:01Z</time>
      </trkpt>
      <trkpt lat="45.98895" lon="4.82981">
        <ele>259</ele>
        <time>2017-06-26T08:23:04Z</time>
      </trkpt>
      <trkpt lat="45.98894" lon="4.82983">
        <ele>259</ele>
        <time>2017-06-26T08:23:05Z</time>
      </trkpt>
      <trkpt lat="45.98887" lon="4.82989">
        <ele>259</ele>
        <time>2017-06-26T08:23:09Z</time>
      </trkpt>
      <trkpt lat="45.98885" lon="4.82991">
        <ele>259</ele>
        <time>2017-06-26T08:23:10Z</time>
      </trkpt>
      <trkpt lat="45.98877" lon="4.82996">
        <ele>260</ele>
        <time>2017-06-26T08:23:14Z</time>
      </trkpt>
      <trkpt lat="45.98875" lon="4.82997">
        <ele>260</ele>
        <time>2017-06-26T08:23:15Z</time>
      </trkpt>
      <trkpt lat="45.98868" lon="4.83003">
        <ele>260</ele>
        <time>2017-06-26T08:23:19Z</time>
      </trkpt>
      <trkpt lat="45.98866" lon="4.83005">
        <ele>260</ele>
        <time>2017-06-26T08:23:20Z</time>
      </trkpt>
      <trkpt lat="45.98858" lon="4.83009">
        <ele>261</ele>
        <time>2017-06-26T08:23:25Z</time>
      </trkpt>
      <trkpt lat="45.98857" lon="4.8301">
        <ele>261</ele>
        <time>2017-06-26T08:23:26Z</time>
      </trkpt>
      <trkpt lat="45.9885" lon="4.83015">
        <ele>261</ele>
        <time>2017-06-26T08:23:29Z</time>
      </trkpt>
      <trkpt lat="45.98848" lon="4.83016">
        <ele>261</ele>
        <time>2017-06-26T08:23:30Z</time>
      </trkpt>
      <trkpt lat="45.98841" lon="4.83023">
        <ele>261</ele>
        <time>2017-06-26T08:23:34Z</time>
      </trkpt>
      <trkpt lat="45.98839" lon="4.83024">
        <ele>261</ele>
        <time>2017-06-26T08:23:35Z</time>
      </trkpt>
      <trkpt lat="45.98832" lon="4.83027">
        <ele>264</ele>
        <time>2017-06-26T08:23:38Z</time>
      </trkpt>
      <trkpt lat="45.98829" lon="4.83029">
        <ele>264</ele>
        <time>2017-06-26T08:23:39Z</time>
      </trkpt>
      <trkpt lat="45.98823" lon="4.83033">
        <ele>264</ele>
        <time>2017-06-26T08:23:42Z</time>
      </trkpt>
      <trkpt lat="45.9882" lon="4.83034">
        <ele>264</ele>
        <time>2017-06-26T08:23:43Z</time>
      </trkpt>
      <trkpt lat="45.98814" lon="4.83039">
        <ele>264</ele>
        <time>2017-06-26T08:23:46Z</time>
      </trkpt>
      <trkpt lat="45.98812" lon="4.83041">
        <ele>264</ele>
        <time>2017-06-26T08:23:47Z</time>
      </trkpt>
      <trkpt lat="45.98805" lon="4.83047">
        <ele>264</ele>
        <time>2017-06-26T08:23:50Z</time>
      </trkpt>
      <trkpt lat="45.98803" lon="4.83049">
        <ele>264</ele>
        <time>2017-06-26T08:23:51Z</time>
      </trkpt>
      <trkpt lat="45.98797" lon="4.83054">
        <ele>264</ele>
        <time>2017-06-26T08:23:54Z</time>
      </trkpt>
      <trkpt lat="45.98795" lon="4.83056">
        <ele>264</ele>
        <time>2017-06-26T08:23:55Z</time>
      </trkpt>
      <trkpt lat="45.98788" lon="4.83062">
        <ele>265</ele>
        <time>2017-06-26T08:23:58Z</time>
      </trkpt>
      <trkpt lat="45.98786" lon="4.83065">
        <ele>265</ele>
        <time>2017-06-26T08:23:59Z</time>
      </trkpt>
      <trkpt lat="45.98779" lon="4.8307">
        <ele>265</ele>
        <time>2017-06-26T08:24:02Z</time>
      </trkpt>
      <trkpt lat="45.98777" lon="4.83072">
        <ele>265</ele>
        <time>2017-06-26T08:24:03Z</time>
      </trkpt>
      <trkpt lat="45.98771" lon="4.83079">
        <ele>266</ele>
        <time>2017-06-26T08:24:06Z</time>
      </trkpt>
      <trkpt lat="45.9877" lon="4.83081">
        <ele>266</ele>
        <time>2017-06-26T08:24:07Z</time>
      </trkpt>
      <trkpt lat="45.98763" lon="4.83086">
        <ele>266</ele>
        <time>2017-06-26T08:24:10Z</time>
      </trkpt>
      <trkpt lat="45.98761" lon="4.83087">
        <ele>266</ele>
        <time>2017-06-26T08:24:11Z</time>
      </trkpt>
      <trkpt lat="45.98755" lon="4.83093">
        <ele>266</ele>
        <time>2017-06-26T08:24:14Z</time>
      </trkpt>
      <trkpt lat="45.98753" lon="4.83094">
        <ele>266</ele>
        <time>2017-06-26T08:24:15Z</time>
      </trkpt>
      <trkpt lat="45.98747" lon="4.83101">
        <ele>267</ele>
        <time>2017-06-26T08:24:18Z</time>
      </trkpt>
      <trkpt lat="45.98744" lon="4.83103">
        <ele>267</ele>
        <time>2017-06-26T08:24:19Z</time>
      </trkpt>
      <trkpt lat="45.98737" lon="4.83109">
        <ele>267</ele>
        <time>2017-06-26T08:24:22Z</time>
      </trkpt>
      <trkpt lat="45.98735" lon="4.83112">
        <ele>267</ele>
        <time>2017-06-26T08:24:23Z</time>
      </trkpt>
      <trkpt lat="45.98728" lon="4.83116">
        <ele>267</ele>
        <time>2017-06-26T08:24:26Z</time>
      </trkpt>
      <trkpt lat="45.98726" lon="4.83118">
        <ele>266</ele>
        <time>2017-06-26T08:24:27Z</time>
      </trkpt>
      <trkpt lat="45.98718" lon="4.83124">
        <ele>266</ele>
        <time>2017-06-26T08:24:30Z</time>
      </trkpt>
      <trkpt lat="45.98715" lon="4.83126">
        <ele>266</ele>
        <time>2017-06-26T08:24:31Z</time>
      </trkpt>
      <trkpt lat="45.9871" lon="4.8313">
        <ele>266</ele>
        <time>2017-06-26T08:24:33Z</time>
      </trkpt>
      <trkpt lat="45.98707" lon="4.83132">
        <ele>266</ele>
        <time>2017-06-26T08:24:34Z</time>
      </trkpt>
      <trkpt lat="45.98701" lon="4.83136">
        <ele>266</ele>
        <time>2017-06-26T08:24:36Z</time>
      </trkpt>
      <trkpt lat="45.98698" lon="4.83138">
        <ele>266</ele>
        <time>2017-06-26T08:24:37Z</time>
      </trkpt>
      <trkpt lat="45.98692" lon="4.83143">
        <ele>266</ele>
        <time>2017-06-26T08:24:39Z</time>
      </trkpt>
      <trkpt lat="45.9869" lon="4.83145">
        <ele>266</ele>
        <time>2017-06-26T08:24:40Z</time>
      </trkpt>
      <trkpt lat="45.98683" lon="4.83151">
        <ele>266</ele>
        <time>2017-06-26T08:24:43Z</time>
      </trkpt>
      <trkpt lat="45.98681" lon="4.83152">
        <ele>266</ele>
        <time>2017-06-26T08:24:44Z</time>
      </trkpt>
      <trkpt lat="45.98672" lon="4.83157">
        <ele>266</ele>
        <time>2017-06-26T08:24:47Z</time>
      </trkpt>
      <trkpt lat="45.9867" lon="4.83159">
        <ele>266</ele>
        <time>2017-06-26T08:24:48Z</time>
      </trkpt>
      <trkpt lat="45.98662" lon="4.83165">
        <ele>266</ele>
        <time>2017-06-26T08:24:51Z</time>
      </trkpt>
      <trkpt lat="45.9866" lon="4.83166">
        <ele>266</ele>
        <time>2017-06-26T08:24:52Z</time>
      </trkpt>
      <trkpt lat="45.98653" lon="4.83172">
        <ele>267</ele>
        <time>2017-06-26T08:24:55Z</time>
      </trkpt>
      <trkpt lat="45.98651" lon="4.83175">
        <ele>267</ele>
        <time>2017-06-26T08:24:56Z</time>
      </trkpt>
      <trkpt lat="45.98643" lon="4.83182">
        <ele>267</ele>
        <time>2017-06-26T08:24:59Z</time>
      </trkpt>
      <trkpt lat="45.98641" lon="4.83184">
        <ele>267</ele>
        <time>2017-06-26T08:25:00Z</time>
      </trkpt>
      <trkpt lat="45.98636" lon="4.83189">
        <ele>267</ele>
        <time>2017-06-26T08:25:02Z</time>
      </trkpt>
      <trkpt lat="45.98634" lon="4.83192">
        <ele>267</ele>
        <time>2017-06-26T08:25:03Z</time>
      </trkpt>
      <trkpt lat="45.98628" lon="4.83198">
        <ele>267</ele>
        <time>2017-06-26T08:25:05Z</time>
      </trkpt>
      <trkpt lat="45.98626" lon="4.832">
        <ele>267</ele>
        <time>2017-06-26T08:25:06Z</time>
      </trkpt>
      <trkpt lat="45.9862" lon="4.83206">
        <ele>267</ele>
        <time>2017-06-26T08:25:08Z</time>
      </trkpt>
      <trkpt lat="45.98618" lon="4.8321">
        <ele>267</ele>
        <time>2017-06-26T08:25:09Z</time>
      </trkpt>
      <trkpt lat="45.98611" lon="4.83218">
        <ele>267</ele>
        <time>2017-06-26T08:25:12Z</time>
      </trkpt>
      <trkpt lat="45.98609" lon="4.8322">
        <ele>267</ele>
        <time>2017-06-26T08:25:13Z</time>
      </trkpt>
      <trkpt lat="45.98603" lon="4.83229">
        <ele>268</ele>
        <time>2017-06-26T08:25:16Z</time>
      </trkpt>
      <trkpt lat="45.98601" lon="4.83232">
        <ele>268</ele>
        <time>2017-06-26T08:25:17Z</time>
      </trkpt>
      <trkpt lat="45.98595" lon="4.83239">
        <ele>268</ele>
        <time>2017-06-26T08:25:19Z</time>
      </trkpt>
      <trkpt lat="45.98593" lon="4.83243">
        <ele>268</ele>
        <time>2017-06-26T08:25:20Z</time>
      </trkpt>
      <trkpt lat="45.98587" lon="4.83249">
        <ele>268</ele>
        <time>2017-06-26T08:25:22Z</time>
      </trkpt>
      <trkpt lat="45.98585" lon="4.83252">
        <ele>268</ele>
        <time>2017-06-26T08:25:23Z</time>
      </trkpt>
      <trkpt lat="45.9858" lon="4.83259">
        <ele>268</ele>
        <time>2017-06-26T08:25:25Z</time>
      </trkpt>
      <trkpt lat="45.98578" lon="4.83262">
        <ele>269</ele>
        <time>2017-06-26T08:25:26Z</time>
      </trkpt>
      <trkpt lat="45.98573" lon="4.83269">
        <ele>269</ele>
        <time>2017-06-26T08:25:28Z</time>
      </trkpt>
      <trkpt lat="45.9857" lon="4.83273">
        <ele>269</ele>
        <time>2017-06-26T08:25:29Z</time>
      </trkpt>
      <trkpt lat="45.98564" lon="4.83281">
        <ele>269</ele>
        <time>2017-06-26T08:25:31Z</time>
      </trkpt>
      <trkpt lat="45.98561" lon="4.83285">
        <ele>269</ele>
        <time>2017-06-26T08:25:32Z</time>
      </trkpt>
      <trkpt lat="45.98555" lon="4.83294">
        <ele>269</ele>
        <time>2017-06-26T08:25:34Z</time>
      </trkpt>
      <trkpt lat="45.98551" lon="4.83298">
        <ele>269</ele>
        <time>2017-06-26T08:25:35Z</time>
      </trkpt>
      <trkpt lat="45.98546" lon="4.83306">
        <ele>269</ele>
        <time>2017-06-26T08:25:37Z</time>
      </trkpt>
      <trkpt lat="45.98543" lon="4.8331">
        <ele>269</ele>
        <time>2017-06-26T08:25:38Z</time>
      </trkpt>
      <trkpt lat="45.98538" lon="4.83317">
        <ele>269</ele>
        <time>2017-06-26T08:25:40Z</time>
      </trkpt>
      <trkpt lat="45.98535" lon="4.83321">
        <ele>269</ele>
        <time>2017-06-26T08:25:41Z</time>
      </trkpt>
      <trkpt lat="45.9853" lon="4.83327">
        <ele>269</ele>
        <time>2017-06-26T08:25:43Z</time>
      </trkpt>
      <trkpt lat="45.98527" lon="4.83331">
        <ele>270</ele>
        <time>2017-06-26T08:25:44Z</time>
      </trkpt>
      <trkpt lat="45.98521" lon="4.83339">
        <ele>270</ele>
        <time>2017-06-26T08:25:46Z</time>
      </trkpt>
      <trkpt lat="45.98519" lon="4.83343">
        <ele>270</ele>
        <time>2017-06-26T08:25:47Z</time>
      </trkpt>
      <trkpt lat="45.98513" lon="4.8335">
        <ele>270</ele>
        <time>2017-06-26T08:25:49Z</time>
      </trkpt>
      <trkpt lat="45.9851" lon="4.83353">
        <ele>270</ele>
        <time>2017-06-26T08:25:50Z</time>
      </trkpt>
      <trkpt lat="45.98504" lon="4.83361">
        <ele>269</ele>
        <time>2017-06-26T08:25:52Z</time>
      </trkpt>
      <trkpt lat="45.98502" lon="4.83364">
        <ele>269</ele>
        <time>2017-06-26T08:25:53Z</time>
      </trkpt>
      <trkpt lat="45.98496" lon="4.83372">
        <ele>270</ele>
        <time>2017-06-26T08:25:55Z</time>
      </trkpt>
      <trkpt lat="45.98493" lon="4.83377">
        <ele>269</ele>
        <time>2017-06-26T08:25:56Z</time>
      </trkpt>
      <trkpt lat="45.98487" lon="4.83386">
        <ele>269</ele>
        <time>2017-06-26T08:25:58Z</time>
      </trkpt>
      <trkpt lat="45.98483" lon="4.83391">
        <ele>269</ele>
        <time>2017-06-26T08:25:59Z</time>
      </trkpt>
      <trkpt lat="45.9848" lon="4.83395">
        <ele>269</ele>
        <time>2017-06-26T08:26:00Z</time>
      </trkpt>
      <trkpt lat="45.98476" lon="4.834">
        <ele>269</ele>
        <time>2017-06-26T08:26:01Z</time>
      </trkpt>
      <trkpt lat="45.98473" lon="4.83405">
        <ele>269</ele>
        <time>2017-06-26T08:26:02Z</time>
      </trkpt>
      <trkpt lat="45.9847" lon="4.83409">
        <ele>269</ele>
        <time>2017-06-26T08:26:03Z</time>
      </trkpt>
      <trkpt lat="45.98464" lon="4.83419">
        <ele>269</ele>
        <time>2017-06-26T08:26:05Z</time>
      </trkpt>
      <trkpt lat="45.98461" lon="4.83423">
        <ele>269</ele>
        <time>2017-06-26T08:26:06Z</time>
      </trkpt>
      <trkpt lat="45.98454" lon="4.83431">
        <ele>268</ele>
        <time>2017-06-26T08:26:08Z</time>
      </trkpt>
      <trkpt lat="45.98451" lon="4.83435">
        <ele>268</ele>
        <time>2017-06-26T08:26:09Z</time>
      </trkpt>
      <trkpt lat="45.98448" lon="4.83439">
        <ele>268</ele>
        <time>2017-06-26T08:26:10Z</time>
      </trkpt>
      <trkpt lat="45.98444" lon="4.83444">
        <ele>268</ele>
        <time>2017-06-26T08:26:11Z</time>
      </trkpt>
      <trkpt lat="45.98441" lon="4.83449">
        <ele>268</ele>
        <time>2017-06-26T08:26:12Z</time>
      </trkpt>
      <trkpt lat="45.98437" lon="4.83454">
        <ele>268</ele>
        <time>2017-06-26T08:26:13Z</time>
      </trkpt>
      <trkpt lat="45.98433" lon="4.83459">
        <ele>268</ele>
        <time>2017-06-26T08:26:14Z</time>
      </trkpt>
      <trkpt lat="45.9843" lon="4.83464">
        <ele>268</ele>
        <time>2017-06-26T08:26:15Z</time>
      </trkpt>
      <trkpt lat="45.98426" lon="4.83469">
        <ele>268</ele>
        <time>2017-06-26T08:26:16Z</time>
      </trkpt>
      <trkpt lat="45.98423" lon="4.83474">
        <ele>268</ele>
        <time>2017-06-26T08:26:17Z</time>
      </trkpt>
      <trkpt lat="45.98419" lon="4.83478">
        <ele>268</ele>
        <time>2017-06-26T08:26:18Z</time>
      </trkpt>
      <trkpt lat="45.98416" lon="4.83483">
        <ele>269</ele>
        <time>2017-06-26T08:26:19Z</time>
      </trkpt>
      <trkpt lat="45.9841" lon="4.83492">
        <ele>268</ele>
        <time>2017-06-26T08:26:21Z</time>
      </trkpt>
      <trkpt lat="45.98406" lon="4.83496">
        <ele>268</ele>
        <time>2017-06-26T08:26:22Z</time>
      </trkpt>
      <trkpt lat="45.98401" lon="4.83504">
        <ele>269</ele>
        <time>2017-06-26T08:26:24Z</time>
      </trkpt>
      <trkpt lat="45.98397" lon="4.83508">
        <ele>269</ele>
        <time>2017-06-26T08:26:25Z</time>
      </trkpt>
      <trkpt lat="45.98391" lon="4.83517">
        <ele>269</ele>
        <time>2017-06-26T08:26:27Z</time>
      </trkpt>
      <trkpt lat="45.98388" lon="4.83521">
        <ele>269</ele>
        <time>2017-06-26T08:26:28Z</time>
      </trkpt>
      <trkpt lat="45.98384" lon="4.83526">
        <ele>269</ele>
        <time>2017-06-26T08:26:29Z</time>
      </trkpt>
      <trkpt lat="45.98381" lon="4.83531">
        <ele>269</ele>
        <time>2017-06-26T08:26:30Z</time>
      </trkpt>
      <trkpt lat="45.98377" lon="4.83536">
        <ele>269</ele>
        <time>2017-06-26T08:26:31Z</time>
      </trkpt>
      <trkpt lat="45.98374" lon="4.8354">
        <ele>269</ele>
        <time>2017-06-26T08:26:32Z</time>
      </trkpt>
      <trkpt lat="45.98368" lon="4.83549">
        <ele>269</ele>
        <time>2017-06-26T08:26:34Z</time>
      </trkpt>
      <trkpt lat="45.98365" lon="4.83552">
        <ele>269</ele>
        <time>2017-06-26T08:26:35Z</time>
      </trkpt>
      <trkpt lat="45.98359" lon="4.8356">
        <ele>269</ele>
        <time>2017-06-26T08:26:37Z</time>
      </trkpt>
      <trkpt lat="45.98356" lon="4.83564">
        <ele>269</ele>
        <time>2017-06-26T08:26:38Z</time>
      </trkpt>
      <trkpt lat="45.98352" lon="4.83569">
        <ele>269</ele>
        <time>2017-06-26T08:26:39Z</time>
      </trkpt>
      <trkpt lat="45.98348" lon="4.83573">
        <ele>269</ele>
        <time>2017-06-26T08:26:40Z</time>
      </trkpt>
      <trkpt lat="45.98344" lon="4.83578">
        <ele>270</ele>
        <time>2017-06-26T08:26:41Z</time>
      </trkpt>
      <trkpt lat="45.9834" lon="4.83584">
        <ele>270</ele>
        <time>2017-06-26T08:26:42Z</time>
      </trkpt>
      <trkpt lat="45.98336" lon="4.83589">
        <ele>270</ele>
        <time>2017-06-26T08:26:43Z</time>
      </trkpt>
      <trkpt lat="45.98332" lon="4.83595">
        <ele>270</ele>
        <time>2017-06-26T08:26:44Z</time>
      </trkpt>
      <trkpt lat="45.98328" lon="4.836">
        <ele>271</ele>
        <time>2017-06-26T08:26:45Z</time>
      </trkpt>
      <trkpt lat="45.98325" lon="4.83605">
        <ele>271</ele>
        <time>2017-06-26T08:26:46Z</time>
      </trkpt>
      <trkpt lat="45.98319" lon="4.83614">
        <ele>271</ele>
        <time>2017-06-26T08:26:48Z</time>
      </trkpt>
      <trkpt lat="45.98316" lon="4.83619">
        <ele>271</ele>
        <time>2017-06-26T08:26:49Z</time>
      </trkpt>
      <trkpt lat="45.98314" lon="4.83624">
        <ele>271</ele>
        <time>2017-06-26T08:26:50Z</time>
      </trkpt>
      <trkpt lat="45.98311" lon="4.83629">
        <ele>271</ele>
        <time>2017-06-26T08:26:51Z</time>
      </trkpt>
      <trkpt lat="45.98308" lon="4.83634">
        <ele>271</ele>
        <time>2017-06-26T08:26:52Z</time>
      </trkpt>
      <trkpt lat="45.98305" lon="4.8364">
        <ele>271</ele>
        <time>2017-06-26T08:26:53Z</time>
      </trkpt>
      <trkpt lat="45.98303" lon="4.83646">
        <ele>271</ele>
        <time>2017-06-26T08:26:54Z</time>
      </trkpt>
      <trkpt lat="45.983" lon="4.83651">
        <ele>271</ele>
        <time>2017-06-26T08:26:55Z</time>
      </trkpt>
      <trkpt lat="45.98296" lon="4.83662">
        <ele>271</ele>
        <time>2017-06-26T08:26:57Z</time>
      </trkpt>
      <trkpt lat="45.98294" lon="4.83667">
        <ele>272</ele>
        <time>2017-06-26T08:26:58Z</time>
      </trkpt>
      <trkpt lat="45.98289" lon="4.83678">
        <ele>272</ele>
        <time>2017-06-26T08:27:00Z</time>
      </trkpt>
      <trkpt lat="45.98287" lon="4.83685">
        <ele>272</ele>
        <time>2017-06-26T08:27:01Z</time>
      </trkpt>
      <trkpt lat="45.98285" lon="4.83691">
        <ele>272</ele>
        <time>2017-06-26T08:27:02Z</time>
      </trkpt>
      <trkpt lat="45.98282" lon="4.83697">
        <ele>272</ele>
        <time>2017-06-26T08:27:03Z</time>
      </trkpt>
      <trkpt lat="45.9828" lon="4.83703">
        <ele>272</ele>
        <time>2017-06-26T08:27:04Z</time>
      </trkpt>
      <trkpt lat="45.98277" lon="4.8371">
        <ele>272</ele>
        <time>2017-06-26T08:27:05Z</time>
      </trkpt>
      <trkpt lat="45.98275" lon="4.83716">
        <ele>272</ele>
        <time>2017-06-26T08:27:06Z</time>
      </trkpt>
      <trkpt lat="45.98273" lon="4.83722">
        <ele>272</ele>
        <time>2017-06-26T08:27:07Z</time>
      </trkpt>
      <trkpt lat="45.98271" lon="4.83728">
        <ele>272</ele>
        <time>2017-06-26T08:27:08Z</time>
      </trkpt>
      <trkpt lat="45.98269" lon="4.83734">
        <ele>272</ele>
        <time>2017-06-26T08:27:09Z</time>
      </trkpt>
      <trkpt lat="45.98266" lon="4.83744">
        <ele>272</ele>
        <time>2017-06-26T08:27:11Z</time>
      </trkpt>
      <trkpt lat="45.98264" lon="4.83749">
        <ele>272</ele>
        <time>2017-06-26T08:27:12Z</time>
      </trkpt>
      <trkpt lat="45.9826" lon="4.83759">
        <ele>272</ele>
        <time>2017-06-26T08:27:14Z</time>
      </trkpt>
      <trkpt lat="45.98258" lon="4.83765">
        <ele>272</ele>
        <time>2017-06-26T08:27:15Z</time>
      </trkpt>
      <trkpt lat="45.98255" lon="4.83776">
        <ele>272</ele>
        <time>2017-06-26T08:27:17Z</time>
      </trkpt>
      <trkpt lat="45.98252" lon="4.83782">
        <ele>272</ele>
        <time>2017-06-26T08:27:18Z</time>
      </trkpt>
      <trkpt lat="45.98248" lon="4.83793">
        <ele>272</ele>
        <time>2017-06-26T08:27:20Z</time>
      </trkpt>
      <trkpt lat="45.98246" lon="4.83799">
        <ele>272</ele>
        <time>2017-06-26T08:27:21Z</time>
      </trkpt>
      <trkpt lat="45.98243" lon="4.8381">
        <ele>272</ele>
        <time>2017-06-26T08:27:23Z</time>
      </trkpt>
      <trkpt lat="45.98241" lon="4.83815">
        <ele>272</ele>
        <time>2017-06-26T08:27:24Z</time>
      </trkpt>
      <trkpt lat="45.98237" lon="4.83825">
        <ele>272</ele>
        <time>2017-06-26T08:27:26Z</time>
      </trkpt>
      <trkpt lat="45.98235" lon="4.83831">
        <ele>272</ele>
        <time>2017-06-26T08:27:27Z</time>
      </trkpt>
      <trkpt lat="45.98233" lon="4.83837">
        <ele>272</ele>
        <time>2017-06-26T08:27:28Z</time>
      </trkpt>
      <trkpt lat="45.98231" lon="4.83844">
        <ele>272</ele>
        <time>2017-06-26T08:27:29Z</time>
      </trkpt>
      <trkpt lat="45.98229" lon="4.8385">
        <ele>272</ele>
        <time>2017-06-26T08:27:30Z</time>
      </trkpt>
      <trkpt lat="45.98226" lon="4.83857">
        <ele>272</ele>
        <time>2017-06-26T08:27:31Z</time>
      </trkpt>
      <trkpt lat="45.98224" lon="4.83863">
        <ele>272</ele>
        <time>2017-06-26T08:27:32Z</time>
      </trkpt>
      <trkpt lat="45.98222" lon="4.83869">
        <ele>272</ele>
        <time>2017-06-26T08:27:33Z</time>
      </trkpt>
      <trkpt lat="45.9822" lon="4.83875">
        <ele>272</ele>
        <time>2017-06-26T08:27:34Z</time>
      </trkpt>
      <trkpt lat="45.98217" lon="4.83881">
        <ele>272</ele>
        <time>2017-06-26T08:27:35Z</time>
      </trkpt>
      <trkpt lat="45.98215" lon="4.83887">
        <ele>273</ele>
        <time>2017-06-26T08:27:36Z</time>
      </trkpt>
      <trkpt lat="45.98213" lon="4.83893">
        <ele>273</ele>
        <time>2017-06-26T08:27:37Z</time>
      </trkpt>
      <trkpt lat="45.9821" lon="4.83904">
        <ele>273</ele>
        <time>2017-06-26T08:27:39Z</time>
      </trkpt>
      <trkpt lat="45.98208" lon="4.8391">
        <ele>273</ele>
        <time>2017-06-26T08:27:40Z</time>
      </trkpt>
      <trkpt lat="45.98206" lon="4.83916">
        <ele>273</ele>
        <time>2017-06-26T08:27:41Z</time>
      </trkpt>
      <trkpt lat="45.98204" lon="4.83922">
        <ele>273</ele>
        <time>2017-06-26T08:27:42Z</time>
      </trkpt>
      <trkpt lat="45.98202" lon="4.83928">
        <ele>273</ele>
        <time>2017-06-26T08:27:43Z</time>
      </trkpt>
      <trkpt lat="45.98199" lon="4.83934">
        <ele>273</ele>
        <time>2017-06-26T08:27:44Z</time>
      </trkpt>
      <trkpt lat="45.98197" lon="4.8394">
        <ele>273</ele>
        <time>2017-06-26T08:27:45Z</time>
      </trkpt>
      <trkpt lat="45.98195" lon="4.83946">
        <ele>273</ele>
        <time>2017-06-26T08:27:46Z</time>
      </trkpt>
      <trkpt lat="45.98191" lon="4.83956">
        <ele>273</ele>
        <time>2017-06-26T08:27:48Z</time>
      </trkpt>
      <trkpt lat="45.9819" lon="4.83962">
        <ele>273</ele>
        <time>2017-06-26T08:27:49Z</time>
      </trkpt>
      <trkpt lat="45.98186" lon="4.83972">
        <ele>273</ele>
        <time>2017-06-26T08:27:51Z</time>
      </trkpt>
      <trkpt lat="45.98184" lon="4.83977">
        <ele>273</ele>
        <time>2017-06-26T08:27:52Z</time>
      </trkpt>
      <trkpt lat="45.98181" lon="4.83983">
        <ele>273</ele>
        <time>2017-06-26T08:27:53Z</time>
      </trkpt>
      <trkpt lat="45.98179" lon="4.83989">
        <ele>273</ele>
        <time>2017-06-26T08:27:54Z</time>
      </trkpt>
      <trkpt lat="45.98177" lon="4.83995">
        <ele>273</ele>
        <time>2017-06-26T08:27:55Z</time>
      </trkpt>
      <trkpt lat="45.98174" lon="4.84001">
        <ele>273</ele>
        <time>2017-06-26T08:27:56Z</time>
      </trkpt>
      <trkpt lat="45.98172" lon="4.84007">
        <ele>273</ele>
        <time>2017-06-26T08:27:57Z</time>
      </trkpt>
      <trkpt lat="45.98169" lon="4.84012">
        <ele>273</ele>
        <time>2017-06-26T08:27:58Z</time>
      </trkpt>
      <trkpt lat="45.98164" lon="4.84022">
        <ele>273</ele>
        <time>2017-06-26T08:28:00Z</time>
      </trkpt>
      <trkpt lat="45.98161" lon="4.84027">
        <ele>273</ele>
        <time>2017-06-26T08:28:01Z</time>
      </trkpt>
      <trkpt lat="45.98156" lon="4.84035">
        <ele>273</ele>
        <time>2017-06-26T08:28:03Z</time>
      </trkpt>
      <trkpt lat="45.98153" lon="4.84039">
        <ele>273</ele>
        <time>2017-06-26T08:28:04Z</time>
      </trkpt>
      <trkpt lat="45.98147" lon="4.84049">
        <ele>273</ele>
        <time>2017-06-26T08:28:06Z</time>
      </trkpt>
      <trkpt lat="45.98144" lon="4.84053">
        <ele>273</ele>
        <time>2017-06-26T08:28:07Z</time>
      </trkpt>
      <trkpt lat="45.9814" lon="4.84058">
        <ele>273</ele>
        <time>2017-06-26T08:28:08Z</time>
      </trkpt>
      <trkpt lat="45.98137" lon="4.84063">
        <ele>273</ele>
        <time>2017-06-26T08:28:09Z</time>
      </trkpt>
      <trkpt lat="45.98133" lon="4.84068">
        <ele>273</ele>
        <time>2017-06-26T08:28:10Z</time>
      </trkpt>
      <trkpt lat="45.98129" lon="4.84073">
        <ele>273</ele>
        <time>2017-06-26T08:28:11Z</time>
      </trkpt>
      <trkpt lat="45.98126" lon="4.84077">
        <ele>273</ele>
        <time>2017-06-26T08:28:12Z</time>
      </trkpt>
      <trkpt lat="45.98122" lon="4.84081">
        <ele>273</ele>
        <time>2017-06-26T08:28:13Z</time>
      </trkpt>
      <trkpt lat="45.98115" lon="4.84088">
        <ele>273</ele>
        <time>2017-06-26T08:28:15Z</time>
      </trkpt>
      <trkpt lat="45.98112" lon="4.84091">
        <ele>273</ele>
        <time>2017-06-26T08:28:16Z</time>
      </trkpt>
      <trkpt lat="45.98107" lon="4.84097">
        <ele>273</ele>
        <time>2017-06-26T08:28:18Z</time>
      </trkpt>
      <trkpt lat="45.98103" lon="4.841">
        <ele>273</ele>
        <time>2017-06-26T08:28:19Z</time>
      </trkpt>
      <trkpt lat="45.98096" lon="4.84107">
        <ele>273</ele>
        <time>2017-06-26T08:28:21Z</time>
      </trkpt>
      <trkpt lat="45.98092" lon="4.8411">
        <ele>273</ele>
        <time>2017-06-26T08:28:22Z</time>
      </trkpt>
      <trkpt lat="45.98088" lon="4.84114">
        <ele>273</ele>
        <time>2017-06-26T08:28:23Z</time>
      </trkpt>
      <trkpt lat="45.98084" lon="4.84118">
        <ele>273</ele>
        <time>2017-06-26T08:28:24Z</time>
      </trkpt>
      <trkpt lat="45.9808" lon="4.84122">
        <ele>273</ele>
        <time>2017-06-26T08:28:25Z</time>
      </trkpt>
      <trkpt lat="45.98076" lon="4.84126">
        <ele>273</ele>
        <time>2017-06-26T08:28:26Z</time>
      </trkpt>
      <trkpt lat="45.98072" lon="4.84129">
        <ele>273</ele>
        <time>2017-06-26T08:28:27Z</time>
      </trkpt>
      <trkpt lat="45.98068" lon="4.84133">
        <ele>273</ele>
        <time>2017-06-26T08:28:28Z</time>
      </trkpt>
      <trkpt lat="45.9806" lon="4.8414">
        <ele>273</ele>
        <time>2017-06-26T08:28:30Z</time>
      </trkpt>
      <trkpt lat="45.98057" lon="4.84144">
        <ele>273</ele>
        <time>2017-06-26T08:28:31Z</time>
      </trkpt>
      <trkpt lat="45.9805" lon="4.8415">
        <ele>273</ele>
        <time>2017-06-26T08:28:33Z</time>
      </trkpt>
      <trkpt lat="45.98046" lon="4.84154">
        <ele>273</ele>
        <time>2017-06-26T08:28:34Z</time>
      </trkpt>
      <trkpt lat="45.9804" lon="4.84161">
        <ele>273</ele>
        <time>2017-06-26T08:28:36Z</time>
      </trkpt>
      <trkpt lat="45.98037" lon="4.84164">
        <ele>273</ele>
        <time>2017-06-26T08:28:37Z</time>
      </trkpt>
      <trkpt lat="45.9803" lon="4.84171">
        <ele>274</ele>
        <time>2017-06-26T08:28:39Z</time>
      </trkpt>
      <trkpt lat="45.98026" lon="4.84174">
        <ele>274</ele>
        <time>2017-06-26T08:28:40Z</time>
      </trkpt>
      <trkpt lat="45.98022" lon="4.84178">
        <ele>274</ele>
        <time>2017-06-26T08:28:41Z</time>
      </trkpt>
      <trkpt lat="45.98018" lon="4.84181">
        <ele>274</ele>
        <time>2017-06-26T08:28:42Z</time>
      </trkpt>
      <trkpt lat="45.98014" lon="4.84185">
        <ele>274</ele>
        <time>2017-06-26T08:28:43Z</time>
      </trkpt>
      <trkpt lat="45.9801" lon="4.8419">
        <ele>274</ele>
        <time>2017-06-26T08:28:44Z</time>
      </trkpt>
      <trkpt lat="45.98006" lon="4.84194">
        <ele>274</ele>
        <time>2017-06-26T08:28:45Z</time>
      </trkpt>
      <trkpt lat="45.98002" lon="4.84197">
        <ele>274</ele>
        <time>2017-06-26T08:28:46Z</time>
      </trkpt>
      <trkpt lat="45.97994" lon="4.84204">
        <ele>274</ele>
        <time>2017-06-26T08:28:48Z</time>
      </trkpt>
      <trkpt lat="45.97991" lon="4.84208">
        <ele>274</ele>
        <time>2017-06-26T08:28:49Z</time>
      </trkpt>
      <trkpt lat="45.97984" lon="4.84215">
        <ele>274</ele>
        <time>2017-06-26T08:28:51Z</time>
      </trkpt>
      <trkpt lat="45.97981" lon="4.84218">
        <ele>274</ele>
        <time>2017-06-26T08:28:52Z</time>
      </trkpt>
      <trkpt lat="45.97974" lon="4.84225">
        <ele>274</ele>
        <time>2017-06-26T08:28:54Z</time>
      </trkpt>
      <trkpt lat="45.9797" lon="4.84228">
        <ele>274</ele>
        <time>2017-06-26T08:28:55Z</time>
      </trkpt>
      <trkpt lat="45.97966" lon="4.84232">
        <ele>274</ele>
        <time>2017-06-26T08:28:56Z</time>
      </trkpt>
      <trkpt lat="45.97962" lon="4.84236">
        <ele>274</ele>
        <time>2017-06-26T08:28:57Z</time>
      </trkpt>
      <trkpt lat="45.97958" lon="4.84239">
        <ele>275</ele>
        <time>2017-06-26T08:28:58Z</time>
      </trkpt>
      <trkpt lat="45.97954" lon="4.84242">
        <ele>275</ele>
        <time>2017-06-26T08:28:59Z</time>
      </trkpt>
      <trkpt lat="45.97947" lon="4.84249">
        <ele>275</ele>
        <time>2017-06-26T08:29:01Z</time>
      </trkpt>
      <trkpt lat="45.97944" lon="4.84252">
        <ele>275</ele>
        <time>2017-06-26T08:29:02Z</time>
      </trkpt>
      <trkpt lat="45.97937" lon="4.84259">
        <ele>275</ele>
        <time>2017-06-26T08:29:04Z</time>
      </trkpt>
      <trkpt lat="45.97934" lon="4.84261">
        <ele>275</ele>
        <time>2017-06-26T08:29:05Z</time>
      </trkpt>
      <trkpt lat="45.97928" lon="4.84271">
        <ele>275</ele>
        <time>2017-06-26T08:29:07Z</time>
      </trkpt>
      <trkpt lat="45.97926" lon="4.84277">
        <ele>275</ele>
        <time>2017-06-26T08:29:08Z</time>
      </trkpt>
      <trkpt lat="45.97925" lon="4.84284">
        <ele>275</ele>
        <time>2017-06-26T08:29:09Z</time>
      </trkpt>
      <trkpt lat="45.97925" lon="4.84291">
        <ele>275</ele>
        <time>2017-06-26T08:29:10Z</time>
      </trkpt>
      <trkpt lat="45.97925" lon="4.84298">
        <ele>275</ele>
        <time>2017-06-26T08:29:11Z</time>
      </trkpt>
      <trkpt lat="45.97926" lon="4.84305">
        <ele>275</ele>
        <time>2017-06-26T08:29:12Z</time>
      </trkpt>
      <trkpt lat="45.97927" lon="4.84317">
        <ele>275</ele>
        <time>2017-06-26T08:29:14Z</time>
      </trkpt>
      <trkpt lat="45.97928" lon="4.84323">
        <ele>275</ele>
        <time>2017-06-26T08:29:15Z</time>
      </trkpt>
      <trkpt lat="45.9793" lon="4.84334">
        <ele>275</ele>
        <time>2017-06-26T08:29:17Z</time>
      </trkpt>
      <trkpt lat="45.97931" lon="4.84339">
        <ele>275</ele>
        <time>2017-06-26T08:29:18Z</time>
      </trkpt>
      <trkpt lat="45.97933" lon="4.8435">
        <ele>275</ele>
        <time>2017-06-26T08:29:20Z</time>
      </trkpt>
      <trkpt lat="45.97934" lon="4.84356">
        <ele>275</ele>
        <time>2017-06-26T08:29:21Z</time>
      </trkpt>
      <trkpt lat="45.97937" lon="4.84369">
        <ele>275</ele>
        <time>2017-06-26T08:29:23Z</time>
      </trkpt>
      <trkpt lat="45.97938" lon="4.84375">
        <ele>275</ele>
        <time>2017-06-26T08:29:24Z</time>
      </trkpt>
      <trkpt lat="45.97939" lon="4.84382">
        <ele>275</ele>
        <time>2017-06-26T08:29:25Z</time>
      </trkpt>
      <trkpt lat="45.9794" lon="4.84389">
        <ele>275</ele>
        <time>2017-06-26T08:29:26Z</time>
      </trkpt>
      <trkpt lat="45.97941" lon="4.84395">
        <ele>275</ele>
        <time>2017-06-26T08:29:27Z</time>
      </trkpt>
      <trkpt lat="45.97942" lon="4.84401">
        <ele>275</ele>
        <time>2017-06-26T08:29:28Z</time>
      </trkpt>
      <trkpt lat="45.97945" lon="4.84413">
        <ele>275</ele>
        <time>2017-06-26T08:29:30Z</time>
      </trkpt>
      <trkpt lat="45.97946" lon="4.8442">
        <ele>275</ele>
        <time>2017-06-26T08:29:31Z</time>
      </trkpt>
      <trkpt lat="45.97948" lon="4.84432">
        <ele>275</ele>
        <time>2017-06-26T08:29:33Z</time>
      </trkpt>
      <trkpt lat="45.97949" lon="4.84438">
        <ele>275</ele>
        <time>2017-06-26T08:29:34Z</time>
      </trkpt>
      <trkpt lat="45.9795" lon="4.84449">
        <ele>275</ele>
        <time>2017-06-26T08:29:36Z</time>
      </trkpt>
      <trkpt lat="45.97951" lon="4.84455">
        <ele>275</ele>
        <time>2017-06-26T08:29:37Z</time>
      </trkpt>
      <trkpt lat="45.97953" lon="4.84468">
        <ele>275</ele>
        <time>2017-06-26T08:29:39Z</time>
      </trkpt>
      <trkpt lat="45.97954" lon="4.84474">
        <ele>275</ele>
        <time>2017-06-26T08:29:40Z</time>
      </trkpt>
      <trkpt lat="45.97955" lon="4.84481">
        <ele>275</ele>
        <time>2017-06-26T08:29:41Z</time>
      </trkpt>
      <trkpt lat="45.97956" lon="4.84487">
        <ele>275</ele>
        <time>2017-06-26T08:29:42Z</time>
      </trkpt>
      <trkpt lat="45.97958" lon="4.84494">
        <ele>275</ele>
        <time>2017-06-26T08:29:43Z</time>
      </trkpt>
      <trkpt lat="45.97959" lon="4.845">
        <ele>275</ele>
        <time>2017-06-26T08:29:44Z</time>
      </trkpt>
      <trkpt lat="45.97961" lon="4.84513">
        <ele>275</ele>
        <time>2017-06-26T08:29:46Z</time>
      </trkpt>
      <trkpt lat="45.97962" lon="4.84519">
        <ele>275</ele>
        <time>2017-06-26T08:29:47Z</time>
      </trkpt>
      <trkpt lat="45.97963" lon="4.84531">
        <ele>275</ele>
        <time>2017-06-26T08:29:49Z</time>
      </trkpt>
      <trkpt lat="45.97964" lon="4.84537">
        <ele>275</ele>
        <time>2017-06-26T08:29:50Z</time>
      </trkpt>
      <trkpt lat="45.97966" lon="4.84549">
        <ele>275</ele>
        <time>2017-06-26T08:29:52Z</time>
      </trkpt>
      <trkpt lat="45.97967" lon="4.84555">
        <ele>275</ele>
        <time>2017-06-26T08:29:53Z</time>
      </trkpt>
      <trkpt lat="45.97969" lon="4.84562">
        <ele>275</ele>
        <time>2017-06-26T08:29:54Z</time>
      </trkpt>
      <trkpt lat="45.9797" lon="4.84569">
        <ele>275</ele>
        <time>2017-06-26T08:29:55Z</time>
      </trkpt>
      <trkpt lat="45.97971" lon="4.84575">
        <ele>275</ele>
        <time>2017-06-26T08:29:56Z</time>
      </trkpt>
      <trkpt lat="45.97972" lon="4.84582">
        <ele>275</ele>
        <time>2017-06-26T08:29:57Z</time>
      </trkpt>
      <trkpt lat="45.97973" lon="4.84588">
        <ele>275</ele>
        <time>2017-06-26T08:29:58Z</time>
      </trkpt>
      <trkpt lat="45.97974" lon="4.84595">
        <ele>275</ele>
        <time>2017-06-26T08:29:59Z</time>
      </trkpt>
      <trkpt lat="45.97975" lon="4.84601">
        <ele>275</ele>
        <time>2017-06-26T08:30:00Z</time>
      </trkpt>
      <trkpt lat="45.97976" lon="4.84607">
        <ele>275</ele>
        <time>2017-06-26T08:30:01Z</time>
      </trkpt>
      <trkpt lat="45.97977" lon="4.84614">
        <ele>275</ele>
        <time>2017-06-26T08:30:02Z</time>
      </trkpt>
      <trkpt lat="45.97978" lon="4.8462">
        <ele>275</ele>
        <time>2017-06-26T08:30:03Z</time>
      </trkpt>
      <trkpt lat="45.97979" lon="4.84627">
        <ele>275</ele>
        <time>2017-06-26T08:30:04Z</time>
      </trkpt>
      <trkpt lat="45.9798" lon="4.84635">
        <ele>275</ele>
        <time>2017-06-26T08:30:05Z</time>
      </trkpt>
      <trkpt lat="45.97981" lon="4.84642">
        <ele>275</ele>
        <time>2017-06-26T08:30:06Z</time>
      </trkpt>
      <trkpt lat="45.97982" lon="4.84649">
        <ele>275</ele>
        <time>2017-06-26T08:30:07Z</time>
      </trkpt>
      <trkpt lat="45.97983" lon="4.84655">
        <ele>274</ele>
        <time>2017-06-26T08:30:08Z</time>
      </trkpt>
      <trkpt lat="45.97984" lon="4.84662">
        <ele>274</ele>
        <time>2017-06-26T08:30:09Z</time>
      </trkpt>
      <trkpt lat="45.97985" lon="4.84668">
        <ele>275</ele>
        <time>2017-06-26T08:30:10Z</time>
      </trkpt>
      <trkpt lat="45.97986" lon="4.84675">
        <ele>275</ele>
        <time>2017-06-26T08:30:11Z</time>
      </trkpt>
      <trkpt lat="45.97986" lon="4.84681">
        <ele>275</ele>
        <time>2017-06-26T08:30:12Z</time>
      </trkpt>
      <trkpt lat="45.97987" lon="4.84688">
        <ele>275</ele>
        <time>2017-06-26T08:30:13Z</time>
      </trkpt>
      <trkpt lat="45.97988" lon="4.847">
        <ele>275</ele>
        <time>2017-06-26T08:30:15Z</time>
      </trkpt>
      <trkpt lat="45.97989" lon="4.84707">
        <ele>275</ele>
        <time>2017-06-26T08:30:16Z</time>
      </trkpt>
      <trkpt lat="45.9799" lon="4.84714">
        <ele>275</ele>
        <time>2017-06-26T08:30:17Z</time>
      </trkpt>
      <trkpt lat="45.97991" lon="4.84722">
        <ele>275</ele>
        <time>2017-06-26T08:30:18Z</time>
      </trkpt>
      <trkpt lat="45.97992" lon="4.84734">
        <ele>275</ele>
        <time>2017-06-26T08:30:20Z</time>
      </trkpt>
      <trkpt lat="45.97992" lon="4.8474">
        <ele>275</ele>
        <time>2017-06-26T08:30:21Z</time>
      </trkpt>
      <trkpt lat="45.97993" lon="4.84753">
        <ele>275</ele>
        <time>2017-06-26T08:30:23Z</time>
      </trkpt>
      <trkpt lat="45.97993" lon="4.84759">
        <ele>275</ele>
        <time>2017-06-26T08:30:24Z</time>
      </trkpt>
      <trkpt lat="45.97994" lon="4.84771">
        <ele>274</ele>
        <time>2017-06-26T08:30:26Z</time>
      </trkpt>
      <trkpt lat="45.97994" lon="4.84777">
        <ele>274</ele>
        <time>2017-06-26T08:30:27Z</time>
      </trkpt>
      <trkpt lat="45.97995" lon="4.84788">
        <ele>274</ele>
        <time>2017-06-26T08:30:29Z</time>
      </trkpt>
      <trkpt lat="45.97996" lon="4.84796">
        <ele>274</ele>
        <time>2017-06-26T08:30:30Z</time>
      </trkpt>
      <trkpt lat="45.97997" lon="4.84804">
        <ele>274</ele>
        <time>2017-06-26T08:30:31Z</time>
      </trkpt>
      <trkpt lat="45.97997" lon="4.84812">
        <ele>273</ele>
        <time>2017-06-26T08:30:32Z</time>
      </trkpt>
      <trkpt lat="45.97998" lon="4.8482">
        <ele>273</ele>
        <time>2017-06-26T08:30:33Z</time>
      </trkpt>
      <trkpt lat="45.97998" lon="4.84828">
        <ele>272</ele>
        <time>2017-06-26T08:30:34Z</time>
      </trkpt>
      <trkpt lat="45.97999" lon="4.84836">
        <ele>272</ele>
        <time>2017-06-26T08:30:35Z</time>
      </trkpt>
      <trkpt lat="45.98" lon="4.84843">
        <ele>272</ele>
        <time>2017-06-26T08:30:36Z</time>
      </trkpt>
      <trkpt lat="45.98001" lon="4.8485">
        <ele>272</ele>
        <time>2017-06-26T08:30:37Z</time>
      </trkpt>
      <trkpt lat="45.98001" lon="4.84858">
        <ele>272</ele>
        <time>2017-06-26T08:30:38Z</time>
      </trkpt>
      <trkpt lat="45.98002" lon="4.84865">
        <ele>272</ele>
        <time>2017-06-26T08:30:39Z</time>
      </trkpt>
      <trkpt lat="45.98002" lon="4.84872">
        <ele>272</ele>
        <time>2017-06-26T08:30:40Z</time>
      </trkpt>
      <trkpt lat="45.98003" lon="4.84879">
        <ele>272</ele>
        <time>2017-06-26T08:30:41Z</time>
      </trkpt>
      <trkpt lat="45.98004" lon="4.84886">
        <ele>272</ele>
        <time>2017-06-26T08:30:42Z</time>
      </trkpt>
      <trkpt lat="45.98005" lon="4.84898">
        <ele>272</ele>
        <time>2017-06-26T08:30:44Z</time>
      </trkpt>
      <trkpt lat="45.98005" lon="4.84903">
        <ele>272</ele>
        <time>2017-06-26T08:30:45Z</time>
      </trkpt>
      <trkpt lat="45.98006" lon="4.84916">
        <ele>272</ele>
        <time>2017-06-26T08:30:47Z</time>
      </trkpt>
      <trkpt lat="45.98006" lon="4.84923">
        <ele>272</ele>
        <time>2017-06-26T08:30:48Z</time>
      </trkpt>
      <trkpt lat="45.98007" lon="4.84929">
        <ele>272</ele>
        <time>2017-06-26T08:30:49Z</time>
      </trkpt>
      <trkpt lat="45.98007" lon="4.84936">
        <ele>272</ele>
        <time>2017-06-26T08:30:50Z</time>
      </trkpt>
      <trkpt lat="45.98008" lon="4.84944">
        <ele>272</ele>
        <time>2017-06-26T08:30:51Z</time>
      </trkpt>
      <trkpt lat="45.98009" lon="4.84952">
        <ele>272</ele>
        <time>2017-06-26T08:30:52Z</time>
      </trkpt>
      <trkpt lat="45.98009" lon="4.8496">
        <ele>272</ele>
        <time>2017-06-26T08:30:53Z</time>
      </trkpt>
      <trkpt lat="45.9801" lon="4.84967">
        <ele>272</ele>
        <time>2017-06-26T08:30:54Z</time>
      </trkpt>
      <trkpt lat="45.98011" lon="4.84975">
        <ele>272</ele>
        <time>2017-06-26T08:30:55Z</time>
      </trkpt>
      <trkpt lat="45.98011" lon="4.84982">
        <ele>272</ele>
        <time>2017-06-26T08:30:56Z</time>
      </trkpt>
      <trkpt lat="45.98012" lon="4.8499">
        <ele>272</ele>
        <time>2017-06-26T08:30:57Z</time>
      </trkpt>
      <trkpt lat="45.98012" lon="4.84997">
        <ele>272</ele>
        <time>2017-06-26T08:30:58Z</time>
      </trkpt>
      <trkpt lat="45.98013" lon="4.85004">
        <ele>272</ele>
        <time>2017-06-26T08:30:59Z</time>
      </trkpt>
      <trkpt lat="45.98014" lon="4.8501">
        <ele>272</ele>
        <time>2017-06-26T08:31:00Z</time>
      </trkpt>
      <trkpt lat="45.98015" lon="4.85022">
        <ele>273</ele>
        <time>2017-06-26T08:31:02Z</time>
      </trkpt>
      <trkpt lat="45.98016" lon="4.85028">
        <ele>273</ele>
        <time>2017-06-26T08:31:03Z</time>
      </trkpt>
      <trkpt lat="45.98017" lon="4.8504">
        <ele>273</ele>
        <time>2017-06-26T08:31:05Z</time>
      </trkpt>
      <trkpt lat="45.98017" lon="4.85047">
        <ele>273</ele>
        <time>2017-06-26T08:31:06Z</time>
      </trkpt>
      <trkpt lat="45.98017" lon="4.85053">
        <ele>273</ele>
        <time>2017-06-26T08:31:07Z</time>
      </trkpt>
      <trkpt lat="45.98018" lon="4.8506">
        <ele>273</ele>
        <time>2017-06-26T08:31:08Z</time>
      </trkpt>
      <trkpt lat="45.98018" lon="4.85069">
        <ele>273</ele>
        <time>2017-06-26T08:31:09Z</time>
      </trkpt>
      <trkpt lat="45.98018" lon="4.85078">
        <ele>273</ele>
        <time>2017-06-26T08:31:10Z</time>
      </trkpt>
      <trkpt lat="45.98018" lon="4.85086">
        <ele>274</ele>
        <time>2017-06-26T08:31:11Z</time>
      </trkpt>
      <trkpt lat="45.98019" lon="4.85094">
        <ele>274</ele>
        <time>2017-06-26T08:31:12Z</time>
      </trkpt>
      <trkpt lat="45.98021" lon="4.85102">
        <ele>274</ele>
        <time>2017-06-26T08:31:13Z</time>
      </trkpt>
      <trkpt lat="45.98023" lon="4.85109">
        <ele>274</ele>
        <time>2017-06-26T08:31:14Z</time>
      </trkpt>
      <trkpt lat="45.98024" lon="4.85116">
        <ele>274</ele>
        <time>2017-06-26T08:31:15Z</time>
      </trkpt>
      <trkpt lat="45.98026" lon="4.85122">
        <ele>274</ele>
        <time>2017-06-26T08:31:16Z</time>
      </trkpt>
      <trkpt lat="45.98029" lon="4.85134">
        <ele>275</ele>
        <time>2017-06-26T08:31:18Z</time>
      </trkpt>
      <trkpt lat="45.98031" lon="4.85139">
        <ele>275</ele>
        <time>2017-06-26T08:31:19Z</time>
      </trkpt>
      <trkpt lat="45.98034" lon="4.85149">
        <ele>275</ele>
        <time>2017-06-26T08:31:21Z</time>
      </trkpt>
      <trkpt lat="45.98036" lon="4.85155">
        <ele>275</ele>
        <time>2017-06-26T08:31:22Z</time>
      </trkpt>
      <trkpt lat="45.98038" lon="4.85161">
        <ele>275</ele>
        <time>2017-06-26T08:31:23Z</time>
      </trkpt>
      <trkpt lat="45.9804" lon="4.85168">
        <ele>275</ele>
        <time>2017-06-26T08:31:24Z</time>
      </trkpt>
      <trkpt lat="45.98042" lon="4.85175">
        <ele>275</ele>
        <time>2017-06-26T08:31:25Z</time>
      </trkpt>
      <trkpt lat="45.98044" lon="4.8518">
        <ele>276</ele>
        <time>2017-06-26T08:31:26Z</time>
      </trkpt>
      <trkpt lat="45.98047" lon="4.85191">
        <ele>276</ele>
        <time>2017-06-26T08:31:28Z</time>
      </trkpt>
      <trkpt lat="45.98048" lon="4.85197">
        <ele>276</ele>
        <time>2017-06-26T08:31:29Z</time>
      </trkpt>
      <trkpt lat="45.98051" lon="4.85207">
        <ele>276</ele>
        <time>2017-06-26T08:31:31Z</time>
      </trkpt>
      <trkpt lat="45.98053" lon="4.85212">
        <ele>276</ele>
        <time>2017-06-26T08:31:32Z</time>
      </trkpt>
      <trkpt lat="45.98055" lon="4.85217">
        <ele>276</ele>
        <time>2017-06-26T08:31:33Z</time>
      </trkpt>
      <trkpt lat="45.98057" lon="4.85223">
        <ele>276</ele>
        <time>2017-06-26T08:31:34Z</time>
      </trkpt>
      <trkpt lat="45.9806" lon="4.85229">
        <ele>276</ele>
        <time>2017-06-26T08:31:35Z</time>
      </trkpt>
      <trkpt lat="45.98063" lon="4.85235">
        <ele>276</ele>
        <time>2017-06-26T08:31:36Z</time>
      </trkpt>
      <trkpt lat="45.98065" lon="4.8524">
        <ele>276</ele>
        <time>2017-06-26T08:31:37Z</time>
      </trkpt>
      <trkpt lat="45.98068" lon="4.85246">
        <ele>276</ele>
        <time>2017-06-26T08:31:38Z</time>
      </trkpt>
      <trkpt lat="45.98071" lon="4.85251">
        <ele>276</ele>
        <time>2017-06-26T08:31:39Z</time>
      </trkpt>
      <trkpt lat="45.98074" lon="4.85257">
        <ele>276</ele>
        <time>2017-06-26T08:31:40Z</time>
      </trkpt>
      <trkpt lat="45.98077" lon="4.85262">
        <ele>276</ele>
        <time>2017-06-26T08:31:41Z</time>
      </trkpt>
      <trkpt lat="45.98079" lon="4.85267">
        <ele>276</ele>
        <time>2017-06-26T08:31:42Z</time>
      </trkpt>
      <trkpt lat="45.98085" lon="4.85278">
        <ele>276</ele>
        <time>2017-06-26T08:31:44Z</time>
      </trkpt>
      <trkpt lat="45.98087" lon="4.85283">
        <ele>276</ele>
        <time>2017-06-26T08:31:45Z</time>
      </trkpt>
      <trkpt lat="45.9809" lon="4.85288">
        <ele>276</ele>
        <time>2017-06-26T08:31:46Z</time>
      </trkpt>
      <trkpt lat="45.98093" lon="4.85294">
        <ele>276</ele>
        <time>2017-06-26T08:31:47Z</time>
      </trkpt>
      <trkpt lat="45.98095" lon="4.85299">
        <ele>276</ele>
        <time>2017-06-26T08:31:48Z</time>
      </trkpt>
      <trkpt lat="45.98098" lon="4.85305">
        <ele>276</ele>
        <time>2017-06-26T08:31:49Z</time>
      </trkpt>
      <trkpt lat="45.98102" lon="4.85316">
        <ele>276</ele>
        <time>2017-06-26T08:31:51Z</time>
      </trkpt>
      <trkpt lat="45.98104" lon="4.85322">
        <ele>276</ele>
        <time>2017-06-26T08:31:52Z</time>
      </trkpt>
      <trkpt lat="45.98107" lon="4.85328">
        <ele>276</ele>
        <time>2017-06-26T08:31:53Z</time>
      </trkpt>
      <trkpt lat="45.98109" lon="4.85334">
        <ele>276</ele>
        <time>2017-06-26T08:31:54Z</time>
      </trkpt>
      <trkpt lat="45.98111" lon="4.85341">
        <ele>276</ele>
        <time>2017-06-26T08:31:55Z</time>
      </trkpt>
      <trkpt lat="45.98114" lon="4.85347">
        <ele>276</ele>
        <time>2017-06-26T08:31:56Z</time>
      </trkpt>
      <trkpt lat="45.98116" lon="4.85355">
        <ele>276</ele>
        <time>2017-06-26T08:31:57Z</time>
      </trkpt>
      <trkpt lat="45.98119" lon="4.85362">
        <ele>276</ele>
        <time>2017-06-26T08:31:58Z</time>
      </trkpt>
      <trkpt lat="45.98122" lon="4.85369">
        <ele>276</ele>
        <time>2017-06-26T08:31:59Z</time>
      </trkpt>
      <trkpt lat="45.98124" lon="4.85375">
        <ele>276</ele>
        <time>2017-06-26T08:32:00Z</time>
      </trkpt>
      <trkpt lat="45.98127" lon="4.85382">
        <ele>276</ele>
        <time>2017-06-26T08:32:01Z</time>
      </trkpt>
      <trkpt lat="45.9813" lon="4.85388">
        <ele>276</ele>
        <time>2017-06-26T08:32:02Z</time>
      </trkpt>
      <trkpt lat="45.98132" lon="4.85394">
        <ele>276</ele>
        <time>2017-06-26T08:32:03Z</time>
      </trkpt>
      <trkpt lat="45.98134" lon="4.854">
        <ele>276</ele>
        <time>2017-06-26T08:32:04Z</time>
      </trkpt>
      <trkpt lat="45.98136" lon="4.85405">
        <ele>276</ele>
        <time>2017-06-26T08:32:05Z</time>
      </trkpt>
      <trkpt lat="45.98139" lon="4.85411">
        <ele>276</ele>
        <time>2017-06-26T08:32:06Z</time>
      </trkpt>
      <trkpt lat="45.98141" lon="4.85417">
        <ele>276</ele>
        <time>2017-06-26T08:32:07Z</time>
      </trkpt>
      <trkpt lat="45.98144" lon="4.85424">
        <ele>276</ele>
        <time>2017-06-26T08:32:08Z</time>
      </trkpt>
      <trkpt lat="45.98147" lon="4.8543">
        <ele>276</ele>
        <time>2017-06-26T08:32:09Z</time>
      </trkpt>
      <trkpt lat="45.98149" lon="4.85436">
        <ele>276</ele>
        <time>2017-06-26T08:32:10Z</time>
      </trkpt>
      <trkpt lat="45.98152" lon="4.85442">
        <ele>276</ele>
        <time>2017-06-26T08:32:11Z</time>
      </trkpt>
      <trkpt lat="45.98154" lon="4.85448">
        <ele>276</ele>
        <time>2017-06-26T08:32:12Z</time>
      </trkpt>
      <trkpt lat="45.98157" lon="4.85454">
        <ele>276</ele>
        <time>2017-06-26T08:32:13Z</time>
      </trkpt>
      <trkpt lat="45.9816" lon="4.8546">
        <ele>275</ele>
        <time>2017-06-26T08:32:14Z</time>
      </trkpt>
      <trkpt lat="45.98162" lon="4.85466">
        <ele>275</ele>
        <time>2017-06-26T08:32:15Z</time>
      </trkpt>
      <trkpt lat="45.98165" lon="4.85473">
        <ele>275</ele>
        <time>2017-06-26T08:32:16Z</time>
      </trkpt>
      <trkpt lat="45.98167" lon="4.85479">
        <ele>275</ele>
        <time>2017-06-26T08:32:17Z</time>
      </trkpt>
      <trkpt lat="45.9817" lon="4.85486">
        <ele>275</ele>
        <time>2017-06-26T08:32:18Z</time>
      </trkpt>
      <trkpt lat="45.98173" lon="4.85492">
        <ele>275</ele>
        <time>2017-06-26T08:32:19Z</time>
      </trkpt>
      <trkpt lat="45.98176" lon="4.85498">
        <ele>275</ele>
        <time>2017-06-26T08:32:20Z</time>
      </trkpt>
      <trkpt lat="45.98179" lon="4.85505">
        <ele>275</ele>
        <time>2017-06-26T08:32:21Z</time>
      </trkpt>
      <trkpt lat="45.98182" lon="4.85511">
        <ele>275</ele>
        <time>2017-06-26T08:32:22Z</time>
      </trkpt>
      <trkpt lat="45.98184" lon="4.85517">
        <ele>275</ele>
        <time>2017-06-26T08:32:23Z</time>
      </trkpt>
      <trkpt lat="45.98187" lon="4.85523">
        <ele>276</ele>
        <time>2017-06-26T08:32:24Z</time>
      </trkpt>
      <trkpt lat="45.98191" lon="4.85535">
        <ele>276</ele>
        <time>2017-06-26T08:32:26Z</time>
      </trkpt>
      <trkpt lat="45.98193" lon="4.8554">
        <ele>276</ele>
        <time>2017-06-26T08:32:27Z</time>
      </trkpt>
      <trkpt lat="45.98194" lon="4.85546">
        <ele>276</ele>
        <time>2017-06-26T08:32:28Z</time>
      </trkpt>
      <trkpt lat="45.98197" lon="4.85552">
        <ele>276</ele>
        <time>2017-06-26T08:32:29Z</time>
      </trkpt>
      <trkpt lat="45.98199" lon="4.85559">
        <ele>276</ele>
        <time>2017-06-26T08:32:30Z</time>
      </trkpt>
      <trkpt lat="45.98202" lon="4.85565">
        <ele>276</ele>
        <time>2017-06-26T08:32:31Z</time>
      </trkpt>
      <trkpt lat="45.98205" lon="4.85571">
        <ele>276</ele>
        <time>2017-06-26T08:32:32Z</time>
      </trkpt>
      <trkpt lat="45.98208" lon="4.85578">
        <ele>276</ele>
        <time>2017-06-26T08:32:33Z</time>
      </trkpt>
      <trkpt lat="45.9821" lon="4.85585">
        <ele>277</ele>
        <time>2017-06-26T08:32:34Z</time>
      </trkpt>
      <trkpt lat="45.98213" lon="4.85591">
        <ele>277</ele>
        <time>2017-06-26T08:32:35Z</time>
      </trkpt>
      <trkpt lat="45.98216" lon="4.85596">
        <ele>277</ele>
        <time>2017-06-26T08:32:36Z</time>
      </trkpt>
      <trkpt lat="45.98218" lon="4.85602">
        <ele>277</ele>
        <time>2017-06-26T08:32:37Z</time>
      </trkpt>
      <trkpt lat="45.9822" lon="4.85608">
        <ele>277</ele>
        <time>2017-06-26T08:32:38Z</time>
      </trkpt>
      <trkpt lat="45.98223" lon="4.85613">
        <ele>277</ele>
        <time>2017-06-26T08:32:39Z</time>
      </trkpt>
      <trkpt lat="45.98227" lon="4.85624">
        <ele>277</ele>
        <time>2017-06-26T08:32:41Z</time>
      </trkpt>
      <trkpt lat="45.98229" lon="4.85631">
        <ele>277</ele>
        <time>2017-06-26T08:32:42Z</time>
      </trkpt>
      <trkpt lat="45.98232" lon="4.85642">
        <ele>277</ele>
        <time>2017-06-26T08:32:44Z</time>
      </trkpt>
      <trkpt lat="45.98234" lon="4.85647">
        <ele>277</ele>
        <time>2017-06-26T08:32:45Z</time>
      </trkpt>
      <trkpt lat="45.98239" lon="4.85658">
        <ele>276</ele>
        <time>2017-06-26T08:32:47Z</time>
      </trkpt>
      <trkpt lat="45.98241" lon="4.85664">
        <ele>276</ele>
        <time>2017-06-26T08:32:48Z</time>
      </trkpt>
      <trkpt lat="45.98244" lon="4.8567">
        <ele>276</ele>
        <time>2017-06-26T08:32:49Z</time>
      </trkpt>
      <trkpt lat="45.98246" lon="4.85676">
        <ele>276</ele>
        <time>2017-06-26T08:32:50Z</time>
      </trkpt>
      <trkpt lat="45.98248" lon="4.85682">
        <ele>276</ele>
        <time>2017-06-26T08:32:51Z</time>
      </trkpt>
      <trkpt lat="45.9825" lon="4.85687">
        <ele>275</ele>
        <time>2017-06-26T08:32:52Z</time>
      </trkpt>
      <trkpt lat="45.98254" lon="4.85698">
        <ele>275</ele>
        <time>2017-06-26T08:32:54Z</time>
      </trkpt>
      <trkpt lat="45.98256" lon="4.85703">
        <ele>275</ele>
        <time>2017-06-26T08:32:55Z</time>
      </trkpt>
      <trkpt lat="45.98261" lon="4.85713">
        <ele>275</ele>
        <time>2017-06-26T08:32:57Z</time>
      </trkpt>
      <trkpt lat="45.98263" lon="4.85718">
        <ele>275</ele>
        <time>2017-06-26T08:32:58Z</time>
      </trkpt>
      <trkpt lat="45.98265" lon="4.85724">
        <ele>275</ele>
        <time>2017-06-26T08:32:59Z</time>
      </trkpt>
      <trkpt lat="45.98267" lon="4.8573">
        <ele>275</ele>
        <time>2017-06-26T08:33:00Z</time>
      </trkpt>
      <trkpt lat="45.9827" lon="4.85736">
        <ele>275</ele>
        <time>2017-06-26T08:33:01Z</time>
      </trkpt>
      <trkpt lat="45.98272" lon="4.85742">
        <ele>275</ele>
        <time>2017-06-26T08:33:02Z</time>
      </trkpt>
      <trkpt lat="45.98275" lon="4.85748">
        <ele>274</ele>
        <time>2017-06-26T08:33:03Z</time>
      </trkpt>
      <trkpt lat="45.98278" lon="4.85754">
        <ele>275</ele>
        <time>2017-06-26T08:33:04Z</time>
      </trkpt>
      <trkpt lat="45.98281" lon="4.85761">
        <ele>275</ele>
        <time>2017-06-26T08:33:05Z</time>
      </trkpt>
      <trkpt lat="45.98283" lon="4.85768">
        <ele>275</ele>
        <time>2017-06-26T08:33:06Z</time>
      </trkpt>
      <trkpt lat="45.98286" lon="4.85774">
        <ele>275</ele>
        <time>2017-06-26T08:33:07Z</time>
      </trkpt>
      <trkpt lat="45.98289" lon="4.8578">
        <ele>275</ele>
        <time>2017-06-26T08:33:08Z</time>
      </trkpt>
      <trkpt lat="45.98292" lon="4.85787">
        <ele>275</ele>
        <time>2017-06-26T08:33:09Z</time>
      </trkpt>
      <trkpt lat="45.98294" lon="4.85793">
        <ele>275</ele>
        <time>2017-06-26T08:33:10Z</time>
      </trkpt>
      <trkpt lat="45.98297" lon="4.85799">
        <ele>275</ele>
        <time>2017-06-26T08:33:11Z</time>
      </trkpt>
      <trkpt lat="45.98299" lon="4.85806">
        <ele>275</ele>
        <time>2017-06-26T08:33:12Z</time>
      </trkpt>
      <trkpt lat="45.98303" lon="4.85812">
        <ele>275</ele>
        <time>2017-06-26T08:33:13Z</time>
      </trkpt>
      <trkpt lat="45.98305" lon="4.85819">
        <ele>275</ele>
        <time>2017-06-26T08:33:14Z</time>
      </trkpt>
      <trkpt lat="45.98308" lon="4.85826">
        <ele>275</ele>
        <time>2017-06-26T08:33:15Z</time>
      </trkpt>
      <trkpt lat="45.98311" lon="4.85832">
        <ele>275</ele>
        <time>2017-06-26T08:33:16Z</time>
      </trkpt>
      <trkpt lat="45.98313" lon="4.85839">
        <ele>276</ele>
        <time>2017-06-26T08:33:17Z</time>
      </trkpt>
      <trkpt lat="45.98315" lon="4.85844">
        <ele>276</ele>
        <time>2017-06-26T08:33:18Z</time>
      </trkpt>
      <trkpt lat="45.98317" lon="4.85849">
        <ele>276</ele>
        <time>2017-06-26T08:33:19Z</time>
      </trkpt>
      <trkpt lat="45.98319" lon="4.85856">
        <ele>276</ele>
        <time>2017-06-26T08:33:20Z</time>
      </trkpt>
      <trkpt lat="45.98322" lon="4.85863">
        <ele>276</ele>
        <time>2017-06-26T08:33:21Z</time>
      </trkpt>
      <trkpt lat="45.98325" lon="4.8587">
        <ele>276</ele>
        <time>2017-06-26T08:33:22Z</time>
      </trkpt>
      <trkpt lat="45.98329" lon="4.85881">
        <ele>276</ele>
        <time>2017-06-26T08:33:24Z</time>
      </trkpt>
      <trkpt lat="45.98331" lon="4.85886">
        <ele>276</ele>
        <time>2017-06-26T08:33:25Z</time>
      </trkpt>
      <trkpt lat="45.98335" lon="4.85897">
        <ele>276</ele>
        <time>2017-06-26T08:33:27Z</time>
      </trkpt>
      <trkpt lat="45.98338" lon="4.85902">
        <ele>276</ele>
        <time>2017-06-26T08:33:28Z</time>
      </trkpt>
      <trkpt lat="45.98343" lon="4.85912">
        <ele>276</ele>
        <time>2017-06-26T08:33:30Z</time>
      </trkpt>
      <trkpt lat="45.98344" lon="4.85916">
        <ele>276</ele>
        <time>2017-06-26T08:33:31Z</time>
      </trkpt>
      <trkpt lat="45.98349" lon="4.85925">
        <ele>276</ele>
        <time>2017-06-26T08:33:33Z</time>
      </trkpt>
      <trkpt lat="45.98351" lon="4.85929">
        <ele>276</ele>
        <time>2017-06-26T08:33:34Z</time>
      </trkpt>
      <trkpt lat="45.98356" lon="4.85937">
        <ele>276</ele>
        <time>2017-06-26T08:33:36Z</time>
      </trkpt>
      <trkpt lat="45.98358" lon="4.85942">
        <ele>276</ele>
        <time>2017-06-26T08:33:37Z</time>
      </trkpt>
      <trkpt lat="45.9836" lon="4.85948">
        <ele>276</ele>
        <time>2017-06-26T08:33:38Z</time>
      </trkpt>
      <trkpt lat="45.98362" lon="4.85955">
        <ele>276</ele>
        <time>2017-06-26T08:33:39Z</time>
      </trkpt>
      <trkpt lat="45.98364" lon="4.85961">
        <ele>276</ele>
        <time>2017-06-26T08:33:40Z</time>
      </trkpt>
      <trkpt lat="45.98368" lon="4.85967">
        <ele>276</ele>
        <time>2017-06-26T08:33:41Z</time>
      </trkpt>
      <trkpt lat="45.98371" lon="4.85974">
        <ele>276</ele>
        <time>2017-06-26T08:33:42Z</time>
      </trkpt>
      <trkpt lat="45.98374" lon="4.85982">
        <ele>276</ele>
        <time>2017-06-26T08:33:43Z</time>
      </trkpt>
      <trkpt lat="45.98377" lon="4.85989">
        <ele>276</ele>
        <time>2017-06-26T08:33:44Z</time>
      </trkpt>
      <trkpt lat="45.9838" lon="4.85997">
        <ele>277</ele>
        <time>2017-06-26T08:33:45Z</time>
      </trkpt>
      <trkpt lat="45.98382" lon="4.86003">
        <ele>277</ele>
        <time>2017-06-26T08:33:46Z</time>
      </trkpt>
      <trkpt lat="45.98384" lon="4.86009">
        <ele>277</ele>
        <time>2017-06-26T08:33:47Z</time>
      </trkpt>
      <trkpt lat="45.98388" lon="4.86019">
        <ele>277</ele>
        <time>2017-06-26T08:33:49Z</time>
      </trkpt>
      <trkpt lat="45.9839" lon="4.86028">
        <ele>277</ele>
        <time>2017-06-26T08:33:50Z</time>
      </trkpt>
      <trkpt lat="45.98393" lon="4.86036">
        <ele>277</ele>
        <time>2017-06-26T08:33:51Z</time>
      </trkpt>
      <trkpt lat="45.98393" lon="4.86042">
        <ele>277</ele>
        <time>2017-06-26T08:33:52Z</time>
      </trkpt>
      <trkpt lat="45.98395" lon="4.86048">
        <ele>277</ele>
        <time>2017-06-26T08:33:53Z</time>
      </trkpt>
      <trkpt lat="45.98397" lon="4.86055">
        <ele>277</ele>
        <time>2017-06-26T08:33:54Z</time>
      </trkpt>
      <trkpt lat="45.984" lon="4.86062">
        <ele>277</ele>
        <time>2017-06-26T08:33:55Z</time>
      </trkpt>
      <trkpt lat="45.98401" lon="4.8607">
        <ele>277</ele>
        <time>2017-06-26T08:33:56Z</time>
      </trkpt>
      <trkpt lat="45.98402" lon="4.86078">
        <ele>277</ele>
        <time>2017-06-26T08:33:57Z</time>
      </trkpt>
      <trkpt lat="45.98403" lon="4.86085">
        <ele>277</ele>
        <time>2017-06-26T08:33:58Z</time>
      </trkpt>
      <trkpt lat="45.98404" lon="4.86093">
        <ele>277</ele>
        <time>2017-06-26T08:33:59Z</time>
      </trkpt>
      <trkpt lat="45.98406" lon="4.861">
        <ele>277</ele>
        <time>2017-06-26T08:34:00Z</time>
      </trkpt>
      <trkpt lat="45.98408" lon="4.86107">
        <ele>277</ele>
        <time>2017-06-26T08:34:01Z</time>
      </trkpt>
      <trkpt lat="45.9841" lon="4.86114">
        <ele>277</ele>
        <time>2017-06-26T08:34:02Z</time>
      </trkpt>
      <trkpt lat="45.98412" lon="4.8612">
        <ele>277</ele>
        <time>2017-06-26T08:34:03Z</time>
      </trkpt>
      <trkpt lat="45.98413" lon="4.86128">
        <ele>276</ele>
        <time>2017-06-26T08:34:04Z</time>
      </trkpt>
      <trkpt lat="45.98415" lon="4.86135">
        <ele>276</ele>
        <time>2017-06-26T08:34:05Z</time>
      </trkpt>
      <trkpt lat="45.98415" lon="4.86143">
        <ele>276</ele>
        <time>2017-06-26T08:34:06Z</time>
      </trkpt>
      <trkpt lat="45.98416" lon="4.8615">
        <ele>276</ele>
        <time>2017-06-26T08:34:07Z</time>
      </trkpt>
      <trkpt lat="45.98417" lon="4.86157">
        <ele>276</ele>
        <time>2017-06-26T08:34:08Z</time>
      </trkpt>
      <trkpt lat="45.98418" lon="4.86169">
        <ele>276</ele>
        <time>2017-06-26T08:34:10Z</time>
      </trkpt>
      <trkpt lat="45.98419" lon="4.86175">
        <ele>276</ele>
        <time>2017-06-26T08:34:11Z</time>
      </trkpt>
      <trkpt lat="45.98421" lon="4.86185">
        <ele>275</ele>
        <time>2017-06-26T08:34:13Z</time>
      </trkpt>
      <trkpt lat="45.98421" lon="4.8619">
        <ele>275</ele>
        <time>2017-06-26T08:34:14Z</time>
      </trkpt>
      <trkpt lat="45.98423" lon="4.86201">
        <ele>275</ele>
        <time>2017-06-26T08:34:16Z</time>
      </trkpt>
      <trkpt lat="45.98423" lon="4.86206">
        <ele>275</ele>
        <time>2017-06-26T08:34:17Z</time>
      </trkpt>
      <trkpt lat="45.98424" lon="4.86211">
        <ele>275</ele>
        <time>2017-06-26T08:34:19Z</time>
      </trkpt>
      <trkpt lat="45.98424" lon="4.86213">
        <ele>275</ele>
        <time>2017-06-26T08:34:20Z</time>
      </trkpt>
      <trkpt lat="45.98424" lon="4.86214">
        <ele>275</ele>
        <time>2017-06-26T08:34:31Z</time>
      </trkpt>
      <trkpt lat="45.98424" lon="4.86215">
        <ele>275</ele>
        <time>2017-06-26T08:34:32Z</time>
      </trkpt>
      <trkpt lat="45.98426" lon="4.86226">
        <ele>275</ele>
        <time>2017-06-26T08:34:36Z</time>
      </trkpt>
      <trkpt lat="45.98427" lon="4.86231">
        <ele>275</ele>
        <time>2017-06-26T08:34:37Z</time>
      </trkpt>
      <trkpt lat="45.98428" lon="4.86243">
        <ele>275</ele>
        <time>2017-06-26T08:34:39Z</time>
      </trkpt>
      <trkpt lat="45.98429" lon="4.8625">
        <ele>275</ele>
        <time>2017-06-26T08:34:40Z</time>
      </trkpt>
      <trkpt lat="45.9843" lon="4.86258">
        <ele>275</ele>
        <time>2017-06-26T08:34:41Z</time>
      </trkpt>
      <trkpt lat="45.98432" lon="4.86266">
        <ele>275</ele>
        <time>2017-06-26T08:34:42Z</time>
      </trkpt>
      <trkpt lat="45.98433" lon="4.86275">
        <ele>276</ele>
        <time>2017-06-26T08:34:43Z</time>
      </trkpt>
      <trkpt lat="45.98434" lon="4.86284">
        <ele>276</ele>
        <time>2017-06-26T08:34:44Z</time>
      </trkpt>
      <trkpt lat="45.98436" lon="4.86294">
        <ele>276</ele>
        <time>2017-06-26T08:34:45Z</time>
      </trkpt>
      <trkpt lat="45.98438" lon="4.86304">
        <ele>276</ele>
        <time>2017-06-26T08:34:46Z</time>
      </trkpt>
      <trkpt lat="45.9844" lon="4.86314">
        <ele>276</ele>
        <time>2017-06-26T08:34:47Z</time>
      </trkpt>
      <trkpt lat="45.98441" lon="4.86324">
        <ele>276</ele>
        <time>2017-06-26T08:34:48Z</time>
      </trkpt>
      <trkpt lat="45.98444" lon="4.86333">
        <ele>276</ele>
        <time>2017-06-26T08:34:49Z</time>
      </trkpt>
      <trkpt lat="45.98446" lon="4.86342">
        <ele>277</ele>
        <time>2017-06-26T08:34:50Z</time>
      </trkpt>
      <trkpt lat="45.98448" lon="4.86351">
        <ele>277</ele>
        <time>2017-06-26T08:34:51Z</time>
      </trkpt>
      <trkpt lat="45.9845" lon="4.8636">
        <ele>277</ele>
        <time>2017-06-26T08:34:52Z</time>
      </trkpt>
      <trkpt lat="45.98452" lon="4.86368">
        <ele>277</ele>
        <time>2017-06-26T08:34:53Z</time>
      </trkpt>
      <trkpt lat="45.98455" lon="4.86376">
        <ele>277</ele>
        <time>2017-06-26T08:34:54Z</time>
      </trkpt>
      <trkpt lat="45.98458" lon="4.86384">
        <ele>277</ele>
        <time>2017-06-26T08:34:55Z</time>
      </trkpt>
      <trkpt lat="45.98461" lon="4.86391">
        <ele>277</ele>
        <time>2017-06-26T08:34:56Z</time>
      </trkpt>
      <trkpt lat="45.98464" lon="4.86398">
        <ele>277</ele>
        <time>2017-06-26T08:34:57Z</time>
      </trkpt>
      <trkpt lat="45.98468" lon="4.86405">
        <ele>277</ele>
        <time>2017-06-26T08:34:58Z</time>
      </trkpt>
      <trkpt lat="45.98471" lon="4.86411">
        <ele>277</ele>
        <time>2017-06-26T08:34:59Z</time>
      </trkpt>
      <trkpt lat="45.98474" lon="4.86418">
        <ele>278</ele>
        <time>2017-06-26T08:35:00Z</time>
      </trkpt>
      <trkpt lat="45.98477" lon="4.86424">
        <ele>278</ele>
        <time>2017-06-26T08:35:01Z</time>
      </trkpt>
      <trkpt lat="45.9848" lon="4.86431">
        <ele>278</ele>
        <time>2017-06-26T08:35:02Z</time>
      </trkpt>
      <trkpt lat="45.98483" lon="4.86437">
        <ele>278</ele>
        <time>2017-06-26T08:35:03Z</time>
      </trkpt>
      <trkpt lat="45.98486" lon="4.86443">
        <ele>278</ele>
        <time>2017-06-26T08:35:04Z</time>
      </trkpt>
      <trkpt lat="45.98489" lon="4.8645">
        <ele>278</ele>
        <time>2017-06-26T08:35:05Z</time>
      </trkpt>
      <trkpt lat="45.98492" lon="4.86455">
        <ele>278</ele>
        <time>2017-06-26T08:35:06Z</time>
      </trkpt>
      <trkpt lat="45.98495" lon="4.8646">
        <ele>278</ele>
        <time>2017-06-26T08:35:07Z</time>
      </trkpt>
      <trkpt lat="45.98498" lon="4.86465">
        <ele>279</ele>
        <time>2017-06-26T08:35:08Z</time>
      </trkpt>
      <trkpt lat="45.98501" lon="4.86471">
        <ele>278</ele>
        <time>2017-06-26T08:35:09Z</time>
      </trkpt>
      <trkpt lat="45.98504" lon="4.86477">
        <ele>278</ele>
        <time>2017-06-26T08:35:10Z</time>
      </trkpt>
      <trkpt lat="45.98507" lon="4.86483">
        <ele>278</ele>
        <time>2017-06-26T08:35:11Z</time>
      </trkpt>
      <trkpt lat="45.98509" lon="4.86489">
        <ele>279</ele>
        <time>2017-06-26T08:35:12Z</time>
      </trkpt>
      <trkpt lat="45.98512" lon="4.86496">
        <ele>279</ele>
        <time>2017-06-26T08:35:13Z</time>
      </trkpt>
      <trkpt lat="45.98514" lon="4.86502">
        <ele>279</ele>
        <time>2017-06-26T08:35:14Z</time>
      </trkpt>
      <trkpt lat="45.98517" lon="4.86508">
        <ele>279</ele>
        <time>2017-06-26T08:35:15Z</time>
      </trkpt>
      <trkpt lat="45.9852" lon="4.86514">
        <ele>279</ele>
        <time>2017-06-26T08:35:16Z</time>
      </trkpt>
      <trkpt lat="45.98524" lon="4.86519">
        <ele>279</ele>
        <time>2017-06-26T08:35:17Z</time>
      </trkpt>
      <trkpt lat="45.98526" lon="4.86525">
        <ele>279</ele>
        <time>2017-06-26T08:35:18Z</time>
      </trkpt>
      <trkpt lat="45.98528" lon="4.86531">
        <ele>279</ele>
        <time>2017-06-26T08:35:19Z</time>
      </trkpt>
      <trkpt lat="45.98531" lon="4.86537">
        <ele>279</ele>
        <time>2017-06-26T08:35:20Z</time>
      </trkpt>
      <trkpt lat="45.98536" lon="4.86547">
        <ele>278</ele>
        <time>2017-06-26T08:35:22Z</time>
      </trkpt>
      <trkpt lat="45.98539" lon="4.86553">
        <ele>278</ele>
        <time>2017-06-26T08:35:23Z</time>
      </trkpt>
      <trkpt lat="45.98542" lon="4.86558">
        <ele>278</ele>
        <time>2017-06-26T08:35:24Z</time>
      </trkpt>
      <trkpt lat="45.98544" lon="4.86564">
        <ele>278</ele>
        <time>2017-06-26T08:35:25Z</time>
      </trkpt>
      <trkpt lat="45.98548" lon="4.86575">
        <ele>278</ele>
        <time>2017-06-26T08:35:27Z</time>
      </trkpt>
      <trkpt lat="45.9855" lon="4.86582">
        <ele>278</ele>
        <time>2017-06-26T08:35:28Z</time>
      </trkpt>
      <trkpt lat="45.98552" lon="4.86589">
        <ele>278</ele>
        <time>2017-06-26T08:35:29Z</time>
      </trkpt>
      <trkpt lat="45.98554" lon="4.86595">
        <ele>278</ele>
        <time>2017-06-26T08:35:30Z</time>
      </trkpt>
      <trkpt lat="45.98556" lon="4.86602">
        <ele>278</ele>
        <time>2017-06-26T08:35:31Z</time>
      </trkpt>
      <trkpt lat="45.98557" lon="4.86609">
        <ele>278</ele>
        <time>2017-06-26T08:35:32Z</time>
      </trkpt>
      <trkpt lat="45.98558" lon="4.86616">
        <ele>278</ele>
        <time>2017-06-26T08:35:33Z</time>
      </trkpt>
      <trkpt lat="45.9856" lon="4.86623">
        <ele>278</ele>
        <time>2017-06-26T08:35:34Z</time>
      </trkpt>
      <trkpt lat="45.98561" lon="4.8663">
        <ele>278</ele>
        <time>2017-06-26T08:35:35Z</time>
      </trkpt>
      <trkpt lat="45.98561" lon="4.86637">
        <ele>277</ele>
        <time>2017-06-26T08:35:36Z</time>
      </trkpt>
      <trkpt lat="45.98563" lon="4.86649">
        <ele>277</ele>
        <time>2017-06-26T08:35:38Z</time>
      </trkpt>
      <trkpt lat="45.98564" lon="4.86655">
        <ele>277</ele>
        <time>2017-06-26T08:35:39Z</time>
      </trkpt>
      <trkpt lat="45.98564" lon="4.86661">
        <ele>277</ele>
        <time>2017-06-26T08:35:40Z</time>
      </trkpt>
      <trkpt lat="45.98565" lon="4.86668">
        <ele>276</ele>
        <time>2017-06-26T08:35:41Z</time>
      </trkpt>
      <trkpt lat="45.98565" lon="4.86674">
        <ele>276</ele>
        <time>2017-06-26T08:35:42Z</time>
      </trkpt>
      <trkpt lat="45.98566" lon="4.86682">
        <ele>277</ele>
        <time>2017-06-26T08:35:43Z</time>
      </trkpt>
      <trkpt lat="45.98566" lon="4.86688">
        <ele>277</ele>
        <time>2017-06-26T08:35:44Z</time>
      </trkpt>
      <trkpt lat="45.98567" lon="4.86694">
        <ele>277</ele>
        <time>2017-06-26T08:35:45Z</time>
      </trkpt>
      <trkpt lat="45.98568" lon="4.86707">
        <ele>277</ele>
        <time>2017-06-26T08:35:47Z</time>
      </trkpt>
      <trkpt lat="45.98569" lon="4.86713">
        <ele>277</ele>
        <time>2017-06-26T08:35:48Z</time>
      </trkpt>
      <trkpt lat="45.9857" lon="4.8672">
        <ele>277</ele>
        <time>2017-06-26T08:35:49Z</time>
      </trkpt>
      <trkpt lat="45.98571" lon="4.86727">
        <ele>277</ele>
        <time>2017-06-26T08:35:50Z</time>
      </trkpt>
      <trkpt lat="45.98572" lon="4.86734">
        <ele>277</ele>
        <time>2017-06-26T08:35:51Z</time>
      </trkpt>
      <trkpt lat="45.98573" lon="4.86742">
        <ele>277</ele>
        <time>2017-06-26T08:35:52Z</time>
      </trkpt>
      <trkpt lat="45.98574" lon="4.86749">
        <ele>276</ele>
        <time>2017-06-26T08:35:53Z</time>
      </trkpt>
      <trkpt lat="45.98575" lon="4.86757">
        <ele>277</ele>
        <time>2017-06-26T08:35:54Z</time>
      </trkpt>
      <trkpt lat="45.98577" lon="4.86764">
        <ele>277</ele>
        <time>2017-06-26T08:35:55Z</time>
      </trkpt>
      <trkpt lat="45.98578" lon="4.86771">
        <ele>277</ele>
        <time>2017-06-26T08:35:56Z</time>
      </trkpt>
      <trkpt lat="45.9858" lon="4.86783">
        <ele>277</ele>
        <time>2017-06-26T08:35:58Z</time>
      </trkpt>
      <trkpt lat="45.9858" lon="4.86789">
        <ele>277</ele>
        <time>2017-06-26T08:35:59Z</time>
      </trkpt>
      <trkpt lat="45.98577" lon="4.86799">
        <ele>278</ele>
        <time>2017-06-26T08:36:01Z</time>
      </trkpt>
      <trkpt lat="45.98577" lon="4.86805">
        <ele>278</ele>
        <time>2017-06-26T08:36:02Z</time>
      </trkpt>
      <trkpt lat="45.98579" lon="4.86817">
        <ele>277</ele>
        <time>2017-06-26T08:36:04Z</time>
      </trkpt>
      <trkpt lat="45.98579" lon="4.86823">
        <ele>277</ele>
        <time>2017-06-26T08:36:05Z</time>
      </trkpt>
      <trkpt lat="45.9858" lon="4.8683">
        <ele>277</ele>
        <time>2017-06-26T08:36:06Z</time>
      </trkpt>
      <trkpt lat="45.9858" lon="4.86838">
        <ele>278</ele>
        <time>2017-06-26T08:36:07Z</time>
      </trkpt>
      <trkpt lat="45.98581" lon="4.86846">
        <ele>278</ele>
        <time>2017-06-26T08:36:08Z</time>
      </trkpt>
      <trkpt lat="45.98581" lon="4.86853">
        <ele>279</ele>
        <time>2017-06-26T08:36:09Z</time>
      </trkpt>
      <trkpt lat="45.98581" lon="4.8686">
        <ele>279</ele>
        <time>2017-06-26T08:36:10Z</time>
      </trkpt>
      <trkpt lat="45.98581" lon="4.86867">
        <ele>279</ele>
        <time>2017-06-26T08:36:11Z</time>
      </trkpt>
      <trkpt lat="45.98581" lon="4.86873">
        <ele>279</ele>
        <time>2017-06-26T08:36:12Z</time>
      </trkpt>
      <trkpt lat="45.98581" lon="4.8688">
        <ele>279</ele>
        <time>2017-06-26T08:36:13Z</time>
      </trkpt>
      <trkpt lat="45.98581" lon="4.86886">
        <ele>279</ele>
        <time>2017-06-26T08:36:14Z</time>
      </trkpt>
      <trkpt lat="45.98581" lon="4.86894">
        <ele>279</ele>
        <time>2017-06-26T08:36:15Z</time>
      </trkpt>
      <trkpt lat="45.98582" lon="4.86902">
        <ele>279</ele>
        <time>2017-06-26T08:36:16Z</time>
      </trkpt>
      <trkpt lat="45.98582" lon="4.86909">
        <ele>279</ele>
        <time>2017-06-26T08:36:17Z</time>
      </trkpt>
      <trkpt lat="45.98582" lon="4.86916">
        <ele>279</ele>
        <time>2017-06-26T08:36:18Z</time>
      </trkpt>
      <trkpt lat="45.98582" lon="4.86924">
        <ele>280</ele>
        <time>2017-06-26T08:36:19Z</time>
      </trkpt>
      <trkpt lat="45.98583" lon="4.86933">
        <ele>280</ele>
        <time>2017-06-26T08:36:20Z</time>
      </trkpt>
      <trkpt lat="45.98582" lon="4.86942">
        <ele>281</ele>
        <time>2017-06-26T08:36:21Z</time>
      </trkpt>
      <trkpt lat="45.98583" lon="4.8695">
        <ele>281</ele>
        <time>2017-06-26T08:36:22Z</time>
      </trkpt>
      <trkpt lat="45.98582" lon="4.86957">
        <ele>281</ele>
        <time>2017-06-26T08:36:23Z</time>
      </trkpt>
      <trkpt lat="45.98582" lon="4.86965">
        <ele>281</ele>
        <time>2017-06-26T08:36:24Z</time>
      </trkpt>
      <trkpt lat="45.98583" lon="4.86973">
        <ele>281</ele>
        <time>2017-06-26T08:36:25Z</time>
      </trkpt>
      <trkpt lat="45.98583" lon="4.86981">
        <ele>281</ele>
        <time>2017-06-26T08:36:26Z</time>
      </trkpt>
      <trkpt lat="45.98585" lon="4.8699">
        <ele>279</ele>
        <time>2017-06-26T08:36:27Z</time>
      </trkpt>
      <trkpt lat="45.98586" lon="4.86997">
        <ele>280</ele>
        <time>2017-06-26T08:36:28Z</time>
      </trkpt>
      <trkpt lat="45.98587" lon="4.87005">
        <ele>280</ele>
        <time>2017-06-26T08:36:29Z</time>
      </trkpt>
      <trkpt lat="45.98588" lon="4.87012">
        <ele>279</ele>
        <time>2017-06-26T08:36:30Z</time>
      </trkpt>
      <trkpt lat="45.98589" lon="4.87021">
        <ele>279</ele>
        <time>2017-06-26T08:36:31Z</time>
      </trkpt>
      <trkpt lat="45.98591" lon="4.87027">
        <ele>279</ele>
        <time>2017-06-26T08:36:32Z</time>
      </trkpt>
      <trkpt lat="45.98593" lon="4.87034">
        <ele>279</ele>
        <time>2017-06-26T08:36:33Z</time>
      </trkpt>
      <trkpt lat="45.98594" lon="4.87041">
        <ele>279</ele>
        <time>2017-06-26T08:36:34Z</time>
      </trkpt>
      <trkpt lat="45.98596" lon="4.87049">
        <ele>279</ele>
        <time>2017-06-26T08:36:35Z</time>
      </trkpt>
      <trkpt lat="45.98598" lon="4.87055">
        <ele>279</ele>
        <time>2017-06-26T08:36:36Z</time>
      </trkpt>
      <trkpt lat="45.986" lon="4.87063">
        <ele>279</ele>
        <time>2017-06-26T08:36:37Z</time>
      </trkpt>
      <trkpt lat="45.98601" lon="4.8707">
        <ele>279</ele>
        <time>2017-06-26T08:36:38Z</time>
      </trkpt>
      <trkpt lat="45.98603" lon="4.87077">
        <ele>279</ele>
        <time>2017-06-26T08:36:39Z</time>
      </trkpt>
      <trkpt lat="45.98603" lon="4.87084">
        <ele>279</ele>
        <time>2017-06-26T08:36:40Z</time>
      </trkpt>
      <trkpt lat="45.98604" lon="4.87091">
        <ele>279</ele>
        <time>2017-06-26T08:36:41Z</time>
      </trkpt>
      <trkpt lat="45.98605" lon="4.87099">
        <ele>279</ele>
        <time>2017-06-26T08:36:42Z</time>
      </trkpt>
      <trkpt lat="45.98605" lon="4.87107">
        <ele>279</ele>
        <time>2017-06-26T08:36:43Z</time>
      </trkpt>
      <trkpt lat="45.98605" lon="4.87115">
        <ele>279</ele>
        <time>2017-06-26T08:36:44Z</time>
      </trkpt>
      <trkpt lat="45.98605" lon="4.87122">
        <ele>279</ele>
        <time>2017-06-26T08:36:45Z</time>
      </trkpt>
      <trkpt lat="45.98605" lon="4.87129">
        <ele>279</ele>
        <time>2017-06-26T08:36:46Z</time>
      </trkpt>
      <trkpt lat="45.98604" lon="4.87136">
        <ele>278</ele>
        <time>2017-06-26T08:36:47Z</time>
      </trkpt>
      <trkpt lat="45.98603" lon="4.87143">
        <ele>278</ele>
        <time>2017-06-26T08:36:48Z</time>
      </trkpt>
      <trkpt lat="45.98603" lon="4.87151">
        <ele>278</ele>
        <time>2017-06-26T08:36:49Z</time>
      </trkpt>
      <trkpt lat="45.98602" lon="4.87158">
        <ele>278</ele>
        <time>2017-06-26T08:36:50Z</time>
      </trkpt>
      <trkpt lat="45.98601" lon="4.87167">
        <ele>277</ele>
        <time>2017-06-26T08:36:51Z</time>
      </trkpt>
      <trkpt lat="45.986" lon="4.87176">
        <ele>277</ele>
        <time>2017-06-26T08:36:52Z</time>
      </trkpt>
      <trkpt lat="45.986" lon="4.87184">
        <ele>277</ele>
        <time>2017-06-26T08:36:53Z</time>
      </trkpt>
      <trkpt lat="45.98599" lon="4.87192">
        <ele>277</ele>
        <time>2017-06-26T08:36:54Z</time>
      </trkpt>
      <trkpt lat="45.98599" lon="4.87202">
        <ele>277</ele>
        <time>2017-06-26T08:36:55Z</time>
      </trkpt>
      <trkpt lat="45.986" lon="4.87213">
        <ele>277</ele>
        <time>2017-06-26T08:36:56Z</time>
      </trkpt>
      <trkpt lat="45.98599" lon="4.87221">
        <ele>277</ele>
        <time>2017-06-26T08:36:57Z</time>
      </trkpt>
      <trkpt lat="45.98598" lon="4.87229">
        <ele>277</ele>
        <time>2017-06-26T08:36:58Z</time>
      </trkpt>
      <trkpt lat="45.98598" lon="4.87237">
        <ele>277</ele>
        <time>2017-06-26T08:36:59Z</time>
      </trkpt>
      <trkpt lat="45.98597" lon="4.87246">
        <ele>277</ele>
        <time>2017-06-26T08:37:00Z</time>
      </trkpt>
      <trkpt lat="45.98596" lon="4.87254">
        <ele>275</ele>
        <time>2017-06-26T08:37:01Z</time>
      </trkpt>
      <trkpt lat="45.98595" lon="4.87263">
        <ele>275</ele>
        <time>2017-06-26T08:37:02Z</time>
      </trkpt>
      <trkpt lat="45.98594" lon="4.87272">
        <ele>275</ele>
        <time>2017-06-26T08:37:03Z</time>
      </trkpt>
      <trkpt lat="45.98594" lon="4.87281">
        <ele>275</ele>
        <time>2017-06-26T08:37:04Z</time>
      </trkpt>
      <trkpt lat="45.98593" lon="4.87289">
        <ele>275</ele>
        <time>2017-06-26T08:37:05Z</time>
      </trkpt>
      <trkpt lat="45.98594" lon="4.87298">
        <ele>275</ele>
        <time>2017-06-26T08:37:06Z</time>
      </trkpt>
      <trkpt lat="45.98595" lon="4.87306">
        <ele>274</ele>
        <time>2017-06-26T08:37:07Z</time>
      </trkpt>
      <trkpt lat="45.98596" lon="4.87315">
        <ele>274</ele>
        <time>2017-06-26T08:37:08Z</time>
      </trkpt>
      <trkpt lat="45.98597" lon="4.87324">
        <ele>274</ele>
        <time>2017-06-26T08:37:09Z</time>
      </trkpt>
      <trkpt lat="45.98598" lon="4.87333">
        <ele>274</ele>
        <time>2017-06-26T08:37:10Z</time>
      </trkpt>
      <trkpt lat="45.986" lon="4.87343">
        <ele>272</ele>
        <time>2017-06-26T08:37:11Z</time>
      </trkpt>
      <trkpt lat="45.98602" lon="4.87353">
        <ele>272</ele>
        <time>2017-06-26T08:37:12Z</time>
      </trkpt>
      <trkpt lat="45.98605" lon="4.87364">
        <ele>272</ele>
        <time>2017-06-26T08:37:13Z</time>
      </trkpt>
      <trkpt lat="45.98608" lon="4.87375">
        <ele>271</ele>
        <time>2017-06-26T08:37:14Z</time>
      </trkpt>
      <trkpt lat="45.98611" lon="4.87386">
        <ele>271</ele>
        <time>2017-06-26T08:37:15Z</time>
      </trkpt>
      <trkpt lat="45.98613" lon="4.87397">
        <ele>271</ele>
        <time>2017-06-26T08:37:16Z</time>
      </trkpt>
      <trkpt lat="45.98615" lon="4.87407">
        <ele>271</ele>
        <time>2017-06-26T08:37:17Z</time>
      </trkpt>
      <trkpt lat="45.98618" lon="4.87418">
        <ele>269</ele>
        <time>2017-06-26T08:37:18Z</time>
      </trkpt>
      <trkpt lat="45.9862" lon="4.87428">
        <ele>269</ele>
        <time>2017-06-26T08:37:19Z</time>
      </trkpt>
      <trkpt lat="45.98622" lon="4.87439">
        <ele>269</ele>
        <time>2017-06-26T08:37:20Z</time>
      </trkpt>
      <trkpt lat="45.98625" lon="4.8745">
        <ele>268</ele>
        <time>2017-06-26T08:37:21Z</time>
      </trkpt>
      <trkpt lat="45.98627" lon="4.87461">
        <ele>268</ele>
        <time>2017-06-26T08:37:22Z</time>
      </trkpt>
      <trkpt lat="45.98629" lon="4.87472">
        <ele>268</ele>
        <time>2017-06-26T08:37:23Z</time>
      </trkpt>
      <trkpt lat="45.98632" lon="4.87483">
        <ele>268</ele>
        <time>2017-06-26T08:37:24Z</time>
      </trkpt>
      <trkpt lat="45.98633" lon="4.87493">
        <ele>268</ele>
        <time>2017-06-26T08:37:25Z</time>
      </trkpt>
      <trkpt lat="45.98635" lon="4.87503">
        <ele>267</ele>
        <time>2017-06-26T08:37:26Z</time>
      </trkpt>
      <trkpt lat="45.98636" lon="4.87513">
        <ele>267</ele>
        <time>2017-06-26T08:37:27Z</time>
      </trkpt>
      <trkpt lat="45.98638" lon="4.87522">
        <ele>267</ele>
        <time>2017-06-26T08:37:28Z</time>
      </trkpt>
      <trkpt lat="45.98639" lon="4.87532">
        <ele>267</ele>
        <time>2017-06-26T08:37:29Z</time>
      </trkpt>
      <trkpt lat="45.98641" lon="4.87542">
        <ele>267</ele>
        <time>2017-06-26T08:37:30Z</time>
      </trkpt>
      <trkpt lat="45.98643" lon="4.87551">
        <ele>267</ele>
        <time>2017-06-26T08:37:31Z</time>
      </trkpt>
      <trkpt lat="45.98647" lon="4.87559">
        <ele>267</ele>
        <time>2017-06-26T08:37:32Z</time>
      </trkpt>
      <trkpt lat="45.98651" lon="4.87566">
        <ele>267</ele>
        <time>2017-06-26T08:37:33Z</time>
      </trkpt>
      <trkpt lat="45.98657" lon="4.8757">
        <ele>267</ele>
        <time>2017-06-26T08:37:34Z</time>
      </trkpt>
      <trkpt lat="45.98663" lon="4.87573">
        <ele>267</ele>
        <time>2017-06-26T08:37:35Z</time>
      </trkpt>
      <trkpt lat="45.98668" lon="4.87575">
        <ele>267</ele>
        <time>2017-06-26T08:37:36Z</time>
      </trkpt>
      <trkpt lat="45.98674" lon="4.87575">
        <ele>267</ele>
        <time>2017-06-26T08:37:37Z</time>
      </trkpt>
      <trkpt lat="45.98679" lon="4.87575">
        <ele>267</ele>
        <time>2017-06-26T08:37:38Z</time>
      </trkpt>
      <trkpt lat="45.98685" lon="4.87573">
        <ele>267</ele>
        <time>2017-06-26T08:37:39Z</time>
      </trkpt>
      <trkpt lat="45.9869" lon="4.87571">
        <ele>267</ele>
        <time>2017-06-26T08:37:40Z</time>
      </trkpt>
      <trkpt lat="45.98695" lon="4.87569">
        <ele>267</ele>
        <time>2017-06-26T08:37:41Z</time>
      </trkpt>
      <trkpt lat="45.98703" lon="4.87566">
        <ele>267</ele>
        <time>2017-06-26T08:37:43Z</time>
      </trkpt>
      <trkpt lat="45.98708" lon="4.87564">
        <ele>267</ele>
        <time>2017-06-26T08:37:44Z</time>
      </trkpt>
      <trkpt lat="45.98716" lon="4.8756">
        <ele>267</ele>
        <time>2017-06-26T08:37:46Z</time>
      </trkpt>
      <trkpt lat="45.9872" lon="4.87559">
        <ele>267</ele>
        <time>2017-06-26T08:37:47Z</time>
      </trkpt>
      <trkpt lat="45.98729" lon="4.87558">
        <ele>267</ele>
        <time>2017-06-26T08:37:49Z</time>
      </trkpt>
      <trkpt lat="45.98733" lon="4.87558">
        <ele>267</ele>
        <time>2017-06-26T08:37:50Z</time>
      </trkpt>
      <trkpt lat="45.98737" lon="4.87558">
        <ele>267</ele>
        <time>2017-06-26T08:37:51Z</time>
      </trkpt>
      <trkpt lat="45.98743" lon="4.87557">
        <ele>267</ele>
        <time>2017-06-26T08:37:52Z</time>
      </trkpt>
      <trkpt lat="45.98748" lon="4.87559">
        <ele>267</ele>
        <time>2017-06-26T08:37:53Z</time>
      </trkpt>
      <trkpt lat="45.98752" lon="4.87561">
        <ele>269</ele>
        <time>2017-06-26T08:37:54Z</time>
      </trkpt>
      <trkpt lat="45.98758" lon="4.87564">
        <ele>269</ele>
        <time>2017-06-26T08:37:55Z</time>
      </trkpt>
      <trkpt lat="45.98763" lon="4.87567">
        <ele>269</ele>
        <time>2017-06-26T08:37:56Z</time>
      </trkpt>
      <trkpt lat="45.98767" lon="4.8757">
        <ele>269</ele>
        <time>2017-06-26T08:37:57Z</time>
      </trkpt>
      <trkpt lat="45.98772" lon="4.87573">
        <ele>269</ele>
        <time>2017-06-26T08:37:58Z</time>
      </trkpt>
      <trkpt lat="45.9878" lon="4.87579">
        <ele>269</ele>
        <time>2017-06-26T08:38:00Z</time>
      </trkpt>
      <trkpt lat="45.98783" lon="4.87582">
        <ele>269</ele>
        <time>2017-06-26T08:38:01Z</time>
      </trkpt>
      <trkpt lat="45.98787" lon="4.87588">
        <ele>271</ele>
        <time>2017-06-26T08:38:02Z</time>
      </trkpt>
      <trkpt lat="45.9879" lon="4.87595">
        <ele>271</ele>
        <time>2017-06-26T08:38:03Z</time>
      </trkpt>
      <trkpt lat="45.98793" lon="4.876">
        <ele>271</ele>
        <time>2017-06-26T08:38:04Z</time>
      </trkpt>
      <trkpt lat="45.98796" lon="4.87605">
        <ele>271</ele>
        <time>2017-06-26T08:38:05Z</time>
      </trkpt>
      <trkpt lat="45.988" lon="4.87612">
        <ele>271</ele>
        <time>2017-06-26T08:38:06Z</time>
      </trkpt>
      <trkpt lat="45.98802" lon="4.87618">
        <ele>271</ele>
        <time>2017-06-26T08:38:07Z</time>
      </trkpt>
      <trkpt lat="45.98805" lon="4.87626">
        <ele>271</ele>
        <time>2017-06-26T08:38:08Z</time>
      </trkpt>
      <trkpt lat="45.98807" lon="4.87633">
        <ele>271</ele>
        <time>2017-06-26T08:38:09Z</time>
      </trkpt>
      <trkpt lat="45.98809" lon="4.87639">
        <ele>272</ele>
        <time>2017-06-26T08:38:10Z</time>
      </trkpt>
      <trkpt lat="45.98811" lon="4.87646">
        <ele>272</ele>
        <time>2017-06-26T08:38:11Z</time>
      </trkpt>
      <trkpt lat="45.98814" lon="4.87652">
        <ele>272</ele>
        <time>2017-06-26T08:38:12Z</time>
      </trkpt>
      <trkpt lat="45.98816" lon="4.87659">
        <ele>272</ele>
        <time>2017-06-26T08:38:13Z</time>
      </trkpt>
      <trkpt lat="45.98818" lon="4.87666">
        <ele>272</ele>
        <time>2017-06-26T08:38:14Z</time>
      </trkpt>
      <trkpt lat="45.9882" lon="4.87672">
        <ele>273</ele>
        <time>2017-06-26T08:38:15Z</time>
      </trkpt>
      <trkpt lat="45.98821" lon="4.87679">
        <ele>273</ele>
        <time>2017-06-26T08:38:16Z</time>
      </trkpt>
      <trkpt lat="45.98823" lon="4.87686">
        <ele>273</ele>
        <time>2017-06-26T08:38:17Z</time>
      </trkpt>
      <trkpt lat="45.98825" lon="4.87692">
        <ele>273</ele>
        <time>2017-06-26T08:38:18Z</time>
      </trkpt>
      <trkpt lat="45.98826" lon="4.87698">
        <ele>273</ele>
        <time>2017-06-26T08:38:19Z</time>
      </trkpt>
      <trkpt lat="45.98827" lon="4.87706">
        <ele>273</ele>
        <time>2017-06-26T08:38:20Z</time>
      </trkpt>
      <trkpt lat="45.9883" lon="4.87713">
        <ele>274</ele>
        <time>2017-06-26T08:38:21Z</time>
      </trkpt>
      <trkpt lat="45.98832" lon="4.87721">
        <ele>274</ele>
        <time>2017-06-26T08:38:22Z</time>
      </trkpt>
      <trkpt lat="45.98835" lon="4.87728">
        <ele>273</ele>
        <time>2017-06-26T08:38:23Z</time>
      </trkpt>
      <trkpt lat="45.98837" lon="4.87736">
        <ele>273</ele>
        <time>2017-06-26T08:38:24Z</time>
      </trkpt>
      <trkpt lat="45.98839" lon="4.87744">
        <ele>273</ele>
        <time>2017-06-26T08:38:25Z</time>
      </trkpt>
      <trkpt lat="45.9884" lon="4.87751">
        <ele>273</ele>
        <time>2017-06-26T08:38:26Z</time>
      </trkpt>
      <trkpt lat="45.98841" lon="4.87759">
        <ele>273</ele>
        <time>2017-06-26T08:38:27Z</time>
      </trkpt>
      <trkpt lat="45.98842" lon="4.87766">
        <ele>273</ele>
        <time>2017-06-26T08:38:28Z</time>
      </trkpt>
      <trkpt lat="45.98844" lon="4.87772">
        <ele>273</ele>
        <time>2017-06-26T08:38:29Z</time>
      </trkpt>
      <trkpt lat="45.98846" lon="4.87779">
        <ele>273</ele>
        <time>2017-06-26T08:38:30Z</time>
      </trkpt>
      <trkpt lat="45.98848" lon="4.87785">
        <ele>273</ele>
        <time>2017-06-26T08:38:31Z</time>
      </trkpt>
      <trkpt lat="45.9885" lon="4.87791">
        <ele>273</ele>
        <time>2017-06-26T08:38:32Z</time>
      </trkpt>
      <trkpt lat="45.98853" lon="4.87797">
        <ele>273</ele>
        <time>2017-06-26T08:38:33Z</time>
      </trkpt>
      <trkpt lat="45.98855" lon="4.87802">
        <ele>273</ele>
        <time>2017-06-26T08:38:34Z</time>
      </trkpt>
      <trkpt lat="45.98858" lon="4.87808">
        <ele>273</ele>
        <time>2017-06-26T08:38:35Z</time>
      </trkpt>
      <trkpt lat="45.98862" lon="4.87819">
        <ele>273</ele>
        <time>2017-06-26T08:38:37Z</time>
      </trkpt>
      <trkpt lat="45.98865" lon="4.87823">
        <ele>273</ele>
        <time>2017-06-26T08:38:38Z</time>
      </trkpt>
      <trkpt lat="45.98869" lon="4.87834">
        <ele>273</ele>
        <time>2017-06-26T08:38:40Z</time>
      </trkpt>
      <trkpt lat="45.98871" lon="4.87839">
        <ele>273</ele>
        <time>2017-06-26T08:38:41Z</time>
      </trkpt>
      <trkpt lat="45.98875" lon="4.87845">
        <ele>272</ele>
        <time>2017-06-26T08:38:42Z</time>
      </trkpt>
      <trkpt lat="45.98878" lon="4.87851">
        <ele>272</ele>
        <time>2017-06-26T08:38:43Z</time>
      </trkpt>
      <trkpt lat="45.98882" lon="4.87856">
        <ele>272</ele>
        <time>2017-06-26T08:38:44Z</time>
      </trkpt>
      <trkpt lat="45.98885" lon="4.8786">
        <ele>272</ele>
        <time>2017-06-26T08:38:45Z</time>
      </trkpt>
      <trkpt lat="45.98889" lon="4.87868">
        <ele>272</ele>
        <time>2017-06-26T08:38:47Z</time>
      </trkpt>
      <trkpt lat="45.98892" lon="4.87872">
        <ele>272</ele>
        <time>2017-06-26T08:38:48Z</time>
      </trkpt>
      <trkpt lat="45.98895" lon="4.87877">
        <ele>272</ele>
        <time>2017-06-26T08:38:49Z</time>
      </trkpt>
      <trkpt lat="45.98899" lon="4.87882">
        <ele>272</ele>
        <time>2017-06-26T08:38:50Z</time>
      </trkpt>
      <trkpt lat="45.98902" lon="4.87888">
        <ele>272</ele>
        <time>2017-06-26T08:38:51Z</time>
      </trkpt>
      <trkpt lat="45.98904" lon="4.87893">
        <ele>272</ele>
        <time>2017-06-26T08:38:52Z</time>
      </trkpt>
      <trkpt lat="45.98908" lon="4.87897">
        <ele>272</ele>
        <time>2017-06-26T08:38:53Z</time>
      </trkpt>
      <trkpt lat="45.98911" lon="4.87905">
        <ele>272</ele>
        <time>2017-06-26T08:38:54Z</time>
      </trkpt>
      <trkpt lat="45.98916" lon="4.87909">
        <ele>271</ele>
        <time>2017-06-26T08:38:55Z</time>
      </trkpt>
      <trkpt lat="45.98919" lon="4.87914">
        <ele>272</ele>
        <time>2017-06-26T08:38:56Z</time>
      </trkpt>
      <trkpt lat="45.98925" lon="4.87921">
        <ele>272</ele>
        <time>2017-06-26T08:38:58Z</time>
      </trkpt>
      <trkpt lat="45.98929" lon="4.87923">
        <ele>272</ele>
        <time>2017-06-26T08:38:59Z</time>
      </trkpt>
      <trkpt lat="45.98936" lon="4.87929">
        <ele>272</ele>
        <time>2017-06-26T08:39:01Z</time>
      </trkpt>
      <trkpt lat="45.9894" lon="4.87932">
        <ele>273</ele>
        <time>2017-06-26T08:39:02Z</time>
      </trkpt>
      <trkpt lat="45.98948" lon="4.87937">
        <ele>273</ele>
        <time>2017-06-26T08:39:04Z</time>
      </trkpt>
      <trkpt lat="45.98952" lon="4.87938">
        <ele>273</ele>
        <time>2017-06-26T08:39:05Z</time>
      </trkpt>
      <trkpt lat="45.98956" lon="4.87939">
        <ele>273</ele>
        <time>2017-06-26T08:39:06Z</time>
      </trkpt>
      <trkpt lat="45.9896" lon="4.87942">
        <ele>273</ele>
        <time>2017-06-26T08:39:07Z</time>
      </trkpt>
      <trkpt lat="45.98965" lon="4.87944">
        <ele>273</ele>
        <time>2017-06-26T08:39:08Z</time>
      </trkpt>
      <trkpt lat="45.98969" lon="4.87946">
        <ele>274</ele>
        <time>2017-06-26T08:39:09Z</time>
      </trkpt>
      <trkpt lat="45.98977" lon="4.8795">
        <ele>274</ele>
        <time>2017-06-26T08:39:11Z</time>
      </trkpt>
      <trkpt lat="45.9898" lon="4.87953">
        <ele>274</ele>
        <time>2017-06-26T08:39:12Z</time>
      </trkpt>
      <trkpt lat="45.98987" lon="4.87956">
        <ele>274</ele>
        <time>2017-06-26T08:39:14Z</time>
      </trkpt>
      <trkpt lat="45.98991" lon="4.87957">
        <ele>274</ele>
        <time>2017-06-26T08:39:15Z</time>
      </trkpt>
      <trkpt lat="45.98997" lon="4.87961">
        <ele>274</ele>
        <time>2017-06-26T08:39:17Z</time>
      </trkpt>
      <trkpt lat="45.98999" lon="4.87962">
        <ele>274</ele>
        <time>2017-06-26T08:39:18Z</time>
      </trkpt>
      <trkpt lat="45.99005" lon="4.87965">
        <ele>276</ele>
        <time>2017-06-26T08:39:20Z</time>
      </trkpt>
      <trkpt lat="45.99008" lon="4.87966">
        <ele>276</ele>
        <time>2017-06-26T08:39:21Z</time>
      </trkpt>
      <trkpt lat="45.99014" lon="4.87969">
        <ele>276</ele>
        <time>2017-06-26T08:39:23Z</time>
      </trkpt>
      <trkpt lat="45.99017" lon="4.87971">
        <ele>276</ele>
        <time>2017-06-26T08:39:24Z</time>
      </trkpt>
      <trkpt lat="45.99023" lon="4.87976">
        <ele>276</ele>
        <time>2017-06-26T08:39:26Z</time>
      </trkpt>
      <trkpt lat="45.99026" lon="4.87979">
        <ele>276</ele>
        <time>2017-06-26T08:39:27Z</time>
      </trkpt>
      <trkpt lat="45.99033" lon="4.87984">
        <ele>276</ele>
        <time>2017-06-26T08:39:29Z</time>
      </trkpt>
      <trkpt lat="45.99036" lon="4.87986">
        <ele>276</ele>
        <time>2017-06-26T08:39:30Z</time>
      </trkpt>
      <trkpt lat="45.99043" lon="4.87991">
        <ele>277</ele>
        <time>2017-06-26T08:39:32Z</time>
      </trkpt>
      <trkpt lat="45.99047" lon="4.87992">
        <ele>277</ele>
        <time>2017-06-26T08:39:33Z</time>
      </trkpt>
      <trkpt lat="45.99054" lon="4.87996">
        <ele>277</ele>
        <time>2017-06-26T08:39:35Z</time>
      </trkpt>
      <trkpt lat="45.99058" lon="4.87998">
        <ele>277</ele>
        <time>2017-06-26T08:39:36Z</time>
      </trkpt>
      <trkpt lat="45.99064" lon="4.88002">
        <ele>277</ele>
        <time>2017-06-26T08:39:38Z</time>
      </trkpt>
      <trkpt lat="45.99068" lon="4.88003">
        <ele>277</ele>
        <time>2017-06-26T08:39:39Z</time>
      </trkpt>
      <trkpt lat="45.99075" lon="4.88007">
        <ele>278</ele>
        <time>2017-06-26T08:39:41Z</time>
      </trkpt>
      <trkpt lat="45.99079" lon="4.8801">
        <ele>278</ele>
        <time>2017-06-26T08:39:42Z</time>
      </trkpt>
      <trkpt lat="45.99086" lon="4.88013">
        <ele>278</ele>
        <time>2017-06-26T08:39:44Z</time>
      </trkpt>
      <trkpt lat="45.99089" lon="4.88015">
        <ele>278</ele>
        <time>2017-06-26T08:39:45Z</time>
      </trkpt>
      <trkpt lat="45.99096" lon="4.88018">
        <ele>278</ele>
        <time>2017-06-26T08:39:47Z</time>
      </trkpt>
      <trkpt lat="45.99099" lon="4.8802">
        <ele>278</ele>
        <time>2017-06-26T08:39:48Z</time>
      </trkpt>
      <trkpt lat="45.99105" lon="4.88023">
        <ele>278</ele>
        <time>2017-06-26T08:39:50Z</time>
      </trkpt>
      <trkpt lat="45.99108" lon="4.88024">
        <ele>278</ele>
        <time>2017-06-26T08:39:51Z</time>
      </trkpt>
      <trkpt lat="45.99114" lon="4.88027">
        <ele>278</ele>
        <time>2017-06-26T08:39:53Z</time>
      </trkpt>
      <trkpt lat="45.99118" lon="4.88029">
        <ele>278</ele>
        <time>2017-06-26T08:39:54Z</time>
      </trkpt>
      <trkpt lat="45.99124" lon="4.88033">
        <ele>278</ele>
        <time>2017-06-26T08:39:56Z</time>
      </trkpt>
      <trkpt lat="45.99127" lon="4.88034">
        <ele>279</ele>
        <time>2017-06-26T08:39:57Z</time>
      </trkpt>
      <trkpt lat="45.99133" lon="4.88038">
        <ele>279</ele>
        <time>2017-06-26T08:39:59Z</time>
      </trkpt>
      <trkpt lat="45.99136" lon="4.8804">
        <ele>279</ele>
        <time>2017-06-26T08:40:00Z</time>
      </trkpt>
      <trkpt lat="45.99142" lon="4.88044">
        <ele>279</ele>
        <time>2017-06-26T08:40:02Z</time>
      </trkpt>
      <trkpt lat="45.99145" lon="4.88046">
        <ele>279</ele>
        <time>2017-06-26T08:40:03Z</time>
      </trkpt>
      <trkpt lat="45.99151" lon="4.88049">
        <ele>279</ele>
        <time>2017-06-26T08:40:05Z</time>
      </trkpt>
      <trkpt lat="45.99154" lon="4.88052">
        <ele>279</ele>
        <time>2017-06-26T08:40:06Z</time>
      </trkpt>
      <trkpt lat="45.9916" lon="4.88056">
        <ele>279</ele>
        <time>2017-06-26T08:40:08Z</time>
      </trkpt>
      <trkpt lat="45.99163" lon="4.88058">
        <ele>279</ele>
        <time>2017-06-26T08:40:09Z</time>
      </trkpt>
      <trkpt lat="45.99169" lon="4.88062">
        <ele>279</ele>
        <time>2017-06-26T08:40:11Z</time>
      </trkpt>
      <trkpt lat="45.99171" lon="4.88065">
        <ele>279</ele>
        <time>2017-06-26T08:40:12Z</time>
      </trkpt>
      <trkpt lat="45.99177" lon="4.88069">
        <ele>279</ele>
        <time>2017-06-26T08:40:14Z</time>
      </trkpt>
      <trkpt lat="45.9918" lon="4.88072">
        <ele>279</ele>
        <time>2017-06-26T08:40:15Z</time>
      </trkpt>
      <trkpt lat="45.99187" lon="4.88077">
        <ele>279</ele>
        <time>2017-06-26T08:40:17Z</time>
      </trkpt>
      <trkpt lat="45.9919" lon="4.8808">
        <ele>280</ele>
        <time>2017-06-26T08:40:18Z</time>
      </trkpt>
      <trkpt lat="45.99196" lon="4.88085">
        <ele>280</ele>
        <time>2017-06-26T08:40:20Z</time>
      </trkpt>
      <trkpt lat="45.99199" lon="4.88087">
        <ele>280</ele>
        <time>2017-06-26T08:40:21Z</time>
      </trkpt>
      <trkpt lat="45.99205" lon="4.88092">
        <ele>280</ele>
        <time>2017-06-26T08:40:23Z</time>
      </trkpt>
      <trkpt lat="45.99208" lon="4.88095">
        <ele>280</ele>
        <time>2017-06-26T08:40:24Z</time>
      </trkpt>
      <trkpt lat="45.99213" lon="4.881">
        <ele>280</ele>
        <time>2017-06-26T08:40:26Z</time>
      </trkpt>
      <trkpt lat="45.99216" lon="4.88102">
        <ele>280</ele>
        <time>2017-06-26T08:40:27Z</time>
      </trkpt>
      <trkpt lat="45.99223" lon="4.88108">
        <ele>280</ele>
        <time>2017-06-26T08:40:29Z</time>
      </trkpt>
      <trkpt lat="45.99227" lon="4.88111">
        <ele>280</ele>
        <time>2017-06-26T08:40:30Z</time>
      </trkpt>
      <trkpt lat="45.99234" lon="4.88117">
        <ele>280</ele>
        <time>2017-06-26T08:40:32Z</time>
      </trkpt>
      <trkpt lat="45.99237" lon="4.8812">
        <ele>280</ele>
        <time>2017-06-26T08:40:33Z</time>
      </trkpt>
      <trkpt lat="45.99244" lon="4.88127">
        <ele>280</ele>
        <time>2017-06-26T08:40:35Z</time>
      </trkpt>
      <trkpt lat="45.99248" lon="4.8813">
        <ele>280</ele>
        <time>2017-06-26T08:40:36Z</time>
      </trkpt>
      <trkpt lat="45.99255" lon="4.88136">
        <ele>283</ele>
        <time>2017-06-26T08:40:38Z</time>
      </trkpt>
      <trkpt lat="45.99259" lon="4.88139">
        <ele>283</ele>
        <time>2017-06-26T08:40:39Z</time>
      </trkpt>
      <trkpt lat="45.99266" lon="4.88145">
        <ele>283</ele>
        <time>2017-06-26T08:40:41Z</time>
      </trkpt>
      <trkpt lat="45.99269" lon="4.88148">
        <ele>283</ele>
        <time>2017-06-26T08:40:42Z</time>
      </trkpt>
      <trkpt lat="45.99276" lon="4.88155">
        <ele>283</ele>
        <time>2017-06-26T08:40:44Z</time>
      </trkpt>
      <trkpt lat="45.9928" lon="4.88158">
        <ele>283</ele>
        <time>2017-06-26T08:40:45Z</time>
      </trkpt>
      <trkpt lat="45.99288" lon="4.88165">
        <ele>284</ele>
        <time>2017-06-26T08:40:47Z</time>
      </trkpt>
      <trkpt lat="45.99291" lon="4.88168">
        <ele>284</ele>
        <time>2017-06-26T08:40:48Z</time>
      </trkpt>
      <trkpt lat="45.99295" lon="4.88172">
        <ele>284</ele>
        <time>2017-06-26T08:40:49Z</time>
      </trkpt>
      <trkpt lat="45.99299" lon="4.88175">
        <ele>284</ele>
        <time>2017-06-26T08:40:50Z</time>
      </trkpt>
      <trkpt lat="45.99303" lon="4.88179">
        <ele>285</ele>
        <time>2017-06-26T08:40:51Z</time>
      </trkpt>
      <trkpt lat="45.99307" lon="4.88182">
        <ele>285</ele>
        <time>2017-06-26T08:40:52Z</time>
      </trkpt>
      <trkpt lat="45.99311" lon="4.88186">
        <ele>285</ele>
        <time>2017-06-26T08:40:53Z</time>
      </trkpt>
      <trkpt lat="45.99315" lon="4.88189">
        <ele>285</ele>
        <time>2017-06-26T08:40:54Z</time>
      </trkpt>
      <trkpt lat="45.99319" lon="4.88193">
        <ele>285</ele>
        <time>2017-06-26T08:40:55Z</time>
      </trkpt>
      <trkpt lat="45.99323" lon="4.88197">
        <ele>285</ele>
        <time>2017-06-26T08:40:56Z</time>
      </trkpt>
      <trkpt lat="45.99327" lon="4.882">
        <ele>285</ele>
        <time>2017-06-26T08:40:57Z</time>
      </trkpt>
      <trkpt lat="45.99331" lon="4.88204">
        <ele>285</ele>
        <time>2017-06-26T08:40:58Z</time>
      </trkpt>
      <trkpt lat="45.99335" lon="4.88207">
        <ele>287</ele>
        <time>2017-06-26T08:40:59Z</time>
      </trkpt>
      <trkpt lat="45.99339" lon="4.88211">
        <ele>287</ele>
        <time>2017-06-26T08:41:00Z</time>
      </trkpt>
      <trkpt lat="45.99343" lon="4.88214">
        <ele>287</ele>
        <time>2017-06-26T08:41:01Z</time>
      </trkpt>
      <trkpt lat="45.99347" lon="4.88218">
        <ele>287</ele>
        <time>2017-06-26T08:41:02Z</time>
      </trkpt>
      <trkpt lat="45.99351" lon="4.88222">
        <ele>287</ele>
        <time>2017-06-26T08:41:03Z</time>
      </trkpt>
      <trkpt lat="45.99355" lon="4.88225">
        <ele>287</ele>
        <time>2017-06-26T08:41:04Z</time>
      </trkpt>
      <trkpt lat="45.99362" lon="4.88232">
        <ele>287</ele>
        <time>2017-06-26T08:41:06Z</time>
      </trkpt>
      <trkpt lat="45.99365" lon="4.88236">
        <ele>287</ele>
        <time>2017-06-26T08:41:07Z</time>
      </trkpt>
      <trkpt lat="45.99371" lon="4.88243">
        <ele>287</ele>
        <time>2017-06-26T08:41:09Z</time>
      </trkpt>
      <trkpt lat="45.99373" lon="4.88246">
        <ele>287</ele>
        <time>2017-06-26T08:41:10Z</time>
      </trkpt>
      <trkpt lat="45.99379" lon="4.88255">
        <ele>285</ele>
        <time>2017-06-26T08:41:12Z</time>
      </trkpt>
      <trkpt lat="45.99381" lon="4.88259">
        <ele>285</ele>
        <time>2017-06-26T08:41:13Z</time>
      </trkpt>
      <trkpt lat="45.99386" lon="4.88269">
        <ele>285</ele>
        <time>2017-06-26T08:41:15Z</time>
      </trkpt>
      <trkpt lat="45.99388" lon="4.88274">
        <ele>284</ele>
        <time>2017-06-26T08:41:16Z</time>
      </trkpt>
      <trkpt lat="45.99392" lon="4.88284">
        <ele>284</ele>
        <time>2017-06-26T08:41:18Z</time>
      </trkpt>
      <trkpt lat="45.99394" lon="4.8829">
        <ele>284</ele>
        <time>2017-06-26T08:41:19Z</time>
      </trkpt>
      <trkpt lat="45.99398" lon="4.88301">
        <ele>284</ele>
        <time>2017-06-26T08:41:21Z</time>
      </trkpt>
      <trkpt lat="45.994" lon="4.88306">
        <ele>284</ele>
        <time>2017-06-26T08:41:22Z</time>
      </trkpt>
      <trkpt lat="45.99404" lon="4.88316">
        <ele>283</ele>
        <time>2017-06-26T08:41:24Z</time>
      </trkpt>
      <trkpt lat="45.99406" lon="4.88321">
        <ele>283</ele>
        <time>2017-06-26T08:41:25Z</time>
      </trkpt>
      <trkpt lat="45.9941" lon="4.8833">
        <ele>283</ele>
        <time>2017-06-26T08:41:27Z</time>
      </trkpt>
      <trkpt lat="45.99412" lon="4.88334">
        <ele>282</ele>
        <time>2017-06-26T08:41:28Z</time>
      </trkpt>
      <trkpt lat="45.99414" lon="4.88342">
        <ele>282</ele>
        <time>2017-06-26T08:41:30Z</time>
      </trkpt>
      <trkpt lat="45.99416" lon="4.88346">
        <ele>282</ele>
        <time>2017-06-26T08:41:31Z</time>
      </trkpt>
      <trkpt lat="45.9942" lon="4.88356">
        <ele>283</ele>
        <time>2017-06-26T08:41:33Z</time>
      </trkpt>
      <trkpt lat="45.99422" lon="4.88361">
        <ele>283</ele>
        <time>2017-06-26T08:41:34Z</time>
      </trkpt>
      <trkpt lat="45.99425" lon="4.88371">
        <ele>283</ele>
        <time>2017-06-26T08:41:36Z</time>
      </trkpt>
      <trkpt lat="45.99427" lon="4.88377">
        <ele>283</ele>
        <time>2017-06-26T08:41:37Z</time>
      </trkpt>
      <trkpt lat="45.99432" lon="4.88387">
        <ele>283</ele>
        <time>2017-06-26T08:41:39Z</time>
      </trkpt>
      <trkpt lat="45.99434" lon="4.88393">
        <ele>283</ele>
        <time>2017-06-26T08:41:40Z</time>
      </trkpt>
      <trkpt lat="45.99437" lon="4.88398">
        <ele>283</ele>
        <time>2017-06-26T08:41:41Z</time>
      </trkpt>
      <trkpt lat="45.9944" lon="4.88403">
        <ele>283</ele>
        <time>2017-06-26T08:41:42Z</time>
      </trkpt>
      <trkpt lat="45.99443" lon="4.88407">
        <ele>283</ele>
        <time>2017-06-26T08:41:43Z</time>
      </trkpt>
      <trkpt lat="45.99447" lon="4.88411">
        <ele>283</ele>
        <time>2017-06-26T08:41:44Z</time>
      </trkpt>
      <trkpt lat="45.99455" lon="4.88418">
        <ele>283</ele>
        <time>2017-06-26T08:41:46Z</time>
      </trkpt>
      <trkpt lat="45.99458" lon="4.8842">
        <ele>283</ele>
        <time>2017-06-26T08:41:47Z</time>
      </trkpt>
      <trkpt lat="45.99466" lon="4.88426">
        <ele>284</ele>
        <time>2017-06-26T08:41:49Z</time>
      </trkpt>
      <trkpt lat="45.99469" lon="4.88429">
        <ele>284</ele>
        <time>2017-06-26T08:41:50Z</time>
      </trkpt>
      <trkpt lat="45.99474" lon="4.88436">
        <ele>284</ele>
        <time>2017-06-26T08:41:52Z</time>
      </trkpt>
      <trkpt lat="45.99477" lon="4.8844">
        <ele>284</ele>
        <time>2017-06-26T08:41:53Z</time>
      </trkpt>
      <trkpt lat="45.99483" lon="4.88449">
        <ele>284</ele>
        <time>2017-06-26T08:41:55Z</time>
      </trkpt>
      <trkpt lat="45.99486" lon="4.88453">
        <ele>284</ele>
        <time>2017-06-26T08:41:56Z</time>
      </trkpt>
      <trkpt lat="45.99491" lon="4.88463">
        <ele>284</ele>
        <time>2017-06-26T08:41:58Z</time>
      </trkpt>
      <trkpt lat="45.99494" lon="4.88468">
        <ele>284</ele>
        <time>2017-06-26T08:41:59Z</time>
      </trkpt>
      <trkpt lat="45.99499" lon="4.88478">
        <ele>284</ele>
        <time>2017-06-26T08:42:01Z</time>
      </trkpt>
      <trkpt lat="45.99502" lon="4.88484">
        <ele>284</ele>
        <time>2017-06-26T08:42:02Z</time>
      </trkpt>
      <trkpt lat="45.99507" lon="4.88494">
        <ele>284</ele>
        <time>2017-06-26T08:42:04Z</time>
      </trkpt>
      <trkpt lat="45.9951" lon="4.88499">
        <ele>284</ele>
        <time>2017-06-26T08:42:05Z</time>
      </trkpt>
      <trkpt lat="45.99513" lon="4.88505">
        <ele>285</ele>
        <time>2017-06-26T08:42:06Z</time>
      </trkpt>
      <trkpt lat="45.99516" lon="4.88511">
        <ele>285</ele>
        <time>2017-06-26T08:42:07Z</time>
      </trkpt>
      <trkpt lat="45.99518" lon="4.88517">
        <ele>285</ele>
        <time>2017-06-26T08:42:08Z</time>
      </trkpt>
      <trkpt lat="45.99521" lon="4.88522">
        <ele>285</ele>
        <time>2017-06-26T08:42:09Z</time>
      </trkpt>
      <trkpt lat="45.99526" lon="4.88533">
        <ele>285</ele>
        <time>2017-06-26T08:42:11Z</time>
      </trkpt>
      <trkpt lat="45.99528" lon="4.88538">
        <ele>285</ele>
        <time>2017-06-26T08:42:12Z</time>
      </trkpt>
      <trkpt lat="45.99533" lon="4.88546">
        <ele>285</ele>
        <time>2017-06-26T08:42:14Z</time>
      </trkpt>
      <trkpt lat="45.99535" lon="4.88551">
        <ele>285</ele>
        <time>2017-06-26T08:42:15Z</time>
      </trkpt>
      <trkpt lat="45.99538" lon="4.8856">
        <ele>285</ele>
        <time>2017-06-26T08:42:17Z</time>
      </trkpt>
      <trkpt lat="45.9954" lon="4.88565">
        <ele>285</ele>
        <time>2017-06-26T08:42:18Z</time>
      </trkpt>
      <trkpt lat="45.99542" lon="4.88571">
        <ele>285</ele>
        <time>2017-06-26T08:42:19Z</time>
      </trkpt>
      <trkpt lat="45.99544" lon="4.88577">
        <ele>286</ele>
        <time>2017-06-26T08:42:20Z</time>
      </trkpt>
      <trkpt lat="45.99545" lon="4.88584">
        <ele>286</ele>
        <time>2017-06-26T08:42:21Z</time>
      </trkpt>
      <trkpt lat="45.99546" lon="4.88591">
        <ele>286</ele>
        <time>2017-06-26T08:42:22Z</time>
      </trkpt>
      <trkpt lat="45.99547" lon="4.88597">
        <ele>286</ele>
        <time>2017-06-26T08:42:23Z</time>
      </trkpt>
      <trkpt lat="45.99548" lon="4.88603">
        <ele>286</ele>
        <time>2017-06-26T08:42:24Z</time>
      </trkpt>
      <trkpt lat="45.9955" lon="4.88615">
        <ele>286</ele>
        <time>2017-06-26T08:42:26Z</time>
      </trkpt>
      <trkpt lat="45.9955" lon="4.8862">
        <ele>286</ele>
        <time>2017-06-26T08:42:27Z</time>
      </trkpt>
      <trkpt lat="45.99551" lon="4.88631">
        <ele>286</ele>
        <time>2017-06-26T08:42:29Z</time>
      </trkpt>
      <trkpt lat="45.99552" lon="4.88638">
        <ele>286</ele>
        <time>2017-06-26T08:42:30Z</time>
      </trkpt>
      <trkpt lat="45.99553" lon="4.88645">
        <ele>286</ele>
        <time>2017-06-26T08:42:31Z</time>
      </trkpt>
      <trkpt lat="45.99553" lon="4.88652">
        <ele>286</ele>
        <time>2017-06-26T08:42:32Z</time>
      </trkpt>
      <trkpt lat="45.99554" lon="4.88658">
        <ele>286</ele>
        <time>2017-06-26T08:42:33Z</time>
      </trkpt>
      <trkpt lat="45.99555" lon="4.88665">
        <ele>286</ele>
        <time>2017-06-26T08:42:34Z</time>
      </trkpt>
      <trkpt lat="45.99556" lon="4.88673">
        <ele>286</ele>
        <time>2017-06-26T08:42:35Z</time>
      </trkpt>
      <trkpt lat="45.99557" lon="4.8868">
        <ele>286</ele>
        <time>2017-06-26T08:42:36Z</time>
      </trkpt>
      <trkpt lat="45.99558" lon="4.88687">
        <ele>286</ele>
        <time>2017-06-26T08:42:37Z</time>
      </trkpt>
      <trkpt lat="45.99559" lon="4.88693">
        <ele>286</ele>
        <time>2017-06-26T08:42:38Z</time>
      </trkpt>
      <trkpt lat="45.99559" lon="4.887">
        <ele>286</ele>
        <time>2017-06-26T08:42:39Z</time>
      </trkpt>
      <trkpt lat="45.9956" lon="4.88706">
        <ele>286</ele>
        <time>2017-06-26T08:42:40Z</time>
      </trkpt>
      <trkpt lat="45.99561" lon="4.88719">
        <ele>286</ele>
        <time>2017-06-26T08:42:42Z</time>
      </trkpt>
      <trkpt lat="45.99562" lon="4.88724">
        <ele>286</ele>
        <time>2017-06-26T08:42:43Z</time>
      </trkpt>
      <trkpt lat="45.99563" lon="4.88736">
        <ele>287</ele>
        <time>2017-06-26T08:42:45Z</time>
      </trkpt>
      <trkpt lat="45.99564" lon="4.88742">
        <ele>287</ele>
        <time>2017-06-26T08:42:46Z</time>
      </trkpt>
      <trkpt lat="45.99564" lon="4.88748">
        <ele>287</ele>
        <time>2017-06-26T08:42:47Z</time>
      </trkpt>
      <trkpt lat="45.99565" lon="4.88755">
        <ele>287</ele>
        <time>2017-06-26T08:42:48Z</time>
      </trkpt>
      <trkpt lat="45.99566" lon="4.88762">
        <ele>287</ele>
        <time>2017-06-26T08:42:49Z</time>
      </trkpt>
      <trkpt lat="45.99567" lon="4.8877">
        <ele>287</ele>
        <time>2017-06-26T08:42:50Z</time>
      </trkpt>
      <trkpt lat="45.99568" lon="4.88777">
        <ele>287</ele>
        <time>2017-06-26T08:42:51Z</time>
      </trkpt>
      <trkpt lat="45.99568" lon="4.88784">
        <ele>287</ele>
        <time>2017-06-26T08:42:52Z</time>
      </trkpt>
      <trkpt lat="45.9957" lon="4.88796">
        <ele>287</ele>
        <time>2017-06-26T08:42:54Z</time>
      </trkpt>
      <trkpt lat="45.99571" lon="4.88802">
        <ele>287</ele>
        <time>2017-06-26T08:42:55Z</time>
      </trkpt>
      <trkpt lat="45.99572" lon="4.88813">
        <ele>287</ele>
        <time>2017-06-26T08:42:57Z</time>
      </trkpt>
      <trkpt lat="45.99572" lon="4.88819">
        <ele>287</ele>
        <time>2017-06-26T08:42:58Z</time>
      </trkpt>
      <trkpt lat="45.99574" lon="4.88831">
        <ele>287</ele>
        <time>2017-06-26T08:43:00Z</time>
      </trkpt>
      <trkpt lat="45.99574" lon="4.88836">
        <ele>287</ele>
        <time>2017-06-26T08:43:01Z</time>
      </trkpt>
      <trkpt lat="45.99575" lon="4.88846">
        <ele>287</ele>
        <time>2017-06-26T08:43:03Z</time>
      </trkpt>
      <trkpt lat="45.99576" lon="4.88851">
        <ele>287</ele>
        <time>2017-06-26T08:43:04Z</time>
      </trkpt>
      <trkpt lat="45.99578" lon="4.88861">
        <ele>287</ele>
        <time>2017-06-26T08:43:06Z</time>
      </trkpt>
      <trkpt lat="45.99578" lon="4.88866">
        <ele>287</ele>
        <time>2017-06-26T08:43:07Z</time>
      </trkpt>
      <trkpt lat="45.9958" lon="4.88878">
        <ele>287</ele>
        <time>2017-06-26T08:43:09Z</time>
      </trkpt>
      <trkpt lat="45.9958" lon="4.88884">
        <ele>287</ele>
        <time>2017-06-26T08:43:10Z</time>
      </trkpt>
      <trkpt lat="45.99581" lon="4.88896">
        <ele>287</ele>
        <time>2017-06-26T08:43:12Z</time>
      </trkpt>
      <trkpt lat="45.99582" lon="4.88903">
        <ele>287</ele>
        <time>2017-06-26T08:43:13Z</time>
      </trkpt>
      <trkpt lat="45.99582" lon="4.8891">
        <ele>287</ele>
        <time>2017-06-26T08:43:14Z</time>
      </trkpt>
      <trkpt lat="45.99583" lon="4.88917">
        <ele>287</ele>
        <time>2017-06-26T08:43:15Z</time>
      </trkpt>
      <trkpt lat="45.99583" lon="4.88924">
        <ele>287</ele>
        <time>2017-06-26T08:43:16Z</time>
      </trkpt>
      <trkpt lat="45.99583" lon="4.88932">
        <ele>287</ele>
        <time>2017-06-26T08:43:17Z</time>
      </trkpt>
      <trkpt lat="45.99584" lon="4.88939">
        <ele>287</ele>
        <time>2017-06-26T08:43:18Z</time>
      </trkpt>
      <trkpt lat="45.99585" lon="4.88946">
        <ele>287</ele>
        <time>2017-06-26T08:43:19Z</time>
      </trkpt>
      <trkpt lat="45.99586" lon="4.88953">
        <ele>287</ele>
        <time>2017-06-26T08:43:20Z</time>
      </trkpt>
      <trkpt lat="45.99587" lon="4.8896">
        <ele>288</ele>
        <time>2017-06-26T08:43:21Z</time>
      </trkpt>
      <trkpt lat="45.99587" lon="4.88972">
        <ele>288</ele>
        <time>2017-06-26T08:43:23Z</time>
      </trkpt>
      <trkpt lat="45.99588" lon="4.88978">
        <ele>288</ele>
        <time>2017-06-26T08:43:24Z</time>
      </trkpt>
      <trkpt lat="45.99589" lon="4.8899">
        <ele>288</ele>
        <time>2017-06-26T08:43:26Z</time>
      </trkpt>
      <trkpt lat="45.9959" lon="4.88995">
        <ele>288</ele>
        <time>2017-06-26T08:43:27Z</time>
      </trkpt>
      <trkpt lat="45.99591" lon="4.89007">
        <ele>288</ele>
        <time>2017-06-26T08:43:29Z</time>
      </trkpt>
      <trkpt lat="45.99591" lon="4.89014">
        <ele>288</ele>
        <time>2017-06-26T08:43:30Z</time>
      </trkpt>
      <trkpt lat="45.9959" lon="4.89021">
        <ele>288</ele>
        <time>2017-06-26T08:43:31Z</time>
      </trkpt>
      <trkpt lat="45.9959" lon="4.89028">
        <ele>289</ele>
        <time>2017-06-26T08:43:32Z</time>
      </trkpt>
      <trkpt lat="45.99589" lon="4.8904">
        <ele>289</ele>
        <time>2017-06-26T08:43:34Z</time>
      </trkpt>
      <trkpt lat="45.99588" lon="4.89046">
        <ele>289</ele>
        <time>2017-06-26T08:43:35Z</time>
      </trkpt>
      <trkpt lat="45.99588" lon="4.89058">
        <ele>289</ele>
        <time>2017-06-26T08:43:37Z</time>
      </trkpt>
      <trkpt lat="45.99587" lon="4.89063">
        <ele>289</ele>
        <time>2017-06-26T08:43:38Z</time>
      </trkpt>
      <trkpt lat="45.99585" lon="4.89074">
        <ele>289</ele>
        <time>2017-06-26T08:43:40Z</time>
      </trkpt>
      <trkpt lat="45.99584" lon="4.8908">
        <ele>289</ele>
        <time>2017-06-26T08:43:41Z</time>
      </trkpt>
      <trkpt lat="45.99584" lon="4.89087">
        <ele>289</ele>
        <time>2017-06-26T08:43:42Z</time>
      </trkpt>
      <trkpt lat="45.99583" lon="4.89094">
        <ele>289</ele>
        <time>2017-06-26T08:43:43Z</time>
      </trkpt>
      <trkpt lat="45.99582" lon="4.89101">
        <ele>289</ele>
        <time>2017-06-26T08:43:44Z</time>
      </trkpt>
      <trkpt lat="45.99582" lon="4.89108">
        <ele>289</ele>
        <time>2017-06-26T08:43:45Z</time>
      </trkpt>
      <trkpt lat="45.99582" lon="4.8912">
        <ele>289</ele>
        <time>2017-06-26T08:43:47Z</time>
      </trkpt>
      <trkpt lat="45.99582" lon="4.89126">
        <ele>289</ele>
        <time>2017-06-26T08:43:48Z</time>
      </trkpt>
      <trkpt lat="45.99582" lon="4.89138">
        <ele>289</ele>
        <time>2017-06-26T08:43:50Z</time>
      </trkpt>
      <trkpt lat="45.99582" lon="4.89143">
        <ele>289</ele>
        <time>2017-06-26T08:43:51Z</time>
      </trkpt>
      <trkpt lat="45.99582" lon="4.89155">
        <ele>288</ele>
        <time>2017-06-26T08:43:53Z</time>
      </trkpt>
      <trkpt lat="45.99582" lon="4.89161">
        <ele>288</ele>
        <time>2017-06-26T08:43:54Z</time>
      </trkpt>
      <trkpt lat="45.99582" lon="4.89173">
        <ele>288</ele>
        <time>2017-06-26T08:43:56Z</time>
      </trkpt>
      <trkpt lat="45.99582" lon="4.8918">
        <ele>288</ele>
        <time>2017-06-26T08:43:57Z</time>
      </trkpt>
      <trkpt lat="45.99582" lon="4.89187">
        <ele>288</ele>
        <time>2017-06-26T08:43:58Z</time>
      </trkpt>
      <trkpt lat="45.99582" lon="4.89194">
        <ele>288</ele>
        <time>2017-06-26T08:43:59Z</time>
      </trkpt>
      <trkpt lat="45.99583" lon="4.892">
        <ele>288</ele>
        <time>2017-06-26T08:44:00Z</time>
      </trkpt>
      <trkpt lat="45.99584" lon="4.89207">
        <ele>288</ele>
        <time>2017-06-26T08:44:01Z</time>
      </trkpt>
      <trkpt lat="45.99584" lon="4.89219">
        <ele>288</ele>
        <time>2017-06-26T08:44:03Z</time>
      </trkpt>
      <trkpt lat="45.99584" lon="4.89225">
        <ele>288</ele>
        <time>2017-06-26T08:44:04Z</time>
      </trkpt>
      <trkpt lat="45.99585" lon="4.89236">
        <ele>288</ele>
        <time>2017-06-26T08:44:06Z</time>
      </trkpt>
      <trkpt lat="45.99585" lon="4.89241">
        <ele>288</ele>
        <time>2017-06-26T08:44:07Z</time>
      </trkpt>
      <trkpt lat="45.99586" lon="4.89252">
        <ele>288</ele>
        <time>2017-06-26T08:44:09Z</time>
      </trkpt>
      <trkpt lat="45.99586" lon="4.89258">
        <ele>288</ele>
        <time>2017-06-26T08:44:10Z</time>
      </trkpt>
      <trkpt lat="45.99587" lon="4.8927">
        <ele>288</ele>
        <time>2017-06-26T08:44:12Z</time>
      </trkpt>
      <trkpt lat="45.99588" lon="4.89277">
        <ele>289</ele>
        <time>2017-06-26T08:44:13Z</time>
      </trkpt>
      <trkpt lat="45.99588" lon="4.89285">
        <ele>289</ele>
        <time>2017-06-26T08:44:14Z</time>
      </trkpt>
      <trkpt lat="45.99589" lon="4.89294">
        <ele>289</ele>
        <time>2017-06-26T08:44:15Z</time>
      </trkpt>
      <trkpt lat="45.99589" lon="4.89301">
        <ele>289</ele>
        <time>2017-06-26T08:44:16Z</time>
      </trkpt>
      <trkpt lat="45.9959" lon="4.89309">
        <ele>289</ele>
        <time>2017-06-26T08:44:17Z</time>
      </trkpt>
      <trkpt lat="45.9959" lon="4.89316">
        <ele>289</ele>
        <time>2017-06-26T08:44:18Z</time>
      </trkpt>
      <trkpt lat="45.9959" lon="4.89323">
        <ele>289</ele>
        <time>2017-06-26T08:44:19Z</time>
      </trkpt>
      <trkpt lat="45.9959" lon="4.8933">
        <ele>289</ele>
        <time>2017-06-26T08:44:20Z</time>
      </trkpt>
      <trkpt lat="45.99591" lon="4.89337">
        <ele>289</ele>
        <time>2017-06-26T08:44:21Z</time>
      </trkpt>
      <trkpt lat="45.99591" lon="4.89343">
        <ele>289</ele>
        <time>2017-06-26T08:44:22Z</time>
      </trkpt>
      <trkpt lat="45.99591" lon="4.8935">
        <ele>289</ele>
        <time>2017-06-26T08:44:23Z</time>
      </trkpt>
      <trkpt lat="45.99592" lon="4.89362">
        <ele>289</ele>
        <time>2017-06-26T08:44:25Z</time>
      </trkpt>
      <trkpt lat="45.99592" lon="4.89368">
        <ele>289</ele>
        <time>2017-06-26T08:44:26Z</time>
      </trkpt>
      <trkpt lat="45.99592" lon="4.89374">
        <ele>289</ele>
        <time>2017-06-26T08:44:27Z</time>
      </trkpt>
      <trkpt lat="45.99593" lon="4.89381">
        <ele>290</ele>
        <time>2017-06-26T08:44:28Z</time>
      </trkpt>
      <trkpt lat="45.99593" lon="4.89388">
        <ele>290</ele>
        <time>2017-06-26T08:44:29Z</time>
      </trkpt>
      <trkpt lat="45.99594" lon="4.89395">
        <ele>290</ele>
        <time>2017-06-26T08:44:30Z</time>
      </trkpt>
      <trkpt lat="45.99594" lon="4.89402">
        <ele>290</ele>
        <time>2017-06-26T08:44:31Z</time>
      </trkpt>
      <trkpt lat="45.99595" lon="4.89409">
        <ele>290</ele>
        <time>2017-06-26T08:44:32Z</time>
      </trkpt>
      <trkpt lat="45.99595" lon="4.89415">
        <ele>290</ele>
        <time>2017-06-26T08:44:33Z</time>
      </trkpt>
      <trkpt lat="45.99595" lon="4.89422">
        <ele>290</ele>
        <time>2017-06-26T08:44:34Z</time>
      </trkpt>
      <trkpt lat="45.99596" lon="4.89435">
        <ele>290</ele>
        <time>2017-06-26T08:44:36Z</time>
      </trkpt>
      <trkpt lat="45.99596" lon="4.89441">
        <ele>290</ele>
        <time>2017-06-26T08:44:37Z</time>
      </trkpt>
      <trkpt lat="45.99597" lon="4.89452">
        <ele>290</ele>
        <time>2017-06-26T08:44:39Z</time>
      </trkpt>
      <trkpt lat="45.99597" lon="4.89458">
        <ele>290</ele>
        <time>2017-06-26T08:44:40Z</time>
      </trkpt>
      <trkpt lat="45.99598" lon="4.8947">
        <ele>290</ele>
        <time>2017-06-26T08:44:42Z</time>
      </trkpt>
      <trkpt lat="45.99599" lon="4.89476">
        <ele>290</ele>
        <time>2017-06-26T08:44:43Z</time>
      </trkpt>
      <trkpt lat="45.99599" lon="4.89483">
        <ele>290</ele>
        <time>2017-06-26T08:44:44Z</time>
      </trkpt>
      <trkpt lat="45.996" lon="4.89489">
        <ele>290</ele>
        <time>2017-06-26T08:44:45Z</time>
      </trkpt>
      <trkpt lat="45.996" lon="4.89496">
        <ele>290</ele>
        <time>2017-06-26T08:44:46Z</time>
      </trkpt>
      <trkpt lat="45.996" lon="4.89504">
        <ele>290</ele>
        <time>2017-06-26T08:44:47Z</time>
      </trkpt>
      <trkpt lat="45.996" lon="4.89512">
        <ele>290</ele>
        <time>2017-06-26T08:44:48Z</time>
      </trkpt>
      <trkpt lat="45.996" lon="4.89519">
        <ele>291</ele>
        <time>2017-06-26T08:44:49Z</time>
      </trkpt>
      <trkpt lat="45.99601" lon="4.89526">
        <ele>291</ele>
        <time>2017-06-26T08:44:50Z</time>
      </trkpt>
      <trkpt lat="45.99601" lon="4.89533">
        <ele>291</ele>
        <time>2017-06-26T08:44:51Z</time>
      </trkpt>
      <trkpt lat="45.99602" lon="4.89539">
        <ele>291</ele>
        <time>2017-06-26T08:44:52Z</time>
      </trkpt>
      <trkpt lat="45.99602" lon="4.89546">
        <ele>291</ele>
        <time>2017-06-26T08:44:53Z</time>
      </trkpt>
      <trkpt lat="45.99603" lon="4.89558">
        <ele>291</ele>
        <time>2017-06-26T08:44:55Z</time>
      </trkpt>
      <trkpt lat="45.99603" lon="4.89565">
        <ele>291</ele>
        <time>2017-06-26T08:44:56Z</time>
      </trkpt>
      <trkpt lat="45.99603" lon="4.89572">
        <ele>291</ele>
        <time>2017-06-26T08:44:57Z</time>
      </trkpt>
      <trkpt lat="45.99604" lon="4.89578">
        <ele>291</ele>
        <time>2017-06-26T08:44:58Z</time>
      </trkpt>
      <trkpt lat="45.99605" lon="4.89585">
        <ele>292</ele>
        <time>2017-06-26T08:44:59Z</time>
      </trkpt>
      <trkpt lat="45.99605" lon="4.89591">
        <ele>292</ele>
        <time>2017-06-26T08:45:00Z</time>
      </trkpt>
      <trkpt lat="45.99606" lon="4.89603">
        <ele>291</ele>
        <time>2017-06-26T08:45:02Z</time>
      </trkpt>
      <trkpt lat="45.99606" lon="4.89609">
        <ele>291</ele>
        <time>2017-06-26T08:45:03Z</time>
      </trkpt>
      <trkpt lat="45.99607" lon="4.8962">
        <ele>291</ele>
        <time>2017-06-26T08:45:05Z</time>
      </trkpt>
      <trkpt lat="45.99607" lon="4.89625">
        <ele>291</ele>
        <time>2017-06-26T08:45:06Z</time>
      </trkpt>
      <trkpt lat="45.99608" lon="4.89637">
        <ele>291</ele>
        <time>2017-06-26T08:45:08Z</time>
      </trkpt>
      <trkpt lat="45.99608" lon="4.89642">
        <ele>291</ele>
        <time>2017-06-26T08:45:09Z</time>
      </trkpt>
      <trkpt lat="45.99608" lon="4.89653">
        <ele>291</ele>
        <time>2017-06-26T08:45:11Z</time>
      </trkpt>
      <trkpt lat="45.99607" lon="4.8966">
        <ele>291</ele>
        <time>2017-06-26T08:45:12Z</time>
      </trkpt>
      <trkpt lat="45.99606" lon="4.89672">
        <ele>291</ele>
        <time>2017-06-26T08:45:14Z</time>
      </trkpt>
      <trkpt lat="45.99606" lon="4.89678">
        <ele>291</ele>
        <time>2017-06-26T08:45:15Z</time>
      </trkpt>
      <trkpt lat="45.99606" lon="4.8969">
        <ele>291</ele>
        <time>2017-06-26T08:45:17Z</time>
      </trkpt>
      <trkpt lat="45.99606" lon="4.89695">
        <ele>291</ele>
        <time>2017-06-26T08:45:18Z</time>
      </trkpt>
      <trkpt lat="45.99606" lon="4.89706">
        <ele>292</ele>
        <time>2017-06-26T08:45:20Z</time>
      </trkpt>
      <trkpt lat="45.99605" lon="4.89711">
        <ele>292</ele>
        <time>2017-06-26T08:45:21Z</time>
      </trkpt>
      <trkpt lat="45.99605" lon="4.89722">
        <ele>292</ele>
        <time>2017-06-26T08:45:23Z</time>
      </trkpt>
      <trkpt lat="45.99605" lon="4.89728">
        <ele>292</ele>
        <time>2017-06-26T08:45:24Z</time>
      </trkpt>
      <trkpt lat="45.99605" lon="4.89738">
        <ele>292</ele>
        <time>2017-06-26T08:45:26Z</time>
      </trkpt>
      <trkpt lat="45.99605" lon="4.89743">
        <ele>292</ele>
        <time>2017-06-26T08:45:27Z</time>
      </trkpt>
      <trkpt lat="45.99604" lon="4.89753">
        <ele>292</ele>
        <time>2017-06-26T08:45:29Z</time>
      </trkpt>
      <trkpt lat="45.99604" lon="4.89758">
        <ele>292</ele>
        <time>2017-06-26T08:45:30Z</time>
      </trkpt>
      <trkpt lat="45.99603" lon="4.89769">
        <ele>292</ele>
        <time>2017-06-26T08:45:32Z</time>
      </trkpt>
      <trkpt lat="45.99603" lon="4.89774">
        <ele>292</ele>
        <time>2017-06-26T08:45:33Z</time>
      </trkpt>
      <trkpt lat="45.99603" lon="4.89781">
        <ele>292</ele>
        <time>2017-06-26T08:45:34Z</time>
      </trkpt>
      <trkpt lat="45.99603" lon="4.89787">
        <ele>292</ele>
        <time>2017-06-26T08:45:35Z</time>
      </trkpt>
      <trkpt lat="45.99602" lon="4.89794">
        <ele>292</ele>
        <time>2017-06-26T08:45:36Z</time>
      </trkpt>
      <trkpt lat="45.99602" lon="4.89801">
        <ele>292</ele>
        <time>2017-06-26T08:45:37Z</time>
      </trkpt>
      <trkpt lat="45.99602" lon="4.89812">
        <ele>292</ele>
        <time>2017-06-26T08:45:39Z</time>
      </trkpt>
      <trkpt lat="45.99602" lon="4.89818">
        <ele>292</ele>
        <time>2017-06-26T08:45:40Z</time>
      </trkpt>
      <trkpt lat="45.99601" lon="4.8983">
        <ele>293</ele>
        <time>2017-06-26T08:45:43Z</time>
      </trkpt>
      <trkpt lat="45.996" lon="4.89836">
        <ele>293</ele>
        <time>2017-06-26T08:45:44Z</time>
      </trkpt>
      <trkpt lat="45.996" lon="4.89846">
        <ele>293</ele>
        <time>2017-06-26T08:45:46Z</time>
      </trkpt>
      <trkpt lat="45.996" lon="4.89852">
        <ele>293</ele>
        <time>2017-06-26T08:45:47Z</time>
      </trkpt>
      <trkpt lat="45.99599" lon="4.89864">
        <ele>293</ele>
        <time>2017-06-26T08:45:49Z</time>
      </trkpt>
      <trkpt lat="45.99599" lon="4.8987">
        <ele>293</ele>
        <time>2017-06-26T08:45:50Z</time>
      </trkpt>
      <trkpt lat="45.99599" lon="4.89883">
        <ele>292</ele>
        <time>2017-06-26T08:45:52Z</time>
      </trkpt>
      <trkpt lat="45.99599" lon="4.89889">
        <ele>292</ele>
        <time>2017-06-26T08:45:53Z</time>
      </trkpt>
      <trkpt lat="45.99599" lon="4.899">
        <ele>292</ele>
        <time>2017-06-26T08:45:55Z</time>
      </trkpt>
      <trkpt lat="45.99599" lon="4.89906">
        <ele>292</ele>
        <time>2017-06-26T08:45:56Z</time>
      </trkpt>
      <trkpt lat="45.99599" lon="4.89916">
        <ele>292</ele>
        <time>2017-06-26T08:45:58Z</time>
      </trkpt>
      <trkpt lat="45.99599" lon="4.89921">
        <ele>293</ele>
        <time>2017-06-26T08:45:59Z</time>
      </trkpt>
      <trkpt lat="45.99598" lon="4.89932">
        <ele>293</ele>
        <time>2017-06-26T08:46:01Z</time>
      </trkpt>
      <trkpt lat="45.99599" lon="4.89939">
        <ele>293</ele>
        <time>2017-06-26T08:46:02Z</time>
      </trkpt>
      <trkpt lat="45.99599" lon="4.89946">
        <ele>294</ele>
        <time>2017-06-26T08:46:03Z</time>
      </trkpt>
      <trkpt lat="45.99599" lon="4.89954">
        <ele>294</ele>
        <time>2017-06-26T08:46:04Z</time>
      </trkpt>
      <trkpt lat="45.996" lon="4.89961">
        <ele>294</ele>
        <time>2017-06-26T08:46:05Z</time>
      </trkpt>
      <trkpt lat="45.99601" lon="4.89969">
        <ele>294</ele>
        <time>2017-06-26T08:46:06Z</time>
      </trkpt>
      <trkpt lat="45.99601" lon="4.89975">
        <ele>294</ele>
        <time>2017-06-26T08:46:07Z</time>
      </trkpt>
      <trkpt lat="45.99602" lon="4.89984">
        <ele>294</ele>
        <time>2017-06-26T08:46:08Z</time>
      </trkpt>
      <trkpt lat="45.99604" lon="4.89996">
        <ele>295</ele>
        <time>2017-06-26T08:46:10Z</time>
      </trkpt>
      <trkpt lat="45.99605" lon="4.90002">
        <ele>296</ele>
        <time>2017-06-26T08:46:11Z</time>
      </trkpt>
      <trkpt lat="45.99607" lon="4.90013">
        <ele>296</ele>
        <time>2017-06-26T08:46:13Z</time>
      </trkpt>
      <trkpt lat="45.99608" lon="4.90019">
        <ele>296</ele>
        <time>2017-06-26T08:46:14Z</time>
      </trkpt>
      <trkpt lat="45.99612" lon="4.90029">
        <ele>296</ele>
        <time>2017-06-26T08:46:16Z</time>
      </trkpt>
      <trkpt lat="45.99613" lon="4.90035">
        <ele>296</ele>
        <time>2017-06-26T08:46:17Z</time>
      </trkpt>
      <trkpt lat="45.99618" lon="4.90046">
        <ele>297</ele>
        <time>2017-06-26T08:46:19Z</time>
      </trkpt>
      <trkpt lat="45.9962" lon="4.90051">
        <ele>297</ele>
        <time>2017-06-26T08:46:20Z</time>
      </trkpt>
      <trkpt lat="45.99624" lon="4.90059">
        <ele>297</ele>
        <time>2017-06-26T08:46:22Z</time>
      </trkpt>
      <trkpt lat="45.99626" lon="4.90063">
        <ele>297</ele>
        <time>2017-06-26T08:46:23Z</time>
      </trkpt>
      <trkpt lat="45.9963" lon="4.90072">
        <ele>297</ele>
        <time>2017-06-26T08:46:25Z</time>
      </trkpt>
      <trkpt lat="45.99632" lon="4.90077">
        <ele>297</ele>
        <time>2017-06-26T08:46:26Z</time>
      </trkpt>
      <trkpt lat="45.99635" lon="4.90085">
        <ele>298</ele>
        <time>2017-06-26T08:46:28Z</time>
      </trkpt>
      <trkpt lat="45.99636" lon="4.9009">
        <ele>299</ele>
        <time>2017-06-26T08:46:29Z</time>
      </trkpt>
      <trkpt lat="45.99639" lon="4.90101">
        <ele>299</ele>
        <time>2017-06-26T08:46:31Z</time>
      </trkpt>
      <trkpt lat="45.9964" lon="4.90107">
        <ele>299</ele>
        <time>2017-06-26T08:46:32Z</time>
      </trkpt>
      <trkpt lat="45.99642" lon="4.90119">
        <ele>299</ele>
        <time>2017-06-26T08:46:34Z</time>
      </trkpt>
      <trkpt lat="45.99644" lon="4.90124">
        <ele>299</ele>
        <time>2017-06-26T08:46:35Z</time>
      </trkpt>
      <trkpt lat="45.99646" lon="4.9013">
        <ele>299</ele>
        <time>2017-06-26T08:46:36Z</time>
      </trkpt>
      <trkpt lat="45.99648" lon="4.90136">
        <ele>299</ele>
        <time>2017-06-26T08:46:37Z</time>
      </trkpt>
      <trkpt lat="45.99651" lon="4.90142">
        <ele>300</ele>
        <time>2017-06-26T08:46:38Z</time>
      </trkpt>
      <trkpt lat="45.99653" lon="4.90149">
        <ele>300</ele>
        <time>2017-06-26T08:46:39Z</time>
      </trkpt>
      <trkpt lat="45.99654" lon="4.90156">
        <ele>300</ele>
        <time>2017-06-26T08:46:40Z</time>
      </trkpt>
      <trkpt lat="45.99656" lon="4.90163">
        <ele>300</ele>
        <time>2017-06-26T08:46:41Z</time>
      </trkpt>
      <trkpt lat="45.99657" lon="4.90169">
        <ele>301</ele>
        <time>2017-06-26T08:46:42Z</time>
      </trkpt>
      <trkpt lat="45.99658" lon="4.90176">
        <ele>301</ele>
        <time>2017-06-26T08:46:43Z</time>
      </trkpt>
      <trkpt lat="45.9966" lon="4.90182">
        <ele>301</ele>
        <time>2017-06-26T08:46:44Z</time>
      </trkpt>
      <trkpt lat="45.99662" lon="4.90189">
        <ele>301</ele>
        <time>2017-06-26T08:46:45Z</time>
      </trkpt>
      <trkpt lat="45.99664" lon="4.90195">
        <ele>301</ele>
        <time>2017-06-26T08:46:46Z</time>
      </trkpt>
      <trkpt lat="45.99666" lon="4.90201">
        <ele>302</ele>
        <time>2017-06-26T08:46:47Z</time>
      </trkpt>
      <trkpt lat="45.9967" lon="4.90212">
        <ele>303</ele>
        <time>2017-06-26T08:46:49Z</time>
      </trkpt>
      <trkpt lat="45.99671" lon="4.90216">
        <ele>303</ele>
        <time>2017-06-26T08:46:50Z</time>
      </trkpt>
      <trkpt lat="45.99673" lon="4.90225">
        <ele>304</ele>
        <time>2017-06-26T08:46:52Z</time>
      </trkpt>
      <trkpt lat="45.99674" lon="4.9023">
        <ele>304</ele>
        <time>2017-06-26T08:46:53Z</time>
      </trkpt>
      <trkpt lat="45.99676" lon="4.90238">
        <ele>304</ele>
        <time>2017-06-26T08:46:55Z</time>
      </trkpt>
      <trkpt lat="45.99677" lon="4.90242">
        <ele>304</ele>
        <time>2017-06-26T08:46:56Z</time>
      </trkpt>
      <trkpt lat="45.99678" lon="4.90255">
        <ele>304</ele>
        <time>2017-06-26T08:46:59Z</time>
      </trkpt>
      <trkpt lat="45.99678" lon="4.90259">
        <ele>304</ele>
        <time>2017-06-26T08:47:00Z</time>
      </trkpt>
      <trkpt lat="45.99678" lon="4.9027">
        <ele>304</ele>
        <time>2017-06-26T08:47:03Z</time>
      </trkpt>
      <trkpt lat="45.99677" lon="4.90273">
        <ele>304</ele>
        <time>2017-06-26T08:47:04Z</time>
      </trkpt>
      <trkpt lat="45.99675" lon="4.90285">
        <ele>304</ele>
        <time>2017-06-26T08:47:07Z</time>
      </trkpt>
      <trkpt lat="45.99675" lon="4.9029">
        <ele>304</ele>
        <time>2017-06-26T08:47:08Z</time>
      </trkpt>
      <trkpt lat="45.99673" lon="4.90298">
        <ele>304</ele>
        <time>2017-06-26T08:47:10Z</time>
      </trkpt>
      <trkpt lat="45.99673" lon="4.90303">
        <ele>304</ele>
        <time>2017-06-26T08:47:11Z</time>
      </trkpt>
      <trkpt lat="45.99672" lon="4.90313">
        <ele>304</ele>
        <time>2017-06-26T08:47:13Z</time>
      </trkpt>
      <trkpt lat="45.99673" lon="4.90317">
        <ele>303</ele>
        <time>2017-06-26T08:47:14Z</time>
      </trkpt>
      <trkpt lat="45.99669" lon="4.90325">
        <ele>303</ele>
        <time>2017-06-26T08:47:16Z</time>
      </trkpt>
      <trkpt lat="45.99667" lon="4.90328">
        <ele>303</ele>
        <time>2017-06-26T08:47:17Z</time>
      </trkpt>
      <trkpt lat="45.9966" lon="4.90331">
        <ele>302</ele>
        <time>2017-06-26T08:47:20Z</time>
      </trkpt>
      <trkpt lat="45.99657" lon="4.90331">
        <ele>302</ele>
        <time>2017-06-26T08:47:21Z</time>
      </trkpt>
      <trkpt lat="45.99652" lon="4.90329">
        <ele>302</ele>
        <time>2017-06-26T08:47:22Z</time>
      </trkpt>
      <trkpt lat="45.99647" lon="4.90328">
        <ele>302</ele>
        <time>2017-06-26T08:47:23Z</time>
      </trkpt>
      <trkpt lat="45.99642" lon="4.90328">
        <ele>302</ele>
        <time>2017-06-26T08:47:24Z</time>
      </trkpt>
      <trkpt lat="45.99637" lon="4.90328">
        <ele>302</ele>
        <time>2017-06-26T08:47:25Z</time>
      </trkpt>
      <trkpt lat="45.99632" lon="4.90327">
        <ele>302</ele>
        <time>2017-06-26T08:47:26Z</time>
      </trkpt>
      <trkpt lat="45.99626" lon="4.90326">
        <ele>302</ele>
        <time>2017-06-26T08:47:27Z</time>
      </trkpt>
      <trkpt lat="45.9962" lon="4.90325">
        <ele>302</ele>
        <time>2017-06-26T08:47:28Z</time>
      </trkpt>
      <trkpt lat="45.99616" lon="4.90324">
        <ele>302</ele>
        <time>2017-06-26T08:47:29Z</time>
      </trkpt>
      <trkpt lat="45.99607" lon="4.90322">
        <ele>301</ele>
        <time>2017-06-26T08:47:31Z</time>
      </trkpt>
      <trkpt lat="45.99602" lon="4.90321">
        <ele>301</ele>
        <time>2017-06-26T08:47:32Z</time>
      </trkpt>
      <trkpt lat="45.99598" lon="4.90321">
        <ele>301</ele>
        <time>2017-06-26T08:47:33Z</time>
      </trkpt>
      <trkpt lat="45.99592" lon="4.9032">
        <ele>301</ele>
        <time>2017-06-26T08:47:34Z</time>
      </trkpt>
      <trkpt lat="45.99587" lon="4.90319">
        <ele>301</ele>
        <time>2017-06-26T08:47:35Z</time>
      </trkpt>
      <trkpt lat="45.99582" lon="4.90318">
        <ele>301</ele>
        <time>2017-06-26T08:47:36Z</time>
      </trkpt>
      <trkpt lat="45.99577" lon="4.90318">
        <ele>301</ele>
        <time>2017-06-26T08:47:37Z</time>
      </trkpt>
      <trkpt lat="45.99571" lon="4.90317">
        <ele>301</ele>
        <time>2017-06-26T08:47:38Z</time>
      </trkpt>
      <trkpt lat="45.99566" lon="4.90316">
        <ele>301</ele>
        <time>2017-06-26T08:47:39Z</time>
      </trkpt>
      <trkpt lat="45.9956" lon="4.90315">
        <ele>301</ele>
        <time>2017-06-26T08:47:40Z</time>
      </trkpt>
      <trkpt lat="45.99555" lon="4.90314">
        <ele>300</ele>
        <time>2017-06-26T08:47:41Z</time>
      </trkpt>
      <trkpt lat="45.99548" lon="4.90313">
        <ele>300</ele>
        <time>2017-06-26T08:47:42Z</time>
      </trkpt>
      <trkpt lat="45.99542" lon="4.90313">
        <ele>300</ele>
        <time>2017-06-26T08:47:43Z</time>
      </trkpt>
      <trkpt lat="45.99536" lon="4.90312">
        <ele>300</ele>
        <time>2017-06-26T08:47:44Z</time>
      </trkpt>
      <trkpt lat="45.99531" lon="4.90311">
        <ele>300</ele>
        <time>2017-06-26T08:47:45Z</time>
      </trkpt>
      <trkpt lat="45.99525" lon="4.9031">
        <ele>300</ele>
        <time>2017-06-26T08:47:46Z</time>
      </trkpt>
      <trkpt lat="45.99519" lon="4.90309">
        <ele>300</ele>
        <time>2017-06-26T08:47:47Z</time>
      </trkpt>
      <trkpt lat="45.99513" lon="4.90309">
        <ele>300</ele>
        <time>2017-06-26T08:47:48Z</time>
      </trkpt>
      <trkpt lat="45.99507" lon="4.90308">
        <ele>300</ele>
        <time>2017-06-26T08:47:49Z</time>
      </trkpt>
      <trkpt lat="45.99501" lon="4.90307">
        <ele>300</ele>
        <time>2017-06-26T08:47:50Z</time>
      </trkpt>
      <trkpt lat="45.99495" lon="4.90308">
        <ele>300</ele>
        <time>2017-06-26T08:47:51Z</time>
      </trkpt>
      <trkpt lat="45.99489" lon="4.90307">
        <ele>300</ele>
        <time>2017-06-26T08:47:52Z</time>
      </trkpt>
      <trkpt lat="45.99483" lon="4.90307">
        <ele>300</ele>
        <time>2017-06-26T08:47:53Z</time>
      </trkpt>
      <trkpt lat="45.99477" lon="4.90306">
        <ele>300</ele>
        <time>2017-06-26T08:47:54Z</time>
      </trkpt>
      <trkpt lat="45.99471" lon="4.90305">
        <ele>300</ele>
        <time>2017-06-26T08:47:55Z</time>
      </trkpt>
      <trkpt lat="45.99466" lon="4.90305">
        <ele>300</ele>
        <time>2017-06-26T08:47:56Z</time>
      </trkpt>
      <trkpt lat="45.9946" lon="4.90304">
        <ele>300</ele>
        <time>2017-06-26T08:47:57Z</time>
      </trkpt>
      <trkpt lat="45.99454" lon="4.90303">
        <ele>300</ele>
        <time>2017-06-26T08:47:58Z</time>
      </trkpt>
      <trkpt lat="45.9945" lon="4.90301">
        <ele>300</ele>
        <time>2017-06-26T08:47:59Z</time>
      </trkpt>
      <trkpt lat="45.99445" lon="4.903">
        <ele>300</ele>
        <time>2017-06-26T08:48:00Z</time>
      </trkpt>
      <trkpt lat="45.9944" lon="4.90299">
        <ele>300</ele>
        <time>2017-06-26T08:48:01Z</time>
      </trkpt>
      <trkpt lat="45.99434" lon="4.90298">
        <ele>300</ele>
        <time>2017-06-26T08:48:02Z</time>
      </trkpt>
      <trkpt lat="45.99429" lon="4.90298">
        <ele>300</ele>
        <time>2017-06-26T08:48:03Z</time>
      </trkpt>
      <trkpt lat="45.99423" lon="4.90297">
        <ele>300</ele>
        <time>2017-06-26T08:48:04Z</time>
      </trkpt>
      <trkpt lat="45.99418" lon="4.90296">
        <ele>300</ele>
        <time>2017-06-26T08:48:05Z</time>
      </trkpt>
      <trkpt lat="45.99413" lon="4.90296">
        <ele>300</ele>
        <time>2017-06-26T08:48:06Z</time>
      </trkpt>
      <trkpt lat="45.99408" lon="4.90295">
        <ele>300</ele>
        <time>2017-06-26T08:48:07Z</time>
      </trkpt>
      <trkpt lat="45.99403" lon="4.90295">
        <ele>300</ele>
        <time>2017-06-26T08:48:08Z</time>
      </trkpt>
      <trkpt lat="45.99398" lon="4.90295">
        <ele>300</ele>
        <time>2017-06-26T08:48:09Z</time>
      </trkpt>
      <trkpt lat="45.99392" lon="4.90295">
        <ele>300</ele>
        <time>2017-06-26T08:48:10Z</time>
      </trkpt>
      <trkpt lat="45.99388" lon="4.90295">
        <ele>300</ele>
        <time>2017-06-26T08:48:11Z</time>
      </trkpt>
      <trkpt lat="45.99383" lon="4.90295">
        <ele>300</ele>
        <time>2017-06-26T08:48:12Z</time>
      </trkpt>
      <trkpt lat="45.99378" lon="4.90296">
        <ele>300</ele>
        <time>2017-06-26T08:48:13Z</time>
      </trkpt>
      <trkpt lat="45.99373" lon="4.90295">
        <ele>300</ele>
        <time>2017-06-26T08:48:14Z</time>
      </trkpt>
      <trkpt lat="45.99368" lon="4.90295">
        <ele>300</ele>
        <time>2017-06-26T08:48:15Z</time>
      </trkpt>
      <trkpt lat="45.99363" lon="4.90294">
        <ele>300</ele>
        <time>2017-06-26T08:48:16Z</time>
      </trkpt>
      <trkpt lat="45.99358" lon="4.90294">
        <ele>300</ele>
        <time>2017-06-26T08:48:17Z</time>
      </trkpt>
      <trkpt lat="45.99354" lon="4.90294">
        <ele>300</ele>
        <time>2017-06-26T08:48:18Z</time>
      </trkpt>
      <trkpt lat="45.99345" lon="4.90294">
        <ele>300</ele>
        <time>2017-06-26T08:48:20Z</time>
      </trkpt>
      <trkpt lat="45.9934" lon="4.90293">
        <ele>300</ele>
        <time>2017-06-26T08:48:21Z</time>
      </trkpt>
      <trkpt lat="45.99332" lon="4.90291">
        <ele>299</ele>
        <time>2017-06-26T08:48:23Z</time>
      </trkpt>
      <trkpt lat="45.99328" lon="4.90288">
        <ele>299</ele>
        <time>2017-06-26T08:48:24Z</time>
      </trkpt>
      <trkpt lat="45.99322" lon="4.90281">
        <ele>299</ele>
        <time>2017-06-26T08:48:26Z</time>
      </trkpt>
      <trkpt lat="45.99319" lon="4.90276">
        <ele>299</ele>
        <time>2017-06-26T08:48:27Z</time>
      </trkpt>
      <trkpt lat="45.99316" lon="4.90269">
        <ele>299</ele>
        <time>2017-06-26T08:48:28Z</time>
      </trkpt>
      <trkpt lat="45.99313" lon="4.90263">
        <ele>299</ele>
        <time>2017-06-26T08:48:29Z</time>
      </trkpt>
      <trkpt lat="45.99309" lon="4.90256">
        <ele>299</ele>
        <time>2017-06-26T08:48:30Z</time>
      </trkpt>
      <trkpt lat="45.99305" lon="4.90251">
        <ele>299</ele>
        <time>2017-06-26T08:48:31Z</time>
      </trkpt>
      <trkpt lat="45.99301" lon="4.90245">
        <ele>298</ele>
        <time>2017-06-26T08:48:32Z</time>
      </trkpt>
      <trkpt lat="45.99297" lon="4.9024">
        <ele>298</ele>
        <time>2017-06-26T08:48:33Z</time>
      </trkpt>
      <trkpt lat="45.99294" lon="4.90234">
        <ele>298</ele>
        <time>2017-06-26T08:48:34Z</time>
      </trkpt>
      <trkpt lat="45.9929" lon="4.90228">
        <ele>298</ele>
        <time>2017-06-26T08:48:35Z</time>
      </trkpt>
      <trkpt lat="45.99286" lon="4.90222">
        <ele>298</ele>
        <time>2017-06-26T08:48:36Z</time>
      </trkpt>
      <trkpt lat="45.99283" lon="4.90217">
        <ele>298</ele>
        <time>2017-06-26T08:48:37Z</time>
      </trkpt>
      <trkpt lat="45.99279" lon="4.90212">
        <ele>298</ele>
        <time>2017-06-26T08:48:38Z</time>
      </trkpt>
      <trkpt lat="45.99275" lon="4.90208">
        <ele>298</ele>
        <time>2017-06-26T08:48:39Z</time>
      </trkpt>
      <trkpt lat="45.99272" lon="4.90203">
        <ele>298</ele>
        <time>2017-06-26T08:48:40Z</time>
      </trkpt>
      <trkpt lat="45.99269" lon="4.90197">
        <ele>298</ele>
        <time>2017-06-26T08:48:41Z</time>
      </trkpt>
      <trkpt lat="45.99265" lon="4.90192">
        <ele>298</ele>
        <time>2017-06-26T08:48:42Z</time>
      </trkpt>
      <trkpt lat="45.99262" lon="4.90187">
        <ele>298</ele>
        <time>2017-06-26T08:48:43Z</time>
      </trkpt>
      <trkpt lat="45.99258" lon="4.90182">
        <ele>298</ele>
        <time>2017-06-26T08:48:44Z</time>
      </trkpt>
      <trkpt lat="45.99254" lon="4.90177">
        <ele>297</ele>
        <time>2017-06-26T08:48:45Z</time>
      </trkpt>
      <trkpt lat="45.9925" lon="4.90172">
        <ele>297</ele>
        <time>2017-06-26T08:48:46Z</time>
      </trkpt>
      <trkpt lat="45.99246" lon="4.90167">
        <ele>297</ele>
        <time>2017-06-26T08:48:47Z</time>
      </trkpt>
      <trkpt lat="45.99242" lon="4.90162">
        <ele>297</ele>
        <time>2017-06-26T08:48:48Z</time>
      </trkpt>
      <trkpt lat="45.99238" lon="4.90157">
        <ele>297</ele>
        <time>2017-06-26T08:48:49Z</time>
      </trkpt>
      <trkpt lat="45.99234" lon="4.90151">
        <ele>297</ele>
        <time>2017-06-26T08:48:50Z</time>
      </trkpt>
      <trkpt lat="45.99231" lon="4.90146">
        <ele>297</ele>
        <time>2017-06-26T08:48:51Z</time>
      </trkpt>
      <trkpt lat="45.99228" lon="4.9014">
        <ele>297</ele>
        <time>2017-06-26T08:48:52Z</time>
      </trkpt>
      <trkpt lat="45.99224" lon="4.90135">
        <ele>297</ele>
        <time>2017-06-26T08:48:53Z</time>
      </trkpt>
      <trkpt lat="45.9922" lon="4.9013">
        <ele>297</ele>
        <time>2017-06-26T08:48:54Z</time>
      </trkpt>
      <trkpt lat="45.99217" lon="4.90125">
        <ele>297</ele>
        <time>2017-06-26T08:48:55Z</time>
      </trkpt>
      <trkpt lat="45.9921" lon="4.90116">
        <ele>297</ele>
        <time>2017-06-26T08:48:57Z</time>
      </trkpt>
      <trkpt lat="45.99207" lon="4.90112">
        <ele>297</ele>
        <time>2017-06-26T08:48:58Z</time>
      </trkpt>
      <trkpt lat="45.99201" lon="4.90104">
        <ele>297</ele>
        <time>2017-06-26T08:49:00Z</time>
      </trkpt>
      <trkpt lat="45.99198" lon="4.90099">
        <ele>297</ele>
        <time>2017-06-26T08:49:01Z</time>
      </trkpt>
      <trkpt lat="45.99194" lon="4.90094">
        <ele>297</ele>
        <time>2017-06-26T08:49:02Z</time>
      </trkpt>
      <trkpt lat="45.9919" lon="4.90089">
        <ele>297</ele>
        <time>2017-06-26T08:49:03Z</time>
      </trkpt>
      <trkpt lat="45.99187" lon="4.90084">
        <ele>297</ele>
        <time>2017-06-26T08:49:04Z</time>
      </trkpt>
      <trkpt lat="45.99183" lon="4.90079">
        <ele>297</ele>
        <time>2017-06-26T08:49:05Z</time>
      </trkpt>
      <trkpt lat="45.99179" lon="4.90073">
        <ele>297</ele>
        <time>2017-06-26T08:49:06Z</time>
      </trkpt>
      <trkpt lat="45.99175" lon="4.90068">
        <ele>297</ele>
        <time>2017-06-26T08:49:07Z</time>
      </trkpt>
      <trkpt lat="45.99171" lon="4.90063">
        <ele>297</ele>
        <time>2017-06-26T08:49:08Z</time>
      </trkpt>
      <trkpt lat="45.99168" lon="4.90058">
        <ele>297</ele>
        <time>2017-06-26T08:49:09Z</time>
      </trkpt>
      <trkpt lat="45.99161" lon="4.9005">
        <ele>297</ele>
        <time>2017-06-26T08:49:11Z</time>
      </trkpt>
      <trkpt lat="45.99158" lon="4.90046">
        <ele>297</ele>
        <time>2017-06-26T08:49:12Z</time>
      </trkpt>
      <trkpt lat="45.99154" lon="4.90041">
        <ele>297</ele>
        <time>2017-06-26T08:49:13Z</time>
      </trkpt>
      <trkpt lat="45.99148" lon="4.90035">
        <ele>297</ele>
        <time>2017-06-26T08:49:14Z</time>
      </trkpt>
      <trkpt lat="45.99142" lon="4.90029">
        <ele>297</ele>
        <time>2017-06-26T08:49:15Z</time>
      </trkpt>
      <trkpt lat="45.99136" lon="4.90023">
        <ele>297</ele>
        <time>2017-06-26T08:49:16Z</time>
      </trkpt>
      <trkpt lat="45.99131" lon="4.90017">
        <ele>296</ele>
        <time>2017-06-26T08:49:17Z</time>
      </trkpt>
      <trkpt lat="45.99127" lon="4.90011">
        <ele>296</ele>
        <time>2017-06-26T08:49:18Z</time>
      </trkpt>
      <trkpt lat="45.99122" lon="4.90005">
        <ele>296</ele>
        <time>2017-06-26T08:49:19Z</time>
      </trkpt>
      <trkpt lat="45.99118" lon="4.89999">
        <ele>295</ele>
        <time>2017-06-26T08:49:20Z</time>
      </trkpt>
      <trkpt lat="45.99114" lon="4.89993">
        <ele>295</ele>
        <time>2017-06-26T08:49:21Z</time>
      </trkpt>
      <trkpt lat="45.9911" lon="4.89987">
        <ele>295</ele>
        <time>2017-06-26T08:49:22Z</time>
      </trkpt>
      <trkpt lat="45.99106" lon="4.89982">
        <ele>295</ele>
        <time>2017-06-26T08:49:23Z</time>
      </trkpt>
      <trkpt lat="45.99102" lon="4.89977">
        <ele>295</ele>
        <time>2017-06-26T08:49:24Z</time>
      </trkpt>
      <trkpt lat="45.99098" lon="4.89971">
        <ele>295</ele>
        <time>2017-06-26T08:49:25Z</time>
      </trkpt>
      <trkpt lat="45.99094" lon="4.89966">
        <ele>295</ele>
        <time>2017-06-26T08:49:26Z</time>
      </trkpt>
      <trkpt lat="45.9909" lon="4.8996">
        <ele>295</ele>
        <time>2017-06-26T08:49:27Z</time>
      </trkpt>
      <trkpt lat="45.99086" lon="4.89954">
        <ele>295</ele>
        <time>2017-06-26T08:49:28Z</time>
      </trkpt>
      <trkpt lat="45.99082" lon="4.89948">
        <ele>294</ele>
        <time>2017-06-26T08:49:29Z</time>
      </trkpt>
      <trkpt lat="45.99078" lon="4.89943">
        <ele>294</ele>
        <time>2017-06-26T08:49:30Z</time>
      </trkpt>
      <trkpt lat="45.99075" lon="4.89937">
        <ele>294</ele>
        <time>2017-06-26T08:49:31Z</time>
      </trkpt>
      <trkpt lat="45.99071" lon="4.89931">
        <ele>294</ele>
        <time>2017-06-26T08:49:32Z</time>
      </trkpt>
      <trkpt lat="45.99068" lon="4.89926">
        <ele>294</ele>
        <time>2017-06-26T08:49:33Z</time>
      </trkpt>
      <trkpt lat="45.99065" lon="4.8992">
        <ele>294</ele>
        <time>2017-06-26T08:49:34Z</time>
      </trkpt>
      <trkpt lat="45.99061" lon="4.89915">
        <ele>294</ele>
        <time>2017-06-26T08:49:35Z</time>
      </trkpt>
      <trkpt lat="45.99057" lon="4.8991">
        <ele>293</ele>
        <time>2017-06-26T08:49:36Z</time>
      </trkpt>
      <trkpt lat="45.99054" lon="4.89906">
        <ele>293</ele>
        <time>2017-06-26T08:49:37Z</time>
      </trkpt>
      <trkpt lat="45.99051" lon="4.89901">
        <ele>293</ele>
        <time>2017-06-26T08:49:38Z</time>
      </trkpt>
      <trkpt lat="45.99047" lon="4.89896">
        <ele>293</ele>
        <time>2017-06-26T08:49:39Z</time>
      </trkpt>
      <trkpt lat="45.99044" lon="4.89891">
        <ele>293</ele>
        <time>2017-06-26T08:49:40Z</time>
      </trkpt>
      <trkpt lat="45.99041" lon="4.89887">
        <ele>293</ele>
        <time>2017-06-26T08:49:41Z</time>
      </trkpt>
      <trkpt lat="45.99037" lon="4.89882">
        <ele>293</ele>
        <time>2017-06-26T08:49:42Z</time>
      </trkpt>
      <trkpt lat="45.99033" lon="4.89876">
        <ele>293</ele>
        <time>2017-06-26T08:49:43Z</time>
      </trkpt>
      <trkpt lat="45.99029" lon="4.8987">
        <ele>293</ele>
        <time>2017-06-26T08:49:44Z</time>
      </trkpt>
      <trkpt lat="45.99024" lon="4.89864">
        <ele>293</ele>
        <time>2017-06-26T08:49:45Z</time>
      </trkpt>
      <trkpt lat="45.99019" lon="4.89858">
        <ele>293</ele>
        <time>2017-06-26T08:49:46Z</time>
      </trkpt>
      <trkpt lat="45.99014" lon="4.89852">
        <ele>293</ele>
        <time>2017-06-26T08:49:47Z</time>
      </trkpt>
      <trkpt lat="45.99009" lon="4.89846">
        <ele>293</ele>
        <time>2017-06-26T08:49:48Z</time>
      </trkpt>
      <trkpt lat="45.99004" lon="4.8984">
        <ele>293</ele>
        <time>2017-06-26T08:49:49Z</time>
      </trkpt>
      <trkpt lat="45.98999" lon="4.89833">
        <ele>293</ele>
        <time>2017-06-26T08:49:50Z</time>
      </trkpt>
      <trkpt lat="45.98994" lon="4.89827">
        <ele>293</ele>
        <time>2017-06-26T08:49:51Z</time>
      </trkpt>
      <trkpt lat="45.98989" lon="4.89821">
        <ele>293</ele>
        <time>2017-06-26T08:49:52Z</time>
      </trkpt>
      <trkpt lat="45.98984" lon="4.89814">
        <ele>293</ele>
        <time>2017-06-26T08:49:53Z</time>
      </trkpt>
      <trkpt lat="45.9898" lon="4.89808">
        <ele>293</ele>
        <time>2017-06-26T08:49:54Z</time>
      </trkpt>
      <trkpt lat="45.98975" lon="4.89803">
        <ele>293</ele>
        <time>2017-06-26T08:49:55Z</time>
      </trkpt>
      <trkpt lat="45.9897" lon="4.89798">
        <ele>293</ele>
        <time>2017-06-26T08:49:56Z</time>
      </trkpt>
      <trkpt lat="45.98964" lon="4.89793">
        <ele>293</ele>
        <time>2017-06-26T08:49:57Z</time>
      </trkpt>
      <trkpt lat="45.98959" lon="4.89789">
        <ele>293</ele>
        <time>2017-06-26T08:49:58Z</time>
      </trkpt>
      <trkpt lat="45.98953" lon="4.89784">
        <ele>293</ele>
        <time>2017-06-26T08:49:59Z</time>
      </trkpt>
      <trkpt lat="45.98947" lon="4.8978">
        <ele>293</ele>
        <time>2017-06-26T08:50:00Z</time>
      </trkpt>
      <trkpt lat="45.98941" lon="4.89776">
        <ele>293</ele>
        <time>2017-06-26T08:50:01Z</time>
      </trkpt>
      <trkpt lat="45.98935" lon="4.89772">
        <ele>293</ele>
        <time>2017-06-26T08:50:02Z</time>
      </trkpt>
      <trkpt lat="45.98929" lon="4.89767">
        <ele>293</ele>
        <time>2017-06-26T08:50:03Z</time>
      </trkpt>
      <trkpt lat="45.98923" lon="4.89764">
        <ele>293</ele>
        <time>2017-06-26T08:50:04Z</time>
      </trkpt>
      <trkpt lat="45.98917" lon="4.8976">
        <ele>293</ele>
        <time>2017-06-26T08:50:05Z</time>
      </trkpt>
      <trkpt lat="45.98912" lon="4.89756">
        <ele>293</ele>
        <time>2017-06-26T08:50:06Z</time>
      </trkpt>
      <trkpt lat="45.98907" lon="4.89752">
        <ele>293</ele>
        <time>2017-06-26T08:50:07Z</time>
      </trkpt>
      <trkpt lat="45.98902" lon="4.89749">
        <ele>293</ele>
        <time>2017-06-26T08:50:08Z</time>
      </trkpt>
      <trkpt lat="45.98897" lon="4.89745">
        <ele>293</ele>
        <time>2017-06-26T08:50:09Z</time>
      </trkpt>
      <trkpt lat="45.98891" lon="4.89741">
        <ele>293</ele>
        <time>2017-06-26T08:50:10Z</time>
      </trkpt>
      <trkpt lat="45.98885" lon="4.89736">
        <ele>293</ele>
        <time>2017-06-26T08:50:11Z</time>
      </trkpt>
      <trkpt lat="45.98879" lon="4.89732">
        <ele>293</ele>
        <time>2017-06-26T08:50:12Z</time>
      </trkpt>
      <trkpt lat="45.98873" lon="4.89727">
        <ele>293</ele>
        <time>2017-06-26T08:50:13Z</time>
      </trkpt>
      <trkpt lat="45.98867" lon="4.89722">
        <ele>293</ele>
        <time>2017-06-26T08:50:14Z</time>
      </trkpt>
      <trkpt lat="45.98861" lon="4.89717">
        <ele>293</ele>
        <time>2017-06-26T08:50:15Z</time>
      </trkpt>
      <trkpt lat="45.98855" lon="4.89713">
        <ele>293</ele>
        <time>2017-06-26T08:50:16Z</time>
      </trkpt>
      <trkpt lat="45.98849" lon="4.89708">
        <ele>292</ele>
        <time>2017-06-26T08:50:17Z</time>
      </trkpt>
      <trkpt lat="45.98842" lon="4.89703">
        <ele>292</ele>
        <time>2017-06-26T08:50:18Z</time>
      </trkpt>
      <trkpt lat="45.98836" lon="4.89698">
        <ele>292</ele>
        <time>2017-06-26T08:50:19Z</time>
      </trkpt>
      <trkpt lat="45.98831" lon="4.89692">
        <ele>292</ele>
        <time>2017-06-26T08:50:20Z</time>
      </trkpt>
      <trkpt lat="45.98825" lon="4.89686">
        <ele>292</ele>
        <time>2017-06-26T08:50:21Z</time>
      </trkpt>
      <trkpt lat="45.98819" lon="4.89681">
        <ele>292</ele>
        <time>2017-06-26T08:50:22Z</time>
      </trkpt>
      <trkpt lat="45.98813" lon="4.89676">
        <ele>292</ele>
        <time>2017-06-26T08:50:23Z</time>
      </trkpt>
      <trkpt lat="45.98807" lon="4.8967">
        <ele>292</ele>
        <time>2017-06-26T08:50:24Z</time>
      </trkpt>
      <trkpt lat="45.98802" lon="4.89664">
        <ele>291</ele>
        <time>2017-06-26T08:50:25Z</time>
      </trkpt>
      <trkpt lat="45.98797" lon="4.89657">
        <ele>291</ele>
        <time>2017-06-26T08:50:26Z</time>
      </trkpt>
      <trkpt lat="45.98792" lon="4.8965">
        <ele>291</ele>
        <time>2017-06-26T08:50:27Z</time>
      </trkpt>
      <trkpt lat="45.98787" lon="4.89643">
        <ele>291</ele>
        <time>2017-06-26T08:50:28Z</time>
      </trkpt>
      <trkpt lat="45.98782" lon="4.89635">
        <ele>291</ele>
        <time>2017-06-26T08:50:29Z</time>
      </trkpt>
      <trkpt lat="45.98777" lon="4.89627">
        <ele>291</ele>
        <time>2017-06-26T08:50:30Z</time>
      </trkpt>
      <trkpt lat="45.98772" lon="4.8962">
        <ele>291</ele>
        <time>2017-06-26T08:50:31Z</time>
      </trkpt>
      <trkpt lat="45.98767" lon="4.89612">
        <ele>291</ele>
        <time>2017-06-26T08:50:32Z</time>
      </trkpt>
      <trkpt lat="45.98761" lon="4.89604">
        <ele>291</ele>
        <time>2017-06-26T08:50:33Z</time>
      </trkpt>
      <trkpt lat="45.98756" lon="4.89597">
        <ele>291</ele>
        <time>2017-06-26T08:50:34Z</time>
      </trkpt>
      <trkpt lat="45.98751" lon="4.89589">
        <ele>291</ele>
        <time>2017-06-26T08:50:35Z</time>
      </trkpt>
      <trkpt lat="45.98745" lon="4.89582">
        <ele>291</ele>
        <time>2017-06-26T08:50:36Z</time>
      </trkpt>
      <trkpt lat="45.9874" lon="4.89574">
        <ele>290</ele>
        <time>2017-06-26T08:50:37Z</time>
      </trkpt>
      <trkpt lat="45.98735" lon="4.89567">
        <ele>290</ele>
        <time>2017-06-26T08:50:38Z</time>
      </trkpt>
      <trkpt lat="45.9873" lon="4.8956">
        <ele>290</ele>
        <time>2017-06-26T08:50:39Z</time>
      </trkpt>
      <trkpt lat="45.98726" lon="4.89552">
        <ele>290</ele>
        <time>2017-06-26T08:50:40Z</time>
      </trkpt>
      <trkpt lat="45.98721" lon="4.89545">
        <ele>290</ele>
        <time>2017-06-26T08:50:41Z</time>
      </trkpt>
      <trkpt lat="45.98715" lon="4.89537">
        <ele>290</ele>
        <time>2017-06-26T08:50:42Z</time>
      </trkpt>
      <trkpt lat="45.9871" lon="4.8953">
        <ele>289</ele>
        <time>2017-06-26T08:50:43Z</time>
      </trkpt>
      <trkpt lat="45.98704" lon="4.89522">
        <ele>289</ele>
        <time>2017-06-26T08:50:44Z</time>
      </trkpt>
      <trkpt lat="45.98698" lon="4.89515">
        <ele>289</ele>
        <time>2017-06-26T08:50:45Z</time>
      </trkpt>
      <trkpt lat="45.98692" lon="4.89507">
        <ele>289</ele>
        <time>2017-06-26T08:50:46Z</time>
      </trkpt>
      <trkpt lat="45.98687" lon="4.89499">
        <ele>289</ele>
        <time>2017-06-26T08:50:47Z</time>
      </trkpt>
      <trkpt lat="45.98681" lon="4.89491">
        <ele>289</ele>
        <time>2017-06-26T08:50:48Z</time>
      </trkpt>
      <trkpt lat="45.98675" lon="4.89483">
        <ele>289</ele>
        <time>2017-06-26T08:50:49Z</time>
      </trkpt>
      <trkpt lat="45.9867" lon="4.89476">
        <ele>289</ele>
        <time>2017-06-26T08:50:50Z</time>
      </trkpt>
      <trkpt lat="45.98664" lon="4.89469">
        <ele>290</ele>
        <time>2017-06-26T08:50:51Z</time>
      </trkpt>
      <trkpt lat="45.98658" lon="4.89463">
        <ele>290</ele>
        <time>2017-06-26T08:50:52Z</time>
      </trkpt>
      <trkpt lat="45.98652" lon="4.89457">
        <ele>290</ele>
        <time>2017-06-26T08:50:53Z</time>
      </trkpt>
      <trkpt lat="45.98647" lon="4.89451">
        <ele>290</ele>
        <time>2017-06-26T08:50:54Z</time>
      </trkpt>
      <trkpt lat="45.98642" lon="4.89445">
        <ele>291</ele>
        <time>2017-06-26T08:50:55Z</time>
      </trkpt>
      <trkpt lat="45.98636" lon="4.89439">
        <ele>291</ele>
        <time>2017-06-26T08:50:56Z</time>
      </trkpt>
      <trkpt lat="45.9863" lon="4.89434">
        <ele>291</ele>
        <time>2017-06-26T08:50:57Z</time>
      </trkpt>
      <trkpt lat="45.98624" lon="4.89428">
        <ele>291</ele>
        <time>2017-06-26T08:50:58Z</time>
      </trkpt>
      <trkpt lat="45.98618" lon="4.89422">
        <ele>292</ele>
        <time>2017-06-26T08:50:59Z</time>
      </trkpt>
      <trkpt lat="45.98611" lon="4.89416">
        <ele>291</ele>
        <time>2017-06-26T08:51:00Z</time>
      </trkpt>
      <trkpt lat="45.98605" lon="4.89409">
        <ele>292</ele>
        <time>2017-06-26T08:51:01Z</time>
      </trkpt>
      <trkpt lat="45.986" lon="4.89403">
        <ele>292</ele>
        <time>2017-06-26T08:51:02Z</time>
      </trkpt>
      <trkpt lat="45.98593" lon="4.89398">
        <ele>292</ele>
        <time>2017-06-26T08:51:03Z</time>
      </trkpt>
      <trkpt lat="45.98588" lon="4.89392">
        <ele>292</ele>
        <time>2017-06-26T08:51:04Z</time>
      </trkpt>
      <trkpt lat="45.98584" lon="4.89386">
        <ele>292</ele>
        <time>2017-06-26T08:51:05Z</time>
      </trkpt>
      <trkpt lat="45.98579" lon="4.89381">
        <ele>295</ele>
        <time>2017-06-26T08:51:06Z</time>
      </trkpt>
      <trkpt lat="45.98574" lon="4.89375">
        <ele>295</ele>
        <time>2017-06-26T08:51:07Z</time>
      </trkpt>
      <trkpt lat="45.98569" lon="4.89369">
        <ele>295</ele>
        <time>2017-06-26T08:51:08Z</time>
      </trkpt>
      <trkpt lat="45.98564" lon="4.89363">
        <ele>295</ele>
        <time>2017-06-26T08:51:09Z</time>
      </trkpt>
      <trkpt lat="45.9856" lon="4.89357">
        <ele>295</ele>
        <time>2017-06-26T08:51:10Z</time>
      </trkpt>
      <trkpt lat="45.98556" lon="4.8935">
        <ele>295</ele>
        <time>2017-06-26T08:51:11Z</time>
      </trkpt>
      <trkpt lat="45.98551" lon="4.89343">
        <ele>295</ele>
        <time>2017-06-26T08:51:12Z</time>
      </trkpt>
      <trkpt lat="45.98546" lon="4.89336">
        <ele>295</ele>
        <time>2017-06-26T08:51:13Z</time>
      </trkpt>
      <trkpt lat="45.98541" lon="4.89329">
        <ele>293</ele>
        <time>2017-06-26T08:51:14Z</time>
      </trkpt>
      <trkpt lat="45.98536" lon="4.89323">
        <ele>293</ele>
        <time>2017-06-26T08:51:15Z</time>
      </trkpt>
      <trkpt lat="45.98532" lon="4.89316">
        <ele>293</ele>
        <time>2017-06-26T08:51:16Z</time>
      </trkpt>
      <trkpt lat="45.98528" lon="4.89309">
        <ele>293</ele>
        <time>2017-06-26T08:51:17Z</time>
      </trkpt>
      <trkpt lat="45.98524" lon="4.89303">
        <ele>293</ele>
        <time>2017-06-26T08:51:18Z</time>
      </trkpt>
      <trkpt lat="45.9852" lon="4.89297">
        <ele>292</ele>
        <time>2017-06-26T08:51:19Z</time>
      </trkpt>
      <trkpt lat="45.98515" lon="4.89291">
        <ele>292</ele>
        <time>2017-06-26T08:51:20Z</time>
      </trkpt>
      <trkpt lat="45.9851" lon="4.89286">
        <ele>292</ele>
        <time>2017-06-26T08:51:21Z</time>
      </trkpt>
      <trkpt lat="45.98506" lon="4.8928">
        <ele>292</ele>
        <time>2017-06-26T08:51:22Z</time>
      </trkpt>
      <trkpt lat="45.98502" lon="4.89274">
        <ele>292</ele>
        <time>2017-06-26T08:51:23Z</time>
      </trkpt>
      <trkpt lat="45.98498" lon="4.89268">
        <ele>291</ele>
        <time>2017-06-26T08:51:24Z</time>
      </trkpt>
      <trkpt lat="45.98494" lon="4.89262">
        <ele>291</ele>
        <time>2017-06-26T08:51:25Z</time>
      </trkpt>
      <trkpt lat="45.98491" lon="4.89255">
        <ele>291</ele>
        <time>2017-06-26T08:51:26Z</time>
      </trkpt>
      <trkpt lat="45.98486" lon="4.89249">
        <ele>289</ele>
        <time>2017-06-26T08:51:27Z</time>
      </trkpt>
      <trkpt lat="45.98482" lon="4.89242">
        <ele>289</ele>
        <time>2017-06-26T08:51:28Z</time>
      </trkpt>
      <trkpt lat="45.98478" lon="4.89235">
        <ele>289</ele>
        <time>2017-06-26T08:51:29Z</time>
      </trkpt>
      <trkpt lat="45.98475" lon="4.89227">
        <ele>289</ele>
        <time>2017-06-26T08:51:30Z</time>
      </trkpt>
      <trkpt lat="45.9847" lon="4.8922">
        <ele>289</ele>
        <time>2017-06-26T08:51:31Z</time>
      </trkpt>
      <trkpt lat="45.98466" lon="4.89212">
        <ele>289</ele>
        <time>2017-06-26T08:51:32Z</time>
      </trkpt>
      <trkpt lat="45.98463" lon="4.89204">
        <ele>289</ele>
        <time>2017-06-26T08:51:33Z</time>
      </trkpt>
      <trkpt lat="45.98459" lon="4.89196">
        <ele>289</ele>
        <time>2017-06-26T08:51:34Z</time>
      </trkpt>
      <trkpt lat="45.98455" lon="4.89188">
        <ele>289</ele>
        <time>2017-06-26T08:51:35Z</time>
      </trkpt>
      <trkpt lat="45.9845" lon="4.8918">
        <ele>288</ele>
        <time>2017-06-26T08:51:36Z</time>
      </trkpt>
      <trkpt lat="45.98446" lon="4.89172">
        <ele>288</ele>
        <time>2017-06-26T08:51:37Z</time>
      </trkpt>
      <trkpt lat="45.98441" lon="4.89164">
        <ele>288</ele>
        <time>2017-06-26T08:51:38Z</time>
      </trkpt>
      <trkpt lat="45.98436" lon="4.89156">
        <ele>288</ele>
        <time>2017-06-26T08:51:39Z</time>
      </trkpt>
      <trkpt lat="45.98431" lon="4.89147">
        <ele>288</ele>
        <time>2017-06-26T08:51:40Z</time>
      </trkpt>
      <trkpt lat="45.98426" lon="4.89138">
        <ele>288</ele>
        <time>2017-06-26T08:51:41Z</time>
      </trkpt>
      <trkpt lat="45.9842" lon="4.8913">
        <ele>288</ele>
        <time>2017-06-26T08:51:42Z</time>
      </trkpt>
      <trkpt lat="45.98414" lon="4.89121">
        <ele>285</ele>
        <time>2017-06-26T08:51:43Z</time>
      </trkpt>
      <trkpt lat="45.98408" lon="4.89112">
        <ele>286</ele>
        <time>2017-06-26T08:51:44Z</time>
      </trkpt>
      <trkpt lat="45.98403" lon="4.89104">
        <ele>286</ele>
        <time>2017-06-26T08:51:45Z</time>
      </trkpt>
      <trkpt lat="45.98397" lon="4.89095">
        <ele>286</ele>
        <time>2017-06-26T08:51:46Z</time>
      </trkpt>
      <trkpt lat="45.98392" lon="4.89086">
        <ele>285</ele>
        <time>2017-06-26T08:51:47Z</time>
      </trkpt>
      <trkpt lat="45.98387" lon="4.89077">
        <ele>285</ele>
        <time>2017-06-26T08:51:48Z</time>
      </trkpt>
      <trkpt lat="45.98382" lon="4.89065">
        <ele>285</ele>
        <time>2017-06-26T08:51:49Z</time>
      </trkpt>
      <trkpt lat="45.98379" lon="4.89055">
        <ele>284</ele>
        <time>2017-06-26T08:51:50Z</time>
      </trkpt>
      <trkpt lat="45.98377" lon="4.89044">
        <ele>284</ele>
        <time>2017-06-26T08:51:51Z</time>
      </trkpt>
      <trkpt lat="45.98374" lon="4.89033">
        <ele>284</ele>
        <time>2017-06-26T08:51:52Z</time>
      </trkpt>
      <trkpt lat="45.98372" lon="4.89022">
        <ele>284</ele>
        <time>2017-06-26T08:51:53Z</time>
      </trkpt>
      <trkpt lat="45.9837" lon="4.8901">
        <ele>284</ele>
        <time>2017-06-26T08:51:54Z</time>
      </trkpt>
      <trkpt lat="45.98367" lon="4.88998">
        <ele>283</ele>
        <time>2017-06-26T08:51:55Z</time>
      </trkpt>
      <trkpt lat="45.98364" lon="4.88985">
        <ele>282</ele>
        <time>2017-06-26T08:51:56Z</time>
      </trkpt>
      <trkpt lat="45.98361" lon="4.88972">
        <ele>282</ele>
        <time>2017-06-26T08:51:57Z</time>
      </trkpt>
      <trkpt lat="45.98359" lon="4.88961">
        <ele>282</ele>
        <time>2017-06-26T08:51:58Z</time>
      </trkpt>
      <trkpt lat="45.98356" lon="4.88949">
        <ele>282</ele>
        <time>2017-06-26T08:51:59Z</time>
      </trkpt>
      <trkpt lat="45.98353" lon="4.88938">
        <ele>282</ele>
        <time>2017-06-26T08:52:00Z</time>
      </trkpt>
      <trkpt lat="45.9835" lon="4.88926">
        <ele>281</ele>
        <time>2017-06-26T08:52:01Z</time>
      </trkpt>
      <trkpt lat="45.98347" lon="4.88915">
        <ele>280</ele>
        <time>2017-06-26T08:52:02Z</time>
      </trkpt>
      <trkpt lat="45.98345" lon="4.88905">
        <ele>280</ele>
        <time>2017-06-26T08:52:03Z</time>
      </trkpt>
      <trkpt lat="45.98342" lon="4.88894">
        <ele>280</ele>
        <time>2017-06-26T08:52:04Z</time>
      </trkpt>
      <trkpt lat="45.98339" lon="4.88884">
        <ele>280</ele>
        <time>2017-06-26T08:52:05Z</time>
      </trkpt>
      <trkpt lat="45.98337" lon="4.88873">
        <ele>280</ele>
        <time>2017-06-26T08:52:06Z</time>
      </trkpt>
      <trkpt lat="45.98334" lon="4.88862">
        <ele>280</ele>
        <time>2017-06-26T08:52:07Z</time>
      </trkpt>
      <trkpt lat="45.98331" lon="4.88851">
        <ele>278</ele>
        <time>2017-06-26T08:52:08Z</time>
      </trkpt>
      <trkpt lat="45.98329" lon="4.8884">
        <ele>278</ele>
        <time>2017-06-26T08:52:09Z</time>
      </trkpt>
      <trkpt lat="45.98326" lon="4.8883">
        <ele>278</ele>
        <time>2017-06-26T08:52:10Z</time>
      </trkpt>
      <trkpt lat="45.98324" lon="4.88819">
        <ele>277</ele>
        <time>2017-06-26T08:52:11Z</time>
      </trkpt>
      <trkpt lat="45.98322" lon="4.88809">
        <ele>277</ele>
        <time>2017-06-26T08:52:12Z</time>
      </trkpt>
      <trkpt lat="45.98319" lon="4.88799">
        <ele>277</ele>
        <time>2017-06-26T08:52:13Z</time>
      </trkpt>
      <trkpt lat="45.98317" lon="4.88789">
        <ele>277</ele>
        <time>2017-06-26T08:52:14Z</time>
      </trkpt>
      <trkpt lat="45.98314" lon="4.88779">
        <ele>277</ele>
        <time>2017-06-26T08:52:15Z</time>
      </trkpt>
      <trkpt lat="45.98312" lon="4.8877">
        <ele>277</ele>
        <time>2017-06-26T08:52:16Z</time>
      </trkpt>
      <trkpt lat="45.98309" lon="4.88761">
        <ele>276</ele>
        <time>2017-06-26T08:52:17Z</time>
      </trkpt>
      <trkpt lat="45.98307" lon="4.88752">
        <ele>276</ele>
        <time>2017-06-26T08:52:18Z</time>
      </trkpt>
      <trkpt lat="45.98305" lon="4.88743">
        <ele>276</ele>
        <time>2017-06-26T08:52:19Z</time>
      </trkpt>
      <trkpt lat="45.98302" lon="4.88734">
        <ele>276</ele>
        <time>2017-06-26T08:52:20Z</time>
      </trkpt>
      <trkpt lat="45.98299" lon="4.88724">
        <ele>276</ele>
        <time>2017-06-26T08:52:21Z</time>
      </trkpt>
      <trkpt lat="45.98297" lon="4.88714">
        <ele>276</ele>
        <time>2017-06-26T08:52:22Z</time>
      </trkpt>
      <trkpt lat="45.98294" lon="4.88704">
        <ele>276</ele>
        <time>2017-06-26T08:52:23Z</time>
      </trkpt>
      <trkpt lat="45.98292" lon="4.88693">
        <ele>276</ele>
        <time>2017-06-26T08:52:24Z</time>
      </trkpt>
      <trkpt lat="45.98289" lon="4.88682">
        <ele>276</ele>
        <time>2017-06-26T08:52:25Z</time>
      </trkpt>
      <trkpt lat="45.98287" lon="4.8867">
        <ele>276</ele>
        <time>2017-06-26T08:52:26Z</time>
      </trkpt>
      <trkpt lat="45.98284" lon="4.88659">
        <ele>276</ele>
        <time>2017-06-26T08:52:27Z</time>
      </trkpt>
      <trkpt lat="45.98282" lon="4.88649">
        <ele>276</ele>
        <time>2017-06-26T08:52:28Z</time>
      </trkpt>
      <trkpt lat="45.98279" lon="4.88638">
        <ele>276</ele>
        <time>2017-06-26T08:52:29Z</time>
      </trkpt>
      <trkpt lat="45.98277" lon="4.88628">
        <ele>276</ele>
        <time>2017-06-26T08:52:30Z</time>
      </trkpt>
      <trkpt lat="45.98275" lon="4.88618">
        <ele>276</ele>
        <time>2017-06-26T08:52:31Z</time>
      </trkpt>
      <trkpt lat="45.98273" lon="4.88608">
        <ele>276</ele>
        <time>2017-06-26T08:52:32Z</time>
      </trkpt>
      <trkpt lat="45.9827" lon="4.88598">
        <ele>276</ele>
        <time>2017-06-26T08:52:33Z</time>
      </trkpt>
      <trkpt lat="45.98268" lon="4.88589">
        <ele>275</ele>
        <time>2017-06-26T08:52:34Z</time>
      </trkpt>
      <trkpt lat="45.98267" lon="4.8858">
        <ele>276</ele>
        <time>2017-06-26T08:52:35Z</time>
      </trkpt>
      <trkpt lat="45.98265" lon="4.88571">
        <ele>276</ele>
        <time>2017-06-26T08:52:36Z</time>
      </trkpt>
      <trkpt lat="45.98262" lon="4.88561">
        <ele>276</ele>
        <time>2017-06-26T08:52:37Z</time>
      </trkpt>
      <trkpt lat="45.9826" lon="4.88553">
        <ele>276</ele>
        <time>2017-06-26T08:52:38Z</time>
      </trkpt>
      <trkpt lat="45.98259" lon="4.88544">
        <ele>276</ele>
        <time>2017-06-26T08:52:39Z</time>
      </trkpt>
      <trkpt lat="45.98256" lon="4.88535">
        <ele>276</ele>
        <time>2017-06-26T08:52:40Z</time>
      </trkpt>
      <trkpt lat="45.98254" lon="4.88526">
        <ele>277</ele>
        <time>2017-06-26T08:52:41Z</time>
      </trkpt>
      <trkpt lat="45.98251" lon="4.88516">
        <ele>277</ele>
        <time>2017-06-26T08:52:42Z</time>
      </trkpt>
      <trkpt lat="45.98249" lon="4.88506">
        <ele>277</ele>
        <time>2017-06-26T08:52:43Z</time>
      </trkpt>
      <trkpt lat="45.98246" lon="4.88496">
        <ele>277</ele>
        <time>2017-06-26T08:52:44Z</time>
      </trkpt>
      <trkpt lat="45.98243" lon="4.88486">
        <ele>276</ele>
        <time>2017-06-26T08:52:45Z</time>
      </trkpt>
      <trkpt lat="45.98241" lon="4.88476">
        <ele>276</ele>
        <time>2017-06-26T08:52:46Z</time>
      </trkpt>
      <trkpt lat="45.98239" lon="4.88466">
        <ele>276</ele>
        <time>2017-06-26T08:52:47Z</time>
      </trkpt>
      <trkpt lat="45.98237" lon="4.88456">
        <ele>276</ele>
        <time>2017-06-26T08:52:48Z</time>
      </trkpt>
      <trkpt lat="45.98236" lon="4.88447">
        <ele>276</ele>
        <time>2017-06-26T08:52:49Z</time>
      </trkpt>
      <trkpt lat="45.98234" lon="4.88438">
        <ele>276</ele>
        <time>2017-06-26T08:52:50Z</time>
      </trkpt>
      <trkpt lat="45.98233" lon="4.88429">
        <ele>276</ele>
        <time>2017-06-26T08:52:51Z</time>
      </trkpt>
      <trkpt lat="45.98231" lon="4.88421">
        <ele>276</ele>
        <time>2017-06-26T08:52:52Z</time>
      </trkpt>
      <trkpt lat="45.98229" lon="4.88412">
        <ele>276</ele>
        <time>2017-06-26T08:52:53Z</time>
      </trkpt>
      <trkpt lat="45.98227" lon="4.88402">
        <ele>275</ele>
        <time>2017-06-26T08:52:54Z</time>
      </trkpt>
      <trkpt lat="45.98225" lon="4.88393">
        <ele>275</ele>
        <time>2017-06-26T08:52:55Z</time>
      </trkpt>
      <trkpt lat="45.98224" lon="4.88383">
        <ele>275</ele>
        <time>2017-06-26T08:52:56Z</time>
      </trkpt>
      <trkpt lat="45.98223" lon="4.88372">
        <ele>275</ele>
        <time>2017-06-26T08:52:57Z</time>
      </trkpt>
      <trkpt lat="45.98222" lon="4.88361">
        <ele>275</ele>
        <time>2017-06-26T08:52:58Z</time>
      </trkpt>
      <trkpt lat="45.98221" lon="4.8835">
        <ele>275</ele>
        <time>2017-06-26T08:52:59Z</time>
      </trkpt>
      <trkpt lat="45.98221" lon="4.8834">
        <ele>275</ele>
        <time>2017-06-26T08:53:00Z</time>
      </trkpt>
      <trkpt lat="45.98221" lon="4.88328">
        <ele>274</ele>
        <time>2017-06-26T08:53:01Z</time>
      </trkpt>
      <trkpt lat="45.9822" lon="4.88317">
        <ele>274</ele>
        <time>2017-06-26T08:53:02Z</time>
      </trkpt>
      <trkpt lat="45.98218" lon="4.88306">
        <ele>274</ele>
        <time>2017-06-26T08:53:03Z</time>
      </trkpt>
      <trkpt lat="45.98216" lon="4.88295">
        <ele>274</ele>
        <time>2017-06-26T08:53:04Z</time>
      </trkpt>
      <trkpt lat="45.98215" lon="4.88284">
        <ele>274</ele>
        <time>2017-06-26T08:53:05Z</time>
      </trkpt>
      <trkpt lat="45.98212" lon="4.88273">
        <ele>274</ele>
        <time>2017-06-26T08:53:06Z</time>
      </trkpt>
      <trkpt lat="45.9821" lon="4.88263">
        <ele>274</ele>
        <time>2017-06-26T08:53:07Z</time>
      </trkpt>
      <trkpt lat="45.98207" lon="4.88252">
        <ele>274</ele>
        <time>2017-06-26T08:53:08Z</time>
      </trkpt>
      <trkpt lat="45.98204" lon="4.88242">
        <ele>273</ele>
        <time>2017-06-26T08:53:09Z</time>
      </trkpt>
      <trkpt lat="45.98202" lon="4.88232">
        <ele>273</ele>
        <time>2017-06-26T08:53:10Z</time>
      </trkpt>
      <trkpt lat="45.98199" lon="4.88223">
        <ele>273</ele>
        <time>2017-06-26T08:53:11Z</time>
      </trkpt>
      <trkpt lat="45.98196" lon="4.88214">
        <ele>273</ele>
        <time>2017-06-26T08:53:12Z</time>
      </trkpt>
      <trkpt lat="45.98193" lon="4.88205">
        <ele>273</ele>
        <time>2017-06-26T08:53:13Z</time>
      </trkpt>
      <trkpt lat="45.9819" lon="4.88197">
        <ele>273</ele>
        <time>2017-06-26T08:53:14Z</time>
      </trkpt>
      <trkpt lat="45.98187" lon="4.88188">
        <ele>273</ele>
        <time>2017-06-26T08:53:15Z</time>
      </trkpt>
      <trkpt lat="45.98185" lon="4.88179">
        <ele>273</ele>
        <time>2017-06-26T08:53:16Z</time>
      </trkpt>
      <trkpt lat="45.98182" lon="4.8817">
        <ele>273</ele>
        <time>2017-06-26T08:53:17Z</time>
      </trkpt>
      <trkpt lat="45.98179" lon="4.88161">
        <ele>273</ele>
        <time>2017-06-26T08:53:18Z</time>
      </trkpt>
      <trkpt lat="45.98177" lon="4.88151">
        <ele>273</ele>
        <time>2017-06-26T08:53:19Z</time>
      </trkpt>
      <trkpt lat="45.98174" lon="4.88142">
        <ele>273</ele>
        <time>2017-06-26T08:53:20Z</time>
      </trkpt>
      <trkpt lat="45.98172" lon="4.88133">
        <ele>273</ele>
        <time>2017-06-26T08:53:21Z</time>
      </trkpt>
      <trkpt lat="45.98168" lon="4.88123">
        <ele>273</ele>
        <time>2017-06-26T08:53:22Z</time>
      </trkpt>
      <trkpt lat="45.98165" lon="4.88113">
        <ele>274</ele>
        <time>2017-06-26T08:53:23Z</time>
      </trkpt>
      <trkpt lat="45.98161" lon="4.88103">
        <ele>274</ele>
        <time>2017-06-26T08:53:24Z</time>
      </trkpt>
      <trkpt lat="45.98158" lon="4.88093">
        <ele>274</ele>
        <time>2017-06-26T08:53:25Z</time>
      </trkpt>
      <trkpt lat="45.98155" lon="4.88084">
        <ele>274</ele>
        <time>2017-06-26T08:53:26Z</time>
      </trkpt>
      <trkpt lat="45.98152" lon="4.88075">
        <ele>274</ele>
        <time>2017-06-26T08:53:27Z</time>
      </trkpt>
      <trkpt lat="45.9815" lon="4.88067">
        <ele>275</ele>
        <time>2017-06-26T08:53:28Z</time>
      </trkpt>
      <trkpt lat="45.98148" lon="4.88059">
        <ele>275</ele>
        <time>2017-06-26T08:53:29Z</time>
      </trkpt>
      <trkpt lat="45.98146" lon="4.88051">
        <ele>275</ele>
        <time>2017-06-26T08:53:30Z</time>
      </trkpt>
      <trkpt lat="45.98144" lon="4.88044">
        <ele>275</ele>
        <time>2017-06-26T08:53:31Z</time>
      </trkpt>
      <trkpt lat="45.98142" lon="4.88037">
        <ele>275</ele>
        <time>2017-06-26T08:53:32Z</time>
      </trkpt>
      <trkpt lat="45.9814" lon="4.8803">
        <ele>276</ele>
        <time>2017-06-26T08:53:33Z</time>
      </trkpt>
      <trkpt lat="45.98138" lon="4.88023">
        <ele>276</ele>
        <time>2017-06-26T08:53:34Z</time>
      </trkpt>
      <trkpt lat="45.98136" lon="4.88015">
        <ele>276</ele>
        <time>2017-06-26T08:53:35Z</time>
      </trkpt>
      <trkpt lat="45.98134" lon="4.88008">
        <ele>276</ele>
        <time>2017-06-26T08:53:36Z</time>
      </trkpt>
      <trkpt lat="45.98132" lon="4.88">
        <ele>277</ele>
        <time>2017-06-26T08:53:37Z</time>
      </trkpt>
      <trkpt lat="45.98129" lon="4.87992">
        <ele>277</ele>
        <time>2017-06-26T08:53:38Z</time>
      </trkpt>
      <trkpt lat="45.98127" lon="4.87985">
        <ele>277</ele>
        <time>2017-06-26T08:53:39Z</time>
      </trkpt>
      <trkpt lat="45.98124" lon="4.87977">
        <ele>277</ele>
        <time>2017-06-26T08:53:40Z</time>
      </trkpt>
      <trkpt lat="45.98122" lon="4.87969">
        <ele>277</ele>
        <time>2017-06-26T08:53:41Z</time>
      </trkpt>
      <trkpt lat="45.9812" lon="4.87961">
        <ele>277</ele>
        <time>2017-06-26T08:53:42Z</time>
      </trkpt>
      <trkpt lat="45.98118" lon="4.87954">
        <ele>277</ele>
        <time>2017-06-26T08:53:43Z</time>
      </trkpt>
      <trkpt lat="45.98115" lon="4.87946">
        <ele>277</ele>
        <time>2017-06-26T08:53:44Z</time>
      </trkpt>
      <trkpt lat="45.98113" lon="4.87939">
        <ele>277</ele>
        <time>2017-06-26T08:53:45Z</time>
      </trkpt>
      <trkpt lat="45.98111" lon="4.87932">
        <ele>277</ele>
        <time>2017-06-26T08:53:46Z</time>
      </trkpt>
      <trkpt lat="45.98109" lon="4.87925">
        <ele>277</ele>
        <time>2017-06-26T08:53:47Z</time>
      </trkpt>
      <trkpt lat="45.98106" lon="4.87918">
        <ele>277</ele>
        <time>2017-06-26T08:53:48Z</time>
      </trkpt>
      <trkpt lat="45.98104" lon="4.87912">
        <ele>278</ele>
        <time>2017-06-26T08:53:49Z</time>
      </trkpt>
      <trkpt lat="45.98102" lon="4.87906">
        <ele>278</ele>
        <time>2017-06-26T08:53:50Z</time>
      </trkpt>
      <trkpt lat="45.98101" lon="4.879">
        <ele>278</ele>
        <time>2017-06-26T08:53:51Z</time>
      </trkpt>
      <trkpt lat="45.98099" lon="4.87893">
        <ele>278</ele>
        <time>2017-06-26T08:53:52Z</time>
      </trkpt>
      <trkpt lat="45.98097" lon="4.87887">
        <ele>278</ele>
        <time>2017-06-26T08:53:53Z</time>
      </trkpt>
      <trkpt lat="45.98095" lon="4.8788">
        <ele>278</ele>
        <time>2017-06-26T08:53:54Z</time>
      </trkpt>
      <trkpt lat="45.98094" lon="4.87873">
        <ele>278</ele>
        <time>2017-06-26T08:53:55Z</time>
      </trkpt>
      <trkpt lat="45.98091" lon="4.87866">
        <ele>278</ele>
        <time>2017-06-26T08:53:56Z</time>
      </trkpt>
      <trkpt lat="45.9809" lon="4.8786">
        <ele>278</ele>
        <time>2017-06-26T08:53:57Z</time>
      </trkpt>
      <trkpt lat="45.98088" lon="4.87853">
        <ele>278</ele>
        <time>2017-06-26T08:53:58Z</time>
      </trkpt>
      <trkpt lat="45.98086" lon="4.87847">
        <ele>278</ele>
        <time>2017-06-26T08:53:59Z</time>
      </trkpt>
      <trkpt lat="45.98085" lon="4.87841">
        <ele>279</ele>
        <time>2017-06-26T08:54:00Z</time>
      </trkpt>
      <trkpt lat="45.98083" lon="4.87835">
        <ele>279</ele>
        <time>2017-06-26T08:54:01Z</time>
      </trkpt>
      <trkpt lat="45.98081" lon="4.87829">
        <ele>279</ele>
        <time>2017-06-26T08:54:02Z</time>
      </trkpt>
      <trkpt lat="45.98079" lon="4.87823">
        <ele>279</ele>
        <time>2017-06-26T08:54:03Z</time>
      </trkpt>
      <trkpt lat="45.98077" lon="4.87817">
        <ele>279</ele>
        <time>2017-06-26T08:54:04Z</time>
      </trkpt>
      <trkpt lat="45.98075" lon="4.8781">
        <ele>280</ele>
        <time>2017-06-26T08:54:05Z</time>
      </trkpt>
      <trkpt lat="45.98073" lon="4.87803">
        <ele>280</ele>
        <time>2017-06-26T08:54:06Z</time>
      </trkpt>
      <trkpt lat="45.98072" lon="4.87797">
        <ele>280</ele>
        <time>2017-06-26T08:54:07Z</time>
      </trkpt>
      <trkpt lat="45.9807" lon="4.8779">
        <ele>280</ele>
        <time>2017-06-26T08:54:08Z</time>
      </trkpt>
      <trkpt lat="45.98068" lon="4.87784">
        <ele>280</ele>
        <time>2017-06-26T08:54:09Z</time>
      </trkpt>
      <trkpt lat="45.98066" lon="4.87778">
        <ele>280</ele>
        <time>2017-06-26T08:54:10Z</time>
      </trkpt>
      <trkpt lat="45.98063" lon="4.87772">
        <ele>280</ele>
        <time>2017-06-26T08:54:11Z</time>
      </trkpt>
      <trkpt lat="45.98059" lon="4.8776">
        <ele>280</ele>
        <time>2017-06-26T08:54:13Z</time>
      </trkpt>
      <trkpt lat="45.98058" lon="4.87754">
        <ele>280</ele>
        <time>2017-06-26T08:54:14Z</time>
      </trkpt>
      <trkpt lat="45.98056" lon="4.87748">
        <ele>280</ele>
        <time>2017-06-26T08:54:15Z</time>
      </trkpt>
      <trkpt lat="45.98054" lon="4.87742">
        <ele>280</ele>
        <time>2017-06-26T08:54:16Z</time>
      </trkpt>
      <trkpt lat="45.98053" lon="4.87736">
        <ele>280</ele>
        <time>2017-06-26T08:54:17Z</time>
      </trkpt>
      <trkpt lat="45.9805" lon="4.87729">
        <ele>280</ele>
        <time>2017-06-26T08:54:18Z</time>
      </trkpt>
      <trkpt lat="45.98048" lon="4.87723">
        <ele>280</ele>
        <time>2017-06-26T08:54:19Z</time>
      </trkpt>
      <trkpt lat="45.98046" lon="4.87716">
        <ele>280</ele>
        <time>2017-06-26T08:54:20Z</time>
      </trkpt>
      <trkpt lat="45.98043" lon="4.8771">
        <ele>280</ele>
        <time>2017-06-26T08:54:21Z</time>
      </trkpt>
      <trkpt lat="45.98041" lon="4.87704">
        <ele>280</ele>
        <time>2017-06-26T08:54:22Z</time>
      </trkpt>
      <trkpt lat="45.9804" lon="4.87698">
        <ele>280</ele>
        <time>2017-06-26T08:54:23Z</time>
      </trkpt>
      <trkpt lat="45.98038" lon="4.87692">
        <ele>280</ele>
        <time>2017-06-26T08:54:24Z</time>
      </trkpt>
      <trkpt lat="45.98036" lon="4.87686">
        <ele>280</ele>
        <time>2017-06-26T08:54:25Z</time>
      </trkpt>
      <trkpt lat="45.98034" lon="4.87679">
        <ele>280</ele>
        <time>2017-06-26T08:54:26Z</time>
      </trkpt>
      <trkpt lat="45.98032" lon="4.87667">
        <ele>280</ele>
        <time>2017-06-26T08:54:28Z</time>
      </trkpt>
      <trkpt lat="45.9803" lon="4.87662">
        <ele>280</ele>
        <time>2017-06-26T08:54:29Z</time>
      </trkpt>
      <trkpt lat="45.98027" lon="4.87651">
        <ele>280</ele>
        <time>2017-06-26T08:54:31Z</time>
      </trkpt>
      <trkpt lat="45.98025" lon="4.87645">
        <ele>280</ele>
        <time>2017-06-26T08:54:32Z</time>
      </trkpt>
      <trkpt lat="45.98022" lon="4.87639">
        <ele>280</ele>
        <time>2017-06-26T08:54:33Z</time>
      </trkpt>
      <trkpt lat="45.9802" lon="4.87633">
        <ele>280</ele>
        <time>2017-06-26T08:54:34Z</time>
      </trkpt>
      <trkpt lat="45.98018" lon="4.87627">
        <ele>280</ele>
        <time>2017-06-26T08:54:35Z</time>
      </trkpt>
      <trkpt lat="45.98016" lon="4.8762">
        <ele>280</ele>
        <time>2017-06-26T08:54:36Z</time>
      </trkpt>
      <trkpt lat="45.98014" lon="4.87613">
        <ele>280</ele>
        <time>2017-06-26T08:54:37Z</time>
      </trkpt>
      <trkpt lat="45.98011" lon="4.87606">
        <ele>280</ele>
        <time>2017-06-26T08:54:38Z</time>
      </trkpt>
      <trkpt lat="45.98009" lon="4.87599">
        <ele>280</ele>
        <time>2017-06-26T08:54:39Z</time>
      </trkpt>
      <trkpt lat="45.98006" lon="4.87593">
        <ele>280</ele>
        <time>2017-06-26T08:54:40Z</time>
      </trkpt>
      <trkpt lat="45.98003" lon="4.87586">
        <ele>280</ele>
        <time>2017-06-26T08:54:41Z</time>
      </trkpt>
      <trkpt lat="45.98" lon="4.8758">
        <ele>280</ele>
        <time>2017-06-26T08:54:42Z</time>
      </trkpt>
      <trkpt lat="45.97996" lon="4.87574">
        <ele>280</ele>
        <time>2017-06-26T08:54:43Z</time>
      </trkpt>
      <trkpt lat="45.97991" lon="4.87569">
        <ele>280</ele>
        <time>2017-06-26T08:54:44Z</time>
      </trkpt>
      <trkpt lat="45.97987" lon="4.87564">
        <ele>279</ele>
        <time>2017-06-26T08:54:45Z</time>
      </trkpt>
      <trkpt lat="45.97982" lon="4.8756">
        <ele>279</ele>
        <time>2017-06-26T08:54:46Z</time>
      </trkpt>
      <trkpt lat="45.97976" lon="4.87556">
        <ele>279</ele>
        <time>2017-06-26T08:54:47Z</time>
      </trkpt>
      <trkpt lat="45.97971" lon="4.87552">
        <ele>279</ele>
        <time>2017-06-26T08:54:48Z</time>
      </trkpt>
      <trkpt lat="45.97966" lon="4.87549">
        <ele>279</ele>
        <time>2017-06-26T08:54:49Z</time>
      </trkpt>
      <trkpt lat="45.97961" lon="4.87546">
        <ele>279</ele>
        <time>2017-06-26T08:54:50Z</time>
      </trkpt>
      <trkpt lat="45.97956" lon="4.87543">
        <ele>279</ele>
        <time>2017-06-26T08:54:51Z</time>
      </trkpt>
      <trkpt lat="45.9795" lon="4.8754">
        <ele>279</ele>
        <time>2017-06-26T08:54:52Z</time>
      </trkpt>
      <trkpt lat="45.97945" lon="4.87537">
        <ele>279</ele>
        <time>2017-06-26T08:54:53Z</time>
      </trkpt>
      <trkpt lat="45.97939" lon="4.87534">
        <ele>279</ele>
        <time>2017-06-26T08:54:54Z</time>
      </trkpt>
      <trkpt lat="45.97934" lon="4.87532">
        <ele>279</ele>
        <time>2017-06-26T08:54:55Z</time>
      </trkpt>
      <trkpt lat="45.97928" lon="4.8753">
        <ele>279</ele>
        <time>2017-06-26T08:54:56Z</time>
      </trkpt>
      <trkpt lat="45.97923" lon="4.87527">
        <ele>279</ele>
        <time>2017-06-26T08:54:57Z</time>
      </trkpt>
      <trkpt lat="45.97917" lon="4.87525">
        <ele>280</ele>
        <time>2017-06-26T08:54:58Z</time>
      </trkpt>
      <trkpt lat="45.9791" lon="4.87522">
        <ele>280</ele>
        <time>2017-06-26T08:54:59Z</time>
      </trkpt>
      <trkpt lat="45.97904" lon="4.8752">
        <ele>280</ele>
        <time>2017-06-26T08:55:00Z</time>
      </trkpt>
      <trkpt lat="45.97898" lon="4.87517">
        <ele>280</ele>
        <time>2017-06-26T08:55:01Z</time>
      </trkpt>
      <trkpt lat="45.97892" lon="4.87514">
        <ele>280</ele>
        <time>2017-06-26T08:55:02Z</time>
      </trkpt>
      <trkpt lat="45.97886" lon="4.87511">
        <ele>281</ele>
        <time>2017-06-26T08:55:03Z</time>
      </trkpt>
      <trkpt lat="45.97881" lon="4.87508">
        <ele>281</ele>
        <time>2017-06-26T08:55:04Z</time>
      </trkpt>
      <trkpt lat="45.97875" lon="4.87504">
        <ele>281</ele>
        <time>2017-06-26T08:55:05Z</time>
      </trkpt>
      <trkpt lat="45.9787" lon="4.875">
        <ele>280</ele>
        <time>2017-06-26T08:55:06Z</time>
      </trkpt>
      <trkpt lat="45.97864" lon="4.87495">
        <ele>280</ele>
        <time>2017-06-26T08:55:07Z</time>
      </trkpt>
      <trkpt lat="45.97859" lon="4.8749">
        <ele>281</ele>
        <time>2017-06-26T08:55:08Z</time>
      </trkpt>
      <trkpt lat="45.97855" lon="4.87485">
        <ele>281</ele>
        <time>2017-06-26T08:55:09Z</time>
      </trkpt>
      <trkpt lat="45.9785" lon="4.8748">
        <ele>281</ele>
        <time>2017-06-26T08:55:10Z</time>
      </trkpt>
      <trkpt lat="45.97845" lon="4.87475">
        <ele>281</ele>
        <time>2017-06-26T08:55:11Z</time>
      </trkpt>
      <trkpt lat="45.97841" lon="4.8747">
        <ele>281</ele>
        <time>2017-06-26T08:55:12Z</time>
      </trkpt>
      <trkpt lat="45.97837" lon="4.87466">
        <ele>281</ele>
        <time>2017-06-26T08:55:13Z</time>
      </trkpt>
      <trkpt lat="45.97833" lon="4.87462">
        <ele>282</ele>
        <time>2017-06-26T08:55:14Z</time>
      </trkpt>
      <trkpt lat="45.97829" lon="4.87457">
        <ele>282</ele>
        <time>2017-06-26T08:55:15Z</time>
      </trkpt>
      <trkpt lat="45.97825" lon="4.87452">
        <ele>282</ele>
        <time>2017-06-26T08:55:16Z</time>
      </trkpt>
      <trkpt lat="45.9782" lon="4.87447">
        <ele>282</ele>
        <time>2017-06-26T08:55:17Z</time>
      </trkpt>
      <trkpt lat="45.97816" lon="4.87442">
        <ele>282</ele>
        <time>2017-06-26T08:55:18Z</time>
      </trkpt>
      <trkpt lat="45.97812" lon="4.87437">
        <ele>282</ele>
        <time>2017-06-26T08:55:19Z</time>
      </trkpt>
      <trkpt lat="45.97807" lon="4.87432">
        <ele>282</ele>
        <time>2017-06-26T08:55:20Z</time>
      </trkpt>
      <trkpt lat="45.97803" lon="4.87427">
        <ele>283</ele>
        <time>2017-06-26T08:55:21Z</time>
      </trkpt>
      <trkpt lat="45.97798" lon="4.87421">
        <ele>283</ele>
        <time>2017-06-26T08:55:22Z</time>
      </trkpt>
      <trkpt lat="45.97793" lon="4.87416">
        <ele>284</ele>
        <time>2017-06-26T08:55:23Z</time>
      </trkpt>
      <trkpt lat="45.97789" lon="4.8741">
        <ele>284</ele>
        <time>2017-06-26T08:55:24Z</time>
      </trkpt>
      <trkpt lat="45.97784" lon="4.87404">
        <ele>284</ele>
        <time>2017-06-26T08:55:25Z</time>
      </trkpt>
      <trkpt lat="45.9778" lon="4.87399">
        <ele>284</ele>
        <time>2017-06-26T08:55:26Z</time>
      </trkpt>
      <trkpt lat="45.97776" lon="4.87394">
        <ele>284</ele>
        <time>2017-06-26T08:55:27Z</time>
      </trkpt>
      <trkpt lat="45.97772" lon="4.87389">
        <ele>284</ele>
        <time>2017-06-26T08:55:28Z</time>
      </trkpt>
      <trkpt lat="45.97768" lon="4.87384">
        <ele>284</ele>
        <time>2017-06-26T08:55:29Z</time>
      </trkpt>
      <trkpt lat="45.97765" lon="4.87379">
        <ele>284</ele>
        <time>2017-06-26T08:55:30Z</time>
      </trkpt>
      <trkpt lat="45.97762" lon="4.87375">
        <ele>284</ele>
        <time>2017-06-26T08:55:31Z</time>
      </trkpt>
      <trkpt lat="45.97758" lon="4.8737">
        <ele>285</ele>
        <time>2017-06-26T08:55:32Z</time>
      </trkpt>
      <trkpt lat="45.97752" lon="4.87361">
        <ele>285</ele>
        <time>2017-06-26T08:55:34Z</time>
      </trkpt>
      <trkpt lat="45.97749" lon="4.87357">
        <ele>286</ele>
        <time>2017-06-26T08:55:35Z</time>
      </trkpt>
      <trkpt lat="45.97743" lon="4.87349">
        <ele>286</ele>
        <time>2017-06-26T08:55:37Z</time>
      </trkpt>
      <trkpt lat="45.9774" lon="4.87345">
        <ele>286</ele>
        <time>2017-06-26T08:55:38Z</time>
      </trkpt>
      <trkpt lat="45.97734" lon="4.87336">
        <ele>286</ele>
        <time>2017-06-26T08:55:40Z</time>
      </trkpt>
      <trkpt lat="45.9773" lon="4.87332">
        <ele>286</ele>
        <time>2017-06-26T08:55:41Z</time>
      </trkpt>
      <trkpt lat="45.97727" lon="4.87327">
        <ele>286</ele>
        <time>2017-06-26T08:55:42Z</time>
      </trkpt>
      <trkpt lat="45.97723" lon="4.87323">
        <ele>286</ele>
        <time>2017-06-26T08:55:43Z</time>
      </trkpt>
      <trkpt lat="45.9772" lon="4.87319">
        <ele>286</ele>
        <time>2017-06-26T08:55:44Z</time>
      </trkpt>
      <trkpt lat="45.97715" lon="4.87314">
        <ele>286</ele>
        <time>2017-06-26T08:55:45Z</time>
      </trkpt>
      <trkpt lat="45.97712" lon="4.8731">
        <ele>286</ele>
        <time>2017-06-26T08:55:46Z</time>
      </trkpt>
      <trkpt lat="45.97708" lon="4.87306">
        <ele>286</ele>
        <time>2017-06-26T08:55:47Z</time>
      </trkpt>
      <trkpt lat="45.97704" lon="4.87302">
        <ele>286</ele>
        <time>2017-06-26T08:55:48Z</time>
      </trkpt>
      <trkpt lat="45.97701" lon="4.87298">
        <ele>286</ele>
        <time>2017-06-26T08:55:49Z</time>
      </trkpt>
      <trkpt lat="45.97694" lon="4.8729">
        <ele>286</ele>
        <time>2017-06-26T08:55:51Z</time>
      </trkpt>
      <trkpt lat="45.9769" lon="4.87287">
        <ele>286</ele>
        <time>2017-06-26T08:55:52Z</time>
      </trkpt>
      <trkpt lat="45.97686" lon="4.87283">
        <ele>286</ele>
        <time>2017-06-26T08:55:53Z</time>
      </trkpt>
      <trkpt lat="45.97682" lon="4.87279">
        <ele>286</ele>
        <time>2017-06-26T08:55:54Z</time>
      </trkpt>
      <trkpt lat="45.97678" lon="4.87276">
        <ele>286</ele>
        <time>2017-06-26T08:55:55Z</time>
      </trkpt>
      <trkpt lat="45.97674" lon="4.87272">
        <ele>286</ele>
        <time>2017-06-26T08:55:56Z</time>
      </trkpt>
      <trkpt lat="45.9767" lon="4.87268">
        <ele>286</ele>
        <time>2017-06-26T08:55:57Z</time>
      </trkpt>
      <trkpt lat="45.97666" lon="4.87264">
        <ele>285</ele>
        <time>2017-06-26T08:55:58Z</time>
      </trkpt>
      <trkpt lat="45.97662" lon="4.8726">
        <ele>286</ele>
        <time>2017-06-26T08:55:59Z</time>
      </trkpt>
      <trkpt lat="45.97658" lon="4.87256">
        <ele>286</ele>
        <time>2017-06-26T08:56:00Z</time>
      </trkpt>
      <trkpt lat="45.97654" lon="4.87252">
        <ele>285</ele>
        <time>2017-06-26T08:56:01Z</time>
      </trkpt>
      <trkpt lat="45.9765" lon="4.87248">
        <ele>285</ele>
        <time>2017-06-26T08:56:02Z</time>
      </trkpt>
      <trkpt lat="45.97646" lon="4.87244">
        <ele>285</ele>
        <time>2017-06-26T08:56:03Z</time>
      </trkpt>
      <trkpt lat="45.97641" lon="4.87241">
        <ele>284</ele>
        <time>2017-06-26T08:56:04Z</time>
      </trkpt>
      <trkpt lat="45.97634" lon="4.87234">
        <ele>284</ele>
        <time>2017-06-26T08:56:06Z</time>
      </trkpt>
      <trkpt lat="45.97631" lon="4.87231">
        <ele>284</ele>
        <time>2017-06-26T08:56:07Z</time>
      </trkpt>
      <trkpt lat="45.97624" lon="4.87223">
        <ele>284</ele>
        <time>2017-06-26T08:56:09Z</time>
      </trkpt>
      <trkpt lat="45.9762" lon="4.87219">
        <ele>284</ele>
        <time>2017-06-26T08:56:10Z</time>
      </trkpt>
      <trkpt lat="45.97613" lon="4.87212">
        <ele>284</ele>
        <time>2017-06-26T08:56:12Z</time>
      </trkpt>
      <trkpt lat="45.97608" lon="4.87208">
        <ele>284</ele>
        <time>2017-06-26T08:56:13Z</time>
      </trkpt>
      <trkpt lat="45.97604" lon="4.87204">
        <ele>284</ele>
        <time>2017-06-26T08:56:14Z</time>
      </trkpt>
      <trkpt lat="45.97599" lon="4.87199">
        <ele>283</ele>
        <time>2017-06-26T08:56:15Z</time>
      </trkpt>
      <trkpt lat="45.97595" lon="4.87195">
        <ele>283</ele>
        <time>2017-06-26T08:56:16Z</time>
      </trkpt>
      <trkpt lat="45.9759" lon="4.87189">
        <ele>283</ele>
        <time>2017-06-26T08:56:17Z</time>
      </trkpt>
      <trkpt lat="45.97585" lon="4.87184">
        <ele>283</ele>
        <time>2017-06-26T08:56:18Z</time>
      </trkpt>
      <trkpt lat="45.9758" lon="4.8718">
        <ele>283</ele>
        <time>2017-06-26T08:56:19Z</time>
      </trkpt>
      <trkpt lat="45.97575" lon="4.87176">
        <ele>283</ele>
        <time>2017-06-26T08:56:20Z</time>
      </trkpt>
      <trkpt lat="45.97571" lon="4.87172">
        <ele>283</ele>
        <time>2017-06-26T08:56:21Z</time>
      </trkpt>
      <trkpt lat="45.97567" lon="4.87168">
        <ele>283</ele>
        <time>2017-06-26T08:56:22Z</time>
      </trkpt>
      <trkpt lat="45.97563" lon="4.87164">
        <ele>283</ele>
        <time>2017-06-26T08:56:23Z</time>
      </trkpt>
      <trkpt lat="45.97559" lon="4.8716">
        <ele>283</ele>
        <time>2017-06-26T08:56:24Z</time>
      </trkpt>
      <trkpt lat="45.97555" lon="4.87157">
        <ele>283</ele>
        <time>2017-06-26T08:56:25Z</time>
      </trkpt>
      <trkpt lat="45.97547" lon="4.8715">
        <ele>283</ele>
        <time>2017-06-26T08:56:27Z</time>
      </trkpt>
      <trkpt lat="45.97542" lon="4.87144">
        <ele>283</ele>
        <time>2017-06-26T08:56:28Z</time>
      </trkpt>
      <trkpt lat="45.97537" lon="4.8714">
        <ele>283</ele>
        <time>2017-06-26T08:56:29Z</time>
      </trkpt>
      <trkpt lat="45.97533" lon="4.87135">
        <ele>283</ele>
        <time>2017-06-26T08:56:30Z</time>
      </trkpt>
      <trkpt lat="45.97528" lon="4.87132">
        <ele>283</ele>
        <time>2017-06-26T08:56:31Z</time>
      </trkpt>
      <trkpt lat="45.97523" lon="4.87128">
        <ele>283</ele>
        <time>2017-06-26T08:56:32Z</time>
      </trkpt>
      <trkpt lat="45.97519" lon="4.87124">
        <ele>283</ele>
        <time>2017-06-26T08:56:33Z</time>
      </trkpt>
      <trkpt lat="45.97515" lon="4.87121">
        <ele>283</ele>
        <time>2017-06-26T08:56:34Z</time>
      </trkpt>
      <trkpt lat="45.9751" lon="4.87117">
        <ele>283</ele>
        <time>2017-06-26T08:56:35Z</time>
      </trkpt>
      <trkpt lat="45.97506" lon="4.87113">
        <ele>283</ele>
        <time>2017-06-26T08:56:36Z</time>
      </trkpt>
      <trkpt lat="45.97501" lon="4.87109">
        <ele>283</ele>
        <time>2017-06-26T08:56:37Z</time>
      </trkpt>
      <trkpt lat="45.97498" lon="4.87105">
        <ele>283</ele>
        <time>2017-06-26T08:56:38Z</time>
      </trkpt>
      <trkpt lat="45.97494" lon="4.87101">
        <ele>283</ele>
        <time>2017-06-26T08:56:39Z</time>
      </trkpt>
      <trkpt lat="45.9749" lon="4.87097">
        <ele>283</ele>
        <time>2017-06-26T08:56:40Z</time>
      </trkpt>
      <trkpt lat="45.97484" lon="4.87091">
        <ele>283</ele>
        <time>2017-06-26T08:56:42Z</time>
      </trkpt>
      <trkpt lat="45.97481" lon="4.87087">
        <ele>283</ele>
        <time>2017-06-26T08:56:43Z</time>
      </trkpt>
      <trkpt lat="45.97473" lon="4.8708">
        <ele>284</ele>
        <time>2017-06-26T08:56:45Z</time>
      </trkpt>
      <trkpt lat="45.9747" lon="4.87076">
        <ele>284</ele>
        <time>2017-06-26T08:56:46Z</time>
      </trkpt>
      <trkpt lat="45.97463" lon="4.87068">
        <ele>284</ele>
        <time>2017-06-26T08:56:48Z</time>
      </trkpt>
      <trkpt lat="45.97458" lon="4.87063">
        <ele>284</ele>
        <time>2017-06-26T08:56:49Z</time>
      </trkpt>
      <trkpt lat="45.97455" lon="4.87059">
        <ele>284</ele>
        <time>2017-06-26T08:56:50Z</time>
      </trkpt>
      <trkpt lat="45.97451" lon="4.87056">
        <ele>284</ele>
        <time>2017-06-26T08:56:51Z</time>
      </trkpt>
      <trkpt lat="45.97447" lon="4.87052">
        <ele>284</ele>
        <time>2017-06-26T08:56:52Z</time>
      </trkpt>
      <trkpt lat="45.97442" lon="4.87047">
        <ele>284</ele>
        <time>2017-06-26T08:56:53Z</time>
      </trkpt>
      <trkpt lat="45.97438" lon="4.87043">
        <ele>284</ele>
        <time>2017-06-26T08:56:54Z</time>
      </trkpt>
      <trkpt lat="45.97434" lon="4.87038">
        <ele>284</ele>
        <time>2017-06-26T08:56:55Z</time>
      </trkpt>
      <trkpt lat="45.97431" lon="4.87034">
        <ele>284</ele>
        <time>2017-06-26T08:56:56Z</time>
      </trkpt>
      <trkpt lat="45.97427" lon="4.8703">
        <ele>284</ele>
        <time>2017-06-26T08:56:57Z</time>
      </trkpt>
      <trkpt lat="45.97423" lon="4.87026">
        <ele>284</ele>
        <time>2017-06-26T08:56:58Z</time>
      </trkpt>
      <trkpt lat="45.97418" lon="4.87021">
        <ele>284</ele>
        <time>2017-06-26T08:56:59Z</time>
      </trkpt>
      <trkpt lat="45.97413" lon="4.87017">
        <ele>285</ele>
        <time>2017-06-26T08:57:00Z</time>
      </trkpt>
      <trkpt lat="45.97409" lon="4.87012">
        <ele>285</ele>
        <time>2017-06-26T08:57:01Z</time>
      </trkpt>
      <trkpt lat="45.97405" lon="4.87008">
        <ele>285</ele>
        <time>2017-06-26T08:57:02Z</time>
      </trkpt>
      <trkpt lat="45.97401" lon="4.87004">
        <ele>285</ele>
        <time>2017-06-26T08:57:03Z</time>
      </trkpt>
      <trkpt lat="45.97394" lon="4.86996">
        <ele>285</ele>
        <time>2017-06-26T08:57:05Z</time>
      </trkpt>
      <trkpt lat="45.97391" lon="4.86992">
        <ele>285</ele>
        <time>2017-06-26T08:57:06Z</time>
      </trkpt>
      <trkpt lat="45.97384" lon="4.86984">
        <ele>285</ele>
        <time>2017-06-26T08:57:08Z</time>
      </trkpt>
      <trkpt lat="45.97381" lon="4.8698">
        <ele>285</ele>
        <time>2017-06-26T08:57:09Z</time>
      </trkpt>
      <trkpt lat="45.97377" lon="4.86976">
        <ele>285</ele>
        <time>2017-06-26T08:57:10Z</time>
      </trkpt>
      <trkpt lat="45.97373" lon="4.86971">
        <ele>285</ele>
        <time>2017-06-26T08:57:11Z</time>
      </trkpt>
      <trkpt lat="45.97368" lon="4.86966">
        <ele>285</ele>
        <time>2017-06-26T08:57:12Z</time>
      </trkpt>
      <trkpt lat="45.97364" lon="4.86961">
        <ele>285</ele>
        <time>2017-06-26T08:57:13Z</time>
      </trkpt>
      <trkpt lat="45.9736" lon="4.86956">
        <ele>284</ele>
        <time>2017-06-26T08:57:14Z</time>
      </trkpt>
      <trkpt lat="45.97356" lon="4.86951">
        <ele>284</ele>
        <time>2017-06-26T08:57:15Z</time>
      </trkpt>
      <trkpt lat="45.97352" lon="4.86946">
        <ele>284</ele>
        <time>2017-06-26T08:57:16Z</time>
      </trkpt>
      <trkpt lat="45.97348" lon="4.86941">
        <ele>284</ele>
        <time>2017-06-26T08:57:17Z</time>
      </trkpt>
      <trkpt lat="45.97344" lon="4.86937">
        <ele>284</ele>
        <time>2017-06-26T08:57:18Z</time>
      </trkpt>
      <trkpt lat="45.97341" lon="4.86933">
        <ele>284</ele>
        <time>2017-06-26T08:57:19Z</time>
      </trkpt>
      <trkpt lat="45.97337" lon="4.86928">
        <ele>284</ele>
        <time>2017-06-26T08:57:20Z</time>
      </trkpt>
      <trkpt lat="45.97333" lon="4.86923">
        <ele>284</ele>
        <time>2017-06-26T08:57:21Z</time>
      </trkpt>
      <trkpt lat="45.97329" lon="4.86919">
        <ele>284</ele>
        <time>2017-06-26T08:57:22Z</time>
      </trkpt>
      <trkpt lat="45.97326" lon="4.86914">
        <ele>284</ele>
        <time>2017-06-26T08:57:23Z</time>
      </trkpt>
      <trkpt lat="45.97319" lon="4.86906">
        <ele>284</ele>
        <time>2017-06-26T08:57:25Z</time>
      </trkpt>
      <trkpt lat="45.97317" lon="4.86902">
        <ele>284</ele>
        <time>2017-06-26T08:57:26Z</time>
      </trkpt>
      <trkpt lat="45.97311" lon="4.86893">
        <ele>284</ele>
        <time>2017-06-26T08:57:28Z</time>
      </trkpt>
      <trkpt lat="45.97307" lon="4.86888">
        <ele>284</ele>
        <time>2017-06-26T08:57:29Z</time>
      </trkpt>
      <trkpt lat="45.97303" lon="4.86883">
        <ele>284</ele>
        <time>2017-06-26T08:57:30Z</time>
      </trkpt>
      <trkpt lat="45.97299" lon="4.86878">
        <ele>284</ele>
        <time>2017-06-26T08:57:31Z</time>
      </trkpt>
      <trkpt lat="45.97296" lon="4.86872">
        <ele>284</ele>
        <time>2017-06-26T08:57:32Z</time>
      </trkpt>
      <trkpt lat="45.97292" lon="4.86866">
        <ele>284</ele>
        <time>2017-06-26T08:57:33Z</time>
      </trkpt>
      <trkpt lat="45.97288" lon="4.86859">
        <ele>285</ele>
        <time>2017-06-26T08:57:34Z</time>
      </trkpt>
      <trkpt lat="45.97285" lon="4.86853">
        <ele>285</ele>
        <time>2017-06-26T08:57:35Z</time>
      </trkpt>
      <trkpt lat="45.97281" lon="4.86846">
        <ele>285</ele>
        <time>2017-06-26T08:57:36Z</time>
      </trkpt>
      <trkpt lat="45.97278" lon="4.86839">
        <ele>285</ele>
        <time>2017-06-26T08:57:37Z</time>
      </trkpt>
      <trkpt lat="45.97275" lon="4.86833">
        <ele>285</ele>
        <time>2017-06-26T08:57:38Z</time>
      </trkpt>
      <trkpt lat="45.97271" lon="4.86827">
        <ele>285</ele>
        <time>2017-06-26T08:57:39Z</time>
      </trkpt>
      <trkpt lat="45.97267" lon="4.86821">
        <ele>285</ele>
        <time>2017-06-26T08:57:40Z</time>
      </trkpt>
      <trkpt lat="45.97263" lon="4.86815">
        <ele>285</ele>
        <time>2017-06-26T08:57:41Z</time>
      </trkpt>
      <trkpt lat="45.9726" lon="4.8681">
        <ele>285</ele>
        <time>2017-06-26T08:57:42Z</time>
      </trkpt>
      <trkpt lat="45.97256" lon="4.86805">
        <ele>285</ele>
        <time>2017-06-26T08:57:43Z</time>
      </trkpt>
      <trkpt lat="45.97251" lon="4.86801">
        <ele>285</ele>
        <time>2017-06-26T08:57:44Z</time>
      </trkpt>
      <trkpt lat="45.97245" lon="4.86798">
        <ele>284</ele>
        <time>2017-06-26T08:57:45Z</time>
      </trkpt>
      <trkpt lat="45.9724" lon="4.86795">
        <ele>284</ele>
        <time>2017-06-26T08:57:46Z</time>
      </trkpt>
      <trkpt lat="45.97234" lon="4.86794">
        <ele>284</ele>
        <time>2017-06-26T08:57:47Z</time>
      </trkpt>
      <trkpt lat="45.97228" lon="4.86793">
        <ele>284</ele>
        <time>2017-06-26T08:57:48Z</time>
      </trkpt>
      <trkpt lat="45.97221" lon="4.86793">
        <ele>284</ele>
        <time>2017-06-26T08:57:49Z</time>
      </trkpt>
      <trkpt lat="45.97215" lon="4.86794">
        <ele>284</ele>
        <time>2017-06-26T08:57:50Z</time>
      </trkpt>
      <trkpt lat="45.97209" lon="4.86795">
        <ele>284</ele>
        <time>2017-06-26T08:57:51Z</time>
      </trkpt>
      <trkpt lat="45.97203" lon="4.86797">
        <ele>284</ele>
        <time>2017-06-26T08:57:52Z</time>
      </trkpt>
      <trkpt lat="45.97198" lon="4.86799">
        <ele>284</ele>
        <time>2017-06-26T08:57:53Z</time>
      </trkpt>
      <trkpt lat="45.97193" lon="4.868">
        <ele>284</ele>
        <time>2017-06-26T08:57:54Z</time>
      </trkpt>
      <trkpt lat="45.97188" lon="4.86802">
        <ele>284</ele>
        <time>2017-06-26T08:57:55Z</time>
      </trkpt>
      <trkpt lat="45.97183" lon="4.86804">
        <ele>284</ele>
        <time>2017-06-26T08:57:56Z</time>
      </trkpt>
      <trkpt lat="45.97178" lon="4.86806">
        <ele>283</ele>
        <time>2017-06-26T08:57:57Z</time>
      </trkpt>
      <trkpt lat="45.97173" lon="4.86808">
        <ele>283</ele>
        <time>2017-06-26T08:57:58Z</time>
      </trkpt>
      <trkpt lat="45.97168" lon="4.8681">
        <ele>283</ele>
        <time>2017-06-26T08:57:59Z</time>
      </trkpt>
      <trkpt lat="45.97163" lon="4.86811">
        <ele>283</ele>
        <time>2017-06-26T08:58:00Z</time>
      </trkpt>
      <trkpt lat="45.97158" lon="4.86813">
        <ele>283</ele>
        <time>2017-06-26T08:58:01Z</time>
      </trkpt>
      <trkpt lat="45.97154" lon="4.86816">
        <ele>283</ele>
        <time>2017-06-26T08:58:02Z</time>
      </trkpt>
      <trkpt lat="45.97149" lon="4.86818">
        <ele>283</ele>
        <time>2017-06-26T08:58:03Z</time>
      </trkpt>
      <trkpt lat="45.97144" lon="4.8682">
        <ele>283</ele>
        <time>2017-06-26T08:58:04Z</time>
      </trkpt>
      <trkpt lat="45.9714" lon="4.86823">
        <ele>283</ele>
        <time>2017-06-26T08:58:05Z</time>
      </trkpt>
      <trkpt lat="45.97136" lon="4.86825">
        <ele>283</ele>
        <time>2017-06-26T08:58:06Z</time>
      </trkpt>
      <trkpt lat="45.97131" lon="4.86826">
        <ele>283</ele>
        <time>2017-06-26T08:58:07Z</time>
      </trkpt>
      <trkpt lat="45.97123" lon="4.86829">
        <ele>283</ele>
        <time>2017-06-26T08:58:09Z</time>
      </trkpt>
      <trkpt lat="45.97118" lon="4.86831">
        <ele>283</ele>
        <time>2017-06-26T08:58:10Z</time>
      </trkpt>
      <trkpt lat="45.97112" lon="4.86832">
        <ele>283</ele>
        <time>2017-06-26T08:58:11Z</time>
      </trkpt>
      <trkpt lat="45.97107" lon="4.86832">
        <ele>284</ele>
        <time>2017-06-26T08:58:12Z</time>
      </trkpt>
      <trkpt lat="45.97101" lon="4.86834">
        <ele>284</ele>
        <time>2017-06-26T08:58:13Z</time>
      </trkpt>
      <trkpt lat="45.97095" lon="4.86835">
        <ele>284</ele>
        <time>2017-06-26T08:58:14Z</time>
      </trkpt>
      <trkpt lat="45.97089" lon="4.86836">
        <ele>284</ele>
        <time>2017-06-26T08:58:15Z</time>
      </trkpt>
      <trkpt lat="45.97084" lon="4.86836">
        <ele>284</ele>
        <time>2017-06-26T08:58:16Z</time>
      </trkpt>
      <trkpt lat="45.97078" lon="4.86837">
        <ele>284</ele>
        <time>2017-06-26T08:58:17Z</time>
      </trkpt>
      <trkpt lat="45.97072" lon="4.86838">
        <ele>284</ele>
        <time>2017-06-26T08:58:18Z</time>
      </trkpt>
      <trkpt lat="45.97067" lon="4.86839">
        <ele>284</ele>
        <time>2017-06-26T08:58:19Z</time>
      </trkpt>
      <trkpt lat="45.97062" lon="4.8684">
        <ele>284</ele>
        <time>2017-06-26T08:58:20Z</time>
      </trkpt>
      <trkpt lat="45.97058" lon="4.8684">
        <ele>284</ele>
        <time>2017-06-26T08:58:21Z</time>
      </trkpt>
      <trkpt lat="45.97053" lon="4.86841">
        <ele>285</ele>
        <time>2017-06-26T08:58:22Z</time>
      </trkpt>
      <trkpt lat="45.97044" lon="4.86842">
        <ele>285</ele>
        <time>2017-06-26T08:58:24Z</time>
      </trkpt>
      <trkpt lat="45.9704" lon="4.86842">
        <ele>285</ele>
        <time>2017-06-26T08:58:25Z</time>
      </trkpt>
      <trkpt lat="45.97035" lon="4.86843">
        <ele>285</ele>
        <time>2017-06-26T08:58:26Z</time>
      </trkpt>
      <trkpt lat="45.97031" lon="4.86843">
        <ele>285</ele>
        <time>2017-06-26T08:58:27Z</time>
      </trkpt>
      <trkpt lat="45.97022" lon="4.86845">
        <ele>285</ele>
        <time>2017-06-26T08:58:29Z</time>
      </trkpt>
      <trkpt lat="45.97018" lon="4.86845">
        <ele>285</ele>
        <time>2017-06-26T08:58:30Z</time>
      </trkpt>
      <trkpt lat="45.9701" lon="4.86846">
        <ele>285</ele>
        <time>2017-06-26T08:58:32Z</time>
      </trkpt>
      <trkpt lat="45.97006" lon="4.86846">
        <ele>285</ele>
        <time>2017-06-26T08:58:33Z</time>
      </trkpt>
      <trkpt lat="45.96999" lon="4.86847">
        <ele>286</ele>
        <time>2017-06-26T08:58:35Z</time>
      </trkpt>
      <trkpt lat="45.96994" lon="4.86846">
        <ele>286</ele>
        <time>2017-06-26T08:58:36Z</time>
      </trkpt>
      <trkpt lat="45.96986" lon="4.86845">
        <ele>286</ele>
        <time>2017-06-26T08:58:38Z</time>
      </trkpt>
      <trkpt lat="45.96982" lon="4.86843">
        <ele>286</ele>
        <time>2017-06-26T08:58:39Z</time>
      </trkpt>
      <trkpt lat="45.96976" lon="4.86841">
        <ele>286</ele>
        <time>2017-06-26T08:58:40Z</time>
      </trkpt>
      <trkpt lat="45.96971" lon="4.86839">
        <ele>286</ele>
        <time>2017-06-26T08:58:41Z</time>
      </trkpt>
      <trkpt lat="45.96966" lon="4.86837">
        <ele>286</ele>
        <time>2017-06-26T08:58:42Z</time>
      </trkpt>
      <trkpt lat="45.96961" lon="4.86835">
        <ele>287</ele>
        <time>2017-06-26T08:58:43Z</time>
      </trkpt>
      <trkpt lat="45.96955" lon="4.86833">
        <ele>286</ele>
        <time>2017-06-26T08:58:44Z</time>
      </trkpt>
      <trkpt lat="45.9695" lon="4.8683">
        <ele>287</ele>
        <time>2017-06-26T08:58:45Z</time>
      </trkpt>
      <trkpt lat="45.96945" lon="4.86827">
        <ele>287</ele>
        <time>2017-06-26T08:58:46Z</time>
      </trkpt>
      <trkpt lat="45.96941" lon="4.86824">
        <ele>287</ele>
        <time>2017-06-26T08:58:47Z</time>
      </trkpt>
      <trkpt lat="45.96933" lon="4.86819">
        <ele>287</ele>
        <time>2017-06-26T08:58:49Z</time>
      </trkpt>
      <trkpt lat="45.96929" lon="4.86816">
        <ele>287</ele>
        <time>2017-06-26T08:58:50Z</time>
      </trkpt>
      <trkpt lat="45.96921" lon="4.86811">
        <ele>287</ele>
        <time>2017-06-26T08:58:52Z</time>
      </trkpt>
      <trkpt lat="45.96917" lon="4.86807">
        <ele>287</ele>
        <time>2017-06-26T08:58:53Z</time>
      </trkpt>
      <trkpt lat="45.96913" lon="4.86804">
        <ele>288</ele>
        <time>2017-06-26T08:58:54Z</time>
      </trkpt>
      <trkpt lat="45.96908" lon="4.868">
        <ele>288</ele>
        <time>2017-06-26T08:58:55Z</time>
      </trkpt>
      <trkpt lat="45.96904" lon="4.86796">
        <ele>289</ele>
        <time>2017-06-26T08:58:56Z</time>
      </trkpt>
      <trkpt lat="45.969" lon="4.86792">
        <ele>289</ele>
        <time>2017-06-26T08:58:57Z</time>
      </trkpt>
      <trkpt lat="45.96892" lon="4.86785">
        <ele>289</ele>
        <time>2017-06-26T08:58:59Z</time>
      </trkpt>
      <trkpt lat="45.96889" lon="4.86782">
        <ele>289</ele>
        <time>2017-06-26T08:59:00Z</time>
      </trkpt>
      <trkpt lat="45.96882" lon="4.86775">
        <ele>289</ele>
        <time>2017-06-26T08:59:02Z</time>
      </trkpt>
      <trkpt lat="45.96879" lon="4.86773">
        <ele>289</ele>
        <time>2017-06-26T08:59:03Z</time>
      </trkpt>
      <trkpt lat="45.96872" lon="4.86767">
        <ele>289</ele>
        <time>2017-06-26T08:59:05Z</time>
      </trkpt>
      <trkpt lat="45.96869" lon="4.86764">
        <ele>289</ele>
        <time>2017-06-26T08:59:06Z</time>
      </trkpt>
      <trkpt lat="45.96862" lon="4.86759">
        <ele>289</ele>
        <time>2017-06-26T08:59:08Z</time>
      </trkpt>
      <trkpt lat="45.96859" lon="4.86756">
        <ele>289</ele>
        <time>2017-06-26T08:59:09Z</time>
      </trkpt>
      <trkpt lat="45.96852" lon="4.86749">
        <ele>288</ele>
        <time>2017-06-26T08:59:11Z</time>
      </trkpt>
      <trkpt lat="45.96849" lon="4.86746">
        <ele>289</ele>
        <time>2017-06-26T08:59:12Z</time>
      </trkpt>
      <trkpt lat="45.96843" lon="4.8674">
        <ele>289</ele>
        <time>2017-06-26T08:59:14Z</time>
      </trkpt>
      <trkpt lat="45.9684" lon="4.86737">
        <ele>289</ele>
        <time>2017-06-26T08:59:15Z</time>
      </trkpt>
      <trkpt lat="45.96833" lon="4.86731">
        <ele>289</ele>
        <time>2017-06-26T08:59:17Z</time>
      </trkpt>
      <trkpt lat="45.9683" lon="4.86728">
        <ele>289</ele>
        <time>2017-06-26T08:59:18Z</time>
      </trkpt>
      <trkpt lat="45.96823" lon="4.86721">
        <ele>289</ele>
        <time>2017-06-26T08:59:20Z</time>
      </trkpt>
      <trkpt lat="45.96819" lon="4.86717">
        <ele>289</ele>
        <time>2017-06-26T08:59:21Z</time>
      </trkpt>
      <trkpt lat="45.96813" lon="4.86711">
        <ele>289</ele>
        <time>2017-06-26T08:59:23Z</time>
      </trkpt>
      <trkpt lat="45.96809" lon="4.86707">
        <ele>289</ele>
        <time>2017-06-26T08:59:24Z</time>
      </trkpt>
      <trkpt lat="45.96802" lon="4.867">
        <ele>289</ele>
        <time>2017-06-26T08:59:26Z</time>
      </trkpt>
      <trkpt lat="45.96799" lon="4.86696">
        <ele>289</ele>
        <time>2017-06-26T08:59:27Z</time>
      </trkpt>
      <trkpt lat="45.96791" lon="4.8669">
        <ele>289</ele>
        <time>2017-06-26T08:59:29Z</time>
      </trkpt>
      <trkpt lat="45.96788" lon="4.86686">
        <ele>289</ele>
        <time>2017-06-26T08:59:30Z</time>
      </trkpt>
      <trkpt lat="45.96784" lon="4.86683">
        <ele>289</ele>
        <time>2017-06-26T08:59:31Z</time>
      </trkpt>
      <trkpt lat="45.9678" lon="4.86679">
        <ele>289</ele>
        <time>2017-06-26T08:59:32Z</time>
      </trkpt>
      <trkpt lat="45.96773" lon="4.86672">
        <ele>289</ele>
        <time>2017-06-26T08:59:34Z</time>
      </trkpt>
      <trkpt lat="45.96771" lon="4.86667">
        <ele>290</ele>
        <time>2017-06-26T08:59:35Z</time>
      </trkpt>
      <trkpt lat="45.96766" lon="4.86658">
        <ele>290</ele>
        <time>2017-06-26T08:59:37Z</time>
      </trkpt>
      <trkpt lat="45.96764" lon="4.86653">
        <ele>290</ele>
        <time>2017-06-26T08:59:38Z</time>
      </trkpt>
      <trkpt lat="45.96759" lon="4.86645">
        <ele>290</ele>
        <time>2017-06-26T08:59:41Z</time>
      </trkpt>
      <trkpt lat="45.96756" lon="4.86644">
        <ele>290</ele>
        <time>2017-06-26T08:59:42Z</time>
      </trkpt>
      <trkpt lat="45.96749" lon="4.86647">
        <ele>290</ele>
        <time>2017-06-26T08:59:44Z</time>
      </trkpt>
      <trkpt lat="45.96746" lon="4.86651">
        <ele>290</ele>
        <time>2017-06-26T08:59:45Z</time>
      </trkpt>
      <trkpt lat="45.96742" lon="4.86661">
        <ele>290</ele>
        <time>2017-06-26T08:59:47Z</time>
      </trkpt>
      <trkpt lat="45.96739" lon="4.86665">
        <ele>290</ele>
        <time>2017-06-26T08:59:48Z</time>
      </trkpt>
      <trkpt lat="45.96733" lon="4.86675">
        <ele>290</ele>
        <time>2017-06-26T08:59:50Z</time>
      </trkpt>
      <trkpt lat="45.9673" lon="4.8668">
        <ele>289</ele>
        <time>2017-06-26T08:59:51Z</time>
      </trkpt>
      <trkpt lat="45.96728" lon="4.86684">
        <ele>289</ele>
        <time>2017-06-26T08:59:52Z</time>
      </trkpt>
      <trkpt lat="45.96724" lon="4.86689">
        <ele>289</ele>
        <time>2017-06-26T08:59:53Z</time>
      </trkpt>
      <trkpt lat="45.96721" lon="4.86694">
        <ele>289</ele>
        <time>2017-06-26T08:59:54Z</time>
      </trkpt>
      <trkpt lat="45.96718" lon="4.86699">
        <ele>289</ele>
        <time>2017-06-26T08:59:55Z</time>
      </trkpt>
      <trkpt lat="45.96714" lon="4.86705">
        <ele>289</ele>
        <time>2017-06-26T08:59:56Z</time>
      </trkpt>
      <trkpt lat="45.96711" lon="4.86711">
        <ele>289</ele>
        <time>2017-06-26T08:59:57Z</time>
      </trkpt>
      <trkpt lat="45.96708" lon="4.86716">
        <ele>289</ele>
        <time>2017-06-26T08:59:58Z</time>
      </trkpt>
      <trkpt lat="45.96705" lon="4.86722">
        <ele>289</ele>
        <time>2017-06-26T08:59:59Z</time>
      </trkpt>
      <trkpt lat="45.96702" lon="4.86728">
        <ele>289</ele>
        <time>2017-06-26T09:00:00Z</time>
      </trkpt>
      <trkpt lat="45.96699" lon="4.86733">
        <ele>289</ele>
        <time>2017-06-26T09:00:01Z</time>
      </trkpt>
      <trkpt lat="45.96695" lon="4.86739">
        <ele>289</ele>
        <time>2017-06-26T09:00:02Z</time>
      </trkpt>
      <trkpt lat="45.96692" lon="4.86745">
        <ele>289</ele>
        <time>2017-06-26T09:00:03Z</time>
      </trkpt>
      <trkpt lat="45.96689" lon="4.8675">
        <ele>289</ele>
        <time>2017-06-26T09:00:04Z</time>
      </trkpt>
      <trkpt lat="45.96685" lon="4.86756">
        <ele>289</ele>
        <time>2017-06-26T09:00:05Z</time>
      </trkpt>
      <trkpt lat="45.96681" lon="4.86762">
        <ele>289</ele>
        <time>2017-06-26T09:00:06Z</time>
      </trkpt>
      <trkpt lat="45.96677" lon="4.86768">
        <ele>289</ele>
        <time>2017-06-26T09:00:07Z</time>
      </trkpt>
      <trkpt lat="45.96673" lon="4.86773">
        <ele>289</ele>
        <time>2017-06-26T09:00:08Z</time>
      </trkpt>
      <trkpt lat="45.9667" lon="4.8678">
        <ele>289</ele>
        <time>2017-06-26T09:00:09Z</time>
      </trkpt>
      <trkpt lat="45.96667" lon="4.86786">
        <ele>288</ele>
        <time>2017-06-26T09:00:10Z</time>
      </trkpt>
      <trkpt lat="45.96663" lon="4.86791">
        <ele>288</ele>
        <time>2017-06-26T09:00:11Z</time>
      </trkpt>
      <trkpt lat="45.9666" lon="4.86797">
        <ele>288</ele>
        <time>2017-06-26T09:00:12Z</time>
      </trkpt>
      <trkpt lat="45.96657" lon="4.86802">
        <ele>288</ele>
        <time>2017-06-26T09:00:13Z</time>
      </trkpt>
      <trkpt lat="45.96653" lon="4.86808">
        <ele>288</ele>
        <time>2017-06-26T09:00:14Z</time>
      </trkpt>
      <trkpt lat="45.9665" lon="4.86814">
        <ele>288</ele>
        <time>2017-06-26T09:00:15Z</time>
      </trkpt>
      <trkpt lat="45.96646" lon="4.86819">
        <ele>288</ele>
        <time>2017-06-26T09:00:16Z</time>
      </trkpt>
      <trkpt lat="45.96642" lon="4.86824">
        <ele>288</ele>
        <time>2017-06-26T09:00:17Z</time>
      </trkpt>
      <trkpt lat="45.96639" lon="4.86829">
        <ele>288</ele>
        <time>2017-06-26T09:00:18Z</time>
      </trkpt>
      <trkpt lat="45.96636" lon="4.86835">
        <ele>287</ele>
        <time>2017-06-26T09:00:19Z</time>
      </trkpt>
      <trkpt lat="45.96632" lon="4.8684">
        <ele>287</ele>
        <time>2017-06-26T09:00:20Z</time>
      </trkpt>
      <trkpt lat="45.96629" lon="4.86845">
        <ele>287</ele>
        <time>2017-06-26T09:00:21Z</time>
      </trkpt>
      <trkpt lat="45.96626" lon="4.8685">
        <ele>287</ele>
        <time>2017-06-26T09:00:22Z</time>
      </trkpt>
      <trkpt lat="45.96622" lon="4.86855">
        <ele>287</ele>
        <time>2017-06-26T09:00:23Z</time>
      </trkpt>
      <trkpt lat="45.96619" lon="4.8686">
        <ele>287</ele>
        <time>2017-06-26T09:00:24Z</time>
      </trkpt>
      <trkpt lat="45.96615" lon="4.86866">
        <ele>287</ele>
        <time>2017-06-26T09:00:25Z</time>
      </trkpt>
      <trkpt lat="45.96612" lon="4.8687">
        <ele>287</ele>
        <time>2017-06-26T09:00:26Z</time>
      </trkpt>
      <trkpt lat="45.96608" lon="4.86876">
        <ele>287</ele>
        <time>2017-06-26T09:00:27Z</time>
      </trkpt>
      <trkpt lat="45.96604" lon="4.86881">
        <ele>287</ele>
        <time>2017-06-26T09:00:28Z</time>
      </trkpt>
      <trkpt lat="45.96601" lon="4.86887">
        <ele>287</ele>
        <time>2017-06-26T09:00:29Z</time>
      </trkpt>
      <trkpt lat="45.96597" lon="4.86893">
        <ele>286</ele>
        <time>2017-06-26T09:00:30Z</time>
      </trkpt>
      <trkpt lat="45.96594" lon="4.86899">
        <ele>286</ele>
        <time>2017-06-26T09:00:31Z</time>
      </trkpt>
      <trkpt lat="45.9659" lon="4.86905">
        <ele>286</ele>
        <time>2017-06-26T09:00:32Z</time>
      </trkpt>
      <trkpt lat="45.96587" lon="4.86911">
        <ele>285</ele>
        <time>2017-06-26T09:00:33Z</time>
      </trkpt>
      <trkpt lat="45.96583" lon="4.86917">
        <ele>285</ele>
        <time>2017-06-26T09:00:34Z</time>
      </trkpt>
      <trkpt lat="45.9658" lon="4.86923">
        <ele>284</ele>
        <time>2017-06-26T09:00:35Z</time>
      </trkpt>
      <trkpt lat="45.96576" lon="4.8693">
        <ele>284</ele>
        <time>2017-06-26T09:00:36Z</time>
      </trkpt>
      <trkpt lat="45.96572" lon="4.86937">
        <ele>284</ele>
        <time>2017-06-26T09:00:37Z</time>
      </trkpt>
      <trkpt lat="45.96568" lon="4.86944">
        <ele>284</ele>
        <time>2017-06-26T09:00:38Z</time>
      </trkpt>
      <trkpt lat="45.96565" lon="4.86951">
        <ele>284</ele>
        <time>2017-06-26T09:00:39Z</time>
      </trkpt>
      <trkpt lat="45.96561" lon="4.86957">
        <ele>283</ele>
        <time>2017-06-26T09:00:40Z</time>
      </trkpt>
      <trkpt lat="45.96557" lon="4.86963">
        <ele>283</ele>
        <time>2017-06-26T09:00:41Z</time>
      </trkpt>
      <trkpt lat="45.96553" lon="4.86969">
        <ele>283</ele>
        <time>2017-06-26T09:00:42Z</time>
      </trkpt>
      <trkpt lat="45.9655" lon="4.86974">
        <ele>283</ele>
        <time>2017-06-26T09:00:43Z</time>
      </trkpt>
      <trkpt lat="45.96544" lon="4.86982">
        <ele>283</ele>
        <time>2017-06-26T09:00:45Z</time>
      </trkpt>
      <trkpt lat="45.96542" lon="4.86987">
        <ele>283</ele>
        <time>2017-06-26T09:00:46Z</time>
      </trkpt>
      <trkpt lat="45.9654" lon="4.86998">
        <ele>283</ele>
        <time>2017-06-26T09:00:48Z</time>
      </trkpt>
      <trkpt lat="45.9654" lon="4.87004">
        <ele>283</ele>
        <time>2017-06-26T09:00:49Z</time>
      </trkpt>
      <trkpt lat="45.96541" lon="4.87016">
        <ele>283</ele>
        <time>2017-06-26T09:00:53Z</time>
      </trkpt>
      <trkpt lat="45.96541" lon="4.87018">
        <ele>283</ele>
        <time>2017-06-26T09:00:54Z</time>
      </trkpt>
      <trkpt lat="45.96546" lon="4.87026">
        <ele>283</ele>
        <time>2017-06-26T09:01:07Z</time>
      </trkpt>
      <trkpt lat="45.96546" lon="4.87026">
        <ele>283</ele>
        <time>2017-06-26T09:01:08Z</time>
      </trkpt>
      <trkpt lat="45.96546" lon="4.87028">
        <ele>283</ele>
        <time>2017-06-26T09:01:11Z</time>
      </trkpt>
      <trkpt lat="45.96547" lon="4.87029">
        <ele>283</ele>
        <time>2017-06-26T09:01:12Z</time>
      </trkpt>
      <trkpt lat="45.96555" lon="4.87025">
        <ele>283</ele>
        <time>2017-06-26T09:09:58Z</time>
      </trkpt>
      <trkpt lat="45.96556" lon="4.87027">
        <ele>283</ele>
        <time>2017-06-26T09:09:59Z</time>
      </trkpt>
      <trkpt lat="45.96557" lon="4.87037">
        <ele>283</ele>
        <time>2017-06-26T09:10:02Z</time>
      </trkpt>
      <trkpt lat="45.96557" lon="4.87041">
        <ele>283</ele>
        <time>2017-06-26T09:10:03Z</time>
      </trkpt>
      <trkpt lat="45.96558" lon="4.8705">
        <ele>283</ele>
        <time>2017-06-26T09:10:05Z</time>
      </trkpt>
      <trkpt lat="45.96558" lon="4.87055">
        <ele>283</ele>
        <time>2017-06-26T09:10:06Z</time>
      </trkpt>
      <trkpt lat="45.96559" lon="4.87067">
        <ele>283</ele>
        <time>2017-06-26T09:10:09Z</time>
      </trkpt>
      <trkpt lat="45.96558" lon="4.8707">
        <ele>283</ele>
        <time>2017-06-26T09:10:10Z</time>
      </trkpt>
      <trkpt lat="45.9655" lon="4.87073">
        <ele>283</ele>
        <time>2017-06-26T09:10:16Z</time>
      </trkpt>
      <trkpt lat="45.96549" lon="4.87074">
        <ele>283</ele>
        <time>2017-06-26T09:10:17Z</time>
      </trkpt>
      <trkpt lat="45.96544" lon="4.87065">
        <ele>283</ele>
        <time>2017-06-26T09:10:21Z</time>
      </trkpt>
      <trkpt lat="45.96543" lon="4.87062">
        <ele>283</ele>
        <time>2017-06-26T09:10:22Z</time>
      </trkpt>
      <trkpt lat="45.9654" lon="4.87051">
        <ele>283</ele>
        <time>2017-06-26T09:10:25Z</time>
      </trkpt>
      <trkpt lat="45.9654" lon="4.87048">
        <ele>283</ele>
        <time>2017-06-26T09:10:26Z</time>
      </trkpt>
      <trkpt lat="45.9654" lon="4.87038">
        <ele>283</ele>
        <time>2017-06-26T09:10:29Z</time>
      </trkpt>
      <trkpt lat="45.96539" lon="4.87035">
        <ele>283</ele>
        <time>2017-06-26T09:10:30Z</time>
      </trkpt>
      <trkpt lat="45.96533" lon="4.87026">
        <ele>283</ele>
        <time>2017-06-26T09:10:41Z</time>
      </trkpt>
      <trkpt lat="45.96532" lon="4.87024">
        <ele>283</ele>
        <time>2017-06-26T09:10:42Z</time>
      </trkpt>
      <trkpt lat="45.96536" lon="4.87013">
        <ele>283</ele>
        <time>2017-06-26T09:10:48Z</time>
      </trkpt>
      <trkpt lat="45.96537" lon="4.87011">
        <ele>283</ele>
        <time>2017-06-26T09:10:49Z</time>
      </trkpt>
      <trkpt lat="45.96541" lon="4.87003">
        <ele>283</ele>
        <time>2017-06-26T09:10:52Z</time>
      </trkpt>
      <trkpt lat="45.96542" lon="4.86999">
        <ele>283</ele>
        <time>2017-06-26T09:10:53Z</time>
      </trkpt>
      <trkpt lat="45.96544" lon="4.86991">
        <ele>283</ele>
        <time>2017-06-26T09:10:55Z</time>
      </trkpt>
      <trkpt lat="45.96546" lon="4.86986">
        <ele>283</ele>
        <time>2017-06-26T09:10:56Z</time>
      </trkpt>
      <trkpt lat="45.9655" lon="4.86977">
        <ele>283</ele>
        <time>2017-06-26T09:10:58Z</time>
      </trkpt>
      <trkpt lat="45.96553" lon="4.86972">
        <ele>283</ele>
        <time>2017-06-26T09:10:59Z</time>
      </trkpt>
      <trkpt lat="45.96556" lon="4.86968">
        <ele>283</ele>
        <time>2017-06-26T09:11:00Z</time>
      </trkpt>
      <trkpt lat="45.96559" lon="4.86963">
        <ele>283</ele>
        <time>2017-06-26T09:11:01Z</time>
      </trkpt>
      <trkpt lat="45.96565" lon="4.86954">
        <ele>284</ele>
        <time>2017-06-26T09:11:03Z</time>
      </trkpt>
      <trkpt lat="45.96568" lon="4.8695">
        <ele>284</ele>
        <time>2017-06-26T09:11:04Z</time>
      </trkpt>
      <trkpt lat="45.96574" lon="4.86942">
        <ele>284</ele>
        <time>2017-06-26T09:11:06Z</time>
      </trkpt>
      <trkpt lat="45.96576" lon="4.86937">
        <ele>284</ele>
        <time>2017-06-26T09:11:07Z</time>
      </trkpt>
      <trkpt lat="45.96581" lon="4.86928">
        <ele>284</ele>
        <time>2017-06-26T09:11:09Z</time>
      </trkpt>
      <trkpt lat="45.96583" lon="4.86924">
        <ele>285</ele>
        <time>2017-06-26T09:11:10Z</time>
      </trkpt>
      <trkpt lat="45.96589" lon="4.86914">
        <ele>285</ele>
        <time>2017-06-26T09:11:12Z</time>
      </trkpt>
      <trkpt lat="45.96593" lon="4.86909">
        <ele>286</ele>
        <time>2017-06-26T09:11:13Z</time>
      </trkpt>
      <trkpt lat="45.96597" lon="4.86904">
        <ele>286</ele>
        <time>2017-06-26T09:11:14Z</time>
      </trkpt>
      <trkpt lat="45.966" lon="4.86899">
        <ele>286</ele>
        <time>2017-06-26T09:11:15Z</time>
      </trkpt>
      <trkpt lat="45.96605" lon="4.86892">
        <ele>287</ele>
        <time>2017-06-26T09:11:17Z</time>
      </trkpt>
      <trkpt lat="45.96607" lon="4.86887">
        <ele>287</ele>
        <time>2017-06-26T09:11:18Z</time>
      </trkpt>
      <trkpt lat="45.96611" lon="4.86879">
        <ele>287</ele>
        <time>2017-06-26T09:11:20Z</time>
      </trkpt>
      <trkpt lat="45.96614" lon="4.86875">
        <ele>287</ele>
        <time>2017-06-26T09:11:21Z</time>
      </trkpt>
      <trkpt lat="45.96618" lon="4.86867">
        <ele>287</ele>
        <time>2017-06-26T09:11:23Z</time>
      </trkpt>
      <trkpt lat="45.9662" lon="4.86862">
        <ele>287</ele>
        <time>2017-06-26T09:11:24Z</time>
      </trkpt>
      <trkpt lat="45.96627" lon="4.86854">
        <ele>287</ele>
        <time>2017-06-26T09:11:26Z</time>
      </trkpt>
      <trkpt lat="45.9663" lon="4.86849">
        <ele>287</ele>
        <time>2017-06-26T09:11:27Z</time>
      </trkpt>
      <trkpt lat="45.96635" lon="4.8684">
        <ele>287</ele>
        <time>2017-06-26T09:11:29Z</time>
      </trkpt>
      <trkpt lat="45.96639" lon="4.86835">
        <ele>287</ele>
        <time>2017-06-26T09:11:30Z</time>
      </trkpt>
      <trkpt lat="45.96642" lon="4.86829">
        <ele>288</ele>
        <time>2017-06-26T09:11:31Z</time>
      </trkpt>
      <trkpt lat="45.96645" lon="4.86824">
        <ele>288</ele>
        <time>2017-06-26T09:11:32Z</time>
      </trkpt>
      <trkpt lat="45.9665" lon="4.86816">
        <ele>288</ele>
        <time>2017-06-26T09:11:34Z</time>
      </trkpt>
      <trkpt lat="45.96653" lon="4.86811">
        <ele>288</ele>
        <time>2017-06-26T09:11:35Z</time>
      </trkpt>
      <trkpt lat="45.96658" lon="4.86803">
        <ele>288</ele>
        <time>2017-06-26T09:11:37Z</time>
      </trkpt>
      <trkpt lat="45.96661" lon="4.86798">
        <ele>288</ele>
        <time>2017-06-26T09:11:38Z</time>
      </trkpt>
      <trkpt lat="45.96667" lon="4.86788">
        <ele>289</ele>
        <time>2017-06-26T09:11:40Z</time>
      </trkpt>
      <trkpt lat="45.9667" lon="4.86784">
        <ele>289</ele>
        <time>2017-06-26T09:11:41Z</time>
      </trkpt>
      <trkpt lat="45.96675" lon="4.86775">
        <ele>289</ele>
        <time>2017-06-26T09:11:43Z</time>
      </trkpt>
      <trkpt lat="45.96677" lon="4.86771">
        <ele>289</ele>
        <time>2017-06-26T09:11:44Z</time>
      </trkpt>
      <trkpt lat="45.96682" lon="4.86763">
        <ele>289</ele>
        <time>2017-06-26T09:11:46Z</time>
      </trkpt>
      <trkpt lat="45.96685" lon="4.86759">
        <ele>289</ele>
        <time>2017-06-26T09:11:47Z</time>
      </trkpt>
      <trkpt lat="45.9669" lon="4.86751">
        <ele>289</ele>
        <time>2017-06-26T09:11:49Z</time>
      </trkpt>
      <trkpt lat="45.96693" lon="4.86746">
        <ele>289</ele>
        <time>2017-06-26T09:11:50Z</time>
      </trkpt>
      <trkpt lat="45.96699" lon="4.86737">
        <ele>289</ele>
        <time>2017-06-26T09:11:52Z</time>
      </trkpt>
      <trkpt lat="45.96702" lon="4.86732">
        <ele>289</ele>
        <time>2017-06-26T09:11:53Z</time>
      </trkpt>
      <trkpt lat="45.96705" lon="4.86726">
        <ele>289</ele>
        <time>2017-06-26T09:11:54Z</time>
      </trkpt>
      <trkpt lat="45.96708" lon="4.86722">
        <ele>289</ele>
        <time>2017-06-26T09:11:55Z</time>
      </trkpt>
      <trkpt lat="45.96714" lon="4.86712">
        <ele>289</ele>
        <time>2017-06-26T09:11:57Z</time>
      </trkpt>
      <trkpt lat="45.96716" lon="4.86708">
        <ele>289</ele>
        <time>2017-06-26T09:11:58Z</time>
      </trkpt>
      <trkpt lat="45.9672" lon="4.867">
        <ele>289</ele>
        <time>2017-06-26T09:12:00Z</time>
      </trkpt>
      <trkpt lat="45.96723" lon="4.86696">
        <ele>289</ele>
        <time>2017-06-26T09:12:01Z</time>
      </trkpt>
      <trkpt lat="45.96729" lon="4.86686">
        <ele>289</ele>
        <time>2017-06-26T09:12:03Z</time>
      </trkpt>
      <trkpt lat="45.96732" lon="4.86682">
        <ele>290</ele>
        <time>2017-06-26T09:12:04Z</time>
      </trkpt>
      <trkpt lat="45.96735" lon="4.86677">
        <ele>290</ele>
        <time>2017-06-26T09:12:05Z</time>
      </trkpt>
      <trkpt lat="45.96738" lon="4.86672">
        <ele>290</ele>
        <time>2017-06-26T09:12:06Z</time>
      </trkpt>
      <trkpt lat="45.96743" lon="4.86661">
        <ele>290</ele>
        <time>2017-06-26T09:12:08Z</time>
      </trkpt>
      <trkpt lat="45.96745" lon="4.86656">
        <ele>290</ele>
        <time>2017-06-26T09:12:09Z</time>
      </trkpt>
      <trkpt lat="45.96748" lon="4.86648">
        <ele>290</ele>
        <time>2017-06-26T09:12:11Z</time>
      </trkpt>
      <trkpt lat="45.9675" lon="4.86645">
        <ele>290</ele>
        <time>2017-06-26T09:12:12Z</time>
      </trkpt>
      <trkpt lat="45.96751" lon="4.86635">
        <ele>290</ele>
        <time>2017-06-26T09:12:14Z</time>
      </trkpt>
      <trkpt lat="45.96749" lon="4.8663">
        <ele>290</ele>
        <time>2017-06-26T09:12:15Z</time>
      </trkpt>
      <trkpt lat="45.96743" lon="4.86625">
        <ele>290</ele>
        <time>2017-06-26T09:12:17Z</time>
      </trkpt>
      <trkpt lat="45.96739" lon="4.86624">
        <ele>290</ele>
        <time>2017-06-26T09:12:18Z</time>
      </trkpt>
      <trkpt lat="45.9673" lon="4.86624">
        <ele>290</ele>
        <time>2017-06-26T09:12:20Z</time>
      </trkpt>
      <trkpt lat="45.96727" lon="4.86623">
        <ele>290</ele>
        <time>2017-06-26T09:12:21Z</time>
      </trkpt>
      <trkpt lat="45.96719" lon="4.86619">
        <ele>290</ele>
        <time>2017-06-26T09:12:23Z</time>
      </trkpt>
      <trkpt lat="45.96715" lon="4.86617">
        <ele>290</ele>
        <time>2017-06-26T09:12:24Z</time>
      </trkpt>
      <trkpt lat="45.96708" lon="4.86611">
        <ele>290</ele>
        <time>2017-06-26T09:12:26Z</time>
      </trkpt>
      <trkpt lat="45.96704" lon="4.86608">
        <ele>290</ele>
        <time>2017-06-26T09:12:27Z</time>
      </trkpt>
      <trkpt lat="45.96697" lon="4.86602">
        <ele>290</ele>
        <time>2017-06-26T09:12:29Z</time>
      </trkpt>
      <trkpt lat="45.96693" lon="4.86598">
        <ele>290</ele>
        <time>2017-06-26T09:12:30Z</time>
      </trkpt>
      <trkpt lat="45.96686" lon="4.86591">
        <ele>290</ele>
        <time>2017-06-26T09:12:32Z</time>
      </trkpt>
      <trkpt lat="45.96683" lon="4.86588">
        <ele>290</ele>
        <time>2017-06-26T09:12:33Z</time>
      </trkpt>
      <trkpt lat="45.96676" lon="4.8658">
        <ele>290</ele>
        <time>2017-06-26T09:12:35Z</time>
      </trkpt>
      <trkpt lat="45.96672" lon="4.86576">
        <ele>290</ele>
        <time>2017-06-26T09:12:36Z</time>
      </trkpt>
      <trkpt lat="45.96666" lon="4.8657">
        <ele>290</ele>
        <time>2017-06-26T09:12:38Z</time>
      </trkpt>
      <trkpt lat="45.96663" lon="4.86567">
        <ele>290</ele>
        <time>2017-06-26T09:12:39Z</time>
      </trkpt>
      <trkpt lat="45.96656" lon="4.8656">
        <ele>290</ele>
        <time>2017-06-26T09:12:41Z</time>
      </trkpt>
      <trkpt lat="45.96653" lon="4.86557">
        <ele>291</ele>
        <time>2017-06-26T09:12:42Z</time>
      </trkpt>
      <trkpt lat="45.96646" lon="4.8655">
        <ele>291</ele>
        <time>2017-06-26T09:12:45Z</time>
      </trkpt>
      <trkpt lat="45.96644" lon="4.86549">
        <ele>291</ele>
        <time>2017-06-26T09:12:46Z</time>
      </trkpt>
      <trkpt lat="45.96637" lon="4.86546">
        <ele>291</ele>
        <time>2017-06-26T09:13:14Z</time>
      </trkpt>
      <trkpt lat="45.96636" lon="4.86544">
        <ele>291</ele>
        <time>2017-06-26T09:13:15Z</time>
      </trkpt>
      <trkpt lat="45.96629" lon="4.86536">
        <ele>291</ele>
        <time>2017-06-26T09:13:18Z</time>
      </trkpt>
      <trkpt lat="45.96626" lon="4.86533">
        <ele>291</ele>
        <time>2017-06-26T09:13:19Z</time>
      </trkpt>
      <trkpt lat="45.96622" lon="4.86529">
        <ele>291</ele>
        <time>2017-06-26T09:13:20Z</time>
      </trkpt>
      <trkpt lat="45.96618" lon="4.86526">
        <ele>291</ele>
        <time>2017-06-26T09:13:21Z</time>
      </trkpt>
      <trkpt lat="45.96614" lon="4.86522">
        <ele>291</ele>
        <time>2017-06-26T09:13:22Z</time>
      </trkpt>
      <trkpt lat="45.9661" lon="4.86518">
        <ele>291</ele>
        <time>2017-06-26T09:13:23Z</time>
      </trkpt>
      <trkpt lat="45.96606" lon="4.86513">
        <ele>291</ele>
        <time>2017-06-26T09:13:24Z</time>
      </trkpt>
      <trkpt lat="45.96602" lon="4.86509">
        <ele>291</ele>
        <time>2017-06-26T09:13:25Z</time>
      </trkpt>
      <trkpt lat="45.96598" lon="4.86505">
        <ele>291</ele>
        <time>2017-06-26T09:13:26Z</time>
      </trkpt>
      <trkpt lat="45.96594" lon="4.865">
        <ele>292</ele>
        <time>2017-06-26T09:13:27Z</time>
      </trkpt>
      <trkpt lat="45.96591" lon="4.86495">
        <ele>292</ele>
        <time>2017-06-26T09:13:28Z</time>
      </trkpt>
      <trkpt lat="45.96589" lon="4.86489">
        <ele>292</ele>
        <time>2017-06-26T09:13:29Z</time>
      </trkpt>
      <trkpt lat="45.96586" lon="4.86483">
        <ele>292</ele>
        <time>2017-06-26T09:13:30Z</time>
      </trkpt>
      <trkpt lat="45.96585" lon="4.86477">
        <ele>291</ele>
        <time>2017-06-26T09:13:31Z</time>
      </trkpt>
      <trkpt lat="45.96584" lon="4.8647">
        <ele>291</ele>
        <time>2017-06-26T09:13:32Z</time>
      </trkpt>
      <trkpt lat="45.96582" lon="4.86463">
        <ele>289</ele>
        <time>2017-06-26T09:13:33Z</time>
      </trkpt>
      <trkpt lat="45.96582" lon="4.86455">
        <ele>289</ele>
        <time>2017-06-26T09:13:34Z</time>
      </trkpt>
      <trkpt lat="45.96581" lon="4.86447">
        <ele>289</ele>
        <time>2017-06-26T09:13:35Z</time>
      </trkpt>
      <trkpt lat="45.96581" lon="4.86439">
        <ele>289</ele>
        <time>2017-06-26T09:13:36Z</time>
      </trkpt>
      <trkpt lat="45.9658" lon="4.86431">
        <ele>289</ele>
        <time>2017-06-26T09:13:37Z</time>
      </trkpt>
      <trkpt lat="45.9658" lon="4.86423">
        <ele>290</ele>
        <time>2017-06-26T09:13:38Z</time>
      </trkpt>
      <trkpt lat="45.9658" lon="4.86415">
        <ele>289</ele>
        <time>2017-06-26T09:13:39Z</time>
      </trkpt>
      <trkpt lat="45.96579" lon="4.86406">
        <ele>288</ele>
        <time>2017-06-26T09:13:40Z</time>
      </trkpt>
      <trkpt lat="45.96579" lon="4.86397">
        <ele>287</ele>
        <time>2017-06-26T09:13:41Z</time>
      </trkpt>
      <trkpt lat="45.96578" lon="4.86388">
        <ele>287</ele>
        <time>2017-06-26T09:13:42Z</time>
      </trkpt>
      <trkpt lat="45.96577" lon="4.86379">
        <ele>286</ele>
        <time>2017-06-26T09:13:43Z</time>
      </trkpt>
      <trkpt lat="45.96578" lon="4.8637">
        <ele>286</ele>
        <time>2017-06-26T09:13:44Z</time>
      </trkpt>
      <trkpt lat="45.96578" lon="4.86362">
        <ele>286</ele>
        <time>2017-06-26T09:13:45Z</time>
      </trkpt>
      <trkpt lat="45.96579" lon="4.86353">
        <ele>285</ele>
        <time>2017-06-26T09:13:46Z</time>
      </trkpt>
      <trkpt lat="45.96579" lon="4.86344">
        <ele>285</ele>
        <time>2017-06-26T09:13:47Z</time>
      </trkpt>
      <trkpt lat="45.96579" lon="4.86336">
        <ele>285</ele>
        <time>2017-06-26T09:13:48Z</time>
      </trkpt>
      <trkpt lat="45.96579" lon="4.86327">
        <ele>284</ele>
        <time>2017-06-26T09:13:49Z</time>
      </trkpt>
      <trkpt lat="45.96579" lon="4.86318">
        <ele>283</ele>
        <time>2017-06-26T09:13:50Z</time>
      </trkpt>
      <trkpt lat="45.9658" lon="4.8631">
        <ele>283</ele>
        <time>2017-06-26T09:13:51Z</time>
      </trkpt>
      <trkpt lat="45.9658" lon="4.86301">
        <ele>283</ele>
        <time>2017-06-26T09:13:52Z</time>
      </trkpt>
      <trkpt lat="45.96581" lon="4.86292">
        <ele>282</ele>
        <time>2017-06-26T09:13:53Z</time>
      </trkpt>
      <trkpt lat="45.96581" lon="4.86283">
        <ele>282</ele>
        <time>2017-06-26T09:13:54Z</time>
      </trkpt>
      <trkpt lat="45.96582" lon="4.86273">
        <ele>282</ele>
        <time>2017-06-26T09:13:55Z</time>
      </trkpt>
      <trkpt lat="45.96582" lon="4.86263">
        <ele>281</ele>
        <time>2017-06-26T09:13:56Z</time>
      </trkpt>
      <trkpt lat="45.96583" lon="4.86252">
        <ele>281</ele>
        <time>2017-06-26T09:13:57Z</time>
      </trkpt>
      <trkpt lat="45.96583" lon="4.86242">
        <ele>280</ele>
        <time>2017-06-26T09:13:58Z</time>
      </trkpt>
      <trkpt lat="45.96585" lon="4.8623">
        <ele>282</ele>
        <time>2017-06-26T09:13:59Z</time>
      </trkpt>
      <trkpt lat="45.96586" lon="4.86219">
        <ele>282</ele>
        <time>2017-06-26T09:14:00Z</time>
      </trkpt>
      <trkpt lat="45.96587" lon="4.86207">
        <ele>282</ele>
        <time>2017-06-26T09:14:01Z</time>
      </trkpt>
      <trkpt lat="45.96589" lon="4.86195">
        <ele>282</ele>
        <time>2017-06-26T09:14:02Z</time>
      </trkpt>
      <trkpt lat="45.9659" lon="4.86182">
        <ele>281</ele>
        <time>2017-06-26T09:14:03Z</time>
      </trkpt>
      <trkpt lat="45.96591" lon="4.86169">
        <ele>281</ele>
        <time>2017-06-26T09:14:04Z</time>
      </trkpt>
      <trkpt lat="45.96592" lon="4.86156">
        <ele>281</ele>
        <time>2017-06-26T09:14:05Z</time>
      </trkpt>
      <trkpt lat="45.96593" lon="4.86143">
        <ele>281</ele>
        <time>2017-06-26T09:14:06Z</time>
      </trkpt>
      <trkpt lat="45.96594" lon="4.8613">
        <ele>281</ele>
        <time>2017-06-26T09:14:07Z</time>
      </trkpt>
      <trkpt lat="45.96594" lon="4.86117">
        <ele>281</ele>
        <time>2017-06-26T09:14:08Z</time>
      </trkpt>
      <trkpt lat="45.96593" lon="4.86103">
        <ele>280</ele>
        <time>2017-06-26T09:14:09Z</time>
      </trkpt>
      <trkpt lat="45.96592" lon="4.8609">
        <ele>279</ele>
        <time>2017-06-26T09:14:10Z</time>
      </trkpt>
      <trkpt lat="45.96589" lon="4.86078">
        <ele>279</ele>
        <time>2017-06-26T09:14:11Z</time>
      </trkpt>
      <trkpt lat="45.96585" lon="4.86065">
        <ele>279</ele>
        <time>2017-06-26T09:14:12Z</time>
      </trkpt>
      <trkpt lat="45.9658" lon="4.86053">
        <ele>277</ele>
        <time>2017-06-26T09:14:13Z</time>
      </trkpt>
      <trkpt lat="45.96575" lon="4.86042">
        <ele>276</ele>
        <time>2017-06-26T09:14:14Z</time>
      </trkpt>
      <trkpt lat="45.96569" lon="4.86031">
        <ele>276</ele>
        <time>2017-06-26T09:14:15Z</time>
      </trkpt>
      <trkpt lat="45.96563" lon="4.8602">
        <ele>276</ele>
        <time>2017-06-26T09:14:16Z</time>
      </trkpt>
      <trkpt lat="45.96558" lon="4.86009">
        <ele>276</ele>
        <time>2017-06-26T09:14:17Z</time>
      </trkpt>
      <trkpt lat="45.96552" lon="4.85999">
        <ele>276</ele>
        <time>2017-06-26T09:14:18Z</time>
      </trkpt>
      <trkpt lat="45.96546" lon="4.85989">
        <ele>275</ele>
        <time>2017-06-26T09:14:19Z</time>
      </trkpt>
      <trkpt lat="45.96541" lon="4.85979">
        <ele>275</ele>
        <time>2017-06-26T09:14:20Z</time>
      </trkpt>
      <trkpt lat="45.96536" lon="4.85969">
        <ele>275</ele>
        <time>2017-06-26T09:14:21Z</time>
      </trkpt>
      <trkpt lat="45.96531" lon="4.85959">
        <ele>275</ele>
        <time>2017-06-26T09:14:22Z</time>
      </trkpt>
      <trkpt lat="45.96526" lon="4.85949">
        <ele>275</ele>
        <time>2017-06-26T09:14:23Z</time>
      </trkpt>
      <trkpt lat="45.96522" lon="4.85939">
        <ele>275</ele>
        <time>2017-06-26T09:14:24Z</time>
      </trkpt>
      <trkpt lat="45.96519" lon="4.85928">
        <ele>275</ele>
        <time>2017-06-26T09:14:25Z</time>
      </trkpt>
      <trkpt lat="45.96516" lon="4.85918">
        <ele>275</ele>
        <time>2017-06-26T09:14:26Z</time>
      </trkpt>
      <trkpt lat="45.96513" lon="4.85907">
        <ele>275</ele>
        <time>2017-06-26T09:14:27Z</time>
      </trkpt>
      <trkpt lat="45.96511" lon="4.85897">
        <ele>275</ele>
        <time>2017-06-26T09:14:28Z</time>
      </trkpt>
      <trkpt lat="45.96509" lon="4.85887">
        <ele>275</ele>
        <time>2017-06-26T09:14:29Z</time>
      </trkpt>
      <trkpt lat="45.96507" lon="4.85876">
        <ele>275</ele>
        <time>2017-06-26T09:14:30Z</time>
      </trkpt>
      <trkpt lat="45.96506" lon="4.85866">
        <ele>275</ele>
        <time>2017-06-26T09:14:31Z</time>
      </trkpt>
      <trkpt lat="45.96505" lon="4.85855">
        <ele>275</ele>
        <time>2017-06-26T09:14:32Z</time>
      </trkpt>
      <trkpt lat="45.96503" lon="4.85844">
        <ele>275</ele>
        <time>2017-06-26T09:14:33Z</time>
      </trkpt>
      <trkpt lat="45.96502" lon="4.85833">
        <ele>275</ele>
        <time>2017-06-26T09:14:34Z</time>
      </trkpt>
      <trkpt lat="45.965" lon="4.85822">
        <ele>275</ele>
        <time>2017-06-26T09:14:35Z</time>
      </trkpt>
      <trkpt lat="45.96499" lon="4.85811">
        <ele>274</ele>
        <time>2017-06-26T09:14:36Z</time>
      </trkpt>
      <trkpt lat="45.96498" lon="4.85801">
        <ele>274</ele>
        <time>2017-06-26T09:14:37Z</time>
      </trkpt>
      <trkpt lat="45.96497" lon="4.8579">
        <ele>274</ele>
        <time>2017-06-26T09:14:38Z</time>
      </trkpt>
      <trkpt lat="45.96496" lon="4.85781">
        <ele>274</ele>
        <time>2017-06-26T09:14:39Z</time>
      </trkpt>
      <trkpt lat="45.96495" lon="4.85771">
        <ele>274</ele>
        <time>2017-06-26T09:14:40Z</time>
      </trkpt>
      <trkpt lat="45.96493" lon="4.85762">
        <ele>274</ele>
        <time>2017-06-26T09:14:41Z</time>
      </trkpt>
      <trkpt lat="45.96492" lon="4.85753">
        <ele>274</ele>
        <time>2017-06-26T09:14:42Z</time>
      </trkpt>
      <trkpt lat="45.96491" lon="4.85744">
        <ele>273</ele>
        <time>2017-06-26T09:14:43Z</time>
      </trkpt>
      <trkpt lat="45.96489" lon="4.85736">
        <ele>273</ele>
        <time>2017-06-26T09:14:44Z</time>
      </trkpt>
      <trkpt lat="45.96488" lon="4.85728">
        <ele>273</ele>
        <time>2017-06-26T09:14:45Z</time>
      </trkpt>
      <trkpt lat="45.96487" lon="4.85719">
        <ele>272</ele>
        <time>2017-06-26T09:14:46Z</time>
      </trkpt>
      <trkpt lat="45.96486" lon="4.85711">
        <ele>272</ele>
        <time>2017-06-26T09:14:47Z</time>
      </trkpt>
      <trkpt lat="45.96484" lon="4.85702">
        <ele>272</ele>
        <time>2017-06-26T09:14:48Z</time>
      </trkpt>
      <trkpt lat="45.96483" lon="4.85692">
        <ele>272</ele>
        <time>2017-06-26T09:14:49Z</time>
      </trkpt>
      <trkpt lat="45.96481" lon="4.85682">
        <ele>272</ele>
        <time>2017-06-26T09:14:50Z</time>
      </trkpt>
      <trkpt lat="45.9648" lon="4.85672">
        <ele>272</ele>
        <time>2017-06-26T09:14:51Z</time>
      </trkpt>
      <trkpt lat="45.96479" lon="4.85662">
        <ele>271</ele>
        <time>2017-06-26T09:14:52Z</time>
      </trkpt>
      <trkpt lat="45.96477" lon="4.85651">
        <ele>271</ele>
        <time>2017-06-26T09:14:53Z</time>
      </trkpt>
      <trkpt lat="45.96476" lon="4.85641">
        <ele>271</ele>
        <time>2017-06-26T09:14:54Z</time>
      </trkpt>
      <trkpt lat="45.96475" lon="4.85631">
        <ele>271</ele>
        <time>2017-06-26T09:14:55Z</time>
      </trkpt>
      <trkpt lat="45.96474" lon="4.85621">
        <ele>271</ele>
        <time>2017-06-26T09:14:56Z</time>
      </trkpt>
      <trkpt lat="45.96473" lon="4.85611">
        <ele>271</ele>
        <time>2017-06-26T09:14:57Z</time>
      </trkpt>
      <trkpt lat="45.96472" lon="4.85602">
        <ele>271</ele>
        <time>2017-06-26T09:14:58Z</time>
      </trkpt>
      <trkpt lat="45.9647" lon="4.85592">
        <ele>271</ele>
        <time>2017-06-26T09:14:59Z</time>
      </trkpt>
      <trkpt lat="45.9647" lon="4.85583">
        <ele>272</ele>
        <time>2017-06-26T09:15:00Z</time>
      </trkpt>
      <trkpt lat="45.96469" lon="4.85574">
        <ele>272</ele>
        <time>2017-06-26T09:15:01Z</time>
      </trkpt>
      <trkpt lat="45.96468" lon="4.85565">
        <ele>272</ele>
        <time>2017-06-26T09:15:02Z</time>
      </trkpt>
      <trkpt lat="45.96468" lon="4.85556">
        <ele>272</ele>
        <time>2017-06-26T09:15:03Z</time>
      </trkpt>
      <trkpt lat="45.96469" lon="4.85547">
        <ele>272</ele>
        <time>2017-06-26T09:15:04Z</time>
      </trkpt>
      <trkpt lat="45.96468" lon="4.85537">
        <ele>272</ele>
        <time>2017-06-26T09:15:05Z</time>
      </trkpt>
      <trkpt lat="45.96468" lon="4.85528">
        <ele>272</ele>
        <time>2017-06-26T09:15:06Z</time>
      </trkpt>
      <trkpt lat="45.96468" lon="4.85519">
        <ele>272</ele>
        <time>2017-06-26T09:15:07Z</time>
      </trkpt>
      <trkpt lat="45.96468" lon="4.8551">
        <ele>272</ele>
        <time>2017-06-26T09:15:08Z</time>
      </trkpt>
      <trkpt lat="45.96468" lon="4.855">
        <ele>272</ele>
        <time>2017-06-26T09:15:09Z</time>
      </trkpt>
      <trkpt lat="45.96468" lon="4.85491">
        <ele>272</ele>
        <time>2017-06-26T09:15:10Z</time>
      </trkpt>
      <trkpt lat="45.96468" lon="4.85482">
        <ele>272</ele>
        <time>2017-06-26T09:15:11Z</time>
      </trkpt>
      <trkpt lat="45.96468" lon="4.85473">
        <ele>272</ele>
        <time>2017-06-26T09:15:12Z</time>
      </trkpt>
      <trkpt lat="45.96467" lon="4.85464">
        <ele>272</ele>
        <time>2017-06-26T09:15:13Z</time>
      </trkpt>
      <trkpt lat="45.96467" lon="4.85455">
        <ele>272</ele>
        <time>2017-06-26T09:15:14Z</time>
      </trkpt>
      <trkpt lat="45.96467" lon="4.85446">
        <ele>272</ele>
        <time>2017-06-26T09:15:15Z</time>
      </trkpt>
      <trkpt lat="45.96467" lon="4.85436">
        <ele>272</ele>
        <time>2017-06-26T09:15:16Z</time>
      </trkpt>
      <trkpt lat="45.96466" lon="4.85427">
        <ele>272</ele>
        <time>2017-06-26T09:15:17Z</time>
      </trkpt>
      <trkpt lat="45.96466" lon="4.85417">
        <ele>272</ele>
        <time>2017-06-26T09:15:18Z</time>
      </trkpt>
      <trkpt lat="45.96465" lon="4.85409">
        <ele>272</ele>
        <time>2017-06-26T09:15:19Z</time>
      </trkpt>
      <trkpt lat="45.96464" lon="4.854">
        <ele>272</ele>
        <time>2017-06-26T09:15:20Z</time>
      </trkpt>
      <trkpt lat="45.96463" lon="4.85391">
        <ele>272</ele>
        <time>2017-06-26T09:15:21Z</time>
      </trkpt>
      <trkpt lat="45.96462" lon="4.85383">
        <ele>272</ele>
        <time>2017-06-26T09:15:22Z</time>
      </trkpt>
      <trkpt lat="45.96462" lon="4.85375">
        <ele>272</ele>
        <time>2017-06-26T09:15:23Z</time>
      </trkpt>
      <trkpt lat="45.96461" lon="4.85366">
        <ele>272</ele>
        <time>2017-06-26T09:15:24Z</time>
      </trkpt>
      <trkpt lat="45.9646" lon="4.85358">
        <ele>272</ele>
        <time>2017-06-26T09:15:25Z</time>
      </trkpt>
      <trkpt lat="45.9646" lon="4.8535">
        <ele>272</ele>
        <time>2017-06-26T09:15:26Z</time>
      </trkpt>
      <trkpt lat="45.96459" lon="4.85343">
        <ele>272</ele>
        <time>2017-06-26T09:15:27Z</time>
      </trkpt>
      <trkpt lat="45.96458" lon="4.85335">
        <ele>272</ele>
        <time>2017-06-26T09:15:28Z</time>
      </trkpt>
      <trkpt lat="45.96457" lon="4.85327">
        <ele>271</ele>
        <time>2017-06-26T09:15:29Z</time>
      </trkpt>
      <trkpt lat="45.96456" lon="4.85319">
        <ele>271</ele>
        <time>2017-06-26T09:15:30Z</time>
      </trkpt>
      <trkpt lat="45.96455" lon="4.85311">
        <ele>271</ele>
        <time>2017-06-26T09:15:31Z</time>
      </trkpt>
      <trkpt lat="45.96454" lon="4.85303">
        <ele>271</ele>
        <time>2017-06-26T09:15:32Z</time>
      </trkpt>
      <trkpt lat="45.96453" lon="4.85295">
        <ele>270</ele>
        <time>2017-06-26T09:15:33Z</time>
      </trkpt>
      <trkpt lat="45.96452" lon="4.85287">
        <ele>270</ele>
        <time>2017-06-26T09:15:34Z</time>
      </trkpt>
      <trkpt lat="45.96452" lon="4.85279">
        <ele>270</ele>
        <time>2017-06-26T09:15:35Z</time>
      </trkpt>
      <trkpt lat="45.96451" lon="4.8527">
        <ele>270</ele>
        <time>2017-06-26T09:15:36Z</time>
      </trkpt>
      <trkpt lat="45.96452" lon="4.85263">
        <ele>270</ele>
        <time>2017-06-26T09:15:37Z</time>
      </trkpt>
      <trkpt lat="45.96452" lon="4.85255">
        <ele>270</ele>
        <time>2017-06-26T09:15:38Z</time>
      </trkpt>
      <trkpt lat="45.96452" lon="4.85248">
        <ele>269</ele>
        <time>2017-06-26T09:15:39Z</time>
      </trkpt>
      <trkpt lat="45.96452" lon="4.8524">
        <ele>269</ele>
        <time>2017-06-26T09:15:40Z</time>
      </trkpt>
      <trkpt lat="45.96453" lon="4.85232">
        <ele>269</ele>
        <time>2017-06-26T09:15:41Z</time>
      </trkpt>
      <trkpt lat="45.96453" lon="4.85224">
        <ele>269</ele>
        <time>2017-06-26T09:15:42Z</time>
      </trkpt>
      <trkpt lat="45.96453" lon="4.85216">
        <ele>269</ele>
        <time>2017-06-26T09:15:43Z</time>
      </trkpt>
      <trkpt lat="45.96453" lon="4.85209">
        <ele>269</ele>
        <time>2017-06-26T09:15:44Z</time>
      </trkpt>
      <trkpt lat="45.96454" lon="4.852">
        <ele>269</ele>
        <time>2017-06-26T09:15:45Z</time>
      </trkpt>
      <trkpt lat="45.96454" lon="4.85192">
        <ele>269</ele>
        <time>2017-06-26T09:15:46Z</time>
      </trkpt>
      <trkpt lat="45.96455" lon="4.85184">
        <ele>269</ele>
        <time>2017-06-26T09:15:47Z</time>
      </trkpt>
      <trkpt lat="45.96456" lon="4.85175">
        <ele>269</ele>
        <time>2017-06-26T09:15:48Z</time>
      </trkpt>
      <trkpt lat="45.96457" lon="4.85167">
        <ele>268</ele>
        <time>2017-06-26T09:15:49Z</time>
      </trkpt>
      <trkpt lat="45.96459" lon="4.85158">
        <ele>268</ele>
        <time>2017-06-26T09:15:50Z</time>
      </trkpt>
      <trkpt lat="45.96461" lon="4.8515">
        <ele>268</ele>
        <time>2017-06-26T09:15:51Z</time>
      </trkpt>
      <trkpt lat="45.96463" lon="4.85141">
        <ele>268</ele>
        <time>2017-06-26T09:15:52Z</time>
      </trkpt>
      <trkpt lat="45.96464" lon="4.85131">
        <ele>268</ele>
        <time>2017-06-26T09:15:53Z</time>
      </trkpt>
      <trkpt lat="45.96465" lon="4.85122">
        <ele>268</ele>
        <time>2017-06-26T09:15:54Z</time>
      </trkpt>
      <trkpt lat="45.96467" lon="4.85113">
        <ele>268</ele>
        <time>2017-06-26T09:15:55Z</time>
      </trkpt>
      <trkpt lat="45.96468" lon="4.85103">
        <ele>268</ele>
        <time>2017-06-26T09:15:56Z</time>
      </trkpt>
      <trkpt lat="45.96468" lon="4.85093">
        <ele>268</ele>
        <time>2017-06-26T09:15:57Z</time>
      </trkpt>
      <trkpt lat="45.96469" lon="4.85082">
        <ele>267</ele>
        <time>2017-06-26T09:15:58Z</time>
      </trkpt>
      <trkpt lat="45.96469" lon="4.85072">
        <ele>267</ele>
        <time>2017-06-26T09:15:59Z</time>
      </trkpt>
      <trkpt lat="45.9647" lon="4.8506">
        <ele>266</ele>
        <time>2017-06-26T09:16:00Z</time>
      </trkpt>
      <trkpt lat="45.9647" lon="4.85049">
        <ele>266</ele>
        <time>2017-06-26T09:16:01Z</time>
      </trkpt>
      <trkpt lat="45.96471" lon="4.85037">
        <ele>266</ele>
        <time>2017-06-26T09:16:02Z</time>
      </trkpt>
      <trkpt lat="45.96472" lon="4.85025">
        <ele>266</ele>
        <time>2017-06-26T09:16:03Z</time>
      </trkpt>
      <trkpt lat="45.96472" lon="4.85013">
        <ele>266</ele>
        <time>2017-06-26T09:16:04Z</time>
      </trkpt>
      <trkpt lat="45.96473" lon="4.85001">
        <ele>266</ele>
        <time>2017-06-26T09:16:05Z</time>
      </trkpt>
      <trkpt lat="45.96475" lon="4.84988">
        <ele>263</ele>
        <time>2017-06-26T09:16:06Z</time>
      </trkpt>
      <trkpt lat="45.96477" lon="4.84976">
        <ele>262</ele>
        <time>2017-06-26T09:16:07Z</time>
      </trkpt>
      <trkpt lat="45.96479" lon="4.84962">
        <ele>261</ele>
        <time>2017-06-26T09:16:08Z</time>
      </trkpt>
      <trkpt lat="45.96483" lon="4.84949">
        <ele>260</ele>
        <time>2017-06-26T09:16:09Z</time>
      </trkpt>
      <trkpt lat="45.96486" lon="4.84936">
        <ele>260</ele>
        <time>2017-06-26T09:16:10Z</time>
      </trkpt>
      <trkpt lat="45.96489" lon="4.84924">
        <ele>259</ele>
        <time>2017-06-26T09:16:11Z</time>
      </trkpt>
      <trkpt lat="45.96492" lon="4.84911">
        <ele>256</ele>
        <time>2017-06-26T09:16:12Z</time>
      </trkpt>
      <trkpt lat="45.96495" lon="4.84898">
        <ele>256</ele>
        <time>2017-06-26T09:16:13Z</time>
      </trkpt>
      <trkpt lat="45.96498" lon="4.84884">
        <ele>255</ele>
        <time>2017-06-26T09:16:14Z</time>
      </trkpt>
      <trkpt lat="45.96501" lon="4.84871">
        <ele>257</ele>
        <time>2017-06-26T09:16:15Z</time>
      </trkpt>
      <trkpt lat="45.96503" lon="4.84857">
        <ele>256</ele>
        <time>2017-06-26T09:16:16Z</time>
      </trkpt>
      <trkpt lat="45.96506" lon="4.84843">
        <ele>255</ele>
        <time>2017-06-26T09:16:17Z</time>
      </trkpt>
      <trkpt lat="45.96509" lon="4.8483">
        <ele>253</ele>
        <time>2017-06-26T09:16:18Z</time>
      </trkpt>
      <trkpt lat="45.96512" lon="4.84817">
        <ele>254</ele>
        <time>2017-06-26T09:16:19Z</time>
      </trkpt>
      <trkpt lat="45.96515" lon="4.84803">
        <ele>254</ele>
        <time>2017-06-26T09:16:20Z</time>
      </trkpt>
      <trkpt lat="45.96518" lon="4.8479">
        <ele>254</ele>
        <time>2017-06-26T09:16:21Z</time>
      </trkpt>
      <trkpt lat="45.96521" lon="4.84776">
        <ele>254</ele>
        <time>2017-06-26T09:16:22Z</time>
      </trkpt>
      <trkpt lat="45.96524" lon="4.84763">
        <ele>253</ele>
        <time>2017-06-26T09:16:23Z</time>
      </trkpt>
      <trkpt lat="45.96526" lon="4.8475">
        <ele>253</ele>
        <time>2017-06-26T09:16:24Z</time>
      </trkpt>
      <trkpt lat="45.96529" lon="4.84737">
        <ele>253</ele>
        <time>2017-06-26T09:16:25Z</time>
      </trkpt>
      <trkpt lat="45.96531" lon="4.84724">
        <ele>253</ele>
        <time>2017-06-26T09:16:26Z</time>
      </trkpt>
      <trkpt lat="45.96531" lon="4.84711">
        <ele>253</ele>
        <time>2017-06-26T09:16:27Z</time>
      </trkpt>
      <trkpt lat="45.9653" lon="4.84698">
        <ele>253</ele>
        <time>2017-06-26T09:16:28Z</time>
      </trkpt>
      <trkpt lat="45.96528" lon="4.84685">
        <ele>253</ele>
        <time>2017-06-26T09:16:29Z</time>
      </trkpt>
      <trkpt lat="45.96526" lon="4.84673">
        <ele>252</ele>
        <time>2017-06-26T09:16:30Z</time>
      </trkpt>
      <trkpt lat="45.96524" lon="4.84662">
        <ele>252</ele>
        <time>2017-06-26T09:16:31Z</time>
      </trkpt>
      <trkpt lat="45.96522" lon="4.8465">
        <ele>252</ele>
        <time>2017-06-26T09:16:32Z</time>
      </trkpt>
      <trkpt lat="45.96521" lon="4.84638">
        <ele>252</ele>
        <time>2017-06-26T09:16:33Z</time>
      </trkpt>
      <trkpt lat="45.96521" lon="4.84627">
        <ele>252</ele>
        <time>2017-06-26T09:16:34Z</time>
      </trkpt>
      <trkpt lat="45.96521" lon="4.84616">
        <ele>252</ele>
        <time>2017-06-26T09:16:35Z</time>
      </trkpt>
      <trkpt lat="45.96521" lon="4.84605">
        <ele>252</ele>
        <time>2017-06-26T09:16:36Z</time>
      </trkpt>
      <trkpt lat="45.96521" lon="4.84594">
        <ele>252</ele>
        <time>2017-06-26T09:16:37Z</time>
      </trkpt>
      <trkpt lat="45.96522" lon="4.84584">
        <ele>252</ele>
        <time>2017-06-26T09:16:38Z</time>
      </trkpt>
      <trkpt lat="45.96522" lon="4.84574">
        <ele>253</ele>
        <time>2017-06-26T09:16:39Z</time>
      </trkpt>
      <trkpt lat="45.96522" lon="4.84564">
        <ele>253</ele>
        <time>2017-06-26T09:16:40Z</time>
      </trkpt>
      <trkpt lat="45.96523" lon="4.84553">
        <ele>253</ele>
        <time>2017-06-26T09:16:41Z</time>
      </trkpt>
      <trkpt lat="45.96524" lon="4.84543">
        <ele>253</ele>
        <time>2017-06-26T09:16:42Z</time>
      </trkpt>
      <trkpt lat="45.96524" lon="4.84534">
        <ele>253</ele>
        <time>2017-06-26T09:16:43Z</time>
      </trkpt>
      <trkpt lat="45.96525" lon="4.84524">
        <ele>253</ele>
        <time>2017-06-26T09:16:44Z</time>
      </trkpt>
      <trkpt lat="45.96525" lon="4.84515">
        <ele>253</ele>
        <time>2017-06-26T09:16:45Z</time>
      </trkpt>
      <trkpt lat="45.96526" lon="4.84506">
        <ele>253</ele>
        <time>2017-06-26T09:16:46Z</time>
      </trkpt>
      <trkpt lat="45.96527" lon="4.84497">
        <ele>253</ele>
        <time>2017-06-26T09:16:47Z</time>
      </trkpt>
      <trkpt lat="45.96527" lon="4.84489">
        <ele>253</ele>
        <time>2017-06-26T09:16:48Z</time>
      </trkpt>
      <trkpt lat="45.96528" lon="4.8448">
        <ele>253</ele>
        <time>2017-06-26T09:16:49Z</time>
      </trkpt>
      <trkpt lat="45.96528" lon="4.84472">
        <ele>253</ele>
        <time>2017-06-26T09:16:50Z</time>
      </trkpt>
      <trkpt lat="45.96529" lon="4.84463">
        <ele>253</ele>
        <time>2017-06-26T09:16:51Z</time>
      </trkpt>
      <trkpt lat="45.9653" lon="4.84454">
        <ele>253</ele>
        <time>2017-06-26T09:16:52Z</time>
      </trkpt>
      <trkpt lat="45.9653" lon="4.84445">
        <ele>253</ele>
        <time>2017-06-26T09:16:53Z</time>
      </trkpt>
      <trkpt lat="45.9653" lon="4.84436">
        <ele>253</ele>
        <time>2017-06-26T09:16:54Z</time>
      </trkpt>
      <trkpt lat="45.96531" lon="4.84427">
        <ele>253</ele>
        <time>2017-06-26T09:16:55Z</time>
      </trkpt>
      <trkpt lat="45.96531" lon="4.84417">
        <ele>253</ele>
        <time>2017-06-26T09:16:56Z</time>
      </trkpt>
      <trkpt lat="45.96531" lon="4.84407">
        <ele>252</ele>
        <time>2017-06-26T09:16:57Z</time>
      </trkpt>
      <trkpt lat="45.96532" lon="4.84398">
        <ele>252</ele>
        <time>2017-06-26T09:16:58Z</time>
      </trkpt>
      <trkpt lat="45.96532" lon="4.84389">
        <ele>252</ele>
        <time>2017-06-26T09:16:59Z</time>
      </trkpt>
      <trkpt lat="45.96532" lon="4.84381">
        <ele>251</ele>
        <time>2017-06-26T09:17:00Z</time>
      </trkpt>
      <trkpt lat="45.96531" lon="4.84372">
        <ele>251</ele>
        <time>2017-06-26T09:17:01Z</time>
      </trkpt>
      <trkpt lat="45.9653" lon="4.84364">
        <ele>251</ele>
        <time>2017-06-26T09:17:02Z</time>
      </trkpt>
      <trkpt lat="45.96528" lon="4.84357">
        <ele>251</ele>
        <time>2017-06-26T09:17:03Z</time>
      </trkpt>
      <trkpt lat="45.96526" lon="4.84349">
        <ele>251</ele>
        <time>2017-06-26T09:17:04Z</time>
      </trkpt>
      <trkpt lat="45.96524" lon="4.8434">
        <ele>251</ele>
        <time>2017-06-26T09:17:05Z</time>
      </trkpt>
      <trkpt lat="45.96522" lon="4.84331">
        <ele>250</ele>
        <time>2017-06-26T09:17:06Z</time>
      </trkpt>
      <trkpt lat="45.96518" lon="4.84322">
        <ele>250</ele>
        <time>2017-06-26T09:17:07Z</time>
      </trkpt>
      <trkpt lat="45.96515" lon="4.84314">
        <ele>250</ele>
        <time>2017-06-26T09:17:08Z</time>
      </trkpt>
      <trkpt lat="45.96514" lon="4.84305">
        <ele>250</ele>
        <time>2017-06-26T09:17:09Z</time>
      </trkpt>
      <trkpt lat="45.96512" lon="4.84296">
        <ele>250</ele>
        <time>2017-06-26T09:17:10Z</time>
      </trkpt>
      <trkpt lat="45.96511" lon="4.84288">
        <ele>250</ele>
        <time>2017-06-26T09:17:11Z</time>
      </trkpt>
      <trkpt lat="45.96509" lon="4.8428">
        <ele>250</ele>
        <time>2017-06-26T09:17:12Z</time>
      </trkpt>
      <trkpt lat="45.96508" lon="4.84273">
        <ele>250</ele>
        <time>2017-06-26T09:17:13Z</time>
      </trkpt>
      <trkpt lat="45.96507" lon="4.84266">
        <ele>250</ele>
        <time>2017-06-26T09:17:14Z</time>
      </trkpt>
      <trkpt lat="45.96505" lon="4.8426">
        <ele>251</ele>
        <time>2017-06-26T09:17:15Z</time>
      </trkpt>
      <trkpt lat="45.96504" lon="4.84253">
        <ele>251</ele>
        <time>2017-06-26T09:17:16Z</time>
      </trkpt>
      <trkpt lat="45.96502" lon="4.84247">
        <ele>251</ele>
        <time>2017-06-26T09:17:17Z</time>
      </trkpt>
      <trkpt lat="45.96501" lon="4.8424">
        <ele>250</ele>
        <time>2017-06-26T09:17:18Z</time>
      </trkpt>
      <trkpt lat="45.96499" lon="4.84233">
        <ele>251</ele>
        <time>2017-06-26T09:17:19Z</time>
      </trkpt>
      <trkpt lat="45.96498" lon="4.84225">
        <ele>252</ele>
        <time>2017-06-26T09:17:20Z</time>
      </trkpt>
      <trkpt lat="45.96496" lon="4.84218">
        <ele>252</ele>
        <time>2017-06-26T09:17:21Z</time>
      </trkpt>
      <trkpt lat="45.96494" lon="4.84211">
        <ele>251</ele>
        <time>2017-06-26T09:17:22Z</time>
      </trkpt>
      <trkpt lat="45.96493" lon="4.84203">
        <ele>251</ele>
        <time>2017-06-26T09:17:23Z</time>
      </trkpt>
      <trkpt lat="45.96491" lon="4.84195">
        <ele>251</ele>
        <time>2017-06-26T09:17:24Z</time>
      </trkpt>
      <trkpt lat="45.9649" lon="4.84188">
        <ele>251</ele>
        <time>2017-06-26T09:17:25Z</time>
      </trkpt>
      <trkpt lat="45.96488" lon="4.8418">
        <ele>251</ele>
        <time>2017-06-26T09:17:26Z</time>
      </trkpt>
      <trkpt lat="45.96487" lon="4.84173">
        <ele>251</ele>
        <time>2017-06-26T09:17:27Z</time>
      </trkpt>
      <trkpt lat="45.96486" lon="4.84166">
        <ele>250</ele>
        <time>2017-06-26T09:17:28Z</time>
      </trkpt>
      <trkpt lat="45.96485" lon="4.8416">
        <ele>250</ele>
        <time>2017-06-26T09:17:29Z</time>
      </trkpt>
      <trkpt lat="45.96484" lon="4.84153">
        <ele>251</ele>
        <time>2017-06-26T09:17:30Z</time>
      </trkpt>
      <trkpt lat="45.96482" lon="4.84147">
        <ele>251</ele>
        <time>2017-06-26T09:17:31Z</time>
      </trkpt>
      <trkpt lat="45.9648" lon="4.8414">
        <ele>251</ele>
        <time>2017-06-26T09:17:32Z</time>
      </trkpt>
      <trkpt lat="45.96478" lon="4.84134">
        <ele>251</ele>
        <time>2017-06-26T09:17:33Z</time>
      </trkpt>
      <trkpt lat="45.96476" lon="4.84127">
        <ele>251</ele>
        <time>2017-06-26T09:17:34Z</time>
      </trkpt>
      <trkpt lat="45.96475" lon="4.8412">
        <ele>251</ele>
        <time>2017-06-26T09:17:35Z</time>
      </trkpt>
      <trkpt lat="45.96473" lon="4.84113">
        <ele>251</ele>
        <time>2017-06-26T09:17:36Z</time>
      </trkpt>
      <trkpt lat="45.9647" lon="4.84106">
        <ele>251</ele>
        <time>2017-06-26T09:17:37Z</time>
      </trkpt>
      <trkpt lat="45.96467" lon="4.84098">
        <ele>251</ele>
        <time>2017-06-26T09:17:38Z</time>
      </trkpt>
      <trkpt lat="45.96464" lon="4.84091">
        <ele>251</ele>
        <time>2017-06-26T09:17:39Z</time>
      </trkpt>
      <trkpt lat="45.96461" lon="4.84083">
        <ele>251</ele>
        <time>2017-06-26T09:17:40Z</time>
      </trkpt>
      <trkpt lat="45.96458" lon="4.84075">
        <ele>251</ele>
        <time>2017-06-26T09:17:41Z</time>
      </trkpt>
      <trkpt lat="45.96456" lon="4.84067">
        <ele>251</ele>
        <time>2017-06-26T09:17:42Z</time>
      </trkpt>
      <trkpt lat="45.96453" lon="4.84059">
        <ele>251</ele>
        <time>2017-06-26T09:17:43Z</time>
      </trkpt>
      <trkpt lat="45.9645" lon="4.84052">
        <ele>251</ele>
        <time>2017-06-26T09:17:44Z</time>
      </trkpt>
      <trkpt lat="45.96447" lon="4.84044">
        <ele>251</ele>
        <time>2017-06-26T09:17:45Z</time>
      </trkpt>
      <trkpt lat="45.96444" lon="4.84036">
        <ele>251</ele>
        <time>2017-06-26T09:17:46Z</time>
      </trkpt>
      <trkpt lat="45.96441" lon="4.84028">
        <ele>251</ele>
        <time>2017-06-26T09:17:47Z</time>
      </trkpt>
      <trkpt lat="45.96438" lon="4.84019">
        <ele>251</ele>
        <time>2017-06-26T09:17:48Z</time>
      </trkpt>
      <trkpt lat="45.96434" lon="4.84011">
        <ele>252</ele>
        <time>2017-06-26T09:17:49Z</time>
      </trkpt>
      <trkpt lat="45.9643" lon="4.84003">
        <ele>252</ele>
        <time>2017-06-26T09:17:50Z</time>
      </trkpt>
      <trkpt lat="45.96427" lon="4.83994">
        <ele>251</ele>
        <time>2017-06-26T09:17:51Z</time>
      </trkpt>
      <trkpt lat="45.96423" lon="4.83985">
        <ele>251</ele>
        <time>2017-06-26T09:17:52Z</time>
      </trkpt>
      <trkpt lat="45.9642" lon="4.83976">
        <ele>250</ele>
        <time>2017-06-26T09:17:53Z</time>
      </trkpt>
      <trkpt lat="45.96416" lon="4.83967">
        <ele>252</ele>
        <time>2017-06-26T09:17:54Z</time>
      </trkpt>
      <trkpt lat="45.96412" lon="4.83958">
        <ele>252</ele>
        <time>2017-06-26T09:17:55Z</time>
      </trkpt>
      <trkpt lat="45.96408" lon="4.83948">
        <ele>252</ele>
        <time>2017-06-26T09:17:56Z</time>
      </trkpt>
      <trkpt lat="45.96404" lon="4.83939">
        <ele>251</ele>
        <time>2017-06-26T09:17:57Z</time>
      </trkpt>
      <trkpt lat="45.964" lon="4.8393">
        <ele>251</ele>
        <time>2017-06-26T09:17:58Z</time>
      </trkpt>
      <trkpt lat="45.96396" lon="4.8392">
        <ele>250</ele>
        <time>2017-06-26T09:17:59Z</time>
      </trkpt>
      <trkpt lat="45.96391" lon="4.83911">
        <ele>248</ele>
        <time>2017-06-26T09:18:00Z</time>
      </trkpt>
      <trkpt lat="45.96387" lon="4.83902">
        <ele>248</ele>
        <time>2017-06-26T09:18:01Z</time>
      </trkpt>
      <trkpt lat="45.96383" lon="4.83893">
        <ele>248</ele>
        <time>2017-06-26T09:18:02Z</time>
      </trkpt>
      <trkpt lat="45.96379" lon="4.83884">
        <ele>247</ele>
        <time>2017-06-26T09:18:03Z</time>
      </trkpt>
      <trkpt lat="45.96374" lon="4.83875">
        <ele>247</ele>
        <time>2017-06-26T09:18:04Z</time>
      </trkpt>
      <trkpt lat="45.9637" lon="4.83866">
        <ele>247</ele>
        <time>2017-06-26T09:18:05Z</time>
      </trkpt>
      <trkpt lat="45.96365" lon="4.83857">
        <ele>247</ele>
        <time>2017-06-26T09:18:06Z</time>
      </trkpt>
      <trkpt lat="45.9636" lon="4.83848">
        <ele>246</ele>
        <time>2017-06-26T09:18:07Z</time>
      </trkpt>
      <trkpt lat="45.96355" lon="4.83841">
        <ele>246</ele>
        <time>2017-06-26T09:18:08Z</time>
      </trkpt>
      <trkpt lat="45.96349" lon="4.83834">
        <ele>245</ele>
        <time>2017-06-26T09:18:09Z</time>
      </trkpt>
      <trkpt lat="45.96344" lon="4.83828">
        <ele>245</ele>
        <time>2017-06-26T09:18:10Z</time>
      </trkpt>
      <trkpt lat="45.96338" lon="4.83822">
        <ele>245</ele>
        <time>2017-06-26T09:18:11Z</time>
      </trkpt>
      <trkpt lat="45.96332" lon="4.83816">
        <ele>244</ele>
        <time>2017-06-26T09:18:12Z</time>
      </trkpt>
      <trkpt lat="45.96326" lon="4.83811">
        <ele>244</ele>
        <time>2017-06-26T09:18:13Z</time>
      </trkpt>
      <trkpt lat="45.9632" lon="4.83807">
        <ele>245</ele>
        <time>2017-06-26T09:18:14Z</time>
      </trkpt>
      <trkpt lat="45.96315" lon="4.83802">
        <ele>245</ele>
        <time>2017-06-26T09:18:15Z</time>
      </trkpt>
      <trkpt lat="45.9631" lon="4.83797">
        <ele>245</ele>
        <time>2017-06-26T09:18:16Z</time>
      </trkpt>
      <trkpt lat="45.96305" lon="4.83793">
        <ele>245</ele>
        <time>2017-06-26T09:18:17Z</time>
      </trkpt>
      <trkpt lat="45.96299" lon="4.83788">
        <ele>245</ele>
        <time>2017-06-26T09:18:18Z</time>
      </trkpt>
      <trkpt lat="45.96294" lon="4.83784">
        <ele>245</ele>
        <time>2017-06-26T09:18:19Z</time>
      </trkpt>
      <trkpt lat="45.96289" lon="4.83779">
        <ele>245</ele>
        <time>2017-06-26T09:18:20Z</time>
      </trkpt>
      <trkpt lat="45.96285" lon="4.83775">
        <ele>245</ele>
        <time>2017-06-26T09:18:21Z</time>
      </trkpt>
      <trkpt lat="45.96281" lon="4.8377">
        <ele>245</ele>
        <time>2017-06-26T09:18:22Z</time>
      </trkpt>
      <trkpt lat="45.96277" lon="4.83766">
        <ele>245</ele>
        <time>2017-06-26T09:18:23Z</time>
      </trkpt>
      <trkpt lat="45.96272" lon="4.83762">
        <ele>245</ele>
        <time>2017-06-26T09:18:24Z</time>
      </trkpt>
      <trkpt lat="45.96267" lon="4.83757">
        <ele>245</ele>
        <time>2017-06-26T09:18:25Z</time>
      </trkpt>
      <trkpt lat="45.96263" lon="4.83751">
        <ele>244</ele>
        <time>2017-06-26T09:18:26Z</time>
      </trkpt>
      <trkpt lat="45.96257" lon="4.83746">
        <ele>245</ele>
        <time>2017-06-26T09:18:27Z</time>
      </trkpt>
      <trkpt lat="45.96252" lon="4.83741">
        <ele>245</ele>
        <time>2017-06-26T09:18:28Z</time>
      </trkpt>
      <trkpt lat="45.96248" lon="4.83736">
        <ele>244</ele>
        <time>2017-06-26T09:18:29Z</time>
      </trkpt>
      <trkpt lat="45.96243" lon="4.83731">
        <ele>244</ele>
        <time>2017-06-26T09:18:30Z</time>
      </trkpt>
      <trkpt lat="45.96239" lon="4.83726">
        <ele>244</ele>
        <time>2017-06-26T09:18:31Z</time>
      </trkpt>
      <trkpt lat="45.96234" lon="4.83721">
        <ele>244</ele>
        <time>2017-06-26T09:18:32Z</time>
      </trkpt>
      <trkpt lat="45.9623" lon="4.83716">
        <ele>244</ele>
        <time>2017-06-26T09:18:33Z</time>
      </trkpt>
      <trkpt lat="45.96225" lon="4.83711">
        <ele>244</ele>
        <time>2017-06-26T09:18:34Z</time>
      </trkpt>
      <trkpt lat="45.96221" lon="4.83706">
        <ele>244</ele>
        <time>2017-06-26T09:18:35Z</time>
      </trkpt>
      <trkpt lat="45.96217" lon="4.83702">
        <ele>244</ele>
        <time>2017-06-26T09:18:36Z</time>
      </trkpt>
      <trkpt lat="45.96213" lon="4.83697">
        <ele>243</ele>
        <time>2017-06-26T09:18:37Z</time>
      </trkpt>
      <trkpt lat="45.96208" lon="4.83692">
        <ele>243</ele>
        <time>2017-06-26T09:18:38Z</time>
      </trkpt>
      <trkpt lat="45.96203" lon="4.83687">
        <ele>243</ele>
        <time>2017-06-26T09:18:39Z</time>
      </trkpt>
      <trkpt lat="45.96199" lon="4.83682">
        <ele>243</ele>
        <time>2017-06-26T09:18:40Z</time>
      </trkpt>
      <trkpt lat="45.96194" lon="4.83676">
        <ele>243</ele>
        <time>2017-06-26T09:18:41Z</time>
      </trkpt>
      <trkpt lat="45.9619" lon="4.83671">
        <ele>243</ele>
        <time>2017-06-26T09:18:42Z</time>
      </trkpt>
      <trkpt lat="45.96186" lon="4.83666">
        <ele>242</ele>
        <time>2017-06-26T09:18:43Z</time>
      </trkpt>
      <trkpt lat="45.96182" lon="4.83661">
        <ele>242</ele>
        <time>2017-06-26T09:18:44Z</time>
      </trkpt>
      <trkpt lat="45.96178" lon="4.83656">
        <ele>242</ele>
        <time>2017-06-26T09:18:45Z</time>
      </trkpt>
      <trkpt lat="45.96174" lon="4.83651">
        <ele>242</ele>
        <time>2017-06-26T09:18:46Z</time>
      </trkpt>
      <trkpt lat="45.96171" lon="4.83646">
        <ele>242</ele>
        <time>2017-06-26T09:18:47Z</time>
      </trkpt>
      <trkpt lat="45.96168" lon="4.8364">
        <ele>242</ele>
        <time>2017-06-26T09:18:48Z</time>
      </trkpt>
      <trkpt lat="45.96166" lon="4.83633">
        <ele>242</ele>
        <time>2017-06-26T09:18:49Z</time>
      </trkpt>
      <trkpt lat="45.96163" lon="4.83625">
        <ele>242</ele>
        <time>2017-06-26T09:18:50Z</time>
      </trkpt>
      <trkpt lat="45.96161" lon="4.83617">
        <ele>242</ele>
        <time>2017-06-26T09:18:51Z</time>
      </trkpt>
      <trkpt lat="45.96158" lon="4.83608">
        <ele>242</ele>
        <time>2017-06-26T09:18:52Z</time>
      </trkpt>
      <trkpt lat="45.96156" lon="4.836">
        <ele>242</ele>
        <time>2017-06-26T09:18:53Z</time>
      </trkpt>
      <trkpt lat="45.96155" lon="4.83592">
        <ele>241</ele>
        <time>2017-06-26T09:18:54Z</time>
      </trkpt>
      <trkpt lat="45.96153" lon="4.83584">
        <ele>241</ele>
        <time>2017-06-26T09:18:55Z</time>
      </trkpt>
      <trkpt lat="45.96151" lon="4.83577">
        <ele>241</ele>
        <time>2017-06-26T09:18:56Z</time>
      </trkpt>
      <trkpt lat="45.96149" lon="4.83569">
        <ele>241</ele>
        <time>2017-06-26T09:18:57Z</time>
      </trkpt>
      <trkpt lat="45.96148" lon="4.83562">
        <ele>241</ele>
        <time>2017-06-26T09:18:58Z</time>
      </trkpt>
      <trkpt lat="45.96146" lon="4.83554">
        <ele>242</ele>
        <time>2017-06-26T09:18:59Z</time>
      </trkpt>
      <trkpt lat="45.96144" lon="4.83547">
        <ele>242</ele>
        <time>2017-06-26T09:19:00Z</time>
      </trkpt>
      <trkpt lat="45.96143" lon="4.8354">
        <ele>242</ele>
        <time>2017-06-26T09:19:01Z</time>
      </trkpt>
      <trkpt lat="45.96142" lon="4.83533">
        <ele>242</ele>
        <time>2017-06-26T09:19:02Z</time>
      </trkpt>
      <trkpt lat="45.9614" lon="4.83526">
        <ele>242</ele>
        <time>2017-06-26T09:19:03Z</time>
      </trkpt>
      <trkpt lat="45.96138" lon="4.83518">
        <ele>242</ele>
        <time>2017-06-26T09:19:04Z</time>
      </trkpt>
      <trkpt lat="45.96137" lon="4.8351">
        <ele>242</ele>
        <time>2017-06-26T09:19:05Z</time>
      </trkpt>
      <trkpt lat="45.96135" lon="4.83502">
        <ele>242</ele>
        <time>2017-06-26T09:19:06Z</time>
      </trkpt>
      <trkpt lat="45.96133" lon="4.83494">
        <ele>242</ele>
        <time>2017-06-26T09:19:07Z</time>
      </trkpt>
      <trkpt lat="45.96132" lon="4.83485">
        <ele>242</ele>
        <time>2017-06-26T09:19:08Z</time>
      </trkpt>
      <trkpt lat="45.9613" lon="4.83477">
        <ele>242</ele>
        <time>2017-06-26T09:19:09Z</time>
      </trkpt>
      <trkpt lat="45.96129" lon="4.83469">
        <ele>242</ele>
        <time>2017-06-26T09:19:10Z</time>
      </trkpt>
      <trkpt lat="45.96127" lon="4.83461">
        <ele>242</ele>
        <time>2017-06-26T09:19:11Z</time>
      </trkpt>
      <trkpt lat="45.96126" lon="4.83452">
        <ele>242</ele>
        <time>2017-06-26T09:19:12Z</time>
      </trkpt>
      <trkpt lat="45.96124" lon="4.83443">
        <ele>242</ele>
        <time>2017-06-26T09:19:13Z</time>
      </trkpt>
      <trkpt lat="45.96122" lon="4.83434">
        <ele>242</ele>
        <time>2017-06-26T09:19:14Z</time>
      </trkpt>
      <trkpt lat="45.96121" lon="4.83426">
        <ele>243</ele>
        <time>2017-06-26T09:19:15Z</time>
      </trkpt>
      <trkpt lat="45.9612" lon="4.83418">
        <ele>243</ele>
        <time>2017-06-26T09:19:16Z</time>
      </trkpt>
      <trkpt lat="45.96118" lon="4.83409">
        <ele>243</ele>
        <time>2017-06-26T09:19:17Z</time>
      </trkpt>
      <trkpt lat="45.96116" lon="4.83401">
        <ele>243</ele>
        <time>2017-06-26T09:19:18Z</time>
      </trkpt>
      <trkpt lat="45.96114" lon="4.83392">
        <ele>243</ele>
        <time>2017-06-26T09:19:19Z</time>
      </trkpt>
      <trkpt lat="45.96113" lon="4.83383">
        <ele>242</ele>
        <time>2017-06-26T09:19:20Z</time>
      </trkpt>
      <trkpt lat="45.96111" lon="4.83374">
        <ele>242</ele>
        <time>2017-06-26T09:19:21Z</time>
      </trkpt>
      <trkpt lat="45.9611" lon="4.83365">
        <ele>242</ele>
        <time>2017-06-26T09:19:22Z</time>
      </trkpt>
      <trkpt lat="45.96108" lon="4.83356">
        <ele>242</ele>
        <time>2017-06-26T09:19:23Z</time>
      </trkpt>
      <trkpt lat="45.96107" lon="4.83347">
        <ele>242</ele>
        <time>2017-06-26T09:19:24Z</time>
      </trkpt>
      <trkpt lat="45.96105" lon="4.83338">
        <ele>242</ele>
        <time>2017-06-26T09:19:25Z</time>
      </trkpt>
      <trkpt lat="45.96104" lon="4.83329">
        <ele>241</ele>
        <time>2017-06-26T09:19:26Z</time>
      </trkpt>
      <trkpt lat="45.96102" lon="4.8332">
        <ele>241</ele>
        <time>2017-06-26T09:19:27Z</time>
      </trkpt>
      <trkpt lat="45.96101" lon="4.83311">
        <ele>241</ele>
        <time>2017-06-26T09:19:28Z</time>
      </trkpt>
      <trkpt lat="45.96099" lon="4.83302">
        <ele>241</ele>
        <time>2017-06-26T09:19:29Z</time>
      </trkpt>
      <trkpt lat="45.96098" lon="4.83293">
        <ele>241</ele>
        <time>2017-06-26T09:19:30Z</time>
      </trkpt>
      <trkpt lat="45.96098" lon="4.83284">
        <ele>241</ele>
        <time>2017-06-26T09:19:31Z</time>
      </trkpt>
      <trkpt lat="45.96097" lon="4.83275">
        <ele>241</ele>
        <time>2017-06-26T09:19:32Z</time>
      </trkpt>
      <trkpt lat="45.96097" lon="4.83266">
        <ele>241</ele>
        <time>2017-06-26T09:19:33Z</time>
      </trkpt>
      <trkpt lat="45.96097" lon="4.83257">
        <ele>241</ele>
        <time>2017-06-26T09:19:34Z</time>
      </trkpt>
      <trkpt lat="45.96096" lon="4.83248">
        <ele>240</ele>
        <time>2017-06-26T09:19:35Z</time>
      </trkpt>
      <trkpt lat="45.96096" lon="4.8324">
        <ele>240</ele>
        <time>2017-06-26T09:19:36Z</time>
      </trkpt>
      <trkpt lat="45.96096" lon="4.83231">
        <ele>240</ele>
        <time>2017-06-26T09:19:37Z</time>
      </trkpt>
      <trkpt lat="45.96096" lon="4.83222">
        <ele>240</ele>
        <time>2017-06-26T09:19:38Z</time>
      </trkpt>
      <trkpt lat="45.96096" lon="4.83213">
        <ele>240</ele>
        <time>2017-06-26T09:19:39Z</time>
      </trkpt>
      <trkpt lat="45.96096" lon="4.83205">
        <ele>240</ele>
        <time>2017-06-26T09:19:40Z</time>
      </trkpt>
      <trkpt lat="45.96096" lon="4.83197">
        <ele>240</ele>
        <time>2017-06-26T09:19:41Z</time>
      </trkpt>
      <trkpt lat="45.96096" lon="4.83188">
        <ele>240</ele>
        <time>2017-06-26T09:19:42Z</time>
      </trkpt>
      <trkpt lat="45.96096" lon="4.8318">
        <ele>240</ele>
        <time>2017-06-26T09:19:43Z</time>
      </trkpt>
      <trkpt lat="45.96095" lon="4.83171">
        <ele>240</ele>
        <time>2017-06-26T09:19:44Z</time>
      </trkpt>
      <trkpt lat="45.96095" lon="4.83163">
        <ele>240</ele>
        <time>2017-06-26T09:19:45Z</time>
      </trkpt>
      <trkpt lat="45.96094" lon="4.83155">
        <ele>240</ele>
        <time>2017-06-26T09:19:46Z</time>
      </trkpt>
      <trkpt lat="45.96093" lon="4.83146">
        <ele>240</ele>
        <time>2017-06-26T09:19:47Z</time>
      </trkpt>
      <trkpt lat="45.96093" lon="4.83136">
        <ele>240</ele>
        <time>2017-06-26T09:19:48Z</time>
      </trkpt>
      <trkpt lat="45.96092" lon="4.83127">
        <ele>240</ele>
        <time>2017-06-26T09:19:49Z</time>
      </trkpt>
      <trkpt lat="45.96091" lon="4.83118">
        <ele>240</ele>
        <time>2017-06-26T09:19:50Z</time>
      </trkpt>
      <trkpt lat="45.96091" lon="4.83109">
        <ele>240</ele>
        <time>2017-06-26T09:19:51Z</time>
      </trkpt>
      <trkpt lat="45.9609" lon="4.831">
        <ele>240</ele>
        <time>2017-06-26T09:19:52Z</time>
      </trkpt>
      <trkpt lat="45.96089" lon="4.83092">
        <ele>240</ele>
        <time>2017-06-26T09:19:53Z</time>
      </trkpt>
      <trkpt lat="45.96087" lon="4.83083">
        <ele>240</ele>
        <time>2017-06-26T09:19:54Z</time>
      </trkpt>
      <trkpt lat="45.96085" lon="4.83075">
        <ele>240</ele>
        <time>2017-06-26T09:19:55Z</time>
      </trkpt>
      <trkpt lat="45.96083" lon="4.83066">
        <ele>242</ele>
        <time>2017-06-26T09:19:56Z</time>
      </trkpt>
      <trkpt lat="45.9608" lon="4.83057">
        <ele>242</ele>
        <time>2017-06-26T09:19:57Z</time>
      </trkpt>
      <trkpt lat="45.96078" lon="4.83048">
        <ele>242</ele>
        <time>2017-06-26T09:19:58Z</time>
      </trkpt>
      <trkpt lat="45.96077" lon="4.83039">
        <ele>242</ele>
        <time>2017-06-26T09:19:59Z</time>
      </trkpt>
      <trkpt lat="45.96075" lon="4.8303">
        <ele>242</ele>
        <time>2017-06-26T09:20:00Z</time>
      </trkpt>
      <trkpt lat="45.96074" lon="4.83021">
        <ele>242</ele>
        <time>2017-06-26T09:20:01Z</time>
      </trkpt>
      <trkpt lat="45.96073" lon="4.83012">
        <ele>241</ele>
        <time>2017-06-26T09:20:02Z</time>
      </trkpt>
      <trkpt lat="45.96072" lon="4.83003">
        <ele>241</ele>
        <time>2017-06-26T09:20:03Z</time>
      </trkpt>
      <trkpt lat="45.96072" lon="4.82994">
        <ele>240</ele>
        <time>2017-06-26T09:20:04Z</time>
      </trkpt>
      <trkpt lat="45.96072" lon="4.82986">
        <ele>241</ele>
        <time>2017-06-26T09:20:05Z</time>
      </trkpt>
      <trkpt lat="45.96074" lon="4.82978">
        <ele>241</ele>
        <time>2017-06-26T09:20:06Z</time>
      </trkpt>
      <trkpt lat="45.96076" lon="4.8297">
        <ele>241</ele>
        <time>2017-06-26T09:20:07Z</time>
      </trkpt>
      <trkpt lat="45.96077" lon="4.82962">
        <ele>241</ele>
        <time>2017-06-26T09:20:08Z</time>
      </trkpt>
      <trkpt lat="45.96079" lon="4.82953">
        <ele>241</ele>
        <time>2017-06-26T09:20:09Z</time>
      </trkpt>
      <trkpt lat="45.96081" lon="4.82944">
        <ele>241</ele>
        <time>2017-06-26T09:20:10Z</time>
      </trkpt>
      <trkpt lat="45.96083" lon="4.82935">
        <ele>240</ele>
        <time>2017-06-26T09:20:11Z</time>
      </trkpt>
      <trkpt lat="45.96085" lon="4.82926">
        <ele>238</ele>
        <time>2017-06-26T09:20:12Z</time>
      </trkpt>
      <trkpt lat="45.96088" lon="4.82916">
        <ele>238</ele>
        <time>2017-06-26T09:20:13Z</time>
      </trkpt>
      <trkpt lat="45.9609" lon="4.82907">
        <ele>238</ele>
        <time>2017-06-26T09:20:14Z</time>
      </trkpt>
      <trkpt lat="45.96092" lon="4.82898">
        <ele>238</ele>
        <time>2017-06-26T09:20:15Z</time>
      </trkpt>
      <trkpt lat="45.96094" lon="4.82889">
        <ele>237</ele>
        <time>2017-06-26T09:20:16Z</time>
      </trkpt>
      <trkpt lat="45.96096" lon="4.82881">
        <ele>237</ele>
        <time>2017-06-26T09:20:17Z</time>
      </trkpt>
      <trkpt lat="45.96098" lon="4.82873">
        <ele>237</ele>
        <time>2017-06-26T09:20:18Z</time>
      </trkpt>
      <trkpt lat="45.961" lon="4.82865">
        <ele>237</ele>
        <time>2017-06-26T09:20:19Z</time>
      </trkpt>
      <trkpt lat="45.96101" lon="4.82857">
        <ele>237</ele>
        <time>2017-06-26T09:20:20Z</time>
      </trkpt>
      <trkpt lat="45.96101" lon="4.82849">
        <ele>237</ele>
        <time>2017-06-26T09:20:21Z</time>
      </trkpt>
      <trkpt lat="45.961" lon="4.82841">
        <ele>237</ele>
        <time>2017-06-26T09:20:22Z</time>
      </trkpt>
      <trkpt lat="45.96099" lon="4.82833">
        <ele>237</ele>
        <time>2017-06-26T09:20:23Z</time>
      </trkpt>
      <trkpt lat="45.96097" lon="4.82825">
        <ele>237</ele>
        <time>2017-06-26T09:20:24Z</time>
      </trkpt>
      <trkpt lat="45.96096" lon="4.82817">
        <ele>237</ele>
        <time>2017-06-26T09:20:25Z</time>
      </trkpt>
      <trkpt lat="45.96094" lon="4.82809">
        <ele>237</ele>
        <time>2017-06-26T09:20:26Z</time>
      </trkpt>
      <trkpt lat="45.96093" lon="4.82801">
        <ele>237</ele>
        <time>2017-06-26T09:20:27Z</time>
      </trkpt>
      <trkpt lat="45.96092" lon="4.82793">
        <ele>237</ele>
        <time>2017-06-26T09:20:28Z</time>
      </trkpt>
      <trkpt lat="45.9609" lon="4.82786">
        <ele>237</ele>
        <time>2017-06-26T09:20:29Z</time>
      </trkpt>
      <trkpt lat="45.96088" lon="4.82778">
        <ele>237</ele>
        <time>2017-06-26T09:20:30Z</time>
      </trkpt>
      <trkpt lat="45.96087" lon="4.82771">
        <ele>237</ele>
        <time>2017-06-26T09:20:31Z</time>
      </trkpt>
      <trkpt lat="45.96084" lon="4.82764">
        <ele>237</ele>
        <time>2017-06-26T09:20:32Z</time>
      </trkpt>
      <trkpt lat="45.96082" lon="4.82756">
        <ele>237</ele>
        <time>2017-06-26T09:20:33Z</time>
      </trkpt>
      <trkpt lat="45.9608" lon="4.82749">
        <ele>237</ele>
        <time>2017-06-26T09:20:34Z</time>
      </trkpt>
      <trkpt lat="45.96078" lon="4.82741">
        <ele>237</ele>
        <time>2017-06-26T09:20:35Z</time>
      </trkpt>
      <trkpt lat="45.96076" lon="4.82732">
        <ele>237</ele>
        <time>2017-06-26T09:20:36Z</time>
      </trkpt>
      <trkpt lat="45.96074" lon="4.82725">
        <ele>237</ele>
        <time>2017-06-26T09:20:37Z</time>
      </trkpt>
      <trkpt lat="45.96071" lon="4.82718">
        <ele>237</ele>
        <time>2017-06-26T09:20:38Z</time>
      </trkpt>
      <trkpt lat="45.96069" lon="4.82712">
        <ele>237</ele>
        <time>2017-06-26T09:20:39Z</time>
      </trkpt>
      <trkpt lat="45.96066" lon="4.82705">
        <ele>237</ele>
        <time>2017-06-26T09:20:40Z</time>
      </trkpt>
      <trkpt lat="45.96064" lon="4.82699">
        <ele>237</ele>
        <time>2017-06-26T09:20:41Z</time>
      </trkpt>
      <trkpt lat="45.96063" lon="4.82692">
        <ele>237</ele>
        <time>2017-06-26T09:20:42Z</time>
      </trkpt>
      <trkpt lat="45.96061" lon="4.82686">
        <ele>236</ele>
        <time>2017-06-26T09:20:43Z</time>
      </trkpt>
      <trkpt lat="45.96057" lon="4.8268">
        <ele>236</ele>
        <time>2017-06-26T09:20:44Z</time>
      </trkpt>
      <trkpt lat="45.96055" lon="4.82673">
        <ele>236</ele>
        <time>2017-06-26T09:20:45Z</time>
      </trkpt>
      <trkpt lat="45.96052" lon="4.82666">
        <ele>235</ele>
        <time>2017-06-26T09:20:46Z</time>
      </trkpt>
      <trkpt lat="45.9605" lon="4.8266">
        <ele>235</ele>
        <time>2017-06-26T09:20:47Z</time>
      </trkpt>
      <trkpt lat="45.96047" lon="4.82653">
        <ele>235</ele>
        <time>2017-06-26T09:20:48Z</time>
      </trkpt>
      <trkpt lat="45.96044" lon="4.82647">
        <ele>235</ele>
        <time>2017-06-26T09:20:49Z</time>
      </trkpt>
      <trkpt lat="45.96042" lon="4.82641">
        <ele>235</ele>
        <time>2017-06-26T09:20:50Z</time>
      </trkpt>
      <trkpt lat="45.9604" lon="4.82635">
        <ele>235</ele>
        <time>2017-06-26T09:20:51Z</time>
      </trkpt>
      <trkpt lat="45.96037" lon="4.82629">
        <ele>235</ele>
        <time>2017-06-26T09:20:52Z</time>
      </trkpt>
      <trkpt lat="45.96035" lon="4.82623">
        <ele>235</ele>
        <time>2017-06-26T09:20:53Z</time>
      </trkpt>
      <trkpt lat="45.96032" lon="4.82617">
        <ele>235</ele>
        <time>2017-06-26T09:20:54Z</time>
      </trkpt>
      <trkpt lat="45.9603" lon="4.82611">
        <ele>235</ele>
        <time>2017-06-26T09:20:55Z</time>
      </trkpt>
      <trkpt lat="45.96028" lon="4.82605">
        <ele>235</ele>
        <time>2017-06-26T09:20:56Z</time>
      </trkpt>
      <trkpt lat="45.96026" lon="4.82598">
        <ele>235</ele>
        <time>2017-06-26T09:20:57Z</time>
      </trkpt>
      <trkpt lat="45.96024" lon="4.82592">
        <ele>235</ele>
        <time>2017-06-26T09:20:58Z</time>
      </trkpt>
      <trkpt lat="45.96022" lon="4.82585">
        <ele>235</ele>
        <time>2017-06-26T09:20:59Z</time>
      </trkpt>
      <trkpt lat="45.9602" lon="4.82578">
        <ele>235</ele>
        <time>2017-06-26T09:21:00Z</time>
      </trkpt>
      <trkpt lat="45.96019" lon="4.82571">
        <ele>235</ele>
        <time>2017-06-26T09:21:01Z</time>
      </trkpt>
      <trkpt lat="45.96017" lon="4.82564">
        <ele>235</ele>
        <time>2017-06-26T09:21:02Z</time>
      </trkpt>
      <trkpt lat="45.96016" lon="4.82556">
        <ele>235</ele>
        <time>2017-06-26T09:21:03Z</time>
      </trkpt>
      <trkpt lat="45.96016" lon="4.82549">
        <ele>235</ele>
        <time>2017-06-26T09:21:04Z</time>
      </trkpt>
      <trkpt lat="45.96015" lon="4.82543">
        <ele>235</ele>
        <time>2017-06-26T09:21:05Z</time>
      </trkpt>
      <trkpt lat="45.96015" lon="4.82536">
        <ele>235</ele>
        <time>2017-06-26T09:21:06Z</time>
      </trkpt>
      <trkpt lat="45.96014" lon="4.82529">
        <ele>235</ele>
        <time>2017-06-26T09:21:07Z</time>
      </trkpt>
      <trkpt lat="45.96015" lon="4.82522">
        <ele>235</ele>
        <time>2017-06-26T09:21:08Z</time>
      </trkpt>
      <trkpt lat="45.96015" lon="4.82515">
        <ele>235</ele>
        <time>2017-06-26T09:21:09Z</time>
      </trkpt>
      <trkpt lat="45.96016" lon="4.82507">
        <ele>235</ele>
        <time>2017-06-26T09:21:10Z</time>
      </trkpt>
      <trkpt lat="45.96017" lon="4.82499">
        <ele>235</ele>
        <time>2017-06-26T09:21:11Z</time>
      </trkpt>
      <trkpt lat="45.96018" lon="4.82491">
        <ele>235</ele>
        <time>2017-06-26T09:21:12Z</time>
      </trkpt>
      <trkpt lat="45.96018" lon="4.82482">
        <ele>235</ele>
        <time>2017-06-26T09:21:13Z</time>
      </trkpt>
      <trkpt lat="45.96019" lon="4.82474">
        <ele>235</ele>
        <time>2017-06-26T09:21:14Z</time>
      </trkpt>
      <trkpt lat="45.96019" lon="4.82466">
        <ele>235</ele>
        <time>2017-06-26T09:21:15Z</time>
      </trkpt>
      <trkpt lat="45.96019" lon="4.82459">
        <ele>235</ele>
        <time>2017-06-26T09:21:16Z</time>
      </trkpt>
      <trkpt lat="45.9602" lon="4.82451">
        <ele>235</ele>
        <time>2017-06-26T09:21:17Z</time>
      </trkpt>
      <trkpt lat="45.9602" lon="4.82443">
        <ele>235</ele>
        <time>2017-06-26T09:21:18Z</time>
      </trkpt>
      <trkpt lat="45.96021" lon="4.82436">
        <ele>235</ele>
        <time>2017-06-26T09:21:19Z</time>
      </trkpt>
      <trkpt lat="45.96022" lon="4.82428">
        <ele>235</ele>
        <time>2017-06-26T09:21:20Z</time>
      </trkpt>
      <trkpt lat="45.96022" lon="4.82421">
        <ele>235</ele>
        <time>2017-06-26T09:21:21Z</time>
      </trkpt>
      <trkpt lat="45.96023" lon="4.82415">
        <ele>235</ele>
        <time>2017-06-26T09:21:22Z</time>
      </trkpt>
      <trkpt lat="45.96024" lon="4.82408">
        <ele>235</ele>
        <time>2017-06-26T09:21:23Z</time>
      </trkpt>
      <trkpt lat="45.96026" lon="4.82401">
        <ele>235</ele>
        <time>2017-06-26T09:21:24Z</time>
      </trkpt>
      <trkpt lat="45.96027" lon="4.82395">
        <ele>235</ele>
        <time>2017-06-26T09:21:25Z</time>
      </trkpt>
      <trkpt lat="45.96029" lon="4.82388">
        <ele>235</ele>
        <time>2017-06-26T09:21:26Z</time>
      </trkpt>
      <trkpt lat="45.96032" lon="4.82376">
        <ele>235</ele>
        <time>2017-06-26T09:21:28Z</time>
      </trkpt>
      <trkpt lat="45.96033" lon="4.8237">
        <ele>235</ele>
        <time>2017-06-26T09:21:29Z</time>
      </trkpt>
      <trkpt lat="45.96029" lon="4.82361">
        <ele>235</ele>
        <time>2017-06-26T09:21:31Z</time>
      </trkpt>
      <trkpt lat="45.96025" lon="4.8236">
        <ele>235</ele>
        <time>2017-06-26T09:21:32Z</time>
      </trkpt>
      <trkpt lat="45.96017" lon="4.82359">
        <ele>235</ele>
        <time>2017-06-26T09:21:34Z</time>
      </trkpt>
      <trkpt lat="45.96013" lon="4.82358">
        <ele>235</ele>
        <time>2017-06-26T09:21:35Z</time>
      </trkpt>
      <trkpt lat="45.96005" lon="4.82357">
        <ele>235</ele>
        <time>2017-06-26T09:21:37Z</time>
      </trkpt>
      <trkpt lat="45.96" lon="4.82357">
        <ele>236</ele>
        <time>2017-06-26T09:21:38Z</time>
      </trkpt>
      <trkpt lat="45.95995" lon="4.82357">
        <ele>236</ele>
        <time>2017-06-26T09:21:39Z</time>
      </trkpt>
      <trkpt lat="45.95991" lon="4.82358">
        <ele>236</ele>
        <time>2017-06-26T09:21:40Z</time>
      </trkpt>
      <trkpt lat="45.95982" lon="4.82358">
        <ele>237</ele>
        <time>2017-06-26T09:21:42Z</time>
      </trkpt>
      <trkpt lat="45.95978" lon="4.82359">
        <ele>237</ele>
        <time>2017-06-26T09:21:43Z</time>
      </trkpt>
      <trkpt lat="45.9597" lon="4.8236">
        <ele>237</ele>
        <time>2017-06-26T09:21:45Z</time>
      </trkpt>
      <trkpt lat="45.95966" lon="4.8236">
        <ele>237</ele>
        <time>2017-06-26T09:21:46Z</time>
      </trkpt>
      <trkpt lat="45.95957" lon="4.82361">
        <ele>237</ele>
        <time>2017-06-26T09:21:48Z</time>
      </trkpt>
      <trkpt lat="45.95953" lon="4.8236">
        <ele>237</ele>
        <time>2017-06-26T09:21:49Z</time>
      </trkpt>
      <trkpt lat="45.95948" lon="4.8236">
        <ele>237</ele>
        <time>2017-06-26T09:21:50Z</time>
      </trkpt>
      <trkpt lat="45.95943" lon="4.82361">
        <ele>237</ele>
        <time>2017-06-26T09:21:51Z</time>
      </trkpt>
      <trkpt lat="45.95935" lon="4.82362">
        <ele>238</ele>
        <time>2017-06-26T09:21:53Z</time>
      </trkpt>
      <trkpt lat="45.95931" lon="4.82362">
        <ele>238</ele>
        <time>2017-06-26T09:21:54Z</time>
      </trkpt>
      <trkpt lat="45.95923" lon="4.82363">
        <ele>238</ele>
        <time>2017-06-26T09:21:56Z</time>
      </trkpt>
      <trkpt lat="45.95919" lon="4.82364">
        <ele>238</ele>
        <time>2017-06-26T09:21:57Z</time>
      </trkpt>
      <trkpt lat="45.95911" lon="4.82367">
        <ele>242</ele>
        <time>2017-06-26T09:21:59Z</time>
      </trkpt>
      <trkpt lat="45.95908" lon="4.82368">
        <ele>242</ele>
        <time>2017-06-26T09:22:00Z</time>
      </trkpt>
      <trkpt lat="45.959" lon="4.8237">
        <ele>243</ele>
        <time>2017-06-26T09:22:02Z</time>
      </trkpt>
      <trkpt lat="45.95896" lon="4.8237">
        <ele>243</ele>
        <time>2017-06-26T09:22:03Z</time>
      </trkpt>
      <trkpt lat="45.95888" lon="4.82369">
        <ele>243</ele>
        <time>2017-06-26T09:22:05Z</time>
      </trkpt>
      <trkpt lat="45.95884" lon="4.8237">
        <ele>244</ele>
        <time>2017-06-26T09:22:06Z</time>
      </trkpt>
      <trkpt lat="45.95877" lon="4.82371">
        <ele>244</ele>
        <time>2017-06-26T09:22:08Z</time>
      </trkpt>
      <trkpt lat="45.95873" lon="4.82371">
        <ele>244</ele>
        <time>2017-06-26T09:22:09Z</time>
      </trkpt>
      <trkpt lat="45.95866" lon="4.82369">
        <ele>245</ele>
        <time>2017-06-26T09:22:11Z</time>
      </trkpt>
      <trkpt lat="45.95863" lon="4.8237">
        <ele>245</ele>
        <time>2017-06-26T09:22:12Z</time>
      </trkpt>
      <trkpt lat="45.95856" lon="4.8237">
        <ele>245</ele>
        <time>2017-06-26T09:22:14Z</time>
      </trkpt>
      <trkpt lat="45.95852" lon="4.8237">
        <ele>245</ele>
        <time>2017-06-26T09:22:15Z</time>
      </trkpt>
      <trkpt lat="45.95843" lon="4.82366">
        <ele>246</ele>
        <time>2017-06-26T09:22:18Z</time>
      </trkpt>
      <trkpt lat="45.95841" lon="4.82366">
        <ele>246</ele>
        <time>2017-06-26T09:22:19Z</time>
      </trkpt>
      <trkpt lat="45.95833" lon="4.82366">
        <ele>251</ele>
        <time>2017-06-26T09:22:22Z</time>
      </trkpt>
      <trkpt lat="45.95831" lon="4.82366">
        <ele>251</ele>
        <time>2017-06-26T09:22:23Z</time>
      </trkpt>
      <trkpt lat="45.95823" lon="4.82365">
        <ele>251</ele>
        <time>2017-06-26T09:22:26Z</time>
      </trkpt>
      <trkpt lat="45.95821" lon="4.82365">
        <ele>251</ele>
        <time>2017-06-26T09:22:27Z</time>
      </trkpt>
      <trkpt lat="45.95812" lon="4.82364">
        <ele>252</ele>
        <time>2017-06-26T09:22:32Z</time>
      </trkpt>
      <trkpt lat="45.9581" lon="4.82364">
        <ele>252</ele>
        <time>2017-06-26T09:22:33Z</time>
      </trkpt>
      <trkpt lat="45.95802" lon="4.8236">
        <ele>252</ele>
        <time>2017-06-26T09:22:37Z</time>
      </trkpt>
      <trkpt lat="45.958" lon="4.82359">
        <ele>252</ele>
        <time>2017-06-26T09:22:38Z</time>
      </trkpt>
      <trkpt lat="45.95793" lon="4.82354">
        <ele>252</ele>
        <time>2017-06-26T09:22:42Z</time>
      </trkpt>
      <trkpt lat="45.95791" lon="4.82353">
        <ele>252</ele>
        <time>2017-06-26T09:22:43Z</time>
      </trkpt>
      <trkpt lat="45.95784" lon="4.82347">
        <ele>253</ele>
        <time>2017-06-26T09:22:46Z</time>
      </trkpt>
      <trkpt lat="45.95782" lon="4.82345">
        <ele>253</ele>
        <time>2017-06-26T09:22:47Z</time>
      </trkpt>
      <trkpt lat="45.95775" lon="4.82339">
        <ele>254</ele>
        <time>2017-06-26T09:22:51Z</time>
      </trkpt>
      <trkpt lat="45.95773" lon="4.82337">
        <ele>254</ele>
        <time>2017-06-26T09:22:52Z</time>
      </trkpt>
      <trkpt lat="45.95768" lon="4.82329">
        <ele>253</ele>
        <time>2017-06-26T09:22:55Z</time>
      </trkpt>
      <trkpt lat="45.95766" lon="4.82326">
        <ele>253</ele>
        <time>2017-06-26T09:22:56Z</time>
      </trkpt>
      <trkpt lat="45.95759" lon="4.82318">
        <ele>253</ele>
        <time>2017-06-26T09:22:59Z</time>
      </trkpt>
      <trkpt lat="45.95757" lon="4.82316">
        <ele>253</ele>
        <time>2017-06-26T09:23:00Z</time>
      </trkpt>
      <trkpt lat="45.95751" lon="4.82309">
        <ele>252</ele>
        <time>2017-06-26T09:23:03Z</time>
      </trkpt>
      <trkpt lat="45.95749" lon="4.82307">
        <ele>255</ele>
        <time>2017-06-26T09:23:04Z</time>
      </trkpt>
      <trkpt lat="45.95743" lon="4.823">
        <ele>255</ele>
        <time>2017-06-26T09:23:07Z</time>
      </trkpt>
      <trkpt lat="45.9574" lon="4.82298">
        <ele>255</ele>
        <time>2017-06-26T09:23:08Z</time>
      </trkpt>
      <trkpt lat="45.95734" lon="4.82291">
        <ele>255</ele>
        <time>2017-06-26T09:23:11Z</time>
      </trkpt>
      <trkpt lat="45.95732" lon="4.82289">
        <ele>255</ele>
        <time>2017-06-26T09:23:12Z</time>
      </trkpt>
      <trkpt lat="45.95725" lon="4.82281">
        <ele>255</ele>
        <time>2017-06-26T09:23:15Z</time>
      </trkpt>
      <trkpt lat="45.95723" lon="4.82279">
        <ele>255</ele>
        <time>2017-06-26T09:23:16Z</time>
      </trkpt>
      <trkpt lat="45.95716" lon="4.82272">
        <ele>255</ele>
        <time>2017-06-26T09:23:19Z</time>
      </trkpt>
      <trkpt lat="45.95713" lon="4.8227">
        <ele>255</ele>
        <time>2017-06-26T09:23:20Z</time>
      </trkpt>
      <trkpt lat="45.95706" lon="4.82263">
        <ele>255</ele>
        <time>2017-06-26T09:23:23Z</time>
      </trkpt>
      <trkpt lat="45.95703" lon="4.82261">
        <ele>255</ele>
        <time>2017-06-26T09:23:24Z</time>
      </trkpt>
      <trkpt lat="45.95696" lon="4.82254">
        <ele>255</ele>
        <time>2017-06-26T09:23:28Z</time>
      </trkpt>
      <trkpt lat="45.95694" lon="4.82252">
        <ele>255</ele>
        <time>2017-06-26T09:23:29Z</time>
      </trkpt>
      <trkpt lat="45.95689" lon="4.82247">
        <ele>255</ele>
        <time>2017-06-26T09:23:31Z</time>
      </trkpt>
      <trkpt lat="45.95687" lon="4.82244">
        <ele>255</ele>
        <time>2017-06-26T09:23:32Z</time>
      </trkpt>
      <trkpt lat="45.9568" lon="4.82238">
        <ele>255</ele>
        <time>2017-06-26T09:23:35Z</time>
      </trkpt>
      <trkpt lat="45.95677" lon="4.82236">
        <ele>255</ele>
        <time>2017-06-26T09:23:36Z</time>
      </trkpt>
      <trkpt lat="45.95671" lon="4.82233">
        <ele>255</ele>
        <time>2017-06-26T09:23:38Z</time>
      </trkpt>
      <trkpt lat="45.95667" lon="4.82231">
        <ele>255</ele>
        <time>2017-06-26T09:23:39Z</time>
      </trkpt>
      <trkpt lat="45.9566" lon="4.82229">
        <ele>257</ele>
        <time>2017-06-26T09:23:41Z</time>
      </trkpt>
      <trkpt lat="45.95656" lon="4.82229">
        <ele>257</ele>
        <time>2017-06-26T09:23:42Z</time>
      </trkpt>
      <trkpt lat="45.95647" lon="4.82228">
        <ele>257</ele>
        <time>2017-06-26T09:23:44Z</time>
      </trkpt>
      <trkpt lat="45.95643" lon="4.82228">
        <ele>257</ele>
        <time>2017-06-26T09:23:45Z</time>
      </trkpt>
      <trkpt lat="45.95636" lon="4.82227">
        <ele>257</ele>
        <time>2017-06-26T09:23:47Z</time>
      </trkpt>
      <trkpt lat="45.95633" lon="4.82226">
        <ele>257</ele>
        <time>2017-06-26T09:23:48Z</time>
      </trkpt>
      <trkpt lat="45.95626" lon="4.82223">
        <ele>257</ele>
        <time>2017-06-26T09:23:50Z</time>
      </trkpt>
      <trkpt lat="45.95623" lon="4.82221">
        <ele>257</ele>
        <time>2017-06-26T09:23:51Z</time>
      </trkpt>
      <trkpt lat="45.95616" lon="4.82221">
        <ele>257</ele>
        <time>2017-06-26T09:23:53Z</time>
      </trkpt>
      <trkpt lat="45.95612" lon="4.82221">
        <ele>257</ele>
        <time>2017-06-26T09:23:54Z</time>
      </trkpt>
      <trkpt lat="45.95603" lon="4.82221">
        <ele>257</ele>
        <time>2017-06-26T09:23:57Z</time>
      </trkpt>
      <trkpt lat="45.956" lon="4.82221">
        <ele>257</ele>
        <time>2017-06-26T09:23:58Z</time>
      </trkpt>
      <trkpt lat="45.95594" lon="4.82218">
        <ele>257</ele>
        <time>2017-06-26T09:24:00Z</time>
      </trkpt>
      <trkpt lat="45.95591" lon="4.82215">
        <ele>257</ele>
        <time>2017-06-26T09:24:01Z</time>
      </trkpt>
      <trkpt lat="45.95584" lon="4.8221">
        <ele>257</ele>
        <time>2017-06-26T09:24:03Z</time>
      </trkpt>
      <trkpt lat="45.95581" lon="4.82207">
        <ele>258</ele>
        <time>2017-06-26T09:24:04Z</time>
      </trkpt>
      <trkpt lat="45.95575" lon="4.82203">
        <ele>258</ele>
        <time>2017-06-26T09:24:06Z</time>
      </trkpt>
      <trkpt lat="45.95572" lon="4.822">
        <ele>258</ele>
        <time>2017-06-26T09:24:07Z</time>
      </trkpt>
      <trkpt lat="45.95566" lon="4.82196">
        <ele>258</ele>
        <time>2017-06-26T09:24:09Z</time>
      </trkpt>
      <trkpt lat="45.95563" lon="4.82194">
        <ele>258</ele>
        <time>2017-06-26T09:24:10Z</time>
      </trkpt>
      <trkpt lat="45.95558" lon="4.82191">
        <ele>259</ele>
        <time>2017-06-26T09:24:12Z</time>
      </trkpt>
      <trkpt lat="45.95555" lon="4.82188">
        <ele>259</ele>
        <time>2017-06-26T09:24:13Z</time>
      </trkpt>
      <trkpt lat="45.95549" lon="4.82183">
        <ele>259</ele>
        <time>2017-06-26T09:24:15Z</time>
      </trkpt>
      <trkpt lat="45.95546" lon="4.8218">
        <ele>259</ele>
        <time>2017-06-26T09:24:16Z</time>
      </trkpt>
      <trkpt lat="45.95539" lon="4.82175">
        <ele>259</ele>
        <time>2017-06-26T09:24:18Z</time>
      </trkpt>
      <trkpt lat="45.95537" lon="4.82172">
        <ele>259</ele>
        <time>2017-06-26T09:24:19Z</time>
      </trkpt>
      <trkpt lat="45.9553" lon="4.82167">
        <ele>259</ele>
        <time>2017-06-26T09:24:21Z</time>
      </trkpt>
      <trkpt lat="45.95528" lon="4.82164">
        <ele>259</ele>
        <time>2017-06-26T09:24:22Z</time>
      </trkpt>
      <trkpt lat="45.95523" lon="4.82159">
        <ele>259</ele>
        <time>2017-06-26T09:24:24Z</time>
      </trkpt>
      <trkpt lat="45.9552" lon="4.82156">
        <ele>259</ele>
        <time>2017-06-26T09:24:25Z</time>
      </trkpt>
      <trkpt lat="45.95514" lon="4.8215">
        <ele>259</ele>
        <time>2017-06-26T09:24:27Z</time>
      </trkpt>
      <trkpt lat="45.95511" lon="4.82147">
        <ele>259</ele>
        <time>2017-06-26T09:24:28Z</time>
      </trkpt>
      <trkpt lat="45.95506" lon="4.82141">
        <ele>259</ele>
        <time>2017-06-26T09:24:30Z</time>
      </trkpt>
      <trkpt lat="45.95502" lon="4.82138">
        <ele>259</ele>
        <time>2017-06-26T09:24:31Z</time>
      </trkpt>
      <trkpt lat="45.95497" lon="4.82134">
        <ele>260</ele>
        <time>2017-06-26T09:24:33Z</time>
      </trkpt>
      <trkpt lat="45.95494" lon="4.82131">
        <ele>260</ele>
        <time>2017-06-26T09:24:34Z</time>
      </trkpt>
      <trkpt lat="45.95489" lon="4.82125">
        <ele>260</ele>
        <time>2017-06-26T09:24:36Z</time>
      </trkpt>
      <trkpt lat="45.95486" lon="4.82121">
        <ele>260</ele>
        <time>2017-06-26T09:24:37Z</time>
      </trkpt>
      <trkpt lat="45.95479" lon="4.82114">
        <ele>260</ele>
        <time>2017-06-26T09:24:39Z</time>
      </trkpt>
      <trkpt lat="45.95476" lon="4.82111">
        <ele>260</ele>
        <time>2017-06-26T09:24:40Z</time>
      </trkpt>
      <trkpt lat="45.95471" lon="4.82106">
        <ele>260</ele>
        <time>2017-06-26T09:24:42Z</time>
      </trkpt>
      <trkpt lat="45.95467" lon="4.82103">
        <ele>260</ele>
        <time>2017-06-26T09:24:43Z</time>
      </trkpt>
      <trkpt lat="45.95462" lon="4.82097">
        <ele>260</ele>
        <time>2017-06-26T09:24:45Z</time>
      </trkpt>
      <trkpt lat="45.95459" lon="4.82094">
        <ele>260</ele>
        <time>2017-06-26T09:24:46Z</time>
      </trkpt>
      <trkpt lat="45.95453" lon="4.82088">
        <ele>260</ele>
        <time>2017-06-26T09:24:48Z</time>
      </trkpt>
      <trkpt lat="45.9545" lon="4.82085">
        <ele>260</ele>
        <time>2017-06-26T09:24:49Z</time>
      </trkpt>
      <trkpt lat="45.95444" lon="4.82078">
        <ele>260</ele>
        <time>2017-06-26T09:24:51Z</time>
      </trkpt>
      <trkpt lat="45.9544" lon="4.82074">
        <ele>260</ele>
        <time>2017-06-26T09:24:52Z</time>
      </trkpt>
      <trkpt lat="45.95433" lon="4.82068">
        <ele>260</ele>
        <time>2017-06-26T09:24:54Z</time>
      </trkpt>
      <trkpt lat="45.9543" lon="4.82066">
        <ele>260</ele>
        <time>2017-06-26T09:24:55Z</time>
      </trkpt>
      <trkpt lat="45.95423" lon="4.82059">
        <ele>260</ele>
        <time>2017-06-26T09:24:57Z</time>
      </trkpt>
      <trkpt lat="45.9542" lon="4.82055">
        <ele>260</ele>
        <time>2017-06-26T09:24:58Z</time>
      </trkpt>
      <trkpt lat="45.95414" lon="4.82047">
        <ele>261</ele>
        <time>2017-06-26T09:25:00Z</time>
      </trkpt>
      <trkpt lat="45.95411" lon="4.82044">
        <ele>261</ele>
        <time>2017-06-26T09:25:01Z</time>
      </trkpt>
      <trkpt lat="45.95404" lon="4.82037">
        <ele>261</ele>
        <time>2017-06-26T09:25:03Z</time>
      </trkpt>
      <trkpt lat="45.954" lon="4.82034">
        <ele>261</ele>
        <time>2017-06-26T09:25:04Z</time>
      </trkpt>
      <trkpt lat="45.95393" lon="4.82027">
        <ele>261</ele>
        <time>2017-06-26T09:25:06Z</time>
      </trkpt>
      <trkpt lat="45.95389" lon="4.82024">
        <ele>261</ele>
        <time>2017-06-26T09:25:07Z</time>
      </trkpt>
      <trkpt lat="45.95386" lon="4.8202">
        <ele>261</ele>
        <time>2017-06-26T09:25:08Z</time>
      </trkpt>
      <trkpt lat="45.95382" lon="4.82016">
        <ele>262</ele>
        <time>2017-06-26T09:25:09Z</time>
      </trkpt>
      <trkpt lat="45.95378" lon="4.82012">
        <ele>262</ele>
        <time>2017-06-26T09:25:10Z</time>
      </trkpt>
      <trkpt lat="45.95374" lon="4.82008">
        <ele>262</ele>
        <time>2017-06-26T09:25:11Z</time>
      </trkpt>
      <trkpt lat="45.9537" lon="4.82005">
        <ele>262</ele>
        <time>2017-06-26T09:25:12Z</time>
      </trkpt>
      <trkpt lat="45.95367" lon="4.82001">
        <ele>262</ele>
        <time>2017-06-26T09:25:13Z</time>
      </trkpt>
      <trkpt lat="45.9536" lon="4.81994">
        <ele>261</ele>
        <time>2017-06-26T09:25:15Z</time>
      </trkpt>
      <trkpt lat="45.95357" lon="4.81991">
        <ele>262</ele>
        <time>2017-06-26T09:25:16Z</time>
      </trkpt>
      <trkpt lat="45.95352" lon="4.81984">
        <ele>262</ele>
        <time>2017-06-26T09:25:18Z</time>
      </trkpt>
      <trkpt lat="45.95349" lon="4.81982">
        <ele>262</ele>
        <time>2017-06-26T09:25:19Z</time>
      </trkpt>
      <trkpt lat="45.95344" lon="4.81976">
        <ele>262</ele>
        <time>2017-06-26T09:25:21Z</time>
      </trkpt>
      <trkpt lat="45.95341" lon="4.81973">
        <ele>261</ele>
        <time>2017-06-26T09:25:22Z</time>
      </trkpt>
      <trkpt lat="45.95336" lon="4.81967">
        <ele>261</ele>
        <time>2017-06-26T09:25:24Z</time>
      </trkpt>
      <trkpt lat="45.95333" lon="4.81964">
        <ele>262</ele>
        <time>2017-06-26T09:25:25Z</time>
      </trkpt>
      <trkpt lat="45.95327" lon="4.81957">
        <ele>262</ele>
        <time>2017-06-26T09:25:27Z</time>
      </trkpt>
      <trkpt lat="45.95324" lon="4.81953">
        <ele>262</ele>
        <time>2017-06-26T09:25:28Z</time>
      </trkpt>
      <trkpt lat="45.95317" lon="4.81946">
        <ele>261</ele>
        <time>2017-06-26T09:25:30Z</time>
      </trkpt>
      <trkpt lat="45.95314" lon="4.81942">
        <ele>261</ele>
        <time>2017-06-26T09:25:31Z</time>
      </trkpt>
      <trkpt lat="45.95307" lon="4.81934">
        <ele>261</ele>
        <time>2017-06-26T09:25:33Z</time>
      </trkpt>
      <trkpt lat="45.95304" lon="4.81929">
        <ele>261</ele>
        <time>2017-06-26T09:25:34Z</time>
      </trkpt>
      <trkpt lat="45.953" lon="4.81925">
        <ele>261</ele>
        <time>2017-06-26T09:25:35Z</time>
      </trkpt>
      <trkpt lat="45.95297" lon="4.8192">
        <ele>261</ele>
        <time>2017-06-26T09:25:36Z</time>
      </trkpt>
      <trkpt lat="45.95293" lon="4.81915">
        <ele>260</ele>
        <time>2017-06-26T09:25:37Z</time>
      </trkpt>
      <trkpt lat="45.9529" lon="4.81911">
        <ele>260</ele>
        <time>2017-06-26T09:25:38Z</time>
      </trkpt>
      <trkpt lat="45.95284" lon="4.81903">
        <ele>260</ele>
        <time>2017-06-26T09:25:40Z</time>
      </trkpt>
      <trkpt lat="45.95281" lon="4.81898">
        <ele>260</ele>
        <time>2017-06-26T09:25:41Z</time>
      </trkpt>
      <trkpt lat="45.95277" lon="4.81893">
        <ele>260</ele>
        <time>2017-06-26T09:25:42Z</time>
      </trkpt>
      <trkpt lat="45.95274" lon="4.81888">
        <ele>260</ele>
        <time>2017-06-26T09:25:43Z</time>
      </trkpt>
      <trkpt lat="45.9527" lon="4.81883">
        <ele>260</ele>
        <time>2017-06-26T09:25:44Z</time>
      </trkpt>
      <trkpt lat="45.95267" lon="4.81878">
        <ele>260</ele>
        <time>2017-06-26T09:25:45Z</time>
      </trkpt>
      <trkpt lat="45.95261" lon="4.81869">
        <ele>260</ele>
        <time>2017-06-26T09:25:47Z</time>
      </trkpt>
      <trkpt lat="45.95258" lon="4.81865">
        <ele>260</ele>
        <time>2017-06-26T09:25:48Z</time>
      </trkpt>
      <trkpt lat="45.95252" lon="4.81856">
        <ele>259</ele>
        <time>2017-06-26T09:25:50Z</time>
      </trkpt>
      <trkpt lat="45.9525" lon="4.81852">
        <ele>260</ele>
        <time>2017-06-26T09:25:51Z</time>
      </trkpt>
      <trkpt lat="45.95244" lon="4.81844">
        <ele>259</ele>
        <time>2017-06-26T09:25:53Z</time>
      </trkpt>
      <trkpt lat="45.9524" lon="4.81839">
        <ele>259</ele>
        <time>2017-06-26T09:25:54Z</time>
      </trkpt>
      <trkpt lat="45.95237" lon="4.81834">
        <ele>260</ele>
        <time>2017-06-26T09:25:55Z</time>
      </trkpt>
      <trkpt lat="45.95234" lon="4.81829">
        <ele>259</ele>
        <time>2017-06-26T09:25:56Z</time>
      </trkpt>
      <trkpt lat="45.95228" lon="4.8182">
        <ele>259</ele>
        <time>2017-06-26T09:25:58Z</time>
      </trkpt>
      <trkpt lat="45.95224" lon="4.81815">
        <ele>259</ele>
        <time>2017-06-26T09:25:59Z</time>
      </trkpt>
      <trkpt lat="45.95221" lon="4.8181">
        <ele>259</ele>
        <time>2017-06-26T09:26:00Z</time>
      </trkpt>
      <trkpt lat="45.95218" lon="4.81805">
        <ele>259</ele>
        <time>2017-06-26T09:26:01Z</time>
      </trkpt>
      <trkpt lat="45.95214" lon="4.818">
        <ele>259</ele>
        <time>2017-06-26T09:26:02Z</time>
      </trkpt>
      <trkpt lat="45.95211" lon="4.81794">
        <ele>259</ele>
        <time>2017-06-26T09:26:03Z</time>
      </trkpt>
      <trkpt lat="45.95207" lon="4.81789">
        <ele>258</ele>
        <time>2017-06-26T09:26:04Z</time>
      </trkpt>
      <trkpt lat="45.95203" lon="4.81783">
        <ele>258</ele>
        <time>2017-06-26T09:26:05Z</time>
      </trkpt>
      <trkpt lat="45.95199" lon="4.81777">
        <ele>258</ele>
        <time>2017-06-26T09:26:06Z</time>
      </trkpt>
      <trkpt lat="45.95194" lon="4.8177">
        <ele>258</ele>
        <time>2017-06-26T09:26:07Z</time>
      </trkpt>
      <trkpt lat="45.9519" lon="4.81764">
        <ele>258</ele>
        <time>2017-06-26T09:26:08Z</time>
      </trkpt>
      <trkpt lat="45.95185" lon="4.81757">
        <ele>258</ele>
        <time>2017-06-26T09:26:09Z</time>
      </trkpt>
      <trkpt lat="45.95181" lon="4.8175">
        <ele>257</ele>
        <time>2017-06-26T09:26:10Z</time>
      </trkpt>
      <trkpt lat="45.95177" lon="4.81743">
        <ele>257</ele>
        <time>2017-06-26T09:26:11Z</time>
      </trkpt>
      <trkpt lat="45.95172" lon="4.81734">
        <ele>257</ele>
        <time>2017-06-26T09:26:12Z</time>
      </trkpt>
      <trkpt lat="45.95168" lon="4.81726">
        <ele>257</ele>
        <time>2017-06-26T09:26:13Z</time>
      </trkpt>
      <trkpt lat="45.95165" lon="4.81716">
        <ele>256</ele>
        <time>2017-06-26T09:26:14Z</time>
      </trkpt>
      <trkpt lat="45.95161" lon="4.81706">
        <ele>255</ele>
        <time>2017-06-26T09:26:15Z</time>
      </trkpt>
      <trkpt lat="45.95158" lon="4.81696">
        <ele>255</ele>
        <time>2017-06-26T09:26:16Z</time>
      </trkpt>
      <trkpt lat="45.95154" lon="4.81685">
        <ele>255</ele>
        <time>2017-06-26T09:26:17Z</time>
      </trkpt>
      <trkpt lat="45.9515" lon="4.81673">
        <ele>255</ele>
        <time>2017-06-26T09:26:18Z</time>
      </trkpt>
      <trkpt lat="45.95146" lon="4.81662">
        <ele>253</ele>
        <time>2017-06-26T09:26:19Z</time>
      </trkpt>
      <trkpt lat="45.95142" lon="4.8165">
        <ele>253</ele>
        <time>2017-06-26T09:26:20Z</time>
      </trkpt>
      <trkpt lat="45.95138" lon="4.81638">
        <ele>253</ele>
        <time>2017-06-26T09:26:21Z</time>
      </trkpt>
      <trkpt lat="45.95135" lon="4.81626">
        <ele>253</ele>
        <time>2017-06-26T09:26:22Z</time>
      </trkpt>
      <trkpt lat="45.95131" lon="4.81615">
        <ele>252</ele>
        <time>2017-06-26T09:26:23Z</time>
      </trkpt>
      <trkpt lat="45.95127" lon="4.81603">
        <ele>252</ele>
        <time>2017-06-26T09:26:24Z</time>
      </trkpt>
      <trkpt lat="45.95123" lon="4.81591">
        <ele>252</ele>
        <time>2017-06-26T09:26:25Z</time>
      </trkpt>
      <trkpt lat="45.95119" lon="4.8158">
        <ele>251</ele>
        <time>2017-06-26T09:26:26Z</time>
      </trkpt>
      <trkpt lat="45.95116" lon="4.81569">
        <ele>251</ele>
        <time>2017-06-26T09:26:27Z</time>
      </trkpt>
      <trkpt lat="45.95112" lon="4.81559">
        <ele>251</ele>
        <time>2017-06-26T09:26:28Z</time>
      </trkpt>
      <trkpt lat="45.9511" lon="4.81549">
        <ele>251</ele>
        <time>2017-06-26T09:26:29Z</time>
      </trkpt>
      <trkpt lat="45.95106" lon="4.81539">
        <ele>251</ele>
        <time>2017-06-26T09:26:30Z</time>
      </trkpt>
      <trkpt lat="45.95102" lon="4.8153">
        <ele>251</ele>
        <time>2017-06-26T09:26:31Z</time>
      </trkpt>
      <trkpt lat="45.95099" lon="4.81521">
        <ele>251</ele>
        <time>2017-06-26T09:26:32Z</time>
      </trkpt>
      <trkpt lat="45.95096" lon="4.81513">
        <ele>251</ele>
        <time>2017-06-26T09:26:33Z</time>
      </trkpt>
      <trkpt lat="45.95093" lon="4.81506">
        <ele>252</ele>
        <time>2017-06-26T09:26:34Z</time>
      </trkpt>
      <trkpt lat="45.9509" lon="4.81497">
        <ele>252</ele>
        <time>2017-06-26T09:26:35Z</time>
      </trkpt>
      <trkpt lat="45.95088" lon="4.8149">
        <ele>251</ele>
        <time>2017-06-26T09:26:36Z</time>
      </trkpt>
      <trkpt lat="45.95085" lon="4.81483">
        <ele>251</ele>
        <time>2017-06-26T09:26:37Z</time>
      </trkpt>
      <trkpt lat="45.95081" lon="4.81472">
        <ele>253</ele>
        <time>2017-06-26T09:26:39Z</time>
      </trkpt>
      <trkpt lat="45.9508" lon="4.81467">
        <ele>253</ele>
        <time>2017-06-26T09:26:40Z</time>
      </trkpt>
      <trkpt lat="45.95076" lon="4.81456">
        <ele>253</ele>
        <time>2017-06-26T09:26:42Z</time>
      </trkpt>
      <trkpt lat="45.95073" lon="4.8145">
        <ele>253</ele>
        <time>2017-06-26T09:26:43Z</time>
      </trkpt>
      <trkpt lat="45.95071" lon="4.81444">
        <ele>253</ele>
        <time>2017-06-26T09:26:44Z</time>
      </trkpt>
      <trkpt lat="45.95068" lon="4.81438">
        <ele>252</ele>
        <time>2017-06-26T09:26:45Z</time>
      </trkpt>
      <trkpt lat="45.95066" lon="4.81432">
        <ele>252</ele>
        <time>2017-06-26T09:26:46Z</time>
      </trkpt>
      <trkpt lat="45.95063" lon="4.81426">
        <ele>252</ele>
        <time>2017-06-26T09:26:47Z</time>
      </trkpt>
      <trkpt lat="45.9506" lon="4.8142">
        <ele>252</ele>
        <time>2017-06-26T09:26:48Z</time>
      </trkpt>
      <trkpt lat="45.95058" lon="4.81414">
        <ele>253</ele>
        <time>2017-06-26T09:26:49Z</time>
      </trkpt>
      <trkpt lat="45.95056" lon="4.81408">
        <ele>253</ele>
        <time>2017-06-26T09:26:50Z</time>
      </trkpt>
      <trkpt lat="45.95054" lon="4.81402">
        <ele>253</ele>
        <time>2017-06-26T09:26:51Z</time>
      </trkpt>
      <trkpt lat="45.95052" lon="4.81396">
        <ele>253</ele>
        <time>2017-06-26T09:26:52Z</time>
      </trkpt>
      <trkpt lat="45.9505" lon="4.8139">
        <ele>253</ele>
        <time>2017-06-26T09:26:53Z</time>
      </trkpt>
      <trkpt lat="45.95047" lon="4.81385">
        <ele>254</ele>
        <time>2017-06-26T09:26:54Z</time>
      </trkpt>
      <trkpt lat="45.95045" lon="4.81379">
        <ele>254</ele>
        <time>2017-06-26T09:26:55Z</time>
      </trkpt>
      <trkpt lat="45.95043" lon="4.81373">
        <ele>254</ele>
        <time>2017-06-26T09:26:56Z</time>
      </trkpt>
      <trkpt lat="45.95042" lon="4.81367">
        <ele>254</ele>
        <time>2017-06-26T09:26:57Z</time>
      </trkpt>
      <trkpt lat="45.9504" lon="4.81361">
        <ele>254</ele>
        <time>2017-06-26T09:26:58Z</time>
      </trkpt>
      <trkpt lat="45.95038" lon="4.81354">
        <ele>254</ele>
        <time>2017-06-26T09:26:59Z</time>
      </trkpt>
      <trkpt lat="45.95035" lon="4.81343">
        <ele>254</ele>
        <time>2017-06-26T09:27:01Z</time>
      </trkpt>
      <trkpt lat="45.95034" lon="4.81336">
        <ele>254</ele>
        <time>2017-06-26T09:27:02Z</time>
      </trkpt>
      <trkpt lat="45.95031" lon="4.81325">
        <ele>255</ele>
        <time>2017-06-26T09:27:04Z</time>
      </trkpt>
      <trkpt lat="45.9503" lon="4.8132">
        <ele>255</ele>
        <time>2017-06-26T09:27:05Z</time>
      </trkpt>
      <trkpt lat="45.95028" lon="4.81311">
        <ele>255</ele>
        <time>2017-06-26T09:27:07Z</time>
      </trkpt>
      <trkpt lat="45.95026" lon="4.81306">
        <ele>255</ele>
        <time>2017-06-26T09:27:08Z</time>
      </trkpt>
      <trkpt lat="45.95024" lon="4.81298">
        <ele>255</ele>
        <time>2017-06-26T09:27:10Z</time>
      </trkpt>
      <trkpt lat="45.95023" lon="4.81293">
        <ele>255</ele>
        <time>2017-06-26T09:27:11Z</time>
      </trkpt>
      <trkpt lat="45.95021" lon="4.81281">
        <ele>255</ele>
        <time>2017-06-26T09:27:13Z</time>
      </trkpt>
      <trkpt lat="45.95019" lon="4.81275">
        <ele>255</ele>
        <time>2017-06-26T09:27:14Z</time>
      </trkpt>
      <trkpt lat="45.95018" lon="4.81269">
        <ele>255</ele>
        <time>2017-06-26T09:27:15Z</time>
      </trkpt>
      <trkpt lat="45.95017" lon="4.81262">
        <ele>255</ele>
        <time>2017-06-26T09:27:16Z</time>
      </trkpt>
      <trkpt lat="45.95016" lon="4.81256">
        <ele>256</ele>
        <time>2017-06-26T09:27:17Z</time>
      </trkpt>
      <trkpt lat="45.95015" lon="4.8125">
        <ele>256</ele>
        <time>2017-06-26T09:27:18Z</time>
      </trkpt>
      <trkpt lat="45.95013" lon="4.81238">
        <ele>256</ele>
        <time>2017-06-26T09:27:20Z</time>
      </trkpt>
      <trkpt lat="45.95012" lon="4.81232">
        <ele>256</ele>
        <time>2017-06-26T09:27:21Z</time>
      </trkpt>
      <trkpt lat="45.9501" lon="4.81221">
        <ele>256</ele>
        <time>2017-06-26T09:27:23Z</time>
      </trkpt>
      <trkpt lat="45.95009" lon="4.81215">
        <ele>256</ele>
        <time>2017-06-26T09:27:24Z</time>
      </trkpt>
      <trkpt lat="45.95008" lon="4.81203">
        <ele>256</ele>
        <time>2017-06-26T09:27:26Z</time>
      </trkpt>
      <trkpt lat="45.95007" lon="4.81197">
        <ele>256</ele>
        <time>2017-06-26T09:27:27Z</time>
      </trkpt>
      <trkpt lat="45.95006" lon="4.81185">
        <ele>256</ele>
        <time>2017-06-26T09:27:29Z</time>
      </trkpt>
      <trkpt lat="45.95005" lon="4.8118">
        <ele>256</ele>
        <time>2017-06-26T09:27:30Z</time>
      </trkpt>
      <trkpt lat="45.95004" lon="4.81168">
        <ele>256</ele>
        <time>2017-06-26T09:27:32Z</time>
      </trkpt>
      <trkpt lat="45.95004" lon="4.81163">
        <ele>256</ele>
        <time>2017-06-26T09:27:33Z</time>
      </trkpt>
      <trkpt lat="45.95003" lon="4.81151">
        <ele>256</ele>
        <time>2017-06-26T09:27:35Z</time>
      </trkpt>
      <trkpt lat="45.95003" lon="4.81145">
        <ele>256</ele>
        <time>2017-06-26T09:27:36Z</time>
      </trkpt>
      <trkpt lat="45.95" lon="4.81134">
        <ele>256</ele>
        <time>2017-06-26T09:27:38Z</time>
      </trkpt>
      <trkpt lat="45.95" lon="4.81128">
        <ele>256</ele>
        <time>2017-06-26T09:27:39Z</time>
      </trkpt>
      <trkpt lat="45.94998" lon="4.81117">
        <ele>257</ele>
        <time>2017-06-26T09:27:41Z</time>
      </trkpt>
      <trkpt lat="45.94998" lon="4.81112">
        <ele>257</ele>
        <time>2017-06-26T09:27:42Z</time>
      </trkpt>
      <trkpt lat="45.94996" lon="4.81101">
        <ele>257</ele>
        <time>2017-06-26T09:27:44Z</time>
      </trkpt>
      <trkpt lat="45.94996" lon="4.81096">
        <ele>257</ele>
        <time>2017-06-26T09:27:45Z</time>
      </trkpt>
      <trkpt lat="45.94995" lon="4.81085">
        <ele>257</ele>
        <time>2017-06-26T09:27:47Z</time>
      </trkpt>
      <trkpt lat="45.94995" lon="4.81078">
        <ele>257</ele>
        <time>2017-06-26T09:27:48Z</time>
      </trkpt>
      <trkpt lat="45.94995" lon="4.81071">
        <ele>257</ele>
        <time>2017-06-26T09:27:49Z</time>
      </trkpt>
      <trkpt lat="45.94994" lon="4.81065">
        <ele>257</ele>
        <time>2017-06-26T09:27:50Z</time>
      </trkpt>
      <trkpt lat="45.94993" lon="4.81058">
        <ele>257</ele>
        <time>2017-06-26T09:27:51Z</time>
      </trkpt>
      <trkpt lat="45.94992" lon="4.81052">
        <ele>257</ele>
        <time>2017-06-26T09:27:52Z</time>
      </trkpt>
      <trkpt lat="45.94991" lon="4.8104">
        <ele>257</ele>
        <time>2017-06-26T09:27:54Z</time>
      </trkpt>
      <trkpt lat="45.94991" lon="4.81035">
        <ele>257</ele>
        <time>2017-06-26T09:27:55Z</time>
      </trkpt>
      <trkpt lat="45.94991" lon="4.81023">
        <ele>257</ele>
        <time>2017-06-26T09:27:57Z</time>
      </trkpt>
      <trkpt lat="45.94991" lon="4.81018">
        <ele>257</ele>
        <time>2017-06-26T09:27:58Z</time>
      </trkpt>
      <trkpt lat="45.9499" lon="4.81006">
        <ele>257</ele>
        <time>2017-06-26T09:28:00Z</time>
      </trkpt>
      <trkpt lat="45.9499" lon="4.81">
        <ele>257</ele>
        <time>2017-06-26T09:28:01Z</time>
      </trkpt>
      <trkpt lat="45.94989" lon="4.80993">
        <ele>257</ele>
        <time>2017-06-26T09:28:02Z</time>
      </trkpt>
      <trkpt lat="45.94988" lon="4.80987">
        <ele>258</ele>
        <time>2017-06-26T09:28:03Z</time>
      </trkpt>
      <trkpt lat="45.94987" lon="4.80974">
        <ele>258</ele>
        <time>2017-06-26T09:28:05Z</time>
      </trkpt>
      <trkpt lat="45.94986" lon="4.80967">
        <ele>258</ele>
        <time>2017-06-26T09:28:06Z</time>
      </trkpt>
      <trkpt lat="45.94986" lon="4.80961">
        <ele>258</ele>
        <time>2017-06-26T09:28:07Z</time>
      </trkpt>
      <trkpt lat="45.94984" lon="4.80954">
        <ele>258</ele>
        <time>2017-06-26T09:28:08Z</time>
      </trkpt>
      <trkpt lat="45.94983" lon="4.80948">
        <ele>258</ele>
        <time>2017-06-26T09:28:09Z</time>
      </trkpt>
      <trkpt lat="45.94982" lon="4.80942">
        <ele>258</ele>
        <time>2017-06-26T09:28:10Z</time>
      </trkpt>
      <trkpt lat="45.9498" lon="4.8093">
        <ele>258</ele>
        <time>2017-06-26T09:28:12Z</time>
      </trkpt>
      <trkpt lat="45.94979" lon="4.80925">
        <ele>258</ele>
        <time>2017-06-26T09:28:13Z</time>
      </trkpt>
      <trkpt lat="45.94977" lon="4.80913">
        <ele>258</ele>
        <time>2017-06-26T09:28:15Z</time>
      </trkpt>
      <trkpt lat="45.94976" lon="4.80906">
        <ele>258</ele>
        <time>2017-06-26T09:28:16Z</time>
      </trkpt>
      <trkpt lat="45.94974" lon="4.80894">
        <ele>258</ele>
        <time>2017-06-26T09:28:18Z</time>
      </trkpt>
      <trkpt lat="45.94973" lon="4.80888">
        <ele>258</ele>
        <time>2017-06-26T09:28:19Z</time>
      </trkpt>
      <trkpt lat="45.94971" lon="4.80876">
        <ele>258</ele>
        <time>2017-06-26T09:28:21Z</time>
      </trkpt>
      <trkpt lat="45.9497" lon="4.8087">
        <ele>259</ele>
        <time>2017-06-26T09:28:22Z</time>
      </trkpt>
      <trkpt lat="45.94968" lon="4.8086">
        <ele>259</ele>
        <time>2017-06-26T09:28:24Z</time>
      </trkpt>
      <trkpt lat="45.94967" lon="4.80855">
        <ele>259</ele>
        <time>2017-06-26T09:28:25Z</time>
      </trkpt>
      <trkpt lat="45.94965" lon="4.80845">
        <ele>259</ele>
        <time>2017-06-26T09:28:27Z</time>
      </trkpt>
      <trkpt lat="45.94964" lon="4.80841">
        <ele>259</ele>
        <time>2017-06-26T09:28:28Z</time>
      </trkpt>
      <trkpt lat="45.94963" lon="4.80831">
        <ele>259</ele>
        <time>2017-06-26T09:28:30Z</time>
      </trkpt>
      <trkpt lat="45.94962" lon="4.80826">
        <ele>259</ele>
        <time>2017-06-26T09:28:31Z</time>
      </trkpt>
      <trkpt lat="45.9496" lon="4.80818">
        <ele>259</ele>
        <time>2017-06-26T09:28:33Z</time>
      </trkpt>
      <trkpt lat="45.94959" lon="4.80814">
        <ele>259</ele>
        <time>2017-06-26T09:28:34Z</time>
      </trkpt>
      <trkpt lat="45.94959" lon="4.80802">
        <ele>258</ele>
        <time>2017-06-26T09:28:38Z</time>
      </trkpt>
      <trkpt lat="45.94959" lon="4.80801">
        <ele>258</ele>
        <time>2017-06-26T09:28:39Z</time>
      </trkpt>
      <trkpt lat="45.94959" lon="4.80801">
        <ele>258</ele>
        <time>2017-06-26T09:28:44Z</time>
      </trkpt>
      <trkpt lat="45.9496" lon="4.80801">
        <ele>258</ele>
        <time>2017-06-26T09:28:45Z</time>
      </trkpt>
      <trkpt lat="45.94961" lon="4.80798">
        <ele>258</ele>
        <time>2017-06-26T09:28:46Z</time>
      </trkpt>
      <trkpt lat="45.9496" lon="4.80795">
        <ele>258</ele>
        <time>2017-06-26T09:28:47Z</time>
      </trkpt>
      <trkpt lat="45.94957" lon="4.80785">
        <ele>259</ele>
        <time>2017-06-26T09:28:50Z</time>
      </trkpt>
      <trkpt lat="45.94956" lon="4.80781">
        <ele>259</ele>
        <time>2017-06-26T09:28:51Z</time>
      </trkpt>
      <trkpt lat="45.94955" lon="4.80772">
        <ele>259</ele>
        <time>2017-06-26T09:28:53Z</time>
      </trkpt>
      <trkpt lat="45.94955" lon="4.80767">
        <ele>259</ele>
        <time>2017-06-26T09:28:54Z</time>
      </trkpt>
      <trkpt lat="45.94956" lon="4.80758">
        <ele>259</ele>
        <time>2017-06-26T09:28:56Z</time>
      </trkpt>
      <trkpt lat="45.94956" lon="4.80753">
        <ele>259</ele>
        <time>2017-06-26T09:28:57Z</time>
      </trkpt>
      <trkpt lat="45.94956" lon="4.80742">
        <ele>259</ele>
        <time>2017-06-26T09:28:59Z</time>
      </trkpt>
      <trkpt lat="45.94956" lon="4.80735">
        <ele>259</ele>
        <time>2017-06-26T09:29:00Z</time>
      </trkpt>
      <trkpt lat="45.94955" lon="4.80728">
        <ele>259</ele>
        <time>2017-06-26T09:29:01Z</time>
      </trkpt>
      <trkpt lat="45.94955" lon="4.80722">
        <ele>259</ele>
        <time>2017-06-26T09:29:02Z</time>
      </trkpt>
      <trkpt lat="45.94955" lon="4.80709">
        <ele>259</ele>
        <time>2017-06-26T09:29:04Z</time>
      </trkpt>
      <trkpt lat="45.94955" lon="4.80703">
        <ele>259</ele>
        <time>2017-06-26T09:29:05Z</time>
      </trkpt>
      <trkpt lat="45.94955" lon="4.80691">
        <ele>259</ele>
        <time>2017-06-26T09:29:07Z</time>
      </trkpt>
      <trkpt lat="45.94954" lon="4.80684">
        <ele>259</ele>
        <time>2017-06-26T09:29:08Z</time>
      </trkpt>
      <trkpt lat="45.94954" lon="4.80677">
        <ele>259</ele>
        <time>2017-06-26T09:29:09Z</time>
      </trkpt>
      <trkpt lat="45.94954" lon="4.80669">
        <ele>259</ele>
        <time>2017-06-26T09:29:10Z</time>
      </trkpt>
      <trkpt lat="45.94954" lon="4.80662">
        <ele>259</ele>
        <time>2017-06-26T09:29:11Z</time>
      </trkpt>
      <trkpt lat="45.94954" lon="4.80655">
        <ele>259</ele>
        <time>2017-06-26T09:29:12Z</time>
      </trkpt>
      <trkpt lat="45.94953" lon="4.80649">
        <ele>259</ele>
        <time>2017-06-26T09:29:13Z</time>
      </trkpt>
      <trkpt lat="45.94953" lon="4.80642">
        <ele>258</ele>
        <time>2017-06-26T09:29:14Z</time>
      </trkpt>
      <trkpt lat="45.94952" lon="4.80635">
        <ele>258</ele>
        <time>2017-06-26T09:29:15Z</time>
      </trkpt>
      <trkpt lat="45.94952" lon="4.80629">
        <ele>258</ele>
        <time>2017-06-26T09:29:16Z</time>
      </trkpt>
      <trkpt lat="45.94951" lon="4.80616">
        <ele>258</ele>
        <time>2017-06-26T09:29:18Z</time>
      </trkpt>
      <trkpt lat="45.94951" lon="4.8061">
        <ele>258</ele>
        <time>2017-06-26T09:29:19Z</time>
      </trkpt>
      <trkpt lat="45.9495" lon="4.80597">
        <ele>258</ele>
        <time>2017-06-26T09:29:21Z</time>
      </trkpt>
      <trkpt lat="45.9495" lon="4.80591">
        <ele>258</ele>
        <time>2017-06-26T09:29:22Z</time>
      </trkpt>
      <trkpt lat="45.9495" lon="4.80583">
        <ele>257</ele>
        <time>2017-06-26T09:29:23Z</time>
      </trkpt>
      <trkpt lat="45.9495" lon="4.80576">
        <ele>257</ele>
        <time>2017-06-26T09:29:24Z</time>
      </trkpt>
      <trkpt lat="45.9495" lon="4.80569">
        <ele>257</ele>
        <time>2017-06-26T09:29:25Z</time>
      </trkpt>
      <trkpt lat="45.9495" lon="4.80562">
        <ele>257</ele>
        <time>2017-06-26T09:29:26Z</time>
      </trkpt>
      <trkpt lat="45.9495" lon="4.80555">
        <ele>258</ele>
        <time>2017-06-26T09:29:27Z</time>
      </trkpt>
      <trkpt lat="45.9495" lon="4.80548">
        <ele>258</ele>
        <time>2017-06-26T09:29:28Z</time>
      </trkpt>
      <trkpt lat="45.94949" lon="4.80541">
        <ele>258</ele>
        <time>2017-06-26T09:29:29Z</time>
      </trkpt>
      <trkpt lat="45.94949" lon="4.80534">
        <ele>258</ele>
        <time>2017-06-26T09:29:30Z</time>
      </trkpt>
      <trkpt lat="45.94948" lon="4.80527">
        <ele>258</ele>
        <time>2017-06-26T09:29:31Z</time>
      </trkpt>
      <trkpt lat="45.94947" lon="4.80521">
        <ele>258</ele>
        <time>2017-06-26T09:29:32Z</time>
      </trkpt>
      <trkpt lat="45.94947" lon="4.80514">
        <ele>258</ele>
        <time>2017-06-26T09:29:33Z</time>
      </trkpt>
      <trkpt lat="45.94947" lon="4.80506">
        <ele>258</ele>
        <time>2017-06-26T09:29:34Z</time>
      </trkpt>
      <trkpt lat="45.94947" lon="4.80498">
        <ele>258</ele>
        <time>2017-06-26T09:29:35Z</time>
      </trkpt>
      <trkpt lat="45.94947" lon="4.8049">
        <ele>258</ele>
        <time>2017-06-26T09:29:36Z</time>
      </trkpt>
      <trkpt lat="45.94948" lon="4.80482">
        <ele>258</ele>
        <time>2017-06-26T09:29:37Z</time>
      </trkpt>
      <trkpt lat="45.94947" lon="4.80475">
        <ele>258</ele>
        <time>2017-06-26T09:29:38Z</time>
      </trkpt>
      <trkpt lat="45.94947" lon="4.80467">
        <ele>258</ele>
        <time>2017-06-26T09:29:39Z</time>
      </trkpt>
      <trkpt lat="45.94948" lon="4.80459">
        <ele>258</ele>
        <time>2017-06-26T09:29:40Z</time>
      </trkpt>
      <trkpt lat="45.94948" lon="4.80452">
        <ele>258</ele>
        <time>2017-06-26T09:29:41Z</time>
      </trkpt>
      <trkpt lat="45.94948" lon="4.80444">
        <ele>259</ele>
        <time>2017-06-26T09:29:42Z</time>
      </trkpt>
      <trkpt lat="45.94948" lon="4.80437">
        <ele>259</ele>
        <time>2017-06-26T09:29:43Z</time>
      </trkpt>
      <trkpt lat="45.94948" lon="4.8043">
        <ele>259</ele>
        <time>2017-06-26T09:29:44Z</time>
      </trkpt>
      <trkpt lat="45.94948" lon="4.80423">
        <ele>259</ele>
        <time>2017-06-26T09:29:45Z</time>
      </trkpt>
      <trkpt lat="45.94948" lon="4.80416">
        <ele>258</ele>
        <time>2017-06-26T09:29:46Z</time>
      </trkpt>
      <trkpt lat="45.94947" lon="4.80408">
        <ele>258</ele>
        <time>2017-06-26T09:29:47Z</time>
      </trkpt>
      <trkpt lat="45.94948" lon="4.80401">
        <ele>258</ele>
        <time>2017-06-26T09:29:48Z</time>
      </trkpt>
      <trkpt lat="45.94947" lon="4.80393">
        <ele>258</ele>
        <time>2017-06-26T09:29:49Z</time>
      </trkpt>
      <trkpt lat="45.94947" lon="4.80385">
        <ele>258</ele>
        <time>2017-06-26T09:29:50Z</time>
      </trkpt>
      <trkpt lat="45.94947" lon="4.80377">
        <ele>258</ele>
        <time>2017-06-26T09:29:51Z</time>
      </trkpt>
      <trkpt lat="45.94947" lon="4.80369">
        <ele>258</ele>
        <time>2017-06-26T09:29:52Z</time>
      </trkpt>
      <trkpt lat="45.94947" lon="4.80361">
        <ele>258</ele>
        <time>2017-06-26T09:29:53Z</time>
      </trkpt>
      <trkpt lat="45.94947" lon="4.80353">
        <ele>258</ele>
        <time>2017-06-26T09:29:54Z</time>
      </trkpt>
      <trkpt lat="45.94946" lon="4.80345">
        <ele>258</ele>
        <time>2017-06-26T09:29:55Z</time>
      </trkpt>
      <trkpt lat="45.94946" lon="4.80337">
        <ele>258</ele>
        <time>2017-06-26T09:29:56Z</time>
      </trkpt>
      <trkpt lat="45.94947" lon="4.8033">
        <ele>257</ele>
        <time>2017-06-26T09:29:57Z</time>
      </trkpt>
      <trkpt lat="45.94946" lon="4.80322">
        <ele>257</ele>
        <time>2017-06-26T09:29:58Z</time>
      </trkpt>
      <trkpt lat="45.94946" lon="4.80314">
        <ele>257</ele>
        <time>2017-06-26T09:29:59Z</time>
      </trkpt>
      <trkpt lat="45.94946" lon="4.80307">
        <ele>257</ele>
        <time>2017-06-26T09:30:00Z</time>
      </trkpt>
      <trkpt lat="45.94946" lon="4.80299">
        <ele>257</ele>
        <time>2017-06-26T09:30:01Z</time>
      </trkpt>
      <trkpt lat="45.94946" lon="4.80292">
        <ele>257</ele>
        <time>2017-06-26T09:30:02Z</time>
      </trkpt>
      <trkpt lat="45.94945" lon="4.80284">
        <ele>257</ele>
        <time>2017-06-26T09:30:03Z</time>
      </trkpt>
      <trkpt lat="45.94945" lon="4.80277">
        <ele>257</ele>
        <time>2017-06-26T09:30:04Z</time>
      </trkpt>
      <trkpt lat="45.94945" lon="4.8027">
        <ele>257</ele>
        <time>2017-06-26T09:30:05Z</time>
      </trkpt>
      <trkpt lat="45.94944" lon="4.80262">
        <ele>257</ele>
        <time>2017-06-26T09:30:06Z</time>
      </trkpt>
      <trkpt lat="45.94943" lon="4.80253">
        <ele>257</ele>
        <time>2017-06-26T09:30:07Z</time>
      </trkpt>
      <trkpt lat="45.94942" lon="4.80245">
        <ele>256</ele>
        <time>2017-06-26T09:30:08Z</time>
      </trkpt>
      <trkpt lat="45.94941" lon="4.80237">
        <ele>256</ele>
        <time>2017-06-26T09:30:09Z</time>
      </trkpt>
      <trkpt lat="45.9494" lon="4.80227">
        <ele>256</ele>
        <time>2017-06-26T09:30:10Z</time>
      </trkpt>
      <trkpt lat="45.94938" lon="4.80218">
        <ele>256</ele>
        <time>2017-06-26T09:30:11Z</time>
      </trkpt>
      <trkpt lat="45.94937" lon="4.80209">
        <ele>256</ele>
        <time>2017-06-26T09:30:12Z</time>
      </trkpt>
      <trkpt lat="45.94935" lon="4.80199">
        <ele>256</ele>
        <time>2017-06-26T09:30:13Z</time>
      </trkpt>
      <trkpt lat="45.94934" lon="4.80189">
        <ele>256</ele>
        <time>2017-06-26T09:30:14Z</time>
      </trkpt>
      <trkpt lat="45.94932" lon="4.8018">
        <ele>256</ele>
        <time>2017-06-26T09:30:15Z</time>
      </trkpt>
      <trkpt lat="45.9493" lon="4.80171">
        <ele>255</ele>
        <time>2017-06-26T09:30:16Z</time>
      </trkpt>
      <trkpt lat="45.94929" lon="4.80162">
        <ele>255</ele>
        <time>2017-06-26T09:30:17Z</time>
      </trkpt>
      <trkpt lat="45.94928" lon="4.80154">
        <ele>255</ele>
        <time>2017-06-26T09:30:18Z</time>
      </trkpt>
      <trkpt lat="45.94927" lon="4.80145">
        <ele>256</ele>
        <time>2017-06-26T09:30:19Z</time>
      </trkpt>
      <trkpt lat="45.94925" lon="4.80137">
        <ele>256</ele>
        <time>2017-06-26T09:30:20Z</time>
      </trkpt>
      <trkpt lat="45.94923" lon="4.80129">
        <ele>256</ele>
        <time>2017-06-26T09:30:21Z</time>
      </trkpt>
      <trkpt lat="45.94922" lon="4.80121">
        <ele>256</ele>
        <time>2017-06-26T09:30:22Z</time>
      </trkpt>
      <trkpt lat="45.94921" lon="4.80113">
        <ele>256</ele>
        <time>2017-06-26T09:30:23Z</time>
      </trkpt>
      <trkpt lat="45.94919" lon="4.80105">
        <ele>256</ele>
        <time>2017-06-26T09:30:24Z</time>
      </trkpt>
      <trkpt lat="45.94917" lon="4.80098">
        <ele>256</ele>
        <time>2017-06-26T09:30:25Z</time>
      </trkpt>
      <trkpt lat="45.94915" lon="4.80092">
        <ele>257</ele>
        <time>2017-06-26T09:30:26Z</time>
      </trkpt>
      <trkpt lat="45.94913" lon="4.80084">
        <ele>257</ele>
        <time>2017-06-26T09:30:27Z</time>
      </trkpt>
      <trkpt lat="45.94911" lon="4.80076">
        <ele>257</ele>
        <time>2017-06-26T09:30:28Z</time>
      </trkpt>
      <trkpt lat="45.94909" lon="4.80068">
        <ele>256</ele>
        <time>2017-06-26T09:30:29Z</time>
      </trkpt>
      <trkpt lat="45.94907" lon="4.8006">
        <ele>256</ele>
        <time>2017-06-26T09:30:30Z</time>
      </trkpt>
      <trkpt lat="45.94904" lon="4.80052">
        <ele>256</ele>
        <time>2017-06-26T09:30:31Z</time>
      </trkpt>
      <trkpt lat="45.94902" lon="4.80044">
        <ele>256</ele>
        <time>2017-06-26T09:30:32Z</time>
      </trkpt>
      <trkpt lat="45.949" lon="4.80037">
        <ele>256</ele>
        <time>2017-06-26T09:30:33Z</time>
      </trkpt>
      <trkpt lat="45.94898" lon="4.80029">
        <ele>256</ele>
        <time>2017-06-26T09:30:34Z</time>
      </trkpt>
      <trkpt lat="45.94895" lon="4.80022">
        <ele>256</ele>
        <time>2017-06-26T09:30:35Z</time>
      </trkpt>
      <trkpt lat="45.94892" lon="4.80015">
        <ele>256</ele>
        <time>2017-06-26T09:30:36Z</time>
      </trkpt>
      <trkpt lat="45.9489" lon="4.80008">
        <ele>256</ele>
        <time>2017-06-26T09:30:37Z</time>
      </trkpt>
      <trkpt lat="45.94887" lon="4.80001">
        <ele>256</ele>
        <time>2017-06-26T09:30:38Z</time>
      </trkpt>
      <trkpt lat="45.94885" lon="4.79994">
        <ele>256</ele>
        <time>2017-06-26T09:30:39Z</time>
      </trkpt>
      <trkpt lat="45.94883" lon="4.79987">
        <ele>256</ele>
        <time>2017-06-26T09:30:40Z</time>
      </trkpt>
      <trkpt lat="45.94881" lon="4.79979">
        <ele>256</ele>
        <time>2017-06-26T09:30:41Z</time>
      </trkpt>
      <trkpt lat="45.94879" lon="4.79972">
        <ele>256</ele>
        <time>2017-06-26T09:30:42Z</time>
      </trkpt>
      <trkpt lat="45.94876" lon="4.79965">
        <ele>256</ele>
        <time>2017-06-26T09:30:43Z</time>
      </trkpt>
      <trkpt lat="45.94873" lon="4.79958">
        <ele>256</ele>
        <time>2017-06-26T09:30:44Z</time>
      </trkpt>
      <trkpt lat="45.9487" lon="4.79951">
        <ele>256</ele>
        <time>2017-06-26T09:30:45Z</time>
      </trkpt>
      <trkpt lat="45.94868" lon="4.79944">
        <ele>256</ele>
        <time>2017-06-26T09:30:46Z</time>
      </trkpt>
      <trkpt lat="45.94865" lon="4.79938">
        <ele>256</ele>
        <time>2017-06-26T09:30:47Z</time>
      </trkpt>
      <trkpt lat="45.94862" lon="4.79931">
        <ele>256</ele>
        <time>2017-06-26T09:30:48Z</time>
      </trkpt>
      <trkpt lat="45.94859" lon="4.79925">
        <ele>256</ele>
        <time>2017-06-26T09:30:49Z</time>
      </trkpt>
      <trkpt lat="45.94856" lon="4.79919">
        <ele>256</ele>
        <time>2017-06-26T09:30:50Z</time>
      </trkpt>
      <trkpt lat="45.94853" lon="4.79912">
        <ele>255</ele>
        <time>2017-06-26T09:30:51Z</time>
      </trkpt>
      <trkpt lat="45.9485" lon="4.79906">
        <ele>255</ele>
        <time>2017-06-26T09:30:52Z</time>
      </trkpt>
      <trkpt lat="45.94847" lon="4.79899">
        <ele>255</ele>
        <time>2017-06-26T09:30:53Z</time>
      </trkpt>
      <trkpt lat="45.94845" lon="4.79893">
        <ele>255</ele>
        <time>2017-06-26T09:30:54Z</time>
      </trkpt>
      <trkpt lat="45.94843" lon="4.79886">
        <ele>255</ele>
        <time>2017-06-26T09:30:55Z</time>
      </trkpt>
      <trkpt lat="45.94841" lon="4.79878">
        <ele>255</ele>
        <time>2017-06-26T09:30:56Z</time>
      </trkpt>
      <trkpt lat="45.94839" lon="4.7987">
        <ele>255</ele>
        <time>2017-06-26T09:30:57Z</time>
      </trkpt>
      <trkpt lat="45.94836" lon="4.79861">
        <ele>255</ele>
        <time>2017-06-26T09:30:58Z</time>
      </trkpt>
      <trkpt lat="45.94834" lon="4.79852">
        <ele>255</ele>
        <time>2017-06-26T09:30:59Z</time>
      </trkpt>
      <trkpt lat="45.94832" lon="4.79843">
        <ele>254</ele>
        <time>2017-06-26T09:31:00Z</time>
      </trkpt>
      <trkpt lat="45.94829" lon="4.79833">
        <ele>254</ele>
        <time>2017-06-26T09:31:01Z</time>
      </trkpt>
      <trkpt lat="45.94827" lon="4.79823">
        <ele>254</ele>
        <time>2017-06-26T09:31:02Z</time>
      </trkpt>
      <trkpt lat="45.94825" lon="4.79814">
        <ele>254</ele>
        <time>2017-06-26T09:31:03Z</time>
      </trkpt>
      <trkpt lat="45.94823" lon="4.79805">
        <ele>254</ele>
        <time>2017-06-26T09:31:04Z</time>
      </trkpt>
      <trkpt lat="45.94821" lon="4.79796">
        <ele>254</ele>
        <time>2017-06-26T09:31:05Z</time>
      </trkpt>
      <trkpt lat="45.94818" lon="4.79787">
        <ele>254</ele>
        <time>2017-06-26T09:31:06Z</time>
      </trkpt>
      <trkpt lat="45.94816" lon="4.79779">
        <ele>254</ele>
        <time>2017-06-26T09:31:07Z</time>
      </trkpt>
      <trkpt lat="45.94814" lon="4.79771">
        <ele>254</ele>
        <time>2017-06-26T09:31:08Z</time>
      </trkpt>
      <trkpt lat="45.94812" lon="4.79764">
        <ele>254</ele>
        <time>2017-06-26T09:31:09Z</time>
      </trkpt>
      <trkpt lat="45.94809" lon="4.79757">
        <ele>254</ele>
        <time>2017-06-26T09:31:10Z</time>
      </trkpt>
      <trkpt lat="45.94806" lon="4.79749">
        <ele>254</ele>
        <time>2017-06-26T09:31:11Z</time>
      </trkpt>
      <trkpt lat="45.94804" lon="4.7974">
        <ele>254</ele>
        <time>2017-06-26T09:31:12Z</time>
      </trkpt>
      <trkpt lat="45.94801" lon="4.79732">
        <ele>254</ele>
        <time>2017-06-26T09:31:13Z</time>
      </trkpt>
      <trkpt lat="45.94799" lon="4.79725">
        <ele>254</ele>
        <time>2017-06-26T09:31:14Z</time>
      </trkpt>
      <trkpt lat="45.94797" lon="4.79718">
        <ele>254</ele>
        <time>2017-06-26T09:31:15Z</time>
      </trkpt>
      <trkpt lat="45.94795" lon="4.79712">
        <ele>254</ele>
        <time>2017-06-26T09:31:16Z</time>
      </trkpt>
      <trkpt lat="45.94793" lon="4.79705">
        <ele>254</ele>
        <time>2017-06-26T09:31:17Z</time>
      </trkpt>
      <trkpt lat="45.9479" lon="4.79699">
        <ele>254</ele>
        <time>2017-06-26T09:31:18Z</time>
      </trkpt>
      <trkpt lat="45.94788" lon="4.79693">
        <ele>254</ele>
        <time>2017-06-26T09:31:19Z</time>
      </trkpt>
      <trkpt lat="45.94787" lon="4.79687">
        <ele>254</ele>
        <time>2017-06-26T09:31:20Z</time>
      </trkpt>
      <trkpt lat="45.94783" lon="4.79675">
        <ele>254</ele>
        <time>2017-06-26T09:31:22Z</time>
      </trkpt>
      <trkpt lat="45.94782" lon="4.79669">
        <ele>254</ele>
        <time>2017-06-26T09:31:23Z</time>
      </trkpt>
      <trkpt lat="45.9478" lon="4.79663">
        <ele>254</ele>
        <time>2017-06-26T09:31:24Z</time>
      </trkpt>
      <trkpt lat="45.94778" lon="4.79657">
        <ele>254</ele>
        <time>2017-06-26T09:31:25Z</time>
      </trkpt>
      <trkpt lat="45.94776" lon="4.79651">
        <ele>254</ele>
        <time>2017-06-26T09:31:26Z</time>
      </trkpt>
      <trkpt lat="45.94774" lon="4.79644">
        <ele>254</ele>
        <time>2017-06-26T09:31:27Z</time>
      </trkpt>
      <trkpt lat="45.94773" lon="4.79638">
        <ele>254</ele>
        <time>2017-06-26T09:31:28Z</time>
      </trkpt>
      <trkpt lat="45.94771" lon="4.79631">
        <ele>253</ele>
        <time>2017-06-26T09:31:29Z</time>
      </trkpt>
      <trkpt lat="45.9477" lon="4.79623">
        <ele>253</ele>
        <time>2017-06-26T09:31:30Z</time>
      </trkpt>
      <trkpt lat="45.94768" lon="4.79616">
        <ele>253</ele>
        <time>2017-06-26T09:31:31Z</time>
      </trkpt>
      <trkpt lat="45.94767" lon="4.79609">
        <ele>253</ele>
        <time>2017-06-26T09:31:32Z</time>
      </trkpt>
      <trkpt lat="45.94766" lon="4.79603">
        <ele>253</ele>
        <time>2017-06-26T09:31:33Z</time>
      </trkpt>
      <trkpt lat="45.94768" lon="4.79592">
        <ele>253</ele>
        <time>2017-06-26T09:31:36Z</time>
      </trkpt>
      <trkpt lat="45.94769" lon="4.7959">
        <ele>253</ele>
        <time>2017-06-26T09:31:37Z</time>
      </trkpt>
      <trkpt lat="45.94771" lon="4.79583">
        <ele>252</ele>
        <time>2017-06-26T09:31:39Z</time>
      </trkpt>
      <trkpt lat="45.94772" lon="4.79578">
        <ele>252</ele>
        <time>2017-06-26T09:31:40Z</time>
      </trkpt>
      <trkpt lat="45.94771" lon="4.79571">
        <ele>252</ele>
        <time>2017-06-26T09:31:41Z</time>
      </trkpt>
      <trkpt lat="45.94769" lon="4.79564">
        <ele>252</ele>
        <time>2017-06-26T09:31:42Z</time>
      </trkpt>
      <trkpt lat="45.94767" lon="4.79558">
        <ele>252</ele>
        <time>2017-06-26T09:31:43Z</time>
      </trkpt>
      <trkpt lat="45.94764" lon="4.79552">
        <ele>252</ele>
        <time>2017-06-26T09:31:44Z</time>
      </trkpt>
      <trkpt lat="45.94762" lon="4.79545">
        <ele>252</ele>
        <time>2017-06-26T09:31:45Z</time>
      </trkpt>
      <trkpt lat="45.94759" lon="4.79539">
        <ele>252</ele>
        <time>2017-06-26T09:31:46Z</time>
      </trkpt>
      <trkpt lat="45.94757" lon="4.79533">
        <ele>252</ele>
        <time>2017-06-26T09:31:47Z</time>
      </trkpt>
      <trkpt lat="45.94754" lon="4.79528">
        <ele>252</ele>
        <time>2017-06-26T09:31:48Z</time>
      </trkpt>
      <trkpt lat="45.94752" lon="4.79521">
        <ele>252</ele>
        <time>2017-06-26T09:31:49Z</time>
      </trkpt>
      <trkpt lat="45.94749" lon="4.79515">
        <ele>252</ele>
        <time>2017-06-26T09:31:50Z</time>
      </trkpt>
      <trkpt lat="45.94746" lon="4.79508">
        <ele>252</ele>
        <time>2017-06-26T09:31:51Z</time>
      </trkpt>
      <trkpt lat="45.94743" lon="4.79501">
        <ele>252</ele>
        <time>2017-06-26T09:31:52Z</time>
      </trkpt>
      <trkpt lat="45.9474" lon="4.79493">
        <ele>252</ele>
        <time>2017-06-26T09:31:53Z</time>
      </trkpt>
      <trkpt lat="45.94737" lon="4.79486">
        <ele>253</ele>
        <time>2017-06-26T09:31:54Z</time>
      </trkpt>
      <trkpt lat="45.94734" lon="4.79479">
        <ele>253</ele>
        <time>2017-06-26T09:31:55Z</time>
      </trkpt>
      <trkpt lat="45.94731" lon="4.79472">
        <ele>253</ele>
        <time>2017-06-26T09:31:56Z</time>
      </trkpt>
      <trkpt lat="45.94728" lon="4.79464">
        <ele>253</ele>
        <time>2017-06-26T09:31:57Z</time>
      </trkpt>
      <trkpt lat="45.94725" lon="4.79457">
        <ele>253</ele>
        <time>2017-06-26T09:31:58Z</time>
      </trkpt>
      <trkpt lat="45.94721" lon="4.7945">
        <ele>253</ele>
        <time>2017-06-26T09:31:59Z</time>
      </trkpt>
      <trkpt lat="45.94718" lon="4.79443">
        <ele>253</ele>
        <time>2017-06-26T09:32:00Z</time>
      </trkpt>
      <trkpt lat="45.94714" lon="4.79436">
        <ele>253</ele>
        <time>2017-06-26T09:32:01Z</time>
      </trkpt>
      <trkpt lat="45.94712" lon="4.79429">
        <ele>253</ele>
        <time>2017-06-26T09:32:02Z</time>
      </trkpt>
      <trkpt lat="45.94709" lon="4.79423">
        <ele>253</ele>
        <time>2017-06-26T09:32:03Z</time>
      </trkpt>
      <trkpt lat="45.94706" lon="4.79417">
        <ele>253</ele>
        <time>2017-06-26T09:32:04Z</time>
      </trkpt>
      <trkpt lat="45.94704" lon="4.79411">
        <ele>253</ele>
        <time>2017-06-26T09:32:05Z</time>
      </trkpt>
      <trkpt lat="45.94701" lon="4.79406">
        <ele>253</ele>
        <time>2017-06-26T09:32:06Z</time>
      </trkpt>
      <trkpt lat="45.94698" lon="4.794">
        <ele>253</ele>
        <time>2017-06-26T09:32:07Z</time>
      </trkpt>
      <trkpt lat="45.94696" lon="4.79395">
        <ele>253</ele>
        <time>2017-06-26T09:32:08Z</time>
      </trkpt>
      <trkpt lat="45.94693" lon="4.7939">
        <ele>253</ele>
        <time>2017-06-26T09:32:09Z</time>
      </trkpt>
      <trkpt lat="45.9469" lon="4.79384">
        <ele>253</ele>
        <time>2017-06-26T09:32:10Z</time>
      </trkpt>
      <trkpt lat="45.94687" lon="4.79379">
        <ele>253</ele>
        <time>2017-06-26T09:32:11Z</time>
      </trkpt>
      <trkpt lat="45.94684" lon="4.79373">
        <ele>253</ele>
        <time>2017-06-26T09:32:12Z</time>
      </trkpt>
      <trkpt lat="45.94682" lon="4.79367">
        <ele>253</ele>
        <time>2017-06-26T09:32:13Z</time>
      </trkpt>
      <trkpt lat="45.94679" lon="4.79362">
        <ele>253</ele>
        <time>2017-06-26T09:32:14Z</time>
      </trkpt>
      <trkpt lat="45.94676" lon="4.79356">
        <ele>253</ele>
        <time>2017-06-26T09:32:15Z</time>
      </trkpt>
      <trkpt lat="45.94673" lon="4.79351">
        <ele>253</ele>
        <time>2017-06-26T09:32:16Z</time>
      </trkpt>
      <trkpt lat="45.94668" lon="4.79341">
        <ele>254</ele>
        <time>2017-06-26T09:32:18Z</time>
      </trkpt>
      <trkpt lat="45.94665" lon="4.79335">
        <ele>254</ele>
        <time>2017-06-26T09:32:19Z</time>
      </trkpt>
      <trkpt lat="45.94662" lon="4.79329">
        <ele>254</ele>
        <time>2017-06-26T09:32:20Z</time>
      </trkpt>
      <trkpt lat="45.94659" lon="4.79324">
        <ele>254</ele>
        <time>2017-06-26T09:32:21Z</time>
      </trkpt>
      <trkpt lat="45.94656" lon="4.79318">
        <ele>254</ele>
        <time>2017-06-26T09:32:22Z</time>
      </trkpt>
      <trkpt lat="45.94654" lon="4.79313">
        <ele>254</ele>
        <time>2017-06-26T09:32:23Z</time>
      </trkpt>
      <trkpt lat="45.94649" lon="4.79302">
        <ele>254</ele>
        <time>2017-06-26T09:32:25Z</time>
      </trkpt>
      <trkpt lat="45.94646" lon="4.79296">
        <ele>254</ele>
        <time>2017-06-26T09:32:26Z</time>
      </trkpt>
      <trkpt lat="45.94643" lon="4.7929">
        <ele>254</ele>
        <time>2017-06-26T09:32:27Z</time>
      </trkpt>
      <trkpt lat="45.94641" lon="4.79284">
        <ele>254</ele>
        <time>2017-06-26T09:32:28Z</time>
      </trkpt>
      <trkpt lat="45.94638" lon="4.79278">
        <ele>254</ele>
        <time>2017-06-26T09:32:29Z</time>
      </trkpt>
      <trkpt lat="45.94635" lon="4.79271">
        <ele>254</ele>
        <time>2017-06-26T09:32:30Z</time>
      </trkpt>
      <trkpt lat="45.94632" lon="4.79265">
        <ele>254</ele>
        <time>2017-06-26T09:32:31Z</time>
      </trkpt>
      <trkpt lat="45.94628" lon="4.79259">
        <ele>254</ele>
        <time>2017-06-26T09:32:32Z</time>
      </trkpt>
      <trkpt lat="45.94625" lon="4.79253">
        <ele>255</ele>
        <time>2017-06-26T09:32:33Z</time>
      </trkpt>
      <trkpt lat="45.94622" lon="4.79247">
        <ele>256</ele>
        <time>2017-06-26T09:32:34Z</time>
      </trkpt>
      <trkpt lat="45.94618" lon="4.79241">
        <ele>256</ele>
        <time>2017-06-26T09:32:35Z</time>
      </trkpt>
      <trkpt lat="45.94615" lon="4.79234">
        <ele>256</ele>
        <time>2017-06-26T09:32:36Z</time>
      </trkpt>
      <trkpt lat="45.94611" lon="4.79229">
        <ele>256</ele>
        <time>2017-06-26T09:32:37Z</time>
      </trkpt>
      <trkpt lat="45.94608" lon="4.79222">
        <ele>256</ele>
        <time>2017-06-26T09:32:38Z</time>
      </trkpt>
      <trkpt lat="45.94604" lon="4.79216">
        <ele>257</ele>
        <time>2017-06-26T09:32:39Z</time>
      </trkpt>
      <trkpt lat="45.946" lon="4.79209">
        <ele>257</ele>
        <time>2017-06-26T09:32:40Z</time>
      </trkpt>
      <trkpt lat="45.94597" lon="4.79202">
        <ele>257</ele>
        <time>2017-06-26T09:32:41Z</time>
      </trkpt>
      <trkpt lat="45.94593" lon="4.79195">
        <ele>257</ele>
        <time>2017-06-26T09:32:42Z</time>
      </trkpt>
      <trkpt lat="45.94588" lon="4.79188">
        <ele>258</ele>
        <time>2017-06-26T09:32:43Z</time>
      </trkpt>
      <trkpt lat="45.94584" lon="4.7918">
        <ele>258</ele>
        <time>2017-06-26T09:32:44Z</time>
      </trkpt>
      <trkpt lat="45.9458" lon="4.79171">
        <ele>258</ele>
        <time>2017-06-26T09:32:45Z</time>
      </trkpt>
      <trkpt lat="45.94576" lon="4.79162">
        <ele>258</ele>
        <time>2017-06-26T09:32:46Z</time>
      </trkpt>
      <trkpt lat="45.94572" lon="4.79153">
        <ele>258</ele>
        <time>2017-06-26T09:32:47Z</time>
      </trkpt>
      <trkpt lat="45.94567" lon="4.79145">
        <ele>257</ele>
        <time>2017-06-26T09:32:48Z</time>
      </trkpt>
      <trkpt lat="45.94562" lon="4.79137">
        <ele>257</ele>
        <time>2017-06-26T09:32:49Z</time>
      </trkpt>
      <trkpt lat="45.94557" lon="4.79128">
        <ele>257</ele>
        <time>2017-06-26T09:32:50Z</time>
      </trkpt>
      <trkpt lat="45.94552" lon="4.7912">
        <ele>257</ele>
        <time>2017-06-26T09:32:51Z</time>
      </trkpt>
      <trkpt lat="45.94547" lon="4.79111">
        <ele>256</ele>
        <time>2017-06-26T09:32:52Z</time>
      </trkpt>
      <trkpt lat="45.94543" lon="4.79103">
        <ele>256</ele>
        <time>2017-06-26T09:32:53Z</time>
      </trkpt>
      <trkpt lat="45.94539" lon="4.79096">
        <ele>256</ele>
        <time>2017-06-26T09:32:54Z</time>
      </trkpt>
      <trkpt lat="45.94536" lon="4.79088">
        <ele>256</ele>
        <time>2017-06-26T09:32:55Z</time>
      </trkpt>
      <trkpt lat="45.94532" lon="4.79081">
        <ele>255</ele>
        <time>2017-06-26T09:32:56Z</time>
      </trkpt>
      <trkpt lat="45.9453" lon="4.79075">
        <ele>255</ele>
        <time>2017-06-26T09:32:57Z</time>
      </trkpt>
      <trkpt lat="45.94528" lon="4.79068">
        <ele>255</ele>
        <time>2017-06-26T09:32:58Z</time>
      </trkpt>
      <trkpt lat="45.94525" lon="4.79061">
        <ele>255</ele>
        <time>2017-06-26T09:32:59Z</time>
      </trkpt>
      <trkpt lat="45.94522" lon="4.79054">
        <ele>255</ele>
        <time>2017-06-26T09:33:00Z</time>
      </trkpt>
      <trkpt lat="45.94519" lon="4.79049">
        <ele>255</ele>
        <time>2017-06-26T09:33:01Z</time>
      </trkpt>
      <trkpt lat="45.94516" lon="4.79042">
        <ele>255</ele>
        <time>2017-06-26T09:33:02Z</time>
      </trkpt>
      <trkpt lat="45.94513" lon="4.79036">
        <ele>255</ele>
        <time>2017-06-26T09:33:03Z</time>
      </trkpt>
      <trkpt lat="45.9451" lon="4.7903">
        <ele>255</ele>
        <time>2017-06-26T09:33:04Z</time>
      </trkpt>
      <trkpt lat="45.94507" lon="4.79023">
        <ele>255</ele>
        <time>2017-06-26T09:33:05Z</time>
      </trkpt>
      <trkpt lat="45.94504" lon="4.79016">
        <ele>255</ele>
        <time>2017-06-26T09:33:06Z</time>
      </trkpt>
      <trkpt lat="45.945" lon="4.79008">
        <ele>254</ele>
        <time>2017-06-26T09:33:07Z</time>
      </trkpt>
      <trkpt lat="45.94496" lon="4.79">
        <ele>254</ele>
        <time>2017-06-26T09:33:08Z</time>
      </trkpt>
      <trkpt lat="45.94491" lon="4.78992">
        <ele>254</ele>
        <time>2017-06-26T09:33:09Z</time>
      </trkpt>
      <trkpt lat="45.94487" lon="4.78984">
        <ele>254</ele>
        <time>2017-06-26T09:33:10Z</time>
      </trkpt>
      <trkpt lat="45.94483" lon="4.78975">
        <ele>254</ele>
        <time>2017-06-26T09:33:11Z</time>
      </trkpt>
      <trkpt lat="45.94479" lon="4.78966">
        <ele>254</ele>
        <time>2017-06-26T09:33:12Z</time>
      </trkpt>
      <trkpt lat="45.94475" lon="4.78957">
        <ele>254</ele>
        <time>2017-06-26T09:33:13Z</time>
      </trkpt>
      <trkpt lat="45.94471" lon="4.78948">
        <ele>254</ele>
        <time>2017-06-26T09:33:14Z</time>
      </trkpt>
      <trkpt lat="45.94468" lon="4.78937">
        <ele>254</ele>
        <time>2017-06-26T09:33:15Z</time>
      </trkpt>
      <trkpt lat="45.94465" lon="4.78927">
        <ele>254</ele>
        <time>2017-06-26T09:33:16Z</time>
      </trkpt>
      <trkpt lat="45.94462" lon="4.78915">
        <ele>253</ele>
        <time>2017-06-26T09:33:17Z</time>
      </trkpt>
      <trkpt lat="45.94459" lon="4.78903">
        <ele>253</ele>
        <time>2017-06-26T09:33:18Z</time>
      </trkpt>
      <trkpt lat="45.94458" lon="4.78889">
        <ele>253</ele>
        <time>2017-06-26T09:33:19Z</time>
      </trkpt>
      <trkpt lat="45.94457" lon="4.78874">
        <ele>253</ele>
        <time>2017-06-26T09:33:20Z</time>
      </trkpt>
      <trkpt lat="45.94457" lon="4.7886">
        <ele>253</ele>
        <time>2017-06-26T09:33:21Z</time>
      </trkpt>
      <trkpt lat="45.94459" lon="4.78845">
        <ele>253</ele>
        <time>2017-06-26T09:33:22Z</time>
      </trkpt>
      <trkpt lat="45.94461" lon="4.78831">
        <ele>251</ele>
        <time>2017-06-26T09:33:23Z</time>
      </trkpt>
      <trkpt lat="45.94466" lon="4.78816">
        <ele>251</ele>
        <time>2017-06-26T09:33:24Z</time>
      </trkpt>
      <trkpt lat="45.9447" lon="4.78801">
        <ele>251</ele>
        <time>2017-06-26T09:33:25Z</time>
      </trkpt>
      <trkpt lat="45.94474" lon="4.78787">
        <ele>250</ele>
        <time>2017-06-26T09:33:26Z</time>
      </trkpt>
      <trkpt lat="45.94478" lon="4.78771">
        <ele>250</ele>
        <time>2017-06-26T09:33:27Z</time>
      </trkpt>
      <trkpt lat="45.9448" lon="4.78754">
        <ele>249</ele>
        <time>2017-06-26T09:33:28Z</time>
      </trkpt>
      <trkpt lat="45.94481" lon="4.78737">
        <ele>246</ele>
        <time>2017-06-26T09:33:29Z</time>
      </trkpt>
      <trkpt lat="45.9448" lon="4.7872">
        <ele>245</ele>
        <time>2017-06-26T09:33:30Z</time>
      </trkpt>
      <trkpt lat="45.94479" lon="4.78702">
        <ele>245</ele>
        <time>2017-06-26T09:33:31Z</time>
      </trkpt>
      <trkpt lat="45.94478" lon="4.78685">
        <ele>244</ele>
        <time>2017-06-26T09:33:32Z</time>
      </trkpt>
      <trkpt lat="45.94476" lon="4.78667">
        <ele>243</ele>
        <time>2017-06-26T09:33:33Z</time>
      </trkpt>
      <trkpt lat="45.94473" lon="4.78648">
        <ele>241</ele>
        <time>2017-06-26T09:33:34Z</time>
      </trkpt>
      <trkpt lat="45.9447" lon="4.78629">
        <ele>241</ele>
        <time>2017-06-26T09:33:35Z</time>
      </trkpt>
      <trkpt lat="45.94466" lon="4.78611">
        <ele>241</ele>
        <time>2017-06-26T09:33:36Z</time>
      </trkpt>
      <trkpt lat="45.9446" lon="4.78595">
        <ele>240</ele>
        <time>2017-06-26T09:33:37Z</time>
      </trkpt>
      <trkpt lat="45.94453" lon="4.78579">
        <ele>240</ele>
        <time>2017-06-26T09:33:38Z</time>
      </trkpt>
      <trkpt lat="45.94445" lon="4.78564">
        <ele>239</ele>
        <time>2017-06-26T09:33:39Z</time>
      </trkpt>
      <trkpt lat="45.94437" lon="4.7855">
        <ele>239</ele>
        <time>2017-06-26T09:33:40Z</time>
      </trkpt>
      <trkpt lat="45.94429" lon="4.78536">
        <ele>238</ele>
        <time>2017-06-26T09:33:41Z</time>
      </trkpt>
      <trkpt lat="45.9442" lon="4.78524">
        <ele>237</ele>
        <time>2017-06-26T09:33:42Z</time>
      </trkpt>
      <trkpt lat="45.94411" lon="4.78512">
        <ele>236</ele>
        <time>2017-06-26T09:33:43Z</time>
      </trkpt>
      <trkpt lat="45.94401" lon="4.78502">
        <ele>236</ele>
        <time>2017-06-26T09:33:44Z</time>
      </trkpt>
      <trkpt lat="45.94391" lon="4.78491">
        <ele>235</ele>
        <time>2017-06-26T09:33:45Z</time>
      </trkpt>
      <trkpt lat="45.94381" lon="4.78481">
        <ele>236</ele>
        <time>2017-06-26T09:33:46Z</time>
      </trkpt>
      <trkpt lat="45.94372" lon="4.78469">
        <ele>236</ele>
        <time>2017-06-26T09:33:47Z</time>
      </trkpt>
      <trkpt lat="45.94363" lon="4.78456">
        <ele>235</ele>
        <time>2017-06-26T09:33:48Z</time>
      </trkpt>
      <trkpt lat="45.94354" lon="4.78444">
        <ele>235</ele>
        <time>2017-06-26T09:33:49Z</time>
      </trkpt>
      <trkpt lat="45.94345" lon="4.78431">
        <ele>233</ele>
        <time>2017-06-26T09:33:50Z</time>
      </trkpt>
      <trkpt lat="45.94337" lon="4.78417">
        <ele>230</ele>
        <time>2017-06-26T09:33:51Z</time>
      </trkpt>
      <trkpt lat="45.94329" lon="4.78404">
        <ele>229</ele>
        <time>2017-06-26T09:33:52Z</time>
      </trkpt>
      <trkpt lat="45.94323" lon="4.7839">
        <ele>230</ele>
        <time>2017-06-26T09:33:53Z</time>
      </trkpt>
      <trkpt lat="45.94316" lon="4.78376">
        <ele>230</ele>
        <time>2017-06-26T09:33:54Z</time>
      </trkpt>
      <trkpt lat="45.94309" lon="4.78362">
        <ele>229</ele>
        <time>2017-06-26T09:33:55Z</time>
      </trkpt>
      <trkpt lat="45.94302" lon="4.78349">
        <ele>229</ele>
        <time>2017-06-26T09:33:56Z</time>
      </trkpt>
      <trkpt lat="45.94294" lon="4.78336">
        <ele>228</ele>
        <time>2017-06-26T09:33:57Z</time>
      </trkpt>
      <trkpt lat="45.94286" lon="4.78326">
        <ele>228</ele>
        <time>2017-06-26T09:33:58Z</time>
      </trkpt>
      <trkpt lat="45.94277" lon="4.78316">
        <ele>228</ele>
        <time>2017-06-26T09:33:59Z</time>
      </trkpt>
      <trkpt lat="45.94267" lon="4.78308">
        <ele>228</ele>
        <time>2017-06-26T09:34:00Z</time>
      </trkpt>
      <trkpt lat="45.94257" lon="4.78301">
        <ele>228</ele>
        <time>2017-06-26T09:34:01Z</time>
      </trkpt>
      <trkpt lat="45.94248" lon="4.78296">
        <ele>222</ele>
        <time>2017-06-26T09:34:02Z</time>
      </trkpt>
      <trkpt lat="45.94237" lon="4.78292">
        <ele>222</ele>
        <time>2017-06-26T09:34:03Z</time>
      </trkpt>
      <trkpt lat="45.94227" lon="4.7829">
        <ele>222</ele>
        <time>2017-06-26T09:34:04Z</time>
      </trkpt>
      <trkpt lat="45.94216" lon="4.78288">
        <ele>222</ele>
        <time>2017-06-26T09:34:05Z</time>
      </trkpt>
      <trkpt lat="45.94206" lon="4.78286">
        <ele>222</ele>
        <time>2017-06-26T09:34:06Z</time>
      </trkpt>
      <trkpt lat="45.94196" lon="4.78284">
        <ele>221</ele>
        <time>2017-06-26T09:34:07Z</time>
      </trkpt>
      <trkpt lat="45.94186" lon="4.78281">
        <ele>221</ele>
        <time>2017-06-26T09:34:08Z</time>
      </trkpt>
      <trkpt lat="45.94176" lon="4.78277">
        <ele>221</ele>
        <time>2017-06-26T09:34:09Z</time>
      </trkpt>
      <trkpt lat="45.94167" lon="4.78272">
        <ele>220</ele>
        <time>2017-06-26T09:34:10Z</time>
      </trkpt>
      <trkpt lat="45.94158" lon="4.78266">
        <ele>216</ele>
        <time>2017-06-26T09:34:11Z</time>
      </trkpt>
      <trkpt lat="45.94149" lon="4.78261">
        <ele>216</ele>
        <time>2017-06-26T09:34:12Z</time>
      </trkpt>
      <trkpt lat="45.9414" lon="4.78255">
        <ele>215</ele>
        <time>2017-06-26T09:34:13Z</time>
      </trkpt>
      <trkpt lat="45.94131" lon="4.7825">
        <ele>215</ele>
        <time>2017-06-26T09:34:14Z</time>
      </trkpt>
      <trkpt lat="45.94122" lon="4.78245">
        <ele>214</ele>
        <time>2017-06-26T09:34:15Z</time>
      </trkpt>
      <trkpt lat="45.94113" lon="4.78239">
        <ele>214</ele>
        <time>2017-06-26T09:34:16Z</time>
      </trkpt>
      <trkpt lat="45.94104" lon="4.78235">
        <ele>213</ele>
        <time>2017-06-26T09:34:17Z</time>
      </trkpt>
      <trkpt lat="45.94095" lon="4.7823">
        <ele>212</ele>
        <time>2017-06-26T09:34:18Z</time>
      </trkpt>
      <trkpt lat="45.94086" lon="4.78225">
        <ele>212</ele>
        <time>2017-06-26T09:34:19Z</time>
      </trkpt>
      <trkpt lat="45.94077" lon="4.7822">
        <ele>206</ele>
        <time>2017-06-26T09:34:20Z</time>
      </trkpt>
      <trkpt lat="45.94068" lon="4.78214">
        <ele>206</ele>
        <time>2017-06-26T09:34:21Z</time>
      </trkpt>
      <trkpt lat="45.94058" lon="4.78209">
        <ele>206</ele>
        <time>2017-06-26T09:34:22Z</time>
      </trkpt>
      <trkpt lat="45.9405" lon="4.78202">
        <ele>205</ele>
        <time>2017-06-26T09:34:23Z</time>
      </trkpt>
      <trkpt lat="45.94042" lon="4.78197">
        <ele>205</ele>
        <time>2017-06-26T09:34:24Z</time>
      </trkpt>
      <trkpt lat="45.94034" lon="4.7819">
        <ele>204</ele>
        <time>2017-06-26T09:34:25Z</time>
      </trkpt>
      <trkpt lat="45.94026" lon="4.78186">
        <ele>204</ele>
        <time>2017-06-26T09:34:26Z</time>
      </trkpt>
      <trkpt lat="45.94019" lon="4.78181">
        <ele>203</ele>
        <time>2017-06-26T09:34:27Z</time>
      </trkpt>
      <trkpt lat="45.94013" lon="4.78178">
        <ele>203</ele>
        <time>2017-06-26T09:34:28Z</time>
      </trkpt>
      <trkpt lat="45.94008" lon="4.78174">
        <ele>202</ele>
        <time>2017-06-26T09:34:29Z</time>
      </trkpt>
      <trkpt lat="45.94" lon="4.78172">
        <ele>200</ele>
        <time>2017-06-26T09:34:31Z</time>
      </trkpt>
      <trkpt lat="45.93997" lon="4.78169">
        <ele>200</ele>
        <time>2017-06-26T09:34:32Z</time>
      </trkpt>
      <trkpt lat="45.93993" lon="4.7816">
        <ele>199</ele>
        <time>2017-06-26T09:34:34Z</time>
      </trkpt>
      <trkpt lat="45.9399" lon="4.78155">
        <ele>199</ele>
        <time>2017-06-26T09:34:35Z</time>
      </trkpt>
      <trkpt lat="45.93989" lon="4.78148">
        <ele>198</ele>
        <time>2017-06-26T09:34:36Z</time>
      </trkpt>
      <trkpt lat="45.93989" lon="4.78141">
        <ele>198</ele>
        <time>2017-06-26T09:34:37Z</time>
      </trkpt>
      <trkpt lat="45.9399" lon="4.78135">
        <ele>197</ele>
        <time>2017-06-26T09:34:38Z</time>
      </trkpt>
      <trkpt lat="45.93992" lon="4.78128">
        <ele>197</ele>
        <time>2017-06-26T09:34:39Z</time>
      </trkpt>
      <trkpt lat="45.93994" lon="4.78122">
        <ele>197</ele>
        <time>2017-06-26T09:34:40Z</time>
      </trkpt>
      <trkpt lat="45.93995" lon="4.78114">
        <ele>197</ele>
        <time>2017-06-26T09:34:41Z</time>
      </trkpt>
      <trkpt lat="45.93996" lon="4.78106">
        <ele>197</ele>
        <time>2017-06-26T09:34:42Z</time>
      </trkpt>
      <trkpt lat="45.93997" lon="4.78097">
        <ele>198</ele>
        <time>2017-06-26T09:34:43Z</time>
      </trkpt>
      <trkpt lat="45.93999" lon="4.78089">
        <ele>198</ele>
        <time>2017-06-26T09:34:44Z</time>
      </trkpt>
      <trkpt lat="45.94" lon="4.78081">
        <ele>199</ele>
        <time>2017-06-26T09:34:45Z</time>
      </trkpt>
      <trkpt lat="45.94002" lon="4.78073">
        <ele>200</ele>
        <time>2017-06-26T09:34:46Z</time>
      </trkpt>
      <trkpt lat="45.94003" lon="4.78064">
        <ele>201</ele>
        <time>2017-06-26T09:34:47Z</time>
      </trkpt>
      <trkpt lat="45.94004" lon="4.78056">
        <ele>201</ele>
        <time>2017-06-26T09:34:48Z</time>
      </trkpt>
      <trkpt lat="45.94006" lon="4.78048">
        <ele>201</ele>
        <time>2017-06-26T09:34:49Z</time>
      </trkpt>
      <trkpt lat="45.94008" lon="4.78041">
        <ele>201</ele>
        <time>2017-06-26T09:34:50Z</time>
      </trkpt>
      <trkpt lat="45.9401" lon="4.78033">
        <ele>201</ele>
        <time>2017-06-26T09:34:51Z</time>
      </trkpt>
      <trkpt lat="45.94011" lon="4.78025">
        <ele>201</ele>
        <time>2017-06-26T09:34:52Z</time>
      </trkpt>
      <trkpt lat="45.94012" lon="4.78017">
        <ele>200</ele>
        <time>2017-06-26T09:34:53Z</time>
      </trkpt>
      <trkpt lat="45.94014" lon="4.78009">
        <ele>199</ele>
        <time>2017-06-26T09:34:54Z</time>
      </trkpt>
      <trkpt lat="45.94015" lon="4.78">
        <ele>199</ele>
        <time>2017-06-26T09:34:55Z</time>
      </trkpt>
      <trkpt lat="45.94016" lon="4.77992">
        <ele>199</ele>
        <time>2017-06-26T09:34:56Z</time>
      </trkpt>
      <trkpt lat="45.94018" lon="4.77983">
        <ele>199</ele>
        <time>2017-06-26T09:34:57Z</time>
      </trkpt>
      <trkpt lat="45.94019" lon="4.77975">
        <ele>200</ele>
        <time>2017-06-26T09:34:58Z</time>
      </trkpt>
      <trkpt lat="45.94021" lon="4.77967">
        <ele>200</ele>
        <time>2017-06-26T09:34:59Z</time>
      </trkpt>
      <trkpt lat="45.94023" lon="4.77959">
        <ele>200</ele>
        <time>2017-06-26T09:35:00Z</time>
      </trkpt>
      <trkpt lat="45.94025" lon="4.77952">
        <ele>200</ele>
        <time>2017-06-26T09:35:01Z</time>
      </trkpt>
      <trkpt lat="45.94027" lon="4.77946">
        <ele>200</ele>
        <time>2017-06-26T09:35:02Z</time>
      </trkpt>
      <trkpt lat="45.94029" lon="4.77939">
        <ele>200</ele>
        <time>2017-06-26T09:35:03Z</time>
      </trkpt>
      <trkpt lat="45.94029" lon="4.77932">
        <ele>200</ele>
        <time>2017-06-26T09:35:04Z</time>
      </trkpt>
      <trkpt lat="45.94025" lon="4.77926">
        <ele>199</ele>
        <time>2017-06-26T09:35:05Z</time>
      </trkpt>
      <trkpt lat="45.9402" lon="4.77923">
        <ele>198</ele>
        <time>2017-06-26T09:35:06Z</time>
      </trkpt>
      <trkpt lat="45.94014" lon="4.77922">
        <ele>197</ele>
        <time>2017-06-26T09:35:07Z</time>
      </trkpt>
      <trkpt lat="45.94007" lon="4.77922">
        <ele>196</ele>
        <time>2017-06-26T09:35:08Z</time>
      </trkpt>
      <trkpt lat="45.94" lon="4.77923">
        <ele>193</ele>
        <time>2017-06-26T09:35:09Z</time>
      </trkpt>
      <trkpt lat="45.93993" lon="4.77925">
        <ele>193</ele>
        <time>2017-06-26T09:35:10Z</time>
      </trkpt>
      <trkpt lat="45.93986" lon="4.77929">
        <ele>192</ele>
        <time>2017-06-26T09:35:11Z</time>
      </trkpt>
      <trkpt lat="45.93978" lon="4.77933">
        <ele>191</ele>
        <time>2017-06-26T09:35:12Z</time>
      </trkpt>
      <trkpt lat="45.9397" lon="4.77938">
        <ele>191</ele>
        <time>2017-06-26T09:35:13Z</time>
      </trkpt>
      <trkpt lat="45.93962" lon="4.77942">
        <ele>190</ele>
        <time>2017-06-26T09:35:14Z</time>
      </trkpt>
      <trkpt lat="45.93955" lon="4.77948">
        <ele>190</ele>
        <time>2017-06-26T09:35:15Z</time>
      </trkpt>
      <trkpt lat="45.93946" lon="4.77954">
        <ele>189</ele>
        <time>2017-06-26T09:35:16Z</time>
      </trkpt>
      <trkpt lat="45.93939" lon="4.7796">
        <ele>189</ele>
        <time>2017-06-26T09:35:17Z</time>
      </trkpt>
      <trkpt lat="45.93931" lon="4.77966">
        <ele>189</ele>
        <time>2017-06-26T09:35:18Z</time>
      </trkpt>
      <trkpt lat="45.93924" lon="4.77972">
        <ele>188</ele>
        <time>2017-06-26T09:35:19Z</time>
      </trkpt>
      <trkpt lat="45.93917" lon="4.77979">
        <ele>182</ele>
        <time>2017-06-26T09:35:20Z</time>
      </trkpt>
      <trkpt lat="45.9391" lon="4.77985">
        <ele>183</ele>
        <time>2017-06-26T09:35:21Z</time>
      </trkpt>
      <trkpt lat="45.93905" lon="4.77989">
        <ele>183</ele>
        <time>2017-06-26T09:35:22Z</time>
      </trkpt>
      <trkpt lat="45.93901" lon="4.77995">
        <ele>183</ele>
        <time>2017-06-26T09:35:23Z</time>
      </trkpt>
      <trkpt lat="45.93897" lon="4.78">
        <ele>182</ele>
        <time>2017-06-26T09:35:24Z</time>
      </trkpt>
      <trkpt lat="45.9389" lon="4.78008">
        <ele>184</ele>
        <time>2017-06-26T09:35:27Z</time>
      </trkpt>
      <trkpt lat="45.93889" lon="4.78009">
        <ele>184</ele>
        <time>2017-06-26T09:35:28Z</time>
      </trkpt>
      <trkpt lat="45.93881" lon="4.78012">
        <ele>184</ele>
        <time>2017-06-26T09:35:44Z</time>
      </trkpt>
      <trkpt lat="45.93878" lon="4.78011">
        <ele>184</ele>
        <time>2017-06-26T09:35:45Z</time>
      </trkpt>
      <trkpt lat="45.9387" lon="4.78007">
        <ele>183</ele>
        <time>2017-06-26T09:35:47Z</time>
      </trkpt>
      <trkpt lat="45.93866" lon="4.78003">
        <ele>183</ele>
        <time>2017-06-26T09:35:48Z</time>
      </trkpt>
      <trkpt lat="45.93861" lon="4.77998">
        <ele>179</ele>
        <time>2017-06-26T09:35:49Z</time>
      </trkpt>
      <trkpt lat="45.93855" lon="4.77994">
        <ele>179</ele>
        <time>2017-06-26T09:35:50Z</time>
      </trkpt>
      <trkpt lat="45.93849" lon="4.7799">
        <ele>179</ele>
        <time>2017-06-26T09:35:51Z</time>
      </trkpt>
      <trkpt lat="45.93844" lon="4.77985">
        <ele>179</ele>
        <time>2017-06-26T09:35:52Z</time>
      </trkpt>
      <trkpt lat="45.93838" lon="4.77979">
        <ele>178</ele>
        <time>2017-06-26T09:35:53Z</time>
      </trkpt>
      <trkpt lat="45.93833" lon="4.77973">
        <ele>172</ele>
        <time>2017-06-26T09:35:54Z</time>
      </trkpt>
      <trkpt lat="45.93829" lon="4.77966">
        <ele>171</ele>
        <time>2017-06-26T09:35:55Z</time>
      </trkpt>
      <trkpt lat="45.93824" lon="4.7796">
        <ele>170</ele>
        <time>2017-06-26T09:35:56Z</time>
      </trkpt>
      <trkpt lat="45.93819" lon="4.77954">
        <ele>170</ele>
        <time>2017-06-26T09:35:57Z</time>
      </trkpt>
      <trkpt lat="45.93814" lon="4.77948">
        <ele>169</ele>
        <time>2017-06-26T09:35:58Z</time>
      </trkpt>
      <trkpt lat="45.93809" lon="4.77941">
        <ele>169</ele>
        <time>2017-06-26T09:35:59Z</time>
      </trkpt>
      <trkpt lat="45.93804" lon="4.77935">
        <ele>169</ele>
        <time>2017-06-26T09:36:00Z</time>
      </trkpt>
      <trkpt lat="45.938" lon="4.77929">
        <ele>168</ele>
        <time>2017-06-26T09:36:01Z</time>
      </trkpt>
      <trkpt lat="45.93796" lon="4.77923">
        <ele>168</ele>
        <time>2017-06-26T09:36:02Z</time>
      </trkpt>
      <trkpt lat="45.93791" lon="4.77917">
        <ele>168</ele>
        <time>2017-06-26T09:36:03Z</time>
      </trkpt>
      <trkpt lat="45.93787" lon="4.77911">
        <ele>166</ele>
        <time>2017-06-26T09:36:04Z</time>
      </trkpt>
      <trkpt lat="45.93782" lon="4.77905">
        <ele>166</ele>
        <time>2017-06-26T09:36:05Z</time>
      </trkpt>
      <trkpt lat="45.93777" lon="4.77899">
        <ele>166</ele>
        <time>2017-06-26T09:36:06Z</time>
      </trkpt>
      <trkpt lat="45.93773" lon="4.77894">
        <ele>166</ele>
        <time>2017-06-26T09:36:07Z</time>
      </trkpt>
      <trkpt lat="45.93768" lon="4.77888">
        <ele>166</ele>
        <time>2017-06-26T09:36:08Z</time>
      </trkpt>
      <trkpt lat="45.93764" lon="4.77882">
        <ele>166</ele>
        <time>2017-06-26T09:36:09Z</time>
      </trkpt>
      <trkpt lat="45.93759" lon="4.77876">
        <ele>166</ele>
        <time>2017-06-26T09:36:10Z</time>
      </trkpt>
      <trkpt lat="45.93755" lon="4.77871">
        <ele>166</ele>
        <time>2017-06-26T09:36:11Z</time>
      </trkpt>
      <trkpt lat="45.93751" lon="4.77865">
        <ele>166</ele>
        <time>2017-06-26T09:36:12Z</time>
      </trkpt>
      <trkpt lat="45.93747" lon="4.7786">
        <ele>167</ele>
        <time>2017-06-26T09:36:13Z</time>
      </trkpt>
      <trkpt lat="45.93743" lon="4.77855">
        <ele>167</ele>
        <time>2017-06-26T09:36:14Z</time>
      </trkpt>
      <trkpt lat="45.93739" lon="4.7785">
        <ele>167</ele>
        <time>2017-06-26T09:36:15Z</time>
      </trkpt>
      <trkpt lat="45.93735" lon="4.77845">
        <ele>167</ele>
        <time>2017-06-26T09:36:16Z</time>
      </trkpt>
      <trkpt lat="45.93731" lon="4.7784">
        <ele>167</ele>
        <time>2017-06-26T09:36:17Z</time>
      </trkpt>
      <trkpt lat="45.93727" lon="4.77835">
        <ele>167</ele>
        <time>2017-06-26T09:36:18Z</time>
      </trkpt>
      <trkpt lat="45.93723" lon="4.7783">
        <ele>168</ele>
        <time>2017-06-26T09:36:19Z</time>
      </trkpt>
      <trkpt lat="45.9372" lon="4.77824">
        <ele>168</ele>
        <time>2017-06-26T09:36:20Z</time>
      </trkpt>
      <trkpt lat="45.93716" lon="4.77819">
        <ele>169</ele>
        <time>2017-06-26T09:36:21Z</time>
      </trkpt>
      <trkpt lat="45.93712" lon="4.77814">
        <ele>169</ele>
        <time>2017-06-26T09:36:22Z</time>
      </trkpt>
      <trkpt lat="45.93708" lon="4.77808">
        <ele>169</ele>
        <time>2017-06-26T09:36:23Z</time>
      </trkpt>
      <trkpt lat="45.93704" lon="4.77803">
        <ele>169</ele>
        <time>2017-06-26T09:36:24Z</time>
      </trkpt>
      <trkpt lat="45.937" lon="4.77797">
        <ele>169</ele>
        <time>2017-06-26T09:36:25Z</time>
      </trkpt>
      <trkpt lat="45.93695" lon="4.77791">
        <ele>169</ele>
        <time>2017-06-26T09:36:26Z</time>
      </trkpt>
      <trkpt lat="45.93691" lon="4.77785">
        <ele>170</ele>
        <time>2017-06-26T09:36:27Z</time>
      </trkpt>
      <trkpt lat="45.93687" lon="4.7778">
        <ele>170</ele>
        <time>2017-06-26T09:36:28Z</time>
      </trkpt>
      <trkpt lat="45.93683" lon="4.77773">
        <ele>170</ele>
        <time>2017-06-26T09:36:29Z</time>
      </trkpt>
      <trkpt lat="45.93678" lon="4.77767">
        <ele>170</ele>
        <time>2017-06-26T09:36:30Z</time>
      </trkpt>
      <trkpt lat="45.93674" lon="4.77761">
        <ele>170</ele>
        <time>2017-06-26T09:36:31Z</time>
      </trkpt>
      <trkpt lat="45.9367" lon="4.77754">
        <ele>171</ele>
        <time>2017-06-26T09:36:32Z</time>
      </trkpt>
      <trkpt lat="45.93665" lon="4.77747">
        <ele>171</ele>
        <time>2017-06-26T09:36:33Z</time>
      </trkpt>
      <trkpt lat="45.9366" lon="4.77739">
        <ele>170</ele>
        <time>2017-06-26T09:36:34Z</time>
      </trkpt>
      <trkpt lat="45.93655" lon="4.77731">
        <ele>170</ele>
        <time>2017-06-26T09:36:35Z</time>
      </trkpt>
      <trkpt lat="45.93651" lon="4.77723">
        <ele>170</ele>
        <time>2017-06-26T09:36:36Z</time>
      </trkpt>
      <trkpt lat="45.93646" lon="4.77715">
        <ele>170</ele>
        <time>2017-06-26T09:36:37Z</time>
      </trkpt>
      <trkpt lat="45.93641" lon="4.77706">
        <ele>170</ele>
        <time>2017-06-26T09:36:38Z</time>
      </trkpt>
      <trkpt lat="45.93636" lon="4.77697">
        <ele>169</ele>
        <time>2017-06-26T09:36:39Z</time>
      </trkpt>
      <trkpt lat="45.93631" lon="4.77688">
        <ele>169</ele>
        <time>2017-06-26T09:36:40Z</time>
      </trkpt>
      <trkpt lat="45.93626" lon="4.77679">
        <ele>169</ele>
        <time>2017-06-26T09:36:41Z</time>
      </trkpt>
      <trkpt lat="45.93622" lon="4.7767">
        <ele>169</ele>
        <time>2017-06-26T09:36:42Z</time>
      </trkpt>
      <trkpt lat="45.93618" lon="4.7766">
        <ele>169</ele>
        <time>2017-06-26T09:36:43Z</time>
      </trkpt>
      <trkpt lat="45.93614" lon="4.77651">
        <ele>169</ele>
        <time>2017-06-26T09:36:44Z</time>
      </trkpt>
      <trkpt lat="45.9361" lon="4.77641">
        <ele>169</ele>
        <time>2017-06-26T09:36:45Z</time>
      </trkpt>
      <trkpt lat="45.93607" lon="4.77632">
        <ele>169</ele>
        <time>2017-06-26T09:36:46Z</time>
      </trkpt>
      <trkpt lat="45.93604" lon="4.77622">
        <ele>170</ele>
        <time>2017-06-26T09:36:47Z</time>
      </trkpt>
      <trkpt lat="45.93601" lon="4.77613">
        <ele>170</ele>
        <time>2017-06-26T09:36:48Z</time>
      </trkpt>
      <trkpt lat="45.93598" lon="4.77605">
        <ele>170</ele>
        <time>2017-06-26T09:36:49Z</time>
      </trkpt>
      <trkpt lat="45.93595" lon="4.77596">
        <ele>170</ele>
        <time>2017-06-26T09:36:50Z</time>
      </trkpt>
      <trkpt lat="45.93592" lon="4.77588">
        <ele>170</ele>
        <time>2017-06-26T09:36:51Z</time>
      </trkpt>
      <trkpt lat="45.93589" lon="4.7758">
        <ele>170</ele>
        <time>2017-06-26T09:36:52Z</time>
      </trkpt>
      <trkpt lat="45.93587" lon="4.77572">
        <ele>170</ele>
        <time>2017-06-26T09:36:53Z</time>
      </trkpt>
      <trkpt lat="45.93584" lon="4.77564">
        <ele>170</ele>
        <time>2017-06-26T09:36:54Z</time>
      </trkpt>
      <trkpt lat="45.93582" lon="4.77556">
        <ele>169</ele>
        <time>2017-06-26T09:36:55Z</time>
      </trkpt>
      <trkpt lat="45.9358" lon="4.77548">
        <ele>169</ele>
        <time>2017-06-26T09:36:56Z</time>
      </trkpt>
      <trkpt lat="45.93578" lon="4.77539">
        <ele>169</ele>
        <time>2017-06-26T09:36:57Z</time>
      </trkpt>
      <trkpt lat="45.93576" lon="4.77531">
        <ele>169</ele>
        <time>2017-06-26T09:36:58Z</time>
      </trkpt>
      <trkpt lat="45.93574" lon="4.77522">
        <ele>169</ele>
        <time>2017-06-26T09:36:59Z</time>
      </trkpt>
      <trkpt lat="45.93572" lon="4.77513">
        <ele>169</ele>
        <time>2017-06-26T09:37:00Z</time>
      </trkpt>
      <trkpt lat="45.9357" lon="4.77505">
        <ele>169</ele>
        <time>2017-06-26T09:37:01Z</time>
      </trkpt>
      <trkpt lat="45.93567" lon="4.77496">
        <ele>169</ele>
        <time>2017-06-26T09:37:02Z</time>
      </trkpt>
      <trkpt lat="45.93564" lon="4.77487">
        <ele>169</ele>
        <time>2017-06-26T09:37:03Z</time>
      </trkpt>
      <trkpt lat="45.93562" lon="4.77478">
        <ele>169</ele>
        <time>2017-06-26T09:37:04Z</time>
      </trkpt>
      <trkpt lat="45.9356" lon="4.77469">
        <ele>169</ele>
        <time>2017-06-26T09:37:05Z</time>
      </trkpt>
      <trkpt lat="45.93558" lon="4.7746">
        <ele>169</ele>
        <time>2017-06-26T09:37:06Z</time>
      </trkpt>
      <trkpt lat="45.93556" lon="4.77451">
        <ele>169</ele>
        <time>2017-06-26T09:37:07Z</time>
      </trkpt>
      <trkpt lat="45.93554" lon="4.77442">
        <ele>169</ele>
        <time>2017-06-26T09:37:08Z</time>
      </trkpt>
      <trkpt lat="45.93552" lon="4.77433">
        <ele>169</ele>
        <time>2017-06-26T09:37:09Z</time>
      </trkpt>
      <trkpt lat="45.9355" lon="4.77424">
        <ele>170</ele>
        <time>2017-06-26T09:37:10Z</time>
      </trkpt>
      <trkpt lat="45.93548" lon="4.77415">
        <ele>170</ele>
        <time>2017-06-26T09:37:11Z</time>
      </trkpt>
      <trkpt lat="45.93546" lon="4.77406">
        <ele>170</ele>
        <time>2017-06-26T09:37:12Z</time>
      </trkpt>
      <trkpt lat="45.93544" lon="4.77398">
        <ele>170</ele>
        <time>2017-06-26T09:37:13Z</time>
      </trkpt>
      <trkpt lat="45.93542" lon="4.77389">
        <ele>170</ele>
        <time>2017-06-26T09:37:14Z</time>
      </trkpt>
      <trkpt lat="45.9354" lon="4.7738">
        <ele>170</ele>
        <time>2017-06-26T09:37:15Z</time>
      </trkpt>
      <trkpt lat="45.93539" lon="4.77372">
        <ele>170</ele>
        <time>2017-06-26T09:37:16Z</time>
      </trkpt>
      <trkpt lat="45.93537" lon="4.77363">
        <ele>170</ele>
        <time>2017-06-26T09:37:17Z</time>
      </trkpt>
      <trkpt lat="45.93535" lon="4.77355">
        <ele>170</ele>
        <time>2017-06-26T09:37:18Z</time>
      </trkpt>
      <trkpt lat="45.93534" lon="4.77347">
        <ele>170</ele>
        <time>2017-06-26T09:37:19Z</time>
      </trkpt>
      <trkpt lat="45.93533" lon="4.77339">
        <ele>170</ele>
        <time>2017-06-26T09:37:20Z</time>
      </trkpt>
      <trkpt lat="45.93531" lon="4.77332">
        <ele>170</ele>
        <time>2017-06-26T09:37:21Z</time>
      </trkpt>
      <trkpt lat="45.93529" lon="4.77324">
        <ele>170</ele>
        <time>2017-06-26T09:37:22Z</time>
      </trkpt>
      <trkpt lat="45.93527" lon="4.77317">
        <ele>170</ele>
        <time>2017-06-26T09:37:23Z</time>
      </trkpt>
      <trkpt lat="45.93525" lon="4.77309">
        <ele>170</ele>
        <time>2017-06-26T09:37:24Z</time>
      </trkpt>
      <trkpt lat="45.93524" lon="4.77301">
        <ele>170</ele>
        <time>2017-06-26T09:37:25Z</time>
      </trkpt>
      <trkpt lat="45.93522" lon="4.77293">
        <ele>170</ele>
        <time>2017-06-26T09:37:26Z</time>
      </trkpt>
      <trkpt lat="45.93521" lon="4.77286">
        <ele>170</ele>
        <time>2017-06-26T09:37:27Z</time>
      </trkpt>
      <trkpt lat="45.9352" lon="4.77279">
        <ele>170</ele>
        <time>2017-06-26T09:37:28Z</time>
      </trkpt>
      <trkpt lat="45.93518" lon="4.77272">
        <ele>170</ele>
        <time>2017-06-26T09:37:29Z</time>
      </trkpt>
      <trkpt lat="45.93517" lon="4.77265">
        <ele>170</ele>
        <time>2017-06-26T09:37:30Z</time>
      </trkpt>
      <trkpt lat="45.93516" lon="4.77259">
        <ele>170</ele>
        <time>2017-06-26T09:37:31Z</time>
      </trkpt>
      <trkpt lat="45.93514" lon="4.77252">
        <ele>170</ele>
        <time>2017-06-26T09:37:32Z</time>
      </trkpt>
      <trkpt lat="45.93513" lon="4.77245">
        <ele>169</ele>
        <time>2017-06-26T09:37:33Z</time>
      </trkpt>
      <trkpt lat="45.93512" lon="4.77238">
        <ele>169</ele>
        <time>2017-06-26T09:37:34Z</time>
      </trkpt>
      <trkpt lat="45.9351" lon="4.77231">
        <ele>169</ele>
        <time>2017-06-26T09:37:35Z</time>
      </trkpt>
      <trkpt lat="45.93508" lon="4.77224">
        <ele>169</ele>
        <time>2017-06-26T09:37:36Z</time>
      </trkpt>
      <trkpt lat="45.93506" lon="4.77216">
        <ele>169</ele>
        <time>2017-06-26T09:37:37Z</time>
      </trkpt>
      <trkpt lat="45.93505" lon="4.77209">
        <ele>169</ele>
        <time>2017-06-26T09:37:38Z</time>
      </trkpt>
      <trkpt lat="45.93503" lon="4.77201">
        <ele>169</ele>
        <time>2017-06-26T09:37:39Z</time>
      </trkpt>
      <trkpt lat="45.93501" lon="4.77193">
        <ele>169</ele>
        <time>2017-06-26T09:37:40Z</time>
      </trkpt>
      <trkpt lat="45.935" lon="4.77185">
        <ele>169</ele>
        <time>2017-06-26T09:37:41Z</time>
      </trkpt>
      <trkpt lat="45.93498" lon="4.77178">
        <ele>169</ele>
        <time>2017-06-26T09:37:42Z</time>
      </trkpt>
      <trkpt lat="45.93497" lon="4.7717">
        <ele>169</ele>
        <time>2017-06-26T09:37:43Z</time>
      </trkpt>
      <trkpt lat="45.93495" lon="4.77162">
        <ele>169</ele>
        <time>2017-06-26T09:37:44Z</time>
      </trkpt>
      <trkpt lat="45.93494" lon="4.77155">
        <ele>169</ele>
        <time>2017-06-26T09:37:45Z</time>
      </trkpt>
      <trkpt lat="45.93492" lon="4.77147">
        <ele>169</ele>
        <time>2017-06-26T09:37:46Z</time>
      </trkpt>
      <trkpt lat="45.93491" lon="4.77141">
        <ele>169</ele>
        <time>2017-06-26T09:37:47Z</time>
      </trkpt>
      <trkpt lat="45.9349" lon="4.77134">
        <ele>169</ele>
        <time>2017-06-26T09:37:48Z</time>
      </trkpt>
      <trkpt lat="45.93488" lon="4.77127">
        <ele>169</ele>
        <time>2017-06-26T09:37:49Z</time>
      </trkpt>
      <trkpt lat="45.93487" lon="4.7712">
        <ele>169</ele>
        <time>2017-06-26T09:37:50Z</time>
      </trkpt>
      <trkpt lat="45.93485" lon="4.77112">
        <ele>169</ele>
        <time>2017-06-26T09:37:51Z</time>
      </trkpt>
      <trkpt lat="45.93484" lon="4.77103">
        <ele>169</ele>
        <time>2017-06-26T09:37:52Z</time>
      </trkpt>
      <trkpt lat="45.93482" lon="4.77095">
        <ele>169</ele>
        <time>2017-06-26T09:37:53Z</time>
      </trkpt>
      <trkpt lat="45.9348" lon="4.77086">
        <ele>169</ele>
        <time>2017-06-26T09:37:54Z</time>
      </trkpt>
      <trkpt lat="45.93479" lon="4.77078">
        <ele>170</ele>
        <time>2017-06-26T09:37:55Z</time>
      </trkpt>
      <trkpt lat="45.93478" lon="4.7707">
        <ele>170</ele>
        <time>2017-06-26T09:37:56Z</time>
      </trkpt>
      <trkpt lat="45.93476" lon="4.77063">
        <ele>170</ele>
        <time>2017-06-26T09:37:57Z</time>
      </trkpt>
      <trkpt lat="45.93475" lon="4.77055">
        <ele>170</ele>
        <time>2017-06-26T09:37:58Z</time>
      </trkpt>
      <trkpt lat="45.93474" lon="4.77048">
        <ele>170</ele>
        <time>2017-06-26T09:37:59Z</time>
      </trkpt>
      <trkpt lat="45.93473" lon="4.77041">
        <ele>170</ele>
        <time>2017-06-26T09:38:00Z</time>
      </trkpt>
      <trkpt lat="45.93472" lon="4.77034">
        <ele>170</ele>
        <time>2017-06-26T09:38:01Z</time>
      </trkpt>
      <trkpt lat="45.9347" lon="4.77027">
        <ele>170</ele>
        <time>2017-06-26T09:38:02Z</time>
      </trkpt>
      <trkpt lat="45.93469" lon="4.77021">
        <ele>170</ele>
        <time>2017-06-26T09:38:03Z</time>
      </trkpt>
      <trkpt lat="45.93468" lon="4.77014">
        <ele>170</ele>
        <time>2017-06-26T09:38:04Z</time>
      </trkpt>
      <trkpt lat="45.93466" lon="4.77008">
        <ele>170</ele>
        <time>2017-06-26T09:38:05Z</time>
      </trkpt>
      <trkpt lat="45.93465" lon="4.77001">
        <ele>170</ele>
        <time>2017-06-26T09:38:06Z</time>
      </trkpt>
      <trkpt lat="45.93463" lon="4.76994">
        <ele>170</ele>
        <time>2017-06-26T09:38:07Z</time>
      </trkpt>
      <trkpt lat="45.93462" lon="4.76987">
        <ele>170</ele>
        <time>2017-06-26T09:38:08Z</time>
      </trkpt>
      <trkpt lat="45.93461" lon="4.7698">
        <ele>170</ele>
        <time>2017-06-26T09:38:09Z</time>
      </trkpt>
      <trkpt lat="45.93459" lon="4.76972">
        <ele>170</ele>
        <time>2017-06-26T09:38:10Z</time>
      </trkpt>
      <trkpt lat="45.93458" lon="4.76965">
        <ele>170</ele>
        <time>2017-06-26T09:38:11Z</time>
      </trkpt>
      <trkpt lat="45.93457" lon="4.76958">
        <ele>170</ele>
        <time>2017-06-26T09:38:12Z</time>
      </trkpt>
      <trkpt lat="45.93455" lon="4.7695">
        <ele>170</ele>
        <time>2017-06-26T09:38:13Z</time>
      </trkpt>
      <trkpt lat="45.93454" lon="4.76943">
        <ele>170</ele>
        <time>2017-06-26T09:38:14Z</time>
      </trkpt>
      <trkpt lat="45.93453" lon="4.76935">
        <ele>170</ele>
        <time>2017-06-26T09:38:15Z</time>
      </trkpt>
      <trkpt lat="45.93451" lon="4.76927">
        <ele>170</ele>
        <time>2017-06-26T09:38:16Z</time>
      </trkpt>
      <trkpt lat="45.93449" lon="4.7692">
        <ele>170</ele>
        <time>2017-06-26T09:38:17Z</time>
      </trkpt>
      <trkpt lat="45.93448" lon="4.76912">
        <ele>170</ele>
        <time>2017-06-26T09:38:18Z</time>
      </trkpt>
      <trkpt lat="45.93446" lon="4.76904">
        <ele>170</ele>
        <time>2017-06-26T09:38:19Z</time>
      </trkpt>
      <trkpt lat="45.93444" lon="4.76897">
        <ele>170</ele>
        <time>2017-06-26T09:38:20Z</time>
      </trkpt>
      <trkpt lat="45.93442" lon="4.7689">
        <ele>170</ele>
        <time>2017-06-26T09:38:21Z</time>
      </trkpt>
      <trkpt lat="45.9344" lon="4.76883">
        <ele>170</ele>
        <time>2017-06-26T09:38:22Z</time>
      </trkpt>
      <trkpt lat="45.93437" lon="4.76877">
        <ele>171</ele>
        <time>2017-06-26T09:38:23Z</time>
      </trkpt>
      <trkpt lat="45.93435" lon="4.76871">
        <ele>171</ele>
        <time>2017-06-26T09:38:24Z</time>
      </trkpt>
      <trkpt lat="45.93433" lon="4.76865">
        <ele>171</ele>
        <time>2017-06-26T09:38:25Z</time>
      </trkpt>
      <trkpt lat="45.93431" lon="4.76859">
        <ele>171</ele>
        <time>2017-06-26T09:38:26Z</time>
      </trkpt>
      <trkpt lat="45.93428" lon="4.76854">
        <ele>171</ele>
        <time>2017-06-26T09:38:27Z</time>
      </trkpt>
      <trkpt lat="45.93426" lon="4.76848">
        <ele>171</ele>
        <time>2017-06-26T09:38:28Z</time>
      </trkpt>
      <trkpt lat="45.93423" lon="4.76843">
        <ele>171</ele>
        <time>2017-06-26T09:38:29Z</time>
      </trkpt>
      <trkpt lat="45.9342" lon="4.76837">
        <ele>172</ele>
        <time>2017-06-26T09:38:30Z</time>
      </trkpt>
      <trkpt lat="45.93416" lon="4.7683">
        <ele>172</ele>
        <time>2017-06-26T09:38:31Z</time>
      </trkpt>
      <trkpt lat="45.93413" lon="4.76823">
        <ele>172</ele>
        <time>2017-06-26T09:38:32Z</time>
      </trkpt>
      <trkpt lat="45.93409" lon="4.76817">
        <ele>172</ele>
        <time>2017-06-26T09:38:33Z</time>
      </trkpt>
      <trkpt lat="45.93405" lon="4.7681">
        <ele>172</ele>
        <time>2017-06-26T09:38:34Z</time>
      </trkpt>
      <trkpt lat="45.93401" lon="4.76804">
        <ele>172</ele>
        <time>2017-06-26T09:38:35Z</time>
      </trkpt>
      <trkpt lat="45.93397" lon="4.76799">
        <ele>172</ele>
        <time>2017-06-26T09:38:36Z</time>
      </trkpt>
      <trkpt lat="45.93393" lon="4.76794">
        <ele>172</ele>
        <time>2017-06-26T09:38:37Z</time>
      </trkpt>
      <trkpt lat="45.93389" lon="4.76789">
        <ele>172</ele>
        <time>2017-06-26T09:38:38Z</time>
      </trkpt>
      <trkpt lat="45.93385" lon="4.76784">
        <ele>172</ele>
        <time>2017-06-26T09:38:39Z</time>
      </trkpt>
      <trkpt lat="45.9338" lon="4.76779">
        <ele>172</ele>
        <time>2017-06-26T09:38:40Z</time>
      </trkpt>
      <trkpt lat="45.93376" lon="4.76775">
        <ele>172</ele>
        <time>2017-06-26T09:38:41Z</time>
      </trkpt>
      <trkpt lat="45.93372" lon="4.76771">
        <ele>172</ele>
        <time>2017-06-26T09:38:42Z</time>
      </trkpt>
      <trkpt lat="45.93368" lon="4.76767">
        <ele>172</ele>
        <time>2017-06-26T09:38:43Z</time>
      </trkpt>
      <trkpt lat="45.93364" lon="4.76763">
        <ele>172</ele>
        <time>2017-06-26T09:38:44Z</time>
      </trkpt>
      <trkpt lat="45.93359" lon="4.76758">
        <ele>172</ele>
        <time>2017-06-26T09:38:45Z</time>
      </trkpt>
      <trkpt lat="45.93354" lon="4.76754">
        <ele>172</ele>
        <time>2017-06-26T09:38:46Z</time>
      </trkpt>
      <trkpt lat="45.9335" lon="4.76749">
        <ele>172</ele>
        <time>2017-06-26T09:38:47Z</time>
      </trkpt>
      <trkpt lat="45.93345" lon="4.76744">
        <ele>172</ele>
        <time>2017-06-26T09:38:48Z</time>
      </trkpt>
      <trkpt lat="45.9334" lon="4.7674">
        <ele>172</ele>
        <time>2017-06-26T09:38:49Z</time>
      </trkpt>
      <trkpt lat="45.93336" lon="4.76735">
        <ele>172</ele>
        <time>2017-06-26T09:38:50Z</time>
      </trkpt>
      <trkpt lat="45.93332" lon="4.76731">
        <ele>172</ele>
        <time>2017-06-26T09:38:51Z</time>
      </trkpt>
      <trkpt lat="45.93328" lon="4.76727">
        <ele>172</ele>
        <time>2017-06-26T09:38:52Z</time>
      </trkpt>
      <trkpt lat="45.93324" lon="4.76722">
        <ele>172</ele>
        <time>2017-06-26T09:38:53Z</time>
      </trkpt>
      <trkpt lat="45.9332" lon="4.76719">
        <ele>172</ele>
        <time>2017-06-26T09:38:54Z</time>
      </trkpt>
      <trkpt lat="45.93316" lon="4.76715">
        <ele>172</ele>
        <time>2017-06-26T09:38:55Z</time>
      </trkpt>
      <trkpt lat="45.93312" lon="4.7671">
        <ele>172</ele>
        <time>2017-06-26T09:38:56Z</time>
      </trkpt>
      <trkpt lat="45.93308" lon="4.76706">
        <ele>172</ele>
        <time>2017-06-26T09:38:57Z</time>
      </trkpt>
      <trkpt lat="45.93303" lon="4.76702">
        <ele>172</ele>
        <time>2017-06-26T09:38:58Z</time>
      </trkpt>
      <trkpt lat="45.93299" lon="4.76698">
        <ele>172</ele>
        <time>2017-06-26T09:38:59Z</time>
      </trkpt>
      <trkpt lat="45.93295" lon="4.76694">
        <ele>172</ele>
        <time>2017-06-26T09:39:00Z</time>
      </trkpt>
      <trkpt lat="45.9329" lon="4.76689">
        <ele>172</ele>
        <time>2017-06-26T09:39:01Z</time>
      </trkpt>
      <trkpt lat="45.93286" lon="4.76685">
        <ele>172</ele>
        <time>2017-06-26T09:39:02Z</time>
      </trkpt>
      <trkpt lat="45.93281" lon="4.76681">
        <ele>172</ele>
        <time>2017-06-26T09:39:03Z</time>
      </trkpt>
      <trkpt lat="45.93277" lon="4.76677">
        <ele>172</ele>
        <time>2017-06-26T09:39:04Z</time>
      </trkpt>
      <trkpt lat="45.93273" lon="4.76672">
        <ele>172</ele>
        <time>2017-06-26T09:39:05Z</time>
      </trkpt>
      <trkpt lat="45.93269" lon="4.76668">
        <ele>172</ele>
        <time>2017-06-26T09:39:06Z</time>
      </trkpt>
      <trkpt lat="45.93263" lon="4.7666">
        <ele>171</ele>
        <time>2017-06-26T09:39:08Z</time>
      </trkpt>
      <trkpt lat="45.93258" lon="4.76656">
        <ele>171</ele>
        <time>2017-06-26T09:39:09Z</time>
      </trkpt>
      <trkpt lat="45.93254" lon="4.76652">
        <ele>171</ele>
        <time>2017-06-26T09:39:10Z</time>
      </trkpt>
      <trkpt lat="45.93251" lon="4.76648">
        <ele>171</ele>
        <time>2017-06-26T09:39:11Z</time>
      </trkpt>
      <trkpt lat="45.93246" lon="4.76644">
        <ele>171</ele>
        <time>2017-06-26T09:39:12Z</time>
      </trkpt>
      <trkpt lat="45.93242" lon="4.7664">
        <ele>171</ele>
        <time>2017-06-26T09:39:13Z</time>
      </trkpt>
      <trkpt lat="45.93237" lon="4.76636">
        <ele>171</ele>
        <time>2017-06-26T09:39:14Z</time>
      </trkpt>
      <trkpt lat="45.93232" lon="4.76631">
        <ele>170</ele>
        <time>2017-06-26T09:39:15Z</time>
      </trkpt>
      <trkpt lat="45.93228" lon="4.76626">
        <ele>170</ele>
        <time>2017-06-26T09:39:16Z</time>
      </trkpt>
      <trkpt lat="45.93223" lon="4.76621">
        <ele>170</ele>
        <time>2017-06-26T09:39:17Z</time>
      </trkpt>
      <trkpt lat="45.93218" lon="4.76616">
        <ele>170</ele>
        <time>2017-06-26T09:39:18Z</time>
      </trkpt>
      <trkpt lat="45.93213" lon="4.76611">
        <ele>170</ele>
        <time>2017-06-26T09:39:19Z</time>
      </trkpt>
      <trkpt lat="45.93208" lon="4.76606">
        <ele>170</ele>
        <time>2017-06-26T09:39:20Z</time>
      </trkpt>
      <trkpt lat="45.93203" lon="4.76601">
        <ele>170</ele>
        <time>2017-06-26T09:39:21Z</time>
      </trkpt>
      <trkpt lat="45.93198" lon="4.76596">
        <ele>170</ele>
        <time>2017-06-26T09:39:22Z</time>
      </trkpt>
      <trkpt lat="45.93193" lon="4.76592">
        <ele>170</ele>
        <time>2017-06-26T09:39:23Z</time>
      </trkpt>
      <trkpt lat="45.93188" lon="4.76587">
        <ele>171</ele>
        <time>2017-06-26T09:39:24Z</time>
      </trkpt>
      <trkpt lat="45.93183" lon="4.76583">
        <ele>170</ele>
        <time>2017-06-26T09:39:25Z</time>
      </trkpt>
      <trkpt lat="45.93179" lon="4.76578">
        <ele>170</ele>
        <time>2017-06-26T09:39:26Z</time>
      </trkpt>
      <trkpt lat="45.93175" lon="4.76574">
        <ele>170</ele>
        <time>2017-06-26T09:39:27Z</time>
      </trkpt>
      <trkpt lat="45.9317" lon="4.76569">
        <ele>170</ele>
        <time>2017-06-26T09:39:28Z</time>
      </trkpt>
      <trkpt lat="45.93166" lon="4.76564">
        <ele>170</ele>
        <time>2017-06-26T09:39:29Z</time>
      </trkpt>
      <trkpt lat="45.93161" lon="4.7656">
        <ele>170</ele>
        <time>2017-06-26T09:39:30Z</time>
      </trkpt>
      <trkpt lat="45.93156" lon="4.76553">
        <ele>170</ele>
        <time>2017-06-26T09:39:31Z</time>
      </trkpt>
      <trkpt lat="45.93151" lon="4.76547">
        <ele>170</ele>
        <time>2017-06-26T09:39:32Z</time>
      </trkpt>
      <trkpt lat="45.93146" lon="4.76543">
        <ele>170</ele>
        <time>2017-06-26T09:39:33Z</time>
      </trkpt>
      <trkpt lat="45.93141" lon="4.76538">
        <ele>170</ele>
        <time>2017-06-26T09:39:34Z</time>
      </trkpt>
      <trkpt lat="45.93137" lon="4.76533">
        <ele>170</ele>
        <time>2017-06-26T09:39:35Z</time>
      </trkpt>
      <trkpt lat="45.93132" lon="4.76529">
        <ele>170</ele>
        <time>2017-06-26T09:39:36Z</time>
      </trkpt>
      <trkpt lat="45.93127" lon="4.76524">
        <ele>170</ele>
        <time>2017-06-26T09:39:37Z</time>
      </trkpt>
      <trkpt lat="45.93122" lon="4.76519">
        <ele>170</ele>
        <time>2017-06-26T09:39:38Z</time>
      </trkpt>
      <trkpt lat="45.93117" lon="4.76515">
        <ele>170</ele>
        <time>2017-06-26T09:39:39Z</time>
      </trkpt>
      <trkpt lat="45.93113" lon="4.76511">
        <ele>170</ele>
        <time>2017-06-26T09:39:40Z</time>
      </trkpt>
      <trkpt lat="45.93108" lon="4.76507">
        <ele>170</ele>
        <time>2017-06-26T09:39:41Z</time>
      </trkpt>
      <trkpt lat="45.93104" lon="4.76503">
        <ele>170</ele>
        <time>2017-06-26T09:39:42Z</time>
      </trkpt>
      <trkpt lat="45.931" lon="4.76499">
        <ele>170</ele>
        <time>2017-06-26T09:39:43Z</time>
      </trkpt>
      <trkpt lat="45.93096" lon="4.76495">
        <ele>170</ele>
        <time>2017-06-26T09:39:44Z</time>
      </trkpt>
      <trkpt lat="45.93092" lon="4.76491">
        <ele>170</ele>
        <time>2017-06-26T09:39:45Z</time>
      </trkpt>
      <trkpt lat="45.93088" lon="4.76487">
        <ele>170</ele>
        <time>2017-06-26T09:39:46Z</time>
      </trkpt>
      <trkpt lat="45.93084" lon="4.76483">
        <ele>170</ele>
        <time>2017-06-26T09:39:47Z</time>
      </trkpt>
      <trkpt lat="45.93079" lon="4.76479">
        <ele>169</ele>
        <time>2017-06-26T09:39:48Z</time>
      </trkpt>
      <trkpt lat="45.93075" lon="4.76474">
        <ele>169</ele>
        <time>2017-06-26T09:39:49Z</time>
      </trkpt>
      <trkpt lat="45.93069" lon="4.7647">
        <ele>169</ele>
        <time>2017-06-26T09:39:50Z</time>
      </trkpt>
      <trkpt lat="45.93064" lon="4.76465">
        <ele>169</ele>
        <time>2017-06-26T09:39:51Z</time>
      </trkpt>
      <trkpt lat="45.93059" lon="4.7646">
        <ele>169</ele>
        <time>2017-06-26T09:39:52Z</time>
      </trkpt>
      <trkpt lat="45.93054" lon="4.76455">
        <ele>169</ele>
        <time>2017-06-26T09:39:53Z</time>
      </trkpt>
      <trkpt lat="45.9305" lon="4.7645">
        <ele>169</ele>
        <time>2017-06-26T09:39:54Z</time>
      </trkpt>
      <trkpt lat="45.93046" lon="4.76446">
        <ele>169</ele>
        <time>2017-06-26T09:39:55Z</time>
      </trkpt>
      <trkpt lat="45.93041" lon="4.76441">
        <ele>169</ele>
        <time>2017-06-26T09:39:56Z</time>
      </trkpt>
      <trkpt lat="45.93037" lon="4.76437">
        <ele>169</ele>
        <time>2017-06-26T09:39:57Z</time>
      </trkpt>
      <trkpt lat="45.93033" lon="4.76433">
        <ele>169</ele>
        <time>2017-06-26T09:39:58Z</time>
      </trkpt>
      <trkpt lat="45.93028" lon="4.76429">
        <ele>169</ele>
        <time>2017-06-26T09:39:59Z</time>
      </trkpt>
      <trkpt lat="45.93024" lon="4.76426">
        <ele>169</ele>
        <time>2017-06-26T09:40:00Z</time>
      </trkpt>
      <trkpt lat="45.93021" lon="4.76421">
        <ele>169</ele>
        <time>2017-06-26T09:40:01Z</time>
      </trkpt>
      <trkpt lat="45.93017" lon="4.76418">
        <ele>169</ele>
        <time>2017-06-26T09:40:02Z</time>
      </trkpt>
      <trkpt lat="45.93013" lon="4.76414">
        <ele>169</ele>
        <time>2017-06-26T09:40:03Z</time>
      </trkpt>
      <trkpt lat="45.93009" lon="4.76411">
        <ele>169</ele>
        <time>2017-06-26T09:40:04Z</time>
      </trkpt>
      <trkpt lat="45.93005" lon="4.76407">
        <ele>169</ele>
        <time>2017-06-26T09:40:05Z</time>
      </trkpt>
      <trkpt lat="45.93001" lon="4.76403">
        <ele>169</ele>
        <time>2017-06-26T09:40:06Z</time>
      </trkpt>
      <trkpt lat="45.92997" lon="4.76399">
        <ele>169</ele>
        <time>2017-06-26T09:40:07Z</time>
      </trkpt>
      <trkpt lat="45.92992" lon="4.76395">
        <ele>169</ele>
        <time>2017-06-26T09:40:08Z</time>
      </trkpt>
      <trkpt lat="45.92988" lon="4.76389">
        <ele>169</ele>
        <time>2017-06-26T09:40:09Z</time>
      </trkpt>
      <trkpt lat="45.92984" lon="4.76385">
        <ele>169</ele>
        <time>2017-06-26T09:40:10Z</time>
      </trkpt>
      <trkpt lat="45.9298" lon="4.76381">
        <ele>169</ele>
        <time>2017-06-26T09:40:11Z</time>
      </trkpt>
      <trkpt lat="45.92976" lon="4.76376">
        <ele>169</ele>
        <time>2017-06-26T09:40:12Z</time>
      </trkpt>
      <trkpt lat="45.92971" lon="4.76372">
        <ele>169</ele>
        <time>2017-06-26T09:40:13Z</time>
      </trkpt>
      <trkpt lat="45.92966" lon="4.76367">
        <ele>169</ele>
        <time>2017-06-26T09:40:14Z</time>
      </trkpt>
      <trkpt lat="45.9296" lon="4.76361">
        <ele>169</ele>
        <time>2017-06-26T09:40:15Z</time>
      </trkpt>
      <trkpt lat="45.92954" lon="4.76356">
        <ele>169</ele>
        <time>2017-06-26T09:40:16Z</time>
      </trkpt>
      <trkpt lat="45.92949" lon="4.7635">
        <ele>169</ele>
        <time>2017-06-26T09:40:17Z</time>
      </trkpt>
      <trkpt lat="45.92943" lon="4.76345">
        <ele>169</ele>
        <time>2017-06-26T09:40:18Z</time>
      </trkpt>
      <trkpt lat="45.92939" lon="4.76339">
        <ele>169</ele>
        <time>2017-06-26T09:40:19Z</time>
      </trkpt>
      <trkpt lat="45.92934" lon="4.76334">
        <ele>169</ele>
        <time>2017-06-26T09:40:20Z</time>
      </trkpt>
      <trkpt lat="45.92929" lon="4.76329">
        <ele>169</ele>
        <time>2017-06-26T09:40:21Z</time>
      </trkpt>
      <trkpt lat="45.92925" lon="4.76325">
        <ele>169</ele>
        <time>2017-06-26T09:40:22Z</time>
      </trkpt>
      <trkpt lat="45.92921" lon="4.7632">
        <ele>169</ele>
        <time>2017-06-26T09:40:23Z</time>
      </trkpt>
      <trkpt lat="45.92916" lon="4.76316">
        <ele>169</ele>
        <time>2017-06-26T09:40:24Z</time>
      </trkpt>
      <trkpt lat="45.92912" lon="4.76312">
        <ele>169</ele>
        <time>2017-06-26T09:40:25Z</time>
      </trkpt>
      <trkpt lat="45.92908" lon="4.76309">
        <ele>169</ele>
        <time>2017-06-26T09:40:26Z</time>
      </trkpt>
      <trkpt lat="45.92903" lon="4.76305">
        <ele>169</ele>
        <time>2017-06-26T09:40:27Z</time>
      </trkpt>
      <trkpt lat="45.92899" lon="4.76302">
        <ele>169</ele>
        <time>2017-06-26T09:40:28Z</time>
      </trkpt>
      <trkpt lat="45.92895" lon="4.76298">
        <ele>169</ele>
        <time>2017-06-26T09:40:29Z</time>
      </trkpt>
      <trkpt lat="45.92891" lon="4.76294">
        <ele>169</ele>
        <time>2017-06-26T09:40:30Z</time>
      </trkpt>
      <trkpt lat="45.92887" lon="4.76289">
        <ele>169</ele>
        <time>2017-06-26T09:40:31Z</time>
      </trkpt>
      <trkpt lat="45.92883" lon="4.76285">
        <ele>169</ele>
        <time>2017-06-26T09:40:32Z</time>
      </trkpt>
      <trkpt lat="45.92879" lon="4.7628">
        <ele>169</ele>
        <time>2017-06-26T09:40:33Z</time>
      </trkpt>
      <trkpt lat="45.92874" lon="4.76275">
        <ele>169</ele>
        <time>2017-06-26T09:40:34Z</time>
      </trkpt>
      <trkpt lat="45.9287" lon="4.76271">
        <ele>169</ele>
        <time>2017-06-26T09:40:35Z</time>
      </trkpt>
      <trkpt lat="45.92866" lon="4.76266">
        <ele>169</ele>
        <time>2017-06-26T09:40:36Z</time>
      </trkpt>
      <trkpt lat="45.92861" lon="4.76262">
        <ele>169</ele>
        <time>2017-06-26T09:40:37Z</time>
      </trkpt>
      <trkpt lat="45.92857" lon="4.76258">
        <ele>169</ele>
        <time>2017-06-26T09:40:38Z</time>
      </trkpt>
      <trkpt lat="45.92852" lon="4.76254">
        <ele>169</ele>
        <time>2017-06-26T09:40:39Z</time>
      </trkpt>
      <trkpt lat="45.92846" lon="4.76248">
        <ele>169</ele>
        <time>2017-06-26T09:40:40Z</time>
      </trkpt>
      <trkpt lat="45.92841" lon="4.76243">
        <ele>169</ele>
        <time>2017-06-26T09:40:41Z</time>
      </trkpt>
      <trkpt lat="45.92836" lon="4.76238">
        <ele>169</ele>
        <time>2017-06-26T09:40:42Z</time>
      </trkpt>
      <trkpt lat="45.9283" lon="4.76233">
        <ele>168</ele>
        <time>2017-06-26T09:40:43Z</time>
      </trkpt>
      <trkpt lat="45.92826" lon="4.76227">
        <ele>168</ele>
        <time>2017-06-26T09:40:44Z</time>
      </trkpt>
      <trkpt lat="45.92821" lon="4.76222">
        <ele>168</ele>
        <time>2017-06-26T09:40:45Z</time>
      </trkpt>
      <trkpt lat="45.92817" lon="4.76217">
        <ele>168</ele>
        <time>2017-06-26T09:40:46Z</time>
      </trkpt>
      <trkpt lat="45.92811" lon="4.76213">
        <ele>168</ele>
        <time>2017-06-26T09:40:47Z</time>
      </trkpt>
      <trkpt lat="45.92807" lon="4.76209">
        <ele>168</ele>
        <time>2017-06-26T09:40:48Z</time>
      </trkpt>
      <trkpt lat="45.92802" lon="4.76205">
        <ele>168</ele>
        <time>2017-06-26T09:40:49Z</time>
      </trkpt>
      <trkpt lat="45.92797" lon="4.76201">
        <ele>168</ele>
        <time>2017-06-26T09:40:50Z</time>
      </trkpt>
      <trkpt lat="45.92793" lon="4.76197">
        <ele>168</ele>
        <time>2017-06-26T09:40:51Z</time>
      </trkpt>
      <trkpt lat="45.92789" lon="4.76192">
        <ele>168</ele>
        <time>2017-06-26T09:40:52Z</time>
      </trkpt>
      <trkpt lat="45.92785" lon="4.76188">
        <ele>168</ele>
        <time>2017-06-26T09:40:53Z</time>
      </trkpt>
      <trkpt lat="45.92782" lon="4.76184">
        <ele>168</ele>
        <time>2017-06-26T09:40:54Z</time>
      </trkpt>
      <trkpt lat="45.92778" lon="4.7618">
        <ele>167</ele>
        <time>2017-06-26T09:40:55Z</time>
      </trkpt>
      <trkpt lat="45.9277" lon="4.76173">
        <ele>167</ele>
        <time>2017-06-26T09:40:57Z</time>
      </trkpt>
      <trkpt lat="45.92766" lon="4.76169">
        <ele>167</ele>
        <time>2017-06-26T09:40:58Z</time>
      </trkpt>
      <trkpt lat="45.92762" lon="4.76165">
        <ele>167</ele>
        <time>2017-06-26T09:40:59Z</time>
      </trkpt>
      <trkpt lat="45.92757" lon="4.76162">
        <ele>167</ele>
        <time>2017-06-26T09:41:00Z</time>
      </trkpt>
      <trkpt lat="45.92753" lon="4.76158">
        <ele>167</ele>
        <time>2017-06-26T09:41:01Z</time>
      </trkpt>
      <trkpt lat="45.92749" lon="4.76154">
        <ele>168</ele>
        <time>2017-06-26T09:41:02Z</time>
      </trkpt>
      <trkpt lat="45.92745" lon="4.76151">
        <ele>168</ele>
        <time>2017-06-26T09:41:03Z</time>
      </trkpt>
      <trkpt lat="45.9274" lon="4.76147">
        <ele>168</ele>
        <time>2017-06-26T09:41:04Z</time>
      </trkpt>
      <trkpt lat="45.92733" lon="4.76141">
        <ele>168</ele>
        <time>2017-06-26T09:41:06Z</time>
      </trkpt>
      <trkpt lat="45.92729" lon="4.76138">
        <ele>168</ele>
        <time>2017-06-26T09:41:07Z</time>
      </trkpt>
      <trkpt lat="45.92725" lon="4.76135">
        <ele>168</ele>
        <time>2017-06-26T09:41:08Z</time>
      </trkpt>
      <trkpt lat="45.9272" lon="4.76132">
        <ele>168</ele>
        <time>2017-06-26T09:41:09Z</time>
      </trkpt>
      <trkpt lat="45.92716" lon="4.76128">
        <ele>168</ele>
        <time>2017-06-26T09:41:10Z</time>
      </trkpt>
      <trkpt lat="45.9271" lon="4.76126">
        <ele>168</ele>
        <time>2017-06-26T09:41:11Z</time>
      </trkpt>
      <trkpt lat="45.92706" lon="4.76122">
        <ele>169</ele>
        <time>2017-06-26T09:41:12Z</time>
      </trkpt>
      <trkpt lat="45.92701" lon="4.76119">
        <ele>169</ele>
        <time>2017-06-26T09:41:13Z</time>
      </trkpt>
      <trkpt lat="45.92696" lon="4.76115">
        <ele>169</ele>
        <time>2017-06-26T09:41:14Z</time>
      </trkpt>
      <trkpt lat="45.92691" lon="4.76111">
        <ele>169</ele>
        <time>2017-06-26T09:41:15Z</time>
      </trkpt>
      <trkpt lat="45.92686" lon="4.76107">
        <ele>169</ele>
        <time>2017-06-26T09:41:16Z</time>
      </trkpt>
      <trkpt lat="45.92681" lon="4.76103">
        <ele>169</ele>
        <time>2017-06-26T09:41:17Z</time>
      </trkpt>
      <trkpt lat="45.92676" lon="4.76099">
        <ele>169</ele>
        <time>2017-06-26T09:41:18Z</time>
      </trkpt>
      <trkpt lat="45.92671" lon="4.76095">
        <ele>169</ele>
        <time>2017-06-26T09:41:19Z</time>
      </trkpt>
      <trkpt lat="45.92666" lon="4.76091">
        <ele>170</ele>
        <time>2017-06-26T09:41:20Z</time>
      </trkpt>
      <trkpt lat="45.92661" lon="4.76086">
        <ele>170</ele>
        <time>2017-06-26T09:41:21Z</time>
      </trkpt>
      <trkpt lat="45.92656" lon="4.76082">
        <ele>170</ele>
        <time>2017-06-26T09:41:22Z</time>
      </trkpt>
      <trkpt lat="45.92651" lon="4.76079">
        <ele>170</ele>
        <time>2017-06-26T09:41:23Z</time>
      </trkpt>
      <trkpt lat="45.92646" lon="4.76075">
        <ele>170</ele>
        <time>2017-06-26T09:41:24Z</time>
      </trkpt>
      <trkpt lat="45.9264" lon="4.76071">
        <ele>170</ele>
        <time>2017-06-26T09:41:25Z</time>
      </trkpt>
      <trkpt lat="45.92635" lon="4.76068">
        <ele>170</ele>
        <time>2017-06-26T09:41:26Z</time>
      </trkpt>
      <trkpt lat="45.9263" lon="4.76064">
        <ele>170</ele>
        <time>2017-06-26T09:41:27Z</time>
      </trkpt>
      <trkpt lat="45.92625" lon="4.7606">
        <ele>170</ele>
        <time>2017-06-26T09:41:28Z</time>
      </trkpt>
      <trkpt lat="45.92621" lon="4.76057">
        <ele>171</ele>
        <time>2017-06-26T09:41:29Z</time>
      </trkpt>
      <trkpt lat="45.92616" lon="4.76053">
        <ele>171</ele>
        <time>2017-06-26T09:41:30Z</time>
      </trkpt>
      <trkpt lat="45.92611" lon="4.7605">
        <ele>171</ele>
        <time>2017-06-26T09:41:31Z</time>
      </trkpt>
      <trkpt lat="45.92607" lon="4.76047">
        <ele>171</ele>
        <time>2017-06-26T09:41:32Z</time>
      </trkpt>
      <trkpt lat="45.92602" lon="4.76043">
        <ele>171</ele>
        <time>2017-06-26T09:41:33Z</time>
      </trkpt>
      <trkpt lat="45.92598" lon="4.7604">
        <ele>171</ele>
        <time>2017-06-26T09:41:34Z</time>
      </trkpt>
      <trkpt lat="45.92593" lon="4.76037">
        <ele>171</ele>
        <time>2017-06-26T09:41:35Z</time>
      </trkpt>
      <trkpt lat="45.92589" lon="4.76034">
        <ele>171</ele>
        <time>2017-06-26T09:41:36Z</time>
      </trkpt>
      <trkpt lat="45.92584" lon="4.76031">
        <ele>171</ele>
        <time>2017-06-26T09:41:37Z</time>
      </trkpt>
      <trkpt lat="45.9258" lon="4.76027">
        <ele>172</ele>
        <time>2017-06-26T09:41:38Z</time>
      </trkpt>
      <trkpt lat="45.92575" lon="4.76024">
        <ele>172</ele>
        <time>2017-06-26T09:41:39Z</time>
      </trkpt>
      <trkpt lat="45.92571" lon="4.76021">
        <ele>172</ele>
        <time>2017-06-26T09:41:40Z</time>
      </trkpt>
      <trkpt lat="45.92567" lon="4.76019">
        <ele>172</ele>
        <time>2017-06-26T09:41:41Z</time>
      </trkpt>
      <trkpt lat="45.92559" lon="4.76014">
        <ele>172</ele>
        <time>2017-06-26T09:41:43Z</time>
      </trkpt>
      <trkpt lat="45.92556" lon="4.76011">
        <ele>172</ele>
        <time>2017-06-26T09:41:44Z</time>
      </trkpt>
      <trkpt lat="45.9255" lon="4.76005">
        <ele>172</ele>
        <time>2017-06-26T09:41:46Z</time>
      </trkpt>
      <trkpt lat="45.92547" lon="4.76003">
        <ele>172</ele>
        <time>2017-06-26T09:41:47Z</time>
      </trkpt>
      <trkpt lat="45.9254" lon="4.75998">
        <ele>172</ele>
        <time>2017-06-26T09:41:49Z</time>
      </trkpt>
      <trkpt lat="45.92537" lon="4.75996">
        <ele>172</ele>
        <time>2017-06-26T09:41:50Z</time>
      </trkpt>
      <trkpt lat="45.9253" lon="4.75991">
        <ele>172</ele>
        <time>2017-06-26T09:41:52Z</time>
      </trkpt>
      <trkpt lat="45.92527" lon="4.75988">
        <ele>172</ele>
        <time>2017-06-26T09:41:53Z</time>
      </trkpt>
      <trkpt lat="45.9252" lon="4.75984">
        <ele>172</ele>
        <time>2017-06-26T09:41:55Z</time>
      </trkpt>
      <trkpt lat="45.92516" lon="4.75982">
        <ele>172</ele>
        <time>2017-06-26T09:41:56Z</time>
      </trkpt>
      <trkpt lat="45.9251" lon="4.75977">
        <ele>172</ele>
        <time>2017-06-26T09:41:58Z</time>
      </trkpt>
      <trkpt lat="45.92507" lon="4.75975">
        <ele>172</ele>
        <time>2017-06-26T09:41:59Z</time>
      </trkpt>
      <trkpt lat="45.92499" lon="4.7597">
        <ele>172</ele>
        <time>2017-06-26T09:42:01Z</time>
      </trkpt>
      <trkpt lat="45.92496" lon="4.75968">
        <ele>172</ele>
        <time>2017-06-26T09:42:02Z</time>
      </trkpt>
      <trkpt lat="45.92488" lon="4.75962">
        <ele>172</ele>
        <time>2017-06-26T09:42:04Z</time>
      </trkpt>
      <trkpt lat="45.92483" lon="4.75959">
        <ele>172</ele>
        <time>2017-06-26T09:42:05Z</time>
      </trkpt>
      <trkpt lat="45.92479" lon="4.75956">
        <ele>172</ele>
        <time>2017-06-26T09:42:06Z</time>
      </trkpt>
      <trkpt lat="45.92474" lon="4.75953">
        <ele>172</ele>
        <time>2017-06-26T09:42:07Z</time>
      </trkpt>
      <trkpt lat="45.9247" lon="4.75951">
        <ele>172</ele>
        <time>2017-06-26T09:42:08Z</time>
      </trkpt>
      <trkpt lat="45.92465" lon="4.75948">
        <ele>172</ele>
        <time>2017-06-26T09:42:09Z</time>
      </trkpt>
      <trkpt lat="45.92461" lon="4.75945">
        <ele>172</ele>
        <time>2017-06-26T09:42:10Z</time>
      </trkpt>
      <trkpt lat="45.92456" lon="4.75942">
        <ele>172</ele>
        <time>2017-06-26T09:42:11Z</time>
      </trkpt>
      <trkpt lat="45.92451" lon="4.75939">
        <ele>172</ele>
        <time>2017-06-26T09:42:12Z</time>
      </trkpt>
      <trkpt lat="45.92446" lon="4.75935">
        <ele>172</ele>
        <time>2017-06-26T09:42:13Z</time>
      </trkpt>
      <trkpt lat="45.92441" lon="4.75932">
        <ele>172</ele>
        <time>2017-06-26T09:42:14Z</time>
      </trkpt>
      <trkpt lat="45.92436" lon="4.75929">
        <ele>172</ele>
        <time>2017-06-26T09:42:15Z</time>
      </trkpt>
      <trkpt lat="45.92431" lon="4.75925">
        <ele>172</ele>
        <time>2017-06-26T09:42:16Z</time>
      </trkpt>
      <trkpt lat="45.92425" lon="4.75921">
        <ele>172</ele>
        <time>2017-06-26T09:42:17Z</time>
      </trkpt>
      <trkpt lat="45.92419" lon="4.75917">
        <ele>172</ele>
        <time>2017-06-26T09:42:18Z</time>
      </trkpt>
      <trkpt lat="45.92413" lon="4.75913">
        <ele>172</ele>
        <time>2017-06-26T09:42:19Z</time>
      </trkpt>
      <trkpt lat="45.92408" lon="4.75909">
        <ele>172</ele>
        <time>2017-06-26T09:42:20Z</time>
      </trkpt>
      <trkpt lat="45.92402" lon="4.75905">
        <ele>173</ele>
        <time>2017-06-26T09:42:21Z</time>
      </trkpt>
      <trkpt lat="45.92397" lon="4.75901">
        <ele>173</ele>
        <time>2017-06-26T09:42:22Z</time>
      </trkpt>
      <trkpt lat="45.92391" lon="4.75897">
        <ele>173</ele>
        <time>2017-06-26T09:42:23Z</time>
      </trkpt>
      <trkpt lat="45.92386" lon="4.75893">
        <ele>173</ele>
        <time>2017-06-26T09:42:24Z</time>
      </trkpt>
      <trkpt lat="45.9238" lon="4.75889">
        <ele>173</ele>
        <time>2017-06-26T09:42:25Z</time>
      </trkpt>
      <trkpt lat="45.92376" lon="4.75886">
        <ele>173</ele>
        <time>2017-06-26T09:42:26Z</time>
      </trkpt>
      <trkpt lat="45.92371" lon="4.75882">
        <ele>173</ele>
        <time>2017-06-26T09:42:27Z</time>
      </trkpt>
      <trkpt lat="45.92366" lon="4.75878">
        <ele>173</ele>
        <time>2017-06-26T09:42:28Z</time>
      </trkpt>
      <trkpt lat="45.92362" lon="4.75875">
        <ele>173</ele>
        <time>2017-06-26T09:42:29Z</time>
      </trkpt>
      <trkpt lat="45.92357" lon="4.75873">
        <ele>173</ele>
        <time>2017-06-26T09:42:30Z</time>
      </trkpt>
      <trkpt lat="45.92353" lon="4.7587">
        <ele>173</ele>
        <time>2017-06-26T09:42:31Z</time>
      </trkpt>
      <trkpt lat="45.92348" lon="4.75867">
        <ele>173</ele>
        <time>2017-06-26T09:42:32Z</time>
      </trkpt>
      <trkpt lat="45.92344" lon="4.75865">
        <ele>173</ele>
        <time>2017-06-26T09:42:33Z</time>
      </trkpt>
      <trkpt lat="45.92339" lon="4.75862">
        <ele>173</ele>
        <time>2017-06-26T09:42:34Z</time>
      </trkpt>
      <trkpt lat="45.92334" lon="4.75859">
        <ele>173</ele>
        <time>2017-06-26T09:42:35Z</time>
      </trkpt>
      <trkpt lat="45.92329" lon="4.75856">
        <ele>174</ele>
        <time>2017-06-26T09:42:36Z</time>
      </trkpt>
      <trkpt lat="45.92323" lon="4.75853">
        <ele>174</ele>
        <time>2017-06-26T09:42:37Z</time>
      </trkpt>
      <trkpt lat="45.92318" lon="4.7585">
        <ele>174</ele>
        <time>2017-06-26T09:42:38Z</time>
      </trkpt>
      <trkpt lat="45.92313" lon="4.75848">
        <ele>173</ele>
        <time>2017-06-26T09:42:39Z</time>
      </trkpt>
      <trkpt lat="45.92308" lon="4.75846">
        <ele>173</ele>
        <time>2017-06-26T09:42:40Z</time>
      </trkpt>
      <trkpt lat="45.92304" lon="4.75843">
        <ele>173</ele>
        <time>2017-06-26T09:42:41Z</time>
      </trkpt>
      <trkpt lat="45.923" lon="4.7584">
        <ele>173</ele>
        <time>2017-06-26T09:42:42Z</time>
      </trkpt>
      <trkpt lat="45.92295" lon="4.75837">
        <ele>173</ele>
        <time>2017-06-26T09:42:43Z</time>
      </trkpt>
      <trkpt lat="45.92291" lon="4.75834">
        <ele>173</ele>
        <time>2017-06-26T09:42:44Z</time>
      </trkpt>
      <trkpt lat="45.92286" lon="4.7583">
        <ele>174</ele>
        <time>2017-06-26T09:42:45Z</time>
      </trkpt>
      <trkpt lat="45.92282" lon="4.75827">
        <ele>174</ele>
        <time>2017-06-26T09:42:46Z</time>
      </trkpt>
      <trkpt lat="45.92277" lon="4.75823">
        <ele>174</ele>
        <time>2017-06-26T09:42:47Z</time>
      </trkpt>
      <trkpt lat="45.92273" lon="4.75819">
        <ele>174</ele>
        <time>2017-06-26T09:42:48Z</time>
      </trkpt>
      <trkpt lat="45.9227" lon="4.75814">
        <ele>174</ele>
        <time>2017-06-26T09:42:49Z</time>
      </trkpt>
      <trkpt lat="45.92267" lon="4.75809">
        <ele>174</ele>
        <time>2017-06-26T09:42:50Z</time>
      </trkpt>
      <trkpt lat="45.92264" lon="4.75804">
        <ele>174</ele>
        <time>2017-06-26T09:42:51Z</time>
      </trkpt>
      <trkpt lat="45.9226" lon="4.75792">
        <ele>174</ele>
        <time>2017-06-26T09:42:53Z</time>
      </trkpt>
      <trkpt lat="45.92258" lon="4.75786">
        <ele>174</ele>
        <time>2017-06-26T09:42:54Z</time>
      </trkpt>
      <trkpt lat="45.92257" lon="4.7578">
        <ele>174</ele>
        <time>2017-06-26T09:42:55Z</time>
      </trkpt>
      <trkpt lat="45.92256" lon="4.75773">
        <ele>174</ele>
        <time>2017-06-26T09:42:56Z</time>
      </trkpt>
      <trkpt lat="45.92255" lon="4.75767">
        <ele>174</ele>
        <time>2017-06-26T09:42:57Z</time>
      </trkpt>
      <trkpt lat="45.92253" lon="4.75761">
        <ele>174</ele>
        <time>2017-06-26T09:42:58Z</time>
      </trkpt>
      <trkpt lat="45.92251" lon="4.75749">
        <ele>174</ele>
        <time>2017-06-26T09:43:00Z</time>
      </trkpt>
      <trkpt lat="45.9225" lon="4.75743">
        <ele>174</ele>
        <time>2017-06-26T09:43:01Z</time>
      </trkpt>
      <trkpt lat="45.92247" lon="4.75731">
        <ele>174</ele>
        <time>2017-06-26T09:43:03Z</time>
      </trkpt>
      <trkpt lat="45.92246" lon="4.75725">
        <ele>174</ele>
        <time>2017-06-26T09:43:04Z</time>
      </trkpt>
      <trkpt lat="45.92243" lon="4.75719">
        <ele>174</ele>
        <time>2017-06-26T09:43:05Z</time>
      </trkpt>
      <trkpt lat="45.9224" lon="4.75713">
        <ele>174</ele>
        <time>2017-06-26T09:43:06Z</time>
      </trkpt>
      <trkpt lat="45.92237" lon="4.75707">
        <ele>174</ele>
        <time>2017-06-26T09:43:07Z</time>
      </trkpt>
      <trkpt lat="45.92232" lon="4.75701">
        <ele>174</ele>
        <time>2017-06-26T09:43:08Z</time>
      </trkpt>
      <trkpt lat="45.92228" lon="4.75696">
        <ele>174</ele>
        <time>2017-06-26T09:43:09Z</time>
      </trkpt>
      <trkpt lat="45.92223" lon="4.75691">
        <ele>174</ele>
        <time>2017-06-26T09:43:10Z</time>
      </trkpt>
      <trkpt lat="45.92219" lon="4.75686">
        <ele>174</ele>
        <time>2017-06-26T09:43:11Z</time>
      </trkpt>
      <trkpt lat="45.92215" lon="4.75682">
        <ele>174</ele>
        <time>2017-06-26T09:43:12Z</time>
      </trkpt>
      <trkpt lat="45.9221" lon="4.75677">
        <ele>174</ele>
        <time>2017-06-26T09:43:13Z</time>
      </trkpt>
      <trkpt lat="45.92206" lon="4.75672">
        <ele>174</ele>
        <time>2017-06-26T09:43:14Z</time>
      </trkpt>
      <trkpt lat="45.92201" lon="4.75668">
        <ele>174</ele>
        <time>2017-06-26T09:43:15Z</time>
      </trkpt>
      <trkpt lat="45.92197" lon="4.75663">
        <ele>174</ele>
        <time>2017-06-26T09:43:16Z</time>
      </trkpt>
      <trkpt lat="45.92193" lon="4.75659">
        <ele>174</ele>
        <time>2017-06-26T09:43:17Z</time>
      </trkpt>
      <trkpt lat="45.92189" lon="4.75654">
        <ele>174</ele>
        <time>2017-06-26T09:43:18Z</time>
      </trkpt>
      <trkpt lat="45.92185" lon="4.7565">
        <ele>174</ele>
        <time>2017-06-26T09:43:19Z</time>
      </trkpt>
      <trkpt lat="45.9218" lon="4.75645">
        <ele>174</ele>
        <time>2017-06-26T09:43:20Z</time>
      </trkpt>
      <trkpt lat="45.92176" lon="4.75641">
        <ele>174</ele>
        <time>2017-06-26T09:43:21Z</time>
      </trkpt>
      <trkpt lat="45.92172" lon="4.75636">
        <ele>174</ele>
        <time>2017-06-26T09:43:22Z</time>
      </trkpt>
      <trkpt lat="45.92167" lon="4.75631">
        <ele>174</ele>
        <time>2017-06-26T09:43:23Z</time>
      </trkpt>
      <trkpt lat="45.92163" lon="4.75627">
        <ele>174</ele>
        <time>2017-06-26T09:43:24Z</time>
      </trkpt>
      <trkpt lat="45.92158" lon="4.75622">
        <ele>174</ele>
        <time>2017-06-26T09:43:25Z</time>
      </trkpt>
      <trkpt lat="45.92154" lon="4.75618">
        <ele>174</ele>
        <time>2017-06-26T09:43:26Z</time>
      </trkpt>
      <trkpt lat="45.9215" lon="4.75613">
        <ele>174</ele>
        <time>2017-06-26T09:43:27Z</time>
      </trkpt>
      <trkpt lat="45.92145" lon="4.7561">
        <ele>174</ele>
        <time>2017-06-26T09:43:28Z</time>
      </trkpt>
      <trkpt lat="45.92141" lon="4.75606">
        <ele>174</ele>
        <time>2017-06-26T09:43:29Z</time>
      </trkpt>
      <trkpt lat="45.92138" lon="4.75603">
        <ele>174</ele>
        <time>2017-06-26T09:43:30Z</time>
      </trkpt>
      <trkpt lat="45.9213" lon="4.75596">
        <ele>174</ele>
        <time>2017-06-26T09:43:32Z</time>
      </trkpt>
      <trkpt lat="45.92127" lon="4.75592">
        <ele>174</ele>
        <time>2017-06-26T09:43:33Z</time>
      </trkpt>
      <trkpt lat="45.92121" lon="4.75585">
        <ele>174</ele>
        <time>2017-06-26T09:43:35Z</time>
      </trkpt>
      <trkpt lat="45.92119" lon="4.75581">
        <ele>174</ele>
        <time>2017-06-26T09:43:36Z</time>
      </trkpt>
      <trkpt lat="45.92116" lon="4.75573">
        <ele>174</ele>
        <time>2017-06-26T09:43:38Z</time>
      </trkpt>
      <trkpt lat="45.92115" lon="4.75568">
        <ele>174</ele>
        <time>2017-06-26T09:43:39Z</time>
      </trkpt>
      <trkpt lat="45.92118" lon="4.75557">
        <ele>174</ele>
        <time>2017-06-26T09:43:41Z</time>
      </trkpt>
      <trkpt lat="45.92121" lon="4.75552">
        <ele>174</ele>
        <time>2017-06-26T09:43:42Z</time>
      </trkpt>
      <trkpt lat="45.92124" lon="4.75547">
        <ele>174</ele>
        <time>2017-06-26T09:43:43Z</time>
      </trkpt>
      <trkpt lat="45.92127" lon="4.75541">
        <ele>174</ele>
        <time>2017-06-26T09:43:44Z</time>
      </trkpt>
      <trkpt lat="45.9213" lon="4.75536">
        <ele>174</ele>
        <time>2017-06-26T09:43:45Z</time>
      </trkpt>
      <trkpt lat="45.92133" lon="4.7553">
        <ele>174</ele>
        <time>2017-06-26T09:43:46Z</time>
      </trkpt>
      <trkpt lat="45.92137" lon="4.75525">
        <ele>174</ele>
        <time>2017-06-26T09:43:47Z</time>
      </trkpt>
      <trkpt lat="45.9214" lon="4.75519">
        <ele>174</ele>
        <time>2017-06-26T09:43:48Z</time>
      </trkpt>
      <trkpt lat="45.92143" lon="4.75513">
        <ele>174</ele>
        <time>2017-06-26T09:43:49Z</time>
      </trkpt>
      <trkpt lat="45.92146" lon="4.75506">
        <ele>175</ele>
        <time>2017-06-26T09:43:50Z</time>
      </trkpt>
      <trkpt lat="45.92149" lon="4.755">
        <ele>175</ele>
        <time>2017-06-26T09:43:51Z</time>
      </trkpt>
      <trkpt lat="45.92151" lon="4.75493">
        <ele>175</ele>
        <time>2017-06-26T09:43:52Z</time>
      </trkpt>
      <trkpt lat="45.92154" lon="4.75487">
        <ele>176</ele>
        <time>2017-06-26T09:43:53Z</time>
      </trkpt>
      <trkpt lat="45.92156" lon="4.75481">
        <ele>176</ele>
        <time>2017-06-26T09:43:54Z</time>
      </trkpt>
      <trkpt lat="45.92158" lon="4.75475">
        <ele>176</ele>
        <time>2017-06-26T09:43:55Z</time>
      </trkpt>
      <trkpt lat="45.9216" lon="4.75469">
        <ele>176</ele>
        <time>2017-06-26T09:43:56Z</time>
      </trkpt>
      <trkpt lat="45.92163" lon="4.75462">
        <ele>176</ele>
        <time>2017-06-26T09:43:57Z</time>
      </trkpt>
      <trkpt lat="45.92166" lon="4.75455">
        <ele>176</ele>
        <time>2017-06-26T09:43:58Z</time>
      </trkpt>
      <trkpt lat="45.92169" lon="4.75448">
        <ele>176</ele>
        <time>2017-06-26T09:43:59Z</time>
      </trkpt>
      <trkpt lat="45.92172" lon="4.7544">
        <ele>177</ele>
        <time>2017-06-26T09:44:00Z</time>
      </trkpt>
      <trkpt lat="45.92175" lon="4.75434">
        <ele>177</ele>
        <time>2017-06-26T09:44:01Z</time>
      </trkpt>
      <trkpt lat="45.92178" lon="4.75427">
        <ele>177</ele>
        <time>2017-06-26T09:44:02Z</time>
      </trkpt>
      <trkpt lat="45.92181" lon="4.7542">
        <ele>177</ele>
        <time>2017-06-26T09:44:03Z</time>
      </trkpt>
      <trkpt lat="45.92183" lon="4.75414">
        <ele>177</ele>
        <time>2017-06-26T09:44:04Z</time>
      </trkpt>
      <trkpt lat="45.92185" lon="4.75408">
        <ele>177</ele>
        <time>2017-06-26T09:44:05Z</time>
      </trkpt>
      <trkpt lat="45.92188" lon="4.75402">
        <ele>177</ele>
        <time>2017-06-26T09:44:06Z</time>
      </trkpt>
      <trkpt lat="45.9219" lon="4.75396">
        <ele>177</ele>
        <time>2017-06-26T09:44:07Z</time>
      </trkpt>
      <trkpt lat="45.92192" lon="4.7539">
        <ele>177</ele>
        <time>2017-06-26T09:44:08Z</time>
      </trkpt>
      <trkpt lat="45.92194" lon="4.75384">
        <ele>177</ele>
        <time>2017-06-26T09:44:09Z</time>
      </trkpt>
      <trkpt lat="45.92197" lon="4.75378">
        <ele>177</ele>
        <time>2017-06-26T09:44:10Z</time>
      </trkpt>
      <trkpt lat="45.92199" lon="4.75372">
        <ele>177</ele>
        <time>2017-06-26T09:44:11Z</time>
      </trkpt>
      <trkpt lat="45.92202" lon="4.75366">
        <ele>177</ele>
        <time>2017-06-26T09:44:12Z</time>
      </trkpt>
      <trkpt lat="45.92204" lon="4.7536">
        <ele>177</ele>
        <time>2017-06-26T09:44:13Z</time>
      </trkpt>
      <trkpt lat="45.92206" lon="4.75353">
        <ele>177</ele>
        <time>2017-06-26T09:44:14Z</time>
      </trkpt>
      <trkpt lat="45.92208" lon="4.75346">
        <ele>177</ele>
        <time>2017-06-26T09:44:15Z</time>
      </trkpt>
      <trkpt lat="45.92209" lon="4.75339">
        <ele>177</ele>
        <time>2017-06-26T09:44:16Z</time>
      </trkpt>
      <trkpt lat="45.9221" lon="4.75332">
        <ele>176</ele>
        <time>2017-06-26T09:44:17Z</time>
      </trkpt>
      <trkpt lat="45.9221" lon="4.75324">
        <ele>176</ele>
        <time>2017-06-26T09:44:18Z</time>
      </trkpt>
      <trkpt lat="45.92211" lon="4.75315">
        <ele>176</ele>
        <time>2017-06-26T09:44:19Z</time>
      </trkpt>
      <trkpt lat="45.92211" lon="4.75306">
        <ele>176</ele>
        <time>2017-06-26T09:44:20Z</time>
      </trkpt>
      <trkpt lat="45.92212" lon="4.75297">
        <ele>176</ele>
        <time>2017-06-26T09:44:21Z</time>
      </trkpt>
      <trkpt lat="45.92212" lon="4.75288">
        <ele>176</ele>
        <time>2017-06-26T09:44:22Z</time>
      </trkpt>
      <trkpt lat="45.92212" lon="4.7528">
        <ele>176</ele>
        <time>2017-06-26T09:44:23Z</time>
      </trkpt>
      <trkpt lat="45.92211" lon="4.75271">
        <ele>176</ele>
        <time>2017-06-26T09:44:24Z</time>
      </trkpt>
      <trkpt lat="45.92211" lon="4.75262">
        <ele>176</ele>
        <time>2017-06-26T09:44:25Z</time>
      </trkpt>
      <trkpt lat="45.92212" lon="4.75253">
        <ele>175</ele>
        <time>2017-06-26T09:44:26Z</time>
      </trkpt>
      <trkpt lat="45.92212" lon="4.75244">
        <ele>175</ele>
        <time>2017-06-26T09:44:27Z</time>
      </trkpt>
      <trkpt lat="45.92212" lon="4.75234">
        <ele>175</ele>
        <time>2017-06-26T09:44:28Z</time>
      </trkpt>
      <trkpt lat="45.92213" lon="4.75225">
        <ele>175</ele>
        <time>2017-06-26T09:44:29Z</time>
      </trkpt>
      <trkpt lat="45.92214" lon="4.75215">
        <ele>175</ele>
        <time>2017-06-26T09:44:30Z</time>
      </trkpt>
      <trkpt lat="45.92216" lon="4.75205">
        <ele>175</ele>
        <time>2017-06-26T09:44:31Z</time>
      </trkpt>
      <trkpt lat="45.92219" lon="4.75195">
        <ele>175</ele>
        <time>2017-06-26T09:44:32Z</time>
      </trkpt>
      <trkpt lat="45.92221" lon="4.75186">
        <ele>175</ele>
        <time>2017-06-26T09:44:33Z</time>
      </trkpt>
      <trkpt lat="45.92224" lon="4.75177">
        <ele>175</ele>
        <time>2017-06-26T09:44:34Z</time>
      </trkpt>
      <trkpt lat="45.92227" lon="4.75168">
        <ele>175</ele>
        <time>2017-06-26T09:44:35Z</time>
      </trkpt>
      <trkpt lat="45.9223" lon="4.7516">
        <ele>174</ele>
        <time>2017-06-26T09:44:36Z</time>
      </trkpt>
      <trkpt lat="45.92234" lon="4.75152">
        <ele>174</ele>
        <time>2017-06-26T09:44:37Z</time>
      </trkpt>
      <trkpt lat="45.92237" lon="4.75145">
        <ele>174</ele>
        <time>2017-06-26T09:44:38Z</time>
      </trkpt>
      <trkpt lat="45.92242" lon="4.75138">
        <ele>174</ele>
        <time>2017-06-26T09:44:39Z</time>
      </trkpt>
      <trkpt lat="45.92246" lon="4.75131">
        <ele>174</ele>
        <time>2017-06-26T09:44:40Z</time>
      </trkpt>
      <trkpt lat="45.92251" lon="4.75125">
        <ele>174</ele>
        <time>2017-06-26T09:44:41Z</time>
      </trkpt>
      <trkpt lat="45.92256" lon="4.75119">
        <ele>174</ele>
        <time>2017-06-26T09:44:42Z</time>
      </trkpt>
      <trkpt lat="45.92261" lon="4.75114">
        <ele>174</ele>
        <time>2017-06-26T09:44:43Z</time>
      </trkpt>
      <trkpt lat="45.92267" lon="4.75109">
        <ele>174</ele>
        <time>2017-06-26T09:44:44Z</time>
      </trkpt>
      <trkpt lat="45.92272" lon="4.75103">
        <ele>173</ele>
        <time>2017-06-26T09:44:45Z</time>
      </trkpt>
      <trkpt lat="45.92276" lon="4.75098">
        <ele>173</ele>
        <time>2017-06-26T09:44:46Z</time>
      </trkpt>
      <trkpt lat="45.9228" lon="4.75093">
        <ele>173</ele>
        <time>2017-06-26T09:44:47Z</time>
      </trkpt>
      <trkpt lat="45.92284" lon="4.75088">
        <ele>173</ele>
        <time>2017-06-26T09:44:48Z</time>
      </trkpt>
      <trkpt lat="45.92289" lon="4.75083">
        <ele>172</ele>
        <time>2017-06-26T09:44:49Z</time>
      </trkpt>
      <trkpt lat="45.92293" lon="4.75078">
        <ele>172</ele>
        <time>2017-06-26T09:44:50Z</time>
      </trkpt>
      <trkpt lat="45.92297" lon="4.75073">
        <ele>172</ele>
        <time>2017-06-26T09:44:51Z</time>
      </trkpt>
      <trkpt lat="45.92302" lon="4.75068">
        <ele>172</ele>
        <time>2017-06-26T09:44:52Z</time>
      </trkpt>
      <trkpt lat="45.92307" lon="4.75062">
        <ele>172</ele>
        <time>2017-06-26T09:44:53Z</time>
      </trkpt>
      <trkpt lat="45.92311" lon="4.75057">
        <ele>172</ele>
        <time>2017-06-26T09:44:54Z</time>
      </trkpt>
      <trkpt lat="45.92316" lon="4.7505">
        <ele>172</ele>
        <time>2017-06-26T09:44:55Z</time>
      </trkpt>
      <trkpt lat="45.92321" lon="4.75043">
        <ele>172</ele>
        <time>2017-06-26T09:44:56Z</time>
      </trkpt>
      <trkpt lat="45.92325" lon="4.75035">
        <ele>171</ele>
        <time>2017-06-26T09:44:57Z</time>
      </trkpt>
      <trkpt lat="45.92329" lon="4.75028">
        <ele>171</ele>
        <time>2017-06-26T09:44:58Z</time>
      </trkpt>
      <trkpt lat="45.92333" lon="4.75021">
        <ele>171</ele>
        <time>2017-06-26T09:44:59Z</time>
      </trkpt>
      <trkpt lat="45.92336" lon="4.75014">
        <ele>170</ele>
        <time>2017-06-26T09:45:00Z</time>
      </trkpt>
      <trkpt lat="45.9234" lon="4.75007">
        <ele>170</ele>
        <time>2017-06-26T09:45:01Z</time>
      </trkpt>
      <trkpt lat="45.92343" lon="4.74999">
        <ele>170</ele>
        <time>2017-06-26T09:45:02Z</time>
      </trkpt>
      <trkpt lat="45.92346" lon="4.74992">
        <ele>170</ele>
        <time>2017-06-26T09:45:03Z</time>
      </trkpt>
      <trkpt lat="45.92349" lon="4.74985">
        <ele>170</ele>
        <time>2017-06-26T09:45:04Z</time>
      </trkpt>
      <trkpt lat="45.92352" lon="4.74978">
        <ele>170</ele>
        <time>2017-06-26T09:45:05Z</time>
      </trkpt>
      <trkpt lat="45.92355" lon="4.74971">
        <ele>170</ele>
        <time>2017-06-26T09:45:06Z</time>
      </trkpt>
      <trkpt lat="45.92357" lon="4.74964">
        <ele>170</ele>
        <time>2017-06-26T09:45:07Z</time>
      </trkpt>
      <trkpt lat="45.9236" lon="4.74957">
        <ele>170</ele>
        <time>2017-06-26T09:45:08Z</time>
      </trkpt>
      <trkpt lat="45.92362" lon="4.7495">
        <ele>170</ele>
        <time>2017-06-26T09:45:09Z</time>
      </trkpt>
      <trkpt lat="45.92365" lon="4.74942">
        <ele>170</ele>
        <time>2017-06-26T09:45:10Z</time>
      </trkpt>
      <trkpt lat="45.92368" lon="4.74934">
        <ele>170</ele>
        <time>2017-06-26T09:45:11Z</time>
      </trkpt>
      <trkpt lat="45.92371" lon="4.74926">
        <ele>170</ele>
        <time>2017-06-26T09:45:12Z</time>
      </trkpt>
      <trkpt lat="45.92374" lon="4.74918">
        <ele>170</ele>
        <time>2017-06-26T09:45:13Z</time>
      </trkpt>
      <trkpt lat="45.92377" lon="4.7491">
        <ele>171</ele>
        <time>2017-06-26T09:45:14Z</time>
      </trkpt>
      <trkpt lat="45.9238" lon="4.74902">
        <ele>171</ele>
        <time>2017-06-26T09:45:15Z</time>
      </trkpt>
      <trkpt lat="45.92383" lon="4.74895">
        <ele>171</ele>
        <time>2017-06-26T09:45:16Z</time>
      </trkpt>
      <trkpt lat="45.92386" lon="4.74888">
        <ele>171</ele>
        <time>2017-06-26T09:45:17Z</time>
      </trkpt>
      <trkpt lat="45.92388" lon="4.74881">
        <ele>171</ele>
        <time>2017-06-26T09:45:18Z</time>
      </trkpt>
      <trkpt lat="45.92391" lon="4.74873">
        <ele>171</ele>
        <time>2017-06-26T09:45:19Z</time>
      </trkpt>
      <trkpt lat="45.92394" lon="4.74865">
        <ele>171</ele>
        <time>2017-06-26T09:45:20Z</time>
      </trkpt>
      <trkpt lat="45.92397" lon="4.74858">
        <ele>171</ele>
        <time>2017-06-26T09:45:21Z</time>
      </trkpt>
      <trkpt lat="45.924" lon="4.7485">
        <ele>171</ele>
        <time>2017-06-26T09:45:22Z</time>
      </trkpt>
      <trkpt lat="45.92402" lon="4.74843">
        <ele>171</ele>
        <time>2017-06-26T09:45:23Z</time>
      </trkpt>
      <trkpt lat="45.92404" lon="4.74835">
        <ele>171</ele>
        <time>2017-06-26T09:45:24Z</time>
      </trkpt>
      <trkpt lat="45.92405" lon="4.74828">
        <ele>171</ele>
        <time>2017-06-26T09:45:25Z</time>
      </trkpt>
      <trkpt lat="45.92407" lon="4.74822">
        <ele>171</ele>
        <time>2017-06-26T09:45:26Z</time>
      </trkpt>
      <trkpt lat="45.92408" lon="4.74815">
        <ele>171</ele>
        <time>2017-06-26T09:45:27Z</time>
      </trkpt>
      <trkpt lat="45.9241" lon="4.74808">
        <ele>171</ele>
        <time>2017-06-26T09:45:28Z</time>
      </trkpt>
      <trkpt lat="45.92412" lon="4.74801">
        <ele>171</ele>
        <time>2017-06-26T09:45:29Z</time>
      </trkpt>
      <trkpt lat="45.92413" lon="4.74794">
        <ele>171</ele>
        <time>2017-06-26T09:45:30Z</time>
      </trkpt>
      <trkpt lat="45.92415" lon="4.74787">
        <ele>171</ele>
        <time>2017-06-26T09:45:31Z</time>
      </trkpt>
      <trkpt lat="45.92416" lon="4.7478">
        <ele>171</ele>
        <time>2017-06-26T09:45:32Z</time>
      </trkpt>
      <trkpt lat="45.92417" lon="4.74773">
        <ele>171</ele>
        <time>2017-06-26T09:45:33Z</time>
      </trkpt>
      <trkpt lat="45.92419" lon="4.74767">
        <ele>171</ele>
        <time>2017-06-26T09:45:34Z</time>
      </trkpt>
      <trkpt lat="45.92421" lon="4.74759">
        <ele>171</ele>
        <time>2017-06-26T09:45:35Z</time>
      </trkpt>
      <trkpt lat="45.92423" lon="4.74752">
        <ele>172</ele>
        <time>2017-06-26T09:45:36Z</time>
      </trkpt>
      <trkpt lat="45.92424" lon="4.74745">
        <ele>172</ele>
        <time>2017-06-26T09:45:37Z</time>
      </trkpt>
      <trkpt lat="45.92427" lon="4.74737">
        <ele>171</ele>
        <time>2017-06-26T09:45:38Z</time>
      </trkpt>
      <trkpt lat="45.9243" lon="4.74729">
        <ele>171</ele>
        <time>2017-06-26T09:45:39Z</time>
      </trkpt>
      <trkpt lat="45.92433" lon="4.74721">
        <ele>171</ele>
        <time>2017-06-26T09:45:40Z</time>
      </trkpt>
      <trkpt lat="45.92436" lon="4.74714">
        <ele>171</ele>
        <time>2017-06-26T09:45:41Z</time>
      </trkpt>
      <trkpt lat="45.92439" lon="4.74707">
        <ele>171</ele>
        <time>2017-06-26T09:45:42Z</time>
      </trkpt>
      <trkpt lat="45.92442" lon="4.747">
        <ele>171</ele>
        <time>2017-06-26T09:45:43Z</time>
      </trkpt>
      <trkpt lat="45.92445" lon="4.74693">
        <ele>171</ele>
        <time>2017-06-26T09:45:44Z</time>
      </trkpt>
      <trkpt lat="45.92448" lon="4.74687">
        <ele>171</ele>
        <time>2017-06-26T09:45:45Z</time>
      </trkpt>
      <trkpt lat="45.9245" lon="4.74681">
        <ele>171</ele>
        <time>2017-06-26T09:45:46Z</time>
      </trkpt>
      <trkpt lat="45.92453" lon="4.74675">
        <ele>171</ele>
        <time>2017-06-26T09:45:47Z</time>
      </trkpt>
      <trkpt lat="45.92456" lon="4.74669">
        <ele>171</ele>
        <time>2017-06-26T09:45:48Z</time>
      </trkpt>
      <trkpt lat="45.92459" lon="4.74662">
        <ele>171</ele>
        <time>2017-06-26T09:45:49Z</time>
      </trkpt>
      <trkpt lat="45.92463" lon="4.74656">
        <ele>171</ele>
        <time>2017-06-26T09:45:50Z</time>
      </trkpt>
      <trkpt lat="45.92467" lon="4.7465">
        <ele>171</ele>
        <time>2017-06-26T09:45:51Z</time>
      </trkpt>
      <trkpt lat="45.92471" lon="4.74644">
        <ele>171</ele>
        <time>2017-06-26T09:45:52Z</time>
      </trkpt>
      <trkpt lat="45.92475" lon="4.74638">
        <ele>171</ele>
        <time>2017-06-26T09:45:53Z</time>
      </trkpt>
      <trkpt lat="45.92478" lon="4.74633">
        <ele>171</ele>
        <time>2017-06-26T09:45:54Z</time>
      </trkpt>
      <trkpt lat="45.92482" lon="4.74628">
        <ele>171</ele>
        <time>2017-06-26T09:45:55Z</time>
      </trkpt>
      <trkpt lat="45.92487" lon="4.74622">
        <ele>171</ele>
        <time>2017-06-26T09:45:56Z</time>
      </trkpt>
      <trkpt lat="45.92491" lon="4.74616">
        <ele>171</ele>
        <time>2017-06-26T09:45:57Z</time>
      </trkpt>
      <trkpt lat="45.92496" lon="4.74611">
        <ele>171</ele>
        <time>2017-06-26T09:45:58Z</time>
      </trkpt>
      <trkpt lat="45.92501" lon="4.74605">
        <ele>171</ele>
        <time>2017-06-26T09:45:59Z</time>
      </trkpt>
      <trkpt lat="45.92506" lon="4.74599">
        <ele>171</ele>
        <time>2017-06-26T09:46:00Z</time>
      </trkpt>
      <trkpt lat="45.92511" lon="4.74594">
        <ele>171</ele>
        <time>2017-06-26T09:46:01Z</time>
      </trkpt>
      <trkpt lat="45.92516" lon="4.74588">
        <ele>171</ele>
        <time>2017-06-26T09:46:02Z</time>
      </trkpt>
      <trkpt lat="45.9252" lon="4.74583">
        <ele>171</ele>
        <time>2017-06-26T09:46:03Z</time>
      </trkpt>
      <trkpt lat="45.92524" lon="4.74578">
        <ele>171</ele>
        <time>2017-06-26T09:46:04Z</time>
      </trkpt>
      <trkpt lat="45.92529" lon="4.74572">
        <ele>171</ele>
        <time>2017-06-26T09:46:05Z</time>
      </trkpt>
      <trkpt lat="45.92533" lon="4.74566">
        <ele>171</ele>
        <time>2017-06-26T09:46:06Z</time>
      </trkpt>
      <trkpt lat="45.92538" lon="4.7456">
        <ele>171</ele>
        <time>2017-06-26T09:46:07Z</time>
      </trkpt>
      <trkpt lat="45.92542" lon="4.74553">
        <ele>171</ele>
        <time>2017-06-26T09:46:08Z</time>
      </trkpt>
      <trkpt lat="45.92546" lon="4.74546">
        <ele>170</ele>
        <time>2017-06-26T09:46:09Z</time>
      </trkpt>
      <trkpt lat="45.9255" lon="4.74539">
        <ele>170</ele>
        <time>2017-06-26T09:46:10Z</time>
      </trkpt>
      <trkpt lat="45.92554" lon="4.74532">
        <ele>170</ele>
        <time>2017-06-26T09:46:11Z</time>
      </trkpt>
      <trkpt lat="45.92558" lon="4.74525">
        <ele>170</ele>
        <time>2017-06-26T09:46:12Z</time>
      </trkpt>
      <trkpt lat="45.92561" lon="4.74518">
        <ele>170</ele>
        <time>2017-06-26T09:46:13Z</time>
      </trkpt>
      <trkpt lat="45.92565" lon="4.74511">
        <ele>170</ele>
        <time>2017-06-26T09:46:14Z</time>
      </trkpt>
      <trkpt lat="45.92569" lon="4.74505">
        <ele>170</ele>
        <time>2017-06-26T09:46:15Z</time>
      </trkpt>
      <trkpt lat="45.92572" lon="4.74498">
        <ele>170</ele>
        <time>2017-06-26T09:46:16Z</time>
      </trkpt>
      <trkpt lat="45.92575" lon="4.74492">
        <ele>170</ele>
        <time>2017-06-26T09:46:17Z</time>
      </trkpt>
      <trkpt lat="45.92579" lon="4.74486">
        <ele>170</ele>
        <time>2017-06-26T09:46:18Z</time>
      </trkpt>
      <trkpt lat="45.92582" lon="4.7448">
        <ele>170</ele>
        <time>2017-06-26T09:46:19Z</time>
      </trkpt>
      <trkpt lat="45.92585" lon="4.74474">
        <ele>170</ele>
        <time>2017-06-26T09:46:20Z</time>
      </trkpt>
      <trkpt lat="45.92588" lon="4.74467">
        <ele>170</ele>
        <time>2017-06-26T09:46:21Z</time>
      </trkpt>
      <trkpt lat="45.92591" lon="4.74461">
        <ele>170</ele>
        <time>2017-06-26T09:46:22Z</time>
      </trkpt>
      <trkpt lat="45.92595" lon="4.74455">
        <ele>170</ele>
        <time>2017-06-26T09:46:23Z</time>
      </trkpt>
      <trkpt lat="45.92598" lon="4.74448">
        <ele>170</ele>
        <time>2017-06-26T09:46:24Z</time>
      </trkpt>
      <trkpt lat="45.92602" lon="4.74442">
        <ele>170</ele>
        <time>2017-06-26T09:46:25Z</time>
      </trkpt>
      <trkpt lat="45.92605" lon="4.74435">
        <ele>170</ele>
        <time>2017-06-26T09:46:26Z</time>
      </trkpt>
      <trkpt lat="45.92609" lon="4.74429">
        <ele>170</ele>
        <time>2017-06-26T09:46:27Z</time>
      </trkpt>
      <trkpt lat="45.92612" lon="4.74423">
        <ele>170</ele>
        <time>2017-06-26T09:46:28Z</time>
      </trkpt>
      <trkpt lat="45.92615" lon="4.74417">
        <ele>170</ele>
        <time>2017-06-26T09:46:29Z</time>
      </trkpt>
      <trkpt lat="45.92619" lon="4.74411">
        <ele>170</ele>
        <time>2017-06-26T09:46:30Z</time>
      </trkpt>
      <trkpt lat="45.92622" lon="4.74406">
        <ele>170</ele>
        <time>2017-06-26T09:46:31Z</time>
      </trkpt>
      <trkpt lat="45.92625" lon="4.744">
        <ele>170</ele>
        <time>2017-06-26T09:46:32Z</time>
      </trkpt>
      <trkpt lat="45.92628" lon="4.74394">
        <ele>170</ele>
        <time>2017-06-26T09:46:33Z</time>
      </trkpt>
      <trkpt lat="45.92632" lon="4.74388">
        <ele>170</ele>
        <time>2017-06-26T09:46:34Z</time>
      </trkpt>
      <trkpt lat="45.92635" lon="4.74381">
        <ele>170</ele>
        <time>2017-06-26T09:46:35Z</time>
      </trkpt>
      <trkpt lat="45.92638" lon="4.74375">
        <ele>170</ele>
        <time>2017-06-26T09:46:36Z</time>
      </trkpt>
      <trkpt lat="45.92642" lon="4.7437">
        <ele>171</ele>
        <time>2017-06-26T09:46:37Z</time>
      </trkpt>
      <trkpt lat="45.92645" lon="4.74364">
        <ele>171</ele>
        <time>2017-06-26T09:46:38Z</time>
      </trkpt>
      <trkpt lat="45.92648" lon="4.74358">
        <ele>171</ele>
        <time>2017-06-26T09:46:39Z</time>
      </trkpt>
      <trkpt lat="45.92651" lon="4.74353">
        <ele>171</ele>
        <time>2017-06-26T09:46:40Z</time>
      </trkpt>
      <trkpt lat="45.92654" lon="4.74347">
        <ele>171</ele>
        <time>2017-06-26T09:46:41Z</time>
      </trkpt>
      <trkpt lat="45.92657" lon="4.74341">
        <ele>171</ele>
        <time>2017-06-26T09:46:42Z</time>
      </trkpt>
      <trkpt lat="45.92661" lon="4.74335">
        <ele>171</ele>
        <time>2017-06-26T09:46:43Z</time>
      </trkpt>
      <trkpt lat="45.92664" lon="4.74329">
        <ele>171</ele>
        <time>2017-06-26T09:46:44Z</time>
      </trkpt>
      <trkpt lat="45.92668" lon="4.74322">
        <ele>171</ele>
        <time>2017-06-26T09:46:45Z</time>
      </trkpt>
      <trkpt lat="45.92672" lon="4.74315">
        <ele>171</ele>
        <time>2017-06-26T09:46:46Z</time>
      </trkpt>
      <trkpt lat="45.92676" lon="4.74308">
        <ele>171</ele>
        <time>2017-06-26T09:46:47Z</time>
      </trkpt>
      <trkpt lat="45.9268" lon="4.74302">
        <ele>171</ele>
        <time>2017-06-26T09:46:48Z</time>
      </trkpt>
      <trkpt lat="45.92683" lon="4.74295">
        <ele>171</ele>
        <time>2017-06-26T09:46:49Z</time>
      </trkpt>
      <trkpt lat="45.92687" lon="4.74288">
        <ele>171</ele>
        <time>2017-06-26T09:46:50Z</time>
      </trkpt>
      <trkpt lat="45.9269" lon="4.74282">
        <ele>171</ele>
        <time>2017-06-26T09:46:51Z</time>
      </trkpt>
      <trkpt lat="45.92693" lon="4.74275">
        <ele>171</ele>
        <time>2017-06-26T09:46:52Z</time>
      </trkpt>
      <trkpt lat="45.92696" lon="4.74269">
        <ele>171</ele>
        <time>2017-06-26T09:46:53Z</time>
      </trkpt>
      <trkpt lat="45.92699" lon="4.74264">
        <ele>171</ele>
        <time>2017-06-26T09:46:54Z</time>
      </trkpt>
      <trkpt lat="45.92703" lon="4.74258">
        <ele>171</ele>
        <time>2017-06-26T09:46:55Z</time>
      </trkpt>
      <trkpt lat="45.92706" lon="4.74252">
        <ele>171</ele>
        <time>2017-06-26T09:46:56Z</time>
      </trkpt>
      <trkpt lat="45.9271" lon="4.74245">
        <ele>171</ele>
        <time>2017-06-26T09:46:57Z</time>
      </trkpt>
      <trkpt lat="45.92714" lon="4.74239">
        <ele>171</ele>
        <time>2017-06-26T09:46:58Z</time>
      </trkpt>
      <trkpt lat="45.92718" lon="4.74232">
        <ele>171</ele>
        <time>2017-06-26T09:46:59Z</time>
      </trkpt>
      <trkpt lat="45.92723" lon="4.74225">
        <ele>171</ele>
        <time>2017-06-26T09:47:00Z</time>
      </trkpt>
      <trkpt lat="45.92727" lon="4.74219">
        <ele>171</ele>
        <time>2017-06-26T09:47:01Z</time>
      </trkpt>
      <trkpt lat="45.92732" lon="4.74213">
        <ele>171</ele>
        <time>2017-06-26T09:47:02Z</time>
      </trkpt>
      <trkpt lat="45.92737" lon="4.74206">
        <ele>171</ele>
        <time>2017-06-26T09:47:03Z</time>
      </trkpt>
      <trkpt lat="45.92741" lon="4.742">
        <ele>171</ele>
        <time>2017-06-26T09:47:04Z</time>
      </trkpt>
      <trkpt lat="45.92746" lon="4.74194">
        <ele>171</ele>
        <time>2017-06-26T09:47:05Z</time>
      </trkpt>
      <trkpt lat="45.92751" lon="4.74188">
        <ele>172</ele>
        <time>2017-06-26T09:47:06Z</time>
      </trkpt>
      <trkpt lat="45.92755" lon="4.74183">
        <ele>172</ele>
        <time>2017-06-26T09:47:07Z</time>
      </trkpt>
      <trkpt lat="45.9276" lon="4.74178">
        <ele>172</ele>
        <time>2017-06-26T09:47:08Z</time>
      </trkpt>
      <trkpt lat="45.92766" lon="4.74173">
        <ele>172</ele>
        <time>2017-06-26T09:47:09Z</time>
      </trkpt>
      <trkpt lat="45.92771" lon="4.74167">
        <ele>172</ele>
        <time>2017-06-26T09:47:10Z</time>
      </trkpt>
      <trkpt lat="45.92776" lon="4.74162">
        <ele>172</ele>
        <time>2017-06-26T09:47:11Z</time>
      </trkpt>
      <trkpt lat="45.92781" lon="4.74157">
        <ele>172</ele>
        <time>2017-06-26T09:47:12Z</time>
      </trkpt>
      <trkpt lat="45.92786" lon="4.74151">
        <ele>172</ele>
        <time>2017-06-26T09:47:13Z</time>
      </trkpt>
      <trkpt lat="45.92792" lon="4.74145">
        <ele>172</ele>
        <time>2017-06-26T09:47:14Z</time>
      </trkpt>
      <trkpt lat="45.92797" lon="4.7414">
        <ele>172</ele>
        <time>2017-06-26T09:47:15Z</time>
      </trkpt>
      <trkpt lat="45.92802" lon="4.74135">
        <ele>172</ele>
        <time>2017-06-26T09:47:16Z</time>
      </trkpt>
      <trkpt lat="45.92807" lon="4.7413">
        <ele>172</ele>
        <time>2017-06-26T09:47:17Z</time>
      </trkpt>
      <trkpt lat="45.92812" lon="4.74126">
        <ele>172</ele>
        <time>2017-06-26T09:47:18Z</time>
      </trkpt>
      <trkpt lat="45.92816" lon="4.7412">
        <ele>172</ele>
        <time>2017-06-26T09:47:19Z</time>
      </trkpt>
      <trkpt lat="45.9282" lon="4.74115">
        <ele>172</ele>
        <time>2017-06-26T09:47:20Z</time>
      </trkpt>
      <trkpt lat="45.92825" lon="4.74111">
        <ele>171</ele>
        <time>2017-06-26T09:47:21Z</time>
      </trkpt>
      <trkpt lat="45.92829" lon="4.74106">
        <ele>171</ele>
        <time>2017-06-26T09:47:22Z</time>
      </trkpt>
      <trkpt lat="45.92832" lon="4.74102">
        <ele>171</ele>
        <time>2017-06-26T09:47:23Z</time>
      </trkpt>
      <trkpt lat="45.92836" lon="4.74098">
        <ele>171</ele>
        <time>2017-06-26T09:47:24Z</time>
      </trkpt>
      <trkpt lat="45.9284" lon="4.74094">
        <ele>171</ele>
        <time>2017-06-26T09:47:25Z</time>
      </trkpt>
      <trkpt lat="45.92844" lon="4.74089">
        <ele>171</ele>
        <time>2017-06-26T09:47:26Z</time>
      </trkpt>
      <trkpt lat="45.92848" lon="4.74083">
        <ele>172</ele>
        <time>2017-06-26T09:47:27Z</time>
      </trkpt>
      <trkpt lat="45.92852" lon="4.74078">
        <ele>172</ele>
        <time>2017-06-26T09:47:28Z</time>
      </trkpt>
      <trkpt lat="45.92856" lon="4.74073">
        <ele>172</ele>
        <time>2017-06-26T09:47:29Z</time>
      </trkpt>
      <trkpt lat="45.9286" lon="4.74068">
        <ele>172</ele>
        <time>2017-06-26T09:47:30Z</time>
      </trkpt>
      <trkpt lat="45.92865" lon="4.74063">
        <ele>172</ele>
        <time>2017-06-26T09:47:31Z</time>
      </trkpt>
      <trkpt lat="45.92868" lon="4.74058">
        <ele>172</ele>
        <time>2017-06-26T09:47:32Z</time>
      </trkpt>
      <trkpt lat="45.92873" lon="4.74054">
        <ele>172</ele>
        <time>2017-06-26T09:47:33Z</time>
      </trkpt>
      <trkpt lat="45.92877" lon="4.74051">
        <ele>172</ele>
        <time>2017-06-26T09:47:34Z</time>
      </trkpt>
      <trkpt lat="45.92882" lon="4.74049">
        <ele>172</ele>
        <time>2017-06-26T09:47:35Z</time>
      </trkpt>
      <trkpt lat="45.92887" lon="4.74049">
        <ele>172</ele>
        <time>2017-06-26T09:47:36Z</time>
      </trkpt>
      <trkpt lat="45.92892" lon="4.7405">
        <ele>172</ele>
        <time>2017-06-26T09:47:37Z</time>
      </trkpt>
      <trkpt lat="45.92897" lon="4.74051">
        <ele>172</ele>
        <time>2017-06-26T09:47:38Z</time>
      </trkpt>
      <trkpt lat="45.92902" lon="4.74051">
        <ele>172</ele>
        <time>2017-06-26T09:47:39Z</time>
      </trkpt>
      <trkpt lat="45.92906" lon="4.74049">
        <ele>172</ele>
        <time>2017-06-26T09:47:40Z</time>
      </trkpt>
      <trkpt lat="45.9291" lon="4.74045">
        <ele>172</ele>
        <time>2017-06-26T09:47:41Z</time>
      </trkpt>
      <trkpt lat="45.92914" lon="4.7404">
        <ele>172</ele>
        <time>2017-06-26T09:47:42Z</time>
      </trkpt>
      <trkpt lat="45.92917" lon="4.74034">
        <ele>172</ele>
        <time>2017-06-26T09:47:43Z</time>
      </trkpt>
      <trkpt lat="45.92918" lon="4.74028">
        <ele>172</ele>
        <time>2017-06-26T09:47:44Z</time>
      </trkpt>
      <trkpt lat="45.92919" lon="4.74021">
        <ele>172</ele>
        <time>2017-06-26T09:47:45Z</time>
      </trkpt>
      <trkpt lat="45.92919" lon="4.74013">
        <ele>172</ele>
        <time>2017-06-26T09:47:46Z</time>
      </trkpt>
      <trkpt lat="45.92918" lon="4.74006">
        <ele>172</ele>
        <time>2017-06-26T09:47:47Z</time>
      </trkpt>
      <trkpt lat="45.92916" lon="4.73999">
        <ele>172</ele>
        <time>2017-06-26T09:47:48Z</time>
      </trkpt>
      <trkpt lat="45.92913" lon="4.73993">
        <ele>172</ele>
        <time>2017-06-26T09:47:49Z</time>
      </trkpt>
      <trkpt lat="45.92909" lon="4.73988">
        <ele>172</ele>
        <time>2017-06-26T09:47:50Z</time>
      </trkpt>
      <trkpt lat="45.92904" lon="4.73983">
        <ele>172</ele>
        <time>2017-06-26T09:47:51Z</time>
      </trkpt>
      <trkpt lat="45.92899" lon="4.7398">
        <ele>172</ele>
        <time>2017-06-26T09:47:52Z</time>
      </trkpt>
      <trkpt lat="45.92894" lon="4.73975">
        <ele>172</ele>
        <time>2017-06-26T09:47:53Z</time>
      </trkpt>
      <trkpt lat="45.92891" lon="4.73968">
        <ele>172</ele>
        <time>2017-06-26T09:47:54Z</time>
      </trkpt>
      <trkpt lat="45.92888" lon="4.7396">
        <ele>172</ele>
        <time>2017-06-26T09:47:55Z</time>
      </trkpt>
      <trkpt lat="45.92886" lon="4.73951">
        <ele>172</ele>
        <time>2017-06-26T09:47:56Z</time>
      </trkpt>
      <trkpt lat="45.92885" lon="4.73941">
        <ele>172</ele>
        <time>2017-06-26T09:47:57Z</time>
      </trkpt>
      <trkpt lat="45.92884" lon="4.73931">
        <ele>172</ele>
        <time>2017-06-26T09:47:58Z</time>
      </trkpt>
      <trkpt lat="45.92882" lon="4.73921">
        <ele>172</ele>
        <time>2017-06-26T09:47:59Z</time>
      </trkpt>
      <trkpt lat="45.92881" lon="4.7391">
        <ele>173</ele>
        <time>2017-06-26T09:48:00Z</time>
      </trkpt>
      <trkpt lat="45.9288" lon="4.73899">
        <ele>173</ele>
        <time>2017-06-26T09:48:01Z</time>
      </trkpt>
      <trkpt lat="45.92879" lon="4.73888">
        <ele>173</ele>
        <time>2017-06-26T09:48:02Z</time>
      </trkpt>
      <trkpt lat="45.92877" lon="4.73878">
        <ele>173</ele>
        <time>2017-06-26T09:48:03Z</time>
      </trkpt>
      <trkpt lat="45.92875" lon="4.73868">
        <ele>173</ele>
        <time>2017-06-26T09:48:04Z</time>
      </trkpt>
      <trkpt lat="45.92872" lon="4.73859">
        <ele>173</ele>
        <time>2017-06-26T09:48:05Z</time>
      </trkpt>
      <trkpt lat="45.92869" lon="4.7385">
        <ele>173</ele>
        <time>2017-06-26T09:48:06Z</time>
      </trkpt>
      <trkpt lat="45.92867" lon="4.73841">
        <ele>173</ele>
        <time>2017-06-26T09:48:07Z</time>
      </trkpt>
      <trkpt lat="45.92865" lon="4.73832">
        <ele>173</ele>
        <time>2017-06-26T09:48:08Z</time>
      </trkpt>
      <trkpt lat="45.92863" lon="4.73824">
        <ele>173</ele>
        <time>2017-06-26T09:48:09Z</time>
      </trkpt>
      <trkpt lat="45.92861" lon="4.73815">
        <ele>173</ele>
        <time>2017-06-26T09:48:10Z</time>
      </trkpt>
      <trkpt lat="45.92858" lon="4.73808">
        <ele>173</ele>
        <time>2017-06-26T09:48:11Z</time>
      </trkpt>
      <trkpt lat="45.92855" lon="4.73801">
        <ele>173</ele>
        <time>2017-06-26T09:48:12Z</time>
      </trkpt>
      <trkpt lat="45.9285" lon="4.73795">
        <ele>173</ele>
        <time>2017-06-26T09:48:13Z</time>
      </trkpt>
      <trkpt lat="45.92846" lon="4.73791">
        <ele>173</ele>
        <time>2017-06-26T09:48:14Z</time>
      </trkpt>
      <trkpt lat="45.92841" lon="4.73787">
        <ele>173</ele>
        <time>2017-06-26T09:48:15Z</time>
      </trkpt>
      <trkpt lat="45.92837" lon="4.73784">
        <ele>173</ele>
        <time>2017-06-26T09:48:16Z</time>
      </trkpt>
      <trkpt lat="45.92833" lon="4.7378">
        <ele>173</ele>
        <time>2017-06-26T09:48:17Z</time>
      </trkpt>
      <trkpt lat="45.92828" lon="4.73776">
        <ele>173</ele>
        <time>2017-06-26T09:48:18Z</time>
      </trkpt>
      <trkpt lat="45.92823" lon="4.73773">
        <ele>173</ele>
        <time>2017-06-26T09:48:19Z</time>
      </trkpt>
      <trkpt lat="45.92818" lon="4.7377">
        <ele>173</ele>
        <time>2017-06-26T09:48:20Z</time>
      </trkpt>
      <trkpt lat="45.92813" lon="4.73766">
        <ele>173</ele>
        <time>2017-06-26T09:48:21Z</time>
      </trkpt>
      <trkpt lat="45.92809" lon="4.73764">
        <ele>173</ele>
        <time>2017-06-26T09:48:22Z</time>
      </trkpt>
      <trkpt lat="45.92801" lon="4.73759">
        <ele>173</ele>
        <time>2017-06-26T09:48:24Z</time>
      </trkpt>
      <trkpt lat="45.92797" lon="4.73757">
        <ele>173</ele>
        <time>2017-06-26T09:48:25Z</time>
      </trkpt>
      <trkpt lat="45.92789" lon="4.73752">
        <ele>173</ele>
        <time>2017-06-26T09:48:27Z</time>
      </trkpt>
      <trkpt lat="45.92786" lon="4.73749">
        <ele>172</ele>
        <time>2017-06-26T09:48:28Z</time>
      </trkpt>
      <trkpt lat="45.92782" lon="4.73741">
        <ele>172</ele>
        <time>2017-06-26T09:48:30Z</time>
      </trkpt>
      <trkpt lat="45.92779" lon="4.73738">
        <ele>172</ele>
        <time>2017-06-26T09:48:31Z</time>
      </trkpt>
      <trkpt lat="45.92771" lon="4.73733">
        <ele>172</ele>
        <time>2017-06-26T09:48:33Z</time>
      </trkpt>
      <trkpt lat="45.92767" lon="4.73731">
        <ele>172</ele>
        <time>2017-06-26T09:48:34Z</time>
      </trkpt>
      <trkpt lat="45.92759" lon="4.73728">
        <ele>172</ele>
        <time>2017-06-26T09:48:36Z</time>
      </trkpt>
      <trkpt lat="45.92755" lon="4.73727">
        <ele>172</ele>
        <time>2017-06-26T09:48:37Z</time>
      </trkpt>
      <trkpt lat="45.92746" lon="4.73723">
        <ele>173</ele>
        <time>2017-06-26T09:48:39Z</time>
      </trkpt>
      <trkpt lat="45.92742" lon="4.73722">
        <ele>173</ele>
        <time>2017-06-26T09:48:40Z</time>
      </trkpt>
      <trkpt lat="45.92737" lon="4.7372">
        <ele>173</ele>
        <time>2017-06-26T09:48:41Z</time>
      </trkpt>
      <trkpt lat="45.92732" lon="4.73719">
        <ele>173</ele>
        <time>2017-06-26T09:48:42Z</time>
      </trkpt>
      <trkpt lat="45.92727" lon="4.73718">
        <ele>173</ele>
        <time>2017-06-26T09:48:43Z</time>
      </trkpt>
      <trkpt lat="45.92722" lon="4.73717">
        <ele>173</ele>
        <time>2017-06-26T09:48:44Z</time>
      </trkpt>
      <trkpt lat="45.92718" lon="4.73716">
        <ele>173</ele>
        <time>2017-06-26T09:48:45Z</time>
      </trkpt>
      <trkpt lat="45.92713" lon="4.73714">
        <ele>173</ele>
        <time>2017-06-26T09:48:46Z</time>
      </trkpt>
      <trkpt lat="45.92708" lon="4.73713">
        <ele>173</ele>
        <time>2017-06-26T09:48:47Z</time>
      </trkpt>
      <trkpt lat="45.92704" lon="4.73713">
        <ele>173</ele>
        <time>2017-06-26T09:48:48Z</time>
      </trkpt>
      <trkpt lat="45.92699" lon="4.73712">
        <ele>173</ele>
        <time>2017-06-26T09:48:49Z</time>
      </trkpt>
      <trkpt lat="45.92694" lon="4.7371">
        <ele>173</ele>
        <time>2017-06-26T09:48:50Z</time>
      </trkpt>
      <trkpt lat="45.9269" lon="4.7371">
        <ele>173</ele>
        <time>2017-06-26T09:48:51Z</time>
      </trkpt>
      <trkpt lat="45.92685" lon="4.73709">
        <ele>173</ele>
        <time>2017-06-26T09:48:52Z</time>
      </trkpt>
      <trkpt lat="45.9268" lon="4.73708">
        <ele>173</ele>
        <time>2017-06-26T09:48:53Z</time>
      </trkpt>
      <trkpt lat="45.92675" lon="4.73707">
        <ele>174</ele>
        <time>2017-06-26T09:48:54Z</time>
      </trkpt>
      <trkpt lat="45.9267" lon="4.73705">
        <ele>174</ele>
        <time>2017-06-26T09:48:55Z</time>
      </trkpt>
      <trkpt lat="45.92665" lon="4.73703">
        <ele>173</ele>
        <time>2017-06-26T09:48:56Z</time>
      </trkpt>
      <trkpt lat="45.92661" lon="4.73701">
        <ele>173</ele>
        <time>2017-06-26T09:48:57Z</time>
      </trkpt>
      <trkpt lat="45.92656" lon="4.73698">
        <ele>173</ele>
        <time>2017-06-26T09:48:58Z</time>
      </trkpt>
      <trkpt lat="45.92652" lon="4.73694">
        <ele>173</ele>
        <time>2017-06-26T09:48:59Z</time>
      </trkpt>
      <trkpt lat="45.92649" lon="4.73689">
        <ele>173</ele>
        <time>2017-06-26T09:49:00Z</time>
      </trkpt>
      <trkpt lat="45.92645" lon="4.73684">
        <ele>173</ele>
        <time>2017-06-26T09:49:01Z</time>
      </trkpt>
      <trkpt lat="45.92642" lon="4.73679">
        <ele>173</ele>
        <time>2017-06-26T09:49:02Z</time>
      </trkpt>
      <trkpt lat="45.92636" lon="4.7367">
        <ele>173</ele>
        <time>2017-06-26T09:49:04Z</time>
      </trkpt>
      <trkpt lat="45.92632" lon="4.73665">
        <ele>173</ele>
        <time>2017-06-26T09:49:05Z</time>
      </trkpt>
      <trkpt lat="45.92629" lon="4.73658">
        <ele>173</ele>
        <time>2017-06-26T09:49:06Z</time>
      </trkpt>
      <trkpt lat="45.92627" lon="4.73651">
        <ele>173</ele>
        <time>2017-06-26T09:49:07Z</time>
      </trkpt>
      <trkpt lat="45.92625" lon="4.73644">
        <ele>173</ele>
        <time>2017-06-26T09:49:08Z</time>
      </trkpt>
      <trkpt lat="45.92623" lon="4.73637">
        <ele>173</ele>
        <time>2017-06-26T09:49:09Z</time>
      </trkpt>
      <trkpt lat="45.9262" lon="4.73631">
        <ele>173</ele>
        <time>2017-06-26T09:49:10Z</time>
      </trkpt>
      <trkpt lat="45.92617" lon="4.73626">
        <ele>173</ele>
        <time>2017-06-26T09:49:11Z</time>
      </trkpt>
      <trkpt lat="45.92609" lon="4.73622">
        <ele>173</ele>
        <time>2017-06-26T09:49:13Z</time>
      </trkpt>
      <trkpt lat="45.92604" lon="4.73621">
        <ele>173</ele>
        <time>2017-06-26T09:49:14Z</time>
      </trkpt>
      <trkpt lat="45.926" lon="4.7362">
        <ele>173</ele>
        <time>2017-06-26T09:49:15Z</time>
      </trkpt>
      <trkpt lat="45.92595" lon="4.7362">
        <ele>173</ele>
        <time>2017-06-26T09:49:16Z</time>
      </trkpt>
      <trkpt lat="45.9259" lon="4.7362">
        <ele>173</ele>
        <time>2017-06-26T09:49:17Z</time>
      </trkpt>
      <trkpt lat="45.92585" lon="4.73621">
        <ele>173</ele>
        <time>2017-06-26T09:49:18Z</time>
      </trkpt>
      <trkpt lat="45.9258" lon="4.73621">
        <ele>173</ele>
        <time>2017-06-26T09:49:19Z</time>
      </trkpt>
      <trkpt lat="45.92576" lon="4.73622">
        <ele>173</ele>
        <time>2017-06-26T09:49:20Z</time>
      </trkpt>
      <trkpt lat="45.92571" lon="4.73623">
        <ele>173</ele>
        <time>2017-06-26T09:49:21Z</time>
      </trkpt>
      <trkpt lat="45.92566" lon="4.73624">
        <ele>173</ele>
        <time>2017-06-26T09:49:22Z</time>
      </trkpt>
      <trkpt lat="45.92558" lon="4.73627">
        <ele>173</ele>
        <time>2017-06-26T09:49:24Z</time>
      </trkpt>
      <trkpt lat="45.92553" lon="4.73629">
        <ele>173</ele>
        <time>2017-06-26T09:49:25Z</time>
      </trkpt>
      <trkpt lat="45.92545" lon="4.73631">
        <ele>173</ele>
        <time>2017-06-26T09:49:27Z</time>
      </trkpt>
      <trkpt lat="45.9254" lon="4.73632">
        <ele>173</ele>
        <time>2017-06-26T09:49:28Z</time>
      </trkpt>
      <trkpt lat="45.92535" lon="4.73633">
        <ele>173</ele>
        <time>2017-06-26T09:49:29Z</time>
      </trkpt>
      <trkpt lat="45.9253" lon="4.73635">
        <ele>173</ele>
        <time>2017-06-26T09:49:30Z</time>
      </trkpt>
      <trkpt lat="45.92525" lon="4.73635">
        <ele>173</ele>
        <time>2017-06-26T09:49:31Z</time>
      </trkpt>
      <trkpt lat="45.9252" lon="4.73636">
        <ele>173</ele>
        <time>2017-06-26T09:49:32Z</time>
      </trkpt>
      <trkpt lat="45.92512" lon="4.73637">
        <ele>173</ele>
        <time>2017-06-26T09:49:34Z</time>
      </trkpt>
      <trkpt lat="45.92508" lon="4.73637">
        <ele>174</ele>
        <time>2017-06-26T09:49:35Z</time>
      </trkpt>
      <trkpt lat="45.92501" lon="4.73638">
        <ele>174</ele>
        <time>2017-06-26T09:49:37Z</time>
      </trkpt>
      <trkpt lat="45.92497" lon="4.73638">
        <ele>174</ele>
        <time>2017-06-26T09:49:38Z</time>
      </trkpt>
      <trkpt lat="45.9249" lon="4.73638">
        <ele>174</ele>
        <time>2017-06-26T09:49:40Z</time>
      </trkpt>
      <trkpt lat="45.92487" lon="4.73638">
        <ele>174</ele>
        <time>2017-06-26T09:49:41Z</time>
      </trkpt>
      <trkpt lat="45.92481" lon="4.73638">
        <ele>174</ele>
        <time>2017-06-26T09:49:43Z</time>
      </trkpt>
      <trkpt lat="45.92478" lon="4.7364">
        <ele>174</ele>
        <time>2017-06-26T09:49:44Z</time>
      </trkpt>
      <trkpt lat="45.92472" lon="4.73647">
        <ele>174</ele>
        <time>2017-06-26T09:49:46Z</time>
      </trkpt>
      <trkpt lat="45.92471" lon="4.73652">
        <ele>174</ele>
        <time>2017-06-26T09:49:47Z</time>
      </trkpt>
      <trkpt lat="45.92471" lon="4.73661">
        <ele>174</ele>
        <time>2017-06-26T09:49:49Z</time>
      </trkpt>
      <trkpt lat="45.9247" lon="4.73665">
        <ele>174</ele>
        <time>2017-06-26T09:49:50Z</time>
      </trkpt>
      <trkpt lat="45.92469" lon="4.73674">
        <ele>174</ele>
        <time>2017-06-26T09:49:52Z</time>
      </trkpt>
      <trkpt lat="45.92468" lon="4.73678">
        <ele>174</ele>
        <time>2017-06-26T09:49:53Z</time>
      </trkpt>
      <trkpt lat="45.92467" lon="4.73687">
        <ele>174</ele>
        <time>2017-06-26T09:49:55Z</time>
      </trkpt>
      <trkpt lat="45.92467" lon="4.73692">
        <ele>174</ele>
        <time>2017-06-26T09:49:56Z</time>
      </trkpt>
      <trkpt lat="45.92464" lon="4.73705">
        <ele>174</ele>
        <time>2017-06-26T09:50:00Z</time>
      </trkpt>
      <trkpt lat="45.92464" lon="4.73705">
        <ele>174</ele>
        <time>2017-06-26T09:50:01Z</time>
      </trkpt>
      <trkpt lat="45.92465" lon="4.73704">
        <ele>174</ele>
        <time>2017-06-26T09:50:07Z</time>
      </trkpt>
      <trkpt lat="45.92464" lon="4.73706">
        <ele>174</ele>
        <time>2017-06-26T09:50:08Z</time>
      </trkpt>
      <trkpt lat="45.92464" lon="4.73707">
        <ele>174</ele>
        <time>2017-06-26T09:50:10Z</time>
      </trkpt>
      <trkpt lat="45.92463" lon="4.73707">
        <ele>174</ele>
        <time>2017-06-26T09:50:11Z</time>
      </trkpt>
      <trkpt lat="45.9246" lon="4.73709">
        <ele>174</ele>
        <time>2017-06-26T09:50:25.289Z</time>
      </trkpt>
    </trkseg>
  </trk>
</gpx>